<?xml version="1.0" encoding="UTF-8"?><gpx version="1.1" creator="Exported from Strava via extension e-ivanov.ru"  xsi:schemaLocation="http://www.topografix.com/GPX/1/1 http://www.topografix.com/GPX/1/1/gpx.xsd http://www.garmin.com/xmlschemas/GpxExtensions/v3 http://www.garmin.com/xmlschemas/GpxExtensionsv3.xsd http://www.garmin.com/xmlschemas/TrackPointExtension/v1 http://www.garmin.com/xmlschemas/TrackPointExtensionv1.xsd"  xmlns="http://www.topografix.com/GPX/1/1"  xmlns:gpxtpx="http://www.garmin.com/xmlschemas/TrackPointExtension/v1"  xmlns:gpxx="http://www.garmin.com/xmlschemas/GpxExtensions/v3" xmlns:xsi="http://www.w3.org/2001/XMLSchema-instance"><metadata><link href="http://e-ivanov.ru/projects/strava-export-gpx/"><text>Strava gpx export</text></link><time>2022-06-12T18:03:26.208Z</time></metadata><trk><name>RR 22/18 - Geilenkirchen (ingekorte rit na val van clublid) | Ride | Strava</name><trkseg><trkpt lon="5.744498" lat="51.143761"><ele>32.6</ele><time>2022-06-12T06:01:00.000Z</time></trkpt><trkpt lon="5.744568" lat="51.143716"><ele>32.6</ele><time>2022-06-12T06:01:01.000Z</time></trkpt><trkpt lon="5.744638" lat="51.143671"><ele>32.6</ele><time>2022-06-12T06:01:02.000Z</time></trkpt><trkpt lon="5.744711" lat="51.143624"><ele>32.6</ele><time>2022-06-12T06:01:03.000Z</time></trkpt><trkpt lon="5.744777" lat="51.143576"><ele>32.6</ele><time>2022-06-12T06:01:04.000Z</time></trkpt><trkpt lon="5.744846" lat="51.14353"><ele>32.6</ele><time>2022-06-12T06:01:05.000Z</time></trkpt><trkpt lon="5.744911" lat="51.143484"><ele>32.6</ele><time>2022-06-12T06:01:06.000Z</time></trkpt><trkpt lon="5.74498" lat="51.143438"><ele>32.6</ele><time>2022-06-12T06:01:07.000Z</time></trkpt><trkpt lon="5.745049" lat="51.143392"><ele>32.6</ele><time>2022-06-12T06:01:08.000Z</time></trkpt><trkpt lon="5.745119" lat="51.143346"><ele>32.6</ele><time>2022-06-12T06:01:09.000Z</time></trkpt><trkpt lon="5.74519" lat="51.143301"><ele>32.8</ele><time>2022-06-12T06:01:10.000Z</time></trkpt><trkpt lon="5.745261" lat="51.143255"><ele>32.8</ele><time>2022-06-12T06:01:11.000Z</time></trkpt><trkpt lon="5.745328" lat="51.143209"><ele>32.8</ele><time>2022-06-12T06:01:12.000Z</time></trkpt><trkpt lon="5.745396" lat="51.143163"><ele>32.6</ele><time>2022-06-12T06:01:13.000Z</time></trkpt><trkpt lon="5.745464" lat="51.143118"><ele>32.6</ele><time>2022-06-12T06:01:14.000Z</time></trkpt><trkpt lon="5.745535" lat="51.143071"><ele>32.4</ele><time>2022-06-12T06:01:15.000Z</time></trkpt><trkpt lon="5.745602" lat="51.143026"><ele>32.4</ele><time>2022-06-12T06:01:16.000Z</time></trkpt><trkpt lon="5.745671" lat="51.14298"><ele>32.4</ele><time>2022-06-12T06:01:17.000Z</time></trkpt><trkpt lon="5.745738" lat="51.142934"><ele>32.4</ele><time>2022-06-12T06:01:18.000Z</time></trkpt><trkpt lon="5.745806" lat="51.142889"><ele>32.4</ele><time>2022-06-12T06:01:19.000Z</time></trkpt><trkpt lon="5.745876" lat="51.142843"><ele>32.2</ele><time>2022-06-12T06:01:20.000Z</time></trkpt><trkpt lon="5.745943" lat="51.142793"><ele>32.2</ele><time>2022-06-12T06:01:21.000Z</time></trkpt><trkpt lon="5.74601" lat="51.142747"><ele>32.2</ele><time>2022-06-12T06:01:22.000Z</time></trkpt><trkpt lon="5.746077" lat="51.142702"><ele>32.2</ele><time>2022-06-12T06:01:23.000Z</time></trkpt><trkpt lon="5.746147" lat="51.142657"><ele>32.4</ele><time>2022-06-12T06:01:24.000Z</time></trkpt><trkpt lon="5.746218" lat="51.14261"><ele>32.6</ele><time>2022-06-12T06:01:25.000Z</time></trkpt><trkpt lon="5.746286" lat="51.142565"><ele>32.6</ele><time>2022-06-12T06:01:26.000Z</time></trkpt><trkpt lon="5.746352" lat="51.14252"><ele>32.6</ele><time>2022-06-12T06:01:27.000Z</time></trkpt><trkpt lon="5.746423" lat="51.142473"><ele>32.6</ele><time>2022-06-12T06:01:28.000Z</time></trkpt><trkpt lon="5.746497" lat="51.142424"><ele>32.6</ele><time>2022-06-12T06:01:29.000Z</time></trkpt><trkpt lon="5.746564" lat="51.142375"><ele>32.6</ele><time>2022-06-12T06:01:30.000Z</time></trkpt><trkpt lon="5.746635" lat="51.142329"><ele>32.6</ele><time>2022-06-12T06:01:31.000Z</time></trkpt><trkpt lon="5.7467" lat="51.142282"><ele>32.6</ele><time>2022-06-12T06:01:32.000Z</time></trkpt><trkpt lon="5.746773" lat="51.142229"><ele>32.6</ele><time>2022-06-12T06:01:33.000Z</time></trkpt><trkpt lon="5.746839" lat="51.142179"><ele>32.6</ele><time>2022-06-12T06:01:34.000Z</time></trkpt><trkpt lon="5.746907" lat="51.14213"><ele>32.6</ele><time>2022-06-12T06:01:35.000Z</time></trkpt><trkpt lon="5.746978" lat="51.142084"><ele>32.6</ele><time>2022-06-12T06:01:36.000Z</time></trkpt><trkpt lon="5.747046" lat="51.142039"><ele>32.6</ele><time>2022-06-12T06:01:37.000Z</time></trkpt><trkpt lon="5.747121" lat="51.141992"><ele>32.4</ele><time>2022-06-12T06:01:38.000Z</time></trkpt><trkpt lon="5.74719" lat="51.141946"><ele>32.4</ele><time>2022-06-12T06:01:39.000Z</time></trkpt><trkpt lon="5.747257" lat="51.141905"><ele>32.4</ele><time>2022-06-12T06:01:40.000Z</time></trkpt><trkpt lon="5.747325" lat="51.141855"><ele>32.2</ele><time>2022-06-12T06:01:41.000Z</time></trkpt><trkpt lon="5.747389" lat="51.141809"><ele>32.2</ele><time>2022-06-12T06:01:42.000Z</time></trkpt><trkpt lon="5.747458" lat="51.141763"><ele>32.2</ele><time>2022-06-12T06:01:43.000Z</time></trkpt><trkpt lon="5.74753" lat="51.141717"><ele>32.2</ele><time>2022-06-12T06:01:44.000Z</time></trkpt><trkpt lon="5.747599" lat="51.141672"><ele>32.4</ele><time>2022-06-12T06:01:45.000Z</time></trkpt><trkpt lon="5.74767" lat="51.141626"><ele>32.4</ele><time>2022-06-12T06:01:46.000Z</time></trkpt><trkpt lon="5.747739" lat="51.141581"><ele>32.4</ele><time>2022-06-12T06:01:47.000Z</time></trkpt><trkpt lon="5.74781" lat="51.141534"><ele>32.4</ele><time>2022-06-12T06:01:48.000Z</time></trkpt><trkpt lon="5.747881" lat="51.141485"><ele>32.4</ele><time>2022-06-12T06:01:49.000Z</time></trkpt><trkpt lon="5.747951" lat="51.141443"><ele>32.4</ele><time>2022-06-12T06:01:50.000Z</time></trkpt><trkpt lon="5.748021" lat="51.141394"><ele>32.4</ele><time>2022-06-12T06:01:51.000Z</time></trkpt><trkpt lon="5.74809" lat="51.141348"><ele>32.4</ele><time>2022-06-12T06:01:52.000Z</time></trkpt><trkpt lon="5.748157" lat="51.141304"><ele>32.4</ele><time>2022-06-12T06:01:53.000Z</time></trkpt><trkpt lon="5.748227" lat="51.141258"><ele>32.4</ele><time>2022-06-12T06:01:54.000Z</time></trkpt><trkpt lon="5.748302" lat="51.141207"><ele>32.4</ele><time>2022-06-12T06:01:55.000Z</time></trkpt><trkpt lon="5.748375" lat="51.141164"><ele>32.4</ele><time>2022-06-12T06:01:56.000Z</time></trkpt><trkpt lon="5.748444" lat="51.141115"><ele>32.4</ele><time>2022-06-12T06:01:57.000Z</time></trkpt><trkpt lon="5.748512" lat="51.14107"><ele>32.4</ele><time>2022-06-12T06:01:58.000Z</time></trkpt><trkpt lon="5.748585" lat="51.141023"><ele>32.4</ele><time>2022-06-12T06:01:59.000Z</time></trkpt><trkpt lon="5.748653" lat="51.140979"><ele>32.4</ele><time>2022-06-12T06:02:00.000Z</time></trkpt><trkpt lon="5.748728" lat="51.140932"><ele>32.4</ele><time>2022-06-12T06:02:01.000Z</time></trkpt><trkpt lon="5.748804" lat="51.140889"><ele>32.6</ele><time>2022-06-12T06:02:02.000Z</time></trkpt><trkpt lon="5.748881" lat="51.140847"><ele>32.6</ele><time>2022-06-12T06:02:03.000Z</time></trkpt><trkpt lon="5.748953" lat="51.140801"><ele>32.6</ele><time>2022-06-12T06:02:04.000Z</time></trkpt><trkpt lon="5.749025" lat="51.140756"><ele>32.6</ele><time>2022-06-12T06:02:05.000Z</time></trkpt><trkpt lon="5.749095" lat="51.140706"><ele>32.6</ele><time>2022-06-12T06:02:06.000Z</time></trkpt><trkpt lon="5.749165" lat="51.14066"><ele>32.4</ele><time>2022-06-12T06:02:07.000Z</time></trkpt><trkpt lon="5.749233" lat="51.140613"><ele>32.4</ele><time>2022-06-12T06:02:08.000Z</time></trkpt><trkpt lon="5.7493" lat="51.140561"><ele>32.4</ele><time>2022-06-12T06:02:09.000Z</time></trkpt><trkpt lon="5.749362" lat="51.140504"><ele>32.4</ele><time>2022-06-12T06:02:10.000Z</time></trkpt><trkpt lon="5.749423" lat="51.140455"><ele>32.4</ele><time>2022-06-12T06:02:11.000Z</time></trkpt><trkpt lon="5.749493" lat="51.140401"><ele>32.4</ele><time>2022-06-12T06:02:12.000Z</time></trkpt><trkpt lon="5.749567" lat="51.140351"><ele>32.4</ele><time>2022-06-12T06:02:13.000Z</time></trkpt><trkpt lon="5.74964" lat="51.140306"><ele>32.4</ele><time>2022-06-12T06:02:14.000Z</time></trkpt><trkpt lon="5.749713" lat="51.140256"><ele>32.4</ele><time>2022-06-12T06:02:15.000Z</time></trkpt><trkpt lon="5.749784" lat="51.140208"><ele>32.4</ele><time>2022-06-12T06:02:16.000Z</time></trkpt><trkpt lon="5.749856" lat="51.140162"><ele>32.4</ele><time>2022-06-12T06:02:17.000Z</time></trkpt><trkpt lon="5.749928" lat="51.140112"><ele>32.4</ele><time>2022-06-12T06:02:18.000Z</time></trkpt><trkpt lon="5.75" lat="51.140063"><ele>32.2</ele><time>2022-06-12T06:02:19.000Z</time></trkpt><trkpt lon="5.750072" lat="51.140017"><ele>32.2</ele><time>2022-06-12T06:02:20.000Z</time></trkpt><trkpt lon="5.750146" lat="51.139966"><ele>32.2</ele><time>2022-06-12T06:02:21.000Z</time></trkpt><trkpt lon="5.750217" lat="51.139921"><ele>32.2</ele><time>2022-06-12T06:02:22.000Z</time></trkpt><trkpt lon="5.750287" lat="51.139872"><ele>32.2</ele><time>2022-06-12T06:02:23.000Z</time></trkpt><trkpt lon="5.750359" lat="51.139825"><ele>32.2</ele><time>2022-06-12T06:02:24.000Z</time></trkpt><trkpt lon="5.750429" lat="51.139776"><ele>32.2</ele><time>2022-06-12T06:02:25.000Z</time></trkpt><trkpt lon="5.7505" lat="51.139731"><ele>32.2</ele><time>2022-06-12T06:02:26.000Z</time></trkpt><trkpt lon="5.750568" lat="51.139685"><ele>32.2</ele><time>2022-06-12T06:02:27.000Z</time></trkpt><trkpt lon="5.750639" lat="51.139635"><ele>32.2</ele><time>2022-06-12T06:02:28.000Z</time></trkpt><trkpt lon="5.750709" lat="51.139589"><ele>32.2</ele><time>2022-06-12T06:02:29.000Z</time></trkpt><trkpt lon="5.750777" lat="51.139545"><ele>32.2</ele><time>2022-06-12T06:02:30.000Z</time></trkpt><trkpt lon="5.750848" lat="51.139494"><ele>32.2</ele><time>2022-06-12T06:02:31.000Z</time></trkpt><trkpt lon="5.750919" lat="51.139448"><ele>32.2</ele><time>2022-06-12T06:02:32.000Z</time></trkpt><trkpt lon="5.75099" lat="51.139402"><ele>32.2</ele><time>2022-06-12T06:02:33.000Z</time></trkpt><trkpt lon="5.751061" lat="51.139356"><ele>32.2</ele><time>2022-06-12T06:02:34.000Z</time></trkpt><trkpt lon="5.751132" lat="51.139307"><ele>32.2</ele><time>2022-06-12T06:02:35.000Z</time></trkpt><trkpt lon="5.7512" lat="51.139264"><ele>32.2</ele><time>2022-06-12T06:02:36.000Z</time></trkpt><trkpt lon="5.751269" lat="51.139216"><ele>32.2</ele><time>2022-06-12T06:02:37.000Z</time></trkpt><trkpt lon="5.751341" lat="51.139166"><ele>32.4</ele><time>2022-06-12T06:02:38.000Z</time></trkpt><trkpt lon="5.751411" lat="51.13912"><ele>32.4</ele><time>2022-06-12T06:02:39.000Z</time></trkpt><trkpt lon="5.751481" lat="51.139074"><ele>32.4</ele><time>2022-06-12T06:02:40.000Z</time></trkpt><trkpt lon="5.75155" lat="51.139029"><ele>32.6</ele><time>2022-06-12T06:02:41.000Z</time></trkpt><trkpt lon="5.751621" lat="51.138979"><ele>32.6</ele><time>2022-06-12T06:02:42.000Z</time></trkpt><trkpt lon="5.751693" lat="51.138933"><ele>32.6</ele><time>2022-06-12T06:02:43.000Z</time></trkpt><trkpt lon="5.751766" lat="51.138883"><ele>32.6</ele><time>2022-06-12T06:02:44.000Z</time></trkpt><trkpt lon="5.751838" lat="51.138837"><ele>32.6</ele><time>2022-06-12T06:02:45.000Z</time></trkpt><trkpt lon="5.751908" lat="51.138792"><ele>32.4</ele><time>2022-06-12T06:02:46.000Z</time></trkpt><trkpt lon="5.751981" lat="51.138738"><ele>32.2</ele><time>2022-06-12T06:02:47.000Z</time></trkpt><trkpt lon="5.752053" lat="51.138692"><ele>32.2</ele><time>2022-06-12T06:02:48.000Z</time></trkpt><trkpt lon="5.752126" lat="51.138643"><ele>32.4</ele><time>2022-06-12T06:02:49.000Z</time></trkpt><trkpt lon="5.752198" lat="51.138593"><ele>32.2</ele><time>2022-06-12T06:02:50.000Z</time></trkpt><trkpt lon="5.752271" lat="51.138544"><ele>32.2</ele><time>2022-06-12T06:02:51.000Z</time></trkpt><trkpt lon="5.752343" lat="51.138499"><ele>32.2</ele><time>2022-06-12T06:02:52.000Z</time></trkpt><trkpt lon="5.752418" lat="51.138448"><ele>32.2</ele><time>2022-06-12T06:02:53.000Z</time></trkpt><trkpt lon="5.752491" lat="51.138399"><ele>32.4</ele><time>2022-06-12T06:02:54.000Z</time></trkpt><trkpt lon="5.752563" lat="51.138353"><ele>32.4</ele><time>2022-06-12T06:02:55.000Z</time></trkpt><trkpt lon="5.752632" lat="51.138305"><ele>32.4</ele><time>2022-06-12T06:02:56.000Z</time></trkpt><trkpt lon="5.752706" lat="51.138254"><ele>32.4</ele><time>2022-06-12T06:02:57.000Z</time></trkpt><trkpt lon="5.75277" lat="51.138214"><ele>32.4</ele><time>2022-06-12T06:02:58.000Z</time></trkpt><trkpt lon="5.752851" lat="51.138159"><ele>32.4</ele><time>2022-06-12T06:02:59.000Z</time></trkpt><trkpt lon="5.752924" lat="51.13811"><ele>32.4</ele><time>2022-06-12T06:03:00.000Z</time></trkpt><trkpt lon="5.752998" lat="51.138063"><ele>32.2</ele><time>2022-06-12T06:03:01.000Z</time></trkpt><trkpt lon="5.753069" lat="51.138014"><ele>32.2</ele><time>2022-06-12T06:03:02.000Z</time></trkpt><trkpt lon="5.753142" lat="51.137964"><ele>32.2</ele><time>2022-06-12T06:03:03.000Z</time></trkpt><trkpt lon="5.753213" lat="51.137918"><ele>32.4</ele><time>2022-06-12T06:03:04.000Z</time></trkpt><trkpt lon="5.753283" lat="51.137869"><ele>32.4</ele><time>2022-06-12T06:03:05.000Z</time></trkpt><trkpt lon="5.753356" lat="51.137823"><ele>32.4</ele><time>2022-06-12T06:03:06.000Z</time></trkpt><trkpt lon="5.753428" lat="51.137773"><ele>32.4</ele><time>2022-06-12T06:03:07.000Z</time></trkpt><trkpt lon="5.7535" lat="51.137727"><ele>32.4</ele><time>2022-06-12T06:03:08.000Z</time></trkpt><trkpt lon="5.753575" lat="51.137681"><ele>32.4</ele><time>2022-06-12T06:03:09.000Z</time></trkpt><trkpt lon="5.753652" lat="51.137644"><ele>32.6</ele><time>2022-06-12T06:03:10.000Z</time></trkpt><trkpt lon="5.753731" lat="51.137601"><ele>32.4</ele><time>2022-06-12T06:03:11.000Z</time></trkpt><trkpt lon="5.753804" lat="51.137556"><ele>32.4</ele><time>2022-06-12T06:03:12.000Z</time></trkpt><trkpt lon="5.753875" lat="51.13751"><ele>32.4</ele><time>2022-06-12T06:03:13.000Z</time></trkpt><trkpt lon="5.753947" lat="51.137461"><ele>32.4</ele><time>2022-06-12T06:03:14.000Z</time></trkpt><trkpt lon="5.754019" lat="51.137411"><ele>32.6</ele><time>2022-06-12T06:03:15.000Z</time></trkpt><trkpt lon="5.75409" lat="51.137365"><ele>32.6</ele><time>2022-06-12T06:03:16.000Z</time></trkpt><trkpt lon="5.754163" lat="51.137316"><ele>32.6</ele><time>2022-06-12T06:03:17.000Z</time></trkpt><trkpt lon="5.754232" lat="51.137271"><ele>32.6</ele><time>2022-06-12T06:03:18.000Z</time></trkpt><trkpt lon="5.754305" lat="51.137221"><ele>32.6</ele><time>2022-06-12T06:03:19.000Z</time></trkpt><trkpt lon="5.754379" lat="51.137171"><ele>32.6</ele><time>2022-06-12T06:03:20.000Z</time></trkpt><trkpt lon="5.75445" lat="51.137124"><ele>32.6</ele><time>2022-06-12T06:03:21.000Z</time></trkpt><trkpt lon="5.754518" lat="51.13708"><ele>32.6</ele><time>2022-06-12T06:03:22.000Z</time></trkpt><trkpt lon="5.75459" lat="51.137034"><ele>32.4</ele><time>2022-06-12T06:03:23.000Z</time></trkpt><trkpt lon="5.754659" lat="51.136984"><ele>32.4</ele><time>2022-06-12T06:03:24.000Z</time></trkpt><trkpt lon="5.754728" lat="51.136938"><ele>32.4</ele><time>2022-06-12T06:03:25.000Z</time></trkpt><trkpt lon="5.754799" lat="51.136892"><ele>32.6</ele><time>2022-06-12T06:03:26.000Z</time></trkpt><trkpt lon="5.75487" lat="51.136846"><ele>32.6</ele><time>2022-06-12T06:03:27.000Z</time></trkpt><trkpt lon="5.754939" lat="51.136801"><ele>32.6</ele><time>2022-06-12T06:03:28.000Z</time></trkpt><trkpt lon="5.755009" lat="51.136755"><ele>32.8</ele><time>2022-06-12T06:03:29.000Z</time></trkpt><trkpt lon="5.755079" lat="51.136705"><ele>32.8</ele><time>2022-06-12T06:03:30.000Z</time></trkpt><trkpt lon="5.755149" lat="51.136659"><ele>33</ele><time>2022-06-12T06:03:31.000Z</time></trkpt><trkpt lon="5.75522" lat="51.13661"><ele>33</ele><time>2022-06-12T06:03:32.000Z</time></trkpt><trkpt lon="5.755292" lat="51.136563"><ele>33</ele><time>2022-06-12T06:03:33.000Z</time></trkpt><trkpt lon="5.755362" lat="51.136518"><ele>32.8</ele><time>2022-06-12T06:03:34.000Z</time></trkpt><trkpt lon="5.755433" lat="51.136472"><ele>32.8</ele><time>2022-06-12T06:03:35.000Z</time></trkpt><trkpt lon="5.755502" lat="51.136427"><ele>32.8</ele><time>2022-06-12T06:03:36.000Z</time></trkpt><trkpt lon="5.755576" lat="51.136381"><ele>32.6</ele><time>2022-06-12T06:03:37.000Z</time></trkpt><trkpt lon="5.755648" lat="51.136335"><ele>32.6</ele><time>2022-06-12T06:03:38.000Z</time></trkpt><trkpt lon="5.755717" lat="51.136286"><ele>32.8</ele><time>2022-06-12T06:03:39.000Z</time></trkpt><trkpt lon="5.755788" lat="51.13624"><ele>32.8</ele><time>2022-06-12T06:03:40.000Z</time></trkpt><trkpt lon="5.755858" lat="51.13619"><ele>32.8</ele><time>2022-06-12T06:03:41.000Z</time></trkpt><trkpt lon="5.755928" lat="51.136144"><ele>32.8</ele><time>2022-06-12T06:03:42.000Z</time></trkpt><trkpt lon="5.755998" lat="51.136098"><ele>32.6</ele><time>2022-06-12T06:03:43.000Z</time></trkpt><trkpt lon="5.756067" lat="51.13605"><ele>32.6</ele><time>2022-06-12T06:03:44.000Z</time></trkpt><trkpt lon="5.756137" lat="51.136005"><ele>32.6</ele><time>2022-06-12T06:03:45.000Z</time></trkpt><trkpt lon="5.756207" lat="51.135958"><ele>32.6</ele><time>2022-06-12T06:03:46.000Z</time></trkpt><trkpt lon="5.756277" lat="51.135912"><ele>32.8</ele><time>2022-06-12T06:03:47.000Z</time></trkpt><trkpt lon="5.756343" lat="51.135865"><ele>32.8</ele><time>2022-06-12T06:03:48.000Z</time></trkpt><trkpt lon="5.756418" lat="51.135816"><ele>32.8</ele><time>2022-06-12T06:03:49.000Z</time></trkpt><trkpt lon="5.756485" lat="51.135767"><ele>32.8</ele><time>2022-06-12T06:03:50.000Z</time></trkpt><trkpt lon="5.756553" lat="51.135725"><ele>32.8</ele><time>2022-06-12T06:03:51.000Z</time></trkpt><trkpt lon="5.756618" lat="51.135683"><ele>32.8</ele><time>2022-06-12T06:03:52.000Z</time></trkpt><trkpt lon="5.756684" lat="51.135641"><ele>32.6</ele><time>2022-06-12T06:03:53.000Z</time></trkpt><trkpt lon="5.756752" lat="51.135602"><ele>32.6</ele><time>2022-06-12T06:03:54.000Z</time></trkpt><trkpt lon="5.756823" lat="51.135568"><ele>32.4</ele><time>2022-06-12T06:03:55.000Z</time></trkpt><trkpt lon="5.756895" lat="51.135531"><ele>32.4</ele><time>2022-06-12T06:03:56.000Z</time></trkpt><trkpt lon="5.756971" lat="51.135488"><ele>32.4</ele><time>2022-06-12T06:03:57.000Z</time></trkpt><trkpt lon="5.757041" lat="51.135447"><ele>32.2</ele><time>2022-06-12T06:03:58.000Z</time></trkpt><trkpt lon="5.757114" lat="51.135401"><ele>32.4</ele><time>2022-06-12T06:03:59.000Z</time></trkpt><trkpt lon="5.757184" lat="51.135358"><ele>32.4</ele><time>2022-06-12T06:04:00.000Z</time></trkpt><trkpt lon="5.757253" lat="51.13531"><ele>32.2</ele><time>2022-06-12T06:04:01.000Z</time></trkpt><trkpt lon="5.757323" lat="51.135263"><ele>32.2</ele><time>2022-06-12T06:04:02.000Z</time></trkpt><trkpt lon="5.757395" lat="51.135224"><ele>32.2</ele><time>2022-06-12T06:04:03.000Z</time></trkpt><trkpt lon="5.757468" lat="51.13519"><ele>32.4</ele><time>2022-06-12T06:04:04.000Z</time></trkpt><trkpt lon="5.757546" lat="51.135167"><ele>32.4</ele><time>2022-06-12T06:04:05.000Z</time></trkpt><trkpt lon="5.75763" lat="51.135159"><ele>32.6</ele><time>2022-06-12T06:04:06.000Z</time></trkpt><trkpt lon="5.757717" lat="51.135166"><ele>32.6</ele><time>2022-06-12T06:04:07.000Z</time></trkpt><trkpt lon="5.757808" lat="51.135181"><ele>32.6</ele><time>2022-06-12T06:04:08.000Z</time></trkpt><trkpt lon="5.757902" lat="51.135193"><ele>32.6</ele><time>2022-06-12T06:04:09.000Z</time></trkpt><trkpt lon="5.758" lat="51.135186"><ele>32.6</ele><time>2022-06-12T06:04:10.000Z</time></trkpt><trkpt lon="5.758099" lat="51.135167"><ele>32.6</ele><time>2022-06-12T06:04:11.000Z</time></trkpt><trkpt lon="5.758197" lat="51.13514"><ele>32.6</ele><time>2022-06-12T06:04:12.000Z</time></trkpt><trkpt lon="5.758295" lat="51.135114"><ele>32.6</ele><time>2022-06-12T06:04:13.000Z</time></trkpt><trkpt lon="5.758397" lat="51.135091"><ele>32.6</ele><time>2022-06-12T06:04:14.000Z</time></trkpt><trkpt lon="5.758499" lat="51.135064"><ele>32.6</ele><time>2022-06-12T06:04:15.000Z</time></trkpt><trkpt lon="5.758596" lat="51.135038"><ele>32.6</ele><time>2022-06-12T06:04:16.000Z</time></trkpt><trkpt lon="5.758699" lat="51.135011"><ele>32.6</ele><time>2022-06-12T06:04:17.000Z</time></trkpt><trkpt lon="5.758802" lat="51.134984"><ele>32.8</ele><time>2022-06-12T06:04:18.000Z</time></trkpt><trkpt lon="5.758904" lat="51.134957"><ele>32.8</ele><time>2022-06-12T06:04:19.000Z</time></trkpt><trkpt lon="5.759008" lat="51.13493"><ele>32.6</ele><time>2022-06-12T06:04:20.000Z</time></trkpt><trkpt lon="5.75911" lat="51.134907"><ele>32.6</ele><time>2022-06-12T06:04:21.000Z</time></trkpt><trkpt lon="5.759212" lat="51.134877"><ele>32.4</ele><time>2022-06-12T06:04:22.000Z</time></trkpt><trkpt lon="5.759313" lat="51.13485"><ele>32.2</ele><time>2022-06-12T06:04:23.000Z</time></trkpt><trkpt lon="5.759413" lat="51.134824"><ele>32.2</ele><time>2022-06-12T06:04:24.000Z</time></trkpt><trkpt lon="5.759515" lat="51.134797"><ele>32.2</ele><time>2022-06-12T06:04:25.000Z</time></trkpt><trkpt lon="5.759617" lat="51.134774"><ele>32.2</ele><time>2022-06-12T06:04:26.000Z</time></trkpt><trkpt lon="5.759718" lat="51.134747"><ele>32.2</ele><time>2022-06-12T06:04:27.000Z</time></trkpt><trkpt lon="5.759821" lat="51.134724"><ele>32.4</ele><time>2022-06-12T06:04:28.000Z</time></trkpt><trkpt lon="5.759922" lat="51.134698"><ele>32.4</ele><time>2022-06-12T06:04:29.000Z</time></trkpt><trkpt lon="5.760025" lat="51.134678"><ele>32.4</ele><time>2022-06-12T06:04:30.000Z</time></trkpt><trkpt lon="5.760125" lat="51.134659"><ele>32.4</ele><time>2022-06-12T06:04:31.000Z</time></trkpt><trkpt lon="5.760225" lat="51.134644"><ele>32.4</ele><time>2022-06-12T06:04:32.000Z</time></trkpt><trkpt lon="5.760325" lat="51.134625"><ele>32.6</ele><time>2022-06-12T06:04:33.000Z</time></trkpt><trkpt lon="5.760427" lat="51.13461"><ele>32.6</ele><time>2022-06-12T06:04:34.000Z</time></trkpt><trkpt lon="5.760531" lat="51.134594"><ele>32.4</ele><time>2022-06-12T06:04:35.000Z</time></trkpt><trkpt lon="5.760631" lat="51.134575"><ele>32.4</ele><time>2022-06-12T06:04:36.000Z</time></trkpt><trkpt lon="5.76073" lat="51.134564"><ele>32.6</ele><time>2022-06-12T06:04:37.000Z</time></trkpt><trkpt lon="5.760825" lat="51.134549"><ele>32.6</ele><time>2022-06-12T06:04:38.000Z</time></trkpt><trkpt lon="5.760931" lat="51.134533"><ele>32.6</ele><time>2022-06-12T06:04:39.000Z</time></trkpt><trkpt lon="5.761025" lat="51.134523"><ele>32.6</ele><time>2022-06-12T06:04:40.000Z</time></trkpt><trkpt lon="5.761137" lat="51.13451"><ele>32.6</ele><time>2022-06-12T06:04:41.000Z</time></trkpt><trkpt lon="5.761243" lat="51.134495"><ele>32.6</ele><time>2022-06-12T06:04:42.000Z</time></trkpt><trkpt lon="5.761349" lat="51.134484"><ele>32.6</ele><time>2022-06-12T06:04:43.000Z</time></trkpt><trkpt lon="5.761453" lat="51.134472"><ele>32.8</ele><time>2022-06-12T06:04:44.000Z</time></trkpt><trkpt lon="5.761563" lat="51.134453"><ele>32.8</ele><time>2022-06-12T06:04:45.000Z</time></trkpt><trkpt lon="5.761663" lat="51.134439"><ele>32.6</ele><time>2022-06-12T06:04:46.000Z</time></trkpt><trkpt lon="5.761772" lat="51.134419"><ele>32.6</ele><time>2022-06-12T06:04:47.000Z</time></trkpt><trkpt lon="5.761876" lat="51.134404"><ele>32.6</ele><time>2022-06-12T06:04:48.000Z</time></trkpt><trkpt lon="5.761981" lat="51.134388"><ele>32.6</ele><time>2022-06-12T06:04:49.000Z</time></trkpt><trkpt lon="5.762085" lat="51.134369"><ele>32.6</ele><time>2022-06-12T06:04:50.000Z</time></trkpt><trkpt lon="5.762188" lat="51.134354"><ele>32.6</ele><time>2022-06-12T06:04:51.000Z</time></trkpt><trkpt lon="5.762296" lat="51.134339"><ele>32.6</ele><time>2022-06-12T06:04:52.000Z</time></trkpt><trkpt lon="5.762399" lat="51.134323"><ele>32.8</ele><time>2022-06-12T06:04:53.000Z</time></trkpt><trkpt lon="5.762504" lat="51.134308"><ele>32.8</ele><time>2022-06-12T06:04:54.000Z</time></trkpt><trkpt lon="5.762609" lat="51.134293"><ele>32.8</ele><time>2022-06-12T06:04:55.000Z</time></trkpt><trkpt lon="5.762711" lat="51.134278"><ele>32.8</ele><time>2022-06-12T06:04:56.000Z</time></trkpt><trkpt lon="5.762817" lat="51.134262"><ele>32.8</ele><time>2022-06-12T06:04:57.000Z</time></trkpt><trkpt lon="5.762912" lat="51.134248"><ele>32.8</ele><time>2022-06-12T06:04:58.000Z</time></trkpt><trkpt lon="5.763021" lat="51.134232"><ele>32.8</ele><time>2022-06-12T06:04:59.000Z</time></trkpt><trkpt lon="5.763121" lat="51.134213"><ele>32.8</ele><time>2022-06-12T06:05:00.000Z</time></trkpt><trkpt lon="5.763221" lat="51.134194"><ele>32.8</ele><time>2022-06-12T06:05:01.000Z</time></trkpt><trkpt lon="5.763323" lat="51.134179"><ele>32.8</ele><time>2022-06-12T06:05:02.000Z</time></trkpt><trkpt lon="5.763427" lat="51.134163"><ele>32.8</ele><time>2022-06-12T06:05:03.000Z</time></trkpt><trkpt lon="5.763534" lat="51.134148"><ele>32.8</ele><time>2022-06-12T06:05:04.000Z</time></trkpt><trkpt lon="5.76364" lat="51.134129"><ele>32.8</ele><time>2022-06-12T06:05:05.000Z</time></trkpt><trkpt lon="5.763743" lat="51.134114"><ele>32.8</ele><time>2022-06-12T06:05:06.000Z</time></trkpt><trkpt lon="5.763846" lat="51.134102"><ele>32.8</ele><time>2022-06-12T06:05:07.000Z</time></trkpt><trkpt lon="5.76395" lat="51.134091"><ele>32.8</ele><time>2022-06-12T06:05:08.000Z</time></trkpt><trkpt lon="5.764055" lat="51.134079"><ele>32.8</ele><time>2022-06-12T06:05:09.000Z</time></trkpt><trkpt lon="5.764163" lat="51.134075"><ele>32.8</ele><time>2022-06-12T06:05:10.000Z</time></trkpt><trkpt lon="5.764269" lat="51.134068"><ele>32.8</ele><time>2022-06-12T06:05:11.000Z</time></trkpt><trkpt lon="5.764379" lat="51.134064"><ele>32.8</ele><time>2022-06-12T06:05:12.000Z</time></trkpt><trkpt lon="5.764488" lat="51.134064"><ele>32.8</ele><time>2022-06-12T06:05:13.000Z</time></trkpt><trkpt lon="5.764593" lat="51.134064"><ele>32.8</ele><time>2022-06-12T06:05:14.000Z</time></trkpt><trkpt lon="5.7647" lat="51.13406"><ele>32.8</ele><time>2022-06-12T06:05:15.000Z</time></trkpt><trkpt lon="5.764803" lat="51.134056"><ele>32.8</ele><time>2022-06-12T06:05:16.000Z</time></trkpt><trkpt lon="5.76491" lat="51.134052"><ele>32.8</ele><time>2022-06-12T06:05:17.000Z</time></trkpt><trkpt lon="5.765017" lat="51.134049"><ele>32.8</ele><time>2022-06-12T06:05:18.000Z</time></trkpt><trkpt lon="5.765124" lat="51.134048"><ele>32.8</ele><time>2022-06-12T06:05:19.000Z</time></trkpt><trkpt lon="5.765217" lat="51.134045"><ele>32.8</ele><time>2022-06-12T06:05:20.000Z</time></trkpt><trkpt lon="5.765331" lat="51.134041"><ele>32.8</ele><time>2022-06-12T06:05:21.000Z</time></trkpt><trkpt lon="5.765437" lat="51.134037"><ele>33</ele><time>2022-06-12T06:05:22.000Z</time></trkpt><trkpt lon="5.765541" lat="51.134033"><ele>33</ele><time>2022-06-12T06:05:23.000Z</time></trkpt><trkpt lon="5.765649" lat="51.134029"><ele>33</ele><time>2022-06-12T06:05:24.000Z</time></trkpt><trkpt lon="5.765753" lat="51.134026"><ele>33</ele><time>2022-06-12T06:05:25.000Z</time></trkpt><trkpt lon="5.765859" lat="51.134022"><ele>33</ele><time>2022-06-12T06:05:26.000Z</time></trkpt><trkpt lon="5.765966" lat="51.134014"><ele>33</ele><time>2022-06-12T06:05:27.000Z</time></trkpt><trkpt lon="5.766073" lat="51.13401"><ele>33</ele><time>2022-06-12T06:05:28.000Z</time></trkpt><trkpt lon="5.766175" lat="51.134007"><ele>33</ele><time>2022-06-12T06:05:29.000Z</time></trkpt><trkpt lon="5.766281" lat="51.134006"><ele>33</ele><time>2022-06-12T06:05:30.000Z</time></trkpt><trkpt lon="5.766379" lat="51.134003"><ele>33</ele><time>2022-06-12T06:05:31.000Z</time></trkpt><trkpt lon="5.766481" lat="51.134003"><ele>33</ele><time>2022-06-12T06:05:32.000Z</time></trkpt><trkpt lon="5.766578" lat="51.133999"><ele>33</ele><time>2022-06-12T06:05:33.000Z</time></trkpt><trkpt lon="5.766674" lat="51.133995"><ele>32.8</ele><time>2022-06-12T06:05:34.000Z</time></trkpt><trkpt lon="5.766767" lat="51.133995"><ele>32.8</ele><time>2022-06-12T06:05:35.000Z</time></trkpt><trkpt lon="5.766858" lat="51.133991"><ele>32.8</ele><time>2022-06-12T06:05:36.000Z</time></trkpt><trkpt lon="5.766941" lat="51.133991"><ele>32.8</ele><time>2022-06-12T06:05:37.000Z</time></trkpt><trkpt lon="5.767024" lat="51.133988"><ele>32.8</ele><time>2022-06-12T06:05:38.000Z</time></trkpt><trkpt lon="5.767098" lat="51.13398"><ele>32.8</ele><time>2022-06-12T06:05:39.000Z</time></trkpt><trkpt lon="5.767155" lat="51.133954"><ele>32.6</ele><time>2022-06-12T06:05:40.000Z</time></trkpt><trkpt lon="5.767187" lat="51.133913"><ele>32.6</ele><time>2022-06-12T06:05:41.000Z</time></trkpt><trkpt lon="5.767198" lat="51.133856"><ele>32.6</ele><time>2022-06-12T06:05:42.000Z</time></trkpt><trkpt lon="5.7672" lat="51.133791"><ele>32.4</ele><time>2022-06-12T06:05:43.000Z</time></trkpt><trkpt lon="5.767207" lat="51.133722"><ele>32.2</ele><time>2022-06-12T06:05:44.000Z</time></trkpt><trkpt lon="5.767218" lat="51.133653"><ele>32</ele><time>2022-06-12T06:05:45.000Z</time></trkpt><trkpt lon="5.767231" lat="51.133589"><ele>31.8</ele><time>2022-06-12T06:05:46.000Z</time></trkpt><trkpt lon="5.767243" lat="51.13352"><ele>31.6</ele><time>2022-06-12T06:05:47.000Z</time></trkpt><trkpt lon="5.767254" lat="51.133452"><ele>31.4</ele><time>2022-06-12T06:05:48.000Z</time></trkpt><trkpt lon="5.767266" lat="51.133375"><ele>31.2</ele><time>2022-06-12T06:05:49.000Z</time></trkpt><trkpt lon="5.767278" lat="51.133305"><ele>31.2</ele><time>2022-06-12T06:05:50.000Z</time></trkpt><trkpt lon="5.767293" lat="51.13323"><ele>31.2</ele><time>2022-06-12T06:05:51.000Z</time></trkpt><trkpt lon="5.767306" lat="51.133162"><ele>31</ele><time>2022-06-12T06:05:52.000Z</time></trkpt><trkpt lon="5.76732" lat="51.13309"><ele>31</ele><time>2022-06-12T06:05:53.000Z</time></trkpt><trkpt lon="5.767331" lat="51.133017"><ele>31</ele><time>2022-06-12T06:05:54.000Z</time></trkpt><trkpt lon="5.767341" lat="51.132946"><ele>31</ele><time>2022-06-12T06:05:55.000Z</time></trkpt><trkpt lon="5.767351" lat="51.132876"><ele>30.8</ele><time>2022-06-12T06:05:56.000Z</time></trkpt><trkpt lon="5.767365" lat="51.132803"><ele>30.8</ele><time>2022-06-12T06:05:57.000Z</time></trkpt><trkpt lon="5.767376" lat="51.132738"><ele>30.8</ele><time>2022-06-12T06:05:58.000Z</time></trkpt><trkpt lon="5.767391" lat="51.132662"><ele>31</ele><time>2022-06-12T06:05:59.000Z</time></trkpt><trkpt lon="5.767406" lat="51.132593"><ele>31</ele><time>2022-06-12T06:06:00.000Z</time></trkpt><trkpt lon="5.767425" lat="51.132524"><ele>31.2</ele><time>2022-06-12T06:06:01.000Z</time></trkpt><trkpt lon="5.767446" lat="51.132457"><ele>31</ele><time>2022-06-12T06:06:02.000Z</time></trkpt><trkpt lon="5.767474" lat="51.132387"><ele>30.8</ele><time>2022-06-12T06:06:03.000Z</time></trkpt><trkpt lon="5.767503" lat="51.132322"><ele>30.8</ele><time>2022-06-12T06:06:04.000Z</time></trkpt><trkpt lon="5.767533" lat="51.132257"><ele>30.8</ele><time>2022-06-12T06:06:05.000Z</time></trkpt><trkpt lon="5.767555" lat="51.132198"><ele>30.6</ele><time>2022-06-12T06:06:06.000Z</time></trkpt><trkpt lon="5.767583" lat="51.132128"><ele>30.6</ele><time>2022-06-12T06:06:07.000Z</time></trkpt><trkpt lon="5.767609" lat="51.132064"><ele>30.4</ele><time>2022-06-12T06:06:08.000Z</time></trkpt><trkpt lon="5.767638" lat="51.131997"><ele>30.2</ele><time>2022-06-12T06:06:09.000Z</time></trkpt><trkpt lon="5.767668" lat="51.131933"><ele>30.2</ele><time>2022-06-12T06:06:10.000Z</time></trkpt><trkpt lon="5.767698" lat="51.131868"><ele>30.2</ele><time>2022-06-12T06:06:11.000Z</time></trkpt><trkpt lon="5.767731" lat="51.131803"><ele>30.2</ele><time>2022-06-12T06:06:12.000Z</time></trkpt><trkpt lon="5.767767" lat="51.131739"><ele>30.2</ele><time>2022-06-12T06:06:13.000Z</time></trkpt><trkpt lon="5.767808" lat="51.131673"><ele>30.4</ele><time>2022-06-12T06:06:14.000Z</time></trkpt><trkpt lon="5.767847" lat="51.131609"><ele>30.4</ele><time>2022-06-12T06:06:15.000Z</time></trkpt><trkpt lon="5.767884" lat="51.131544"><ele>30.4</ele><time>2022-06-12T06:06:16.000Z</time></trkpt><trkpt lon="5.767921" lat="51.131479"><ele>30.6</ele><time>2022-06-12T06:06:17.000Z</time></trkpt><trkpt lon="5.767954" lat="51.131418"><ele>30.8</ele><time>2022-06-12T06:06:18.000Z</time></trkpt><trkpt lon="5.76799" lat="51.13135"><ele>30.8</ele><time>2022-06-12T06:06:19.000Z</time></trkpt><trkpt lon="5.768024" lat="51.131288"><ele>30.8</ele><time>2022-06-12T06:06:20.000Z</time></trkpt><trkpt lon="5.768058" lat="51.131227"><ele>30.8</ele><time>2022-06-12T06:06:21.000Z</time></trkpt><trkpt lon="5.768089" lat="51.131162"><ele>30.6</ele><time>2022-06-12T06:06:22.000Z</time></trkpt><trkpt lon="5.768118" lat="51.131103"><ele>30.8</ele><time>2022-06-12T06:06:23.000Z</time></trkpt><trkpt lon="5.768146" lat="51.131037"><ele>30.8</ele><time>2022-06-12T06:06:24.000Z</time></trkpt><trkpt lon="5.768174" lat="51.130972"><ele>30.8</ele><time>2022-06-12T06:06:25.000Z</time></trkpt><trkpt lon="5.768199" lat="51.130907"><ele>30.8</ele><time>2022-06-12T06:06:26.000Z</time></trkpt><trkpt lon="5.76822" lat="51.130841"><ele>30.6</ele><time>2022-06-12T06:06:27.000Z</time></trkpt><trkpt lon="5.768243" lat="51.130774"><ele>30.6</ele><time>2022-06-12T06:06:28.000Z</time></trkpt><trkpt lon="5.768264" lat="51.130709"><ele>30.8</ele><time>2022-06-12T06:06:29.000Z</time></trkpt><trkpt lon="5.768283" lat="51.130639"><ele>30.8</ele><time>2022-06-12T06:06:30.000Z</time></trkpt><trkpt lon="5.768302" lat="51.130577"><ele>30.8</ele><time>2022-06-12T06:06:31.000Z</time></trkpt><trkpt lon="5.768319" lat="51.130511"><ele>30.8</ele><time>2022-06-12T06:06:32.000Z</time></trkpt><trkpt lon="5.768337" lat="51.130444"><ele>30.8</ele><time>2022-06-12T06:06:33.000Z</time></trkpt><trkpt lon="5.768356" lat="51.130373"><ele>30.8</ele><time>2022-06-12T06:06:34.000Z</time></trkpt><trkpt lon="5.768373" lat="51.130308"><ele>30.8</ele><time>2022-06-12T06:06:35.000Z</time></trkpt><trkpt lon="5.768389" lat="51.130241"><ele>30.6</ele><time>2022-06-12T06:06:36.000Z</time></trkpt><trkpt lon="5.768408" lat="51.130172"><ele>30.6</ele><time>2022-06-12T06:06:37.000Z</time></trkpt><trkpt lon="5.768426" lat="51.130106"><ele>30.6</ele><time>2022-06-12T06:06:38.000Z</time></trkpt><trkpt lon="5.768445" lat="51.130041"><ele>30.8</ele><time>2022-06-12T06:06:39.000Z</time></trkpt><trkpt lon="5.768462" lat="51.129973"><ele>30.6</ele><time>2022-06-12T06:06:40.000Z</time></trkpt><trkpt lon="5.768481" lat="51.129904"><ele>30.4</ele><time>2022-06-12T06:06:41.000Z</time></trkpt><trkpt lon="5.768503" lat="51.129835"><ele>30.4</ele><time>2022-06-12T06:06:42.000Z</time></trkpt><trkpt lon="5.768523" lat="51.12977"><ele>30.4</ele><time>2022-06-12T06:06:43.000Z</time></trkpt><trkpt lon="5.768542" lat="51.129703"><ele>30.6</ele><time>2022-06-12T06:06:44.000Z</time></trkpt><trkpt lon="5.768561" lat="51.129634"><ele>30.6</ele><time>2022-06-12T06:06:45.000Z</time></trkpt><trkpt lon="5.768581" lat="51.129564"><ele>30.6</ele><time>2022-06-12T06:06:46.000Z</time></trkpt><trkpt lon="5.768599" lat="51.1295"><ele>30.6</ele><time>2022-06-12T06:06:47.000Z</time></trkpt><trkpt lon="5.768617" lat="51.129432"><ele>30.6</ele><time>2022-06-12T06:06:48.000Z</time></trkpt><trkpt lon="5.768638" lat="51.129366"><ele>30.6</ele><time>2022-06-12T06:06:49.000Z</time></trkpt><trkpt lon="5.768659" lat="51.129301"><ele>30.4</ele><time>2022-06-12T06:06:50.000Z</time></trkpt><trkpt lon="5.768683" lat="51.129232"><ele>30.4</ele><time>2022-06-12T06:06:51.000Z</time></trkpt><trkpt lon="5.768703" lat="51.129168"><ele>30.4</ele><time>2022-06-12T06:06:52.000Z</time></trkpt><trkpt lon="5.768721" lat="51.129099"><ele>30.4</ele><time>2022-06-12T06:06:53.000Z</time></trkpt><trkpt lon="5.76874" lat="51.129035"><ele>30.4</ele><time>2022-06-12T06:06:54.000Z</time></trkpt><trkpt lon="5.768763" lat="51.128961"><ele>30.4</ele><time>2022-06-12T06:06:55.000Z</time></trkpt><trkpt lon="5.768788" lat="51.128897"><ele>30.4</ele><time>2022-06-12T06:06:56.000Z</time></trkpt><trkpt lon="5.768811" lat="51.128828"><ele>30.4</ele><time>2022-06-12T06:06:57.000Z</time></trkpt><trkpt lon="5.768832" lat="51.128765"><ele>30.4</ele><time>2022-06-12T06:06:58.000Z</time></trkpt><trkpt lon="5.768849" lat="51.128698"><ele>30.4</ele><time>2022-06-12T06:06:59.000Z</time></trkpt><trkpt lon="5.768866" lat="51.128633"><ele>30.4</ele><time>2022-06-12T06:07:00.000Z</time></trkpt><trkpt lon="5.768882" lat="51.128571"><ele>30.4</ele><time>2022-06-12T06:07:01.000Z</time></trkpt><trkpt lon="5.768903" lat="51.128504"><ele>30.2</ele><time>2022-06-12T06:07:02.000Z</time></trkpt><trkpt lon="5.768921" lat="51.128439"><ele>30.2</ele><time>2022-06-12T06:07:03.000Z</time></trkpt><trkpt lon="5.768943" lat="51.128374"><ele>30.4</ele><time>2022-06-12T06:07:04.000Z</time></trkpt><trkpt lon="5.768963" lat="51.12831"><ele>30.4</ele><time>2022-06-12T06:07:05.000Z</time></trkpt><trkpt lon="5.768981" lat="51.12824"><ele>30.4</ele><time>2022-06-12T06:07:06.000Z</time></trkpt><trkpt lon="5.768999" lat="51.128176"><ele>30.4</ele><time>2022-06-12T06:07:07.000Z</time></trkpt><trkpt lon="5.769018" lat="51.12811"><ele>30.4</ele><time>2022-06-12T06:07:08.000Z</time></trkpt><trkpt lon="5.769036" lat="51.128044"><ele>30.6</ele><time>2022-06-12T06:07:09.000Z</time></trkpt><trkpt lon="5.769055" lat="51.12798"><ele>30.4</ele><time>2022-06-12T06:07:10.000Z</time></trkpt><trkpt lon="5.769077" lat="51.127913"><ele>30.6</ele><time>2022-06-12T06:07:11.000Z</time></trkpt><trkpt lon="5.769101" lat="51.127847"><ele>30.6</ele><time>2022-06-12T06:07:12.000Z</time></trkpt><trkpt lon="5.769128" lat="51.127783"><ele>30.6</ele><time>2022-06-12T06:07:13.000Z</time></trkpt><trkpt lon="5.769153" lat="51.127725"><ele>30.6</ele><time>2022-06-12T06:07:14.000Z</time></trkpt><trkpt lon="5.769181" lat="51.127656"><ele>30.6</ele><time>2022-06-12T06:07:15.000Z</time></trkpt><trkpt lon="5.769209" lat="51.127596"><ele>30.6</ele><time>2022-06-12T06:07:16.000Z</time></trkpt><trkpt lon="5.769238" lat="51.127531"><ele>30.6</ele><time>2022-06-12T06:07:17.000Z</time></trkpt><trkpt lon="5.769265" lat="51.127467"><ele>30.4</ele><time>2022-06-12T06:07:18.000Z</time></trkpt><trkpt lon="5.769301" lat="51.127402"><ele>30.4</ele><time>2022-06-12T06:07:19.000Z</time></trkpt><trkpt lon="5.769332" lat="51.127344"><ele>30.4</ele><time>2022-06-12T06:07:20.000Z</time></trkpt><trkpt lon="5.769369" lat="51.127271"><ele>30.4</ele><time>2022-06-12T06:07:21.000Z</time></trkpt><trkpt lon="5.769406" lat="51.127207"><ele>30.4</ele><time>2022-06-12T06:07:22.000Z</time></trkpt><trkpt lon="5.769444" lat="51.127142"><ele>30.4</ele><time>2022-06-12T06:07:23.000Z</time></trkpt><trkpt lon="5.769486" lat="51.127077"><ele>30.4</ele><time>2022-06-12T06:07:24.000Z</time></trkpt><trkpt lon="5.769532" lat="51.127013"><ele>30.6</ele><time>2022-06-12T06:07:25.000Z</time></trkpt><trkpt lon="5.769578" lat="51.126954"><ele>30.6</ele><time>2022-06-12T06:07:26.000Z</time></trkpt><trkpt lon="5.769627" lat="51.12689"><ele>30.6</ele><time>2022-06-12T06:07:27.000Z</time></trkpt><trkpt lon="5.769675" lat="51.126829"><ele>30.6</ele><time>2022-06-12T06:07:28.000Z</time></trkpt><trkpt lon="5.769722" lat="51.12677"><ele>30.6</ele><time>2022-06-12T06:07:29.000Z</time></trkpt><trkpt lon="5.769774" lat="51.126708"><ele>30.6</ele><time>2022-06-12T06:07:30.000Z</time></trkpt><trkpt lon="5.769826" lat="51.12665"><ele>30.6</ele><time>2022-06-12T06:07:31.000Z</time></trkpt><trkpt lon="5.76988" lat="51.126596"><ele>30.6</ele><time>2022-06-12T06:07:32.000Z</time></trkpt><trkpt lon="5.76994" lat="51.126546"><ele>30.6</ele><time>2022-06-12T06:07:33.000Z</time></trkpt><trkpt lon="5.770008" lat="51.126507"><ele>30.6</ele><time>2022-06-12T06:07:34.000Z</time></trkpt><trkpt lon="5.770095" lat="51.126462"><ele>30.8</ele><time>2022-06-12T06:07:35.000Z</time></trkpt><trkpt lon="5.770182" lat="51.126416"><ele>30.8</ele><time>2022-06-12T06:07:36.000Z</time></trkpt><trkpt lon="5.770271" lat="51.126374"><ele>30.8</ele><time>2022-06-12T06:07:37.000Z</time></trkpt><trkpt lon="5.770358" lat="51.126338"><ele>30.8</ele><time>2022-06-12T06:07:38.000Z</time></trkpt><trkpt lon="5.770456" lat="51.126291"><ele>31</ele><time>2022-06-12T06:07:39.000Z</time></trkpt><trkpt lon="5.770544" lat="51.126251"><ele>31</ele><time>2022-06-12T06:07:40.000Z</time></trkpt><trkpt lon="5.77064" lat="51.126207"><ele>31.2</ele><time>2022-06-12T06:07:41.000Z</time></trkpt><trkpt lon="5.770732" lat="51.126165"><ele>31.2</ele><time>2022-06-12T06:07:42.000Z</time></trkpt><trkpt lon="5.770821" lat="51.126122"><ele>31.4</ele><time>2022-06-12T06:07:43.000Z</time></trkpt><trkpt lon="5.770911" lat="51.126084"><ele>31.4</ele><time>2022-06-12T06:07:44.000Z</time></trkpt><trkpt lon="5.771" lat="51.126046"><ele>31.4</ele><time>2022-06-12T06:07:45.000Z</time></trkpt><trkpt lon="5.771082" lat="51.126006"><ele>31.6</ele><time>2022-06-12T06:07:46.000Z</time></trkpt><trkpt lon="5.771169" lat="51.125966"><ele>31.6</ele><time>2022-06-12T06:07:47.000Z</time></trkpt><trkpt lon="5.77125" lat="51.125927"><ele>31.8</ele><time>2022-06-12T06:07:48.000Z</time></trkpt><trkpt lon="5.771338" lat="51.125883"><ele>31.8</ele><time>2022-06-12T06:07:49.000Z</time></trkpt><trkpt lon="5.771421" lat="51.125844"><ele>31.8</ele><time>2022-06-12T06:07:50.000Z</time></trkpt><trkpt lon="5.771505" lat="51.125806"><ele>32</ele><time>2022-06-12T06:07:51.000Z</time></trkpt><trkpt lon="5.771574" lat="51.125773"><ele>32</ele><time>2022-06-12T06:07:52.000Z</time></trkpt><trkpt lon="5.771656" lat="51.125734"><ele>32</ele><time>2022-06-12T06:07:53.000Z</time></trkpt><trkpt lon="5.771731" lat="51.125696"><ele>32</ele><time>2022-06-12T06:07:54.000Z</time></trkpt><trkpt lon="5.771808" lat="51.125658"><ele>32</ele><time>2022-06-12T06:07:55.000Z</time></trkpt><trkpt lon="5.771889" lat="51.125619"><ele>32.2</ele><time>2022-06-12T06:07:56.000Z</time></trkpt><trkpt lon="5.77197" lat="51.125581"><ele>32</ele><time>2022-06-12T06:07:57.000Z</time></trkpt><trkpt lon="5.77204" lat="51.125548"><ele>32</ele><time>2022-06-12T06:07:58.000Z</time></trkpt><trkpt lon="5.772131" lat="51.125505"><ele>32</ele><time>2022-06-12T06:07:59.000Z</time></trkpt><trkpt lon="5.772208" lat="51.12547"><ele>32</ele><time>2022-06-12T06:08:00.000Z</time></trkpt><trkpt lon="5.77228" lat="51.125436"><ele>32</ele><time>2022-06-12T06:08:01.000Z</time></trkpt><trkpt lon="5.772357" lat="51.125405"><ele>32</ele><time>2022-06-12T06:08:02.000Z</time></trkpt><trkpt lon="5.772434" lat="51.125372"><ele>32</ele><time>2022-06-12T06:08:03.000Z</time></trkpt><trkpt lon="5.772515" lat="51.125337"><ele>32</ele><time>2022-06-12T06:08:04.000Z</time></trkpt><trkpt lon="5.772595" lat="51.125298"><ele>32</ele><time>2022-06-12T06:08:05.000Z</time></trkpt><trkpt lon="5.772674" lat="51.125265"><ele>32.2</ele><time>2022-06-12T06:08:06.000Z</time></trkpt><trkpt lon="5.772761" lat="51.125222"><ele>32.2</ele><time>2022-06-12T06:08:07.000Z</time></trkpt><trkpt lon="5.772849" lat="51.12518"><ele>32.2</ele><time>2022-06-12T06:08:08.000Z</time></trkpt><trkpt lon="5.772934" lat="51.125142"><ele>32.4</ele><time>2022-06-12T06:08:09.000Z</time></trkpt><trkpt lon="5.773023" lat="51.125104"><ele>32.4</ele><time>2022-06-12T06:08:10.000Z</time></trkpt><trkpt lon="5.77312" lat="51.125066"><ele>32.4</ele><time>2022-06-12T06:08:11.000Z</time></trkpt><trkpt lon="5.773214" lat="51.125028"><ele>32.4</ele><time>2022-06-12T06:08:12.000Z</time></trkpt><trkpt lon="5.773307" lat="51.12499"><ele>32.4</ele><time>2022-06-12T06:08:13.000Z</time></trkpt><trkpt lon="5.773406" lat="51.124955"><ele>32.4</ele><time>2022-06-12T06:08:14.000Z</time></trkpt><trkpt lon="5.773501" lat="51.124922"><ele>32.6</ele><time>2022-06-12T06:08:15.000Z</time></trkpt><trkpt lon="5.773599" lat="51.124887"><ele>32.6</ele><time>2022-06-12T06:08:16.000Z</time></trkpt><trkpt lon="5.7737" lat="51.124856"><ele>32.6</ele><time>2022-06-12T06:08:17.000Z</time></trkpt><trkpt lon="5.773786" lat="51.124833"><ele>32.6</ele><time>2022-06-12T06:08:18.000Z</time></trkpt><trkpt lon="5.773903" lat="51.124803"><ele>32.6</ele><time>2022-06-12T06:08:19.000Z</time></trkpt><trkpt lon="5.773995" lat="51.124782"><ele>32.6</ele><time>2022-06-12T06:08:20.000Z</time></trkpt><trkpt lon="5.774109" lat="51.12476"><ele>32.6</ele><time>2022-06-12T06:08:21.000Z</time></trkpt><trkpt lon="5.774212" lat="51.124737"><ele>32.6</ele><time>2022-06-12T06:08:22.000Z</time></trkpt><trkpt lon="5.774314" lat="51.124722"><ele>32.6</ele><time>2022-06-12T06:08:23.000Z</time></trkpt><trkpt lon="5.774418" lat="51.124699"><ele>32.6</ele><time>2022-06-12T06:08:24.000Z</time></trkpt><trkpt lon="5.774522" lat="51.124684"><ele>32.6</ele><time>2022-06-12T06:08:25.000Z</time></trkpt><trkpt lon="5.774624" lat="51.124669"><ele>32.6</ele><time>2022-06-12T06:08:26.000Z</time></trkpt><trkpt lon="5.77473" lat="51.124653"><ele>32.6</ele><time>2022-06-12T06:08:27.000Z</time></trkpt><trkpt lon="5.774835" lat="51.124638"><ele>32.8</ele><time>2022-06-12T06:08:28.000Z</time></trkpt><trkpt lon="5.774939" lat="51.124619"><ele>32.8</ele><time>2022-06-12T06:08:29.000Z</time></trkpt><trkpt lon="5.775041" lat="51.124604"><ele>32.8</ele><time>2022-06-12T06:08:30.000Z</time></trkpt><trkpt lon="5.775142" lat="51.124589"><ele>32.8</ele><time>2022-06-12T06:08:31.000Z</time></trkpt><trkpt lon="5.775247" lat="51.124569"><ele>32.8</ele><time>2022-06-12T06:08:32.000Z</time></trkpt><trkpt lon="5.775347" lat="51.124551"><ele>32.8</ele><time>2022-06-12T06:08:33.000Z</time></trkpt><trkpt lon="5.77545" lat="51.124535"><ele>32.8</ele><time>2022-06-12T06:08:34.000Z</time></trkpt><trkpt lon="5.775553" lat="51.124516"><ele>32.8</ele><time>2022-06-12T06:08:35.000Z</time></trkpt><trkpt lon="5.775657" lat="51.124497"><ele>32.8</ele><time>2022-06-12T06:08:36.000Z</time></trkpt><trkpt lon="5.77576" lat="51.124475"><ele>32.6</ele><time>2022-06-12T06:08:37.000Z</time></trkpt><trkpt lon="5.775867" lat="51.124451"><ele>32.6</ele><time>2022-06-12T06:08:38.000Z</time></trkpt><trkpt lon="5.77597" lat="51.124424"><ele>32.6</ele><time>2022-06-12T06:08:39.000Z</time></trkpt><trkpt lon="5.776073" lat="51.124402"><ele>32.6</ele><time>2022-06-12T06:08:40.000Z</time></trkpt><trkpt lon="5.776177" lat="51.124375"><ele>32.6</ele><time>2022-06-12T06:08:41.000Z</time></trkpt><trkpt lon="5.776278" lat="51.124349"><ele>32.6</ele><time>2022-06-12T06:08:42.000Z</time></trkpt><trkpt lon="5.776379" lat="51.124322"><ele>32.4</ele><time>2022-06-12T06:08:43.000Z</time></trkpt><trkpt lon="5.776486" lat="51.124299"><ele>32.4</ele><time>2022-06-12T06:08:44.000Z</time></trkpt><trkpt lon="5.776586" lat="51.124273"><ele>32.6</ele><time>2022-06-12T06:08:45.000Z</time></trkpt><trkpt lon="5.776691" lat="51.124249"><ele>32.6</ele><time>2022-06-12T06:08:46.000Z</time></trkpt><trkpt lon="5.776792" lat="51.124223"><ele>32.6</ele><time>2022-06-12T06:08:47.000Z</time></trkpt><trkpt lon="5.776891" lat="51.124197"><ele>32.6</ele><time>2022-06-12T06:08:48.000Z</time></trkpt><trkpt lon="5.776999" lat="51.124169"><ele>32.6</ele><time>2022-06-12T06:08:49.000Z</time></trkpt><trkpt lon="5.777102" lat="51.124146"><ele>32.6</ele><time>2022-06-12T06:08:50.000Z</time></trkpt><trkpt lon="5.777204" lat="51.12412"><ele>32.6</ele><time>2022-06-12T06:08:51.000Z</time></trkpt><trkpt lon="5.777305" lat="51.124097"><ele>32.6</ele><time>2022-06-12T06:08:52.000Z</time></trkpt><trkpt lon="5.777411" lat="51.12407"><ele>32.4</ele><time>2022-06-12T06:08:53.000Z</time></trkpt><trkpt lon="5.777509" lat="51.124044"><ele>32.2</ele><time>2022-06-12T06:08:54.000Z</time></trkpt><trkpt lon="5.777611" lat="51.12402"><ele>32.2</ele><time>2022-06-12T06:08:55.000Z</time></trkpt><trkpt lon="5.77771" lat="51.123997"><ele>32.4</ele><time>2022-06-12T06:08:56.000Z</time></trkpt><trkpt lon="5.777816" lat="51.123974"><ele>32.4</ele><time>2022-06-12T06:08:57.000Z</time></trkpt><trkpt lon="5.777905" lat="51.123958"><ele>32.4</ele><time>2022-06-12T06:08:58.000Z</time></trkpt><trkpt lon="5.778023" lat="51.123936"><ele>32.4</ele><time>2022-06-12T06:08:59.000Z</time></trkpt><trkpt lon="5.778119" lat="51.123919"><ele>32.6</ele><time>2022-06-12T06:09:00.000Z</time></trkpt><trkpt lon="5.778239" lat="51.123898"><ele>32.6</ele><time>2022-06-12T06:09:01.000Z</time></trkpt><trkpt lon="5.778343" lat="51.123879"><ele>32.6</ele><time>2022-06-12T06:09:02.000Z</time></trkpt><trkpt lon="5.77845" lat="51.12386"><ele>32.4</ele><time>2022-06-12T06:09:03.000Z</time></trkpt><trkpt lon="5.778556" lat="51.123845"><ele>32.4</ele><time>2022-06-12T06:09:04.000Z</time></trkpt><trkpt lon="5.778663" lat="51.123825"><ele>32.4</ele><time>2022-06-12T06:09:05.000Z</time></trkpt><trkpt lon="5.778765" lat="51.123807"><ele>32.4</ele><time>2022-06-12T06:09:06.000Z</time></trkpt><trkpt lon="5.778874" lat="51.123787"><ele>32.4</ele><time>2022-06-12T06:09:07.000Z</time></trkpt><trkpt lon="5.778979" lat="51.123768"><ele>32.4</ele><time>2022-06-12T06:09:08.000Z</time></trkpt><trkpt lon="5.779083" lat="51.12375"><ele>32.4</ele><time>2022-06-12T06:09:09.000Z</time></trkpt><trkpt lon="5.779189" lat="51.12373"><ele>32.2</ele><time>2022-06-12T06:09:10.000Z</time></trkpt><trkpt lon="5.779292" lat="51.123708"><ele>32</ele><time>2022-06-12T06:09:11.000Z</time></trkpt><trkpt lon="5.779398" lat="51.123692"><ele>32</ele><time>2022-06-12T06:09:12.000Z</time></trkpt><trkpt lon="5.779504" lat="51.123673"><ele>32.2</ele><time>2022-06-12T06:09:13.000Z</time></trkpt><trkpt lon="5.779611" lat="51.12365"><ele>32.2</ele><time>2022-06-12T06:09:14.000Z</time></trkpt><trkpt lon="5.779717" lat="51.123631"><ele>32.4</ele><time>2022-06-12T06:09:15.000Z</time></trkpt><trkpt lon="5.779823" lat="51.123612"><ele>32.2</ele><time>2022-06-12T06:09:16.000Z</time></trkpt><trkpt lon="5.77993" lat="51.123593"><ele>32.2</ele><time>2022-06-12T06:09:17.000Z</time></trkpt><trkpt lon="5.780038" lat="51.123574"><ele>32</ele><time>2022-06-12T06:09:18.000Z</time></trkpt><trkpt lon="5.780143" lat="51.123555"><ele>32</ele><time>2022-06-12T06:09:19.000Z</time></trkpt><trkpt lon="5.780251" lat="51.123536"><ele>32</ele><time>2022-06-12T06:09:20.000Z</time></trkpt><trkpt lon="5.780357" lat="51.123517"><ele>32</ele><time>2022-06-12T06:09:21.000Z</time></trkpt><trkpt lon="5.780463" lat="51.123498"><ele>32</ele><time>2022-06-12T06:09:22.000Z</time></trkpt><trkpt lon="5.780571" lat="51.123478"><ele>31.8</ele><time>2022-06-12T06:09:23.000Z</time></trkpt><trkpt lon="5.780675" lat="51.123459"><ele>31.8</ele><time>2022-06-12T06:09:24.000Z</time></trkpt><trkpt lon="5.78078" lat="51.12344"><ele>31.8</ele><time>2022-06-12T06:09:25.000Z</time></trkpt><trkpt lon="5.780887" lat="51.123421"><ele>31.8</ele><time>2022-06-12T06:09:26.000Z</time></trkpt><trkpt lon="5.780994" lat="51.123402"><ele>32</ele><time>2022-06-12T06:09:27.000Z</time></trkpt><trkpt lon="5.781094" lat="51.123384"><ele>32</ele><time>2022-06-12T06:09:28.000Z</time></trkpt><trkpt lon="5.781204" lat="51.123368"><ele>32</ele><time>2022-06-12T06:09:29.000Z</time></trkpt><trkpt lon="5.781311" lat="51.123349"><ele>32</ele><time>2022-06-12T06:09:30.000Z</time></trkpt><trkpt lon="5.781413" lat="51.123334"><ele>32</ele><time>2022-06-12T06:09:31.000Z</time></trkpt><trkpt lon="5.781519" lat="51.123314"><ele>32</ele><time>2022-06-12T06:09:32.000Z</time></trkpt><trkpt lon="5.781619" lat="51.123296"><ele>32</ele><time>2022-06-12T06:09:33.000Z</time></trkpt><trkpt lon="5.781725" lat="51.123277"><ele>32</ele><time>2022-06-12T06:09:34.000Z</time></trkpt><trkpt lon="5.781828" lat="51.123257"><ele>32</ele><time>2022-06-12T06:09:35.000Z</time></trkpt><trkpt lon="5.781933" lat="51.123242"><ele>32</ele><time>2022-06-12T06:09:36.000Z</time></trkpt><trkpt lon="5.782035" lat="51.123223"><ele>32</ele><time>2022-06-12T06:09:37.000Z</time></trkpt><trkpt lon="5.78214" lat="51.123204"><ele>32</ele><time>2022-06-12T06:09:38.000Z</time></trkpt><trkpt lon="5.782247" lat="51.123188"><ele>32</ele><time>2022-06-12T06:09:39.000Z</time></trkpt><trkpt lon="5.782352" lat="51.12317"><ele>32</ele><time>2022-06-12T06:09:40.000Z</time></trkpt><trkpt lon="5.782464" lat="51.123151"><ele>32</ele><time>2022-06-12T06:09:41.000Z</time></trkpt><trkpt lon="5.782574" lat="51.123135"><ele>32.2</ele><time>2022-06-12T06:09:42.000Z</time></trkpt><trkpt lon="5.782677" lat="51.123117"><ele>32</ele><time>2022-06-12T06:09:43.000Z</time></trkpt><trkpt lon="5.782783" lat="51.123097"><ele>32</ele><time>2022-06-12T06:09:44.000Z</time></trkpt><trkpt lon="5.782885" lat="51.123078"><ele>32</ele><time>2022-06-12T06:09:45.000Z</time></trkpt><trkpt lon="5.782989" lat="51.123059"><ele>32</ele><time>2022-06-12T06:09:46.000Z</time></trkpt><trkpt lon="5.783089" lat="51.123044"><ele>32</ele><time>2022-06-12T06:09:47.000Z</time></trkpt><trkpt lon="5.783197" lat="51.123025"><ele>32.2</ele><time>2022-06-12T06:09:48.000Z</time></trkpt><trkpt lon="5.783301" lat="51.123009"><ele>32.2</ele><time>2022-06-12T06:09:49.000Z</time></trkpt><trkpt lon="5.783401" lat="51.122994"><ele>32.2</ele><time>2022-06-12T06:09:50.000Z</time></trkpt><trkpt lon="5.783506" lat="51.122975"><ele>32</ele><time>2022-06-12T06:09:51.000Z</time></trkpt><trkpt lon="5.78361" lat="51.122956"><ele>32.2</ele><time>2022-06-12T06:09:52.000Z</time></trkpt><trkpt lon="5.783713" lat="51.122941"><ele>32.2</ele><time>2022-06-12T06:09:53.000Z</time></trkpt><trkpt lon="5.783818" lat="51.122921"><ele>32.2</ele><time>2022-06-12T06:09:54.000Z</time></trkpt><trkpt lon="5.783914" lat="51.122903"><ele>32.4</ele><time>2022-06-12T06:09:55.000Z</time></trkpt><trkpt lon="5.784023" lat="51.122883"><ele>32.4</ele><time>2022-06-12T06:09:56.000Z</time></trkpt><trkpt lon="5.78412" lat="51.122866"><ele>32.4</ele><time>2022-06-12T06:09:57.000Z</time></trkpt><trkpt lon="5.784202" lat="51.122853"><ele>32.4</ele><time>2022-06-12T06:09:58.000Z</time></trkpt><trkpt lon="5.784333" lat="51.122837"><ele>32.4</ele><time>2022-06-12T06:09:59.000Z</time></trkpt><trkpt lon="5.784435" lat="51.12283"><ele>32.4</ele><time>2022-06-12T06:10:00.000Z</time></trkpt><trkpt lon="5.784538" lat="51.122833"><ele>32.4</ele><time>2022-06-12T06:10:01.000Z</time></trkpt><trkpt lon="5.784632" lat="51.122848"><ele>32.4</ele><time>2022-06-12T06:10:02.000Z</time></trkpt><trkpt lon="5.784721" lat="51.122878"><ele>32.4</ele><time>2022-06-12T06:10:03.000Z</time></trkpt><trkpt lon="5.784809" lat="51.122913"><ele>32.4</ele><time>2022-06-12T06:10:04.000Z</time></trkpt><trkpt lon="5.784893" lat="51.122954"><ele>32.6</ele><time>2022-06-12T06:10:05.000Z</time></trkpt><trkpt lon="5.78498" lat="51.122993"><ele>32.6</ele><time>2022-06-12T06:10:06.000Z</time></trkpt><trkpt lon="5.785065" lat="51.12303"><ele>32.6</ele><time>2022-06-12T06:10:07.000Z</time></trkpt><trkpt lon="5.785157" lat="51.123065"><ele>32.6</ele><time>2022-06-12T06:10:08.000Z</time></trkpt><trkpt lon="5.785249" lat="51.123088"><ele>32.6</ele><time>2022-06-12T06:10:09.000Z</time></trkpt><trkpt lon="5.785334" lat="51.123104"><ele>32.6</ele><time>2022-06-12T06:10:10.000Z</time></trkpt><trkpt lon="5.78543" lat="51.123115"><ele>32.6</ele><time>2022-06-12T06:10:11.000Z</time></trkpt><trkpt lon="5.785533" lat="51.123123"><ele>32.8</ele><time>2022-06-12T06:10:12.000Z</time></trkpt><trkpt lon="5.785647" lat="51.123127"><ele>32.8</ele><time>2022-06-12T06:10:13.000Z</time></trkpt><trkpt lon="5.785758" lat="51.123131"><ele>32.8</ele><time>2022-06-12T06:10:14.000Z</time></trkpt><trkpt lon="5.78587" lat="51.123134"><ele>32.8</ele><time>2022-06-12T06:10:15.000Z</time></trkpt><trkpt lon="5.785983" lat="51.123138"><ele>32.8</ele><time>2022-06-12T06:10:16.000Z</time></trkpt><trkpt lon="5.786093" lat="51.123142"><ele>32.8</ele><time>2022-06-12T06:10:17.000Z</time></trkpt><trkpt lon="5.7862" lat="51.123142"><ele>32.6</ele><time>2022-06-12T06:10:18.000Z</time></trkpt><trkpt lon="5.786321" lat="51.123146"><ele>32.6</ele><time>2022-06-12T06:10:19.000Z</time></trkpt><trkpt lon="5.786432" lat="51.12315"><ele>32.6</ele><time>2022-06-12T06:10:20.000Z</time></trkpt><trkpt lon="5.786546" lat="51.12315"><ele>32.6</ele><time>2022-06-12T06:10:21.000Z</time></trkpt><trkpt lon="5.786656" lat="51.12315"><ele>32.6</ele><time>2022-06-12T06:10:22.000Z</time></trkpt><trkpt lon="5.786754" lat="51.12315"><ele>32.4</ele><time>2022-06-12T06:10:23.000Z</time></trkpt><trkpt lon="5.786873" lat="51.12315"><ele>32.4</ele><time>2022-06-12T06:10:24.000Z</time></trkpt><trkpt lon="5.786999" lat="51.12315"><ele>32.4</ele><time>2022-06-12T06:10:25.000Z</time></trkpt><trkpt lon="5.787112" lat="51.123154"><ele>32.2</ele><time>2022-06-12T06:10:26.000Z</time></trkpt><trkpt lon="5.78722" lat="51.123157"><ele>32.2</ele><time>2022-06-12T06:10:27.000Z</time></trkpt><trkpt lon="5.787332" lat="51.123157"><ele>32.2</ele><time>2022-06-12T06:10:28.000Z</time></trkpt><trkpt lon="5.787441" lat="51.123157"><ele>32.2</ele><time>2022-06-12T06:10:29.000Z</time></trkpt><trkpt lon="5.787554" lat="51.123161"><ele>32.2</ele><time>2022-06-12T06:10:30.000Z</time></trkpt><trkpt lon="5.787668" lat="51.123165"><ele>32</ele><time>2022-06-12T06:10:31.000Z</time></trkpt><trkpt lon="5.787782" lat="51.123165"><ele>32</ele><time>2022-06-12T06:10:32.000Z</time></trkpt><trkpt lon="5.787884" lat="51.123168"><ele>32</ele><time>2022-06-12T06:10:33.000Z</time></trkpt><trkpt lon="5.788007" lat="51.123176"><ele>31.8</ele><time>2022-06-12T06:10:34.000Z</time></trkpt><trkpt lon="5.788122" lat="51.123188"><ele>31.8</ele><time>2022-06-12T06:10:35.000Z</time></trkpt><trkpt lon="5.788229" lat="51.123207"><ele>31.6</ele><time>2022-06-12T06:10:36.000Z</time></trkpt><trkpt lon="5.788328" lat="51.123232"><ele>31.6</ele><time>2022-06-12T06:10:37.000Z</time></trkpt><trkpt lon="5.78843" lat="51.12326"><ele>31.4</ele><time>2022-06-12T06:10:38.000Z</time></trkpt><trkpt lon="5.788529" lat="51.123286"><ele>31.4</ele><time>2022-06-12T06:10:39.000Z</time></trkpt><trkpt lon="5.788625" lat="51.123313"><ele>31.4</ele><time>2022-06-12T06:10:40.000Z</time></trkpt><trkpt lon="5.788718" lat="51.123336"><ele>31.4</ele><time>2022-06-12T06:10:41.000Z</time></trkpt><trkpt lon="5.788802" lat="51.123358"><ele>31.4</ele><time>2022-06-12T06:10:42.000Z</time></trkpt><trkpt lon="5.788887" lat="51.123382"><ele>31.4</ele><time>2022-06-12T06:10:43.000Z</time></trkpt><trkpt lon="5.788961" lat="51.123401"><ele>31.4</ele><time>2022-06-12T06:10:44.000Z</time></trkpt><trkpt lon="5.789028" lat="51.123417"><ele>31.4</ele><time>2022-06-12T06:10:45.000Z</time></trkpt><trkpt lon="5.78909" lat="51.123413"><ele>31.2</ele><time>2022-06-12T06:10:46.000Z</time></trkpt><trkpt lon="5.789137" lat="51.123392"><ele>31.2</ele><time>2022-06-12T06:10:47.000Z</time></trkpt><trkpt lon="5.789143" lat="51.123342"><ele>31.4</ele><time>2022-06-12T06:10:48.000Z</time></trkpt><trkpt lon="5.789123" lat="51.123306"><ele>31.4</ele><time>2022-06-12T06:10:49.000Z</time></trkpt><trkpt lon="5.789078" lat="51.123246"><ele>31.4</ele><time>2022-06-12T06:10:50.000Z</time></trkpt><trkpt lon="5.789033" lat="51.123186"><ele>31.2</ele><time>2022-06-12T06:10:51.000Z</time></trkpt><trkpt lon="5.788992" lat="51.123125"><ele>31.2</ele><time>2022-06-12T06:10:52.000Z</time></trkpt><trkpt lon="5.788963" lat="51.123064"><ele>31.2</ele><time>2022-06-12T06:10:53.000Z</time></trkpt><trkpt lon="5.788939" lat="51.122992"><ele>31</ele><time>2022-06-12T06:10:54.000Z</time></trkpt><trkpt lon="5.788937" lat="51.122929"><ele>31.2</ele><time>2022-06-12T06:10:55.000Z</time></trkpt><trkpt lon="5.78894" lat="51.122858"><ele>31.2</ele><time>2022-06-12T06:10:56.000Z</time></trkpt><trkpt lon="5.788945" lat="51.122789"><ele>31.2</ele><time>2022-06-12T06:10:57.000Z</time></trkpt><trkpt lon="5.788948" lat="51.122723"><ele>31.2</ele><time>2022-06-12T06:10:58.000Z</time></trkpt><trkpt lon="5.788943" lat="51.122649"><ele>31.2</ele><time>2022-06-12T06:10:59.000Z</time></trkpt><trkpt lon="5.788932" lat="51.122579"><ele>31</ele><time>2022-06-12T06:11:00.000Z</time></trkpt><trkpt lon="5.788915" lat="51.12251"><ele>31</ele><time>2022-06-12T06:11:01.000Z</time></trkpt><trkpt lon="5.788896" lat="51.122447"><ele>31</ele><time>2022-06-12T06:11:02.000Z</time></trkpt><trkpt lon="5.788873" lat="51.122379"><ele>31</ele><time>2022-06-12T06:11:03.000Z</time></trkpt><trkpt lon="5.788844" lat="51.122312"><ele>31.2</ele><time>2022-06-12T06:11:04.000Z</time></trkpt><trkpt lon="5.788813" lat="51.122249"><ele>31.2</ele><time>2022-06-12T06:11:05.000Z</time></trkpt><trkpt lon="5.788781" lat="51.122182"><ele>31.2</ele><time>2022-06-12T06:11:06.000Z</time></trkpt><trkpt lon="5.788747" lat="51.122124"><ele>31.4</ele><time>2022-06-12T06:11:07.000Z</time></trkpt><trkpt lon="5.78871" lat="51.122058"><ele>31.4</ele><time>2022-06-12T06:11:08.000Z</time></trkpt><trkpt lon="5.788669" lat="51.121992"><ele>31.6</ele><time>2022-06-12T06:11:09.000Z</time></trkpt><trkpt lon="5.788628" lat="51.121931"><ele>31.6</ele><time>2022-06-12T06:11:10.000Z</time></trkpt><trkpt lon="5.788583" lat="51.12187"><ele>31.6</ele><time>2022-06-12T06:11:11.000Z</time></trkpt><trkpt lon="5.788534" lat="51.121808"><ele>31.6</ele><time>2022-06-12T06:11:12.000Z</time></trkpt><trkpt lon="5.788483" lat="51.121747"><ele>31.6</ele><time>2022-06-12T06:11:13.000Z</time></trkpt><trkpt lon="5.788441" lat="51.121697"><ele>31.6</ele><time>2022-06-12T06:11:14.000Z</time></trkpt><trkpt lon="5.788389" lat="51.121635"><ele>31.6</ele><time>2022-06-12T06:11:15.000Z</time></trkpt><trkpt lon="5.788338" lat="51.121571"><ele>31.8</ele><time>2022-06-12T06:11:16.000Z</time></trkpt><trkpt lon="5.788285" lat="51.121507"><ele>31.8</ele><time>2022-06-12T06:11:17.000Z</time></trkpt><trkpt lon="5.788238" lat="51.121448"><ele>31.8</ele><time>2022-06-12T06:11:18.000Z</time></trkpt><trkpt lon="5.788188" lat="51.121393"><ele>31.8</ele><time>2022-06-12T06:11:19.000Z</time></trkpt><trkpt lon="5.788135" lat="51.121328"><ele>31.8</ele><time>2022-06-12T06:11:20.000Z</time></trkpt><trkpt lon="5.788087" lat="51.121267"><ele>31.8</ele><time>2022-06-12T06:11:21.000Z</time></trkpt><trkpt lon="5.788037" lat="51.121211"><ele>32</ele><time>2022-06-12T06:11:22.000Z</time></trkpt><trkpt lon="5.787989" lat="51.121146"><ele>32</ele><time>2022-06-12T06:11:23.000Z</time></trkpt><trkpt lon="5.787938" lat="51.121084"><ele>32</ele><time>2022-06-12T06:11:24.000Z</time></trkpt><trkpt lon="5.787891" lat="51.121024"><ele>32</ele><time>2022-06-12T06:11:25.000Z</time></trkpt><trkpt lon="5.787844" lat="51.120963"><ele>31.8</ele><time>2022-06-12T06:11:26.000Z</time></trkpt><trkpt lon="5.787798" lat="51.120901"><ele>31.8</ele><time>2022-06-12T06:11:27.000Z</time></trkpt><trkpt lon="5.787755" lat="51.120837"><ele>31.8</ele><time>2022-06-12T06:11:28.000Z</time></trkpt><trkpt lon="5.787713" lat="51.120776"><ele>31.8</ele><time>2022-06-12T06:11:29.000Z</time></trkpt><trkpt lon="5.787673" lat="51.12071"><ele>31.8</ele><time>2022-06-12T06:11:30.000Z</time></trkpt><trkpt lon="5.787633" lat="51.120649"><ele>31.8</ele><time>2022-06-12T06:11:31.000Z</time></trkpt><trkpt lon="5.787596" lat="51.120589"><ele>31.8</ele><time>2022-06-12T06:11:32.000Z</time></trkpt><trkpt lon="5.787558" lat="51.120524"><ele>31.8</ele><time>2022-06-12T06:11:33.000Z</time></trkpt><trkpt lon="5.78752" lat="51.120458"><ele>31.6</ele><time>2022-06-12T06:11:34.000Z</time></trkpt><trkpt lon="5.787485" lat="51.120394"><ele>31.6</ele><time>2022-06-12T06:11:35.000Z</time></trkpt><trkpt lon="5.787447" lat="51.12033"><ele>31.4</ele><time>2022-06-12T06:11:36.000Z</time></trkpt><trkpt lon="5.787409" lat="51.12026"><ele>31.4</ele><time>2022-06-12T06:11:37.000Z</time></trkpt><trkpt lon="5.78737" lat="51.120196"><ele>31.2</ele><time>2022-06-12T06:11:38.000Z</time></trkpt><trkpt lon="5.787338" lat="51.120142"><ele>31.2</ele><time>2022-06-12T06:11:39.000Z</time></trkpt><trkpt lon="5.787294" lat="51.120068"><ele>31.2</ele><time>2022-06-12T06:11:40.000Z</time></trkpt><trkpt lon="5.787261" lat="51.120003"><ele>31.2</ele><time>2022-06-12T06:11:41.000Z</time></trkpt><trkpt lon="5.787221" lat="51.119933"><ele>31.2</ele><time>2022-06-12T06:11:42.000Z</time></trkpt><trkpt lon="5.787186" lat="51.11987"><ele>31.2</ele><time>2022-06-12T06:11:43.000Z</time></trkpt><trkpt lon="5.78715" lat="51.119803"><ele>31.4</ele><time>2022-06-12T06:11:44.000Z</time></trkpt><trkpt lon="5.787116" lat="51.119741"><ele>31.4</ele><time>2022-06-12T06:11:45.000Z</time></trkpt><trkpt lon="5.787084" lat="51.119676"><ele>31.4</ele><time>2022-06-12T06:11:46.000Z</time></trkpt><trkpt lon="5.787052" lat="51.119613"><ele>31.4</ele><time>2022-06-12T06:11:47.000Z</time></trkpt><trkpt lon="5.787019" lat="51.119547"><ele>31.4</ele><time>2022-06-12T06:11:48.000Z</time></trkpt><trkpt lon="5.78699" lat="51.119484"><ele>31.4</ele><time>2022-06-12T06:11:49.000Z</time></trkpt><trkpt lon="5.786961" lat="51.119413"><ele>31.4</ele><time>2022-06-12T06:11:50.000Z</time></trkpt><trkpt lon="5.786931" lat="51.119349"><ele>31.2</ele><time>2022-06-12T06:11:51.000Z</time></trkpt><trkpt lon="5.786901" lat="51.119283"><ele>31.2</ele><time>2022-06-12T06:11:52.000Z</time></trkpt><trkpt lon="5.786871" lat="51.119215"><ele>31.2</ele><time>2022-06-12T06:11:53.000Z</time></trkpt><trkpt lon="5.78684" lat="51.11915"><ele>31</ele><time>2022-06-12T06:11:54.000Z</time></trkpt><trkpt lon="5.786807" lat="51.119086"><ele>31</ele><time>2022-06-12T06:11:55.000Z</time></trkpt><trkpt lon="5.786777" lat="51.11902"><ele>30.8</ele><time>2022-06-12T06:11:56.000Z</time></trkpt><trkpt lon="5.78675" lat="51.118953"><ele>30.8</ele><time>2022-06-12T06:11:57.000Z</time></trkpt><trkpt lon="5.78673" lat="51.118901"><ele>30.8</ele><time>2022-06-12T06:11:58.000Z</time></trkpt><trkpt lon="5.786704" lat="51.118816"><ele>30.8</ele><time>2022-06-12T06:11:59.000Z</time></trkpt><trkpt lon="5.786692" lat="51.118748"><ele>30.8</ele><time>2022-06-12T06:12:00.000Z</time></trkpt><trkpt lon="5.786692" lat="51.118677"><ele>30.8</ele><time>2022-06-12T06:12:01.000Z</time></trkpt><trkpt lon="5.786706" lat="51.118614"><ele>30.8</ele><time>2022-06-12T06:12:02.000Z</time></trkpt><trkpt lon="5.78673" lat="51.118554"><ele>30.8</ele><time>2022-06-12T06:12:03.000Z</time></trkpt><trkpt lon="5.786763" lat="51.118489"><ele>30.6</ele><time>2022-06-12T06:12:04.000Z</time></trkpt><trkpt lon="5.786805" lat="51.118426"><ele>30.6</ele><time>2022-06-12T06:12:05.000Z</time></trkpt><trkpt lon="5.786847" lat="51.118357"><ele>30.6</ele><time>2022-06-12T06:12:06.000Z</time></trkpt><trkpt lon="5.786884" lat="51.118299"><ele>30.4</ele><time>2022-06-12T06:12:07.000Z</time></trkpt><trkpt lon="5.786923" lat="51.118229"><ele>30.6</ele><time>2022-06-12T06:12:08.000Z</time></trkpt><trkpt lon="5.786945" lat="51.118162"><ele>30.6</ele><time>2022-06-12T06:12:09.000Z</time></trkpt><trkpt lon="5.786957" lat="51.118082"><ele>30.6</ele><time>2022-06-12T06:12:10.000Z</time></trkpt><trkpt lon="5.786954" lat="51.118009"><ele>30.4</ele><time>2022-06-12T06:12:11.000Z</time></trkpt><trkpt lon="5.786944" lat="51.117938"><ele>30.2</ele><time>2022-06-12T06:12:12.000Z</time></trkpt><trkpt lon="5.786929" lat="51.11787"><ele>30.2</ele><time>2022-06-12T06:12:13.000Z</time></trkpt><trkpt lon="5.786909" lat="51.117796"><ele>30.2</ele><time>2022-06-12T06:12:14.000Z</time></trkpt><trkpt lon="5.786888" lat="51.117729"><ele>30.2</ele><time>2022-06-12T06:12:15.000Z</time></trkpt><trkpt lon="5.786864" lat="51.117659"><ele>30.2</ele><time>2022-06-12T06:12:16.000Z</time></trkpt><trkpt lon="5.786843" lat="51.117594"><ele>30.4</ele><time>2022-06-12T06:12:17.000Z</time></trkpt><trkpt lon="5.786819" lat="51.117529"><ele>30.6</ele><time>2022-06-12T06:12:18.000Z</time></trkpt><trkpt lon="5.786794" lat="51.117463"><ele>30.6</ele><time>2022-06-12T06:12:19.000Z</time></trkpt><trkpt lon="5.78677" lat="51.117399"><ele>30.6</ele><time>2022-06-12T06:12:20.000Z</time></trkpt><trkpt lon="5.786748" lat="51.117336"><ele>30.8</ele><time>2022-06-12T06:12:21.000Z</time></trkpt><trkpt lon="5.786722" lat="51.117265"><ele>30.8</ele><time>2022-06-12T06:12:22.000Z</time></trkpt><trkpt lon="5.786699" lat="51.117202"><ele>30.8</ele><time>2022-06-12T06:12:23.000Z</time></trkpt><trkpt lon="5.786675" lat="51.117133"><ele>30.8</ele><time>2022-06-12T06:12:24.000Z</time></trkpt><trkpt lon="5.786653" lat="51.117068"><ele>30.8</ele><time>2022-06-12T06:12:25.000Z</time></trkpt><trkpt lon="5.786632" lat="51.117002"><ele>30.8</ele><time>2022-06-12T06:12:26.000Z</time></trkpt><trkpt lon="5.786614" lat="51.11693"><ele>30.8</ele><time>2022-06-12T06:12:27.000Z</time></trkpt><trkpt lon="5.786602" lat="51.116875"><ele>30.8</ele><time>2022-06-12T06:12:28.000Z</time></trkpt><trkpt lon="5.786591" lat="51.116796"><ele>30.8</ele><time>2022-06-12T06:12:29.000Z</time></trkpt><trkpt lon="5.786587" lat="51.116721"><ele>30.6</ele><time>2022-06-12T06:12:30.000Z</time></trkpt><trkpt lon="5.786588" lat="51.116651"><ele>30.6</ele><time>2022-06-12T06:12:31.000Z</time></trkpt><trkpt lon="5.786591" lat="51.116581"><ele>30.6</ele><time>2022-06-12T06:12:32.000Z</time></trkpt><trkpt lon="5.786597" lat="51.116516"><ele>30.6</ele><time>2022-06-12T06:12:33.000Z</time></trkpt><trkpt lon="5.78661" lat="51.11645"><ele>30.6</ele><time>2022-06-12T06:12:34.000Z</time></trkpt><trkpt lon="5.786629" lat="51.116374"><ele>30.4</ele><time>2022-06-12T06:12:35.000Z</time></trkpt><trkpt lon="5.786648" lat="51.116309"><ele>30.4</ele><time>2022-06-12T06:12:36.000Z</time></trkpt><trkpt lon="5.786668" lat="51.11624"><ele>30.2</ele><time>2022-06-12T06:12:37.000Z</time></trkpt><trkpt lon="5.786692" lat="51.116171"><ele>30.2</ele><time>2022-06-12T06:12:38.000Z</time></trkpt><trkpt lon="5.786716" lat="51.116102"><ele>30.2</ele><time>2022-06-12T06:12:39.000Z</time></trkpt><trkpt lon="5.786735" lat="51.116036"><ele>30</ele><time>2022-06-12T06:12:40.000Z</time></trkpt><trkpt lon="5.786759" lat="51.115969"><ele>30</ele><time>2022-06-12T06:12:41.000Z</time></trkpt><trkpt lon="5.786782" lat="51.115901"><ele>30</ele><time>2022-06-12T06:12:42.000Z</time></trkpt><trkpt lon="5.786805" lat="51.115832"><ele>30</ele><time>2022-06-12T06:12:43.000Z</time></trkpt><trkpt lon="5.786826" lat="51.115764"><ele>30</ele><time>2022-06-12T06:12:44.000Z</time></trkpt><trkpt lon="5.786842" lat="51.115696"><ele>30</ele><time>2022-06-12T06:12:45.000Z</time></trkpt><trkpt lon="5.786858" lat="51.115622"><ele>30</ele><time>2022-06-12T06:12:46.000Z</time></trkpt><trkpt lon="5.786869" lat="51.115555"><ele>30</ele><time>2022-06-12T06:12:47.000Z</time></trkpt><trkpt lon="5.786881" lat="51.115482"><ele>30.2</ele><time>2022-06-12T06:12:48.000Z</time></trkpt><trkpt lon="5.78689" lat="51.115412"><ele>30.2</ele><time>2022-06-12T06:12:49.000Z</time></trkpt><trkpt lon="5.7869" lat="51.115346"><ele>30.2</ele><time>2022-06-12T06:12:50.000Z</time></trkpt><trkpt lon="5.786905" lat="51.115278"><ele>30.4</ele><time>2022-06-12T06:12:51.000Z</time></trkpt><trkpt lon="5.786908" lat="51.11521"><ele>30.4</ele><time>2022-06-12T06:12:52.000Z</time></trkpt><trkpt lon="5.786911" lat="51.115144"><ele>30.6</ele><time>2022-06-12T06:12:53.000Z</time></trkpt><trkpt lon="5.786913" lat="51.115073"><ele>30.6</ele><time>2022-06-12T06:12:54.000Z</time></trkpt><trkpt lon="5.786913" lat="51.115005"><ele>30.8</ele><time>2022-06-12T06:12:55.000Z</time></trkpt><trkpt lon="5.786912" lat="51.114939"><ele>30.8</ele><time>2022-06-12T06:12:56.000Z</time></trkpt><trkpt lon="5.786913" lat="51.11487"><ele>31</ele><time>2022-06-12T06:12:57.000Z</time></trkpt><trkpt lon="5.786913" lat="51.114806"><ele>31</ele><time>2022-06-12T06:12:58.000Z</time></trkpt><trkpt lon="5.786912" lat="51.114744"><ele>31.2</ele><time>2022-06-12T06:12:59.000Z</time></trkpt><trkpt lon="5.78691" lat="51.11469"><ele>31.2</ele><time>2022-06-12T06:13:00.000Z</time></trkpt><trkpt lon="5.786908" lat="51.114627"><ele>31.2</ele><time>2022-06-12T06:13:01.000Z</time></trkpt><trkpt lon="5.786908" lat="51.114573"><ele>31.2</ele><time>2022-06-12T06:13:02.000Z</time></trkpt><trkpt lon="5.786911" lat="51.114508"><ele>31.2</ele><time>2022-06-12T06:13:03.000Z</time></trkpt><trkpt lon="5.78692" lat="51.114448"><ele>31.2</ele><time>2022-06-12T06:13:04.000Z</time></trkpt><trkpt lon="5.78693" lat="51.114381"><ele>31.2</ele><time>2022-06-12T06:13:05.000Z</time></trkpt><trkpt lon="5.786935" lat="51.114316"><ele>31.2</ele><time>2022-06-12T06:13:06.000Z</time></trkpt><trkpt lon="5.78694" lat="51.114245"><ele>31.2</ele><time>2022-06-12T06:13:07.000Z</time></trkpt><trkpt lon="5.78694" lat="51.114179"><ele>31.2</ele><time>2022-06-12T06:13:08.000Z</time></trkpt><trkpt lon="5.786935" lat="51.114107"><ele>31.4</ele><time>2022-06-12T06:13:09.000Z</time></trkpt><trkpt lon="5.786928" lat="51.114038"><ele>31.4</ele><time>2022-06-12T06:13:10.000Z</time></trkpt><trkpt lon="5.786911" lat="51.113971"><ele>31.4</ele><time>2022-06-12T06:13:11.000Z</time></trkpt><trkpt lon="5.786886" lat="51.113906"><ele>31.4</ele><time>2022-06-12T06:13:12.000Z</time></trkpt><trkpt lon="5.786849" lat="51.11384"><ele>31.6</ele><time>2022-06-12T06:13:13.000Z</time></trkpt><trkpt lon="5.786808" lat="51.113776"><ele>31.6</ele><time>2022-06-12T06:13:14.000Z</time></trkpt><trkpt lon="5.786759" lat="51.113721"><ele>31.8</ele><time>2022-06-12T06:13:15.000Z</time></trkpt><trkpt lon="5.786707" lat="51.113667"><ele>31.8</ele><time>2022-06-12T06:13:16.000Z</time></trkpt><trkpt lon="5.786648" lat="51.113611"><ele>32</ele><time>2022-06-12T06:13:17.000Z</time></trkpt><trkpt lon="5.786587" lat="51.113558"><ele>32</ele><time>2022-06-12T06:13:18.000Z</time></trkpt><trkpt lon="5.786523" lat="51.113508"><ele>32</ele><time>2022-06-12T06:13:19.000Z</time></trkpt><trkpt lon="5.786459" lat="51.113455"><ele>32.2</ele><time>2022-06-12T06:13:20.000Z</time></trkpt><trkpt lon="5.786395" lat="51.113401"><ele>32</ele><time>2022-06-12T06:13:21.000Z</time></trkpt><trkpt lon="5.786333" lat="51.113348"><ele>32</ele><time>2022-06-12T06:13:22.000Z</time></trkpt><trkpt lon="5.78627" lat="51.113295"><ele>32</ele><time>2022-06-12T06:13:23.000Z</time></trkpt><trkpt lon="5.78621" lat="51.113244"><ele>32</ele><time>2022-06-12T06:13:24.000Z</time></trkpt><trkpt lon="5.78615" lat="51.113185"><ele>32</ele><time>2022-06-12T06:13:25.000Z</time></trkpt><trkpt lon="5.786096" lat="51.113128"><ele>32</ele><time>2022-06-12T06:13:26.000Z</time></trkpt><trkpt lon="5.786049" lat="51.113069"><ele>32</ele><time>2022-06-12T06:13:27.000Z</time></trkpt><trkpt lon="5.786015" lat="51.113017"><ele>32</ele><time>2022-06-12T06:13:28.000Z</time></trkpt><trkpt lon="5.785976" lat="51.112944"><ele>32.2</ele><time>2022-06-12T06:13:29.000Z</time></trkpt><trkpt lon="5.785945" lat="51.11288"><ele>32.2</ele><time>2022-06-12T06:13:30.000Z</time></trkpt><trkpt lon="5.785912" lat="51.112817"><ele>32.2</ele><time>2022-06-12T06:13:31.000Z</time></trkpt><trkpt lon="5.785883" lat="51.112754"><ele>32.4</ele><time>2022-06-12T06:13:32.000Z</time></trkpt><trkpt lon="5.785852" lat="51.112692"><ele>32.4</ele><time>2022-06-12T06:13:33.000Z</time></trkpt><trkpt lon="5.785821" lat="51.112631"><ele>32.4</ele><time>2022-06-12T06:13:34.000Z</time></trkpt><trkpt lon="5.785792" lat="51.112568"><ele>32.4</ele><time>2022-06-12T06:13:35.000Z</time></trkpt><trkpt lon="5.785759" lat="51.112504"><ele>32.2</ele><time>2022-06-12T06:13:36.000Z</time></trkpt><trkpt lon="5.785728" lat="51.112441"><ele>32.2</ele><time>2022-06-12T06:13:37.000Z</time></trkpt><trkpt lon="5.785698" lat="51.112376"><ele>32.2</ele><time>2022-06-12T06:13:38.000Z</time></trkpt><trkpt lon="5.785667" lat="51.112314"><ele>32.2</ele><time>2022-06-12T06:13:39.000Z</time></trkpt><trkpt lon="5.785639" lat="51.11225"><ele>32.2</ele><time>2022-06-12T06:13:40.000Z</time></trkpt><trkpt lon="5.785609" lat="51.112185"><ele>32.2</ele><time>2022-06-12T06:13:41.000Z</time></trkpt><trkpt lon="5.78558" lat="51.112126"><ele>32.2</ele><time>2022-06-12T06:13:42.000Z</time></trkpt><trkpt lon="5.785548" lat="51.112059"><ele>32.2</ele><time>2022-06-12T06:13:43.000Z</time></trkpt><trkpt lon="5.785513" lat="51.111994"><ele>32.4</ele><time>2022-06-12T06:13:44.000Z</time></trkpt><trkpt lon="5.785473" lat="51.111934"><ele>32.6</ele><time>2022-06-12T06:13:45.000Z</time></trkpt><trkpt lon="5.785427" lat="51.111872"><ele>32.6</ele><time>2022-06-12T06:13:46.000Z</time></trkpt><trkpt lon="5.785373" lat="51.111814"><ele>32.6</ele><time>2022-06-12T06:13:47.000Z</time></trkpt><trkpt lon="5.785321" lat="51.111757"><ele>32.6</ele><time>2022-06-12T06:13:48.000Z</time></trkpt><trkpt lon="5.78526" lat="51.1117"><ele>32.6</ele><time>2022-06-12T06:13:49.000Z</time></trkpt><trkpt lon="5.7852" lat="51.111639"><ele>32.4</ele><time>2022-06-12T06:13:50.000Z</time></trkpt><trkpt lon="5.785147" lat="51.11159"><ele>32.4</ele><time>2022-06-12T06:13:51.000Z</time></trkpt><trkpt lon="5.785084" lat="51.111529"><ele>32.4</ele><time>2022-06-12T06:13:52.000Z</time></trkpt><trkpt lon="5.785025" lat="51.111474"><ele>32.4</ele><time>2022-06-12T06:13:53.000Z</time></trkpt><trkpt lon="5.784969" lat="51.111421"><ele>32.2</ele><time>2022-06-12T06:13:54.000Z</time></trkpt><trkpt lon="5.784903" lat="51.111359"><ele>32.2</ele><time>2022-06-12T06:13:55.000Z</time></trkpt><trkpt lon="5.784841" lat="51.1113"><ele>32.2</ele><time>2022-06-12T06:13:56.000Z</time></trkpt><trkpt lon="5.784782" lat="51.111238"><ele>32.2</ele><time>2022-06-12T06:13:57.000Z</time></trkpt><trkpt lon="5.784725" lat="51.111179"><ele>32.2</ele><time>2022-06-12T06:13:58.000Z</time></trkpt><trkpt lon="5.784668" lat="51.11112"><ele>32.2</ele><time>2022-06-12T06:13:59.000Z</time></trkpt><trkpt lon="5.784615" lat="51.11106"><ele>32.2</ele><time>2022-06-12T06:14:00.000Z</time></trkpt><trkpt lon="5.784565" lat="51.110998"><ele>32.2</ele><time>2022-06-12T06:14:01.000Z</time></trkpt><trkpt lon="5.784515" lat="51.110937"><ele>32.2</ele><time>2022-06-12T06:14:02.000Z</time></trkpt><trkpt lon="5.784465" lat="51.110876"><ele>32</ele><time>2022-06-12T06:14:03.000Z</time></trkpt><trkpt lon="5.784416" lat="51.110815"><ele>32</ele><time>2022-06-12T06:14:04.000Z</time></trkpt><trkpt lon="5.784368" lat="51.110754"><ele>31.8</ele><time>2022-06-12T06:14:05.000Z</time></trkpt><trkpt lon="5.784317" lat="51.110692"><ele>31.6</ele><time>2022-06-12T06:14:06.000Z</time></trkpt><trkpt lon="5.784268" lat="51.110632"><ele>31.6</ele><time>2022-06-12T06:14:07.000Z</time></trkpt><trkpt lon="5.784221" lat="51.110576"><ele>31.2</ele><time>2022-06-12T06:14:08.000Z</time></trkpt><trkpt lon="5.784172" lat="51.110514"><ele>31.2</ele><time>2022-06-12T06:14:09.000Z</time></trkpt><trkpt lon="5.784122" lat="51.110453"><ele>31.4</ele><time>2022-06-12T06:14:10.000Z</time></trkpt><trkpt lon="5.784076" lat="51.110392"><ele>31.6</ele><time>2022-06-12T06:14:11.000Z</time></trkpt><trkpt lon="5.784026" lat="51.11033"><ele>31.6</ele><time>2022-06-12T06:14:12.000Z</time></trkpt><trkpt lon="5.783982" lat="51.110277"><ele>31.8</ele><time>2022-06-12T06:14:13.000Z</time></trkpt><trkpt lon="5.783928" lat="51.110207"><ele>31.8</ele><time>2022-06-12T06:14:14.000Z</time></trkpt><trkpt lon="5.783878" lat="51.110139"><ele>31.8</ele><time>2022-06-12T06:14:15.000Z</time></trkpt><trkpt lon="5.78383" lat="51.110075"><ele>31.8</ele><time>2022-06-12T06:14:16.000Z</time></trkpt><trkpt lon="5.783789" lat="51.110012"><ele>31.8</ele><time>2022-06-12T06:14:17.000Z</time></trkpt><trkpt lon="5.783755" lat="51.109948"><ele>31.8</ele><time>2022-06-12T06:14:18.000Z</time></trkpt><trkpt lon="5.783718" lat="51.109873"><ele>31.8</ele><time>2022-06-12T06:14:19.000Z</time></trkpt><trkpt lon="5.783687" lat="51.109811"><ele>31.6</ele><time>2022-06-12T06:14:20.000Z</time></trkpt><trkpt lon="5.783651" lat="51.10974"><ele>31.6</ele><time>2022-06-12T06:14:21.000Z</time></trkpt><trkpt lon="5.78362" lat="51.109673"><ele>31.6</ele><time>2022-06-12T06:14:22.000Z</time></trkpt><trkpt lon="5.783588" lat="51.109608"><ele>31.8</ele><time>2022-06-12T06:14:23.000Z</time></trkpt><trkpt lon="5.783558" lat="51.109538"><ele>31.6</ele><time>2022-06-12T06:14:24.000Z</time></trkpt><trkpt lon="5.783525" lat="51.109473"><ele>31.6</ele><time>2022-06-12T06:14:25.000Z</time></trkpt><trkpt lon="5.783491" lat="51.109412"><ele>31.6</ele><time>2022-06-12T06:14:26.000Z</time></trkpt><trkpt lon="5.783459" lat="51.109343"><ele>31.6</ele><time>2022-06-12T06:14:27.000Z</time></trkpt><trkpt lon="5.783427" lat="51.109279"><ele>31.4</ele><time>2022-06-12T06:14:28.000Z</time></trkpt><trkpt lon="5.783391" lat="51.109205"><ele>31.4</ele><time>2022-06-12T06:14:29.000Z</time></trkpt><trkpt lon="5.783354" lat="51.10914"><ele>31.4</ele><time>2022-06-12T06:14:30.000Z</time></trkpt><trkpt lon="5.783315" lat="51.109072"><ele>31.4</ele><time>2022-06-12T06:14:31.000Z</time></trkpt><trkpt lon="5.783275" lat="51.109004"><ele>31.4</ele><time>2022-06-12T06:14:32.000Z</time></trkpt><trkpt lon="5.783233" lat="51.108939"><ele>31.2</ele><time>2022-06-12T06:14:33.000Z</time></trkpt><trkpt lon="5.783189" lat="51.108873"><ele>31.2</ele><time>2022-06-12T06:14:34.000Z</time></trkpt><trkpt lon="5.783143" lat="51.108809"><ele>31.4</ele><time>2022-06-12T06:14:35.000Z</time></trkpt><trkpt lon="5.783097" lat="51.108748"><ele>31.4</ele><time>2022-06-12T06:14:36.000Z</time></trkpt><trkpt lon="5.783055" lat="51.108693"><ele>31.4</ele><time>2022-06-12T06:14:37.000Z</time></trkpt><trkpt lon="5.783001" lat="51.108623"><ele>31.4</ele><time>2022-06-12T06:14:38.000Z</time></trkpt><trkpt lon="5.782951" lat="51.108562"><ele>31.4</ele><time>2022-06-12T06:14:39.000Z</time></trkpt><trkpt lon="5.782902" lat="51.1085"><ele>31.4</ele><time>2022-06-12T06:14:40.000Z</time></trkpt><trkpt lon="5.782855" lat="51.108441"><ele>31.4</ele><time>2022-06-12T06:14:41.000Z</time></trkpt><trkpt lon="5.782805" lat="51.108381"><ele>31.4</ele><time>2022-06-12T06:14:42.000Z</time></trkpt><trkpt lon="5.782758" lat="51.108324"><ele>31.4</ele><time>2022-06-12T06:14:43.000Z</time></trkpt><trkpt lon="5.7827" lat="51.108259"><ele>31.4</ele><time>2022-06-12T06:14:44.000Z</time></trkpt><trkpt lon="5.782648" lat="51.108198"><ele>31.6</ele><time>2022-06-12T06:14:45.000Z</time></trkpt><trkpt lon="5.7826" lat="51.108133"><ele>31.6</ele><time>2022-06-12T06:14:46.000Z</time></trkpt><trkpt lon="5.782561" lat="51.108065"><ele>31.6</ele><time>2022-06-12T06:14:47.000Z</time></trkpt><trkpt lon="5.782535" lat="51.107998"><ele>31.4</ele><time>2022-06-12T06:14:48.000Z</time></trkpt><trkpt lon="5.782517" lat="51.107928"><ele>31.4</ele><time>2022-06-12T06:14:49.000Z</time></trkpt><trkpt lon="5.782509" lat="51.107855"><ele>31.2</ele><time>2022-06-12T06:14:50.000Z</time></trkpt><trkpt lon="5.782508" lat="51.107784"><ele>31.2</ele><time>2022-06-12T06:14:51.000Z</time></trkpt><trkpt lon="5.782508" lat="51.10771"><ele>31</ele><time>2022-06-12T06:14:52.000Z</time></trkpt><trkpt lon="5.782512" lat="51.107639"><ele>30.8</ele><time>2022-06-12T06:14:53.000Z</time></trkpt><trkpt lon="5.782516" lat="51.107565"><ele>30.8</ele><time>2022-06-12T06:14:54.000Z</time></trkpt><trkpt lon="5.782522" lat="51.107489"><ele>30.8</ele><time>2022-06-12T06:14:55.000Z</time></trkpt><trkpt lon="5.782528" lat="51.107416"><ele>30.8</ele><time>2022-06-12T06:14:56.000Z</time></trkpt><trkpt lon="5.782535" lat="51.10734"><ele>30.8</ele><time>2022-06-12T06:14:57.000Z</time></trkpt><trkpt lon="5.782542" lat="51.107287"><ele>30.8</ele><time>2022-06-12T06:14:58.000Z</time></trkpt><trkpt lon="5.782553" lat="51.107195"><ele>30.8</ele><time>2022-06-12T06:14:59.000Z</time></trkpt><trkpt lon="5.78256" lat="51.107115"><ele>30.8</ele><time>2022-06-12T06:15:00.000Z</time></trkpt><trkpt lon="5.782565" lat="51.107044"><ele>30.8</ele><time>2022-06-12T06:15:01.000Z</time></trkpt><trkpt lon="5.782571" lat="51.106971"><ele>30.8</ele><time>2022-06-12T06:15:02.000Z</time></trkpt><trkpt lon="5.782579" lat="51.106904"><ele>30.8</ele><time>2022-06-12T06:15:03.000Z</time></trkpt><trkpt lon="5.782589" lat="51.106826"><ele>30.8</ele><time>2022-06-12T06:15:04.000Z</time></trkpt><trkpt lon="5.782598" lat="51.106763"><ele>30.8</ele><time>2022-06-12T06:15:05.000Z</time></trkpt><trkpt lon="5.782603" lat="51.106699"><ele>30.6</ele><time>2022-06-12T06:15:06.000Z</time></trkpt><trkpt lon="5.782611" lat="51.106644"><ele>30.4</ele><time>2022-06-12T06:15:07.000Z</time></trkpt><trkpt lon="5.782616" lat="51.106577"><ele>30.4</ele><time>2022-06-12T06:15:08.000Z</time></trkpt><trkpt lon="5.782615" lat="51.106516"><ele>30.4</ele><time>2022-06-12T06:15:09.000Z</time></trkpt><trkpt lon="5.78261" lat="51.10646"><ele>30.6</ele><time>2022-06-12T06:15:10.000Z</time></trkpt><trkpt lon="5.782607" lat="51.106404"><ele>30.4</ele><time>2022-06-12T06:15:11.000Z</time></trkpt><trkpt lon="5.782603" lat="51.106334"><ele>30.2</ele><time>2022-06-12T06:15:12.000Z</time></trkpt><trkpt lon="5.782595" lat="51.106268"><ele>30.2</ele><time>2022-06-12T06:15:13.000Z</time></trkpt><trkpt lon="5.782592" lat="51.106196"><ele>30.2</ele><time>2022-06-12T06:15:14.000Z</time></trkpt><trkpt lon="5.782589" lat="51.106123"><ele>30</ele><time>2022-06-12T06:15:15.000Z</time></trkpt><trkpt lon="5.782587" lat="51.106049"><ele>30</ele><time>2022-06-12T06:15:16.000Z</time></trkpt><trkpt lon="5.782587" lat="51.105975"><ele>30</ele><time>2022-06-12T06:15:17.000Z</time></trkpt><trkpt lon="5.78259" lat="51.105899"><ele>30</ele><time>2022-06-12T06:15:18.000Z</time></trkpt><trkpt lon="5.782603" lat="51.105826"><ele>30.2</ele><time>2022-06-12T06:15:19.000Z</time></trkpt><trkpt lon="5.782619" lat="51.105755"><ele>30.2</ele><time>2022-06-12T06:15:20.000Z</time></trkpt><trkpt lon="5.782641" lat="51.105681"><ele>30.2</ele><time>2022-06-12T06:15:21.000Z</time></trkpt><trkpt lon="5.782666" lat="51.105609"><ele>30.2</ele><time>2022-06-12T06:15:22.000Z</time></trkpt><trkpt lon="5.782693" lat="51.105539"><ele>30.2</ele><time>2022-06-12T06:15:23.000Z</time></trkpt><trkpt lon="5.782725" lat="51.105476"><ele>30.2</ele><time>2022-06-12T06:15:24.000Z</time></trkpt><trkpt lon="5.78276" lat="51.105404"><ele>30.2</ele><time>2022-06-12T06:15:25.000Z</time></trkpt><trkpt lon="5.782799" lat="51.105334"><ele>30.2</ele><time>2022-06-12T06:15:26.000Z</time></trkpt><trkpt lon="5.782841" lat="51.105269"><ele>30.4</ele><time>2022-06-12T06:15:27.000Z</time></trkpt><trkpt lon="5.782891" lat="51.105205"><ele>30.4</ele><time>2022-06-12T06:15:28.000Z</time></trkpt><trkpt lon="5.78295" lat="51.10515"><ele>30.6</ele><time>2022-06-12T06:15:29.000Z</time></trkpt><trkpt lon="5.783027" lat="51.105093"><ele>30.6</ele><time>2022-06-12T06:15:30.000Z</time></trkpt><trkpt lon="5.783107" lat="51.105045"><ele>30.6</ele><time>2022-06-12T06:15:31.000Z</time></trkpt><trkpt lon="5.783192" lat="51.104994"><ele>30.4</ele><time>2022-06-12T06:15:32.000Z</time></trkpt><trkpt lon="5.783276" lat="51.104951"><ele>30.4</ele><time>2022-06-12T06:15:33.000Z</time></trkpt><trkpt lon="5.783352" lat="51.10491"><ele>30.6</ele><time>2022-06-12T06:15:34.000Z</time></trkpt><trkpt lon="5.783449" lat="51.10486"><ele>30.6</ele><time>2022-06-12T06:15:35.000Z</time></trkpt><trkpt lon="5.783529" lat="51.104822"><ele>30.8</ele><time>2022-06-12T06:15:36.000Z</time></trkpt><trkpt lon="5.78362" lat="51.104783"><ele>30.8</ele><time>2022-06-12T06:15:37.000Z</time></trkpt><trkpt lon="5.783694" lat="51.104748"><ele>30.8</ele><time>2022-06-12T06:15:38.000Z</time></trkpt><trkpt lon="5.783796" lat="51.1047"><ele>31</ele><time>2022-06-12T06:15:39.000Z</time></trkpt><trkpt lon="5.783875" lat="51.104666"><ele>31</ele><time>2022-06-12T06:15:40.000Z</time></trkpt><trkpt lon="5.783953" lat="51.10463"><ele>31.2</ele><time>2022-06-12T06:15:41.000Z</time></trkpt><trkpt lon="5.784026" lat="51.104596"><ele>31.2</ele><time>2022-06-12T06:15:42.000Z</time></trkpt><trkpt lon="5.784094" lat="51.104562"><ele>31.4</ele><time>2022-06-12T06:15:43.000Z</time></trkpt><trkpt lon="5.78415" lat="51.104529"><ele>31.2</ele><time>2022-06-12T06:15:44.000Z</time></trkpt><trkpt lon="5.784191" lat="51.10449"><ele>31.2</ele><time>2022-06-12T06:15:45.000Z</time></trkpt><trkpt lon="5.784205" lat="51.104444"><ele>31.2</ele><time>2022-06-12T06:15:46.000Z</time></trkpt><trkpt lon="5.784192" lat="51.104395"><ele>31</ele><time>2022-06-12T06:15:47.000Z</time></trkpt><trkpt lon="5.784164" lat="51.104344"><ele>31</ele><time>2022-06-12T06:15:48.000Z</time></trkpt><trkpt lon="5.784124" lat="51.10429"><ele>31.2</ele><time>2022-06-12T06:15:49.000Z</time></trkpt><trkpt lon="5.78408" lat="51.104238"><ele>31.2</ele><time>2022-06-12T06:15:50.000Z</time></trkpt><trkpt lon="5.784037" lat="51.104185"><ele>31.4</ele><time>2022-06-12T06:15:51.000Z</time></trkpt><trkpt lon="5.783999" lat="51.104134"><ele>31.4</ele><time>2022-06-12T06:15:52.000Z</time></trkpt><trkpt lon="5.783977" lat="51.104078"><ele>31.4</ele><time>2022-06-12T06:15:53.000Z</time></trkpt><trkpt lon="5.783983" lat="51.104028"><ele>31.4</ele><time>2022-06-12T06:15:54.000Z</time></trkpt><trkpt lon="5.78403" lat="51.103987"><ele>31.4</ele><time>2022-06-12T06:15:55.000Z</time></trkpt><trkpt lon="5.784102" lat="51.103959"><ele>31.2</ele><time>2022-06-12T06:15:56.000Z</time></trkpt><trkpt lon="5.784191" lat="51.103943"><ele>31.2</ele><time>2022-06-12T06:15:57.000Z</time></trkpt><trkpt lon="5.784267" lat="51.10394"><ele>31</ele><time>2022-06-12T06:15:58.000Z</time></trkpt><trkpt lon="5.784397" lat="51.103935"><ele>30.8</ele><time>2022-06-12T06:15:59.000Z</time></trkpt><trkpt lon="5.784511" lat="51.103932"><ele>30.6</ele><time>2022-06-12T06:16:00.000Z</time></trkpt><trkpt lon="5.784608" lat="51.103931"><ele>30.4</ele><time>2022-06-12T06:16:01.000Z</time></trkpt><trkpt lon="5.784736" lat="51.103931"><ele>30.4</ele><time>2022-06-12T06:16:02.000Z</time></trkpt><trkpt lon="5.784835" lat="51.103928"><ele>30.2</ele><time>2022-06-12T06:16:03.000Z</time></trkpt><trkpt lon="5.784968" lat="51.103924"><ele>30.2</ele><time>2022-06-12T06:16:04.000Z</time></trkpt><trkpt lon="5.785084" lat="51.103913"><ele>30</ele><time>2022-06-12T06:16:05.000Z</time></trkpt><trkpt lon="5.785201" lat="51.103898"><ele>30</ele><time>2022-06-12T06:16:06.000Z</time></trkpt><trkpt lon="5.785316" lat="51.103882"><ele>30</ele><time>2022-06-12T06:16:07.000Z</time></trkpt><trkpt lon="5.785434" lat="51.103859"><ele>30</ele><time>2022-06-12T06:16:08.000Z</time></trkpt><trkpt lon="5.785549" lat="51.10384"><ele>29.8</ele><time>2022-06-12T06:16:09.000Z</time></trkpt><trkpt lon="5.785665" lat="51.103821"><ele>29.8</ele><time>2022-06-12T06:16:10.000Z</time></trkpt><trkpt lon="5.78578" lat="51.103803"><ele>29.4</ele><time>2022-06-12T06:16:11.000Z</time></trkpt><trkpt lon="5.785891" lat="51.103788"><ele>29.2</ele><time>2022-06-12T06:16:12.000Z</time></trkpt><trkpt lon="5.786011" lat="51.103776"><ele>29</ele><time>2022-06-12T06:16:13.000Z</time></trkpt><trkpt lon="5.786125" lat="51.103753"><ele>28.8</ele><time>2022-06-12T06:16:14.000Z</time></trkpt><trkpt lon="5.786236" lat="51.10373"><ele>28.6</ele><time>2022-06-12T06:16:15.000Z</time></trkpt><trkpt lon="5.786345" lat="51.103703"><ele>28.8</ele><time>2022-06-12T06:16:16.000Z</time></trkpt><trkpt lon="5.786452" lat="51.103673"><ele>28.8</ele><time>2022-06-12T06:16:17.000Z</time></trkpt><trkpt lon="5.786557" lat="51.103646"><ele>28.6</ele><time>2022-06-12T06:16:18.000Z</time></trkpt><trkpt lon="5.786657" lat="51.10362"><ele>28.6</ele><time>2022-06-12T06:16:19.000Z</time></trkpt><trkpt lon="5.786754" lat="51.103589"><ele>28.6</ele><time>2022-06-12T06:16:20.000Z</time></trkpt><trkpt lon="5.786853" lat="51.103566"><ele>28.6</ele><time>2022-06-12T06:16:21.000Z</time></trkpt><trkpt lon="5.786951" lat="51.103536"><ele>28.6</ele><time>2022-06-12T06:16:22.000Z</time></trkpt><trkpt lon="5.787044" lat="51.103509"><ele>28.6</ele><time>2022-06-12T06:16:23.000Z</time></trkpt><trkpt lon="5.787137" lat="51.103479"><ele>28.8</ele><time>2022-06-12T06:16:24.000Z</time></trkpt><trkpt lon="5.787227" lat="51.103455"><ele>29</ele><time>2022-06-12T06:16:25.000Z</time></trkpt><trkpt lon="5.787315" lat="51.10343"><ele>29</ele><time>2022-06-12T06:16:26.000Z</time></trkpt><trkpt lon="5.787407" lat="51.103406"><ele>29.2</ele><time>2022-06-12T06:16:27.000Z</time></trkpt><trkpt lon="5.787491" lat="51.103379"><ele>29.2</ele><time>2022-06-12T06:16:28.000Z</time></trkpt><trkpt lon="5.787577" lat="51.103353"><ele>29.4</ele><time>2022-06-12T06:16:29.000Z</time></trkpt><trkpt lon="5.787658" lat="51.10333"><ele>29.4</ele><time>2022-06-12T06:16:30.000Z</time></trkpt><trkpt lon="5.787734" lat="51.103303"><ele>29.4</ele><time>2022-06-12T06:16:31.000Z</time></trkpt><trkpt lon="5.787803" lat="51.10328"><ele>29.4</ele><time>2022-06-12T06:16:32.000Z</time></trkpt><trkpt lon="5.787852" lat="51.103246"><ele>29.4</ele><time>2022-06-12T06:16:33.000Z</time></trkpt><trkpt lon="5.787862" lat="51.1032"><ele>29.6</ele><time>2022-06-12T06:16:34.000Z</time></trkpt><trkpt lon="5.787828" lat="51.103155"><ele>29.4</ele><time>2022-06-12T06:16:35.000Z</time></trkpt><trkpt lon="5.787771" lat="51.103106"><ele>29.4</ele><time>2022-06-12T06:16:36.000Z</time></trkpt><trkpt lon="5.78771" lat="51.103056"><ele>29.4</ele><time>2022-06-12T06:16:37.000Z</time></trkpt><trkpt lon="5.787657" lat="51.102999"><ele>29.4</ele><time>2022-06-12T06:16:38.000Z</time></trkpt><trkpt lon="5.787612" lat="51.102935"><ele>29.4</ele><time>2022-06-12T06:16:39.000Z</time></trkpt><trkpt lon="5.787572" lat="51.102879"><ele>29.4</ele><time>2022-06-12T06:16:40.000Z</time></trkpt><trkpt lon="5.787533" lat="51.102812"><ele>29.4</ele><time>2022-06-12T06:16:41.000Z</time></trkpt><trkpt lon="5.787501" lat="51.102751"><ele>29.4</ele><time>2022-06-12T06:16:42.000Z</time></trkpt><trkpt lon="5.787477" lat="51.102683"><ele>29.4</ele><time>2022-06-12T06:16:43.000Z</time></trkpt><trkpt lon="5.787467" lat="51.102614"><ele>29.6</ele><time>2022-06-12T06:16:44.000Z</time></trkpt><trkpt lon="5.787468" lat="51.102546"><ele>29.6</ele><time>2022-06-12T06:16:45.000Z</time></trkpt><trkpt lon="5.787476" lat="51.102477"><ele>29.6</ele><time>2022-06-12T06:16:46.000Z</time></trkpt><trkpt lon="5.787489" lat="51.102405"><ele>29.6</ele><time>2022-06-12T06:16:47.000Z</time></trkpt><trkpt lon="5.787502" lat="51.102333"><ele>29.6</ele><time>2022-06-12T06:16:48.000Z</time></trkpt><trkpt lon="5.787518" lat="51.10226"><ele>29.6</ele><time>2022-06-12T06:16:49.000Z</time></trkpt><trkpt lon="5.787531" lat="51.102187"><ele>29.6</ele><time>2022-06-12T06:16:50.000Z</time></trkpt><trkpt lon="5.787546" lat="51.102118"><ele>29.6</ele><time>2022-06-12T06:16:51.000Z</time></trkpt><trkpt lon="5.78756" lat="51.102049"><ele>29.6</ele><time>2022-06-12T06:16:52.000Z</time></trkpt><trkpt lon="5.787571" lat="51.10198"><ele>29.6</ele><time>2022-06-12T06:16:53.000Z</time></trkpt><trkpt lon="5.787583" lat="51.101911"><ele>29.6</ele><time>2022-06-12T06:16:54.000Z</time></trkpt><trkpt lon="5.787595" lat="51.101848"><ele>29.8</ele><time>2022-06-12T06:16:55.000Z</time></trkpt><trkpt lon="5.787609" lat="51.10178"><ele>29.8</ele><time>2022-06-12T06:16:56.000Z</time></trkpt><trkpt lon="5.787621" lat="51.101702"><ele>29.6</ele><time>2022-06-12T06:16:57.000Z</time></trkpt><trkpt lon="5.787635" lat="51.101635"><ele>29.6</ele><time>2022-06-12T06:16:58.000Z</time></trkpt><trkpt lon="5.787651" lat="51.101558"><ele>29.6</ele><time>2022-06-12T06:16:59.000Z</time></trkpt><trkpt lon="5.787661" lat="51.10149"><ele>29.6</ele><time>2022-06-12T06:17:00.000Z</time></trkpt><trkpt lon="5.787673" lat="51.101417"><ele>29.6</ele><time>2022-06-12T06:17:01.000Z</time></trkpt><trkpt lon="5.787686" lat="51.101347"><ele>29.4</ele><time>2022-06-12T06:17:02.000Z</time></trkpt><trkpt lon="5.787703" lat="51.101275"><ele>29.2</ele><time>2022-06-12T06:17:03.000Z</time></trkpt><trkpt lon="5.787718" lat="51.101202"><ele>29.2</ele><time>2022-06-12T06:17:04.000Z</time></trkpt><trkpt lon="5.787733" lat="51.101133"><ele>29.2</ele><time>2022-06-12T06:17:05.000Z</time></trkpt><trkpt lon="5.787745" lat="51.101061"><ele>29.2</ele><time>2022-06-12T06:17:06.000Z</time></trkpt><trkpt lon="5.787757" lat="51.100991"><ele>29.2</ele><time>2022-06-12T06:17:07.000Z</time></trkpt><trkpt lon="5.787773" lat="51.100919"><ele>29.2</ele><time>2022-06-12T06:17:08.000Z</time></trkpt><trkpt lon="5.787789" lat="51.100849"><ele>29.4</ele><time>2022-06-12T06:17:09.000Z</time></trkpt><trkpt lon="5.787806" lat="51.100778"><ele>29.4</ele><time>2022-06-12T06:17:10.000Z</time></trkpt><trkpt lon="5.787826" lat="51.100703"><ele>29.2</ele><time>2022-06-12T06:17:11.000Z</time></trkpt><trkpt lon="5.787846" lat="51.100634"><ele>29.2</ele><time>2022-06-12T06:17:12.000Z</time></trkpt><trkpt lon="5.787864" lat="51.100562"><ele>29.2</ele><time>2022-06-12T06:17:13.000Z</time></trkpt><trkpt lon="5.787881" lat="51.100489"><ele>29.2</ele><time>2022-06-12T06:17:14.000Z</time></trkpt><trkpt lon="5.7879" lat="51.100419"><ele>29.2</ele><time>2022-06-12T06:17:15.000Z</time></trkpt><trkpt lon="5.787916" lat="51.100348"><ele>29.2</ele><time>2022-06-12T06:17:16.000Z</time></trkpt><trkpt lon="5.787931" lat="51.100278"><ele>29.2</ele><time>2022-06-12T06:17:17.000Z</time></trkpt><trkpt lon="5.787946" lat="51.100213"><ele>29.2</ele><time>2022-06-12T06:17:18.000Z</time></trkpt><trkpt lon="5.787961" lat="51.100145"><ele>29.2</ele><time>2022-06-12T06:17:19.000Z</time></trkpt><trkpt lon="5.787976" lat="51.10008"><ele>29.2</ele><time>2022-06-12T06:17:20.000Z</time></trkpt><trkpt lon="5.787994" lat="51.100012"><ele>29.2</ele><time>2022-06-12T06:17:21.000Z</time></trkpt><trkpt lon="5.788014" lat="51.099947"><ele>29.4</ele><time>2022-06-12T06:17:22.000Z</time></trkpt><trkpt lon="5.788034" lat="51.099886"><ele>29.4</ele><time>2022-06-12T06:17:23.000Z</time></trkpt><trkpt lon="5.788056" lat="51.099829"><ele>29.4</ele><time>2022-06-12T06:17:24.000Z</time></trkpt><trkpt lon="5.78808" lat="51.099775"><ele>29.4</ele><time>2022-06-12T06:17:25.000Z</time></trkpt><trkpt lon="5.788096" lat="51.099718"><ele>29.6</ele><time>2022-06-12T06:17:26.000Z</time></trkpt><trkpt lon="5.788106" lat="51.099665"><ele>29.6</ele><time>2022-06-12T06:17:27.000Z</time></trkpt><trkpt lon="5.788109" lat="51.099617"><ele>29.6</ele><time>2022-06-12T06:17:28.000Z</time></trkpt><trkpt lon="5.788099" lat="51.099569"><ele>29.6</ele><time>2022-06-12T06:17:29.000Z</time></trkpt><trkpt lon="5.788089" lat="51.099523"><ele>29.6</ele><time>2022-06-12T06:17:30.000Z</time></trkpt><trkpt lon="5.788099" lat="51.099483"><ele>29.6</ele><time>2022-06-12T06:17:31.000Z</time></trkpt><trkpt lon="5.788142" lat="51.099447"><ele>29.6</ele><time>2022-06-12T06:17:32.000Z</time></trkpt><trkpt lon="5.788206" lat="51.099434"><ele>29.8</ele><time>2022-06-12T06:17:33.000Z</time></trkpt><trkpt lon="5.788278" lat="51.099441"><ele>29.8</ele><time>2022-06-12T06:17:34.000Z</time></trkpt><trkpt lon="5.788355" lat="51.099456"><ele>29.8</ele><time>2022-06-12T06:17:35.000Z</time></trkpt><trkpt lon="5.788449" lat="51.099475"><ele>29.8</ele><time>2022-06-12T06:17:36.000Z</time></trkpt><trkpt lon="5.788552" lat="51.09948"><ele>29.8</ele><time>2022-06-12T06:17:37.000Z</time></trkpt><trkpt lon="5.788659" lat="51.099487"><ele>29.8</ele><time>2022-06-12T06:17:38.000Z</time></trkpt><trkpt lon="5.788768" lat="51.099495"><ele>29.8</ele><time>2022-06-12T06:17:39.000Z</time></trkpt><trkpt lon="5.788877" lat="51.099502"><ele>29.6</ele><time>2022-06-12T06:17:40.000Z</time></trkpt><trkpt lon="5.788983" lat="51.099513"><ele>29.4</ele><time>2022-06-12T06:17:41.000Z</time></trkpt><trkpt lon="5.789107" lat="51.099525"><ele>29.4</ele><time>2022-06-12T06:17:42.000Z</time></trkpt><trkpt lon="5.789224" lat="51.099537"><ele>29.4</ele><time>2022-06-12T06:17:43.000Z</time></trkpt><trkpt lon="5.78934" lat="51.099544"><ele>29.4</ele><time>2022-06-12T06:17:44.000Z</time></trkpt><trkpt lon="5.789461" lat="51.099548"><ele>29</ele><time>2022-06-12T06:17:45.000Z</time></trkpt><trkpt lon="5.789579" lat="51.099559"><ele>28.8</ele><time>2022-06-12T06:17:46.000Z</time></trkpt><trkpt lon="5.789696" lat="51.099567"><ele>29</ele><time>2022-06-12T06:17:47.000Z</time></trkpt><trkpt lon="5.789815" lat="51.099575"><ele>29</ele><time>2022-06-12T06:17:48.000Z</time></trkpt><trkpt lon="5.789938" lat="51.099582"><ele>29</ele><time>2022-06-12T06:17:49.000Z</time></trkpt><trkpt lon="5.790056" lat="51.099586"><ele>29</ele><time>2022-06-12T06:17:50.000Z</time></trkpt><trkpt lon="5.790181" lat="51.09959"><ele>28.8</ele><time>2022-06-12T06:17:51.000Z</time></trkpt><trkpt lon="5.790293" lat="51.099597"><ele>28.8</ele><time>2022-06-12T06:17:52.000Z</time></trkpt><trkpt lon="5.790425" lat="51.099602"><ele>28.8</ele><time>2022-06-12T06:17:53.000Z</time></trkpt><trkpt lon="5.790549" lat="51.099602"><ele>28.8</ele><time>2022-06-12T06:17:54.000Z</time></trkpt><trkpt lon="5.790671" lat="51.099602"><ele>29</ele><time>2022-06-12T06:17:55.000Z</time></trkpt><trkpt lon="5.790796" lat="51.099602"><ele>29</ele><time>2022-06-12T06:17:56.000Z</time></trkpt><trkpt lon="5.79092" lat="51.099602"><ele>28.8</ele><time>2022-06-12T06:17:57.000Z</time></trkpt><trkpt lon="5.791009" lat="51.099602"><ele>28.8</ele><time>2022-06-12T06:17:58.000Z</time></trkpt><trkpt lon="5.791162" lat="51.099598"><ele>28.8</ele><time>2022-06-12T06:17:59.000Z</time></trkpt><trkpt lon="5.79128" lat="51.099598"><ele>28.8</ele><time>2022-06-12T06:18:00.000Z</time></trkpt><trkpt lon="5.791406" lat="51.099594"><ele>28.8</ele><time>2022-06-12T06:18:01.000Z</time></trkpt><trkpt lon="5.791524" lat="51.09959"><ele>29</ele><time>2022-06-12T06:18:02.000Z</time></trkpt><trkpt lon="5.791642" lat="51.099587"><ele>29</ele><time>2022-06-12T06:18:03.000Z</time></trkpt><trkpt lon="5.791766" lat="51.099579"><ele>29</ele><time>2022-06-12T06:18:04.000Z</time></trkpt><trkpt lon="5.791884" lat="51.099571"><ele>29</ele><time>2022-06-12T06:18:05.000Z</time></trkpt><trkpt lon="5.792" lat="51.099564"><ele>29</ele><time>2022-06-12T06:18:06.000Z</time></trkpt><trkpt lon="5.792122" lat="51.099556"><ele>29.2</ele><time>2022-06-12T06:18:07.000Z</time></trkpt><trkpt lon="5.792241" lat="51.099548"><ele>29.2</ele><time>2022-06-12T06:18:08.000Z</time></trkpt><trkpt lon="5.792358" lat="51.099537"><ele>29</ele><time>2022-06-12T06:18:09.000Z</time></trkpt><trkpt lon="5.792477" lat="51.09953"><ele>29</ele><time>2022-06-12T06:18:10.000Z</time></trkpt><trkpt lon="5.792595" lat="51.099514"><ele>28.8</ele><time>2022-06-12T06:18:11.000Z</time></trkpt><trkpt lon="5.792712" lat="51.099503"><ele>29</ele><time>2022-06-12T06:18:12.000Z</time></trkpt><trkpt lon="5.792834" lat="51.099491"><ele>29</ele><time>2022-06-12T06:18:13.000Z</time></trkpt><trkpt lon="5.792935" lat="51.099478"><ele>29</ele><time>2022-06-12T06:18:14.000Z</time></trkpt><trkpt lon="5.793068" lat="51.099461"><ele>28.8</ele><time>2022-06-12T06:18:15.000Z</time></trkpt><trkpt lon="5.793164" lat="51.099449"><ele>28.8</ele><time>2022-06-12T06:18:16.000Z</time></trkpt><trkpt lon="5.793304" lat="51.099431"><ele>28.8</ele><time>2022-06-12T06:18:17.000Z</time></trkpt><trkpt lon="5.793419" lat="51.099416"><ele>28.8</ele><time>2022-06-12T06:18:18.000Z</time></trkpt><trkpt lon="5.79354" lat="51.099396"><ele>28.8</ele><time>2022-06-12T06:18:19.000Z</time></trkpt><trkpt lon="5.793652" lat="51.099379"><ele>28.8</ele><time>2022-06-12T06:18:20.000Z</time></trkpt><trkpt lon="5.793778" lat="51.099354"><ele>28.8</ele><time>2022-06-12T06:18:21.000Z</time></trkpt><trkpt lon="5.793894" lat="51.099335"><ele>28.8</ele><time>2022-06-12T06:18:22.000Z</time></trkpt><trkpt lon="5.794009" lat="51.099316"><ele>28.8</ele><time>2022-06-12T06:18:23.000Z</time></trkpt><trkpt lon="5.794118" lat="51.099294"><ele>28.8</ele><time>2022-06-12T06:18:24.000Z</time></trkpt><trkpt lon="5.794225" lat="51.099275"><ele>28.8</ele><time>2022-06-12T06:18:25.000Z</time></trkpt><trkpt lon="5.794336" lat="51.099256"><ele>28.8</ele><time>2022-06-12T06:18:26.000Z</time></trkpt><trkpt lon="5.794445" lat="51.099233"><ele>28.8</ele><time>2022-06-12T06:18:27.000Z</time></trkpt><trkpt lon="5.794558" lat="51.099213"><ele>28.8</ele><time>2022-06-12T06:18:28.000Z</time></trkpt><trkpt lon="5.794665" lat="51.099191"><ele>29</ele><time>2022-06-12T06:18:29.000Z</time></trkpt><trkpt lon="5.794777" lat="51.099167"><ele>29</ele><time>2022-06-12T06:18:30.000Z</time></trkpt><trkpt lon="5.794886" lat="51.099141"><ele>29.2</ele><time>2022-06-12T06:18:31.000Z</time></trkpt><trkpt lon="5.794993" lat="51.099114"><ele>29.2</ele><time>2022-06-12T06:18:32.000Z</time></trkpt><trkpt lon="5.795102" lat="51.099087"><ele>29.2</ele><time>2022-06-12T06:18:33.000Z</time></trkpt><trkpt lon="5.79521" lat="51.099065"><ele>29.2</ele><time>2022-06-12T06:18:34.000Z</time></trkpt><trkpt lon="5.795315" lat="51.099038"><ele>29.4</ele><time>2022-06-12T06:18:35.000Z</time></trkpt><trkpt lon="5.795418" lat="51.099015"><ele>29.4</ele><time>2022-06-12T06:18:36.000Z</time></trkpt><trkpt lon="5.795511" lat="51.098996"><ele>29.6</ele><time>2022-06-12T06:18:37.000Z</time></trkpt><trkpt lon="5.795596" lat="51.098975"><ele>29.6</ele><time>2022-06-12T06:18:38.000Z</time></trkpt><trkpt lon="5.795686" lat="51.098954"><ele>29.8</ele><time>2022-06-12T06:18:39.000Z</time></trkpt><trkpt lon="5.795755" lat="51.098937"><ele>30</ele><time>2022-06-12T06:18:40.000Z</time></trkpt><trkpt lon="5.795838" lat="51.098912"><ele>30</ele><time>2022-06-12T06:18:41.000Z</time></trkpt><trkpt lon="5.795901" lat="51.098893"><ele>30.2</ele><time>2022-06-12T06:18:42.000Z</time></trkpt><trkpt lon="5.795989" lat="51.098863"><ele>30.4</ele><time>2022-06-12T06:18:43.000Z</time></trkpt><trkpt lon="5.796076" lat="51.098847"><ele>30.4</ele><time>2022-06-12T06:18:44.000Z</time></trkpt><trkpt lon="5.796174" lat="51.098846"><ele>30.4</ele><time>2022-06-12T06:18:45.000Z</time></trkpt><trkpt lon="5.796274" lat="51.098846"><ele>30.4</ele><time>2022-06-12T06:18:46.000Z</time></trkpt><trkpt lon="5.796388" lat="51.098846"><ele>30.4</ele><time>2022-06-12T06:18:47.000Z</time></trkpt><trkpt lon="5.796496" lat="51.098843"><ele>30.4</ele><time>2022-06-12T06:18:48.000Z</time></trkpt><trkpt lon="5.79661" lat="51.098828"><ele>30.2</ele><time>2022-06-12T06:18:49.000Z</time></trkpt><trkpt lon="5.796719" lat="51.098802"><ele>30</ele><time>2022-06-12T06:18:50.000Z</time></trkpt><trkpt lon="5.79683" lat="51.098771"><ele>29.8</ele><time>2022-06-12T06:18:51.000Z</time></trkpt><trkpt lon="5.796936" lat="51.098737"><ele>29.6</ele><time>2022-06-12T06:18:52.000Z</time></trkpt><trkpt lon="5.797046" lat="51.098702"><ele>29.6</ele><time>2022-06-12T06:18:53.000Z</time></trkpt><trkpt lon="5.797153" lat="51.098668"><ele>29.4</ele><time>2022-06-12T06:18:54.000Z</time></trkpt><trkpt lon="5.797259" lat="51.098634"><ele>29.4</ele><time>2022-06-12T06:18:55.000Z</time></trkpt><trkpt lon="5.797361" lat="51.0986"><ele>29.4</ele><time>2022-06-12T06:18:56.000Z</time></trkpt><trkpt lon="5.797463" lat="51.098554"><ele>29.4</ele><time>2022-06-12T06:18:57.000Z</time></trkpt><trkpt lon="5.797556" lat="51.098514"><ele>29.6</ele><time>2022-06-12T06:18:58.000Z</time></trkpt><trkpt lon="5.797659" lat="51.098466"><ele>29.2</ele><time>2022-06-12T06:18:59.000Z</time></trkpt><trkpt lon="5.797755" lat="51.098421"><ele>29.2</ele><time>2022-06-12T06:19:00.000Z</time></trkpt><trkpt lon="5.797849" lat="51.098367"><ele>29.2</ele><time>2022-06-12T06:19:01.000Z</time></trkpt><trkpt lon="5.797937" lat="51.09831"><ele>29</ele><time>2022-06-12T06:19:02.000Z</time></trkpt><trkpt lon="5.798021" lat="51.098257"><ele>29</ele><time>2022-06-12T06:19:03.000Z</time></trkpt><trkpt lon="5.798098" lat="51.098199"><ele>29</ele><time>2022-06-12T06:19:04.000Z</time></trkpt><trkpt lon="5.798185" lat="51.098138"><ele>29.2</ele><time>2022-06-12T06:19:05.000Z</time></trkpt><trkpt lon="5.798265" lat="51.098082"><ele>29.2</ele><time>2022-06-12T06:19:06.000Z</time></trkpt><trkpt lon="5.798346" lat="51.098021"><ele>29</ele><time>2022-06-12T06:19:07.000Z</time></trkpt><trkpt lon="5.798425" lat="51.097968"><ele>28.8</ele><time>2022-06-12T06:19:08.000Z</time></trkpt><trkpt lon="5.798508" lat="51.097906"><ele>28.8</ele><time>2022-06-12T06:19:09.000Z</time></trkpt><trkpt lon="5.798586" lat="51.097848"><ele>28.6</ele><time>2022-06-12T06:19:10.000Z</time></trkpt><trkpt lon="5.798666" lat="51.097791"><ele>28.6</ele><time>2022-06-12T06:19:11.000Z</time></trkpt><trkpt lon="5.798743" lat="51.09774"><ele>28.6</ele><time>2022-06-12T06:19:12.000Z</time></trkpt><trkpt lon="5.798826" lat="51.097681"><ele>28.4</ele><time>2022-06-12T06:19:13.000Z</time></trkpt><trkpt lon="5.798902" lat="51.097628"><ele>28.4</ele><time>2022-06-12T06:19:14.000Z</time></trkpt><trkpt lon="5.798983" lat="51.097574"><ele>28.2</ele><time>2022-06-12T06:19:15.000Z</time></trkpt><trkpt lon="5.799059" lat="51.097521"><ele>28.2</ele><time>2022-06-12T06:19:16.000Z</time></trkpt><trkpt lon="5.799133" lat="51.097468"><ele>28.4</ele><time>2022-06-12T06:19:17.000Z</time></trkpt><trkpt lon="5.799205" lat="51.097421"><ele>28.6</ele><time>2022-06-12T06:19:18.000Z</time></trkpt><trkpt lon="5.799279" lat="51.097371"><ele>28.6</ele><time>2022-06-12T06:19:19.000Z</time></trkpt><trkpt lon="5.799348" lat="51.097323"><ele>28.8</ele><time>2022-06-12T06:19:20.000Z</time></trkpt><trkpt lon="5.799416" lat="51.097273"><ele>28.8</ele><time>2022-06-12T06:19:21.000Z</time></trkpt><trkpt lon="5.799481" lat="51.097227"><ele>28.8</ele><time>2022-06-12T06:19:22.000Z</time></trkpt><trkpt lon="5.799542" lat="51.097185"><ele>28.6</ele><time>2022-06-12T06:19:23.000Z</time></trkpt><trkpt lon="5.799588" lat="51.097147"><ele>28.6</ele><time>2022-06-12T06:19:24.000Z</time></trkpt><trkpt lon="5.799603" lat="51.097104"><ele>28.8</ele><time>2022-06-12T06:19:25.000Z</time></trkpt><trkpt lon="5.799583" lat="51.097054"><ele>28.8</ele><time>2022-06-12T06:19:26.000Z</time></trkpt><trkpt lon="5.799549" lat="51.096993"><ele>28.6</ele><time>2022-06-12T06:19:27.000Z</time></trkpt><trkpt lon="5.799509" lat="51.096927"><ele>28.4</ele><time>2022-06-12T06:19:28.000Z</time></trkpt><trkpt lon="5.799467" lat="51.096854"><ele>28.2</ele><time>2022-06-12T06:19:29.000Z</time></trkpt><trkpt lon="5.799427" lat="51.096779"><ele>28</ele><time>2022-06-12T06:19:30.000Z</time></trkpt><trkpt lon="5.799385" lat="51.096706"><ele>27.8</ele><time>2022-06-12T06:19:31.000Z</time></trkpt><trkpt lon="5.799353" lat="51.096649"><ele>27.8</ele><time>2022-06-12T06:19:32.000Z</time></trkpt><trkpt lon="5.799297" lat="51.096558"><ele>28</ele><time>2022-06-12T06:19:33.000Z</time></trkpt><trkpt lon="5.79925" lat="51.096488"><ele>27.8</ele><time>2022-06-12T06:19:34.000Z</time></trkpt><trkpt lon="5.799205" lat="51.096419"><ele>27.8</ele><time>2022-06-12T06:19:35.000Z</time></trkpt><trkpt lon="5.799158" lat="51.09635"><ele>27.8</ele><time>2022-06-12T06:19:36.000Z</time></trkpt><trkpt lon="5.799108" lat="51.096281"><ele>27.8</ele><time>2022-06-12T06:19:37.000Z</time></trkpt><trkpt lon="5.799056" lat="51.096212"><ele>28</ele><time>2022-06-12T06:19:38.000Z</time></trkpt><trkpt lon="5.799002" lat="51.096152"><ele>28</ele><time>2022-06-12T06:19:39.000Z</time></trkpt><trkpt lon="5.798948" lat="51.096086"><ele>28</ele><time>2022-06-12T06:19:40.000Z</time></trkpt><trkpt lon="5.798897" lat="51.096027"><ele>28</ele><time>2022-06-12T06:19:41.000Z</time></trkpt><trkpt lon="5.798841" lat="51.095964"><ele>28</ele><time>2022-06-12T06:19:42.000Z</time></trkpt><trkpt lon="5.798788" lat="51.095905"><ele>28</ele><time>2022-06-12T06:19:43.000Z</time></trkpt><trkpt lon="5.79873" lat="51.095843"><ele>28</ele><time>2022-06-12T06:19:44.000Z</time></trkpt><trkpt lon="5.798673" lat="51.095781"><ele>28.2</ele><time>2022-06-12T06:19:45.000Z</time></trkpt><trkpt lon="5.798617" lat="51.09572"><ele>28.2</ele><time>2022-06-12T06:19:46.000Z</time></trkpt><trkpt lon="5.798559" lat="51.095667"><ele>28.2</ele><time>2022-06-12T06:19:47.000Z</time></trkpt><trkpt lon="5.7985" lat="51.095611"><ele>28.4</ele><time>2022-06-12T06:19:48.000Z</time></trkpt><trkpt lon="5.798438" lat="51.095549"><ele>28.4</ele><time>2022-06-12T06:19:49.000Z</time></trkpt><trkpt lon="5.798378" lat="51.095496"><ele>28.2</ele><time>2022-06-12T06:19:50.000Z</time></trkpt><trkpt lon="5.798315" lat="51.095438"><ele>28.2</ele><time>2022-06-12T06:19:51.000Z</time></trkpt><trkpt lon="5.798254" lat="51.095381"><ele>28.2</ele><time>2022-06-12T06:19:52.000Z</time></trkpt><trkpt lon="5.798201" lat="51.095334"><ele>28</ele><time>2022-06-12T06:19:53.000Z</time></trkpt><trkpt lon="5.798127" lat="51.095274"><ele>28.2</ele><time>2022-06-12T06:19:54.000Z</time></trkpt><trkpt lon="5.798061" lat="51.09522"><ele>28.2</ele><time>2022-06-12T06:19:55.000Z</time></trkpt><trkpt lon="5.797999" lat="51.095168"><ele>28.2</ele><time>2022-06-12T06:19:56.000Z</time></trkpt><trkpt lon="5.79794" lat="51.095113"><ele>28.4</ele><time>2022-06-12T06:19:57.000Z</time></trkpt><trkpt lon="5.79789" lat="51.095068"><ele>28.2</ele><time>2022-06-12T06:19:58.000Z</time></trkpt><trkpt lon="5.797822" lat="51.095007"><ele>28.2</ele><time>2022-06-12T06:19:59.000Z</time></trkpt><trkpt lon="5.79777" lat="51.094959"><ele>28.2</ele><time>2022-06-12T06:20:00.000Z</time></trkpt><trkpt lon="5.797701" lat="51.094897"><ele>28.2</ele><time>2022-06-12T06:20:01.000Z</time></trkpt><trkpt lon="5.797642" lat="51.094843"><ele>28.2</ele><time>2022-06-12T06:20:02.000Z</time></trkpt><trkpt lon="5.797578" lat="51.094796"><ele>28.2</ele><time>2022-06-12T06:20:03.000Z</time></trkpt><trkpt lon="5.797503" lat="51.094767"><ele>28.4</ele><time>2022-06-12T06:20:04.000Z</time></trkpt><trkpt lon="5.797403" lat="51.094754"><ele>28.8</ele><time>2022-06-12T06:20:05.000Z</time></trkpt><trkpt lon="5.797301" lat="51.09475"><ele>29</ele><time>2022-06-12T06:20:06.000Z</time></trkpt><trkpt lon="5.797197" lat="51.094746"><ele>29</ele><time>2022-06-12T06:20:07.000Z</time></trkpt><trkpt lon="5.797098" lat="51.094738"><ele>29</ele><time>2022-06-12T06:20:08.000Z</time></trkpt><trkpt lon="5.796999" lat="51.094727"><ele>29.2</ele><time>2022-06-12T06:20:09.000Z</time></trkpt><trkpt lon="5.796919" lat="51.094704"><ele>29.2</ele><time>2022-06-12T06:20:10.000Z</time></trkpt><trkpt lon="5.796865" lat="51.094667"><ele>29.2</ele><time>2022-06-12T06:20:11.000Z</time></trkpt><trkpt lon="5.796832" lat="51.094618"><ele>29</ele><time>2022-06-12T06:20:12.000Z</time></trkpt><trkpt lon="5.796811" lat="51.094557"><ele>29</ele><time>2022-06-12T06:20:13.000Z</time></trkpt><trkpt lon="5.796788" lat="51.094497"><ele>28.8</ele><time>2022-06-12T06:20:14.000Z</time></trkpt><trkpt lon="5.796764" lat="51.094431"><ele>28.8</ele><time>2022-06-12T06:20:15.000Z</time></trkpt><trkpt lon="5.796742" lat="51.094363"><ele>28.8</ele><time>2022-06-12T06:20:16.000Z</time></trkpt><trkpt lon="5.796722" lat="51.094297"><ele>28.6</ele><time>2022-06-12T06:20:17.000Z</time></trkpt><trkpt lon="5.7967" lat="51.094234"><ele>28.6</ele><time>2022-06-12T06:20:18.000Z</time></trkpt><trkpt lon="5.796674" lat="51.094171"><ele>28.8</ele><time>2022-06-12T06:20:19.000Z</time></trkpt><trkpt lon="5.796644" lat="51.09411"><ele>28.8</ele><time>2022-06-12T06:20:20.000Z</time></trkpt><trkpt lon="5.796611" lat="51.094049"><ele>28.8</ele><time>2022-06-12T06:20:21.000Z</time></trkpt><trkpt lon="5.796579" lat="51.093989"><ele>28.8</ele><time>2022-06-12T06:20:22.000Z</time></trkpt><trkpt lon="5.796547" lat="51.093937"><ele>28.6</ele><time>2022-06-12T06:20:23.000Z</time></trkpt><trkpt lon="5.796508" lat="51.093878"><ele>28.8</ele><time>2022-06-12T06:20:24.000Z</time></trkpt><trkpt lon="5.796472" lat="51.093821"><ele>29</ele><time>2022-06-12T06:20:25.000Z</time></trkpt><trkpt lon="5.79644" lat="51.09377"><ele>29.2</ele><time>2022-06-12T06:20:26.000Z</time></trkpt><trkpt lon="5.796406" lat="51.093717"><ele>29.2</ele><time>2022-06-12T06:20:27.000Z</time></trkpt><trkpt lon="5.796384" lat="51.093675"><ele>29.2</ele><time>2022-06-12T06:20:28.000Z</time></trkpt><trkpt lon="5.796356" lat="51.093629"><ele>29.4</ele><time>2022-06-12T06:20:29.000Z</time></trkpt><trkpt lon="5.79633" lat="51.093595"><ele>29.4</ele><time>2022-06-12T06:20:30.000Z</time></trkpt><trkpt lon="5.796308" lat="51.093568"><ele>29.6</ele><time>2022-06-12T06:20:31.000Z</time></trkpt><trkpt lon="5.796292" lat="51.093548"><ele>29.8</ele><time>2022-06-12T06:20:32.000Z</time></trkpt><trkpt lon="5.796289" lat="51.093529"><ele>29.8</ele><time>2022-06-12T06:20:33.000Z</time></trkpt><trkpt lon="5.796296" lat="51.093521"><ele>30</ele><time>2022-06-12T06:20:34.000Z</time></trkpt><trkpt lon="5.796319" lat="51.093495"><ele>30.2</ele><time>2022-06-12T06:20:37.000Z</time></trkpt><trkpt lon="5.796344" lat="51.09348"><ele>30.2</ele><time>2022-06-12T06:20:38.000Z</time></trkpt><trkpt lon="5.79638" lat="51.093461"><ele>30.2</ele><time>2022-06-12T06:20:39.000Z</time></trkpt><trkpt lon="5.796422" lat="51.093435"><ele>30.2</ele><time>2022-06-12T06:20:40.000Z</time></trkpt><trkpt lon="5.796466" lat="51.093417"><ele>30.2</ele><time>2022-06-12T06:20:41.000Z</time></trkpt><trkpt lon="5.796524" lat="51.093396"><ele>30.2</ele><time>2022-06-12T06:20:42.000Z</time></trkpt><trkpt lon="5.796587" lat="51.093388"><ele>30.2</ele><time>2022-06-12T06:20:43.000Z</time></trkpt><trkpt lon="5.796659" lat="51.093395"><ele>30.4</ele><time>2022-06-12T06:20:44.000Z</time></trkpt><trkpt lon="5.796731" lat="51.093402"><ele>30.4</ele><time>2022-06-12T06:20:45.000Z</time></trkpt><trkpt lon="5.796811" lat="51.093414"><ele>30.4</ele><time>2022-06-12T06:20:46.000Z</time></trkpt><trkpt lon="5.796893" lat="51.093429"><ele>30.4</ele><time>2022-06-12T06:20:47.000Z</time></trkpt><trkpt lon="5.796979" lat="51.093437"><ele>30.6</ele><time>2022-06-12T06:20:48.000Z</time></trkpt><trkpt lon="5.797071" lat="51.093434"><ele>30.8</ele><time>2022-06-12T06:20:49.000Z</time></trkpt><trkpt lon="5.79716" lat="51.093419"><ele>31</ele><time>2022-06-12T06:20:50.000Z</time></trkpt><trkpt lon="5.797247" lat="51.093396"><ele>31</ele><time>2022-06-12T06:20:51.000Z</time></trkpt><trkpt lon="5.797331" lat="51.093374"><ele>31.4</ele><time>2022-06-12T06:20:52.000Z</time></trkpt><trkpt lon="5.797415" lat="51.093348"><ele>31.6</ele><time>2022-06-12T06:20:53.000Z</time></trkpt><trkpt lon="5.7975" lat="51.09332"><ele>31.8</ele><time>2022-06-12T06:20:54.000Z</time></trkpt><trkpt lon="5.797569" lat="51.093289"><ele>32</ele><time>2022-06-12T06:20:55.000Z</time></trkpt><trkpt lon="5.797639" lat="51.093249"><ele>32.4</ele><time>2022-06-12T06:20:56.000Z</time></trkpt><trkpt lon="5.79771" lat="51.09321"><ele>32.8</ele><time>2022-06-12T06:20:57.000Z</time></trkpt><trkpt lon="5.797773" lat="51.093177"><ele>33</ele><time>2022-06-12T06:20:58.000Z</time></trkpt><trkpt lon="5.797851" lat="51.093132"><ele>33.2</ele><time>2022-06-12T06:20:59.000Z</time></trkpt><trkpt lon="5.797923" lat="51.093089"><ele>33.2</ele><time>2022-06-12T06:21:00.000Z</time></trkpt><trkpt lon="5.797989" lat="51.093049"><ele>33.6</ele><time>2022-06-12T06:21:01.000Z</time></trkpt><trkpt lon="5.798062" lat="51.093004"><ele>33.8</ele><time>2022-06-12T06:21:02.000Z</time></trkpt><trkpt lon="5.798126" lat="51.092972"><ele>34</ele><time>2022-06-12T06:21:03.000Z</time></trkpt><trkpt lon="5.798192" lat="51.092932"><ele>34.2</ele><time>2022-06-12T06:21:04.000Z</time></trkpt><trkpt lon="5.79826" lat="51.09289"><ele>34.4</ele><time>2022-06-12T06:21:05.000Z</time></trkpt><trkpt lon="5.79833" lat="51.092852"><ele>34.6</ele><time>2022-06-12T06:21:06.000Z</time></trkpt><trkpt lon="5.798403" lat="51.092809"><ele>34.8</ele><time>2022-06-12T06:21:07.000Z</time></trkpt><trkpt lon="5.798473" lat="51.092769"><ele>35</ele><time>2022-06-12T06:21:08.000Z</time></trkpt><trkpt lon="5.798545" lat="51.092729"><ele>35</ele><time>2022-06-12T06:21:09.000Z</time></trkpt><trkpt lon="5.798616" lat="51.092688"><ele>35</ele><time>2022-06-12T06:21:10.000Z</time></trkpt><trkpt lon="5.798685" lat="51.092648"><ele>35</ele><time>2022-06-12T06:21:11.000Z</time></trkpt><trkpt lon="5.798763" lat="51.092603"><ele>35</ele><time>2022-06-12T06:21:12.000Z</time></trkpt><trkpt lon="5.798833" lat="51.09256"><ele>35</ele><time>2022-06-12T06:21:13.000Z</time></trkpt><trkpt lon="5.798911" lat="51.092512"><ele>35</ele><time>2022-06-12T06:21:14.000Z</time></trkpt><trkpt lon="5.798985" lat="51.092471"><ele>35</ele><time>2022-06-12T06:21:15.000Z</time></trkpt><trkpt lon="5.799062" lat="51.092422"><ele>35</ele><time>2022-06-12T06:21:16.000Z</time></trkpt><trkpt lon="5.799137" lat="51.09238"><ele>35</ele><time>2022-06-12T06:21:17.000Z</time></trkpt><trkpt lon="5.799218" lat="51.09233"><ele>34.8</ele><time>2022-06-12T06:21:18.000Z</time></trkpt><trkpt lon="5.799298" lat="51.092283"><ele>34.4</ele><time>2022-06-12T06:21:19.000Z</time></trkpt><trkpt lon="5.799378" lat="51.092234"><ele>34.2</ele><time>2022-06-12T06:21:20.000Z</time></trkpt><trkpt lon="5.79946" lat="51.092184"><ele>34.4</ele><time>2022-06-12T06:21:21.000Z</time></trkpt><trkpt lon="5.799528" lat="51.092144"><ele>34.2</ele><time>2022-06-12T06:21:22.000Z</time></trkpt><trkpt lon="5.799628" lat="51.092085"><ele>34</ele><time>2022-06-12T06:21:23.000Z</time></trkpt><trkpt lon="5.799703" lat="51.092043"><ele>33.6</ele><time>2022-06-12T06:21:24.000Z</time></trkpt><trkpt lon="5.799807" lat="51.091983"><ele>33.4</ele><time>2022-06-12T06:21:25.000Z</time></trkpt><trkpt lon="5.799895" lat="51.091924"><ele>33</ele><time>2022-06-12T06:21:26.000Z</time></trkpt><trkpt lon="5.799982" lat="51.091854"><ele>32.6</ele><time>2022-06-12T06:21:27.000Z</time></trkpt><trkpt lon="5.800059" lat="51.091785"><ele>32.2</ele><time>2022-06-12T06:21:28.000Z</time></trkpt><trkpt lon="5.800138" lat="51.091706"><ele>31.8</ele><time>2022-06-12T06:21:29.000Z</time></trkpt><trkpt lon="5.800211" lat="51.091633"><ele>31.4</ele><time>2022-06-12T06:21:30.000Z</time></trkpt><trkpt lon="5.800282" lat="51.091552"><ele>31.2</ele><time>2022-06-12T06:21:31.000Z</time></trkpt><trkpt lon="5.800333" lat="51.091479"><ele>31</ele><time>2022-06-12T06:21:32.000Z</time></trkpt><trkpt lon="5.800368" lat="51.091398"><ele>30.8</ele><time>2022-06-12T06:21:33.000Z</time></trkpt><trkpt lon="5.800397" lat="51.091312"><ele>30.8</ele><time>2022-06-12T06:21:34.000Z</time></trkpt><trkpt lon="5.80042" lat="51.09123"><ele>30.6</ele><time>2022-06-12T06:21:35.000Z</time></trkpt><trkpt lon="5.800434" lat="51.091149"><ele>30.4</ele><time>2022-06-12T06:21:36.000Z</time></trkpt><trkpt lon="5.800438" lat="51.091068"><ele>29.8</ele><time>2022-06-12T06:21:37.000Z</time></trkpt><trkpt lon="5.800437" lat="51.09099"><ele>29.6</ele><time>2022-06-12T06:21:38.000Z</time></trkpt><trkpt lon="5.800435" lat="51.090911"><ele>29.6</ele><time>2022-06-12T06:21:39.000Z</time></trkpt><trkpt lon="5.80043" lat="51.090838"><ele>29.6</ele><time>2022-06-12T06:21:40.000Z</time></trkpt><trkpt lon="5.800422" lat="51.090761"><ele>29.6</ele><time>2022-06-12T06:21:41.000Z</time></trkpt><trkpt lon="5.800414" lat="51.09069"><ele>29.4</ele><time>2022-06-12T06:21:42.000Z</time></trkpt><trkpt lon="5.800409" lat="51.090617"><ele>29.4</ele><time>2022-06-12T06:21:43.000Z</time></trkpt><trkpt lon="5.800404" lat="51.090564"><ele>29.4</ele><time>2022-06-12T06:21:44.000Z</time></trkpt><trkpt lon="5.800402" lat="51.090487"><ele>29.4</ele><time>2022-06-12T06:21:45.000Z</time></trkpt><trkpt lon="5.800399" lat="51.090427"><ele>29.4</ele><time>2022-06-12T06:21:46.000Z</time></trkpt><trkpt lon="5.8004" lat="51.09035"><ele>29.6</ele><time>2022-06-12T06:21:47.000Z</time></trkpt><trkpt lon="5.800405" lat="51.090278"><ele>29.8</ele><time>2022-06-12T06:21:48.000Z</time></trkpt><trkpt lon="5.800412" lat="51.090215"><ele>29.8</ele><time>2022-06-12T06:21:49.000Z</time></trkpt><trkpt lon="5.800429" lat="51.09015"><ele>29.8</ele><time>2022-06-12T06:21:50.000Z</time></trkpt><trkpt lon="5.800449" lat="51.09008"><ele>29.8</ele><time>2022-06-12T06:21:51.000Z</time></trkpt><trkpt lon="5.800474" lat="51.090014"><ele>30</ele><time>2022-06-12T06:21:52.000Z</time></trkpt><trkpt lon="5.800504" lat="51.089951"><ele>30</ele><time>2022-06-12T06:21:53.000Z</time></trkpt><trkpt lon="5.800542" lat="51.089884"><ele>30</ele><time>2022-06-12T06:21:54.000Z</time></trkpt><trkpt lon="5.800586" lat="51.089816"><ele>30</ele><time>2022-06-12T06:21:55.000Z</time></trkpt><trkpt lon="5.800631" lat="51.08976"><ele>30</ele><time>2022-06-12T06:21:56.000Z</time></trkpt><trkpt lon="5.800685" lat="51.089695"><ele>30</ele><time>2022-06-12T06:21:57.000Z</time></trkpt><trkpt lon="5.800736" lat="51.089637"><ele>30</ele><time>2022-06-12T06:21:58.000Z</time></trkpt><trkpt lon="5.800794" lat="51.089572"><ele>30</ele><time>2022-06-12T06:21:59.000Z</time></trkpt><trkpt lon="5.80085" lat="51.089517"><ele>30</ele><time>2022-06-12T06:22:00.000Z</time></trkpt><trkpt lon="5.800909" lat="51.089455"><ele>30</ele><time>2022-06-12T06:22:01.000Z</time></trkpt><trkpt lon="5.800969" lat="51.089395"><ele>30</ele><time>2022-06-12T06:22:02.000Z</time></trkpt><trkpt lon="5.801029" lat="51.089338"><ele>30</ele><time>2022-06-12T06:22:03.000Z</time></trkpt><trkpt lon="5.801086" lat="51.089282"><ele>29.8</ele><time>2022-06-12T06:22:04.000Z</time></trkpt><trkpt lon="5.801152" lat="51.089221"><ele>29.8</ele><time>2022-06-12T06:22:05.000Z</time></trkpt><trkpt lon="5.801212" lat="51.08916"><ele>29.8</ele><time>2022-06-12T06:22:06.000Z</time></trkpt><trkpt lon="5.80127" lat="51.089103"><ele>29.8</ele><time>2022-06-12T06:22:07.000Z</time></trkpt><trkpt lon="5.801329" lat="51.089048"><ele>29.8</ele><time>2022-06-12T06:22:08.000Z</time></trkpt><trkpt lon="5.801389" lat="51.088988"><ele>29.8</ele><time>2022-06-12T06:22:09.000Z</time></trkpt><trkpt lon="5.801448" lat="51.088929"><ele>30</ele><time>2022-06-12T06:22:10.000Z</time></trkpt><trkpt lon="5.801508" lat="51.088871"><ele>29.8</ele><time>2022-06-12T06:22:11.000Z</time></trkpt><trkpt lon="5.801566" lat="51.088815"><ele>29.8</ele><time>2022-06-12T06:22:12.000Z</time></trkpt><trkpt lon="5.801608" lat="51.088772"><ele>29.8</ele><time>2022-06-12T06:22:13.000Z</time></trkpt><trkpt lon="5.801685" lat="51.088696"><ele>29.8</ele><time>2022-06-12T06:22:14.000Z</time></trkpt><trkpt lon="5.801743" lat="51.08864"><ele>29.8</ele><time>2022-06-12T06:22:15.000Z</time></trkpt><trkpt lon="5.801805" lat="51.088576"><ele>29.8</ele><time>2022-06-12T06:22:16.000Z</time></trkpt><trkpt lon="5.801863" lat="51.088521"><ele>29.8</ele><time>2022-06-12T06:22:17.000Z</time></trkpt><trkpt lon="5.801922" lat="51.088466"><ele>29.8</ele><time>2022-06-12T06:22:18.000Z</time></trkpt><trkpt lon="5.801985" lat="51.088405"><ele>29.8</ele><time>2022-06-12T06:22:19.000Z</time></trkpt><trkpt lon="5.802043" lat="51.088353"><ele>30</ele><time>2022-06-12T06:22:20.000Z</time></trkpt><trkpt lon="5.802105" lat="51.08829"><ele>30.2</ele><time>2022-06-12T06:22:21.000Z</time></trkpt><trkpt lon="5.802162" lat="51.088235"><ele>30.2</ele><time>2022-06-12T06:22:22.000Z</time></trkpt><trkpt lon="5.802218" lat="51.088183"><ele>30.2</ele><time>2022-06-12T06:22:23.000Z</time></trkpt><trkpt lon="5.802282" lat="51.088125"><ele>30.4</ele><time>2022-06-12T06:22:24.000Z</time></trkpt><trkpt lon="5.802346" lat="51.088063"><ele>30.4</ele><time>2022-06-12T06:22:25.000Z</time></trkpt><trkpt lon="5.802408" lat="51.088005"><ele>30.6</ele><time>2022-06-12T06:22:26.000Z</time></trkpt><trkpt lon="5.802465" lat="51.08795"><ele>30.6</ele><time>2022-06-12T06:22:27.000Z</time></trkpt><trkpt lon="5.802522" lat="51.087896"><ele>30.6</ele><time>2022-06-12T06:22:28.000Z</time></trkpt><trkpt lon="5.802591" lat="51.087831"><ele>30.6</ele><time>2022-06-12T06:22:29.000Z</time></trkpt><trkpt lon="5.802655" lat="51.08777"><ele>30.6</ele><time>2022-06-12T06:22:30.000Z</time></trkpt><trkpt lon="5.802714" lat="51.087715"><ele>30.8</ele><time>2022-06-12T06:22:31.000Z</time></trkpt><trkpt lon="5.802776" lat="51.087656"><ele>30.6</ele><time>2022-06-12T06:22:32.000Z</time></trkpt><trkpt lon="5.802843" lat="51.087591"><ele>30.6</ele><time>2022-06-12T06:22:33.000Z</time></trkpt><trkpt lon="5.802904" lat="51.087534"><ele>30.6</ele><time>2022-06-12T06:22:34.000Z</time></trkpt><trkpt lon="5.802971" lat="51.087469"><ele>30.6</ele><time>2022-06-12T06:22:35.000Z</time></trkpt><trkpt lon="5.803036" lat="51.087408"><ele>30.4</ele><time>2022-06-12T06:22:36.000Z</time></trkpt><trkpt lon="5.803103" lat="51.087347"><ele>30.2</ele><time>2022-06-12T06:22:37.000Z</time></trkpt><trkpt lon="5.803169" lat="51.087283"><ele>30.2</ele><time>2022-06-12T06:22:38.000Z</time></trkpt><trkpt lon="5.803238" lat="51.087218"><ele>30.2</ele><time>2022-06-12T06:22:39.000Z</time></trkpt><trkpt lon="5.803308" lat="51.087152"><ele>30.2</ele><time>2022-06-12T06:22:40.000Z</time></trkpt><trkpt lon="5.803379" lat="51.087084"><ele>30.2</ele><time>2022-06-12T06:22:41.000Z</time></trkpt><trkpt lon="5.803451" lat="51.087016"><ele>29.8</ele><time>2022-06-12T06:22:42.000Z</time></trkpt><trkpt lon="5.80352" lat="51.08695"><ele>29.4</ele><time>2022-06-12T06:22:43.000Z</time></trkpt><trkpt lon="5.803589" lat="51.086882"><ele>29.2</ele><time>2022-06-12T06:22:44.000Z</time></trkpt><trkpt lon="5.80366" lat="51.086817"><ele>28.8</ele><time>2022-06-12T06:22:45.000Z</time></trkpt><trkpt lon="5.803728" lat="51.086752"><ele>28.6</ele><time>2022-06-12T06:22:46.000Z</time></trkpt><trkpt lon="5.803795" lat="51.086687"><ele>28.6</ele><time>2022-06-12T06:22:47.000Z</time></trkpt><trkpt lon="5.80386" lat="51.086624"><ele>28.4</ele><time>2022-06-12T06:22:48.000Z</time></trkpt><trkpt lon="5.803927" lat="51.086558"><ele>28.4</ele><time>2022-06-12T06:22:49.000Z</time></trkpt><trkpt lon="5.803993" lat="51.086496"><ele>28.4</ele><time>2022-06-12T06:22:50.000Z</time></trkpt><trkpt lon="5.804058" lat="51.086435"><ele>28.2</ele><time>2022-06-12T06:22:51.000Z</time></trkpt><trkpt lon="5.804123" lat="51.08637"><ele>28.2</ele><time>2022-06-12T06:22:52.000Z</time></trkpt><trkpt lon="5.804188" lat="51.086309"><ele>28.2</ele><time>2022-06-12T06:22:53.000Z</time></trkpt><trkpt lon="5.804254" lat="51.086249"><ele>28.2</ele><time>2022-06-12T06:22:54.000Z</time></trkpt><trkpt lon="5.80432" lat="51.086187"><ele>28.2</ele><time>2022-06-12T06:22:55.000Z</time></trkpt><trkpt lon="5.804384" lat="51.086127"><ele>28.2</ele><time>2022-06-12T06:22:56.000Z</time></trkpt><trkpt lon="5.804449" lat="51.086065"><ele>28</ele><time>2022-06-12T06:22:57.000Z</time></trkpt><trkpt lon="5.804513" lat="51.086004"><ele>28</ele><time>2022-06-12T06:22:58.000Z</time></trkpt><trkpt lon="5.804577" lat="51.085943"><ele>28</ele><time>2022-06-12T06:22:59.000Z</time></trkpt><trkpt lon="5.804641" lat="51.085882"><ele>28</ele><time>2022-06-12T06:23:00.000Z</time></trkpt><trkpt lon="5.804705" lat="51.085821"><ele>28</ele><time>2022-06-12T06:23:01.000Z</time></trkpt><trkpt lon="5.80477" lat="51.08576"><ele>28</ele><time>2022-06-12T06:23:02.000Z</time></trkpt><trkpt lon="5.804833" lat="51.085703"><ele>28</ele><time>2022-06-12T06:23:03.000Z</time></trkpt><trkpt lon="5.804898" lat="51.085642"><ele>28</ele><time>2022-06-12T06:23:04.000Z</time></trkpt><trkpt lon="5.804963" lat="51.085585"><ele>28.2</ele><time>2022-06-12T06:23:05.000Z</time></trkpt><trkpt lon="5.80503" lat="51.085527"><ele>28.2</ele><time>2022-06-12T06:23:06.000Z</time></trkpt><trkpt lon="5.805098" lat="51.08547"><ele>28.4</ele><time>2022-06-12T06:23:07.000Z</time></trkpt><trkpt lon="5.805165" lat="51.085416"><ele>28.4</ele><time>2022-06-12T06:23:08.000Z</time></trkpt><trkpt lon="5.805235" lat="51.085363"><ele>28.4</ele><time>2022-06-12T06:23:09.000Z</time></trkpt><trkpt lon="5.805307" lat="51.08531"><ele>28.4</ele><time>2022-06-12T06:23:10.000Z</time></trkpt><trkpt lon="5.805383" lat="51.08526"><ele>28.4</ele><time>2022-06-12T06:23:11.000Z</time></trkpt><trkpt lon="5.805457" lat="51.085211"><ele>28.4</ele><time>2022-06-12T06:23:12.000Z</time></trkpt><trkpt lon="5.805531" lat="51.085164"><ele>28.4</ele><time>2022-06-12T06:23:13.000Z</time></trkpt><trkpt lon="5.805606" lat="51.085115"><ele>28.2</ele><time>2022-06-12T06:23:14.000Z</time></trkpt><trkpt lon="5.805681" lat="51.085069"><ele>28.2</ele><time>2022-06-12T06:23:15.000Z</time></trkpt><trkpt lon="5.805758" lat="51.085027"><ele>28.2</ele><time>2022-06-12T06:23:16.000Z</time></trkpt><trkpt lon="5.805834" lat="51.084985"><ele>28.2</ele><time>2022-06-12T06:23:17.000Z</time></trkpt><trkpt lon="5.805913" lat="51.084944"><ele>28.2</ele><time>2022-06-12T06:23:18.000Z</time></trkpt><trkpt lon="5.805995" lat="51.084901"><ele>28.2</ele><time>2022-06-12T06:23:19.000Z</time></trkpt><trkpt lon="5.806073" lat="51.084863"><ele>28.2</ele><time>2022-06-12T06:23:20.000Z</time></trkpt><trkpt lon="5.806151" lat="51.084821"><ele>28.2</ele><time>2022-06-12T06:23:21.000Z</time></trkpt><trkpt lon="5.806234" lat="51.084779"><ele>28.2</ele><time>2022-06-12T06:23:22.000Z</time></trkpt><trkpt lon="5.806318" lat="51.084737"><ele>28.2</ele><time>2022-06-12T06:23:23.000Z</time></trkpt><trkpt lon="5.806406" lat="51.084691"><ele>28.4</ele><time>2022-06-12T06:23:24.000Z</time></trkpt><trkpt lon="5.806496" lat="51.084649"><ele>28.4</ele><time>2022-06-12T06:23:25.000Z</time></trkpt><trkpt lon="5.806589" lat="51.0846"><ele>28.6</ele><time>2022-06-12T06:23:26.000Z</time></trkpt><trkpt lon="5.806679" lat="51.084547"><ele>28.6</ele><time>2022-06-12T06:23:27.000Z</time></trkpt><trkpt lon="5.806763" lat="51.084493"><ele>28.6</ele><time>2022-06-12T06:23:28.000Z</time></trkpt><trkpt lon="5.806844" lat="51.084447"><ele>28.6</ele><time>2022-06-12T06:23:29.000Z</time></trkpt><trkpt lon="5.806923" lat="51.084401"><ele>28.4</ele><time>2022-06-12T06:23:30.000Z</time></trkpt><trkpt lon="5.807007" lat="51.084352"><ele>28.4</ele><time>2022-06-12T06:23:31.000Z</time></trkpt><trkpt lon="5.807084" lat="51.084307"><ele>28.4</ele><time>2022-06-12T06:23:32.000Z</time></trkpt><trkpt lon="5.807162" lat="51.084257"><ele>28.4</ele><time>2022-06-12T06:23:33.000Z</time></trkpt><trkpt lon="5.807237" lat="51.084205"><ele>28.4</ele><time>2022-06-12T06:23:34.000Z</time></trkpt><trkpt lon="5.807308" lat="51.08415"><ele>28.6</ele><time>2022-06-12T06:23:35.000Z</time></trkpt><trkpt lon="5.807376" lat="51.084104"><ele>28.4</ele><time>2022-06-12T06:23:36.000Z</time></trkpt><trkpt lon="5.807457" lat="51.084062"><ele>28.4</ele><time>2022-06-12T06:23:37.000Z</time></trkpt><trkpt lon="5.80755" lat="51.084016"><ele>28.2</ele><time>2022-06-12T06:23:38.000Z</time></trkpt><trkpt lon="5.80765" lat="51.083967"><ele>28.2</ele><time>2022-06-12T06:23:39.000Z</time></trkpt><trkpt lon="5.807744" lat="51.083917"><ele>28</ele><time>2022-06-12T06:23:40.000Z</time></trkpt><trkpt lon="5.807832" lat="51.083872"><ele>28</ele><time>2022-06-12T06:23:41.000Z</time></trkpt><trkpt lon="5.807919" lat="51.083826"><ele>28</ele><time>2022-06-12T06:23:42.000Z</time></trkpt><trkpt lon="5.808008" lat="51.08378"><ele>28</ele><time>2022-06-12T06:23:43.000Z</time></trkpt><trkpt lon="5.808093" lat="51.083737"><ele>28</ele><time>2022-06-12T06:23:44.000Z</time></trkpt><trkpt lon="5.808178" lat="51.083692"><ele>28</ele><time>2022-06-12T06:23:45.000Z</time></trkpt><trkpt lon="5.808263" lat="51.083642"><ele>28</ele><time>2022-06-12T06:23:46.000Z</time></trkpt><trkpt lon="5.808346" lat="51.083596"><ele>28</ele><time>2022-06-12T06:23:47.000Z</time></trkpt><trkpt lon="5.80843" lat="51.083547"><ele>28</ele><time>2022-06-12T06:23:48.000Z</time></trkpt><trkpt lon="5.808515" lat="51.083497"><ele>28</ele><time>2022-06-12T06:23:49.000Z</time></trkpt><trkpt lon="5.808597" lat="51.083447"><ele>28</ele><time>2022-06-12T06:23:50.000Z</time></trkpt><trkpt lon="5.808676" lat="51.083395"><ele>28</ele><time>2022-06-12T06:23:51.000Z</time></trkpt><trkpt lon="5.808753" lat="51.083341"><ele>28</ele><time>2022-06-12T06:23:52.000Z</time></trkpt><trkpt lon="5.808828" lat="51.083293"><ele>28</ele><time>2022-06-12T06:23:53.000Z</time></trkpt><trkpt lon="5.808906" lat="51.083238"><ele>28</ele><time>2022-06-12T06:23:54.000Z</time></trkpt><trkpt lon="5.808979" lat="51.083186"><ele>28</ele><time>2022-06-12T06:23:55.000Z</time></trkpt><trkpt lon="5.80906" lat="51.083131"><ele>28</ele><time>2022-06-12T06:23:56.000Z</time></trkpt><trkpt lon="5.809134" lat="51.083078"><ele>28</ele><time>2022-06-12T06:23:57.000Z</time></trkpt><trkpt lon="5.809209" lat="51.083033"><ele>28</ele><time>2022-06-12T06:23:58.000Z</time></trkpt><trkpt lon="5.809288" lat="51.082982"><ele>28</ele><time>2022-06-12T06:23:59.000Z</time></trkpt><trkpt lon="5.809362" lat="51.08293"><ele>28.2</ele><time>2022-06-12T06:24:00.000Z</time></trkpt><trkpt lon="5.809437" lat="51.08288"><ele>28.2</ele><time>2022-06-12T06:24:01.000Z</time></trkpt><trkpt lon="5.809512" lat="51.08283"><ele>28.2</ele><time>2022-06-12T06:24:02.000Z</time></trkpt><trkpt lon="5.809586" lat="51.082777"><ele>28.2</ele><time>2022-06-12T06:24:03.000Z</time></trkpt><trkpt lon="5.809658" lat="51.08273"><ele>28.2</ele><time>2022-06-12T06:24:04.000Z</time></trkpt><trkpt lon="5.809738" lat="51.082677"><ele>28.2</ele><time>2022-06-12T06:24:05.000Z</time></trkpt><trkpt lon="5.809816" lat="51.082631"><ele>28.2</ele><time>2022-06-12T06:24:06.000Z</time></trkpt><trkpt lon="5.809894" lat="51.082582"><ele>28.4</ele><time>2022-06-12T06:24:07.000Z</time></trkpt><trkpt lon="5.809974" lat="51.082536"><ele>28.4</ele><time>2022-06-12T06:24:08.000Z</time></trkpt><trkpt lon="5.810058" lat="51.082494"><ele>28.4</ele><time>2022-06-12T06:24:09.000Z</time></trkpt><trkpt lon="5.810142" lat="51.082452"><ele>28.4</ele><time>2022-06-12T06:24:10.000Z</time></trkpt><trkpt lon="5.810227" lat="51.08241"><ele>28.4</ele><time>2022-06-12T06:24:11.000Z</time></trkpt><trkpt lon="5.810314" lat="51.082372"><ele>28.4</ele><time>2022-06-12T06:24:12.000Z</time></trkpt><trkpt lon="5.810405" lat="51.082334"><ele>28.4</ele><time>2022-06-12T06:24:13.000Z</time></trkpt><trkpt lon="5.8105" lat="51.0823"><ele>28.4</ele><time>2022-06-12T06:24:14.000Z</time></trkpt><trkpt lon="5.810597" lat="51.082265"><ele>28.4</ele><time>2022-06-12T06:24:15.000Z</time></trkpt><trkpt lon="5.810692" lat="51.082231"><ele>28.4</ele><time>2022-06-12T06:24:16.000Z</time></trkpt><trkpt lon="5.810785" lat="51.0822"><ele>28.4</ele><time>2022-06-12T06:24:17.000Z</time></trkpt><trkpt lon="5.810878" lat="51.082166"><ele>28.2</ele><time>2022-06-12T06:24:18.000Z</time></trkpt><trkpt lon="5.810972" lat="51.082139"><ele>28.2</ele><time>2022-06-12T06:24:19.000Z</time></trkpt><trkpt lon="5.811067" lat="51.082105"><ele>28.2</ele><time>2022-06-12T06:24:20.000Z</time></trkpt><trkpt lon="5.811161" lat="51.082074"><ele>28.2</ele><time>2022-06-12T06:24:21.000Z</time></trkpt><trkpt lon="5.811257" lat="51.082048"><ele>28.2</ele><time>2022-06-12T06:24:22.000Z</time></trkpt><trkpt lon="5.811353" lat="51.082021"><ele>28.2</ele><time>2022-06-12T06:24:23.000Z</time></trkpt><trkpt lon="5.811444" lat="51.081994"><ele>28.2</ele><time>2022-06-12T06:24:24.000Z</time></trkpt><trkpt lon="5.811535" lat="51.081968"><ele>28.2</ele><time>2022-06-12T06:24:25.000Z</time></trkpt><trkpt lon="5.811633" lat="51.081933"><ele>28.2</ele><time>2022-06-12T06:24:26.000Z</time></trkpt><trkpt lon="5.81173" lat="51.081906"><ele>28.2</ele><time>2022-06-12T06:24:27.000Z</time></trkpt><trkpt lon="5.811821" lat="51.081884"><ele>28.2</ele><time>2022-06-12T06:24:28.000Z</time></trkpt><trkpt lon="5.811919" lat="51.081864"><ele>28.2</ele><time>2022-06-12T06:24:29.000Z</time></trkpt><trkpt lon="5.812014" lat="51.081845"><ele>28.2</ele><time>2022-06-12T06:24:30.000Z</time></trkpt><trkpt lon="5.812105" lat="51.081826"><ele>28.2</ele><time>2022-06-12T06:24:31.000Z</time></trkpt><trkpt lon="5.812192" lat="51.081811"><ele>28.2</ele><time>2022-06-12T06:24:32.000Z</time></trkpt><trkpt lon="5.81227" lat="51.081792"><ele>28.2</ele><time>2022-06-12T06:24:33.000Z</time></trkpt><trkpt lon="5.812345" lat="51.081776"><ele>28.4</ele><time>2022-06-12T06:24:34.000Z</time></trkpt><trkpt lon="5.812407" lat="51.081757"><ele>28.4</ele><time>2022-06-12T06:24:35.000Z</time></trkpt><trkpt lon="5.812446" lat="51.081738"><ele>28.6</ele><time>2022-06-12T06:24:36.000Z</time></trkpt><trkpt lon="5.812442" lat="51.081708"><ele>28.6</ele><time>2022-06-12T06:24:37.000Z</time></trkpt><trkpt lon="5.812429" lat="51.081677"><ele>28.6</ele><time>2022-06-12T06:24:38.000Z</time></trkpt><trkpt lon="5.81243" lat="51.081647"><ele>28.6</ele><time>2022-06-12T06:24:39.000Z</time></trkpt><trkpt lon="5.812456" lat="51.081624"><ele>28.8</ele><time>2022-06-12T06:24:40.000Z</time></trkpt><trkpt lon="5.8125" lat="51.081605"><ele>28.8</ele><time>2022-06-12T06:24:41.000Z</time></trkpt><trkpt lon="5.812555" lat="51.081586"><ele>28.8</ele><time>2022-06-12T06:24:42.000Z</time></trkpt><trkpt lon="5.81261" lat="51.081566"><ele>28.8</ele><time>2022-06-12T06:24:43.000Z</time></trkpt><trkpt lon="5.81267" lat="51.081547"><ele>28.8</ele><time>2022-06-12T06:24:44.000Z</time></trkpt><trkpt lon="5.812734" lat="51.081554"><ele>28.8</ele><time>2022-06-12T06:24:45.000Z</time></trkpt><trkpt lon="5.812804" lat="51.08158"><ele>28.8</ele><time>2022-06-12T06:24:46.000Z</time></trkpt><trkpt lon="5.812883" lat="51.081603"><ele>28.8</ele><time>2022-06-12T06:24:47.000Z</time></trkpt><trkpt lon="5.812969" lat="51.081622"><ele>28.8</ele><time>2022-06-12T06:24:48.000Z</time></trkpt><trkpt lon="5.813053" lat="51.081627"><ele>28.6</ele><time>2022-06-12T06:24:49.000Z</time></trkpt><trkpt lon="5.813139" lat="51.081627"><ele>28.6</ele><time>2022-06-12T06:24:50.000Z</time></trkpt><trkpt lon="5.813225" lat="51.081616"><ele>28.6</ele><time>2022-06-12T06:24:51.000Z</time></trkpt><trkpt lon="5.813314" lat="51.081593"><ele>28.4</ele><time>2022-06-12T06:24:52.000Z</time></trkpt><trkpt lon="5.813402" lat="51.08157"><ele>28.4</ele><time>2022-06-12T06:24:53.000Z</time></trkpt><trkpt lon="5.813494" lat="51.081547"><ele>28.4</ele><time>2022-06-12T06:24:54.000Z</time></trkpt><trkpt lon="5.813583" lat="51.081525"><ele>28.2</ele><time>2022-06-12T06:24:55.000Z</time></trkpt><trkpt lon="5.813679" lat="51.081505"><ele>28.2</ele><time>2022-06-12T06:24:56.000Z</time></trkpt><trkpt lon="5.813772" lat="51.081479"><ele>28.2</ele><time>2022-06-12T06:24:57.000Z</time></trkpt><trkpt lon="5.813863" lat="51.081453"><ele>28.2</ele><time>2022-06-12T06:24:58.000Z</time></trkpt><trkpt lon="5.813962" lat="51.081429"><ele>28.2</ele><time>2022-06-12T06:24:59.000Z</time></trkpt><trkpt lon="5.814062" lat="51.081406"><ele>28.4</ele><time>2022-06-12T06:25:00.000Z</time></trkpt><trkpt lon="5.81416" lat="51.08138"><ele>28.4</ele><time>2022-06-12T06:25:01.000Z</time></trkpt><trkpt lon="5.814258" lat="51.081357"><ele>28.4</ele><time>2022-06-12T06:25:02.000Z</time></trkpt><trkpt lon="5.814361" lat="51.08133"><ele>28.4</ele><time>2022-06-12T06:25:03.000Z</time></trkpt><trkpt lon="5.814466" lat="51.081304"><ele>28.2</ele><time>2022-06-12T06:25:04.000Z</time></trkpt><trkpt lon="5.814569" lat="51.081281"><ele>28.2</ele><time>2022-06-12T06:25:05.000Z</time></trkpt><trkpt lon="5.814674" lat="51.081257"><ele>28</ele><time>2022-06-12T06:25:06.000Z</time></trkpt><trkpt lon="5.814778" lat="51.081231"><ele>28</ele><time>2022-06-12T06:25:07.000Z</time></trkpt><trkpt lon="5.814885" lat="51.081212"><ele>28</ele><time>2022-06-12T06:25:08.000Z</time></trkpt><trkpt lon="5.814992" lat="51.081192"><ele>28</ele><time>2022-06-12T06:25:09.000Z</time></trkpt><trkpt lon="5.815101" lat="51.081177"><ele>28</ele><time>2022-06-12T06:25:10.000Z</time></trkpt><trkpt lon="5.81521" lat="51.081162"><ele>28</ele><time>2022-06-12T06:25:11.000Z</time></trkpt><trkpt lon="5.815315" lat="51.081144"><ele>28</ele><time>2022-06-12T06:25:12.000Z</time></trkpt><trkpt lon="5.815427" lat="51.081128"><ele>28</ele><time>2022-06-12T06:25:13.000Z</time></trkpt><trkpt lon="5.815537" lat="51.081112"><ele>28</ele><time>2022-06-12T06:25:14.000Z</time></trkpt><trkpt lon="5.815648" lat="51.081097"><ele>28</ele><time>2022-06-12T06:25:15.000Z</time></trkpt><trkpt lon="5.815758" lat="51.081078"><ele>28.2</ele><time>2022-06-12T06:25:16.000Z</time></trkpt><trkpt lon="5.815868" lat="51.081059"><ele>28.2</ele><time>2022-06-12T06:25:17.000Z</time></trkpt><trkpt lon="5.81597" lat="51.081041"><ele>28.2</ele><time>2022-06-12T06:25:18.000Z</time></trkpt><trkpt lon="5.816085" lat="51.081025"><ele>28.2</ele><time>2022-06-12T06:25:19.000Z</time></trkpt><trkpt lon="5.816195" lat="51.081006"><ele>28.2</ele><time>2022-06-12T06:25:20.000Z</time></trkpt><trkpt lon="5.816302" lat="51.08099"><ele>28.4</ele><time>2022-06-12T06:25:21.000Z</time></trkpt><trkpt lon="5.816412" lat="51.080975"><ele>28.4</ele><time>2022-06-12T06:25:22.000Z</time></trkpt><trkpt lon="5.81652" lat="51.080963"><ele>28.4</ele><time>2022-06-12T06:25:23.000Z</time></trkpt><trkpt lon="5.816627" lat="51.080952"><ele>28.2</ele><time>2022-06-12T06:25:24.000Z</time></trkpt><trkpt lon="5.816734" lat="51.080944"><ele>28.4</ele><time>2022-06-12T06:25:25.000Z</time></trkpt><trkpt lon="5.816843" lat="51.080933"><ele>28.4</ele><time>2022-06-12T06:25:26.000Z</time></trkpt><trkpt lon="5.816948" lat="51.080922"><ele>28.4</ele><time>2022-06-12T06:25:27.000Z</time></trkpt><trkpt lon="5.817054" lat="51.08091"><ele>28.4</ele><time>2022-06-12T06:25:28.000Z</time></trkpt><trkpt lon="5.817162" lat="51.080902"><ele>28.4</ele><time>2022-06-12T06:25:29.000Z</time></trkpt><trkpt lon="5.817272" lat="51.080895"><ele>28.4</ele><time>2022-06-12T06:25:30.000Z</time></trkpt><trkpt lon="5.81738" lat="51.080887"><ele>28.4</ele><time>2022-06-12T06:25:31.000Z</time></trkpt><trkpt lon="5.817484" lat="51.080876"><ele>28.4</ele><time>2022-06-12T06:25:32.000Z</time></trkpt><trkpt lon="5.817595" lat="51.080872"><ele>28.4</ele><time>2022-06-12T06:25:33.000Z</time></trkpt><trkpt lon="5.817704" lat="51.080872"><ele>28.6</ele><time>2022-06-12T06:25:34.000Z</time></trkpt><trkpt lon="5.817811" lat="51.080868"><ele>28.6</ele><time>2022-06-12T06:25:35.000Z</time></trkpt><trkpt lon="5.817919" lat="51.080868"><ele>28.6</ele><time>2022-06-12T06:25:36.000Z</time></trkpt><trkpt lon="5.818027" lat="51.080864"><ele>28.6</ele><time>2022-06-12T06:25:37.000Z</time></trkpt><trkpt lon="5.818135" lat="51.08086"><ele>28.6</ele><time>2022-06-12T06:25:38.000Z</time></trkpt><trkpt lon="5.818246" lat="51.080853"><ele>28.8</ele><time>2022-06-12T06:25:39.000Z</time></trkpt><trkpt lon="5.818356" lat="51.080845"><ele>28.8</ele><time>2022-06-12T06:25:40.000Z</time></trkpt><trkpt lon="5.818467" lat="51.080841"><ele>28.8</ele><time>2022-06-12T06:25:41.000Z</time></trkpt><trkpt lon="5.818575" lat="51.080834"><ele>28.6</ele><time>2022-06-12T06:25:42.000Z</time></trkpt><trkpt lon="5.818683" lat="51.080826"><ele>28.8</ele><time>2022-06-12T06:25:43.000Z</time></trkpt><trkpt lon="5.818786" lat="51.080822"><ele>28.8</ele><time>2022-06-12T06:25:44.000Z</time></trkpt><trkpt lon="5.818892" lat="51.080818"><ele>29</ele><time>2022-06-12T06:25:45.000Z</time></trkpt><trkpt lon="5.818993" lat="51.080811"><ele>29</ele><time>2022-06-12T06:25:46.000Z</time></trkpt><trkpt lon="5.819097" lat="51.080807"><ele>29.2</ele><time>2022-06-12T06:25:47.000Z</time></trkpt><trkpt lon="5.819193" lat="51.080803"><ele>29.2</ele><time>2022-06-12T06:25:48.000Z</time></trkpt><trkpt lon="5.819302" lat="51.080799"><ele>29.4</ele><time>2022-06-12T06:25:49.000Z</time></trkpt><trkpt lon="5.819403" lat="51.080799"><ele>29.6</ele><time>2022-06-12T06:25:50.000Z</time></trkpt><trkpt lon="5.819502" lat="51.080795"><ele>29.8</ele><time>2022-06-12T06:25:51.000Z</time></trkpt><trkpt lon="5.819602" lat="51.080792"><ele>30</ele><time>2022-06-12T06:25:52.000Z</time></trkpt><trkpt lon="5.819695" lat="51.080791"><ele>30.2</ele><time>2022-06-12T06:25:53.000Z</time></trkpt><trkpt lon="5.819796" lat="51.080791"><ele>30.4</ele><time>2022-06-12T06:25:54.000Z</time></trkpt><trkpt lon="5.819891" lat="51.080788"><ele>30.6</ele><time>2022-06-12T06:25:55.000Z</time></trkpt><trkpt lon="5.819986" lat="51.080788"><ele>30.8</ele><time>2022-06-12T06:25:56.000Z</time></trkpt><trkpt lon="5.820086" lat="51.080784"><ele>31</ele><time>2022-06-12T06:25:57.000Z</time></trkpt><trkpt lon="5.820179" lat="51.08078"><ele>31.4</ele><time>2022-06-12T06:25:58.000Z</time></trkpt><trkpt lon="5.820275" lat="51.080776"><ele>31.6</ele><time>2022-06-12T06:25:59.000Z</time></trkpt><trkpt lon="5.820369" lat="51.080773"><ele>31.8</ele><time>2022-06-12T06:26:00.000Z</time></trkpt><trkpt lon="5.820463" lat="51.080769"><ele>32.2</ele><time>2022-06-12T06:26:01.000Z</time></trkpt><trkpt lon="5.82056" lat="51.080761"><ele>32.4</ele><time>2022-06-12T06:26:02.000Z</time></trkpt><trkpt lon="5.820655" lat="51.080753"><ele>32.6</ele><time>2022-06-12T06:26:03.000Z</time></trkpt><trkpt lon="5.820746" lat="51.080746"><ele>32.8</ele><time>2022-06-12T06:26:04.000Z</time></trkpt><trkpt lon="5.820843" lat="51.080735"><ele>33</ele><time>2022-06-12T06:26:05.000Z</time></trkpt><trkpt lon="5.820936" lat="51.080723"><ele>33.2</ele><time>2022-06-12T06:26:06.000Z</time></trkpt><trkpt lon="5.821026" lat="51.080712"><ele>33.6</ele><time>2022-06-12T06:26:07.000Z</time></trkpt><trkpt lon="5.821117" lat="51.0807"><ele>33.8</ele><time>2022-06-12T06:26:08.000Z</time></trkpt><trkpt lon="5.821211" lat="51.080681"><ele>34</ele><time>2022-06-12T06:26:09.000Z</time></trkpt><trkpt lon="5.821303" lat="51.080666"><ele>34.4</ele><time>2022-06-12T06:26:10.000Z</time></trkpt><trkpt lon="5.821392" lat="51.080647"><ele>34.6</ele><time>2022-06-12T06:26:11.000Z</time></trkpt><trkpt lon="5.821483" lat="51.080632"><ele>34.8</ele><time>2022-06-12T06:26:12.000Z</time></trkpt><trkpt lon="5.821579" lat="51.080613"><ele>35</ele><time>2022-06-12T06:26:13.000Z</time></trkpt><trkpt lon="5.821669" lat="51.080594"><ele>35.4</ele><time>2022-06-12T06:26:14.000Z</time></trkpt><trkpt lon="5.821762" lat="51.080578"><ele>35.6</ele><time>2022-06-12T06:26:15.000Z</time></trkpt><trkpt lon="5.821854" lat="51.080559"><ele>36</ele><time>2022-06-12T06:26:16.000Z</time></trkpt><trkpt lon="5.821944" lat="51.08054"><ele>36.2</ele><time>2022-06-12T06:26:17.000Z</time></trkpt><trkpt lon="5.822034" lat="51.080517"><ele>36.4</ele><time>2022-06-12T06:26:18.000Z</time></trkpt><trkpt lon="5.822121" lat="51.080495"><ele>36.6</ele><time>2022-06-12T06:26:19.000Z</time></trkpt><trkpt lon="5.822208" lat="51.080475"><ele>36.8</ele><time>2022-06-12T06:26:20.000Z</time></trkpt><trkpt lon="5.822295" lat="51.080449"><ele>37.2</ele><time>2022-06-12T06:26:21.000Z</time></trkpt><trkpt lon="5.822378" lat="51.080426"><ele>37.4</ele><time>2022-06-12T06:26:22.000Z</time></trkpt><trkpt lon="5.822465" lat="51.080403"><ele>37.6</ele><time>2022-06-12T06:26:23.000Z</time></trkpt><trkpt lon="5.822554" lat="51.080377"><ele>37.8</ele><time>2022-06-12T06:26:24.000Z</time></trkpt><trkpt lon="5.82264" lat="51.08035"><ele>38.2</ele><time>2022-06-12T06:26:25.000Z</time></trkpt><trkpt lon="5.822727" lat="51.080327"><ele>38.4</ele><time>2022-06-12T06:26:26.000Z</time></trkpt><trkpt lon="5.822812" lat="51.080297"><ele>38.6</ele><time>2022-06-12T06:26:27.000Z</time></trkpt><trkpt lon="5.8229" lat="51.080269"><ele>38.8</ele><time>2022-06-12T06:26:28.000Z</time></trkpt><trkpt lon="5.822985" lat="51.080239"><ele>39</ele><time>2022-06-12T06:26:29.000Z</time></trkpt><trkpt lon="5.823066" lat="51.080212"><ele>39.4</ele><time>2022-06-12T06:26:30.000Z</time></trkpt><trkpt lon="5.823151" lat="51.080186"><ele>39.6</ele><time>2022-06-12T06:26:31.000Z</time></trkpt><trkpt lon="5.823237" lat="51.080155"><ele>40</ele><time>2022-06-12T06:26:32.000Z</time></trkpt><trkpt lon="5.823323" lat="51.080125"><ele>40.2</ele><time>2022-06-12T06:26:33.000Z</time></trkpt><trkpt lon="5.823409" lat="51.080094"><ele>40.4</ele><time>2022-06-12T06:26:34.000Z</time></trkpt><trkpt lon="5.823496" lat="51.080067"><ele>40.6</ele><time>2022-06-12T06:26:35.000Z</time></trkpt><trkpt lon="5.823581" lat="51.080037"><ele>40.8</ele><time>2022-06-12T06:26:36.000Z</time></trkpt><trkpt lon="5.823664" lat="51.080007"><ele>41</ele><time>2022-06-12T06:26:37.000Z</time></trkpt><trkpt lon="5.823744" lat="51.079976"><ele>41.4</ele><time>2022-06-12T06:26:38.000Z</time></trkpt><trkpt lon="5.823829" lat="51.079945"><ele>41.6</ele><time>2022-06-12T06:26:39.000Z</time></trkpt><trkpt lon="5.823914" lat="51.079915"><ele>41.6</ele><time>2022-06-12T06:26:40.000Z</time></trkpt><trkpt lon="5.823999" lat="51.079885"><ele>41.8</ele><time>2022-06-12T06:26:41.000Z</time></trkpt><trkpt lon="5.824084" lat="51.079858"><ele>42</ele><time>2022-06-12T06:26:42.000Z</time></trkpt><trkpt lon="5.82417" lat="51.079831"><ele>42.2</ele><time>2022-06-12T06:26:43.000Z</time></trkpt><trkpt lon="5.824257" lat="51.0798"><ele>42.4</ele><time>2022-06-12T06:26:44.000Z</time></trkpt><trkpt lon="5.824341" lat="51.079774"><ele>42.6</ele><time>2022-06-12T06:26:45.000Z</time></trkpt><trkpt lon="5.824427" lat="51.079747"><ele>42.8</ele><time>2022-06-12T06:26:46.000Z</time></trkpt><trkpt lon="5.824512" lat="51.079717"><ele>42.8</ele><time>2022-06-12T06:26:47.000Z</time></trkpt><trkpt lon="5.824596" lat="51.07969"><ele>43</ele><time>2022-06-12T06:26:48.000Z</time></trkpt><trkpt lon="5.824683" lat="51.079663"><ele>43.2</ele><time>2022-06-12T06:26:49.000Z</time></trkpt><trkpt lon="5.824767" lat="51.079633"><ele>43.4</ele><time>2022-06-12T06:26:50.000Z</time></trkpt><trkpt lon="5.824849" lat="51.079606"><ele>43.4</ele><time>2022-06-12T06:26:51.000Z</time></trkpt><trkpt lon="5.824932" lat="51.079576"><ele>43.6</ele><time>2022-06-12T06:26:52.000Z</time></trkpt><trkpt lon="5.825017" lat="51.079545"><ele>43.6</ele><time>2022-06-12T06:26:53.000Z</time></trkpt><trkpt lon="5.825102" lat="51.079514"><ele>43.8</ele><time>2022-06-12T06:26:54.000Z</time></trkpt><trkpt lon="5.825187" lat="51.079484"><ele>43.8</ele><time>2022-06-12T06:26:55.000Z</time></trkpt><trkpt lon="5.82527" lat="51.079454"><ele>43.8</ele><time>2022-06-12T06:26:56.000Z</time></trkpt><trkpt lon="5.825357" lat="51.079423"><ele>43.8</ele><time>2022-06-12T06:26:57.000Z</time></trkpt><trkpt lon="5.825434" lat="51.079396"><ele>43.8</ele><time>2022-06-12T06:26:58.000Z</time></trkpt><trkpt lon="5.825532" lat="51.079362"><ele>43.8</ele><time>2022-06-12T06:26:59.000Z</time></trkpt><trkpt lon="5.825622" lat="51.079331"><ele>43.8</ele><time>2022-06-12T06:27:00.000Z</time></trkpt><trkpt lon="5.825713" lat="51.0793"><ele>43.6</ele><time>2022-06-12T06:27:01.000Z</time></trkpt><trkpt lon="5.8258" lat="51.079267"><ele>43.6</ele><time>2022-06-12T06:27:02.000Z</time></trkpt><trkpt lon="5.825887" lat="51.079237"><ele>43.4</ele><time>2022-06-12T06:27:03.000Z</time></trkpt><trkpt lon="5.825984" lat="51.079202"><ele>43.4</ele><time>2022-06-12T06:27:04.000Z</time></trkpt><trkpt lon="5.826076" lat="51.079171"><ele>43.4</ele><time>2022-06-12T06:27:05.000Z</time></trkpt><trkpt lon="5.826161" lat="51.079139"><ele>43.4</ele><time>2022-06-12T06:27:06.000Z</time></trkpt><trkpt lon="5.826256" lat="51.079106"><ele>43.4</ele><time>2022-06-12T06:27:07.000Z</time></trkpt><trkpt lon="5.826342" lat="51.07908"><ele>43.4</ele><time>2022-06-12T06:27:08.000Z</time></trkpt><trkpt lon="5.826437" lat="51.079049"><ele>43.4</ele><time>2022-06-12T06:27:09.000Z</time></trkpt><trkpt lon="5.82653" lat="51.079015"><ele>43.4</ele><time>2022-06-12T06:27:10.000Z</time></trkpt><trkpt lon="5.826624" lat="51.078984"><ele>43.4</ele><time>2022-06-12T06:27:11.000Z</time></trkpt><trkpt lon="5.826719" lat="51.078954"><ele>43.4</ele><time>2022-06-12T06:27:12.000Z</time></trkpt><trkpt lon="5.826816" lat="51.078919"><ele>43.2</ele><time>2022-06-12T06:27:13.000Z</time></trkpt><trkpt lon="5.826914" lat="51.078893"><ele>43</ele><time>2022-06-12T06:27:14.000Z</time></trkpt><trkpt lon="5.827012" lat="51.078859"><ele>43</ele><time>2022-06-12T06:27:15.000Z</time></trkpt><trkpt lon="5.827113" lat="51.078828"><ele>42.8</ele><time>2022-06-12T06:27:16.000Z</time></trkpt><trkpt lon="5.827218" lat="51.078794"><ele>42.6</ele><time>2022-06-12T06:27:17.000Z</time></trkpt><trkpt lon="5.827324" lat="51.078764"><ele>42.4</ele><time>2022-06-12T06:27:18.000Z</time></trkpt><trkpt lon="5.827437" lat="51.078729"><ele>42.2</ele><time>2022-06-12T06:27:19.000Z</time></trkpt><trkpt lon="5.827549" lat="51.078694"><ele>42</ele><time>2022-06-12T06:27:20.000Z</time></trkpt><trkpt lon="5.827662" lat="51.07866"><ele>42</ele><time>2022-06-12T06:27:21.000Z</time></trkpt><trkpt lon="5.827778" lat="51.078626"><ele>41.8</ele><time>2022-06-12T06:27:22.000Z</time></trkpt><trkpt lon="5.827898" lat="51.078592"><ele>41.4</ele><time>2022-06-12T06:27:23.000Z</time></trkpt><trkpt lon="5.828018" lat="51.078557"><ele>41.2</ele><time>2022-06-12T06:27:24.000Z</time></trkpt><trkpt lon="5.828145" lat="51.078526"><ele>41</ele><time>2022-06-12T06:27:25.000Z</time></trkpt><trkpt lon="5.828274" lat="51.078499"><ele>40.6</ele><time>2022-06-12T06:27:26.000Z</time></trkpt><trkpt lon="5.828395" lat="51.078475"><ele>40.2</ele><time>2022-06-12T06:27:27.000Z</time></trkpt><trkpt lon="5.828536" lat="51.07845"><ele>40</ele><time>2022-06-12T06:27:28.000Z</time></trkpt><trkpt lon="5.828662" lat="51.078428"><ele>39.6</ele><time>2022-06-12T06:27:29.000Z</time></trkpt><trkpt lon="5.828795" lat="51.078401"><ele>39</ele><time>2022-06-12T06:27:30.000Z</time></trkpt><trkpt lon="5.828929" lat="51.078374"><ele>38.6</ele><time>2022-06-12T06:27:31.000Z</time></trkpt><trkpt lon="5.829063" lat="51.078351"><ele>38</ele><time>2022-06-12T06:27:32.000Z</time></trkpt><trkpt lon="5.829196" lat="51.078324"><ele>37.8</ele><time>2022-06-12T06:27:33.000Z</time></trkpt><trkpt lon="5.829331" lat="51.078305"><ele>37.4</ele><time>2022-06-12T06:27:34.000Z</time></trkpt><trkpt lon="5.829467" lat="51.07829"><ele>37</ele><time>2022-06-12T06:27:35.000Z</time></trkpt><trkpt lon="5.829604" lat="51.078278"><ele>37</ele><time>2022-06-12T06:27:36.000Z</time></trkpt><trkpt lon="5.829743" lat="51.078266"><ele>36.8</ele><time>2022-06-12T06:27:37.000Z</time></trkpt><trkpt lon="5.829869" lat="51.078256"><ele>36.4</ele><time>2022-06-12T06:27:38.000Z</time></trkpt><trkpt lon="5.830012" lat="51.078244"><ele>36</ele><time>2022-06-12T06:27:39.000Z</time></trkpt><trkpt lon="5.830143" lat="51.07824"><ele>35.8</ele><time>2022-06-12T06:27:40.000Z</time></trkpt><trkpt lon="5.83027" lat="51.078236"><ele>35.6</ele><time>2022-06-12T06:27:41.000Z</time></trkpt><trkpt lon="5.830393" lat="51.078232"><ele>35.4</ele><time>2022-06-12T06:27:42.000Z</time></trkpt><trkpt lon="5.830512" lat="51.078232"><ele>35.2</ele><time>2022-06-12T06:27:43.000Z</time></trkpt><trkpt lon="5.830628" lat="51.078232"><ele>35</ele><time>2022-06-12T06:27:44.000Z</time></trkpt><trkpt lon="5.830736" lat="51.078235"><ele>34.8</ele><time>2022-06-12T06:27:45.000Z</time></trkpt><trkpt lon="5.830833" lat="51.078236"><ele>34.8</ele><time>2022-06-12T06:27:46.000Z</time></trkpt><trkpt lon="5.830925" lat="51.078236"><ele>34.6</ele><time>2022-06-12T06:27:47.000Z</time></trkpt><trkpt lon="5.831001" lat="51.078239"><ele>34.4</ele><time>2022-06-12T06:27:48.000Z</time></trkpt><trkpt lon="5.831073" lat="51.078239"><ele>34.2</ele><time>2022-06-12T06:27:49.000Z</time></trkpt><trkpt lon="5.831133" lat="51.078243"><ele>34.2</ele><time>2022-06-12T06:27:50.000Z</time></trkpt><trkpt lon="5.831185" lat="51.078243"><ele>34</ele><time>2022-06-12T06:27:51.000Z</time></trkpt><trkpt lon="5.831221" lat="51.078243"><ele>34</ele><time>2022-06-12T06:27:52.000Z</time></trkpt><trkpt lon="5.831281" lat="51.07824"><ele>33.6</ele><time>2022-06-12T06:28:04.000Z</time></trkpt><trkpt lon="5.831318" lat="51.078236"><ele>33.6</ele><time>2022-06-12T06:28:05.000Z</time></trkpt><trkpt lon="5.831377" lat="51.078236"><ele>33.6</ele><time>2022-06-12T06:28:06.000Z</time></trkpt><trkpt lon="5.831439" lat="51.078239"><ele>33.4</ele><time>2022-06-12T06:28:07.000Z</time></trkpt><trkpt lon="5.831509" lat="51.078239"><ele>33.4</ele><time>2022-06-12T06:28:08.000Z</time></trkpt><trkpt lon="5.831588" lat="51.078243"><ele>33.2</ele><time>2022-06-12T06:28:09.000Z</time></trkpt><trkpt lon="5.831671" lat="51.078258"><ele>33.2</ele><time>2022-06-12T06:28:10.000Z</time></trkpt><trkpt lon="5.831763" lat="51.078273"><ele>33</ele><time>2022-06-12T06:28:11.000Z</time></trkpt><trkpt lon="5.831865" lat="51.078285"><ele>32.8</ele><time>2022-06-12T06:28:12.000Z</time></trkpt><trkpt lon="5.831975" lat="51.078289"><ele>32.6</ele><time>2022-06-12T06:28:13.000Z</time></trkpt><trkpt lon="5.832092" lat="51.078293"><ele>32.4</ele><time>2022-06-12T06:28:14.000Z</time></trkpt><trkpt lon="5.83221" lat="51.078293"><ele>32</ele><time>2022-06-12T06:28:15.000Z</time></trkpt><trkpt lon="5.832327" lat="51.078289"><ele>31.6</ele><time>2022-06-12T06:28:16.000Z</time></trkpt><trkpt lon="5.832446" lat="51.078289"><ele>31.4</ele><time>2022-06-12T06:28:17.000Z</time></trkpt><trkpt lon="5.832563" lat="51.078289"><ele>31.2</ele><time>2022-06-12T06:28:18.000Z</time></trkpt><trkpt lon="5.832691" lat="51.078289"><ele>31</ele><time>2022-06-12T06:28:19.000Z</time></trkpt><trkpt lon="5.832814" lat="51.078289"><ele>30.8</ele><time>2022-06-12T06:28:20.000Z</time></trkpt><trkpt lon="5.832934" lat="51.078293"><ele>30.8</ele><time>2022-06-12T06:28:21.000Z</time></trkpt><trkpt lon="5.833063" lat="51.078297"><ele>30.6</ele><time>2022-06-12T06:28:22.000Z</time></trkpt><trkpt lon="5.83319" lat="51.078304"><ele>30.2</ele><time>2022-06-12T06:28:23.000Z</time></trkpt><trkpt lon="5.833316" lat="51.078308"><ele>30</ele><time>2022-06-12T06:28:24.000Z</time></trkpt><trkpt lon="5.833446" lat="51.078308"><ele>29.6</ele><time>2022-06-12T06:28:25.000Z</time></trkpt><trkpt lon="5.833576" lat="51.078312"><ele>29.4</ele><time>2022-06-12T06:28:26.000Z</time></trkpt><trkpt lon="5.833707" lat="51.078312"><ele>29.2</ele><time>2022-06-12T06:28:27.000Z</time></trkpt><trkpt lon="5.833831" lat="51.078312"><ele>29.2</ele><time>2022-06-12T06:28:28.000Z</time></trkpt><trkpt lon="5.833955" lat="51.078312"><ele>29.2</ele><time>2022-06-12T06:28:29.000Z</time></trkpt><trkpt lon="5.834077" lat="51.078308"><ele>29</ele><time>2022-06-12T06:28:30.000Z</time></trkpt><trkpt lon="5.834196" lat="51.078297"><ele>29</ele><time>2022-06-12T06:28:31.000Z</time></trkpt><trkpt lon="5.834314" lat="51.078286"><ele>29</ele><time>2022-06-12T06:28:32.000Z</time></trkpt><trkpt lon="5.834428" lat="51.078274"><ele>29</ele><time>2022-06-12T06:28:33.000Z</time></trkpt><trkpt lon="5.834543" lat="51.078259"><ele>29</ele><time>2022-06-12T06:28:34.000Z</time></trkpt><trkpt lon="5.834653" lat="51.078244"><ele>29</ele><time>2022-06-12T06:28:35.000Z</time></trkpt><trkpt lon="5.834767" lat="51.078228"><ele>29</ele><time>2022-06-12T06:28:36.000Z</time></trkpt><trkpt lon="5.834875" lat="51.07821"><ele>29</ele><time>2022-06-12T06:28:37.000Z</time></trkpt><trkpt lon="5.834981" lat="51.078191"><ele>29</ele><time>2022-06-12T06:28:38.000Z</time></trkpt><trkpt lon="5.835092" lat="51.078171"><ele>29</ele><time>2022-06-12T06:28:39.000Z</time></trkpt><trkpt lon="5.835199" lat="51.078149"><ele>29</ele><time>2022-06-12T06:28:40.000Z</time></trkpt><trkpt lon="5.835307" lat="51.078129"><ele>29</ele><time>2022-06-12T06:28:41.000Z</time></trkpt><trkpt lon="5.835411" lat="51.078107"><ele>29</ele><time>2022-06-12T06:28:42.000Z</time></trkpt><trkpt lon="5.835517" lat="51.078087"><ele>29</ele><time>2022-06-12T06:28:43.000Z</time></trkpt><trkpt lon="5.83562" lat="51.078065"><ele>29</ele><time>2022-06-12T06:28:44.000Z</time></trkpt><trkpt lon="5.835723" lat="51.078046"><ele>29.2</ele><time>2022-06-12T06:28:45.000Z</time></trkpt><trkpt lon="5.835832" lat="51.078019"><ele>29.4</ele><time>2022-06-12T06:28:46.000Z</time></trkpt><trkpt lon="5.835935" lat="51.078"><ele>29.4</ele><time>2022-06-12T06:28:47.000Z</time></trkpt><trkpt lon="5.836038" lat="51.077981"><ele>29.6</ele><time>2022-06-12T06:28:48.000Z</time></trkpt><trkpt lon="5.836146" lat="51.077958"><ele>29.6</ele><time>2022-06-12T06:28:49.000Z</time></trkpt><trkpt lon="5.83625" lat="51.077939"><ele>29.6</ele><time>2022-06-12T06:28:50.000Z</time></trkpt><trkpt lon="5.836354" lat="51.077916"><ele>29.6</ele><time>2022-06-12T06:28:51.000Z</time></trkpt><trkpt lon="5.836461" lat="51.077893"><ele>29.8</ele><time>2022-06-12T06:28:52.000Z</time></trkpt><trkpt lon="5.836565" lat="51.07787"><ele>29.8</ele><time>2022-06-12T06:28:53.000Z</time></trkpt><trkpt lon="5.836675" lat="51.077851"><ele>29.8</ele><time>2022-06-12T06:28:54.000Z</time></trkpt><trkpt lon="5.836781" lat="51.077828"><ele>29.8</ele><time>2022-06-12T06:28:55.000Z</time></trkpt><trkpt lon="5.836888" lat="51.077805"><ele>29.6</ele><time>2022-06-12T06:28:56.000Z</time></trkpt><trkpt lon="5.836997" lat="51.077783"><ele>29.8</ele><time>2022-06-12T06:28:57.000Z</time></trkpt><trkpt lon="5.837095" lat="51.077762"><ele>29.8</ele><time>2022-06-12T06:28:58.000Z</time></trkpt><trkpt lon="5.837215" lat="51.077737"><ele>29.8</ele><time>2022-06-12T06:28:59.000Z</time></trkpt><trkpt lon="5.837324" lat="51.077714"><ele>29.6</ele><time>2022-06-12T06:29:00.000Z</time></trkpt><trkpt lon="5.837432" lat="51.077691"><ele>29.6</ele><time>2022-06-12T06:29:01.000Z</time></trkpt><trkpt lon="5.83754" lat="51.077668"><ele>29.4</ele><time>2022-06-12T06:29:02.000Z</time></trkpt><trkpt lon="5.837648" lat="51.077645"><ele>29.4</ele><time>2022-06-12T06:29:03.000Z</time></trkpt><trkpt lon="5.837756" lat="51.077622"><ele>29.4</ele><time>2022-06-12T06:29:04.000Z</time></trkpt><trkpt lon="5.83786" lat="51.077596"><ele>29.2</ele><time>2022-06-12T06:29:05.000Z</time></trkpt><trkpt lon="5.837962" lat="51.077569"><ele>29.2</ele><time>2022-06-12T06:29:06.000Z</time></trkpt><trkpt lon="5.838063" lat="51.077542"><ele>29.2</ele><time>2022-06-12T06:29:07.000Z</time></trkpt><trkpt lon="5.838164" lat="51.077508"><ele>29.2</ele><time>2022-06-12T06:29:08.000Z</time></trkpt><trkpt lon="5.838266" lat="51.077478"><ele>29</ele><time>2022-06-12T06:29:09.000Z</time></trkpt><trkpt lon="5.838367" lat="51.077439"><ele>29</ele><time>2022-06-12T06:29:10.000Z</time></trkpt><trkpt lon="5.838464" lat="51.077406"><ele>29</ele><time>2022-06-12T06:29:11.000Z</time></trkpt><trkpt lon="5.838564" lat="51.077367"><ele>29</ele><time>2022-06-12T06:29:12.000Z</time></trkpt><trkpt lon="5.838659" lat="51.077329"><ele>29</ele><time>2022-06-12T06:29:13.000Z</time></trkpt><trkpt lon="5.838753" lat="51.077287"><ele>28.8</ele><time>2022-06-12T06:29:14.000Z</time></trkpt><trkpt lon="5.838845" lat="51.077241"><ele>28.8</ele><time>2022-06-12T06:29:15.000Z</time></trkpt><trkpt lon="5.838932" lat="51.0772"><ele>28.8</ele><time>2022-06-12T06:29:16.000Z</time></trkpt><trkpt lon="5.839019" lat="51.077156"><ele>28.6</ele><time>2022-06-12T06:29:17.000Z</time></trkpt><trkpt lon="5.839106" lat="51.077108"><ele>28.6</ele><time>2022-06-12T06:29:18.000Z</time></trkpt><trkpt lon="5.839189" lat="51.077058"><ele>28.6</ele><time>2022-06-12T06:29:19.000Z</time></trkpt><trkpt lon="5.839269" lat="51.07701"><ele>28.4</ele><time>2022-06-12T06:29:20.000Z</time></trkpt><trkpt lon="5.839352" lat="51.076956"><ele>28.4</ele><time>2022-06-12T06:29:21.000Z</time></trkpt><trkpt lon="5.83943" lat="51.076906"><ele>28.6</ele><time>2022-06-12T06:29:22.000Z</time></trkpt><trkpt lon="5.839504" lat="51.076853"><ele>28.6</ele><time>2022-06-12T06:29:23.000Z</time></trkpt><trkpt lon="5.839576" lat="51.076795"><ele>28.6</ele><time>2022-06-12T06:29:24.000Z</time></trkpt><trkpt lon="5.839646" lat="51.076738"><ele>28.6</ele><time>2022-06-12T06:29:25.000Z</time></trkpt><trkpt lon="5.839712" lat="51.076684"><ele>28.6</ele><time>2022-06-12T06:29:26.000Z</time></trkpt><trkpt lon="5.839777" lat="51.076623"><ele>28.6</ele><time>2022-06-12T06:29:27.000Z</time></trkpt><trkpt lon="5.839841" lat="51.076566"><ele>28.6</ele><time>2022-06-12T06:29:28.000Z</time></trkpt><trkpt lon="5.8399" lat="51.076509"><ele>28.6</ele><time>2022-06-12T06:29:29.000Z</time></trkpt><trkpt lon="5.839955" lat="51.076448"><ele>28.6</ele><time>2022-06-12T06:29:30.000Z</time></trkpt><trkpt lon="5.840008" lat="51.076384"><ele>28.8</ele><time>2022-06-12T06:29:31.000Z</time></trkpt><trkpt lon="5.84006" lat="51.076318"><ele>28.6</ele><time>2022-06-12T06:29:32.000Z</time></trkpt><trkpt lon="5.840112" lat="51.076258"><ele>28.6</ele><time>2022-06-12T06:29:33.000Z</time></trkpt><trkpt lon="5.840157" lat="51.076189"><ele>28.6</ele><time>2022-06-12T06:29:34.000Z</time></trkpt><trkpt lon="5.840199" lat="51.076124"><ele>28.6</ele><time>2022-06-12T06:29:35.000Z</time></trkpt><trkpt lon="5.840242" lat="51.076056"><ele>28.6</ele><time>2022-06-12T06:29:36.000Z</time></trkpt><trkpt lon="5.840287" lat="51.075991"><ele>28.6</ele><time>2022-06-12T06:29:37.000Z</time></trkpt><trkpt lon="5.84033" lat="51.075926"><ele>28.6</ele><time>2022-06-12T06:29:38.000Z</time></trkpt><trkpt lon="5.840372" lat="51.075861"><ele>28.6</ele><time>2022-06-12T06:29:39.000Z</time></trkpt><trkpt lon="5.840418" lat="51.075793"><ele>28.8</ele><time>2022-06-12T06:29:40.000Z</time></trkpt><trkpt lon="5.84046" lat="51.075728"><ele>28.8</ele><time>2022-06-12T06:29:41.000Z</time></trkpt><trkpt lon="5.840502" lat="51.075659"><ele>28.8</ele><time>2022-06-12T06:29:42.000Z</time></trkpt><trkpt lon="5.840545" lat="51.075591"><ele>28.6</ele><time>2022-06-12T06:29:43.000Z</time></trkpt><trkpt lon="5.840588" lat="51.075526"><ele>28.6</ele><time>2022-06-12T06:29:44.000Z</time></trkpt><trkpt lon="5.840632" lat="51.07546"><ele>28.6</ele><time>2022-06-12T06:29:45.000Z</time></trkpt><trkpt lon="5.840673" lat="51.075396"><ele>28.6</ele><time>2022-06-12T06:29:46.000Z</time></trkpt><trkpt lon="5.840715" lat="51.075332"><ele>28.6</ele><time>2022-06-12T06:29:47.000Z</time></trkpt><trkpt lon="5.840756" lat="51.075266"><ele>28.8</ele><time>2022-06-12T06:29:48.000Z</time></trkpt><trkpt lon="5.840797" lat="51.075201"><ele>28.8</ele><time>2022-06-12T06:29:49.000Z</time></trkpt><trkpt lon="5.840839" lat="51.075136"><ele>28.6</ele><time>2022-06-12T06:29:50.000Z</time></trkpt><trkpt lon="5.840878" lat="51.075075"><ele>28.6</ele><time>2022-06-12T06:29:51.000Z</time></trkpt><trkpt lon="5.840919" lat="51.07501"><ele>28.6</ele><time>2022-06-12T06:29:52.000Z</time></trkpt><trkpt lon="5.840961" lat="51.074954"><ele>28.6</ele><time>2022-06-12T06:29:53.000Z</time></trkpt><trkpt lon="5.841002" lat="51.074896"><ele>28.6</ele><time>2022-06-12T06:29:54.000Z</time></trkpt><trkpt lon="5.841039" lat="51.074838"><ele>28.6</ele><time>2022-06-12T06:29:55.000Z</time></trkpt><trkpt lon="5.841074" lat="51.074777"><ele>28.6</ele><time>2022-06-12T06:29:56.000Z</time></trkpt><trkpt lon="5.841112" lat="51.074716"><ele>28.6</ele><time>2022-06-12T06:29:57.000Z</time></trkpt><trkpt lon="5.84114" lat="51.074672"><ele>28.6</ele><time>2022-06-12T06:29:58.000Z</time></trkpt><trkpt lon="5.841197" lat="51.074595"><ele>28.6</ele><time>2022-06-12T06:29:59.000Z</time></trkpt><trkpt lon="5.841245" lat="51.07453"><ele>28.6</ele><time>2022-06-12T06:30:00.000Z</time></trkpt><trkpt lon="5.841292" lat="51.074469"><ele>28.8</ele><time>2022-06-12T06:30:01.000Z</time></trkpt><trkpt lon="5.841339" lat="51.074408"><ele>28.8</ele><time>2022-06-12T06:30:02.000Z</time></trkpt><trkpt lon="5.841389" lat="51.074343"><ele>28.8</ele><time>2022-06-12T06:30:03.000Z</time></trkpt><trkpt lon="5.84144" lat="51.074278"><ele>28.8</ele><time>2022-06-12T06:30:04.000Z</time></trkpt><trkpt lon="5.84149" lat="51.074217"><ele>28.8</ele><time>2022-06-12T06:30:05.000Z</time></trkpt><trkpt lon="5.841538" lat="51.074156"><ele>28.8</ele><time>2022-06-12T06:30:06.000Z</time></trkpt><trkpt lon="5.841584" lat="51.074103"><ele>29</ele><time>2022-06-12T06:30:07.000Z</time></trkpt><trkpt lon="5.84164" lat="51.074041"><ele>29</ele><time>2022-06-12T06:30:08.000Z</time></trkpt><trkpt lon="5.841689" lat="51.073979"><ele>29</ele><time>2022-06-12T06:30:09.000Z</time></trkpt><trkpt lon="5.841732" lat="51.073927"><ele>29</ele><time>2022-06-12T06:30:10.000Z</time></trkpt><trkpt lon="5.841775" lat="51.07387"><ele>29</ele><time>2022-06-12T06:30:11.000Z</time></trkpt><trkpt lon="5.841817" lat="51.073812"><ele>29.2</ele><time>2022-06-12T06:30:12.000Z</time></trkpt><trkpt lon="5.841861" lat="51.073759"><ele>29.2</ele><time>2022-06-12T06:30:13.000Z</time></trkpt><trkpt lon="5.841904" lat="51.073705"><ele>29.2</ele><time>2022-06-12T06:30:14.000Z</time></trkpt><trkpt lon="5.841944" lat="51.073656"><ele>29.2</ele><time>2022-06-12T06:30:15.000Z</time></trkpt><trkpt lon="5.841982" lat="51.073602"><ele>29.2</ele><time>2022-06-12T06:30:16.000Z</time></trkpt><trkpt lon="5.842027" lat="51.073553"><ele>29</ele><time>2022-06-12T06:30:17.000Z</time></trkpt><trkpt lon="5.842073" lat="51.073496"><ele>29</ele><time>2022-06-12T06:30:18.000Z</time></trkpt><trkpt lon="5.84212" lat="51.073435"><ele>29</ele><time>2022-06-12T06:30:19.000Z</time></trkpt><trkpt lon="5.842169" lat="51.073373"><ele>29</ele><time>2022-06-12T06:30:20.000Z</time></trkpt><trkpt lon="5.842214" lat="51.073309"><ele>29</ele><time>2022-06-12T06:30:21.000Z</time></trkpt><trkpt lon="5.842262" lat="51.073252"><ele>29.2</ele><time>2022-06-12T06:30:22.000Z</time></trkpt><trkpt lon="5.842312" lat="51.073187"><ele>29.2</ele><time>2022-06-12T06:30:23.000Z</time></trkpt><trkpt lon="5.842363" lat="51.073126"><ele>29.4</ele><time>2022-06-12T06:30:24.000Z</time></trkpt><trkpt lon="5.842414" lat="51.073066"><ele>29.2</ele><time>2022-06-12T06:30:25.000Z</time></trkpt><trkpt lon="5.842466" lat="51.073003"><ele>29.2</ele><time>2022-06-12T06:30:26.000Z</time></trkpt><trkpt lon="5.842517" lat="51.072939"><ele>29.2</ele><time>2022-06-12T06:30:27.000Z</time></trkpt><trkpt lon="5.842565" lat="51.072877"><ele>29.2</ele><time>2022-06-12T06:30:28.000Z</time></trkpt><trkpt lon="5.842614" lat="51.072816"><ele>29.2</ele><time>2022-06-12T06:30:29.000Z</time></trkpt><trkpt lon="5.842659" lat="51.072755"><ele>29.2</ele><time>2022-06-12T06:30:30.000Z</time></trkpt><trkpt lon="5.842707" lat="51.072698"><ele>29.2</ele><time>2022-06-12T06:30:31.000Z</time></trkpt><trkpt lon="5.842758" lat="51.072635"><ele>29.2</ele><time>2022-06-12T06:30:32.000Z</time></trkpt><trkpt lon="5.84281" lat="51.072577"><ele>29.4</ele><time>2022-06-12T06:30:33.000Z</time></trkpt><trkpt lon="5.842864" lat="51.072515"><ele>29.4</ele><time>2022-06-12T06:30:34.000Z</time></trkpt><trkpt lon="5.842915" lat="51.072454"><ele>29.2</ele><time>2022-06-12T06:30:35.000Z</time></trkpt><trkpt lon="5.842965" lat="51.072393"><ele>29</ele><time>2022-06-12T06:30:36.000Z</time></trkpt><trkpt lon="5.843015" lat="51.072336"><ele>28.8</ele><time>2022-06-12T06:30:37.000Z</time></trkpt><trkpt lon="5.843067" lat="51.072275"><ele>28.6</ele><time>2022-06-12T06:30:38.000Z</time></trkpt><trkpt lon="5.843115" lat="51.072221"><ele>28.6</ele><time>2022-06-12T06:30:39.000Z</time></trkpt><trkpt lon="5.843166" lat="51.072164"><ele>28.8</ele><time>2022-06-12T06:30:40.000Z</time></trkpt><trkpt lon="5.843217" lat="51.072107"><ele>28.8</ele><time>2022-06-12T06:30:41.000Z</time></trkpt><trkpt lon="5.843271" lat="51.07205"><ele>28.8</ele><time>2022-06-12T06:30:42.000Z</time></trkpt><trkpt lon="5.843328" lat="51.071993"><ele>28.6</ele><time>2022-06-12T06:30:43.000Z</time></trkpt><trkpt lon="5.843385" lat="51.071936"><ele>28.8</ele><time>2022-06-12T06:30:44.000Z</time></trkpt><trkpt lon="5.843438" lat="51.071875"><ele>28.8</ele><time>2022-06-12T06:30:45.000Z</time></trkpt><trkpt lon="5.843486" lat="51.071813"><ele>29</ele><time>2022-06-12T06:30:46.000Z</time></trkpt><trkpt lon="5.843531" lat="51.07175"><ele>29</ele><time>2022-06-12T06:30:47.000Z</time></trkpt><trkpt lon="5.843578" lat="51.071688"><ele>28.8</ele><time>2022-06-12T06:30:48.000Z</time></trkpt><trkpt lon="5.843627" lat="51.071627"><ele>29</ele><time>2022-06-12T06:30:49.000Z</time></trkpt><trkpt lon="5.843677" lat="51.071566"><ele>29</ele><time>2022-06-12T06:30:50.000Z</time></trkpt><trkpt lon="5.843727" lat="51.071505"><ele>29.2</ele><time>2022-06-12T06:30:51.000Z</time></trkpt><trkpt lon="5.843775" lat="51.071444"><ele>29.2</ele><time>2022-06-12T06:30:52.000Z</time></trkpt><trkpt lon="5.843823" lat="51.071379"><ele>29.2</ele><time>2022-06-12T06:30:53.000Z</time></trkpt><trkpt lon="5.843876" lat="51.071318"><ele>29.2</ele><time>2022-06-12T06:30:54.000Z</time></trkpt><trkpt lon="5.843927" lat="51.071257"><ele>29.2</ele><time>2022-06-12T06:30:55.000Z</time></trkpt><trkpt lon="5.843977" lat="51.071196"><ele>29.2</ele><time>2022-06-12T06:30:56.000Z</time></trkpt><trkpt lon="5.844021" lat="51.071134"><ele>29.2</ele><time>2022-06-12T06:30:57.000Z</time></trkpt><trkpt lon="5.844063" lat="51.071075"><ele>29</ele><time>2022-06-12T06:30:58.000Z</time></trkpt><trkpt lon="5.84411" lat="51.071016"><ele>28.8</ele><time>2022-06-12T06:30:59.000Z</time></trkpt><trkpt lon="5.84416" lat="51.070959"><ele>29</ele><time>2022-06-12T06:31:00.000Z</time></trkpt><trkpt lon="5.844212" lat="51.070902"><ele>29</ele><time>2022-06-12T06:31:01.000Z</time></trkpt><trkpt lon="5.844262" lat="51.070844"><ele>28.8</ele><time>2022-06-12T06:31:02.000Z</time></trkpt><trkpt lon="5.844308" lat="51.070784"><ele>28.8</ele><time>2022-06-12T06:31:03.000Z</time></trkpt><trkpt lon="5.844355" lat="51.070723"><ele>28.8</ele><time>2022-06-12T06:31:04.000Z</time></trkpt><trkpt lon="5.844403" lat="51.070667"><ele>28.6</ele><time>2022-06-12T06:31:05.000Z</time></trkpt><trkpt lon="5.844457" lat="51.070611"><ele>28.6</ele><time>2022-06-12T06:31:06.000Z</time></trkpt><trkpt lon="5.844509" lat="51.070552"><ele>28.6</ele><time>2022-06-12T06:31:07.000Z</time></trkpt><trkpt lon="5.844566" lat="51.070494"><ele>28.6</ele><time>2022-06-12T06:31:08.000Z</time></trkpt><trkpt lon="5.844624" lat="51.070436"><ele>28.6</ele><time>2022-06-12T06:31:09.000Z</time></trkpt><trkpt lon="5.844685" lat="51.070379"><ele>28.6</ele><time>2022-06-12T06:31:10.000Z</time></trkpt><trkpt lon="5.844748" lat="51.070322"><ele>28.8</ele><time>2022-06-12T06:31:11.000Z</time></trkpt><trkpt lon="5.844814" lat="51.070268"><ele>28.8</ele><time>2022-06-12T06:31:12.000Z</time></trkpt><trkpt lon="5.844883" lat="51.070215"><ele>28.8</ele><time>2022-06-12T06:31:13.000Z</time></trkpt><trkpt lon="5.844952" lat="51.070161"><ele>28.8</ele><time>2022-06-12T06:31:14.000Z</time></trkpt><trkpt lon="5.845025" lat="51.070108"><ele>29</ele><time>2022-06-12T06:31:15.000Z</time></trkpt><trkpt lon="5.8451" lat="51.070058"><ele>29</ele><time>2022-06-12T06:31:16.000Z</time></trkpt><trkpt lon="5.845177" lat="51.070012"><ele>29.2</ele><time>2022-06-12T06:31:17.000Z</time></trkpt><trkpt lon="5.845251" lat="51.069964"><ele>29.4</ele><time>2022-06-12T06:31:18.000Z</time></trkpt><trkpt lon="5.845333" lat="51.069917"><ele>29.2</ele><time>2022-06-12T06:31:19.000Z</time></trkpt><trkpt lon="5.845413" lat="51.069872"><ele>29.2</ele><time>2022-06-12T06:31:20.000Z</time></trkpt><trkpt lon="5.845496" lat="51.069829"><ele>29.2</ele><time>2022-06-12T06:31:21.000Z</time></trkpt><trkpt lon="5.845578" lat="51.069788"><ele>29.2</ele><time>2022-06-12T06:31:22.000Z</time></trkpt><trkpt lon="5.845664" lat="51.069749"><ele>29.2</ele><time>2022-06-12T06:31:23.000Z</time></trkpt><trkpt lon="5.845749" lat="51.069711"><ele>29.2</ele><time>2022-06-12T06:31:24.000Z</time></trkpt><trkpt lon="5.845831" lat="51.06968"><ele>29.4</ele><time>2022-06-12T06:31:25.000Z</time></trkpt><trkpt lon="5.845914" lat="51.069646"><ele>29.4</ele><time>2022-06-12T06:31:26.000Z</time></trkpt><trkpt lon="5.845997" lat="51.069615"><ele>29.4</ele><time>2022-06-12T06:31:27.000Z</time></trkpt><trkpt lon="5.846081" lat="51.069589"><ele>29.4</ele><time>2022-06-12T06:31:28.000Z</time></trkpt><trkpt lon="5.846163" lat="51.069558"><ele>29.4</ele><time>2022-06-12T06:31:29.000Z</time></trkpt><trkpt lon="5.846242" lat="51.069531"><ele>29.4</ele><time>2022-06-12T06:31:30.000Z</time></trkpt><trkpt lon="5.846316" lat="51.069505"><ele>29.4</ele><time>2022-06-12T06:31:31.000Z</time></trkpt><trkpt lon="5.846385" lat="51.069489"><ele>29.4</ele><time>2022-06-12T06:31:32.000Z</time></trkpt><trkpt lon="5.846451" lat="51.069477"><ele>29.6</ele><time>2022-06-12T06:31:33.000Z</time></trkpt><trkpt lon="5.846514" lat="51.069477"><ele>29.6</ele><time>2022-06-12T06:31:34.000Z</time></trkpt><trkpt lon="5.846571" lat="51.069488"><ele>29.8</ele><time>2022-06-12T06:31:35.000Z</time></trkpt><trkpt lon="5.846618" lat="51.069514"><ele>29.8</ele><time>2022-06-12T06:31:36.000Z</time></trkpt><trkpt lon="5.846659" lat="51.069537"><ele>30</ele><time>2022-06-12T06:31:37.000Z</time></trkpt><trkpt lon="5.846705" lat="51.069546"><ele>30</ele><time>2022-06-12T06:31:38.000Z</time></trkpt><trkpt lon="5.846758" lat="51.069535"><ele>30</ele><time>2022-06-12T06:31:39.000Z</time></trkpt><trkpt lon="5.84682" lat="51.069512"><ele>29.8</ele><time>2022-06-12T06:31:40.000Z</time></trkpt><trkpt lon="5.846891" lat="51.069486"><ele>29.8</ele><time>2022-06-12T06:31:41.000Z</time></trkpt><trkpt lon="5.846968" lat="51.069459"><ele>29.8</ele><time>2022-06-12T06:31:42.000Z</time></trkpt><trkpt lon="5.847054" lat="51.069428"><ele>29.8</ele><time>2022-06-12T06:31:43.000Z</time></trkpt><trkpt lon="5.847146" lat="51.069398"><ele>29.8</ele><time>2022-06-12T06:31:44.000Z</time></trkpt><trkpt lon="5.847237" lat="51.069367"><ele>29.8</ele><time>2022-06-12T06:31:45.000Z</time></trkpt><trkpt lon="5.847324" lat="51.069341"><ele>29.8</ele><time>2022-06-12T06:31:46.000Z</time></trkpt><trkpt lon="5.847404" lat="51.06931"><ele>29.8</ele><time>2022-06-12T06:31:47.000Z</time></trkpt><trkpt lon="5.847484" lat="51.069276"><ele>30</ele><time>2022-06-12T06:31:48.000Z</time></trkpt><trkpt lon="5.847563" lat="51.069241"><ele>30</ele><time>2022-06-12T06:31:49.000Z</time></trkpt><trkpt lon="5.847644" lat="51.069211"><ele>30</ele><time>2022-06-12T06:31:50.000Z</time></trkpt><trkpt lon="5.847726" lat="51.069177"><ele>30</ele><time>2022-06-12T06:31:51.000Z</time></trkpt><trkpt lon="5.847806" lat="51.069142"><ele>30</ele><time>2022-06-12T06:31:52.000Z</time></trkpt><trkpt lon="5.847883" lat="51.069105"><ele>30.2</ele><time>2022-06-12T06:31:53.000Z</time></trkpt><trkpt lon="5.847964" lat="51.06907"><ele>30.4</ele><time>2022-06-12T06:31:54.000Z</time></trkpt><trkpt lon="5.848043" lat="51.069035"><ele>30.6</ele><time>2022-06-12T06:31:55.000Z</time></trkpt><trkpt lon="5.848125" lat="51.068997"><ele>30.6</ele><time>2022-06-12T06:31:56.000Z</time></trkpt><trkpt lon="5.848207" lat="51.06896"><ele>30.4</ele><time>2022-06-12T06:31:57.000Z</time></trkpt><trkpt lon="5.848285" lat="51.068924"><ele>30.4</ele><time>2022-06-12T06:31:58.000Z</time></trkpt><trkpt lon="5.84838" lat="51.068891"><ele>30.4</ele><time>2022-06-12T06:31:59.000Z</time></trkpt><trkpt lon="5.848478" lat="51.068864"><ele>30</ele><time>2022-06-12T06:32:00.000Z</time></trkpt><trkpt lon="5.848582" lat="51.068844"><ele>29.8</ele><time>2022-06-12T06:32:01.000Z</time></trkpt><trkpt lon="5.84869" lat="51.068833"><ele>29.6</ele><time>2022-06-12T06:32:02.000Z</time></trkpt><trkpt lon="5.848797" lat="51.068825"><ele>29.2</ele><time>2022-06-12T06:32:03.000Z</time></trkpt><trkpt lon="5.848903" lat="51.068814"><ele>29.2</ele><time>2022-06-12T06:32:04.000Z</time></trkpt><trkpt lon="5.84901" lat="51.068802"><ele>29</ele><time>2022-06-12T06:32:05.000Z</time></trkpt><trkpt lon="5.849116" lat="51.06878"><ele>29</ele><time>2022-06-12T06:32:06.000Z</time></trkpt><trkpt lon="5.849203" lat="51.068739"><ele>29</ele><time>2022-06-12T06:32:07.000Z</time></trkpt><trkpt lon="5.849255" lat="51.068667"><ele>29</ele><time>2022-06-12T06:32:08.000Z</time></trkpt><trkpt lon="5.849265" lat="51.068587"><ele>29.2</ele><time>2022-06-12T06:32:09.000Z</time></trkpt><trkpt lon="5.849273" lat="51.06851"><ele>29.6</ele><time>2022-06-12T06:32:10.000Z</time></trkpt><trkpt lon="5.849293" lat="51.068441"><ele>29.8</ele><time>2022-06-12T06:32:11.000Z</time></trkpt><trkpt lon="5.84934" lat="51.068384"><ele>30</ele><time>2022-06-12T06:32:12.000Z</time></trkpt><trkpt lon="5.849396" lat="51.068327"><ele>30.2</ele><time>2022-06-12T06:32:13.000Z</time></trkpt><trkpt lon="5.849453" lat="51.068277"><ele>30.6</ele><time>2022-06-12T06:32:14.000Z</time></trkpt><trkpt lon="5.849497" lat="51.068227"><ele>30.8</ele><time>2022-06-12T06:32:15.000Z</time></trkpt><trkpt lon="5.849518" lat="51.068178"><ele>31</ele><time>2022-06-12T06:32:16.000Z</time></trkpt><trkpt lon="5.849525" lat="51.068128"><ele>31.2</ele><time>2022-06-12T06:32:17.000Z</time></trkpt><trkpt lon="5.84953" lat="51.068077"><ele>31.4</ele><time>2022-06-12T06:32:18.000Z</time></trkpt><trkpt lon="5.849552" lat="51.068018"><ele>31.6</ele><time>2022-06-12T06:32:19.000Z</time></trkpt><trkpt lon="5.849594" lat="51.067968"><ele>31.6</ele><time>2022-06-12T06:32:20.000Z</time></trkpt><trkpt lon="5.849643" lat="51.067912"><ele>31.6</ele><time>2022-06-12T06:32:21.000Z</time></trkpt><trkpt lon="5.8497" lat="51.06785"><ele>31.6</ele><time>2022-06-12T06:32:22.000Z</time></trkpt><trkpt lon="5.849757" lat="51.067789"><ele>31.6</ele><time>2022-06-12T06:32:23.000Z</time></trkpt><trkpt lon="5.849812" lat="51.067732"><ele>31.6</ele><time>2022-06-12T06:32:24.000Z</time></trkpt><trkpt lon="5.849869" lat="51.067676"><ele>31.8</ele><time>2022-06-12T06:32:25.000Z</time></trkpt><trkpt lon="5.849925" lat="51.067613"><ele>32</ele><time>2022-06-12T06:32:26.000Z</time></trkpt><trkpt lon="5.849978" lat="51.067553"><ele>32.2</ele><time>2022-06-12T06:32:27.000Z</time></trkpt><trkpt lon="5.850028" lat="51.067496"><ele>32.2</ele><time>2022-06-12T06:32:28.000Z</time></trkpt><trkpt lon="5.850078" lat="51.067438"><ele>32.2</ele><time>2022-06-12T06:32:29.000Z</time></trkpt><trkpt lon="5.850131" lat="51.067378"><ele>32.2</ele><time>2022-06-12T06:32:30.000Z</time></trkpt><trkpt lon="5.85019" lat="51.06732"><ele>32</ele><time>2022-06-12T06:32:31.000Z</time></trkpt><trkpt lon="5.850245" lat="51.067262"><ele>32</ele><time>2022-06-12T06:32:32.000Z</time></trkpt><trkpt lon="5.8503" lat="51.067205"><ele>32</ele><time>2022-06-12T06:32:33.000Z</time></trkpt><trkpt lon="5.850354" lat="51.067152"><ele>32</ele><time>2022-06-12T06:32:34.000Z</time></trkpt><trkpt lon="5.850409" lat="51.067098"><ele>32</ele><time>2022-06-12T06:32:35.000Z</time></trkpt><trkpt lon="5.850463" lat="51.067037"><ele>32</ele><time>2022-06-12T06:32:36.000Z</time></trkpt><trkpt lon="5.850519" lat="51.066981"><ele>32.2</ele><time>2022-06-12T06:32:37.000Z</time></trkpt><trkpt lon="5.850582" lat="51.066923"><ele>32.2</ele><time>2022-06-12T06:32:38.000Z</time></trkpt><trkpt lon="5.850647" lat="51.066862"><ele>32.2</ele><time>2022-06-12T06:32:39.000Z</time></trkpt><trkpt lon="5.850711" lat="51.066801"><ele>32.2</ele><time>2022-06-12T06:32:40.000Z</time></trkpt><trkpt lon="5.850776" lat="51.066743"><ele>32.2</ele><time>2022-06-12T06:32:41.000Z</time></trkpt><trkpt lon="5.850839" lat="51.066691"><ele>32.2</ele><time>2022-06-12T06:32:42.000Z</time></trkpt><trkpt lon="5.850901" lat="51.066637"><ele>32.2</ele><time>2022-06-12T06:32:43.000Z</time></trkpt><trkpt lon="5.850957" lat="51.06658"><ele>32.2</ele><time>2022-06-12T06:32:44.000Z</time></trkpt><trkpt lon="5.851008" lat="51.066519"><ele>32</ele><time>2022-06-12T06:32:45.000Z</time></trkpt><trkpt lon="5.851062" lat="51.066462"><ele>32.2</ele><time>2022-06-12T06:32:46.000Z</time></trkpt><trkpt lon="5.85112" lat="51.0664"><ele>32.2</ele><time>2022-06-12T06:32:47.000Z</time></trkpt><trkpt lon="5.85118" lat="51.066343"><ele>31.8</ele><time>2022-06-12T06:32:48.000Z</time></trkpt><trkpt lon="5.851239" lat="51.066282"><ele>32</ele><time>2022-06-12T06:32:49.000Z</time></trkpt><trkpt lon="5.851297" lat="51.066225"><ele>32</ele><time>2022-06-12T06:32:50.000Z</time></trkpt><trkpt lon="5.851355" lat="51.066164"><ele>32</ele><time>2022-06-12T06:32:51.000Z</time></trkpt><trkpt lon="5.851408" lat="51.0661"><ele>32</ele><time>2022-06-12T06:32:52.000Z</time></trkpt><trkpt lon="5.851466" lat="51.066034"><ele>32</ele><time>2022-06-12T06:32:53.000Z</time></trkpt><trkpt lon="5.85152" lat="51.065969"><ele>32.2</ele><time>2022-06-12T06:32:54.000Z</time></trkpt><trkpt lon="5.851576" lat="51.065908"><ele>32.2</ele><time>2022-06-12T06:32:55.000Z</time></trkpt><trkpt lon="5.851633" lat="51.065851"><ele>32.2</ele><time>2022-06-12T06:32:56.000Z</time></trkpt><trkpt lon="5.851685" lat="51.065794"><ele>32.2</ele><time>2022-06-12T06:32:57.000Z</time></trkpt><trkpt lon="5.851722" lat="51.065753"><ele>32.2</ele><time>2022-06-12T06:32:58.000Z</time></trkpt><trkpt lon="5.851785" lat="51.065684"><ele>32.2</ele><time>2022-06-12T06:32:59.000Z</time></trkpt><trkpt lon="5.851833" lat="51.065626"><ele>32</ele><time>2022-06-12T06:33:00.000Z</time></trkpt><trkpt lon="5.851877" lat="51.065565"><ele>32</ele><time>2022-06-12T06:33:01.000Z</time></trkpt><trkpt lon="5.851917" lat="51.065504"><ele>31.8</ele><time>2022-06-12T06:33:02.000Z</time></trkpt><trkpt lon="5.851944" lat="51.065439"><ele>32</ele><time>2022-06-12T06:33:03.000Z</time></trkpt><trkpt lon="5.851964" lat="51.065374"><ele>32</ele><time>2022-06-12T06:33:04.000Z</time></trkpt><trkpt lon="5.851984" lat="51.065316"><ele>32</ele><time>2022-06-12T06:33:05.000Z</time></trkpt><trkpt lon="5.851998" lat="51.065245"><ele>32</ele><time>2022-06-12T06:33:06.000Z</time></trkpt><trkpt lon="5.852005" lat="51.065176"><ele>31.8</ele><time>2022-06-12T06:33:07.000Z</time></trkpt><trkpt lon="5.852013" lat="51.065109"><ele>31.8</ele><time>2022-06-12T06:33:08.000Z</time></trkpt><trkpt lon="5.852021" lat="51.06504"><ele>32</ele><time>2022-06-12T06:33:09.000Z</time></trkpt><trkpt lon="5.852036" lat="51.06497"><ele>32.2</ele><time>2022-06-12T06:33:10.000Z</time></trkpt><trkpt lon="5.852056" lat="51.064902"><ele>32.2</ele><time>2022-06-12T06:33:11.000Z</time></trkpt><trkpt lon="5.852082" lat="51.064833"><ele>32.2</ele><time>2022-06-12T06:33:12.000Z</time></trkpt><trkpt lon="5.852119" lat="51.064768"><ele>32.4</ele><time>2022-06-12T06:33:13.000Z</time></trkpt><trkpt lon="5.852161" lat="51.064706"><ele>32.4</ele><time>2022-06-12T06:33:14.000Z</time></trkpt><trkpt lon="5.8522" lat="51.064661"><ele>32.4</ele><time>2022-06-12T06:33:15.000Z</time></trkpt><trkpt lon="5.852255" lat="51.064596"><ele>32.6</ele><time>2022-06-12T06:33:16.000Z</time></trkpt><trkpt lon="5.8523" lat="51.064543"><ele>32.6</ele><time>2022-06-12T06:33:17.000Z</time></trkpt><trkpt lon="5.852345" lat="51.064494"><ele>32.8</ele><time>2022-06-12T06:33:18.000Z</time></trkpt><trkpt lon="5.852391" lat="51.064444"><ele>32.8</ele><time>2022-06-12T06:33:19.000Z</time></trkpt><trkpt lon="5.852432" lat="51.064394"><ele>32.8</ele><time>2022-06-12T06:33:20.000Z</time></trkpt><trkpt lon="5.852473" lat="51.064348"><ele>32.8</ele><time>2022-06-12T06:33:21.000Z</time></trkpt><trkpt lon="5.852517" lat="51.064302"><ele>32.8</ele><time>2022-06-12T06:33:22.000Z</time></trkpt><trkpt lon="5.852559" lat="51.064256"><ele>32.8</ele><time>2022-06-12T06:33:23.000Z</time></trkpt><trkpt lon="5.852603" lat="51.064214"><ele>32.8</ele><time>2022-06-12T06:33:24.000Z</time></trkpt><trkpt lon="5.85267" lat="51.06418"><ele>32.6</ele><time>2022-06-12T06:33:25.000Z</time></trkpt><trkpt lon="5.852747" lat="51.064153"><ele>32.6</ele><time>2022-06-12T06:33:26.000Z</time></trkpt><trkpt lon="5.852839" lat="51.064155"><ele>32.4</ele><time>2022-06-12T06:33:27.000Z</time></trkpt><trkpt lon="5.852927" lat="51.064181"><ele>32.4</ele><time>2022-06-12T06:33:28.000Z</time></trkpt><trkpt lon="5.853011" lat="51.064215"><ele>32.2</ele><time>2022-06-12T06:33:29.000Z</time></trkpt><trkpt lon="5.853099" lat="51.064254"><ele>32.4</ele><time>2022-06-12T06:33:30.000Z</time></trkpt><trkpt lon="5.853182" lat="51.064295"><ele>32.4</ele><time>2022-06-12T06:33:31.000Z</time></trkpt><trkpt lon="5.853267" lat="51.064337"><ele>32.4</ele><time>2022-06-12T06:33:32.000Z</time></trkpt><trkpt lon="5.853355" lat="51.064383"><ele>32.2</ele><time>2022-06-12T06:33:33.000Z</time></trkpt><trkpt lon="5.853441" lat="51.064429"><ele>32</ele><time>2022-06-12T06:33:34.000Z</time></trkpt><trkpt lon="5.85352" lat="51.064471"><ele>32</ele><time>2022-06-12T06:33:35.000Z</time></trkpt><trkpt lon="5.853611" lat="51.064517"><ele>32.2</ele><time>2022-06-12T06:33:36.000Z</time></trkpt><trkpt lon="5.853698" lat="51.064559"><ele>32.2</ele><time>2022-06-12T06:33:37.000Z</time></trkpt><trkpt lon="5.853785" lat="51.064597"><ele>32.2</ele><time>2022-06-12T06:33:38.000Z</time></trkpt><trkpt lon="5.853868" lat="51.064639"><ele>32.2</ele><time>2022-06-12T06:33:39.000Z</time></trkpt><trkpt lon="5.853953" lat="51.064681"><ele>32.2</ele><time>2022-06-12T06:33:40.000Z</time></trkpt><trkpt lon="5.854036" lat="51.064727"><ele>32</ele><time>2022-06-12T06:33:41.000Z</time></trkpt><trkpt lon="5.854121" lat="51.064769"><ele>32</ele><time>2022-06-12T06:33:42.000Z</time></trkpt><trkpt lon="5.854201" lat="51.064807"><ele>32</ele><time>2022-06-12T06:33:43.000Z</time></trkpt><trkpt lon="5.85428" lat="51.064844"><ele>32.2</ele><time>2022-06-12T06:33:44.000Z</time></trkpt><trkpt lon="5.854365" lat="51.064879"><ele>32.2</ele><time>2022-06-12T06:33:45.000Z</time></trkpt><trkpt lon="5.854455" lat="51.064906"><ele>32.2</ele><time>2022-06-12T06:33:46.000Z</time></trkpt><trkpt lon="5.854548" lat="51.064929"><ele>32.2</ele><time>2022-06-12T06:33:47.000Z</time></trkpt><trkpt lon="5.854645" lat="51.064956"><ele>32.2</ele><time>2022-06-12T06:33:48.000Z</time></trkpt><trkpt lon="5.854751" lat="51.064979"><ele>32</ele><time>2022-06-12T06:33:49.000Z</time></trkpt><trkpt lon="5.85486" lat="51.064994"><ele>32</ele><time>2022-06-12T06:33:50.000Z</time></trkpt><trkpt lon="5.854975" lat="51.06501"><ele>32</ele><time>2022-06-12T06:33:51.000Z</time></trkpt><trkpt lon="5.855086" lat="51.065021"><ele>32</ele><time>2022-06-12T06:33:52.000Z</time></trkpt><trkpt lon="5.855194" lat="51.065036"><ele>32</ele><time>2022-06-12T06:33:53.000Z</time></trkpt><trkpt lon="5.855316" lat="51.065044"><ele>31.8</ele><time>2022-06-12T06:33:54.000Z</time></trkpt><trkpt lon="5.855427" lat="51.065052"><ele>31.8</ele><time>2022-06-12T06:33:55.000Z</time></trkpt><trkpt lon="5.855548" lat="51.065063"><ele>31.8</ele><time>2022-06-12T06:33:56.000Z</time></trkpt><trkpt lon="5.855664" lat="51.065075"><ele>31.8</ele><time>2022-06-12T06:33:57.000Z</time></trkpt><trkpt lon="5.855777" lat="51.06509"><ele>31.8</ele><time>2022-06-12T06:33:58.000Z</time></trkpt><trkpt lon="5.85589" lat="51.065105"><ele>31.8</ele><time>2022-06-12T06:33:59.000Z</time></trkpt><trkpt lon="5.856001" lat="51.06512"><ele>31.8</ele><time>2022-06-12T06:34:00.000Z</time></trkpt><trkpt lon="5.856099" lat="51.065143"><ele>31.8</ele><time>2022-06-12T06:34:01.000Z</time></trkpt><trkpt lon="5.856191" lat="51.065162"><ele>31.8</ele><time>2022-06-12T06:34:02.000Z</time></trkpt><trkpt lon="5.85628" lat="51.065178"><ele>31.8</ele><time>2022-06-12T06:34:03.000Z</time></trkpt><trkpt lon="5.856362" lat="51.065174"><ele>31.8</ele><time>2022-06-12T06:34:04.000Z</time></trkpt><trkpt lon="5.856425" lat="51.065152"><ele>31.8</ele><time>2022-06-12T06:34:05.000Z</time></trkpt><trkpt lon="5.856485" lat="51.065107"><ele>31.8</ele><time>2022-06-12T06:34:06.000Z</time></trkpt><trkpt lon="5.85653" lat="51.065063"><ele>31.8</ele><time>2022-06-12T06:34:07.000Z</time></trkpt><trkpt lon="5.856582" lat="51.065"><ele>31.8</ele><time>2022-06-12T06:34:08.000Z</time></trkpt><trkpt lon="5.856638" lat="51.06494"><ele>31.8</ele><time>2022-06-12T06:34:09.000Z</time></trkpt><trkpt lon="5.856697" lat="51.064878"><ele>31.6</ele><time>2022-06-12T06:34:10.000Z</time></trkpt><trkpt lon="5.856752" lat="51.064821"><ele>31.6</ele><time>2022-06-12T06:34:11.000Z</time></trkpt><trkpt lon="5.856815" lat="51.064756"><ele>31.6</ele><time>2022-06-12T06:34:12.000Z</time></trkpt><trkpt lon="5.856874" lat="51.064695"><ele>31.6</ele><time>2022-06-12T06:34:13.000Z</time></trkpt><trkpt lon="5.85693" lat="51.064635"><ele>31.8</ele><time>2022-06-12T06:34:14.000Z</time></trkpt><trkpt lon="5.856988" lat="51.06457"><ele>31.8</ele><time>2022-06-12T06:34:15.000Z</time></trkpt><trkpt lon="5.857048" lat="51.064505"><ele>31.6</ele><time>2022-06-12T06:34:16.000Z</time></trkpt><trkpt lon="5.857108" lat="51.064444"><ele>31.4</ele><time>2022-06-12T06:34:17.000Z</time></trkpt><trkpt lon="5.857175" lat="51.064386"><ele>31.2</ele><time>2022-06-12T06:34:18.000Z</time></trkpt><trkpt lon="5.857247" lat="51.064328"><ele>31.2</ele><time>2022-06-12T06:34:19.000Z</time></trkpt><trkpt lon="5.857317" lat="51.064272"><ele>31.4</ele><time>2022-06-12T06:34:20.000Z</time></trkpt><trkpt lon="5.857392" lat="51.064215"><ele>31.4</ele><time>2022-06-12T06:34:21.000Z</time></trkpt><trkpt lon="5.857465" lat="51.064161"><ele>31.4</ele><time>2022-06-12T06:34:22.000Z</time></trkpt><trkpt lon="5.857536" lat="51.064104"><ele>31.6</ele><time>2022-06-12T06:34:23.000Z</time></trkpt><trkpt lon="5.857606" lat="51.06405"><ele>31.8</ele><time>2022-06-12T06:34:24.000Z</time></trkpt><trkpt lon="5.857674" lat="51.064004"><ele>31.8</ele><time>2022-06-12T06:34:25.000Z</time></trkpt><trkpt lon="5.857753" lat="51.063944"><ele>31.8</ele><time>2022-06-12T06:34:26.000Z</time></trkpt><trkpt lon="5.857831" lat="51.06389"><ele>31.8</ele><time>2022-06-12T06:34:27.000Z</time></trkpt><trkpt lon="5.857911" lat="51.06384"><ele>32</ele><time>2022-06-12T06:34:28.000Z</time></trkpt><trkpt lon="5.857986" lat="51.063797"><ele>32</ele><time>2022-06-12T06:34:29.000Z</time></trkpt><trkpt lon="5.858057" lat="51.063746"><ele>32.2</ele><time>2022-06-12T06:34:30.000Z</time></trkpt><trkpt lon="5.858131" lat="51.063696"><ele>32</ele><time>2022-06-12T06:34:31.000Z</time></trkpt><trkpt lon="5.858205" lat="51.063645"><ele>32</ele><time>2022-06-12T06:34:32.000Z</time></trkpt><trkpt lon="5.858264" lat="51.063599"><ele>32</ele><time>2022-06-12T06:34:33.000Z</time></trkpt><trkpt lon="5.858338" lat="51.063532"><ele>32</ele><time>2022-06-12T06:34:34.000Z</time></trkpt><trkpt lon="5.858394" lat="51.063467"><ele>32</ele><time>2022-06-12T06:34:35.000Z</time></trkpt><trkpt lon="5.85845" lat="51.063402"><ele>32</ele><time>2022-06-12T06:34:36.000Z</time></trkpt><trkpt lon="5.858497" lat="51.063337"><ele>32</ele><time>2022-06-12T06:34:37.000Z</time></trkpt><trkpt lon="5.85853" lat="51.063269"><ele>32.2</ele><time>2022-06-12T06:34:38.000Z</time></trkpt><trkpt lon="5.858563" lat="51.063203"><ele>32.2</ele><time>2022-06-12T06:34:39.000Z</time></trkpt><trkpt lon="5.858593" lat="51.063135"><ele>32</ele><time>2022-06-12T06:34:40.000Z</time></trkpt><trkpt lon="5.858618" lat="51.063073"><ele>32</ele><time>2022-06-12T06:34:41.000Z</time></trkpt><trkpt lon="5.858648" lat="51.062998"><ele>32</ele><time>2022-06-12T06:34:42.000Z</time></trkpt><trkpt lon="5.858674" lat="51.062934"><ele>32</ele><time>2022-06-12T06:34:43.000Z</time></trkpt><trkpt lon="5.858698" lat="51.062868"><ele>32</ele><time>2022-06-12T06:34:44.000Z</time></trkpt><trkpt lon="5.858722" lat="51.062803"><ele>32</ele><time>2022-06-12T06:34:45.000Z</time></trkpt><trkpt lon="5.858752" lat="51.062735"><ele>32</ele><time>2022-06-12T06:34:46.000Z</time></trkpt><trkpt lon="5.858779" lat="51.062666"><ele>32</ele><time>2022-06-12T06:34:47.000Z</time></trkpt><trkpt lon="5.858805" lat="51.062597"><ele>32</ele><time>2022-06-12T06:34:48.000Z</time></trkpt><trkpt lon="5.858831" lat="51.062532"><ele>32.2</ele><time>2022-06-12T06:34:49.000Z</time></trkpt><trkpt lon="5.858861" lat="51.062463"><ele>32.2</ele><time>2022-06-12T06:34:50.000Z</time></trkpt><trkpt lon="5.858891" lat="51.062395"><ele>32.2</ele><time>2022-06-12T06:34:51.000Z</time></trkpt><trkpt lon="5.858919" lat="51.062327"><ele>32.2</ele><time>2022-06-12T06:34:52.000Z</time></trkpt><trkpt lon="5.858947" lat="51.062259"><ele>32.2</ele><time>2022-06-12T06:34:53.000Z</time></trkpt><trkpt lon="5.858974" lat="51.062189"><ele>32.2</ele><time>2022-06-12T06:34:54.000Z</time></trkpt><trkpt lon="5.859005" lat="51.062125"><ele>32</ele><time>2022-06-12T06:34:55.000Z</time></trkpt><trkpt lon="5.859039" lat="51.062056"><ele>32.2</ele><time>2022-06-12T06:34:56.000Z</time></trkpt><trkpt lon="5.859072" lat="51.061997"><ele>32.2</ele><time>2022-06-12T06:34:57.000Z</time></trkpt><trkpt lon="5.859108" lat="51.061935"><ele>32.2</ele><time>2022-06-12T06:34:58.000Z</time></trkpt><trkpt lon="5.859154" lat="51.061865"><ele>32.2</ele><time>2022-06-12T06:34:59.000Z</time></trkpt><trkpt lon="5.859194" lat="51.0618"><ele>32.4</ele><time>2022-06-12T06:35:00.000Z</time></trkpt><trkpt lon="5.859228" lat="51.061748"><ele>32.4</ele><time>2022-06-12T06:35:01.000Z</time></trkpt><trkpt lon="5.859275" lat="51.061679"><ele>32.4</ele><time>2022-06-12T06:35:02.000Z</time></trkpt><trkpt lon="5.859322" lat="51.061617"><ele>32.4</ele><time>2022-06-12T06:35:03.000Z</time></trkpt><trkpt lon="5.859373" lat="51.061559"><ele>32.4</ele><time>2022-06-12T06:35:04.000Z</time></trkpt><trkpt lon="5.859411" lat="51.061511"><ele>32.4</ele><time>2022-06-12T06:35:05.000Z</time></trkpt><trkpt lon="5.859469" lat="51.061435"><ele>32.4</ele><time>2022-06-12T06:35:06.000Z</time></trkpt><trkpt lon="5.859518" lat="51.061369"><ele>32.4</ele><time>2022-06-12T06:35:07.000Z</time></trkpt><trkpt lon="5.859567" lat="51.061304"><ele>32.4</ele><time>2022-06-12T06:35:08.000Z</time></trkpt><trkpt lon="5.859624" lat="51.061242"><ele>32.4</ele><time>2022-06-12T06:35:09.000Z</time></trkpt><trkpt lon="5.859685" lat="51.061181"><ele>32.4</ele><time>2022-06-12T06:35:10.000Z</time></trkpt><trkpt lon="5.859751" lat="51.061125"><ele>32.4</ele><time>2022-06-12T06:35:11.000Z</time></trkpt><trkpt lon="5.859822" lat="51.061067"><ele>32.4</ele><time>2022-06-12T06:35:12.000Z</time></trkpt><trkpt lon="5.859891" lat="51.06101"><ele>32.6</ele><time>2022-06-12T06:35:13.000Z</time></trkpt><trkpt lon="5.859965" lat="51.060957"><ele>32.6</ele><time>2022-06-12T06:35:14.000Z</time></trkpt><trkpt lon="5.860038" lat="51.060911"><ele>32.4</ele><time>2022-06-12T06:35:15.000Z</time></trkpt><trkpt lon="5.860116" lat="51.060861"><ele>32.4</ele><time>2022-06-12T06:35:16.000Z</time></trkpt><trkpt lon="5.860195" lat="51.060811"><ele>32.4</ele><time>2022-06-12T06:35:17.000Z</time></trkpt><trkpt lon="5.860268" lat="51.060762"><ele>32.4</ele><time>2022-06-12T06:35:18.000Z</time></trkpt><trkpt lon="5.86034" lat="51.060709"><ele>32.4</ele><time>2022-06-12T06:35:19.000Z</time></trkpt><trkpt lon="5.860408" lat="51.060655"><ele>32.4</ele><time>2022-06-12T06:35:20.000Z</time></trkpt><trkpt lon="5.860464" lat="51.060614"><ele>32.4</ele><time>2022-06-12T06:35:21.000Z</time></trkpt><trkpt lon="5.860549" lat="51.060556"><ele>32.4</ele><time>2022-06-12T06:35:22.000Z</time></trkpt><trkpt lon="5.860626" lat="51.060507"><ele>32.4</ele><time>2022-06-12T06:35:23.000Z</time></trkpt><trkpt lon="5.860703" lat="51.060454"><ele>32.4</ele><time>2022-06-12T06:35:24.000Z</time></trkpt><trkpt lon="5.860781" lat="51.060407"><ele>32.4</ele><time>2022-06-12T06:35:25.000Z</time></trkpt><trkpt lon="5.860857" lat="51.060362"><ele>32.6</ele><time>2022-06-12T06:35:26.000Z</time></trkpt><trkpt lon="5.860933" lat="51.060308"><ele>32.6</ele><time>2022-06-12T06:35:27.000Z</time></trkpt><trkpt lon="5.861006" lat="51.060255"><ele>32.6</ele><time>2022-06-12T06:35:28.000Z</time></trkpt><trkpt lon="5.861082" lat="51.060208"><ele>32.6</ele><time>2022-06-12T06:35:29.000Z</time></trkpt><trkpt lon="5.861155" lat="51.060155"><ele>32.6</ele><time>2022-06-12T06:35:30.000Z</time></trkpt><trkpt lon="5.861221" lat="51.060108"><ele>32.8</ele><time>2022-06-12T06:35:31.000Z</time></trkpt><trkpt lon="5.861295" lat="51.060056"><ele>32.8</ele><time>2022-06-12T06:35:32.000Z</time></trkpt><trkpt lon="5.861363" lat="51.060004"><ele>32.8</ele><time>2022-06-12T06:35:33.000Z</time></trkpt><trkpt lon="5.861435" lat="51.059953"><ele>33</ele><time>2022-06-12T06:35:34.000Z</time></trkpt><trkpt lon="5.861511" lat="51.059904"><ele>33</ele><time>2022-06-12T06:35:35.000Z</time></trkpt><trkpt lon="5.861593" lat="51.05985"><ele>33</ele><time>2022-06-12T06:35:36.000Z</time></trkpt><trkpt lon="5.861671" lat="51.0598"><ele>33</ele><time>2022-06-12T06:35:37.000Z</time></trkpt><trkpt lon="5.861748" lat="51.059751"><ele>33</ele><time>2022-06-12T06:35:38.000Z</time></trkpt><trkpt lon="5.861822" lat="51.059698"><ele>33</ele><time>2022-06-12T06:35:39.000Z</time></trkpt><trkpt lon="5.861897" lat="51.059648"><ele>33</ele><time>2022-06-12T06:35:40.000Z</time></trkpt><trkpt lon="5.861971" lat="51.059598"><ele>33</ele><time>2022-06-12T06:35:41.000Z</time></trkpt><trkpt lon="5.862043" lat="51.059545"><ele>33</ele><time>2022-06-12T06:35:42.000Z</time></trkpt><trkpt lon="5.862112" lat="51.059495"><ele>33</ele><time>2022-06-12T06:35:43.000Z</time></trkpt><trkpt lon="5.862178" lat="51.059446"><ele>33</ele><time>2022-06-12T06:35:44.000Z</time></trkpt><trkpt lon="5.862241" lat="51.059397"><ele>33.2</ele><time>2022-06-12T06:35:45.000Z</time></trkpt><trkpt lon="5.862303" lat="51.059343"><ele>33.2</ele><time>2022-06-12T06:35:46.000Z</time></trkpt><trkpt lon="5.862362" lat="51.059293"><ele>33.2</ele><time>2022-06-12T06:35:47.000Z</time></trkpt><trkpt lon="5.862422" lat="51.05924"><ele>33.2</ele><time>2022-06-12T06:35:48.000Z</time></trkpt><trkpt lon="5.862475" lat="51.059187"><ele>33</ele><time>2022-06-12T06:35:49.000Z</time></trkpt><trkpt lon="5.86253" lat="51.059125"><ele>33</ele><time>2022-06-12T06:35:50.000Z</time></trkpt><trkpt lon="5.862577" lat="51.059069"><ele>33</ele><time>2022-06-12T06:35:51.000Z</time></trkpt><trkpt lon="5.862617" lat="51.059008"><ele>32.8</ele><time>2022-06-12T06:35:52.000Z</time></trkpt><trkpt lon="5.862656" lat="51.05895"><ele>32.8</ele><time>2022-06-12T06:35:53.000Z</time></trkpt><trkpt lon="5.862691" lat="51.058893"><ele>32.8</ele><time>2022-06-12T06:35:54.000Z</time></trkpt><trkpt lon="5.862717" lat="51.058836"><ele>32.8</ele><time>2022-06-12T06:35:55.000Z</time></trkpt><trkpt lon="5.862733" lat="51.058767"><ele>32.8</ele><time>2022-06-12T06:35:56.000Z</time></trkpt><trkpt lon="5.862732" lat="51.058703"><ele>32.8</ele><time>2022-06-12T06:35:57.000Z</time></trkpt><trkpt lon="5.862735" lat="51.05864"><ele>32.6</ele><time>2022-06-12T06:35:58.000Z</time></trkpt><trkpt lon="5.862751" lat="51.058573"><ele>32.6</ele><time>2022-06-12T06:35:59.000Z</time></trkpt><trkpt lon="5.86277" lat="51.058508"><ele>32.6</ele><time>2022-06-12T06:36:00.000Z</time></trkpt><trkpt lon="5.862784" lat="51.05844"><ele>32.8</ele><time>2022-06-12T06:36:01.000Z</time></trkpt><trkpt lon="5.862798" lat="51.058371"><ele>32.8</ele><time>2022-06-12T06:36:02.000Z</time></trkpt><trkpt lon="5.862814" lat="51.058298"><ele>32.8</ele><time>2022-06-12T06:36:03.000Z</time></trkpt><trkpt lon="5.862834" lat="51.058226"><ele>32.6</ele><time>2022-06-12T06:36:04.000Z</time></trkpt><trkpt lon="5.862848" lat="51.058154"><ele>32.4</ele><time>2022-06-12T06:36:05.000Z</time></trkpt><trkpt lon="5.862857" lat="51.058076"><ele>32.4</ele><time>2022-06-12T06:36:06.000Z</time></trkpt><trkpt lon="5.862867" lat="51.058005"><ele>32.2</ele><time>2022-06-12T06:36:07.000Z</time></trkpt><trkpt lon="5.862873" lat="51.057932"><ele>32.2</ele><time>2022-06-12T06:36:08.000Z</time></trkpt><trkpt lon="5.862881" lat="51.057859"><ele>32</ele><time>2022-06-12T06:36:09.000Z</time></trkpt><trkpt lon="5.862889" lat="51.057787"><ele>32</ele><time>2022-06-12T06:36:10.000Z</time></trkpt><trkpt lon="5.862896" lat="51.057716"><ele>32</ele><time>2022-06-12T06:36:11.000Z</time></trkpt><trkpt lon="5.862903" lat="51.057642"><ele>32</ele><time>2022-06-12T06:36:12.000Z</time></trkpt><trkpt lon="5.862908" lat="51.057569"><ele>32</ele><time>2022-06-12T06:36:13.000Z</time></trkpt><trkpt lon="5.862912" lat="51.057497"><ele>32</ele><time>2022-06-12T06:36:14.000Z</time></trkpt><trkpt lon="5.862915" lat="51.057429"><ele>32.2</ele><time>2022-06-12T06:36:15.000Z</time></trkpt><trkpt lon="5.86292" lat="51.057356"><ele>32.2</ele><time>2022-06-12T06:36:16.000Z</time></trkpt><trkpt lon="5.862925" lat="51.057288"><ele>32.4</ele><time>2022-06-12T06:36:17.000Z</time></trkpt><trkpt lon="5.862929" lat="51.057222"><ele>32.4</ele><time>2022-06-12T06:36:18.000Z</time></trkpt><trkpt lon="5.862935" lat="51.057147"><ele>32.4</ele><time>2022-06-12T06:36:19.000Z</time></trkpt><trkpt lon="5.86294" lat="51.057074"><ele>32.4</ele><time>2022-06-12T06:36:20.000Z</time></trkpt><trkpt lon="5.862945" lat="51.057009"><ele>32.6</ele><time>2022-06-12T06:36:21.000Z</time></trkpt><trkpt lon="5.862948" lat="51.05694"><ele>32.6</ele><time>2022-06-12T06:36:22.000Z</time></trkpt><trkpt lon="5.862953" lat="51.056876"><ele>32.6</ele><time>2022-06-12T06:36:23.000Z</time></trkpt><trkpt lon="5.862956" lat="51.056807"><ele>32.6</ele><time>2022-06-12T06:36:24.000Z</time></trkpt><trkpt lon="5.862963" lat="51.056738"><ele>32.6</ele><time>2022-06-12T06:36:25.000Z</time></trkpt><trkpt lon="5.86297" lat="51.056673"><ele>32.8</ele><time>2022-06-12T06:36:26.000Z</time></trkpt><trkpt lon="5.862973" lat="51.056609"><ele>32.8</ele><time>2022-06-12T06:36:27.000Z</time></trkpt><trkpt lon="5.862976" lat="51.056544"><ele>32.8</ele><time>2022-06-12T06:36:28.000Z</time></trkpt><trkpt lon="5.862978" lat="51.056479"><ele>33</ele><time>2022-06-12T06:36:29.000Z</time></trkpt><trkpt lon="5.862978" lat="51.056414"><ele>33</ele><time>2022-06-12T06:36:30.000Z</time></trkpt><trkpt lon="5.86298" lat="51.056353"><ele>33</ele><time>2022-06-12T06:36:31.000Z</time></trkpt><trkpt lon="5.86298" lat="51.056291"><ele>33</ele><time>2022-06-12T06:36:32.000Z</time></trkpt><trkpt lon="5.86298" lat="51.056234"><ele>33</ele><time>2022-06-12T06:36:33.000Z</time></trkpt><trkpt lon="5.862977" lat="51.056173"><ele>33.2</ele><time>2022-06-12T06:36:34.000Z</time></trkpt><trkpt lon="5.862973" lat="51.05612"><ele>33.2</ele><time>2022-06-12T06:36:35.000Z</time></trkpt><trkpt lon="5.86297" lat="51.056067"><ele>33.2</ele><time>2022-06-12T06:36:36.000Z</time></trkpt><trkpt lon="5.862967" lat="51.05602"><ele>33.2</ele><time>2022-06-12T06:36:37.000Z</time></trkpt><trkpt lon="5.862965" lat="51.055981"><ele>33.4</ele><time>2022-06-12T06:36:38.000Z</time></trkpt><trkpt lon="5.862963" lat="51.055955"><ele>33.4</ele><time>2022-06-12T06:36:39.000Z</time></trkpt><trkpt lon="5.862963" lat="51.055935"><ele>33.4</ele><time>2022-06-12T06:36:40.000Z</time></trkpt><trkpt lon="5.862966" lat="51.05592"><ele>33.4</ele><time>2022-06-12T06:36:41.000Z</time></trkpt><trkpt lon="5.862973" lat="51.055912"><ele>33.4</ele><time>2022-06-12T06:36:42.000Z</time></trkpt><trkpt lon="5.86298" lat="51.055908"><ele>33.4</ele><time>2022-06-12T06:36:49.000Z</time></trkpt><trkpt lon="5.86298" lat="51.055908"><ele>33.4</ele><time>2022-06-12T06:36:50.000Z</time></trkpt><trkpt lon="5.863035" lat="51.055901"><ele>33.6</ele><time>2022-06-12T06:36:51.000Z</time></trkpt><trkpt lon="5.863068" lat="51.055901"><ele>33.6</ele><time>2022-06-12T06:36:52.000Z</time></trkpt><trkpt lon="5.863107" lat="51.055897"><ele>33.4</ele><time>2022-06-12T06:36:53.000Z</time></trkpt><trkpt lon="5.863152" lat="51.055889"><ele>33.4</ele><time>2022-06-12T06:36:54.000Z</time></trkpt><trkpt lon="5.863196" lat="51.055871"><ele>33.4</ele><time>2022-06-12T06:36:55.000Z</time></trkpt><trkpt lon="5.863236" lat="51.055848"><ele>33.4</ele><time>2022-06-12T06:36:56.000Z</time></trkpt><trkpt lon="5.863272" lat="51.055818"><ele>33.4</ele><time>2022-06-12T06:36:57.000Z</time></trkpt><trkpt lon="5.863313" lat="51.055781"><ele>33.2</ele><time>2022-06-12T06:36:58.000Z</time></trkpt><trkpt lon="5.863358" lat="51.055738"><ele>33.2</ele><time>2022-06-12T06:36:59.000Z</time></trkpt><trkpt lon="5.863409" lat="51.055696"><ele>33</ele><time>2022-06-12T06:37:00.000Z</time></trkpt><trkpt lon="5.86346" lat="51.055639"><ele>33</ele><time>2022-06-12T06:37:01.000Z</time></trkpt><trkpt lon="5.86352" lat="51.055582"><ele>33</ele><time>2022-06-12T06:37:02.000Z</time></trkpt><trkpt lon="5.863583" lat="51.055521"><ele>33</ele><time>2022-06-12T06:37:03.000Z</time></trkpt><trkpt lon="5.86364" lat="51.05546"><ele>33</ele><time>2022-06-12T06:37:04.000Z</time></trkpt><trkpt lon="5.863698" lat="51.055396"><ele>33</ele><time>2022-06-12T06:37:05.000Z</time></trkpt><trkpt lon="5.863758" lat="51.055327"><ele>33</ele><time>2022-06-12T06:37:06.000Z</time></trkpt><trkpt lon="5.863813" lat="51.055254"><ele>32.8</ele><time>2022-06-12T06:37:07.000Z</time></trkpt><trkpt lon="5.86387" lat="51.055186"><ele>32.8</ele><time>2022-06-12T06:37:08.000Z</time></trkpt><trkpt lon="5.863925" lat="51.055121"><ele>32.8</ele><time>2022-06-12T06:37:09.000Z</time></trkpt><trkpt lon="5.863982" lat="51.055055"><ele>32.8</ele><time>2022-06-12T06:37:10.000Z</time></trkpt><trkpt lon="5.86404" lat="51.054999"><ele>33</ele><time>2022-06-12T06:37:11.000Z</time></trkpt><trkpt lon="5.864098" lat="51.054941"><ele>33</ele><time>2022-06-12T06:37:12.000Z</time></trkpt><trkpt lon="5.864158" lat="51.054888"><ele>33</ele><time>2022-06-12T06:37:13.000Z</time></trkpt><trkpt lon="5.864215" lat="51.05483"><ele>33</ele><time>2022-06-12T06:37:14.000Z</time></trkpt><trkpt lon="5.864272" lat="51.054777"><ele>33.2</ele><time>2022-06-12T06:37:15.000Z</time></trkpt><trkpt lon="5.864323" lat="51.05472"><ele>33.2</ele><time>2022-06-12T06:37:16.000Z</time></trkpt><trkpt lon="5.864377" lat="51.054666"><ele>33.2</ele><time>2022-06-12T06:37:17.000Z</time></trkpt><trkpt lon="5.864427" lat="51.054613"><ele>33.2</ele><time>2022-06-12T06:37:18.000Z</time></trkpt><trkpt lon="5.864477" lat="51.054559"><ele>33.2</ele><time>2022-06-12T06:37:19.000Z</time></trkpt><trkpt lon="5.864532" lat="51.054506"><ele>33.2</ele><time>2022-06-12T06:37:20.000Z</time></trkpt><trkpt lon="5.864589" lat="51.054457"><ele>33.2</ele><time>2022-06-12T06:37:21.000Z</time></trkpt><trkpt lon="5.864658" lat="51.05441"><ele>33.2</ele><time>2022-06-12T06:37:22.000Z</time></trkpt><trkpt lon="5.864726" lat="51.054365"><ele>33.2</ele><time>2022-06-12T06:37:23.000Z</time></trkpt><trkpt lon="5.8648" lat="51.054311"><ele>33.2</ele><time>2022-06-12T06:37:24.000Z</time></trkpt><trkpt lon="5.864876" lat="51.054262"><ele>33.2</ele><time>2022-06-12T06:37:25.000Z</time></trkpt><trkpt lon="5.864949" lat="51.054216"><ele>33</ele><time>2022-06-12T06:37:26.000Z</time></trkpt><trkpt lon="5.865024" lat="51.054166"><ele>33</ele><time>2022-06-12T06:37:27.000Z</time></trkpt><trkpt lon="5.8651" lat="51.054113"><ele>33</ele><time>2022-06-12T06:37:28.000Z</time></trkpt><trkpt lon="5.865172" lat="51.05406"><ele>33</ele><time>2022-06-12T06:37:29.000Z</time></trkpt><trkpt lon="5.865235" lat="51.053998"><ele>33</ele><time>2022-06-12T06:37:30.000Z</time></trkpt><trkpt lon="5.865292" lat="51.053938"><ele>33</ele><time>2022-06-12T06:37:31.000Z</time></trkpt><trkpt lon="5.865335" lat="51.05387"><ele>33</ele><time>2022-06-12T06:37:32.000Z</time></trkpt><trkpt lon="5.865362" lat="51.053797"><ele>32.8</ele><time>2022-06-12T06:37:33.000Z</time></trkpt><trkpt lon="5.865378" lat="51.053724"><ele>32.8</ele><time>2022-06-12T06:37:34.000Z</time></trkpt><trkpt lon="5.865388" lat="51.053652"><ele>32.8</ele><time>2022-06-12T06:37:35.000Z</time></trkpt><trkpt lon="5.865396" lat="51.053583"><ele>32.8</ele><time>2022-06-12T06:37:36.000Z</time></trkpt><trkpt lon="5.865405" lat="51.053516"><ele>32.8</ele><time>2022-06-12T06:37:37.000Z</time></trkpt><trkpt lon="5.865423" lat="51.053449"><ele>32.8</ele><time>2022-06-12T06:37:38.000Z</time></trkpt><trkpt lon="5.865454" lat="51.053385"><ele>32.8</ele><time>2022-06-12T06:37:39.000Z</time></trkpt><trkpt lon="5.865499" lat="51.05332"><ele>32.6</ele><time>2022-06-12T06:37:40.000Z</time></trkpt><trkpt lon="5.865547" lat="51.053256"><ele>32.6</ele><time>2022-06-12T06:37:41.000Z</time></trkpt><trkpt lon="5.865599" lat="51.05319"><ele>32.6</ele><time>2022-06-12T06:37:42.000Z</time></trkpt><trkpt lon="5.865648" lat="51.053127"><ele>32.6</ele><time>2022-06-12T06:37:43.000Z</time></trkpt><trkpt lon="5.8657" lat="51.05306"><ele>32.6</ele><time>2022-06-12T06:37:44.000Z</time></trkpt><trkpt lon="5.865747" lat="51.052992"><ele>32.6</ele><time>2022-06-12T06:37:45.000Z</time></trkpt><trkpt lon="5.865791" lat="51.052927"><ele>32.8</ele><time>2022-06-12T06:37:46.000Z</time></trkpt><trkpt lon="5.865837" lat="51.052863"><ele>32.8</ele><time>2022-06-12T06:37:47.000Z</time></trkpt><trkpt lon="5.865884" lat="51.052797"><ele>33</ele><time>2022-06-12T06:37:48.000Z</time></trkpt><trkpt lon="5.865934" lat="51.052732"><ele>33.2</ele><time>2022-06-12T06:37:49.000Z</time></trkpt><trkpt lon="5.865982" lat="51.052671"><ele>33.4</ele><time>2022-06-12T06:37:50.000Z</time></trkpt><trkpt lon="5.866029" lat="51.052606"><ele>33.4</ele><time>2022-06-12T06:37:51.000Z</time></trkpt><trkpt lon="5.866078" lat="51.052542"><ele>33.4</ele><time>2022-06-12T06:37:52.000Z</time></trkpt><trkpt lon="5.866128" lat="51.052481"><ele>33.4</ele><time>2022-06-12T06:37:53.000Z</time></trkpt><trkpt lon="5.866178" lat="51.052416"><ele>33.4</ele><time>2022-06-12T06:37:54.000Z</time></trkpt><trkpt lon="5.866225" lat="51.052355"><ele>33.4</ele><time>2022-06-12T06:37:55.000Z</time></trkpt><trkpt lon="5.866269" lat="51.052293"><ele>33.4</ele><time>2022-06-12T06:37:56.000Z</time></trkpt><trkpt lon="5.866309" lat="51.052229"><ele>33.4</ele><time>2022-06-12T06:37:57.000Z</time></trkpt><trkpt lon="5.866345" lat="51.052167"><ele>33.4</ele><time>2022-06-12T06:37:58.000Z</time></trkpt><trkpt lon="5.866389" lat="51.052103"><ele>33.4</ele><time>2022-06-12T06:37:59.000Z</time></trkpt><trkpt lon="5.866432" lat="51.052042"><ele>33.6</ele><time>2022-06-12T06:38:00.000Z</time></trkpt><trkpt lon="5.866472" lat="51.051977"><ele>33.6</ele><time>2022-06-12T06:38:01.000Z</time></trkpt><trkpt lon="5.866512" lat="51.051916"><ele>33.6</ele><time>2022-06-12T06:38:02.000Z</time></trkpt><trkpt lon="5.866555" lat="51.051855"><ele>33.6</ele><time>2022-06-12T06:38:03.000Z</time></trkpt><trkpt lon="5.866603" lat="51.051794"><ele>33.6</ele><time>2022-06-12T06:38:04.000Z</time></trkpt><trkpt lon="5.866655" lat="51.051729"><ele>33.6</ele><time>2022-06-12T06:38:05.000Z</time></trkpt><trkpt lon="5.866706" lat="51.051668"><ele>33.4</ele><time>2022-06-12T06:38:06.000Z</time></trkpt><trkpt lon="5.866752" lat="51.051606"><ele>33.4</ele><time>2022-06-12T06:38:07.000Z</time></trkpt><trkpt lon="5.866799" lat="51.05154"><ele>33.6</ele><time>2022-06-12T06:38:08.000Z</time></trkpt><trkpt lon="5.866846" lat="51.051469"><ele>33.6</ele><time>2022-06-12T06:38:09.000Z</time></trkpt><trkpt lon="5.866886" lat="51.051401"><ele>33.6</ele><time>2022-06-12T06:38:10.000Z</time></trkpt><trkpt lon="5.866921" lat="51.051329"><ele>33.6</ele><time>2022-06-12T06:38:11.000Z</time></trkpt><trkpt lon="5.866956" lat="51.051264"><ele>33.4</ele><time>2022-06-12T06:38:12.000Z</time></trkpt><trkpt lon="5.866992" lat="51.051196"><ele>33.4</ele><time>2022-06-12T06:38:13.000Z</time></trkpt><trkpt lon="5.867027" lat="51.05113"><ele>33.2</ele><time>2022-06-12T06:38:14.000Z</time></trkpt><trkpt lon="5.867062" lat="51.051062"><ele>33.2</ele><time>2022-06-12T06:38:15.000Z</time></trkpt><trkpt lon="5.867098" lat="51.050996"><ele>33</ele><time>2022-06-12T06:38:16.000Z</time></trkpt><trkpt lon="5.867134" lat="51.050931"><ele>33</ele><time>2022-06-12T06:38:17.000Z</time></trkpt><trkpt lon="5.867167" lat="51.050865"><ele>33</ele><time>2022-06-12T06:38:18.000Z</time></trkpt><trkpt lon="5.867202" lat="51.050795"><ele>33</ele><time>2022-06-12T06:38:19.000Z</time></trkpt><trkpt lon="5.867234" lat="51.050726"><ele>33</ele><time>2022-06-12T06:38:20.000Z</time></trkpt><trkpt lon="5.867261" lat="51.050657"><ele>33</ele><time>2022-06-12T06:38:21.000Z</time></trkpt><trkpt lon="5.867279" lat="51.050589"><ele>33.2</ele><time>2022-06-12T06:38:22.000Z</time></trkpt><trkpt lon="5.867293" lat="51.05052"><ele>33.2</ele><time>2022-06-12T06:38:23.000Z</time></trkpt><trkpt lon="5.867306" lat="51.050452"><ele>33.4</ele><time>2022-06-12T06:38:24.000Z</time></trkpt><trkpt lon="5.867318" lat="51.050383"><ele>33.6</ele><time>2022-06-12T06:38:25.000Z</time></trkpt><trkpt lon="5.867333" lat="51.050311"><ele>33.6</ele><time>2022-06-12T06:38:26.000Z</time></trkpt><trkpt lon="5.867351" lat="51.050242"><ele>33.6</ele><time>2022-06-12T06:38:27.000Z</time></trkpt><trkpt lon="5.867367" lat="51.050178"><ele>33.6</ele><time>2022-06-12T06:38:28.000Z</time></trkpt><trkpt lon="5.867384" lat="51.050101"><ele>33.6</ele><time>2022-06-12T06:38:29.000Z</time></trkpt><trkpt lon="5.8674" lat="51.050035"><ele>33.6</ele><time>2022-06-12T06:38:30.000Z</time></trkpt><trkpt lon="5.867411" lat="51.049967"><ele>33.8</ele><time>2022-06-12T06:38:31.000Z</time></trkpt><trkpt lon="5.867426" lat="51.049903"><ele>33.8</ele><time>2022-06-12T06:38:32.000Z</time></trkpt><trkpt lon="5.867443" lat="51.049833"><ele>33.8</ele><time>2022-06-12T06:38:33.000Z</time></trkpt><trkpt lon="5.867457" lat="51.049776"><ele>33.8</ele><time>2022-06-12T06:38:34.000Z</time></trkpt><trkpt lon="5.867474" lat="51.0497"><ele>34</ele><time>2022-06-12T06:38:35.000Z</time></trkpt><trkpt lon="5.867488" lat="51.049635"><ele>34</ele><time>2022-06-12T06:38:36.000Z</time></trkpt><trkpt lon="5.8675" lat="51.049568"><ele>34</ele><time>2022-06-12T06:38:37.000Z</time></trkpt><trkpt lon="5.867515" lat="51.049493"><ele>33.8</ele><time>2022-06-12T06:38:38.000Z</time></trkpt><trkpt lon="5.867531" lat="51.049425"><ele>33.8</ele><time>2022-06-12T06:38:39.000Z</time></trkpt><trkpt lon="5.867548" lat="51.04936"><ele>34</ele><time>2022-06-12T06:38:40.000Z</time></trkpt><trkpt lon="5.867563" lat="51.049292"><ele>34</ele><time>2022-06-12T06:38:41.000Z</time></trkpt><trkpt lon="5.867579" lat="51.049219"><ele>34.2</ele><time>2022-06-12T06:38:42.000Z</time></trkpt><trkpt lon="5.867595" lat="51.04915"><ele>34.2</ele><time>2022-06-12T06:38:43.000Z</time></trkpt><trkpt lon="5.867611" lat="51.049082"><ele>34</ele><time>2022-06-12T06:38:44.000Z</time></trkpt><trkpt lon="5.867627" lat="51.049014"><ele>34</ele><time>2022-06-12T06:38:45.000Z</time></trkpt><trkpt lon="5.867643" lat="51.048945"><ele>34</ele><time>2022-06-12T06:38:46.000Z</time></trkpt><trkpt lon="5.867659" lat="51.048873"><ele>34</ele><time>2022-06-12T06:38:47.000Z</time></trkpt><trkpt lon="5.867675" lat="51.048808"><ele>34</ele><time>2022-06-12T06:38:48.000Z</time></trkpt><trkpt lon="5.867694" lat="51.048735"><ele>34.2</ele><time>2022-06-12T06:38:49.000Z</time></trkpt><trkpt lon="5.867713" lat="51.048662"><ele>34</ele><time>2022-06-12T06:38:50.000Z</time></trkpt><trkpt lon="5.867733" lat="51.048593"><ele>34</ele><time>2022-06-12T06:38:51.000Z</time></trkpt><trkpt lon="5.867753" lat="51.048524"><ele>34</ele><time>2022-06-12T06:38:52.000Z</time></trkpt><trkpt lon="5.867771" lat="51.048456"><ele>34</ele><time>2022-06-12T06:38:53.000Z</time></trkpt><trkpt lon="5.867791" lat="51.048387"><ele>34</ele><time>2022-06-12T06:38:54.000Z</time></trkpt><trkpt lon="5.867813" lat="51.048315"><ele>34</ele><time>2022-06-12T06:38:55.000Z</time></trkpt><trkpt lon="5.867835" lat="51.048248"><ele>33.8</ele><time>2022-06-12T06:38:56.000Z</time></trkpt><trkpt lon="5.867858" lat="51.048178"><ele>33.8</ele><time>2022-06-12T06:38:57.000Z</time></trkpt><trkpt lon="5.867879" lat="51.048117"><ele>33.8</ele><time>2022-06-12T06:38:58.000Z</time></trkpt><trkpt lon="5.867909" lat="51.048038"><ele>33.8</ele><time>2022-06-12T06:38:59.000Z</time></trkpt><trkpt lon="5.867936" lat="51.047968"><ele>33.8</ele><time>2022-06-12T06:39:00.000Z</time></trkpt><trkpt lon="5.867961" lat="51.047899"><ele>33.8</ele><time>2022-06-12T06:39:01.000Z</time></trkpt><trkpt lon="5.867981" lat="51.04784"><ele>34</ele><time>2022-06-12T06:39:02.000Z</time></trkpt><trkpt lon="5.868009" lat="51.047762"><ele>34</ele><time>2022-06-12T06:39:03.000Z</time></trkpt><trkpt lon="5.868037" lat="51.047695"><ele>34</ele><time>2022-06-12T06:39:04.000Z</time></trkpt><trkpt lon="5.868064" lat="51.047628"><ele>33.8</ele><time>2022-06-12T06:39:05.000Z</time></trkpt><trkpt lon="5.868093" lat="51.04756"><ele>33.8</ele><time>2022-06-12T06:39:06.000Z</time></trkpt><trkpt lon="5.868119" lat="51.047492"><ele>33.8</ele><time>2022-06-12T06:39:07.000Z</time></trkpt><trkpt lon="5.868148" lat="51.047425"><ele>33.8</ele><time>2022-06-12T06:39:08.000Z</time></trkpt><trkpt lon="5.868178" lat="51.047354"><ele>33.8</ele><time>2022-06-12T06:39:09.000Z</time></trkpt><trkpt lon="5.868204" lat="51.047289"><ele>33.6</ele><time>2022-06-12T06:39:10.000Z</time></trkpt><trkpt lon="5.868232" lat="51.04722"><ele>33.4</ele><time>2022-06-12T06:39:11.000Z</time></trkpt><trkpt lon="5.868261" lat="51.047156"><ele>33.4</ele><time>2022-06-12T06:39:12.000Z</time></trkpt><trkpt lon="5.868292" lat="51.047087"><ele>33.4</ele><time>2022-06-12T06:39:13.000Z</time></trkpt><trkpt lon="5.868325" lat="51.047019"><ele>33.4</ele><time>2022-06-12T06:39:14.000Z</time></trkpt><trkpt lon="5.868359" lat="51.046953"><ele>33.6</ele><time>2022-06-12T06:39:15.000Z</time></trkpt><trkpt lon="5.868391" lat="51.046881"><ele>33.6</ele><time>2022-06-12T06:39:16.000Z</time></trkpt><trkpt lon="5.868425" lat="51.046814"><ele>33.6</ele><time>2022-06-12T06:39:17.000Z</time></trkpt><trkpt lon="5.868461" lat="51.046744"><ele>33.6</ele><time>2022-06-12T06:39:18.000Z</time></trkpt><trkpt lon="5.868496" lat="51.046671"><ele>33.6</ele><time>2022-06-12T06:39:19.000Z</time></trkpt><trkpt lon="5.868532" lat="51.046606"><ele>33.8</ele><time>2022-06-12T06:39:20.000Z</time></trkpt><trkpt lon="5.868567" lat="51.046539"><ele>33.8</ele><time>2022-06-12T06:39:21.000Z</time></trkpt><trkpt lon="5.868601" lat="51.046474"><ele>33.8</ele><time>2022-06-12T06:39:22.000Z</time></trkpt><trkpt lon="5.868636" lat="51.046404"><ele>33.8</ele><time>2022-06-12T06:39:23.000Z</time></trkpt><trkpt lon="5.868671" lat="51.046339"><ele>33.6</ele><time>2022-06-12T06:39:24.000Z</time></trkpt><trkpt lon="5.868707" lat="51.046275"><ele>33.4</ele><time>2022-06-12T06:39:25.000Z</time></trkpt><trkpt lon="5.868744" lat="51.046209"><ele>33.2</ele><time>2022-06-12T06:39:26.000Z</time></trkpt><trkpt lon="5.868782" lat="51.046145"><ele>33</ele><time>2022-06-12T06:39:27.000Z</time></trkpt><trkpt lon="5.86882" lat="51.04608"><ele>33</ele><time>2022-06-12T06:39:28.000Z</time></trkpt><trkpt lon="5.868861" lat="51.046015"><ele>32.8</ele><time>2022-06-12T06:39:29.000Z</time></trkpt><trkpt lon="5.868895" lat="51.045956"><ele>33</ele><time>2022-06-12T06:39:30.000Z</time></trkpt><trkpt lon="5.868942" lat="51.045885"><ele>33</ele><time>2022-06-12T06:39:31.000Z</time></trkpt><trkpt lon="5.868985" lat="51.045817"><ele>33</ele><time>2022-06-12T06:39:32.000Z</time></trkpt><trkpt lon="5.869028" lat="51.045747"><ele>33.2</ele><time>2022-06-12T06:39:33.000Z</time></trkpt><trkpt lon="5.869069" lat="51.045683"><ele>33.2</ele><time>2022-06-12T06:39:34.000Z</time></trkpt><trkpt lon="5.869112" lat="51.045618"><ele>33.2</ele><time>2022-06-12T06:39:35.000Z</time></trkpt><trkpt lon="5.869156" lat="51.045553"><ele>33.2</ele><time>2022-06-12T06:39:36.000Z</time></trkpt><trkpt lon="5.8692" lat="51.045488"><ele>33.2</ele><time>2022-06-12T06:39:37.000Z</time></trkpt><trkpt lon="5.869244" lat="51.045423"><ele>33</ele><time>2022-06-12T06:39:38.000Z</time></trkpt><trkpt lon="5.869287" lat="51.045362"><ele>33.2</ele><time>2022-06-12T06:39:39.000Z</time></trkpt><trkpt lon="5.869333" lat="51.045299"><ele>33.2</ele><time>2022-06-12T06:39:40.000Z</time></trkpt><trkpt lon="5.869378" lat="51.045233"><ele>33</ele><time>2022-06-12T06:39:41.000Z</time></trkpt><trkpt lon="5.869424" lat="51.045172"><ele>33</ele><time>2022-06-12T06:39:42.000Z</time></trkpt><trkpt lon="5.869472" lat="51.045107"><ele>33.2</ele><time>2022-06-12T06:39:43.000Z</time></trkpt><trkpt lon="5.86952" lat="51.045042"><ele>33.2</ele><time>2022-06-12T06:39:44.000Z</time></trkpt><trkpt lon="5.869567" lat="51.044981"><ele>33.2</ele><time>2022-06-12T06:39:45.000Z</time></trkpt><trkpt lon="5.869617" lat="51.044916"><ele>33.2</ele><time>2022-06-12T06:39:46.000Z</time></trkpt><trkpt lon="5.869664" lat="51.044855"><ele>33.2</ele><time>2022-06-12T06:39:47.000Z</time></trkpt><trkpt lon="5.869696" lat="51.044814"><ele>33.2</ele><time>2022-06-12T06:39:48.000Z</time></trkpt><trkpt lon="5.869758" lat="51.044736"><ele>33.4</ele><time>2022-06-12T06:39:49.000Z</time></trkpt><trkpt lon="5.86981" lat="51.044672"><ele>33.4</ele><time>2022-06-12T06:39:50.000Z</time></trkpt><trkpt lon="5.869859" lat="51.044613"><ele>33.4</ele><time>2022-06-12T06:39:51.000Z</time></trkpt><trkpt lon="5.869909" lat="51.044555"><ele>33.6</ele><time>2022-06-12T06:39:52.000Z</time></trkpt><trkpt lon="5.86996" lat="51.044493"><ele>33.6</ele><time>2022-06-12T06:39:53.000Z</time></trkpt><trkpt lon="5.870012" lat="51.044432"><ele>33.6</ele><time>2022-06-12T06:39:54.000Z</time></trkpt><trkpt lon="5.870065" lat="51.044374"><ele>33.6</ele><time>2022-06-12T06:39:55.000Z</time></trkpt><trkpt lon="5.870121" lat="51.044314"><ele>33.8</ele><time>2022-06-12T06:39:56.000Z</time></trkpt><trkpt lon="5.870174" lat="51.044258"><ele>33.8</ele><time>2022-06-12T06:39:57.000Z</time></trkpt><trkpt lon="5.870223" lat="51.044199"><ele>33.6</ele><time>2022-06-12T06:39:58.000Z</time></trkpt><trkpt lon="5.87028" lat="51.044135"><ele>33.6</ele><time>2022-06-12T06:39:59.000Z</time></trkpt><trkpt lon="5.87034" lat="51.044077"><ele>33.4</ele><time>2022-06-12T06:40:00.000Z</time></trkpt><trkpt lon="5.870398" lat="51.044016"><ele>33.6</ele><time>2022-06-12T06:40:01.000Z</time></trkpt><trkpt lon="5.870455" lat="51.043955"><ele>33.6</ele><time>2022-06-12T06:40:02.000Z</time></trkpt><trkpt lon="5.870513" lat="51.043894"><ele>33.6</ele><time>2022-06-12T06:40:03.000Z</time></trkpt><trkpt lon="5.870573" lat="51.043833"><ele>33.6</ele><time>2022-06-12T06:40:04.000Z</time></trkpt><trkpt lon="5.870631" lat="51.043779"><ele>33.6</ele><time>2022-06-12T06:40:05.000Z</time></trkpt><trkpt lon="5.870691" lat="51.043718"><ele>33.8</ele><time>2022-06-12T06:40:06.000Z</time></trkpt><trkpt lon="5.87075" lat="51.043661"><ele>33.8</ele><time>2022-06-12T06:40:07.000Z</time></trkpt><trkpt lon="5.87081" lat="51.0436"><ele>34</ele><time>2022-06-12T06:40:08.000Z</time></trkpt><trkpt lon="5.870869" lat="51.043542"><ele>34</ele><time>2022-06-12T06:40:09.000Z</time></trkpt><trkpt lon="5.870928" lat="51.043482"><ele>33.8</ele><time>2022-06-12T06:40:10.000Z</time></trkpt><trkpt lon="5.870992" lat="51.043424"><ele>34</ele><time>2022-06-12T06:40:11.000Z</time></trkpt><trkpt lon="5.871051" lat="51.043366"><ele>34</ele><time>2022-06-12T06:40:12.000Z</time></trkpt><trkpt lon="5.871115" lat="51.043306"><ele>34.2</ele><time>2022-06-12T06:40:13.000Z</time></trkpt><trkpt lon="5.871176" lat="51.043249"><ele>34.2</ele><time>2022-06-12T06:40:14.000Z</time></trkpt><trkpt lon="5.871238" lat="51.043192"><ele>34.4</ele><time>2022-06-12T06:40:15.000Z</time></trkpt><trkpt lon="5.871302" lat="51.043132"><ele>34.4</ele><time>2022-06-12T06:40:16.000Z</time></trkpt><trkpt lon="5.87137" lat="51.043073"><ele>34.4</ele><time>2022-06-12T06:40:17.000Z</time></trkpt><trkpt lon="5.871434" lat="51.04302"><ele>34.4</ele><time>2022-06-12T06:40:18.000Z</time></trkpt><trkpt lon="5.871496" lat="51.042963"><ele>34.4</ele><time>2022-06-12T06:40:19.000Z</time></trkpt><trkpt lon="5.871561" lat="51.042909"><ele>34.4</ele><time>2022-06-12T06:40:20.000Z</time></trkpt><trkpt lon="5.871626" lat="51.042852"><ele>34.6</ele><time>2022-06-12T06:40:21.000Z</time></trkpt><trkpt lon="5.871691" lat="51.042795"><ele>34.6</ele><time>2022-06-12T06:40:22.000Z</time></trkpt><trkpt lon="5.871746" lat="51.04275"><ele>34.6</ele><time>2022-06-12T06:40:23.000Z</time></trkpt><trkpt lon="5.87182" lat="51.042685"><ele>34.6</ele><time>2022-06-12T06:40:24.000Z</time></trkpt><trkpt lon="5.871885" lat="51.042631"><ele>34.6</ele><time>2022-06-12T06:40:25.000Z</time></trkpt><trkpt lon="5.871946" lat="51.042581"><ele>34.8</ele><time>2022-06-12T06:40:26.000Z</time></trkpt><trkpt lon="5.872003" lat="51.042533"><ele>35</ele><time>2022-06-12T06:40:27.000Z</time></trkpt><trkpt lon="5.872065" lat="51.042482"><ele>35</ele><time>2022-06-12T06:40:28.000Z</time></trkpt><trkpt lon="5.872127" lat="51.042436"><ele>35</ele><time>2022-06-12T06:40:29.000Z</time></trkpt><trkpt lon="5.872187" lat="51.042387"><ele>35</ele><time>2022-06-12T06:40:30.000Z</time></trkpt><trkpt lon="5.872248" lat="51.042337"><ele>35.2</ele><time>2022-06-12T06:40:31.000Z</time></trkpt><trkpt lon="5.872306" lat="51.042295"><ele>35.2</ele><time>2022-06-12T06:40:32.000Z</time></trkpt><trkpt lon="5.872363" lat="51.042249"><ele>35.2</ele><time>2022-06-12T06:40:33.000Z</time></trkpt><trkpt lon="5.872417" lat="51.042211"><ele>35.2</ele><time>2022-06-12T06:40:34.000Z</time></trkpt><trkpt lon="5.872465" lat="51.042176"><ele>35.2</ele><time>2022-06-12T06:40:35.000Z</time></trkpt><trkpt lon="5.872513" lat="51.042139"><ele>35.2</ele><time>2022-06-12T06:40:36.000Z</time></trkpt><trkpt lon="5.872562" lat="51.0421"><ele>35</ele><time>2022-06-12T06:40:37.000Z</time></trkpt><trkpt lon="5.87261" lat="51.042066"><ele>35</ele><time>2022-06-12T06:40:38.000Z</time></trkpt><trkpt lon="5.872669" lat="51.042042"><ele>35</ele><time>2022-06-12T06:40:39.000Z</time></trkpt><trkpt lon="5.872737" lat="51.042034"><ele>35</ele><time>2022-06-12T06:40:40.000Z</time></trkpt><trkpt lon="5.872818" lat="51.042045"><ele>35</ele><time>2022-06-12T06:40:41.000Z</time></trkpt><trkpt lon="5.872903" lat="51.042071"><ele>35</ele><time>2022-06-12T06:40:42.000Z</time></trkpt><trkpt lon="5.872995" lat="51.042105"><ele>35</ele><time>2022-06-12T06:40:43.000Z</time></trkpt><trkpt lon="5.87309" lat="51.042144"><ele>35</ele><time>2022-06-12T06:40:44.000Z</time></trkpt><trkpt lon="5.873191" lat="51.042185"><ele>35</ele><time>2022-06-12T06:40:45.000Z</time></trkpt><trkpt lon="5.873297" lat="51.042228"><ele>34.8</ele><time>2022-06-12T06:40:46.000Z</time></trkpt><trkpt lon="5.873406" lat="51.042273"><ele>34.8</ele><time>2022-06-12T06:40:47.000Z</time></trkpt><trkpt lon="5.873512" lat="51.042318"><ele>34.8</ele><time>2022-06-12T06:40:48.000Z</time></trkpt><trkpt lon="5.87362" lat="51.042365"><ele>34.8</ele><time>2022-06-12T06:40:49.000Z</time></trkpt><trkpt lon="5.873724" lat="51.042406"><ele>34.8</ele><time>2022-06-12T06:40:50.000Z</time></trkpt><trkpt lon="5.873829" lat="51.042453"><ele>34.6</ele><time>2022-06-12T06:40:51.000Z</time></trkpt><trkpt lon="5.87393" lat="51.042495"><ele>34.6</ele><time>2022-06-12T06:40:52.000Z</time></trkpt><trkpt lon="5.874026" lat="51.04254"><ele>34.8</ele><time>2022-06-12T06:40:53.000Z</time></trkpt><trkpt lon="5.874119" lat="51.042582"><ele>34.8</ele><time>2022-06-12T06:40:54.000Z</time></trkpt><trkpt lon="5.874216" lat="51.042621"><ele>34.8</ele><time>2022-06-12T06:40:55.000Z</time></trkpt><trkpt lon="5.874314" lat="51.042647"><ele>35</ele><time>2022-06-12T06:40:56.000Z</time></trkpt><trkpt lon="5.874419" lat="51.042656"><ele>35</ele><time>2022-06-12T06:40:57.000Z</time></trkpt><trkpt lon="5.874529" lat="51.042637"><ele>35</ele><time>2022-06-12T06:40:58.000Z</time></trkpt><trkpt lon="5.87463" lat="51.042608"><ele>35</ele><time>2022-06-12T06:40:59.000Z</time></trkpt><trkpt lon="5.874724" lat="51.042567"><ele>35</ele><time>2022-06-12T06:41:00.000Z</time></trkpt><trkpt lon="5.87482" lat="51.04252"><ele>35</ele><time>2022-06-12T06:41:01.000Z</time></trkpt><trkpt lon="5.874909" lat="51.042478"><ele>35</ele><time>2022-06-12T06:41:02.000Z</time></trkpt><trkpt lon="5.874997" lat="51.042432"><ele>35.2</ele><time>2022-06-12T06:41:03.000Z</time></trkpt><trkpt lon="5.875085" lat="51.042386"><ele>35.2</ele><time>2022-06-12T06:41:04.000Z</time></trkpt><trkpt lon="5.875169" lat="51.042341"><ele>35.2</ele><time>2022-06-12T06:41:05.000Z</time></trkpt><trkpt lon="5.875257" lat="51.042299"><ele>35.2</ele><time>2022-06-12T06:41:06.000Z</time></trkpt><trkpt lon="5.875351" lat="51.042257"><ele>35.2</ele><time>2022-06-12T06:41:07.000Z</time></trkpt><trkpt lon="5.875449" lat="51.042218"><ele>35.4</ele><time>2022-06-12T06:41:08.000Z</time></trkpt><trkpt lon="5.875547" lat="51.04218"><ele>35.4</ele><time>2022-06-12T06:41:09.000Z</time></trkpt><trkpt lon="5.875646" lat="51.042146"><ele>35.4</ele><time>2022-06-12T06:41:10.000Z</time></trkpt><trkpt lon="5.875745" lat="51.042111"><ele>35.2</ele><time>2022-06-12T06:41:11.000Z</time></trkpt><trkpt lon="5.875845" lat="51.042081"><ele>35.2</ele><time>2022-06-12T06:41:12.000Z</time></trkpt><trkpt lon="5.875944" lat="51.04205"><ele>35.2</ele><time>2022-06-12T06:41:13.000Z</time></trkpt><trkpt lon="5.876046" lat="51.042023"><ele>35.2</ele><time>2022-06-12T06:41:14.000Z</time></trkpt><trkpt lon="5.876147" lat="51.042001"><ele>35.2</ele><time>2022-06-12T06:41:15.000Z</time></trkpt><trkpt lon="5.876249" lat="51.041974"><ele>35.2</ele><time>2022-06-12T06:41:16.000Z</time></trkpt><trkpt lon="5.876349" lat="51.041951"><ele>35.2</ele><time>2022-06-12T06:41:17.000Z</time></trkpt><trkpt lon="5.876449" lat="51.041929"><ele>35.2</ele><time>2022-06-12T06:41:18.000Z</time></trkpt><trkpt lon="5.876556" lat="51.041905"><ele>35.2</ele><time>2022-06-12T06:41:19.000Z</time></trkpt><trkpt lon="5.876661" lat="51.041882"><ele>35.2</ele><time>2022-06-12T06:41:20.000Z</time></trkpt><trkpt lon="5.876766" lat="51.041867"><ele>35.4</ele><time>2022-06-12T06:41:21.000Z</time></trkpt><trkpt lon="5.87687" lat="51.041844"><ele>35.4</ele><time>2022-06-12T06:41:22.000Z</time></trkpt><trkpt lon="5.876975" lat="51.041825"><ele>35.4</ele><time>2022-06-12T06:41:23.000Z</time></trkpt><trkpt lon="5.877079" lat="51.041806"><ele>35.6</ele><time>2022-06-12T06:41:24.000Z</time></trkpt><trkpt lon="5.877186" lat="51.041787"><ele>35.6</ele><time>2022-06-12T06:41:25.000Z</time></trkpt><trkpt lon="5.877288" lat="51.041764"><ele>35.6</ele><time>2022-06-12T06:41:26.000Z</time></trkpt><trkpt lon="5.877394" lat="51.041741"><ele>35.8</ele><time>2022-06-12T06:41:27.000Z</time></trkpt><trkpt lon="5.877498" lat="51.041726"><ele>35.8</ele><time>2022-06-12T06:41:28.000Z</time></trkpt><trkpt lon="5.877602" lat="51.041707"><ele>35.8</ele><time>2022-06-12T06:41:29.000Z</time></trkpt><trkpt lon="5.877703" lat="51.041691"><ele>35.8</ele><time>2022-06-12T06:41:30.000Z</time></trkpt><trkpt lon="5.877807" lat="51.04168"><ele>35.8</ele><time>2022-06-12T06:41:31.000Z</time></trkpt><trkpt lon="5.87791" lat="51.041668"><ele>35.8</ele><time>2022-06-12T06:41:32.000Z</time></trkpt><trkpt lon="5.878016" lat="51.041661"><ele>36</ele><time>2022-06-12T06:41:33.000Z</time></trkpt><trkpt lon="5.878119" lat="51.041653"><ele>36</ele><time>2022-06-12T06:41:34.000Z</time></trkpt><trkpt lon="5.878224" lat="51.041645"><ele>36.2</ele><time>2022-06-12T06:41:35.000Z</time></trkpt><trkpt lon="5.878327" lat="51.041634"><ele>36.4</ele><time>2022-06-12T06:41:36.000Z</time></trkpt><trkpt lon="5.878434" lat="51.041622"><ele>36.4</ele><time>2022-06-12T06:41:37.000Z</time></trkpt><trkpt lon="5.878538" lat="51.041607"><ele>36.6</ele><time>2022-06-12T06:41:38.000Z</time></trkpt><trkpt lon="5.878642" lat="51.041592"><ele>36.8</ele><time>2022-06-12T06:41:39.000Z</time></trkpt><trkpt lon="5.878747" lat="51.041573"><ele>37</ele><time>2022-06-12T06:41:40.000Z</time></trkpt><trkpt lon="5.878851" lat="51.041554"><ele>37</ele><time>2022-06-12T06:41:41.000Z</time></trkpt><trkpt lon="5.87895" lat="51.041539"><ele>37.2</ele><time>2022-06-12T06:41:42.000Z</time></trkpt><trkpt lon="5.879049" lat="51.041527"><ele>37.4</ele><time>2022-06-12T06:41:43.000Z</time></trkpt><trkpt lon="5.879147" lat="51.041512"><ele>37.4</ele><time>2022-06-12T06:41:44.000Z</time></trkpt><trkpt lon="5.879247" lat="51.041497"><ele>37.6</ele><time>2022-06-12T06:41:45.000Z</time></trkpt><trkpt lon="5.879329" lat="51.041484"><ele>37.6</ele><time>2022-06-12T06:41:46.000Z</time></trkpt><trkpt lon="5.879449" lat="51.04147"><ele>37.6</ele><time>2022-06-12T06:41:47.000Z</time></trkpt><trkpt lon="5.879555" lat="51.041466"><ele>37.8</ele><time>2022-06-12T06:41:48.000Z</time></trkpt><trkpt lon="5.879663" lat="51.041469"><ele>37.8</ele><time>2022-06-12T06:41:49.000Z</time></trkpt><trkpt lon="5.879771" lat="51.041477"><ele>37.8</ele><time>2022-06-12T06:41:50.000Z</time></trkpt><trkpt lon="5.879878" lat="51.041488"><ele>38</ele><time>2022-06-12T06:41:51.000Z</time></trkpt><trkpt lon="5.879984" lat="51.041503"><ele>38</ele><time>2022-06-12T06:41:52.000Z</time></trkpt><trkpt lon="5.880086" lat="51.041515"><ele>38</ele><time>2022-06-12T06:41:53.000Z</time></trkpt><trkpt lon="5.880188" lat="51.041526"><ele>38</ele><time>2022-06-12T06:41:54.000Z</time></trkpt><trkpt lon="5.880293" lat="51.041538"><ele>38.2</ele><time>2022-06-12T06:41:55.000Z</time></trkpt><trkpt lon="5.8804" lat="51.041546"><ele>38.2</ele><time>2022-06-12T06:41:56.000Z</time></trkpt><trkpt lon="5.880508" lat="51.04155"><ele>38.2</ele><time>2022-06-12T06:41:57.000Z</time></trkpt><trkpt lon="5.880613" lat="51.041546"><ele>38.2</ele><time>2022-06-12T06:41:58.000Z</time></trkpt><trkpt lon="5.880723" lat="51.041538"><ele>38.2</ele><time>2022-06-12T06:41:59.000Z</time></trkpt><trkpt lon="5.880824" lat="51.041534"><ele>38.4</ele><time>2022-06-12T06:42:00.000Z</time></trkpt><trkpt lon="5.880929" lat="51.041527"><ele>38.4</ele><time>2022-06-12T06:42:01.000Z</time></trkpt><trkpt lon="5.881033" lat="51.041516"><ele>38.4</ele><time>2022-06-12T06:42:02.000Z</time></trkpt><trkpt lon="5.881137" lat="51.041501"><ele>38.6</ele><time>2022-06-12T06:42:03.000Z</time></trkpt><trkpt lon="5.881239" lat="51.041485"><ele>38.6</ele><time>2022-06-12T06:42:04.000Z</time></trkpt><trkpt lon="5.881345" lat="51.04147"><ele>38.6</ele><time>2022-06-12T06:42:05.000Z</time></trkpt><trkpt lon="5.881447" lat="51.041451"><ele>38.8</ele><time>2022-06-12T06:42:06.000Z</time></trkpt><trkpt lon="5.881554" lat="51.041432"><ele>38.8</ele><time>2022-06-12T06:42:07.000Z</time></trkpt><trkpt lon="5.881654" lat="51.041421"><ele>39</ele><time>2022-06-12T06:42:08.000Z</time></trkpt><trkpt lon="5.881764" lat="51.041409"><ele>39</ele><time>2022-06-12T06:42:09.000Z</time></trkpt><trkpt lon="5.88187" lat="51.041401"><ele>39.2</ele><time>2022-06-12T06:42:10.000Z</time></trkpt><trkpt lon="5.881979" lat="51.041394"><ele>39.2</ele><time>2022-06-12T06:42:11.000Z</time></trkpt><trkpt lon="5.882087" lat="51.041386"><ele>39.2</ele><time>2022-06-12T06:42:12.000Z</time></trkpt><trkpt lon="5.882193" lat="51.041378"><ele>39.4</ele><time>2022-06-12T06:42:13.000Z</time></trkpt><trkpt lon="5.882308" lat="51.041371"><ele>39.4</ele><time>2022-06-12T06:42:14.000Z</time></trkpt><trkpt lon="5.882417" lat="51.041363"><ele>39.4</ele><time>2022-06-12T06:42:15.000Z</time></trkpt><trkpt lon="5.882528" lat="51.041355"><ele>39.4</ele><time>2022-06-12T06:42:16.000Z</time></trkpt><trkpt lon="5.882638" lat="51.041348"><ele>39.6</ele><time>2022-06-12T06:42:17.000Z</time></trkpt><trkpt lon="5.882742" lat="51.04134"><ele>39.6</ele><time>2022-06-12T06:42:18.000Z</time></trkpt><trkpt lon="5.882855" lat="51.041332"><ele>39.6</ele><time>2022-06-12T06:42:19.000Z</time></trkpt><trkpt lon="5.882966" lat="51.041321"><ele>39.6</ele><time>2022-06-12T06:42:20.000Z</time></trkpt><trkpt lon="5.883075" lat="51.041313"><ele>39.6</ele><time>2022-06-12T06:42:21.000Z</time></trkpt><trkpt lon="5.883184" lat="51.041302"><ele>39.6</ele><time>2022-06-12T06:42:22.000Z</time></trkpt><trkpt lon="5.883292" lat="51.041294"><ele>39.6</ele><time>2022-06-12T06:42:23.000Z</time></trkpt><trkpt lon="5.883402" lat="51.041287"><ele>39.8</ele><time>2022-06-12T06:42:24.000Z</time></trkpt><trkpt lon="5.883513" lat="51.041279"><ele>39.8</ele><time>2022-06-12T06:42:25.000Z</time></trkpt><trkpt lon="5.883625" lat="51.041271"><ele>39.8</ele><time>2022-06-12T06:42:26.000Z</time></trkpt><trkpt lon="5.883726" lat="51.041264"><ele>39.8</ele><time>2022-06-12T06:42:27.000Z</time></trkpt><trkpt lon="5.883826" lat="51.041257"><ele>40</ele><time>2022-06-12T06:42:28.000Z</time></trkpt><trkpt lon="5.883934" lat="51.041248"><ele>40</ele><time>2022-06-12T06:42:29.000Z</time></trkpt><trkpt lon="5.884031" lat="51.041241"><ele>40</ele><time>2022-06-12T06:42:30.000Z</time></trkpt><trkpt lon="5.884124" lat="51.04123"><ele>40</ele><time>2022-06-12T06:42:31.000Z</time></trkpt><trkpt lon="5.884214" lat="51.041222"><ele>40</ele><time>2022-06-12T06:42:32.000Z</time></trkpt><trkpt lon="5.884297" lat="51.041203"><ele>40</ele><time>2022-06-12T06:42:33.000Z</time></trkpt><trkpt lon="5.884373" lat="51.041177"><ele>40</ele><time>2022-06-12T06:42:34.000Z</time></trkpt><trkpt lon="5.884433" lat="51.041146"><ele>40.2</ele><time>2022-06-12T06:42:35.000Z</time></trkpt><trkpt lon="5.884478" lat="51.041127"><ele>40.2</ele><time>2022-06-12T06:42:36.000Z</time></trkpt><trkpt lon="5.884539" lat="51.041108"><ele>40.4</ele><time>2022-06-12T06:42:37.000Z</time></trkpt><trkpt lon="5.88461" lat="51.041114"><ele>40.6</ele><time>2022-06-12T06:42:38.000Z</time></trkpt><trkpt lon="5.884682" lat="51.04112"><ele>40.8</ele><time>2022-06-12T06:42:39.000Z</time></trkpt><trkpt lon="5.884754" lat="51.041127"><ele>40.8</ele><time>2022-06-12T06:42:40.000Z</time></trkpt><trkpt lon="5.884804" lat="51.04113"><ele>41</ele><time>2022-06-12T06:42:41.000Z</time></trkpt><trkpt lon="5.884838" lat="51.041142"><ele>41.2</ele><time>2022-06-12T06:42:42.000Z</time></trkpt><trkpt lon="5.884876" lat="51.041164"><ele>41.2</ele><time>2022-06-12T06:42:43.000Z</time></trkpt><trkpt lon="5.884936" lat="51.041194"><ele>41.2</ele><time>2022-06-12T06:42:44.000Z</time></trkpt><trkpt lon="5.885003" lat="51.041217"><ele>41.2</ele><time>2022-06-12T06:42:45.000Z</time></trkpt><trkpt lon="5.88508" lat="51.041233"><ele>41.2</ele><time>2022-06-12T06:42:46.000Z</time></trkpt><trkpt lon="5.885169" lat="51.041256"><ele>41.2</ele><time>2022-06-12T06:42:47.000Z</time></trkpt><trkpt lon="5.885256" lat="51.041267"><ele>41.2</ele><time>2022-06-12T06:42:48.000Z</time></trkpt><trkpt lon="5.88535" lat="51.041286"><ele>41.2</ele><time>2022-06-12T06:42:49.000Z</time></trkpt><trkpt lon="5.885451" lat="51.041294"><ele>41.2</ele><time>2022-06-12T06:42:50.000Z</time></trkpt><trkpt lon="5.885555" lat="51.041305"><ele>41</ele><time>2022-06-12T06:42:51.000Z</time></trkpt><trkpt lon="5.885665" lat="51.041313"><ele>41</ele><time>2022-06-12T06:42:52.000Z</time></trkpt><trkpt lon="5.885779" lat="51.041321"><ele>40.8</ele><time>2022-06-12T06:42:53.000Z</time></trkpt><trkpt lon="5.885892" lat="51.041325"><ele>40.8</ele><time>2022-06-12T06:42:54.000Z</time></trkpt><trkpt lon="5.886002" lat="51.041332"><ele>40.8</ele><time>2022-06-12T06:42:55.000Z</time></trkpt><trkpt lon="5.886115" lat="51.04134"><ele>40.6</ele><time>2022-06-12T06:42:56.000Z</time></trkpt><trkpt lon="5.886231" lat="51.04134"><ele>40.6</ele><time>2022-06-12T06:42:57.000Z</time></trkpt><trkpt lon="5.886345" lat="51.041344"><ele>40.6</ele><time>2022-06-12T06:42:58.000Z</time></trkpt><trkpt lon="5.886458" lat="51.041347"><ele>40.6</ele><time>2022-06-12T06:42:59.000Z</time></trkpt><trkpt lon="5.886569" lat="51.041347"><ele>40.6</ele><time>2022-06-12T06:43:00.000Z</time></trkpt><trkpt lon="5.886683" lat="51.041355"><ele>40.6</ele><time>2022-06-12T06:43:01.000Z</time></trkpt><trkpt lon="5.886793" lat="51.041359"><ele>40.6</ele><time>2022-06-12T06:43:02.000Z</time></trkpt><trkpt lon="5.8869" lat="51.041363"><ele>40.8</ele><time>2022-06-12T06:43:03.000Z</time></trkpt><trkpt lon="5.887009" lat="51.041367"><ele>40.8</ele><time>2022-06-12T06:43:04.000Z</time></trkpt><trkpt lon="5.887114" lat="51.04137"><ele>40.8</ele><time>2022-06-12T06:43:05.000Z</time></trkpt><trkpt lon="5.887215" lat="51.041374"><ele>40.8</ele><time>2022-06-12T06:43:06.000Z</time></trkpt><trkpt lon="5.88733" lat="51.041378"><ele>40.6</ele><time>2022-06-12T06:43:07.000Z</time></trkpt><trkpt lon="5.887436" lat="51.041382"><ele>40.6</ele><time>2022-06-12T06:43:08.000Z</time></trkpt><trkpt lon="5.887553" lat="51.041389"><ele>40.6</ele><time>2022-06-12T06:43:09.000Z</time></trkpt><trkpt lon="5.887669" lat="51.041393"><ele>40.8</ele><time>2022-06-12T06:43:10.000Z</time></trkpt><trkpt lon="5.887788" lat="51.041401"><ele>40.8</ele><time>2022-06-12T06:43:11.000Z</time></trkpt><trkpt lon="5.88791" lat="51.041408"><ele>40.8</ele><time>2022-06-12T06:43:12.000Z</time></trkpt><trkpt lon="5.88802" lat="51.041415"><ele>40.8</ele><time>2022-06-12T06:43:13.000Z</time></trkpt><trkpt lon="5.888154" lat="51.041424"><ele>40.8</ele><time>2022-06-12T06:43:14.000Z</time></trkpt><trkpt lon="5.888278" lat="51.041431"><ele>40.8</ele><time>2022-06-12T06:43:15.000Z</time></trkpt><trkpt lon="5.888399" lat="51.041435"><ele>40.8</ele><time>2022-06-12T06:43:16.000Z</time></trkpt><trkpt lon="5.888516" lat="51.041443"><ele>40.8</ele><time>2022-06-12T06:43:17.000Z</time></trkpt><trkpt lon="5.88863" lat="51.041446"><ele>41</ele><time>2022-06-12T06:43:18.000Z</time></trkpt><trkpt lon="5.888751" lat="51.041454"><ele>41</ele><time>2022-06-12T06:43:19.000Z</time></trkpt><trkpt lon="5.888869" lat="51.041458"><ele>41</ele><time>2022-06-12T06:43:20.000Z</time></trkpt><trkpt lon="5.888987" lat="51.041466"><ele>41</ele><time>2022-06-12T06:43:21.000Z</time></trkpt><trkpt lon="5.889104" lat="51.041469"><ele>41</ele><time>2022-06-12T06:43:22.000Z</time></trkpt><trkpt lon="5.889221" lat="51.041473"><ele>41.2</ele><time>2022-06-12T06:43:23.000Z</time></trkpt><trkpt lon="5.889339" lat="51.041481"><ele>41.2</ele><time>2022-06-12T06:43:24.000Z</time></trkpt><trkpt lon="5.889455" lat="51.041485"><ele>41.2</ele><time>2022-06-12T06:43:25.000Z</time></trkpt><trkpt lon="5.889571" lat="51.041489"><ele>41.2</ele><time>2022-06-12T06:43:26.000Z</time></trkpt><trkpt lon="5.889689" lat="51.041496"><ele>41.4</ele><time>2022-06-12T06:43:27.000Z</time></trkpt><trkpt lon="5.889798" lat="51.0415"><ele>41.4</ele><time>2022-06-12T06:43:28.000Z</time></trkpt><trkpt lon="5.889917" lat="51.041507"><ele>41.4</ele><time>2022-06-12T06:43:29.000Z</time></trkpt><trkpt lon="5.890032" lat="51.041511"><ele>41.6</ele><time>2022-06-12T06:43:30.000Z</time></trkpt><trkpt lon="5.890147" lat="51.041515"><ele>41.6</ele><time>2022-06-12T06:43:31.000Z</time></trkpt><trkpt lon="5.890264" lat="51.041523"><ele>41.6</ele><time>2022-06-12T06:43:32.000Z</time></trkpt><trkpt lon="5.89038" lat="51.041527"><ele>41.6</ele><time>2022-06-12T06:43:33.000Z</time></trkpt><trkpt lon="5.890495" lat="51.04153"><ele>41.6</ele><time>2022-06-12T06:43:34.000Z</time></trkpt><trkpt lon="5.890611" lat="51.041534"><ele>41.8</ele><time>2022-06-12T06:43:35.000Z</time></trkpt><trkpt lon="5.890716" lat="51.041538"><ele>41.8</ele><time>2022-06-12T06:43:36.000Z</time></trkpt><trkpt lon="5.890842" lat="51.041546"><ele>41.8</ele><time>2022-06-12T06:43:37.000Z</time></trkpt><trkpt lon="5.890959" lat="51.04155"><ele>41.8</ele><time>2022-06-12T06:43:38.000Z</time></trkpt><trkpt lon="5.891073" lat="51.041553"><ele>41.8</ele><time>2022-06-12T06:43:39.000Z</time></trkpt><trkpt lon="5.891191" lat="51.041554"><ele>41.8</ele><time>2022-06-12T06:43:40.000Z</time></trkpt><trkpt lon="5.891305" lat="51.041557"><ele>41.8</ele><time>2022-06-12T06:43:41.000Z</time></trkpt><trkpt lon="5.891424" lat="51.041561"><ele>41.8</ele><time>2022-06-12T06:43:42.000Z</time></trkpt><trkpt lon="5.89154" lat="51.041565"><ele>41.8</ele><time>2022-06-12T06:43:43.000Z</time></trkpt><trkpt lon="5.891657" lat="51.041565"><ele>41.6</ele><time>2022-06-12T06:43:44.000Z</time></trkpt><trkpt lon="5.891773" lat="51.041565"><ele>41.6</ele><time>2022-06-12T06:43:45.000Z</time></trkpt><trkpt lon="5.89189" lat="51.041569"><ele>41.6</ele><time>2022-06-12T06:43:46.000Z</time></trkpt><trkpt lon="5.892007" lat="51.041569"><ele>41.6</ele><time>2022-06-12T06:43:47.000Z</time></trkpt><trkpt lon="5.892121" lat="51.041572"><ele>41.6</ele><time>2022-06-12T06:43:48.000Z</time></trkpt><trkpt lon="5.892242" lat="51.041573"><ele>41.6</ele><time>2022-06-12T06:43:49.000Z</time></trkpt><trkpt lon="5.89236" lat="51.041569"><ele>41.4</ele><time>2022-06-12T06:43:50.000Z</time></trkpt><trkpt lon="5.892477" lat="51.041569"><ele>41.4</ele><time>2022-06-12T06:43:51.000Z</time></trkpt><trkpt lon="5.892593" lat="51.041569"><ele>41.4</ele><time>2022-06-12T06:43:52.000Z</time></trkpt><trkpt lon="5.892712" lat="51.041565"><ele>41.4</ele><time>2022-06-12T06:43:53.000Z</time></trkpt><trkpt lon="5.892829" lat="51.041565"><ele>41.6</ele><time>2022-06-12T06:43:54.000Z</time></trkpt><trkpt lon="5.892949" lat="51.041561"><ele>41.4</ele><time>2022-06-12T06:43:55.000Z</time></trkpt><trkpt lon="5.893067" lat="51.041557"><ele>41.4</ele><time>2022-06-12T06:43:56.000Z</time></trkpt><trkpt lon="5.893185" lat="51.041554"><ele>41.4</ele><time>2022-06-12T06:43:57.000Z</time></trkpt><trkpt lon="5.893305" lat="51.041554"><ele>41.4</ele><time>2022-06-12T06:43:58.000Z</time></trkpt><trkpt lon="5.893407" lat="51.041547"><ele>41.4</ele><time>2022-06-12T06:43:59.000Z</time></trkpt><trkpt lon="5.893539" lat="51.041542"><ele>41.2</ele><time>2022-06-12T06:44:00.000Z</time></trkpt><trkpt lon="5.893646" lat="51.041539"><ele>41.2</ele><time>2022-06-12T06:44:01.000Z</time></trkpt><trkpt lon="5.893776" lat="51.041531"><ele>41.2</ele><time>2022-06-12T06:44:02.000Z</time></trkpt><trkpt lon="5.893897" lat="51.041527"><ele>41.2</ele><time>2022-06-12T06:44:03.000Z</time></trkpt><trkpt lon="5.894018" lat="51.041519"><ele>41.2</ele><time>2022-06-12T06:44:04.000Z</time></trkpt><trkpt lon="5.89414" lat="51.041512"><ele>41.2</ele><time>2022-06-12T06:44:05.000Z</time></trkpt><trkpt lon="5.894265" lat="51.041504"><ele>41.2</ele><time>2022-06-12T06:44:06.000Z</time></trkpt><trkpt lon="5.894388" lat="51.0415"><ele>41.2</ele><time>2022-06-12T06:44:07.000Z</time></trkpt><trkpt lon="5.894509" lat="51.041489"><ele>41</ele><time>2022-06-12T06:44:08.000Z</time></trkpt><trkpt lon="5.894631" lat="51.041481"><ele>41</ele><time>2022-06-12T06:44:09.000Z</time></trkpt><trkpt lon="5.89475" lat="51.041474"><ele>41</ele><time>2022-06-12T06:44:10.000Z</time></trkpt><trkpt lon="5.89487" lat="51.041466"><ele>41</ele><time>2022-06-12T06:44:11.000Z</time></trkpt><trkpt lon="5.89499" lat="51.041455"><ele>41</ele><time>2022-06-12T06:44:12.000Z</time></trkpt><trkpt lon="5.895109" lat="51.041447"><ele>41</ele><time>2022-06-12T06:44:13.000Z</time></trkpt><trkpt lon="5.895229" lat="51.041435"><ele>41</ele><time>2022-06-12T06:44:14.000Z</time></trkpt><trkpt lon="5.895347" lat="51.041424"><ele>41</ele><time>2022-06-12T06:44:15.000Z</time></trkpt><trkpt lon="5.895468" lat="51.041413"><ele>40.8</ele><time>2022-06-12T06:44:16.000Z</time></trkpt><trkpt lon="5.895586" lat="51.041401"><ele>40.8</ele><time>2022-06-12T06:44:17.000Z</time></trkpt><trkpt lon="5.895707" lat="51.04139"><ele>40.8</ele><time>2022-06-12T06:44:18.000Z</time></trkpt><trkpt lon="5.895821" lat="51.041375"><ele>40.8</ele><time>2022-06-12T06:44:19.000Z</time></trkpt><trkpt lon="5.895937" lat="51.041363"><ele>40.8</ele><time>2022-06-12T06:44:20.000Z</time></trkpt><trkpt lon="5.896051" lat="51.041352"><ele>40.8</ele><time>2022-06-12T06:44:21.000Z</time></trkpt><trkpt lon="5.896168" lat="51.04134"><ele>40.8</ele><time>2022-06-12T06:44:22.000Z</time></trkpt><trkpt lon="5.896281" lat="51.041326"><ele>40.8</ele><time>2022-06-12T06:44:23.000Z</time></trkpt><trkpt lon="5.896402" lat="51.04131"><ele>40.8</ele><time>2022-06-12T06:44:24.000Z</time></trkpt><trkpt lon="5.896516" lat="51.041295"><ele>40.8</ele><time>2022-06-12T06:44:25.000Z</time></trkpt><trkpt lon="5.896631" lat="51.041279"><ele>40.8</ele><time>2022-06-12T06:44:26.000Z</time></trkpt><trkpt lon="5.896745" lat="51.041264"><ele>40.8</ele><time>2022-06-12T06:44:27.000Z</time></trkpt><trkpt lon="5.896862" lat="51.041249"><ele>40.8</ele><time>2022-06-12T06:44:28.000Z</time></trkpt><trkpt lon="5.896978" lat="51.041234"><ele>40.8</ele><time>2022-06-12T06:44:29.000Z</time></trkpt><trkpt lon="5.897092" lat="51.041215"><ele>40.8</ele><time>2022-06-12T06:44:30.000Z</time></trkpt><trkpt lon="5.897209" lat="51.041196"><ele>40.8</ele><time>2022-06-12T06:44:31.000Z</time></trkpt><trkpt lon="5.897325" lat="51.04118"><ele>41</ele><time>2022-06-12T06:44:32.000Z</time></trkpt><trkpt lon="5.89744" lat="51.041161"><ele>41</ele><time>2022-06-12T06:44:33.000Z</time></trkpt><trkpt lon="5.897554" lat="51.041146"><ele>41</ele><time>2022-06-12T06:44:34.000Z</time></trkpt><trkpt lon="5.897666" lat="51.041127"><ele>41.2</ele><time>2022-06-12T06:44:35.000Z</time></trkpt><trkpt lon="5.897777" lat="51.041108"><ele>41.2</ele><time>2022-06-12T06:44:36.000Z</time></trkpt><trkpt lon="5.897886" lat="51.041089"><ele>41.2</ele><time>2022-06-12T06:44:37.000Z</time></trkpt><trkpt lon="5.898" lat="51.041066"><ele>41.2</ele><time>2022-06-12T06:44:38.000Z</time></trkpt><trkpt lon="5.898109" lat="51.04105"><ele>41.2</ele><time>2022-06-12T06:44:39.000Z</time></trkpt><trkpt lon="5.898222" lat="51.041028"><ele>41.2</ele><time>2022-06-12T06:44:40.000Z</time></trkpt><trkpt lon="5.898328" lat="51.041012"><ele>41.2</ele><time>2022-06-12T06:44:41.000Z</time></trkpt><trkpt lon="5.898438" lat="51.040993"><ele>41.4</ele><time>2022-06-12T06:44:42.000Z</time></trkpt><trkpt lon="5.898548" lat="51.04097"><ele>41.4</ele><time>2022-06-12T06:44:43.000Z</time></trkpt><trkpt lon="5.898657" lat="51.040951"><ele>41.4</ele><time>2022-06-12T06:44:44.000Z</time></trkpt><trkpt lon="5.898766" lat="51.040928"><ele>41.4</ele><time>2022-06-12T06:44:45.000Z</time></trkpt><trkpt lon="5.898875" lat="51.040905"><ele>41.6</ele><time>2022-06-12T06:44:46.000Z</time></trkpt><trkpt lon="5.898978" lat="51.04089"><ele>41.6</ele><time>2022-06-12T06:44:47.000Z</time></trkpt><trkpt lon="5.899083" lat="51.040868"><ele>41.6</ele><time>2022-06-12T06:44:48.000Z</time></trkpt><trkpt lon="5.89919" lat="51.040845"><ele>41.6</ele><time>2022-06-12T06:44:49.000Z</time></trkpt><trkpt lon="5.899294" lat="51.040822"><ele>41.6</ele><time>2022-06-12T06:44:50.000Z</time></trkpt><trkpt lon="5.899394" lat="51.0408"><ele>41.8</ele><time>2022-06-12T06:44:51.000Z</time></trkpt><trkpt lon="5.899499" lat="51.040776"><ele>41.8</ele><time>2022-06-12T06:44:52.000Z</time></trkpt><trkpt lon="5.899598" lat="51.040753"><ele>41.8</ele><time>2022-06-12T06:44:53.000Z</time></trkpt><trkpt lon="5.899697" lat="51.040731"><ele>41.8</ele><time>2022-06-12T06:44:54.000Z</time></trkpt><trkpt lon="5.899796" lat="51.040707"><ele>41.8</ele><time>2022-06-12T06:44:55.000Z</time></trkpt><trkpt lon="5.899894" lat="51.040684"><ele>41.8</ele><time>2022-06-12T06:44:56.000Z</time></trkpt><trkpt lon="5.899988" lat="51.040662"><ele>42</ele><time>2022-06-12T06:44:57.000Z</time></trkpt><trkpt lon="5.900084" lat="51.040631"><ele>42</ele><time>2022-06-12T06:44:58.000Z</time></trkpt><trkpt lon="5.900176" lat="51.040604"><ele>42.2</ele><time>2022-06-12T06:44:59.000Z</time></trkpt><trkpt lon="5.900266" lat="51.040578"><ele>42.2</ele><time>2022-06-12T06:45:00.000Z</time></trkpt><trkpt lon="5.900359" lat="51.040551"><ele>42.4</ele><time>2022-06-12T06:45:01.000Z</time></trkpt><trkpt lon="5.900451" lat="51.040524"><ele>42.4</ele><time>2022-06-12T06:45:02.000Z</time></trkpt><trkpt lon="5.900535" lat="51.040502"><ele>42.6</ele><time>2022-06-12T06:45:03.000Z</time></trkpt><trkpt lon="5.90062" lat="51.040478"><ele>42.6</ele><time>2022-06-12T06:45:04.000Z</time></trkpt><trkpt lon="5.900696" lat="51.040455"><ele>42.8</ele><time>2022-06-12T06:45:05.000Z</time></trkpt><trkpt lon="5.900768" lat="51.040436"><ele>42.8</ele><time>2022-06-12T06:45:06.000Z</time></trkpt><trkpt lon="5.900834" lat="51.040421"><ele>43</ele><time>2022-06-12T06:45:07.000Z</time></trkpt><trkpt lon="5.900896" lat="51.040413"><ele>43</ele><time>2022-06-12T06:45:08.000Z</time></trkpt><trkpt lon="5.900953" lat="51.040409"><ele>43</ele><time>2022-06-12T06:45:09.000Z</time></trkpt><trkpt lon="5.901005" lat="51.040413"><ele>43</ele><time>2022-06-12T06:45:10.000Z</time></trkpt><trkpt lon="5.901047" lat="51.04042"><ele>43</ele><time>2022-06-12T06:45:11.000Z</time></trkpt><trkpt lon="5.90108" lat="51.040432"><ele>43</ele><time>2022-06-12T06:45:12.000Z</time></trkpt><trkpt lon="5.901104" lat="51.040447"><ele>43</ele><time>2022-06-12T06:45:13.000Z</time></trkpt><trkpt lon="5.90112" lat="51.040458"><ele>43</ele><time>2022-06-12T06:45:14.000Z</time></trkpt><trkpt lon="5.901131" lat="51.040473"><ele>43</ele><time>2022-06-12T06:45:15.000Z</time></trkpt><trkpt lon="5.901143" lat="51.040481"><ele>43</ele><time>2022-06-12T06:45:16.000Z</time></trkpt><trkpt lon="5.901162" lat="51.040496"><ele>43</ele><time>2022-06-12T06:45:17.000Z</time></trkpt><trkpt lon="5.901191" lat="51.040504"><ele>42.8</ele><time>2022-06-12T06:45:18.000Z</time></trkpt><trkpt lon="5.901229" lat="51.040501"><ele>42.8</ele><time>2022-06-12T06:45:19.000Z</time></trkpt><trkpt lon="5.901268" lat="51.04049"><ele>42.8</ele><time>2022-06-12T06:45:20.000Z</time></trkpt><trkpt lon="5.901302" lat="51.040467"><ele>42.8</ele><time>2022-06-12T06:45:21.000Z</time></trkpt><trkpt lon="5.901321" lat="51.040429"><ele>42.8</ele><time>2022-06-12T06:45:22.000Z</time></trkpt><trkpt lon="5.901339" lat="51.040384"><ele>42.8</ele><time>2022-06-12T06:45:23.000Z</time></trkpt><trkpt lon="5.901377" lat="51.040338"><ele>42.8</ele><time>2022-06-12T06:45:24.000Z</time></trkpt><trkpt lon="5.901429" lat="51.0403"><ele>42.6</ele><time>2022-06-12T06:45:25.000Z</time></trkpt><trkpt lon="5.901498" lat="51.040258"><ele>42.4</ele><time>2022-06-12T06:45:26.000Z</time></trkpt><trkpt lon="5.901579" lat="51.04022"><ele>42.4</ele><time>2022-06-12T06:45:27.000Z</time></trkpt><trkpt lon="5.901664" lat="51.040181"><ele>42.4</ele><time>2022-06-12T06:45:28.000Z</time></trkpt><trkpt lon="5.901757" lat="51.040143"><ele>42.4</ele><time>2022-06-12T06:45:29.000Z</time></trkpt><trkpt lon="5.901855" lat="51.040109"><ele>42.4</ele><time>2022-06-12T06:45:30.000Z</time></trkpt><trkpt lon="5.901956" lat="51.040075"><ele>42.6</ele><time>2022-06-12T06:45:31.000Z</time></trkpt><trkpt lon="5.902061" lat="51.04004"><ele>42.6</ele><time>2022-06-12T06:45:32.000Z</time></trkpt><trkpt lon="5.902166" lat="51.04001"><ele>42.6</ele><time>2022-06-12T06:45:33.000Z</time></trkpt><trkpt lon="5.902272" lat="51.039975"><ele>42.6</ele><time>2022-06-12T06:45:34.000Z</time></trkpt><trkpt lon="5.902375" lat="51.039941"><ele>42.6</ele><time>2022-06-12T06:45:35.000Z</time></trkpt><trkpt lon="5.902474" lat="51.039908"><ele>42.6</ele><time>2022-06-12T06:45:36.000Z</time></trkpt><trkpt lon="5.902576" lat="51.039873"><ele>42.6</ele><time>2022-06-12T06:45:37.000Z</time></trkpt><trkpt lon="5.902679" lat="51.039838"><ele>42.6</ele><time>2022-06-12T06:45:38.000Z</time></trkpt><trkpt lon="5.90278" lat="51.0398"><ele>42.4</ele><time>2022-06-12T06:45:39.000Z</time></trkpt><trkpt lon="5.902881" lat="51.039765"><ele>42.4</ele><time>2022-06-12T06:45:40.000Z</time></trkpt><trkpt lon="5.902978" lat="51.039728"><ele>42.4</ele><time>2022-06-12T06:45:41.000Z</time></trkpt><trkpt lon="5.903076" lat="51.039689"><ele>42.2</ele><time>2022-06-12T06:45:42.000Z</time></trkpt><trkpt lon="5.903171" lat="51.039655"><ele>42.4</ele><time>2022-06-12T06:45:43.000Z</time></trkpt><trkpt lon="5.903261" lat="51.039617"><ele>42.4</ele><time>2022-06-12T06:45:44.000Z</time></trkpt><trkpt lon="5.903352" lat="51.039586"><ele>42.4</ele><time>2022-06-12T06:45:45.000Z</time></trkpt><trkpt lon="5.90344" lat="51.039553"><ele>42.4</ele><time>2022-06-12T06:45:46.000Z</time></trkpt><trkpt lon="5.903524" lat="51.039521"><ele>42.2</ele><time>2022-06-12T06:45:47.000Z</time></trkpt><trkpt lon="5.903621" lat="51.03948"><ele>42.2</ele><time>2022-06-12T06:45:48.000Z</time></trkpt><trkpt lon="5.903711" lat="51.039445"><ele>42.2</ele><time>2022-06-12T06:45:49.000Z</time></trkpt><trkpt lon="5.903799" lat="51.039411"><ele>42.2</ele><time>2022-06-12T06:45:50.000Z</time></trkpt><trkpt lon="5.903884" lat="51.039376"><ele>42.2</ele><time>2022-06-12T06:45:51.000Z</time></trkpt><trkpt lon="5.903969" lat="51.039346"><ele>42.4</ele><time>2022-06-12T06:45:52.000Z</time></trkpt><trkpt lon="5.904053" lat="51.039308"><ele>42.4</ele><time>2022-06-12T06:45:53.000Z</time></trkpt><trkpt lon="5.904135" lat="51.039274"><ele>42.4</ele><time>2022-06-12T06:45:54.000Z</time></trkpt><trkpt lon="5.904215" lat="51.039243"><ele>42.4</ele><time>2022-06-12T06:45:55.000Z</time></trkpt><trkpt lon="5.904294" lat="51.039209"><ele>42.4</ele><time>2022-06-12T06:45:56.000Z</time></trkpt><trkpt lon="5.904367" lat="51.039174"><ele>42.4</ele><time>2022-06-12T06:45:57.000Z</time></trkpt><trkpt lon="5.904437" lat="51.039141"><ele>42.4</ele><time>2022-06-12T06:45:58.000Z</time></trkpt><trkpt lon="5.904512" lat="51.039098"><ele>42.4</ele><time>2022-06-12T06:45:59.000Z</time></trkpt><trkpt lon="5.904588" lat="51.039049"><ele>42.4</ele><time>2022-06-12T06:46:00.000Z</time></trkpt><trkpt lon="5.904669" lat="51.038999"><ele>42.4</ele><time>2022-06-12T06:46:01.000Z</time></trkpt><trkpt lon="5.904759" lat="51.038953"><ele>42.2</ele><time>2022-06-12T06:46:02.000Z</time></trkpt><trkpt lon="5.904851" lat="51.038908"><ele>42.2</ele><time>2022-06-12T06:46:03.000Z</time></trkpt><trkpt lon="5.904947" lat="51.038866"><ele>42.2</ele><time>2022-06-12T06:46:04.000Z</time></trkpt><trkpt lon="5.905042" lat="51.03882"><ele>42.2</ele><time>2022-06-12T06:46:05.000Z</time></trkpt><trkpt lon="5.905136" lat="51.038778"><ele>42.2</ele><time>2022-06-12T06:46:06.000Z</time></trkpt><trkpt lon="5.905228" lat="51.038736"><ele>42</ele><time>2022-06-12T06:46:07.000Z</time></trkpt><trkpt lon="5.90532" lat="51.038695"><ele>42</ele><time>2022-06-12T06:46:08.000Z</time></trkpt><trkpt lon="5.905413" lat="51.038653"><ele>41.8</ele><time>2022-06-12T06:46:09.000Z</time></trkpt><trkpt lon="5.905506" lat="51.038614"><ele>41.8</ele><time>2022-06-12T06:46:10.000Z</time></trkpt><trkpt lon="5.905594" lat="51.038573"><ele>41.8</ele><time>2022-06-12T06:46:11.000Z</time></trkpt><trkpt lon="5.905687" lat="51.038533"><ele>41.8</ele><time>2022-06-12T06:46:12.000Z</time></trkpt><trkpt lon="5.905776" lat="51.038492"><ele>41.8</ele><time>2022-06-12T06:46:13.000Z</time></trkpt><trkpt lon="5.905867" lat="51.038454"><ele>41.6</ele><time>2022-06-12T06:46:14.000Z</time></trkpt><trkpt lon="5.90596" lat="51.038417"><ele>41.6</ele><time>2022-06-12T06:46:15.000Z</time></trkpt><trkpt lon="5.906058" lat="51.038382"><ele>41.8</ele><time>2022-06-12T06:46:16.000Z</time></trkpt><trkpt lon="5.906155" lat="51.038347"><ele>42</ele><time>2022-06-12T06:46:17.000Z</time></trkpt><trkpt lon="5.906255" lat="51.038316"><ele>42</ele><time>2022-06-12T06:46:18.000Z</time></trkpt><trkpt lon="5.906354" lat="51.03829"><ele>42.2</ele><time>2022-06-12T06:46:19.000Z</time></trkpt><trkpt lon="5.906462" lat="51.038266"><ele>42.4</ele><time>2022-06-12T06:46:20.000Z</time></trkpt><trkpt lon="5.906566" lat="51.038251"><ele>42.4</ele><time>2022-06-12T06:46:21.000Z</time></trkpt><trkpt lon="5.90667" lat="51.038234"><ele>42.4</ele><time>2022-06-12T06:46:22.000Z</time></trkpt><trkpt lon="5.906774" lat="51.038216"><ele>42.6</ele><time>2022-06-12T06:46:23.000Z</time></trkpt><trkpt lon="5.906876" lat="51.038205"><ele>42.6</ele><time>2022-06-12T06:46:24.000Z</time></trkpt><trkpt lon="5.906974" lat="51.038193"><ele>42.8</ele><time>2022-06-12T06:46:25.000Z</time></trkpt><trkpt lon="5.907074" lat="51.038185"><ele>43</ele><time>2022-06-12T06:46:26.000Z</time></trkpt><trkpt lon="5.907175" lat="51.038178"><ele>43</ele><time>2022-06-12T06:46:27.000Z</time></trkpt><trkpt lon="5.90728" lat="51.03817"><ele>43.2</ele><time>2022-06-12T06:46:28.000Z</time></trkpt><trkpt lon="5.907388" lat="51.038159"><ele>43.4</ele><time>2022-06-12T06:46:29.000Z</time></trkpt><trkpt lon="5.907493" lat="51.038147"><ele>43.6</ele><time>2022-06-12T06:46:30.000Z</time></trkpt><trkpt lon="5.907597" lat="51.038132"><ele>43.8</ele><time>2022-06-12T06:46:31.000Z</time></trkpt><trkpt lon="5.907695" lat="51.038117"><ele>44</ele><time>2022-06-12T06:46:32.000Z</time></trkpt><trkpt lon="5.907802" lat="51.038102"><ele>44</ele><time>2022-06-12T06:46:33.000Z</time></trkpt><trkpt lon="5.907909" lat="51.038086"><ele>44.2</ele><time>2022-06-12T06:46:34.000Z</time></trkpt><trkpt lon="5.908016" lat="51.038071"><ele>44.2</ele><time>2022-06-12T06:46:35.000Z</time></trkpt><trkpt lon="5.908126" lat="51.038059"><ele>44.2</ele><time>2022-06-12T06:46:36.000Z</time></trkpt><trkpt lon="5.908235" lat="51.038048"><ele>44.2</ele><time>2022-06-12T06:46:37.000Z</time></trkpt><trkpt lon="5.908345" lat="51.038037"><ele>44.2</ele><time>2022-06-12T06:46:38.000Z</time></trkpt><trkpt lon="5.908461" lat="51.038021"><ele>44.2</ele><time>2022-06-12T06:46:39.000Z</time></trkpt><trkpt lon="5.908575" lat="51.038006"><ele>44.2</ele><time>2022-06-12T06:46:40.000Z</time></trkpt><trkpt lon="5.90869" lat="51.037987"><ele>44.2</ele><time>2022-06-12T06:46:41.000Z</time></trkpt><trkpt lon="5.908803" lat="51.037965"><ele>44</ele><time>2022-06-12T06:46:42.000Z</time></trkpt><trkpt lon="5.908916" lat="51.037942"><ele>44</ele><time>2022-06-12T06:46:43.000Z</time></trkpt><trkpt lon="5.909024" lat="51.037915"><ele>43.8</ele><time>2022-06-12T06:46:44.000Z</time></trkpt><trkpt lon="5.909135" lat="51.037888"><ele>43.8</ele><time>2022-06-12T06:46:45.000Z</time></trkpt><trkpt lon="5.909243" lat="51.037865"><ele>43.8</ele><time>2022-06-12T06:46:46.000Z</time></trkpt><trkpt lon="5.909352" lat="51.037835"><ele>43.6</ele><time>2022-06-12T06:46:47.000Z</time></trkpt><trkpt lon="5.909461" lat="51.037805"><ele>43.6</ele><time>2022-06-12T06:46:48.000Z</time></trkpt><trkpt lon="5.90957" lat="51.037774"><ele>43.6</ele><time>2022-06-12T06:46:49.000Z</time></trkpt><trkpt lon="5.909684" lat="51.037743"><ele>43.6</ele><time>2022-06-12T06:46:50.000Z</time></trkpt><trkpt lon="5.909794" lat="51.037713"><ele>43.8</ele><time>2022-06-12T06:46:51.000Z</time></trkpt><trkpt lon="5.909901" lat="51.037686"><ele>44.2</ele><time>2022-06-12T06:46:52.000Z</time></trkpt><trkpt lon="5.91001" lat="51.03766"><ele>44.4</ele><time>2022-06-12T06:46:53.000Z</time></trkpt><trkpt lon="5.910117" lat="51.037636"><ele>44.6</ele><time>2022-06-12T06:46:54.000Z</time></trkpt><trkpt lon="5.910223" lat="51.037614"><ele>45</ele><time>2022-06-12T06:46:55.000Z</time></trkpt><trkpt lon="5.910328" lat="51.037591"><ele>45.2</ele><time>2022-06-12T06:46:56.000Z</time></trkpt><trkpt lon="5.910432" lat="51.037572"><ele>45.4</ele><time>2022-06-12T06:46:57.000Z</time></trkpt><trkpt lon="5.910536" lat="51.037552"><ele>45.6</ele><time>2022-06-12T06:46:58.000Z</time></trkpt><trkpt lon="5.910639" lat="51.03753"><ele>45.8</ele><time>2022-06-12T06:46:59.000Z</time></trkpt><trkpt lon="5.910742" lat="51.03751"><ele>45.8</ele><time>2022-06-12T06:47:00.000Z</time></trkpt><trkpt lon="5.910846" lat="51.037484"><ele>46</ele><time>2022-06-12T06:47:01.000Z</time></trkpt><trkpt lon="5.910948" lat="51.037457"><ele>46</ele><time>2022-06-12T06:47:02.000Z</time></trkpt><trkpt lon="5.911051" lat="51.03743"><ele>46</ele><time>2022-06-12T06:47:03.000Z</time></trkpt><trkpt lon="5.911156" lat="51.0374"><ele>46</ele><time>2022-06-12T06:47:04.000Z</time></trkpt><trkpt lon="5.911261" lat="51.037372"><ele>46</ele><time>2022-06-12T06:47:05.000Z</time></trkpt><trkpt lon="5.911367" lat="51.037343"><ele>46</ele><time>2022-06-12T06:47:06.000Z</time></trkpt><trkpt lon="5.911472" lat="51.037316"><ele>46</ele><time>2022-06-12T06:47:07.000Z</time></trkpt><trkpt lon="5.911576" lat="51.03729"><ele>46</ele><time>2022-06-12T06:47:08.000Z</time></trkpt><trkpt lon="5.911676" lat="51.037263"><ele>46</ele><time>2022-06-12T06:47:09.000Z</time></trkpt><trkpt lon="5.911776" lat="51.037232"><ele>46</ele><time>2022-06-12T06:47:10.000Z</time></trkpt><trkpt lon="5.911872" lat="51.037198"><ele>46</ele><time>2022-06-12T06:47:11.000Z</time></trkpt><trkpt lon="5.911971" lat="51.037167"><ele>45.8</ele><time>2022-06-12T06:47:12.000Z</time></trkpt><trkpt lon="5.912065" lat="51.037134"><ele>45.8</ele><time>2022-06-12T06:47:13.000Z</time></trkpt><trkpt lon="5.912157" lat="51.037095"><ele>45.6</ele><time>2022-06-12T06:47:14.000Z</time></trkpt><trkpt lon="5.91225" lat="51.037057"><ele>45.4</ele><time>2022-06-12T06:47:15.000Z</time></trkpt><trkpt lon="5.912342" lat="51.037015"><ele>45.2</ele><time>2022-06-12T06:47:16.000Z</time></trkpt><trkpt lon="5.912432" lat="51.03697"><ele>45.2</ele><time>2022-06-12T06:47:17.000Z</time></trkpt><trkpt lon="5.912529" lat="51.036924"><ele>45</ele><time>2022-06-12T06:47:18.000Z</time></trkpt><trkpt lon="5.912628" lat="51.036882"><ele>44.8</ele><time>2022-06-12T06:47:19.000Z</time></trkpt><trkpt lon="5.91273" lat="51.03684"><ele>44.6</ele><time>2022-06-12T06:47:20.000Z</time></trkpt><trkpt lon="5.912828" lat="51.036795"><ele>44.4</ele><time>2022-06-12T06:47:21.000Z</time></trkpt><trkpt lon="5.912927" lat="51.036749"><ele>44.2</ele><time>2022-06-12T06:47:22.000Z</time></trkpt><trkpt lon="5.913027" lat="51.036703"><ele>44.2</ele><time>2022-06-12T06:47:23.000Z</time></trkpt><trkpt lon="5.913128" lat="51.036653"><ele>44</ele><time>2022-06-12T06:47:24.000Z</time></trkpt><trkpt lon="5.913224" lat="51.036605"><ele>44</ele><time>2022-06-12T06:47:25.000Z</time></trkpt><trkpt lon="5.913323" lat="51.036554"><ele>43.8</ele><time>2022-06-12T06:47:26.000Z</time></trkpt><trkpt lon="5.913415" lat="51.036504"><ele>43.6</ele><time>2022-06-12T06:47:27.000Z</time></trkpt><trkpt lon="5.913511" lat="51.036455"><ele>43.4</ele><time>2022-06-12T06:47:28.000Z</time></trkpt><trkpt lon="5.913606" lat="51.036412"><ele>43.4</ele><time>2022-06-12T06:47:29.000Z</time></trkpt><trkpt lon="5.913703" lat="51.036367"><ele>43.4</ele><time>2022-06-12T06:47:30.000Z</time></trkpt><trkpt lon="5.913794" lat="51.036326"><ele>43.4</ele><time>2022-06-12T06:47:31.000Z</time></trkpt><trkpt lon="5.913886" lat="51.036279"><ele>43.6</ele><time>2022-06-12T06:47:32.000Z</time></trkpt><trkpt lon="5.913981" lat="51.036237"><ele>43.8</ele><time>2022-06-12T06:47:33.000Z</time></trkpt><trkpt lon="5.914072" lat="51.036195"><ele>43.8</ele><time>2022-06-12T06:47:34.000Z</time></trkpt><trkpt lon="5.914169" lat="51.036153"><ele>44</ele><time>2022-06-12T06:47:35.000Z</time></trkpt><trkpt lon="5.914266" lat="51.036111"><ele>44.2</ele><time>2022-06-12T06:47:36.000Z</time></trkpt><trkpt lon="5.914364" lat="51.036073"><ele>44.2</ele><time>2022-06-12T06:47:37.000Z</time></trkpt><trkpt lon="5.914458" lat="51.036031"><ele>44.4</ele><time>2022-06-12T06:47:38.000Z</time></trkpt><trkpt lon="5.914552" lat="51.035989"><ele>44.4</ele><time>2022-06-12T06:47:39.000Z</time></trkpt><trkpt lon="5.914646" lat="51.035951"><ele>44.6</ele><time>2022-06-12T06:47:40.000Z</time></trkpt><trkpt lon="5.914741" lat="51.035913"><ele>44.8</ele><time>2022-06-12T06:47:41.000Z</time></trkpt><trkpt lon="5.914835" lat="51.035878"><ele>45</ele><time>2022-06-12T06:47:42.000Z</time></trkpt><trkpt lon="5.914928" lat="51.035837"><ele>45</ele><time>2022-06-12T06:47:43.000Z</time></trkpt><trkpt lon="5.915023" lat="51.035798"><ele>45.2</ele><time>2022-06-12T06:47:44.000Z</time></trkpt><trkpt lon="5.915112" lat="51.035764"><ele>45.4</ele><time>2022-06-12T06:47:45.000Z</time></trkpt><trkpt lon="5.91521" lat="51.035726"><ele>45.6</ele><time>2022-06-12T06:47:46.000Z</time></trkpt><trkpt lon="5.915307" lat="51.035688"><ele>45.6</ele><time>2022-06-12T06:47:47.000Z</time></trkpt><trkpt lon="5.915404" lat="51.035653"><ele>45.8</ele><time>2022-06-12T06:47:48.000Z</time></trkpt><trkpt lon="5.915501" lat="51.035619"><ele>45.8</ele><time>2022-06-12T06:47:49.000Z</time></trkpt><trkpt lon="5.915598" lat="51.035588"><ele>46</ele><time>2022-06-12T06:47:50.000Z</time></trkpt><trkpt lon="5.915699" lat="51.035554"><ele>46</ele><time>2022-06-12T06:47:51.000Z</time></trkpt><trkpt lon="5.915801" lat="51.03552"><ele>46</ele><time>2022-06-12T06:47:52.000Z</time></trkpt><trkpt lon="5.915908" lat="51.035489"><ele>46</ele><time>2022-06-12T06:47:53.000Z</time></trkpt><trkpt lon="5.916014" lat="51.035462"><ele>46</ele><time>2022-06-12T06:47:54.000Z</time></trkpt><trkpt lon="5.916119" lat="51.035432"><ele>45.8</ele><time>2022-06-12T06:47:55.000Z</time></trkpt><trkpt lon="5.916227" lat="51.035402"><ele>45.8</ele><time>2022-06-12T06:47:56.000Z</time></trkpt><trkpt lon="5.916335" lat="51.035375"><ele>45.8</ele><time>2022-06-12T06:47:57.000Z</time></trkpt><trkpt lon="5.91644" lat="51.035348"><ele>45.8</ele><time>2022-06-12T06:47:58.000Z</time></trkpt><trkpt lon="5.91655" lat="51.035321"><ele>45.8</ele><time>2022-06-12T06:47:59.000Z</time></trkpt><trkpt lon="5.916661" lat="51.035291"><ele>45.8</ele><time>2022-06-12T06:48:00.000Z</time></trkpt><trkpt lon="5.91677" lat="51.035268"><ele>45.8</ele><time>2022-06-12T06:48:01.000Z</time></trkpt><trkpt lon="5.91688" lat="51.035237"><ele>45.6</ele><time>2022-06-12T06:48:02.000Z</time></trkpt><trkpt lon="5.916989" lat="51.035211"><ele>45.6</ele><time>2022-06-12T06:48:03.000Z</time></trkpt><trkpt lon="5.917099" lat="51.03518"><ele>45.6</ele><time>2022-06-12T06:48:04.000Z</time></trkpt><trkpt lon="5.917208" lat="51.03515"><ele>45.6</ele><time>2022-06-12T06:48:05.000Z</time></trkpt><trkpt lon="5.917319" lat="51.035119"><ele>45.6</ele><time>2022-06-12T06:48:06.000Z</time></trkpt><trkpt lon="5.917431" lat="51.035089"><ele>45.4</ele><time>2022-06-12T06:48:07.000Z</time></trkpt><trkpt lon="5.917544" lat="51.035058"><ele>45.4</ele><time>2022-06-12T06:48:08.000Z</time></trkpt><trkpt lon="5.917654" lat="51.035031"><ele>45.2</ele><time>2022-06-12T06:48:09.000Z</time></trkpt><trkpt lon="5.917762" lat="51.035001"><ele>45</ele><time>2022-06-12T06:48:10.000Z</time></trkpt><trkpt lon="5.917871" lat="51.03497"><ele>45</ele><time>2022-06-12T06:48:11.000Z</time></trkpt><trkpt lon="5.917976" lat="51.03494"><ele>44.8</ele><time>2022-06-12T06:48:12.000Z</time></trkpt><trkpt lon="5.918083" lat="51.034909"><ele>44.8</ele><time>2022-06-12T06:48:13.000Z</time></trkpt><trkpt lon="5.918191" lat="51.034871"><ele>44.8</ele><time>2022-06-12T06:48:14.000Z</time></trkpt><trkpt lon="5.9183" lat="51.034837"><ele>44.8</ele><time>2022-06-12T06:48:15.000Z</time></trkpt><trkpt lon="5.918398" lat="51.034804"><ele>44.8</ele><time>2022-06-12T06:48:16.000Z</time></trkpt><trkpt lon="5.918504" lat="51.034768"><ele>44.8</ele><time>2022-06-12T06:48:17.000Z</time></trkpt><trkpt lon="5.918602" lat="51.034734"><ele>44.8</ele><time>2022-06-12T06:48:18.000Z</time></trkpt><trkpt lon="5.918698" lat="51.034696"><ele>45</ele><time>2022-06-12T06:48:19.000Z</time></trkpt><trkpt lon="5.91879" lat="51.034658"><ele>45</ele><time>2022-06-12T06:48:20.000Z</time></trkpt><trkpt lon="5.918884" lat="51.034616"><ele>45.2</ele><time>2022-06-12T06:48:21.000Z</time></trkpt><trkpt lon="5.918968" lat="51.034574"><ele>45.2</ele><time>2022-06-12T06:48:22.000Z</time></trkpt><trkpt lon="5.919046" lat="51.034528"><ele>45.2</ele><time>2022-06-12T06:48:23.000Z</time></trkpt><trkpt lon="5.919129" lat="51.034486"><ele>45.2</ele><time>2022-06-12T06:48:24.000Z</time></trkpt><trkpt lon="5.919211" lat="51.03444"><ele>45.4</ele><time>2022-06-12T06:48:25.000Z</time></trkpt><trkpt lon="5.919286" lat="51.034395"><ele>45.6</ele><time>2022-06-12T06:48:26.000Z</time></trkpt><trkpt lon="5.91936" lat="51.034345"><ele>45.8</ele><time>2022-06-12T06:48:27.000Z</time></trkpt><trkpt lon="5.919431" lat="51.034292"><ele>45.8</ele><time>2022-06-12T06:48:28.000Z</time></trkpt><trkpt lon="5.919508" lat="51.034249"><ele>46</ele><time>2022-06-12T06:48:29.000Z</time></trkpt><trkpt lon="5.919586" lat="51.034204"><ele>46.2</ele><time>2022-06-12T06:48:30.000Z</time></trkpt><trkpt lon="5.919667" lat="51.034162"><ele>46.4</ele><time>2022-06-12T06:48:31.000Z</time></trkpt><trkpt lon="5.919745" lat="51.03412"><ele>46.6</ele><time>2022-06-12T06:48:32.000Z</time></trkpt><trkpt lon="5.919827" lat="51.034078"><ele>46.6</ele><time>2022-06-12T06:48:33.000Z</time></trkpt><trkpt lon="5.919911" lat="51.03404"><ele>46.6</ele><time>2022-06-12T06:48:34.000Z</time></trkpt><trkpt lon="5.919993" lat="51.034002"><ele>46.8</ele><time>2022-06-12T06:48:35.000Z</time></trkpt><trkpt lon="5.920076" lat="51.033964"><ele>47</ele><time>2022-06-12T06:48:36.000Z</time></trkpt><trkpt lon="5.920161" lat="51.033925"><ele>47</ele><time>2022-06-12T06:48:37.000Z</time></trkpt><trkpt lon="5.920241" lat="51.033888"><ele>47.2</ele><time>2022-06-12T06:48:38.000Z</time></trkpt><trkpt lon="5.920324" lat="51.033845"><ele>47.2</ele><time>2022-06-12T06:48:39.000Z</time></trkpt><trkpt lon="5.920406" lat="51.033811"><ele>47.2</ele><time>2022-06-12T06:48:40.000Z</time></trkpt><trkpt lon="5.920487" lat="51.03377"><ele>47.2</ele><time>2022-06-12T06:48:41.000Z</time></trkpt><trkpt lon="5.920572" lat="51.033727"><ele>47.4</ele><time>2022-06-12T06:48:42.000Z</time></trkpt><trkpt lon="5.920655" lat="51.033685"><ele>47.4</ele><time>2022-06-12T06:48:43.000Z</time></trkpt><trkpt lon="5.920739" lat="51.033643"><ele>47.4</ele><time>2022-06-12T06:48:44.000Z</time></trkpt><trkpt lon="5.920817" lat="51.033601"><ele>47.2</ele><time>2022-06-12T06:48:45.000Z</time></trkpt><trkpt lon="5.920893" lat="51.033563"><ele>47.2</ele><time>2022-06-12T06:48:46.000Z</time></trkpt><trkpt lon="5.920964" lat="51.033521"><ele>47.2</ele><time>2022-06-12T06:48:47.000Z</time></trkpt><trkpt lon="5.921038" lat="51.033483"><ele>47.4</ele><time>2022-06-12T06:48:48.000Z</time></trkpt><trkpt lon="5.921112" lat="51.033444"><ele>47.4</ele><time>2022-06-12T06:48:49.000Z</time></trkpt><trkpt lon="5.921181" lat="51.033403"><ele>47.4</ele><time>2022-06-12T06:48:50.000Z</time></trkpt><trkpt lon="5.921244" lat="51.033365"><ele>47.6</ele><time>2022-06-12T06:48:51.000Z</time></trkpt><trkpt lon="5.921303" lat="51.033331"><ele>47.6</ele><time>2022-06-12T06:48:52.000Z</time></trkpt><trkpt lon="5.921354" lat="51.033304"><ele>47.8</ele><time>2022-06-12T06:48:53.000Z</time></trkpt><trkpt lon="5.921412" lat="51.033276"><ele>47.8</ele><time>2022-06-12T06:48:54.000Z</time></trkpt><trkpt lon="5.92147" lat="51.033246"><ele>47.8</ele><time>2022-06-12T06:48:55.000Z</time></trkpt><trkpt lon="5.921531" lat="51.033208"><ele>47.8</ele><time>2022-06-12T06:48:56.000Z</time></trkpt><trkpt lon="5.9216" lat="51.033166"><ele>47.8</ele><time>2022-06-12T06:48:57.000Z</time></trkpt><trkpt lon="5.921674" lat="51.033117"><ele>48</ele><time>2022-06-12T06:48:58.000Z</time></trkpt><trkpt lon="5.92175" lat="51.033071"><ele>48</ele><time>2022-06-12T06:48:59.000Z</time></trkpt><trkpt lon="5.921831" lat="51.033021"><ele>48</ele><time>2022-06-12T06:49:00.000Z</time></trkpt><trkpt lon="5.921914" lat="51.032972"><ele>48</ele><time>2022-06-12T06:49:01.000Z</time></trkpt><trkpt lon="5.921996" lat="51.032918"><ele>47.8</ele><time>2022-06-12T06:49:02.000Z</time></trkpt><trkpt lon="5.922078" lat="51.032869"><ele>47.8</ele><time>2022-06-12T06:49:03.000Z</time></trkpt><trkpt lon="5.922156" lat="51.032812"><ele>47.8</ele><time>2022-06-12T06:49:04.000Z</time></trkpt><trkpt lon="5.922233" lat="51.032758"><ele>47.6</ele><time>2022-06-12T06:49:05.000Z</time></trkpt><trkpt lon="5.92231" lat="51.032701"><ele>47.8</ele><time>2022-06-12T06:49:06.000Z</time></trkpt><trkpt lon="5.92239" lat="51.032644"><ele>47.8</ele><time>2022-06-12T06:49:07.000Z</time></trkpt><trkpt lon="5.922466" lat="51.032587"><ele>47.8</ele><time>2022-06-12T06:49:08.000Z</time></trkpt><trkpt lon="5.922545" lat="51.032533"><ele>47.8</ele><time>2022-06-12T06:49:09.000Z</time></trkpt><trkpt lon="5.922624" lat="51.032476"><ele>48</ele><time>2022-06-12T06:49:10.000Z</time></trkpt><trkpt lon="5.922701" lat="51.032423"><ele>47.8</ele><time>2022-06-12T06:49:11.000Z</time></trkpt><trkpt lon="5.922778" lat="51.032373"><ele>47.8</ele><time>2022-06-12T06:49:12.000Z</time></trkpt><trkpt lon="5.922855" lat="51.032324"><ele>48</ele><time>2022-06-12T06:49:13.000Z</time></trkpt><trkpt lon="5.922932" lat="51.032274"><ele>47.8</ele><time>2022-06-12T06:49:14.000Z</time></trkpt><trkpt lon="5.923007" lat="51.032225"><ele>48</ele><time>2022-06-12T06:49:15.000Z</time></trkpt><trkpt lon="5.923084" lat="51.032179"><ele>48</ele><time>2022-06-12T06:49:16.000Z</time></trkpt><trkpt lon="5.923161" lat="51.032133"><ele>48.2</ele><time>2022-06-12T06:49:17.000Z</time></trkpt><trkpt lon="5.923241" lat="51.032094"><ele>48.4</ele><time>2022-06-12T06:49:18.000Z</time></trkpt><trkpt lon="5.923324" lat="51.032056"><ele>48.6</ele><time>2022-06-12T06:49:19.000Z</time></trkpt><trkpt lon="5.923413" lat="51.032025"><ele>48.8</ele><time>2022-06-12T06:49:20.000Z</time></trkpt><trkpt lon="5.923502" lat="51.031991"><ele>49</ele><time>2022-06-12T06:49:21.000Z</time></trkpt><trkpt lon="5.923595" lat="51.031957"><ele>49.2</ele><time>2022-06-12T06:49:22.000Z</time></trkpt><trkpt lon="5.923689" lat="51.031926"><ele>49.4</ele><time>2022-06-12T06:49:23.000Z</time></trkpt><trkpt lon="5.923784" lat="51.031899"><ele>49.6</ele><time>2022-06-12T06:49:24.000Z</time></trkpt><trkpt lon="5.923877" lat="51.031873"><ele>49.8</ele><time>2022-06-12T06:49:25.000Z</time></trkpt><trkpt lon="5.923974" lat="51.03185"><ele>49.8</ele><time>2022-06-12T06:49:26.000Z</time></trkpt><trkpt lon="5.924072" lat="51.031823"><ele>50</ele><time>2022-06-12T06:49:27.000Z</time></trkpt><trkpt lon="5.92417" lat="51.031804"><ele>50</ele><time>2022-06-12T06:49:28.000Z</time></trkpt><trkpt lon="5.924269" lat="51.031781"><ele>50.2</ele><time>2022-06-12T06:49:29.000Z</time></trkpt><trkpt lon="5.92436" lat="51.031758"><ele>50.2</ele><time>2022-06-12T06:49:30.000Z</time></trkpt><trkpt lon="5.924447" lat="51.031739"><ele>50.4</ele><time>2022-06-12T06:49:31.000Z</time></trkpt><trkpt lon="5.924529" lat="51.031716"><ele>50.4</ele><time>2022-06-12T06:49:32.000Z</time></trkpt><trkpt lon="5.924602" lat="51.031697"><ele>50.6</ele><time>2022-06-12T06:49:33.000Z</time></trkpt><trkpt lon="5.924665" lat="51.031678"><ele>50.6</ele><time>2022-06-12T06:49:34.000Z</time></trkpt><trkpt lon="5.92472" lat="51.031662"><ele>50.6</ele><time>2022-06-12T06:49:35.000Z</time></trkpt><trkpt lon="5.924779" lat="51.031644"><ele>50.8</ele><time>2022-06-12T06:49:36.000Z</time></trkpt><trkpt lon="5.924851" lat="51.031621"><ele>50.8</ele><time>2022-06-12T06:49:37.000Z</time></trkpt><trkpt lon="5.924931" lat="51.031598"><ele>50.6</ele><time>2022-06-12T06:49:38.000Z</time></trkpt><trkpt lon="5.925015" lat="51.031568"><ele>50.6</ele><time>2022-06-12T06:49:39.000Z</time></trkpt><trkpt lon="5.925104" lat="51.031537"><ele>50.6</ele><time>2022-06-12T06:49:40.000Z</time></trkpt><trkpt lon="5.925196" lat="51.031503"><ele>50.6</ele><time>2022-06-12T06:49:41.000Z</time></trkpt><trkpt lon="5.925293" lat="51.031473"><ele>50.6</ele><time>2022-06-12T06:49:42.000Z</time></trkpt><trkpt lon="5.925396" lat="51.031438"><ele>50.4</ele><time>2022-06-12T06:49:43.000Z</time></trkpt><trkpt lon="5.925496" lat="51.031407"><ele>50.4</ele><time>2022-06-12T06:49:44.000Z</time></trkpt><trkpt lon="5.925595" lat="51.031377"><ele>50.4</ele><time>2022-06-12T06:49:45.000Z</time></trkpt><trkpt lon="5.925695" lat="51.031343"><ele>50.4</ele><time>2022-06-12T06:49:46.000Z</time></trkpt><trkpt lon="5.925795" lat="51.031312"><ele>50.4</ele><time>2022-06-12T06:49:47.000Z</time></trkpt><trkpt lon="5.925893" lat="51.031282"><ele>50.6</ele><time>2022-06-12T06:49:48.000Z</time></trkpt><trkpt lon="5.925993" lat="51.031251"><ele>50.6</ele><time>2022-06-12T06:49:49.000Z</time></trkpt><trkpt lon="5.926089" lat="51.031217"><ele>50.6</ele><time>2022-06-12T06:49:50.000Z</time></trkpt><trkpt lon="5.926189" lat="51.031182"><ele>50.6</ele><time>2022-06-12T06:49:51.000Z</time></trkpt><trkpt lon="5.926284" lat="51.031144"><ele>50.6</ele><time>2022-06-12T06:49:52.000Z</time></trkpt><trkpt lon="5.926384" lat="51.03111"><ele>50.6</ele><time>2022-06-12T06:49:53.000Z</time></trkpt><trkpt lon="5.92648" lat="51.031076"><ele>50.8</ele><time>2022-06-12T06:49:54.000Z</time></trkpt><trkpt lon="5.926579" lat="51.031041"><ele>50.8</ele><time>2022-06-12T06:49:55.000Z</time></trkpt><trkpt lon="5.926677" lat="51.031011"><ele>50.8</ele><time>2022-06-12T06:49:56.000Z</time></trkpt><trkpt lon="5.926774" lat="51.03098"><ele>50.8</ele><time>2022-06-12T06:49:57.000Z</time></trkpt><trkpt lon="5.926871" lat="51.030946"><ele>51</ele><time>2022-06-12T06:49:58.000Z</time></trkpt><trkpt lon="5.926969" lat="51.030919"><ele>51</ele><time>2022-06-12T06:49:59.000Z</time></trkpt><trkpt lon="5.927066" lat="51.030885"><ele>50.8</ele><time>2022-06-12T06:50:00.000Z</time></trkpt><trkpt lon="5.927167" lat="51.030854"><ele>50.8</ele><time>2022-06-12T06:50:01.000Z</time></trkpt><trkpt lon="5.927265" lat="51.030828"><ele>50.8</ele><time>2022-06-12T06:50:02.000Z</time></trkpt><trkpt lon="5.927363" lat="51.030801"><ele>50.8</ele><time>2022-06-12T06:50:03.000Z</time></trkpt><trkpt lon="5.927464" lat="51.03077"><ele>50.8</ele><time>2022-06-12T06:50:04.000Z</time></trkpt><trkpt lon="5.927563" lat="51.030744"><ele>50.8</ele><time>2022-06-12T06:50:05.000Z</time></trkpt><trkpt lon="5.927664" lat="51.030717"><ele>50.8</ele><time>2022-06-12T06:50:06.000Z</time></trkpt><trkpt lon="5.927762" lat="51.030691"><ele>51</ele><time>2022-06-12T06:50:07.000Z</time></trkpt><trkpt lon="5.927864" lat="51.030663"><ele>51</ele><time>2022-06-12T06:50:08.000Z</time></trkpt><trkpt lon="5.927966" lat="51.03064"><ele>51.2</ele><time>2022-06-12T06:50:09.000Z</time></trkpt><trkpt lon="5.928072" lat="51.030617"><ele>51.2</ele><time>2022-06-12T06:50:10.000Z</time></trkpt><trkpt lon="5.928177" lat="51.030602"><ele>51.2</ele><time>2022-06-12T06:50:11.000Z</time></trkpt><trkpt lon="5.928282" lat="51.030583"><ele>51.2</ele><time>2022-06-12T06:50:12.000Z</time></trkpt><trkpt lon="5.928389" lat="51.030568"><ele>51.2</ele><time>2022-06-12T06:50:13.000Z</time></trkpt><trkpt lon="5.928498" lat="51.030552"><ele>51.2</ele><time>2022-06-12T06:50:14.000Z</time></trkpt><trkpt lon="5.92861" lat="51.030541"><ele>51.2</ele><time>2022-06-12T06:50:15.000Z</time></trkpt><trkpt lon="5.92872" lat="51.030526"><ele>51.2</ele><time>2022-06-12T06:50:16.000Z</time></trkpt><trkpt lon="5.928835" lat="51.030514"><ele>51.2</ele><time>2022-06-12T06:50:17.000Z</time></trkpt><trkpt lon="5.928952" lat="51.030503"><ele>51.2</ele><time>2022-06-12T06:50:18.000Z</time></trkpt><trkpt lon="5.929067" lat="51.030499"><ele>51</ele><time>2022-06-12T06:50:19.000Z</time></trkpt><trkpt lon="5.929184" lat="51.030491"><ele>51</ele><time>2022-06-12T06:50:20.000Z</time></trkpt><trkpt lon="5.929302" lat="51.03048"><ele>51</ele><time>2022-06-12T06:50:21.000Z</time></trkpt><trkpt lon="5.92942" lat="51.030468"><ele>51</ele><time>2022-06-12T06:50:22.000Z</time></trkpt><trkpt lon="5.92954" lat="51.030461"><ele>51</ele><time>2022-06-12T06:50:23.000Z</time></trkpt><trkpt lon="5.929663" lat="51.030449"><ele>50.8</ele><time>2022-06-12T06:50:24.000Z</time></trkpt><trkpt lon="5.929786" lat="51.030438"><ele>50.6</ele><time>2022-06-12T06:50:25.000Z</time></trkpt><trkpt lon="5.92991" lat="51.030423"><ele>50.4</ele><time>2022-06-12T06:50:26.000Z</time></trkpt><trkpt lon="5.930034" lat="51.030407"><ele>50.4</ele><time>2022-06-12T06:50:27.000Z</time></trkpt><trkpt lon="5.930158" lat="51.030392"><ele>50.4</ele><time>2022-06-12T06:50:28.000Z</time></trkpt><trkpt lon="5.930282" lat="51.030373"><ele>50.4</ele><time>2022-06-12T06:50:29.000Z</time></trkpt><trkpt lon="5.930407" lat="51.03035"><ele>50.4</ele><time>2022-06-12T06:50:30.000Z</time></trkpt><trkpt lon="5.93053" lat="51.030328"><ele>50.4</ele><time>2022-06-12T06:50:31.000Z</time></trkpt><trkpt lon="5.930652" lat="51.030297"><ele>50.4</ele><time>2022-06-12T06:50:32.000Z</time></trkpt><trkpt lon="5.930768" lat="51.03027"><ele>50</ele><time>2022-06-12T06:50:33.000Z</time></trkpt><trkpt lon="5.930885" lat="51.030244"><ele>49.6</ele><time>2022-06-12T06:50:34.000Z</time></trkpt><trkpt lon="5.931002" lat="51.030217"><ele>49.4</ele><time>2022-06-12T06:50:35.000Z</time></trkpt><trkpt lon="5.931119" lat="51.03019"><ele>49.2</ele><time>2022-06-12T06:50:36.000Z</time></trkpt><trkpt lon="5.931224" lat="51.030162"><ele>49</ele><time>2022-06-12T06:50:37.000Z</time></trkpt><trkpt lon="5.931346" lat="51.03013"><ele>48.8</ele><time>2022-06-12T06:50:38.000Z</time></trkpt><trkpt lon="5.931459" lat="51.030102"><ele>48.8</ele><time>2022-06-12T06:50:39.000Z</time></trkpt><trkpt lon="5.93157" lat="51.030072"><ele>48.8</ele><time>2022-06-12T06:50:40.000Z</time></trkpt><trkpt lon="5.931684" lat="51.030045"><ele>48.8</ele><time>2022-06-12T06:50:41.000Z</time></trkpt><trkpt lon="5.931796" lat="51.030015"><ele>48.6</ele><time>2022-06-12T06:50:42.000Z</time></trkpt><trkpt lon="5.931906" lat="51.029988"><ele>48.6</ele><time>2022-06-12T06:50:43.000Z</time></trkpt><trkpt lon="5.932018" lat="51.029961"><ele>48.4</ele><time>2022-06-12T06:50:44.000Z</time></trkpt><trkpt lon="5.932129" lat="51.029935"><ele>48.4</ele><time>2022-06-12T06:50:45.000Z</time></trkpt><trkpt lon="5.932245" lat="51.029908"><ele>48.4</ele><time>2022-06-12T06:50:46.000Z</time></trkpt><trkpt lon="5.932356" lat="51.029885"><ele>48.2</ele><time>2022-06-12T06:50:47.000Z</time></trkpt><trkpt lon="5.932469" lat="51.029855"><ele>48.2</ele><time>2022-06-12T06:50:48.000Z</time></trkpt><trkpt lon="5.932579" lat="51.029828"><ele>48.2</ele><time>2022-06-12T06:50:49.000Z</time></trkpt><trkpt lon="5.932677" lat="51.029809"><ele>48.2</ele><time>2022-06-12T06:50:50.000Z</time></trkpt><trkpt lon="5.93278" lat="51.029786"><ele>48.4</ele><time>2022-06-12T06:50:51.000Z</time></trkpt><trkpt lon="5.932884" lat="51.029755"><ele>48.4</ele><time>2022-06-12T06:50:52.000Z</time></trkpt><trkpt lon="5.932984" lat="51.02973"><ele>48.6</ele><time>2022-06-12T06:50:53.000Z</time></trkpt><trkpt lon="5.933094" lat="51.029702"><ele>48.6</ele><time>2022-06-12T06:50:54.000Z</time></trkpt><trkpt lon="5.933197" lat="51.029675"><ele>48.8</ele><time>2022-06-12T06:50:55.000Z</time></trkpt><trkpt lon="5.933294" lat="51.029652"><ele>49</ele><time>2022-06-12T06:50:56.000Z</time></trkpt><trkpt lon="5.933386" lat="51.029627"><ele>49.2</ele><time>2022-06-12T06:50:57.000Z</time></trkpt><trkpt lon="5.933484" lat="51.029606"><ele>49.4</ele><time>2022-06-12T06:50:58.000Z</time></trkpt><trkpt lon="5.933578" lat="51.029584"><ele>49.6</ele><time>2022-06-12T06:50:59.000Z</time></trkpt><trkpt lon="5.933679" lat="51.029561"><ele>49.6</ele><time>2022-06-12T06:51:00.000Z</time></trkpt><trkpt lon="5.933779" lat="51.029538"><ele>49.6</ele><time>2022-06-12T06:51:01.000Z</time></trkpt><trkpt lon="5.933874" lat="51.029515"><ele>49.8</ele><time>2022-06-12T06:51:02.000Z</time></trkpt><trkpt lon="5.933967" lat="51.029492"><ele>49.8</ele><time>2022-06-12T06:51:03.000Z</time></trkpt><trkpt lon="5.934051" lat="51.029469"><ele>49.8</ele><time>2022-06-12T06:51:04.000Z</time></trkpt><trkpt lon="5.934136" lat="51.02945"><ele>50</ele><time>2022-06-12T06:51:05.000Z</time></trkpt><trkpt lon="5.93422" lat="51.029427"><ele>50</ele><time>2022-06-12T06:51:06.000Z</time></trkpt><trkpt lon="5.934312" lat="51.029401"><ele>50</ele><time>2022-06-12T06:51:07.000Z</time></trkpt><trkpt lon="5.934408" lat="51.02937"><ele>50</ele><time>2022-06-12T06:51:08.000Z</time></trkpt><trkpt lon="5.934505" lat="51.029336"><ele>50.2</ele><time>2022-06-12T06:51:09.000Z</time></trkpt><trkpt lon="5.934604" lat="51.029302"><ele>50.2</ele><time>2022-06-12T06:51:10.000Z</time></trkpt><trkpt lon="5.934708" lat="51.02926"><ele>50.2</ele><time>2022-06-12T06:51:11.000Z</time></trkpt><trkpt lon="5.93481" lat="51.029222"><ele>50.2</ele><time>2022-06-12T06:51:12.000Z</time></trkpt><trkpt lon="5.934906" lat="51.029185"><ele>50</ele><time>2022-06-12T06:51:13.000Z</time></trkpt><trkpt lon="5.935021" lat="51.029142"><ele>50</ele><time>2022-06-12T06:51:14.000Z</time></trkpt><trkpt lon="5.935124" lat="51.0291"><ele>50</ele><time>2022-06-12T06:51:15.000Z</time></trkpt><trkpt lon="5.935218" lat="51.029063"><ele>50</ele><time>2022-06-12T06:51:16.000Z</time></trkpt><trkpt lon="5.935339" lat="51.029012"><ele>50</ele><time>2022-06-12T06:51:17.000Z</time></trkpt><trkpt lon="5.935448" lat="51.02897"><ele>49.8</ele><time>2022-06-12T06:51:18.000Z</time></trkpt><trkpt lon="5.935557" lat="51.028928"><ele>49.8</ele><time>2022-06-12T06:51:19.000Z</time></trkpt><trkpt lon="5.935663" lat="51.028886"><ele>49.6</ele><time>2022-06-12T06:51:20.000Z</time></trkpt><trkpt lon="5.935767" lat="51.028848"><ele>49.6</ele><time>2022-06-12T06:51:21.000Z</time></trkpt><trkpt lon="5.935872" lat="51.028806"><ele>49.4</ele><time>2022-06-12T06:51:22.000Z</time></trkpt><trkpt lon="5.935977" lat="51.028764"><ele>49.2</ele><time>2022-06-12T06:51:23.000Z</time></trkpt><trkpt lon="5.936085" lat="51.028726"><ele>49</ele><time>2022-06-12T06:51:24.000Z</time></trkpt><trkpt lon="5.936189" lat="51.028687"><ele>48.8</ele><time>2022-06-12T06:51:25.000Z</time></trkpt><trkpt lon="5.936288" lat="51.02865"><ele>48.6</ele><time>2022-06-12T06:51:26.000Z</time></trkpt><trkpt lon="5.936386" lat="51.028604"><ele>48.4</ele><time>2022-06-12T06:51:27.000Z</time></trkpt><trkpt lon="5.936481" lat="51.028562"><ele>48.2</ele><time>2022-06-12T06:51:28.000Z</time></trkpt><trkpt lon="5.936571" lat="51.02852"><ele>48</ele><time>2022-06-12T06:51:29.000Z</time></trkpt><trkpt lon="5.936663" lat="51.028482"><ele>47.8</ele><time>2022-06-12T06:51:30.000Z</time></trkpt><trkpt lon="5.936751" lat="51.028443"><ele>47.6</ele><time>2022-06-12T06:51:31.000Z</time></trkpt><trkpt lon="5.936833" lat="51.028413"><ele>47.4</ele><time>2022-06-12T06:51:32.000Z</time></trkpt><trkpt lon="5.93691" lat="51.028378"><ele>47.2</ele><time>2022-06-12T06:51:33.000Z</time></trkpt><trkpt lon="5.936983" lat="51.028348"><ele>47</ele><time>2022-06-12T06:51:34.000Z</time></trkpt><trkpt lon="5.937051" lat="51.028325"><ele>47</ele><time>2022-06-12T06:51:35.000Z</time></trkpt><trkpt lon="5.937109" lat="51.028309"><ele>46.8</ele><time>2022-06-12T06:51:36.000Z</time></trkpt><trkpt lon="5.937158" lat="51.028305"><ele>46.8</ele><time>2022-06-12T06:51:37.000Z</time></trkpt><trkpt lon="5.937209" lat="51.028313"><ele>46.6</ele><time>2022-06-12T06:51:38.000Z</time></trkpt><trkpt lon="5.937255" lat="51.028331"><ele>46.6</ele><time>2022-06-12T06:51:39.000Z</time></trkpt><trkpt lon="5.937297" lat="51.028361"><ele>46.6</ele><time>2022-06-12T06:51:40.000Z</time></trkpt><trkpt lon="5.937336" lat="51.028403"><ele>46.4</ele><time>2022-06-12T06:51:41.000Z</time></trkpt><trkpt lon="5.937372" lat="51.028452"><ele>46.4</ele><time>2022-06-12T06:51:42.000Z</time></trkpt><trkpt lon="5.937407" lat="51.028504"><ele>46.4</ele><time>2022-06-12T06:51:43.000Z</time></trkpt><trkpt lon="5.937439" lat="51.028563"><ele>46.4</ele><time>2022-06-12T06:51:44.000Z</time></trkpt><trkpt lon="5.937474" lat="51.02862"><ele>46.2</ele><time>2022-06-12T06:51:45.000Z</time></trkpt><trkpt lon="5.937509" lat="51.028677"><ele>46.2</ele><time>2022-06-12T06:51:46.000Z</time></trkpt><trkpt lon="5.937544" lat="51.028735"><ele>46.2</ele><time>2022-06-12T06:51:47.000Z</time></trkpt><trkpt lon="5.937577" lat="51.028791"><ele>46.4</ele><time>2022-06-12T06:51:48.000Z</time></trkpt><trkpt lon="5.937614" lat="51.028853"><ele>46.4</ele><time>2022-06-12T06:51:49.000Z</time></trkpt><trkpt lon="5.937646" lat="51.02891"><ele>46.6</ele><time>2022-06-12T06:51:50.000Z</time></trkpt><trkpt lon="5.937679" lat="51.028967"><ele>46.8</ele><time>2022-06-12T06:51:51.000Z</time></trkpt><trkpt lon="5.937715" lat="51.029024"><ele>47</ele><time>2022-06-12T06:51:52.000Z</time></trkpt><trkpt lon="5.937754" lat="51.029081"><ele>47.2</ele><time>2022-06-12T06:51:53.000Z</time></trkpt><trkpt lon="5.937791" lat="51.029135"><ele>47.4</ele><time>2022-06-12T06:51:54.000Z</time></trkpt><trkpt lon="5.937832" lat="51.029191"><ele>47.8</ele><time>2022-06-12T06:51:55.000Z</time></trkpt><trkpt lon="5.937877" lat="51.02925"><ele>48</ele><time>2022-06-12T06:51:56.000Z</time></trkpt><trkpt lon="5.937927" lat="51.029303"><ele>48.2</ele><time>2022-06-12T06:51:57.000Z</time></trkpt><trkpt lon="5.937984" lat="51.029349"><ele>48.6</ele><time>2022-06-12T06:51:58.000Z</time></trkpt><trkpt lon="5.938043" lat="51.029398"><ele>49</ele><time>2022-06-12T06:51:59.000Z</time></trkpt><trkpt lon="5.938103" lat="51.029444"><ele>49.2</ele><time>2022-06-12T06:52:00.000Z</time></trkpt><trkpt lon="5.938168" lat="51.029486"><ele>49.6</ele><time>2022-06-12T06:52:01.000Z</time></trkpt><trkpt lon="5.938236" lat="51.029528"><ele>50</ele><time>2022-06-12T06:52:02.000Z</time></trkpt><trkpt lon="5.938308" lat="51.029563"><ele>50.2</ele><time>2022-06-12T06:52:03.000Z</time></trkpt><trkpt lon="5.938384" lat="51.029597"><ele>50.4</ele><time>2022-06-12T06:52:04.000Z</time></trkpt><trkpt lon="5.938464" lat="51.029632"><ele>50.8</ele><time>2022-06-12T06:52:05.000Z</time></trkpt><trkpt lon="5.938547" lat="51.029661"><ele>51</ele><time>2022-06-12T06:52:06.000Z</time></trkpt><trkpt lon="5.938636" lat="51.029689"><ele>51.4</ele><time>2022-06-12T06:52:07.000Z</time></trkpt><trkpt lon="5.938727" lat="51.029716"><ele>51.6</ele><time>2022-06-12T06:52:08.000Z</time></trkpt><trkpt lon="5.938821" lat="51.029739"><ele>52</ele><time>2022-06-12T06:52:09.000Z</time></trkpt><trkpt lon="5.938919" lat="51.029758"><ele>52.2</ele><time>2022-06-12T06:52:10.000Z</time></trkpt><trkpt lon="5.939022" lat="51.029773"><ele>52.2</ele><time>2022-06-12T06:52:11.000Z</time></trkpt><trkpt lon="5.939125" lat="51.029785"><ele>52.4</ele><time>2022-06-12T06:52:12.000Z</time></trkpt><trkpt lon="5.93923" lat="51.029796"><ele>52.6</ele><time>2022-06-12T06:52:13.000Z</time></trkpt><trkpt lon="5.939335" lat="51.0298"><ele>52.6</ele><time>2022-06-12T06:52:14.000Z</time></trkpt><trkpt lon="5.93944" lat="51.029804"><ele>52.6</ele><time>2022-06-12T06:52:15.000Z</time></trkpt><trkpt lon="5.939548" lat="51.029804"><ele>52.8</ele><time>2022-06-12T06:52:16.000Z</time></trkpt><trkpt lon="5.939655" lat="51.0298"><ele>52.8</ele><time>2022-06-12T06:52:17.000Z</time></trkpt><trkpt lon="5.939761" lat="51.029797"><ele>52.8</ele><time>2022-06-12T06:52:18.000Z</time></trkpt><trkpt lon="5.939869" lat="51.029793"><ele>53</ele><time>2022-06-12T06:52:19.000Z</time></trkpt><trkpt lon="5.939974" lat="51.029789"><ele>53</ele><time>2022-06-12T06:52:20.000Z</time></trkpt><trkpt lon="5.940079" lat="51.029785"><ele>53</ele><time>2022-06-12T06:52:21.000Z</time></trkpt><trkpt lon="5.940177" lat="51.029782"><ele>53</ele><time>2022-06-12T06:52:22.000Z</time></trkpt><trkpt lon="5.940279" lat="51.029778"><ele>53.2</ele><time>2022-06-12T06:52:23.000Z</time></trkpt><trkpt lon="5.94038" lat="51.029774"><ele>53</ele><time>2022-06-12T06:52:24.000Z</time></trkpt><trkpt lon="5.940483" lat="51.02977"><ele>53</ele><time>2022-06-12T06:52:25.000Z</time></trkpt><trkpt lon="5.940588" lat="51.02977"><ele>53.2</ele><time>2022-06-12T06:52:26.000Z</time></trkpt><trkpt lon="5.940697" lat="51.02977"><ele>53.2</ele><time>2022-06-12T06:52:27.000Z</time></trkpt><trkpt lon="5.940806" lat="51.02977"><ele>53.4</ele><time>2022-06-12T06:52:28.000Z</time></trkpt><trkpt lon="5.940915" lat="51.029774"><ele>53.4</ele><time>2022-06-12T06:52:29.000Z</time></trkpt><trkpt lon="5.941023" lat="51.029781"><ele>53.4</ele><time>2022-06-12T06:52:30.000Z</time></trkpt><trkpt lon="5.94113" lat="51.029789"><ele>53.6</ele><time>2022-06-12T06:52:31.000Z</time></trkpt><trkpt lon="5.941237" lat="51.029796"><ele>53.6</ele><time>2022-06-12T06:52:32.000Z</time></trkpt><trkpt lon="5.941343" lat="51.029808"><ele>53.6</ele><time>2022-06-12T06:52:33.000Z</time></trkpt><trkpt lon="5.94145" lat="51.029823"><ele>53.6</ele><time>2022-06-12T06:52:34.000Z</time></trkpt><trkpt lon="5.941555" lat="51.029834"><ele>53.6</ele><time>2022-06-12T06:52:35.000Z</time></trkpt><trkpt lon="5.94166" lat="51.02985"><ele>53.6</ele><time>2022-06-12T06:52:36.000Z</time></trkpt><trkpt lon="5.941763" lat="51.029868"><ele>53.6</ele><time>2022-06-12T06:52:37.000Z</time></trkpt><trkpt lon="5.941868" lat="51.029884"><ele>53.6</ele><time>2022-06-12T06:52:38.000Z</time></trkpt><trkpt lon="5.941971" lat="51.029903"><ele>53.6</ele><time>2022-06-12T06:52:39.000Z</time></trkpt><trkpt lon="5.942071" lat="51.029922"><ele>53.6</ele><time>2022-06-12T06:52:40.000Z</time></trkpt><trkpt lon="5.942175" lat="51.029941"><ele>53.6</ele><time>2022-06-12T06:52:41.000Z</time></trkpt><trkpt lon="5.942279" lat="51.02996"><ele>53.6</ele><time>2022-06-12T06:52:42.000Z</time></trkpt><trkpt lon="5.94238" lat="51.029975"><ele>53.4</ele><time>2022-06-12T06:52:43.000Z</time></trkpt><trkpt lon="5.942487" lat="51.029995"><ele>53.4</ele><time>2022-06-12T06:52:44.000Z</time></trkpt><trkpt lon="5.942593" lat="51.030006"><ele>53.2</ele><time>2022-06-12T06:52:45.000Z</time></trkpt><trkpt lon="5.9427" lat="51.030021"><ele>53.2</ele><time>2022-06-12T06:52:46.000Z</time></trkpt><trkpt lon="5.942806" lat="51.030033"><ele>53</ele><time>2022-06-12T06:52:47.000Z</time></trkpt><trkpt lon="5.942911" lat="51.030048"><ele>53</ele><time>2022-06-12T06:52:48.000Z</time></trkpt><trkpt lon="5.943021" lat="51.030059"><ele>52.8</ele><time>2022-06-12T06:52:49.000Z</time></trkpt><trkpt lon="5.943128" lat="51.030075"><ele>52.8</ele><time>2022-06-12T06:52:50.000Z</time></trkpt><trkpt lon="5.943232" lat="51.030082"><ele>52.8</ele><time>2022-06-12T06:52:51.000Z</time></trkpt><trkpt lon="5.943331" lat="51.03009"><ele>52.6</ele><time>2022-06-12T06:52:52.000Z</time></trkpt><trkpt lon="5.943426" lat="51.030094"><ele>52.6</ele><time>2022-06-12T06:52:53.000Z</time></trkpt><trkpt lon="5.943514" lat="51.03009"><ele>52.4</ele><time>2022-06-12T06:52:54.000Z</time></trkpt><trkpt lon="5.943598" lat="51.030079"><ele>52.4</ele><time>2022-06-12T06:52:55.000Z</time></trkpt><trkpt lon="5.943674" lat="51.030053"><ele>52.2</ele><time>2022-06-12T06:52:56.000Z</time></trkpt><trkpt lon="5.943748" lat="51.030023"><ele>52</ele><time>2022-06-12T06:52:57.000Z</time></trkpt><trkpt lon="5.943827" lat="51.030003"><ele>51.8</ele><time>2022-06-12T06:52:58.000Z</time></trkpt><trkpt lon="5.943915" lat="51.029999"><ele>51.8</ele><time>2022-06-12T06:52:59.000Z</time></trkpt><trkpt lon="5.944007" lat="51.030006"><ele>51.8</ele><time>2022-06-12T06:53:00.000Z</time></trkpt><trkpt lon="5.944096" lat="51.030032"><ele>51.6</ele><time>2022-06-12T06:53:01.000Z</time></trkpt><trkpt lon="5.944188" lat="51.030059"><ele>51.6</ele><time>2022-06-12T06:53:02.000Z</time></trkpt><trkpt lon="5.944287" lat="51.030078"><ele>51.4</ele><time>2022-06-12T06:53:03.000Z</time></trkpt><trkpt lon="5.944388" lat="51.030086"><ele>51.4</ele><time>2022-06-12T06:53:04.000Z</time></trkpt><trkpt lon="5.944493" lat="51.030094"><ele>51.6</ele><time>2022-06-12T06:53:05.000Z</time></trkpt><trkpt lon="5.944598" lat="51.030094"><ele>51.6</ele><time>2022-06-12T06:53:06.000Z</time></trkpt><trkpt lon="5.944702" lat="51.030094"><ele>51.6</ele><time>2022-06-12T06:53:07.000Z</time></trkpt><trkpt lon="5.944811" lat="51.030091"><ele>51.6</ele><time>2022-06-12T06:53:08.000Z</time></trkpt><trkpt lon="5.944919" lat="51.030087"><ele>51.8</ele><time>2022-06-12T06:53:09.000Z</time></trkpt><trkpt lon="5.945026" lat="51.030086"><ele>51.8</ele><time>2022-06-12T06:53:10.000Z</time></trkpt><trkpt lon="5.945135" lat="51.030086"><ele>52</ele><time>2022-06-12T06:53:11.000Z</time></trkpt><trkpt lon="5.945245" lat="51.030086"><ele>52</ele><time>2022-06-12T06:53:12.000Z</time></trkpt><trkpt lon="5.945354" lat="51.030086"><ele>52</ele><time>2022-06-12T06:53:13.000Z</time></trkpt><trkpt lon="5.945465" lat="51.030086"><ele>52.2</ele><time>2022-06-12T06:53:14.000Z</time></trkpt><trkpt lon="5.945574" lat="51.03009"><ele>52.2</ele><time>2022-06-12T06:53:15.000Z</time></trkpt><trkpt lon="5.945685" lat="51.03009"><ele>52.4</ele><time>2022-06-12T06:53:16.000Z</time></trkpt><trkpt lon="5.945795" lat="51.030094"><ele>52.4</ele><time>2022-06-12T06:53:17.000Z</time></trkpt><trkpt lon="5.945901" lat="51.030094"><ele>52.6</ele><time>2022-06-12T06:53:18.000Z</time></trkpt><trkpt lon="5.946008" lat="51.030098"><ele>52.6</ele><time>2022-06-12T06:53:19.000Z</time></trkpt><trkpt lon="5.946118" lat="51.030102"><ele>52.8</ele><time>2022-06-12T06:53:20.000Z</time></trkpt><trkpt lon="5.946227" lat="51.030106"><ele>52.8</ele><time>2022-06-12T06:53:21.000Z</time></trkpt><trkpt lon="5.946335" lat="51.030109"><ele>52.8</ele><time>2022-06-12T06:53:22.000Z</time></trkpt><trkpt lon="5.946438" lat="51.030113"><ele>52.8</ele><time>2022-06-12T06:53:23.000Z</time></trkpt><trkpt lon="5.946548" lat="51.030117"><ele>52.8</ele><time>2022-06-12T06:53:24.000Z</time></trkpt><trkpt lon="5.946655" lat="51.030121"><ele>53</ele><time>2022-06-12T06:53:25.000Z</time></trkpt><trkpt lon="5.946763" lat="51.030125"><ele>53</ele><time>2022-06-12T06:53:26.000Z</time></trkpt><trkpt lon="5.946872" lat="51.030128"><ele>53</ele><time>2022-06-12T06:53:27.000Z</time></trkpt><trkpt lon="5.946982" lat="51.030136"><ele>53</ele><time>2022-06-12T06:53:28.000Z</time></trkpt><trkpt lon="5.947092" lat="51.03014"><ele>53</ele><time>2022-06-12T06:53:29.000Z</time></trkpt><trkpt lon="5.947201" lat="51.030144"><ele>53</ele><time>2022-06-12T06:53:30.000Z</time></trkpt><trkpt lon="5.947312" lat="51.030151"><ele>53</ele><time>2022-06-12T06:53:31.000Z</time></trkpt><trkpt lon="5.947421" lat="51.030162"><ele>53</ele><time>2022-06-12T06:53:32.000Z</time></trkpt><trkpt lon="5.947532" lat="51.03017"><ele>53</ele><time>2022-06-12T06:53:33.000Z</time></trkpt><trkpt lon="5.947642" lat="51.030182"><ele>52.8</ele><time>2022-06-12T06:53:34.000Z</time></trkpt><trkpt lon="5.947754" lat="51.030186"><ele>52.8</ele><time>2022-06-12T06:53:35.000Z</time></trkpt><trkpt lon="5.947867" lat="51.030193"><ele>52.6</ele><time>2022-06-12T06:53:36.000Z</time></trkpt><trkpt lon="5.947979" lat="51.030197"><ele>52.4</ele><time>2022-06-12T06:53:37.000Z</time></trkpt><trkpt lon="5.948094" lat="51.030201"><ele>52.4</ele><time>2022-06-12T06:53:38.000Z</time></trkpt><trkpt lon="5.948206" lat="51.030197"><ele>52.4</ele><time>2022-06-12T06:53:39.000Z</time></trkpt><trkpt lon="5.948318" lat="51.030193"><ele>52.4</ele><time>2022-06-12T06:53:40.000Z</time></trkpt><trkpt lon="5.948428" lat="51.030182"><ele>52.2</ele><time>2022-06-12T06:53:41.000Z</time></trkpt><trkpt lon="5.94854" lat="51.030174"><ele>52.2</ele><time>2022-06-12T06:53:42.000Z</time></trkpt><trkpt lon="5.948653" lat="51.030167"><ele>52.2</ele><time>2022-06-12T06:53:43.000Z</time></trkpt><trkpt lon="5.948765" lat="51.030156"><ele>52</ele><time>2022-06-12T06:53:44.000Z</time></trkpt><trkpt lon="5.94888" lat="51.030144"><ele>52.2</ele><time>2022-06-12T06:53:45.000Z</time></trkpt><trkpt lon="5.948991" lat="51.030127"><ele>52</ele><time>2022-06-12T06:53:46.000Z</time></trkpt><trkpt lon="5.949101" lat="51.03011"><ele>52</ele><time>2022-06-12T06:53:47.000Z</time></trkpt><trkpt lon="5.949214" lat="51.030095"><ele>52</ele><time>2022-06-12T06:53:48.000Z</time></trkpt><trkpt lon="5.949329" lat="51.030083"><ele>51.8</ele><time>2022-06-12T06:53:49.000Z</time></trkpt><trkpt lon="5.949444" lat="51.030075"><ele>51.8</ele><time>2022-06-12T06:53:50.000Z</time></trkpt><trkpt lon="5.949557" lat="51.030071"><ele>51.8</ele><time>2022-06-12T06:53:51.000Z</time></trkpt><trkpt lon="5.949669" lat="51.03006"><ele>51.6</ele><time>2022-06-12T06:53:52.000Z</time></trkpt><trkpt lon="5.949786" lat="51.030052"><ele>51.6</ele><time>2022-06-12T06:53:53.000Z</time></trkpt><trkpt lon="5.949897" lat="51.030049"><ele>51.8</ele><time>2022-06-12T06:53:54.000Z</time></trkpt><trkpt lon="5.950009" lat="51.030045"><ele>51.8</ele><time>2022-06-12T06:53:55.000Z</time></trkpt><trkpt lon="5.950125" lat="51.030041"><ele>51.8</ele><time>2022-06-12T06:53:56.000Z</time></trkpt><trkpt lon="5.95024" lat="51.030037"><ele>51.6</ele><time>2022-06-12T06:53:57.000Z</time></trkpt><trkpt lon="5.950355" lat="51.03003"><ele>51.6</ele><time>2022-06-12T06:53:58.000Z</time></trkpt><trkpt lon="5.95047" lat="51.030026"><ele>51.4</ele><time>2022-06-12T06:53:59.000Z</time></trkpt><trkpt lon="5.950587" lat="51.030022"><ele>51.2</ele><time>2022-06-12T06:54:00.000Z</time></trkpt><trkpt lon="5.950703" lat="51.030022"><ele>51.2</ele><time>2022-06-12T06:54:01.000Z</time></trkpt><trkpt lon="5.950818" lat="51.030022"><ele>51</ele><time>2022-06-12T06:54:02.000Z</time></trkpt><trkpt lon="5.950938" lat="51.030018"><ele>51</ele><time>2022-06-12T06:54:03.000Z</time></trkpt><trkpt lon="5.951056" lat="51.030014"><ele>50.8</ele><time>2022-06-12T06:54:04.000Z</time></trkpt><trkpt lon="5.951172" lat="51.03001"><ele>50.8</ele><time>2022-06-12T06:54:05.000Z</time></trkpt><trkpt lon="5.951288" lat="51.030007"><ele>50.8</ele><time>2022-06-12T06:54:06.000Z</time></trkpt><trkpt lon="5.951403" lat="51.030003"><ele>50.8</ele><time>2022-06-12T06:54:07.000Z</time></trkpt><trkpt lon="5.951513" lat="51.030003"><ele>50.8</ele><time>2022-06-12T06:54:08.000Z</time></trkpt><trkpt lon="5.95163" lat="51.030003"><ele>51</ele><time>2022-06-12T06:54:09.000Z</time></trkpt><trkpt lon="5.951745" lat="51.030006"><ele>51</ele><time>2022-06-12T06:54:10.000Z</time></trkpt><trkpt lon="5.951856" lat="51.03001"><ele>51</ele><time>2022-06-12T06:54:11.000Z</time></trkpt><trkpt lon="5.951967" lat="51.030014"><ele>51</ele><time>2022-06-12T06:54:12.000Z</time></trkpt><trkpt lon="5.95208" lat="51.030014"><ele>51.2</ele><time>2022-06-12T06:54:13.000Z</time></trkpt><trkpt lon="5.952193" lat="51.030014"><ele>51.2</ele><time>2022-06-12T06:54:14.000Z</time></trkpt><trkpt lon="5.952301" lat="51.03001"><ele>51.2</ele><time>2022-06-12T06:54:15.000Z</time></trkpt><trkpt lon="5.952415" lat="51.03001"><ele>51.2</ele><time>2022-06-12T06:54:16.000Z</time></trkpt><trkpt lon="5.952524" lat="51.030007"><ele>51.4</ele><time>2022-06-12T06:54:17.000Z</time></trkpt><trkpt lon="5.952633" lat="51.030003"><ele>51.4</ele><time>2022-06-12T06:54:18.000Z</time></trkpt><trkpt lon="5.952743" lat="51.030003"><ele>51.6</ele><time>2022-06-12T06:54:19.000Z</time></trkpt><trkpt lon="5.952853" lat="51.029999"><ele>51.6</ele><time>2022-06-12T06:54:20.000Z</time></trkpt><trkpt lon="5.952963" lat="51.029999"><ele>51.8</ele><time>2022-06-12T06:54:21.000Z</time></trkpt><trkpt lon="5.953074" lat="51.029995"><ele>52</ele><time>2022-06-12T06:54:22.000Z</time></trkpt><trkpt lon="5.953183" lat="51.029991"><ele>52.2</ele><time>2022-06-12T06:54:23.000Z</time></trkpt><trkpt lon="5.953292" lat="51.029991"><ele>52.2</ele><time>2022-06-12T06:54:24.000Z</time></trkpt><trkpt lon="5.953401" lat="51.029991"><ele>52.4</ele><time>2022-06-12T06:54:25.000Z</time></trkpt><trkpt lon="5.953511" lat="51.029991"><ele>52.4</ele><time>2022-06-12T06:54:26.000Z</time></trkpt><trkpt lon="5.953619" lat="51.029991"><ele>52.4</ele><time>2022-06-12T06:54:27.000Z</time></trkpt><trkpt lon="5.953726" lat="51.029991"><ele>52.4</ele><time>2022-06-12T06:54:28.000Z</time></trkpt><trkpt lon="5.953835" lat="51.029987"><ele>52.4</ele><time>2022-06-12T06:54:29.000Z</time></trkpt><trkpt lon="5.953944" lat="51.029987"><ele>52.6</ele><time>2022-06-12T06:54:30.000Z</time></trkpt><trkpt lon="5.954052" lat="51.029984"><ele>52.6</ele><time>2022-06-12T06:54:31.000Z</time></trkpt><trkpt lon="5.954158" lat="51.02998"><ele>52.6</ele><time>2022-06-12T06:54:32.000Z</time></trkpt><trkpt lon="5.954272" lat="51.029976"><ele>52.6</ele><time>2022-06-12T06:54:33.000Z</time></trkpt><trkpt lon="5.954381" lat="51.029969"><ele>52.4</ele><time>2022-06-12T06:54:34.000Z</time></trkpt><trkpt lon="5.954497" lat="51.029961"><ele>52.4</ele><time>2022-06-12T06:54:35.000Z</time></trkpt><trkpt lon="5.954607" lat="51.029946"><ele>52.4</ele><time>2022-06-12T06:54:36.000Z</time></trkpt><trkpt lon="5.954716" lat="51.029927"><ele>52.2</ele><time>2022-06-12T06:54:37.000Z</time></trkpt><trkpt lon="5.954826" lat="51.029904"><ele>52</ele><time>2022-06-12T06:54:38.000Z</time></trkpt><trkpt lon="5.954931" lat="51.029878"><ele>52</ele><time>2022-06-12T06:54:39.000Z</time></trkpt><trkpt lon="5.955042" lat="51.029851"><ele>51.8</ele><time>2022-06-12T06:54:40.000Z</time></trkpt><trkpt lon="5.955142" lat="51.029824"><ele>51.8</ele><time>2022-06-12T06:54:41.000Z</time></trkpt><trkpt lon="5.955242" lat="51.029794"><ele>51.6</ele><time>2022-06-12T06:54:42.000Z</time></trkpt><trkpt lon="5.955336" lat="51.02976"><ele>51.4</ele><time>2022-06-12T06:54:43.000Z</time></trkpt><trkpt lon="5.955436" lat="51.029729"><ele>51.4</ele><time>2022-06-12T06:54:44.000Z</time></trkpt><trkpt lon="5.955532" lat="51.029696"><ele>51.6</ele><time>2022-06-12T06:54:45.000Z</time></trkpt><trkpt lon="5.955636" lat="51.029668"><ele>51.6</ele><time>2022-06-12T06:54:46.000Z</time></trkpt><trkpt lon="5.955735" lat="51.029645"><ele>51.8</ele><time>2022-06-12T06:54:47.000Z</time></trkpt><trkpt lon="5.955833" lat="51.029629"><ele>51.8</ele><time>2022-06-12T06:54:48.000Z</time></trkpt><trkpt lon="5.955933" lat="51.029633"><ele>51.8</ele><time>2022-06-12T06:54:49.000Z</time></trkpt><trkpt lon="5.956026" lat="51.029655"><ele>51.8</ele><time>2022-06-12T06:54:50.000Z</time></trkpt><trkpt lon="5.956109" lat="51.0297"><ele>51.8</ele><time>2022-06-12T06:54:51.000Z</time></trkpt><trkpt lon="5.956181" lat="51.029757"><ele>51.8</ele><time>2022-06-12T06:54:52.000Z</time></trkpt><trkpt lon="5.956248" lat="51.02981"><ele>51.6</ele><time>2022-06-12T06:54:53.000Z</time></trkpt><trkpt lon="5.956314" lat="51.029875"><ele>51.6</ele><time>2022-06-12T06:54:54.000Z</time></trkpt><trkpt lon="5.956377" lat="51.029936"><ele>51.4</ele><time>2022-06-12T06:54:55.000Z</time></trkpt><trkpt lon="5.956437" lat="51.029997"><ele>51.4</ele><time>2022-06-12T06:54:56.000Z</time></trkpt><trkpt lon="5.9565" lat="51.030058"><ele>51.4</ele><time>2022-06-12T06:54:57.000Z</time></trkpt><trkpt lon="5.956561" lat="51.030122"><ele>51.4</ele><time>2022-06-12T06:54:58.000Z</time></trkpt><trkpt lon="5.956626" lat="51.030177"><ele>51.4</ele><time>2022-06-12T06:54:59.000Z</time></trkpt><trkpt lon="5.956699" lat="51.030232"><ele>51.4</ele><time>2022-06-12T06:55:00.000Z</time></trkpt><trkpt lon="5.956774" lat="51.03029"><ele>51.4</ele><time>2022-06-12T06:55:01.000Z</time></trkpt><trkpt lon="5.95684" lat="51.030352"><ele>51.4</ele><time>2022-06-12T06:55:02.000Z</time></trkpt><trkpt lon="5.956905" lat="51.030417"><ele>51.4</ele><time>2022-06-12T06:55:03.000Z</time></trkpt><trkpt lon="5.956967" lat="51.03048"><ele>51.4</ele><time>2022-06-12T06:55:04.000Z</time></trkpt><trkpt lon="5.957032" lat="51.030538"><ele>51.4</ele><time>2022-06-12T06:55:05.000Z</time></trkpt><trkpt lon="5.9571" lat="51.0306"><ele>51.4</ele><time>2022-06-12T06:55:06.000Z</time></trkpt><trkpt lon="5.957162" lat="51.030657"><ele>51.6</ele><time>2022-06-12T06:55:07.000Z</time></trkpt><trkpt lon="5.957221" lat="51.030719"><ele>51.8</ele><time>2022-06-12T06:55:08.000Z</time></trkpt><trkpt lon="5.957281" lat="51.030775"><ele>51.8</ele><time>2022-06-12T06:55:09.000Z</time></trkpt><trkpt lon="5.957345" lat="51.03084"><ele>52</ele><time>2022-06-12T06:55:10.000Z</time></trkpt><trkpt lon="5.957395" lat="51.030905"><ele>52</ele><time>2022-06-12T06:55:11.000Z</time></trkpt><trkpt lon="5.957447" lat="51.030969"><ele>52</ele><time>2022-06-12T06:55:12.000Z</time></trkpt><trkpt lon="5.957496" lat="51.031037"><ele>52</ele><time>2022-06-12T06:55:13.000Z</time></trkpt><trkpt lon="5.957543" lat="51.031099"><ele>52.2</ele><time>2022-06-12T06:55:14.000Z</time></trkpt><trkpt lon="5.957587" lat="51.03116"><ele>52.2</ele><time>2022-06-12T06:55:15.000Z</time></trkpt><trkpt lon="5.95763" lat="51.031224"><ele>52.2</ele><time>2022-06-12T06:55:16.000Z</time></trkpt><trkpt lon="5.957672" lat="51.031286"><ele>52.2</ele><time>2022-06-12T06:55:17.000Z</time></trkpt><trkpt lon="5.957715" lat="51.03134"><ele>52.4</ele><time>2022-06-12T06:55:18.000Z</time></trkpt><trkpt lon="5.957761" lat="51.031394"><ele>52.6</ele><time>2022-06-12T06:55:19.000Z</time></trkpt><trkpt lon="5.95781" lat="51.031443"><ele>52.8</ele><time>2022-06-12T06:55:20.000Z</time></trkpt><trkpt lon="5.957865" lat="51.031493"><ele>52.8</ele><time>2022-06-12T06:55:21.000Z</time></trkpt><trkpt lon="5.957922" lat="51.031542"><ele>52.8</ele><time>2022-06-12T06:55:22.000Z</time></trkpt><trkpt lon="5.957985" lat="51.031599"><ele>53</ele><time>2022-06-12T06:55:23.000Z</time></trkpt><trkpt lon="5.958054" lat="51.031656"><ele>53</ele><time>2022-06-12T06:55:24.000Z</time></trkpt><trkpt lon="5.958127" lat="51.031702"><ele>53.2</ele><time>2022-06-12T06:55:25.000Z</time></trkpt><trkpt lon="5.958218" lat="51.031749"><ele>53.2</ele><time>2022-06-12T06:55:26.000Z</time></trkpt><trkpt lon="5.958306" lat="51.031791"><ele>53.2</ele><time>2022-06-12T06:55:27.000Z</time></trkpt><trkpt lon="5.958393" lat="51.03184"><ele>53.2</ele><time>2022-06-12T06:55:28.000Z</time></trkpt><trkpt lon="5.958488" lat="51.031878"><ele>53.2</ele><time>2022-06-12T06:55:29.000Z</time></trkpt><trkpt lon="5.95859" lat="51.031912"><ele>53</ele><time>2022-06-12T06:55:30.000Z</time></trkpt><trkpt lon="5.958695" lat="51.031943"><ele>53</ele><time>2022-06-12T06:55:31.000Z</time></trkpt><trkpt lon="5.958804" lat="51.031963"><ele>53</ele><time>2022-06-12T06:55:32.000Z</time></trkpt><trkpt lon="5.958916" lat="51.031971"><ele>53</ele><time>2022-06-12T06:55:33.000Z</time></trkpt><trkpt lon="5.959026" lat="51.031975"><ele>53.2</ele><time>2022-06-12T06:55:34.000Z</time></trkpt><trkpt lon="5.959134" lat="51.031975"><ele>53.4</ele><time>2022-06-12T06:55:35.000Z</time></trkpt><trkpt lon="5.959246" lat="51.031975"><ele>53.6</ele><time>2022-06-12T06:55:36.000Z</time></trkpt><trkpt lon="5.959362" lat="51.031975"><ele>53.8</ele><time>2022-06-12T06:55:37.000Z</time></trkpt><trkpt lon="5.959475" lat="51.031975"><ele>54</ele><time>2022-06-12T06:55:38.000Z</time></trkpt><trkpt lon="5.959581" lat="51.031975"><ele>54.2</ele><time>2022-06-12T06:55:39.000Z</time></trkpt><trkpt lon="5.959698" lat="51.031975"><ele>54.2</ele><time>2022-06-12T06:55:40.000Z</time></trkpt><trkpt lon="5.959806" lat="51.031971"><ele>54.4</ele><time>2022-06-12T06:55:41.000Z</time></trkpt><trkpt lon="5.959917" lat="51.031975"><ele>54.4</ele><time>2022-06-12T06:55:42.000Z</time></trkpt><trkpt lon="5.960024" lat="51.031978"><ele>54.4</ele><time>2022-06-12T06:55:43.000Z</time></trkpt><trkpt lon="5.960134" lat="51.031982"><ele>54.4</ele><time>2022-06-12T06:55:44.000Z</time></trkpt><trkpt lon="5.960243" lat="51.031986"><ele>54.6</ele><time>2022-06-12T06:55:45.000Z</time></trkpt><trkpt lon="5.96035" lat="51.03199"><ele>54.6</ele><time>2022-06-12T06:55:46.000Z</time></trkpt><trkpt lon="5.960453" lat="51.031997"><ele>54.8</ele><time>2022-06-12T06:55:47.000Z</time></trkpt><trkpt lon="5.960561" lat="51.032016"><ele>54.8</ele><time>2022-06-12T06:55:48.000Z</time></trkpt><trkpt lon="5.960665" lat="51.032043"><ele>54.8</ele><time>2022-06-12T06:55:49.000Z</time></trkpt><trkpt lon="5.960759" lat="51.032084"><ele>54.8</ele><time>2022-06-12T06:55:50.000Z</time></trkpt><trkpt lon="5.960839" lat="51.03213"><ele>54.8</ele><time>2022-06-12T06:55:51.000Z</time></trkpt><trkpt lon="5.960904" lat="51.032183"><ele>55</ele><time>2022-06-12T06:55:52.000Z</time></trkpt><trkpt lon="5.960952" lat="51.032247"><ele>55.2</ele><time>2022-06-12T06:55:53.000Z</time></trkpt><trkpt lon="5.960989" lat="51.032316"><ele>55.4</ele><time>2022-06-12T06:55:54.000Z</time></trkpt><trkpt lon="5.96103" lat="51.032381"><ele>55.4</ele><time>2022-06-12T06:55:55.000Z</time></trkpt><trkpt lon="5.961066" lat="51.032433"><ele>55.6</ele><time>2022-06-12T06:55:56.000Z</time></trkpt><trkpt lon="5.961119" lat="51.032507"><ele>55.8</ele><time>2022-06-12T06:55:57.000Z</time></trkpt><trkpt lon="5.961165" lat="51.032567"><ele>55.8</ele><time>2022-06-12T06:55:58.000Z</time></trkpt><trkpt lon="5.961211" lat="51.032628"><ele>55.8</ele><time>2022-06-12T06:55:59.000Z</time></trkpt><trkpt lon="5.96126" lat="51.03269"><ele>56</ele><time>2022-06-12T06:56:00.000Z</time></trkpt><trkpt lon="5.961319" lat="51.032748"><ele>56.2</ele><time>2022-06-12T06:56:01.000Z</time></trkpt><trkpt lon="5.961382" lat="51.032801"><ele>56.4</ele><time>2022-06-12T06:56:02.000Z</time></trkpt><trkpt lon="5.961448" lat="51.032855"><ele>56.6</ele><time>2022-06-12T06:56:03.000Z</time></trkpt><trkpt lon="5.961522" lat="51.0329"><ele>56.8</ele><time>2022-06-12T06:56:04.000Z</time></trkpt><trkpt lon="5.961601" lat="51.032939"><ele>56.8</ele><time>2022-06-12T06:56:05.000Z</time></trkpt><trkpt lon="5.961676" lat="51.03298"><ele>57</ele><time>2022-06-12T06:56:06.000Z</time></trkpt><trkpt lon="5.961754" lat="51.033019"><ele>57.2</ele><time>2022-06-12T06:56:07.000Z</time></trkpt><trkpt lon="5.961826" lat="51.033053"><ele>57.4</ele><time>2022-06-12T06:56:08.000Z</time></trkpt><trkpt lon="5.961904" lat="51.033073"><ele>57.4</ele><time>2022-06-12T06:56:09.000Z</time></trkpt><trkpt lon="5.961983" lat="51.033073"><ele>57.6</ele><time>2022-06-12T06:56:10.000Z</time></trkpt><trkpt lon="5.962063" lat="51.033059"><ele>57.8</ele><time>2022-06-12T06:56:11.000Z</time></trkpt><trkpt lon="5.962139" lat="51.033032"><ele>58.2</ele><time>2022-06-12T06:56:12.000Z</time></trkpt><trkpt lon="5.962218" lat="51.033002"><ele>58.4</ele><time>2022-06-12T06:56:13.000Z</time></trkpt><trkpt lon="5.962294" lat="51.032968"><ele>58.6</ele><time>2022-06-12T06:56:14.000Z</time></trkpt><trkpt lon="5.962371" lat="51.032937"><ele>58.8</ele><time>2022-06-12T06:56:15.000Z</time></trkpt><trkpt lon="5.962451" lat="51.032906"><ele>58.8</ele><time>2022-06-12T06:56:16.000Z</time></trkpt><trkpt lon="5.962532" lat="51.032876"><ele>59</ele><time>2022-06-12T06:56:17.000Z</time></trkpt><trkpt lon="5.962618" lat="51.032845"><ele>59.2</ele><time>2022-06-12T06:56:18.000Z</time></trkpt><trkpt lon="5.962698" lat="51.032818"><ele>59.4</ele><time>2022-06-12T06:56:19.000Z</time></trkpt><trkpt lon="5.962778" lat="51.032788"><ele>59.8</ele><time>2022-06-12T06:56:20.000Z</time></trkpt><trkpt lon="5.962858" lat="51.032758"><ele>60</ele><time>2022-06-12T06:56:21.000Z</time></trkpt><trkpt lon="5.962936" lat="51.032727"><ele>60.2</ele><time>2022-06-12T06:56:22.000Z</time></trkpt><trkpt lon="5.963012" lat="51.032697"><ele>60.4</ele><time>2022-06-12T06:56:23.000Z</time></trkpt><trkpt lon="5.963093" lat="51.032662"><ele>60.4</ele><time>2022-06-12T06:56:24.000Z</time></trkpt><trkpt lon="5.963176" lat="51.032632"><ele>60.4</ele><time>2022-06-12T06:56:25.000Z</time></trkpt><trkpt lon="5.963258" lat="51.032597"><ele>60.6</ele><time>2022-06-12T06:56:26.000Z</time></trkpt><trkpt lon="5.96334" lat="51.032563"><ele>60.6</ele><time>2022-06-12T06:56:27.000Z</time></trkpt><trkpt lon="5.963422" lat="51.032525"><ele>60.6</ele><time>2022-06-12T06:56:28.000Z</time></trkpt><trkpt lon="5.963506" lat="51.032488"><ele>60.6</ele><time>2022-06-12T06:56:29.000Z</time></trkpt><trkpt lon="5.963594" lat="51.032449"><ele>60.6</ele><time>2022-06-12T06:56:30.000Z</time></trkpt><trkpt lon="5.963686" lat="51.032411"><ele>60.4</ele><time>2022-06-12T06:56:31.000Z</time></trkpt><trkpt lon="5.963779" lat="51.032373"><ele>60.2</ele><time>2022-06-12T06:56:32.000Z</time></trkpt><trkpt lon="5.963872" lat="51.032338"><ele>60</ele><time>2022-06-12T06:56:33.000Z</time></trkpt><trkpt lon="5.963965" lat="51.032304"><ele>60</ele><time>2022-06-12T06:56:34.000Z</time></trkpt><trkpt lon="5.964064" lat="51.032274"><ele>59.8</ele><time>2022-06-12T06:56:35.000Z</time></trkpt><trkpt lon="5.964167" lat="51.032243"><ele>59.8</ele><time>2022-06-12T06:56:36.000Z</time></trkpt><trkpt lon="5.964273" lat="51.032216"><ele>59.8</ele><time>2022-06-12T06:56:37.000Z</time></trkpt><trkpt lon="5.964377" lat="51.032189"><ele>60</ele><time>2022-06-12T06:56:38.000Z</time></trkpt><trkpt lon="5.964477" lat="51.032159"><ele>60</ele><time>2022-06-12T06:56:39.000Z</time></trkpt><trkpt lon="5.964576" lat="51.032125"><ele>60</ele><time>2022-06-12T06:56:40.000Z</time></trkpt><trkpt lon="5.964677" lat="51.032098"><ele>60</ele><time>2022-06-12T06:56:41.000Z</time></trkpt><trkpt lon="5.964782" lat="51.032071"><ele>60.2</ele><time>2022-06-12T06:56:42.000Z</time></trkpt><trkpt lon="5.964882" lat="51.032049"><ele>60.2</ele><time>2022-06-12T06:56:43.000Z</time></trkpt><trkpt lon="5.964984" lat="51.032026"><ele>60.2</ele><time>2022-06-12T06:56:44.000Z</time></trkpt><trkpt lon="5.965089" lat="51.032002"><ele>60.2</ele><time>2022-06-12T06:56:45.000Z</time></trkpt><trkpt lon="5.965194" lat="51.031976"><ele>60.4</ele><time>2022-06-12T06:56:46.000Z</time></trkpt><trkpt lon="5.965298" lat="51.031953"><ele>60.4</ele><time>2022-06-12T06:56:47.000Z</time></trkpt><trkpt lon="5.965394" lat="51.031931"><ele>60.4</ele><time>2022-06-12T06:56:48.000Z</time></trkpt><trkpt lon="5.965501" lat="51.031907"><ele>60.6</ele><time>2022-06-12T06:56:49.000Z</time></trkpt><trkpt lon="5.965595" lat="51.031884"><ele>60.6</ele><time>2022-06-12T06:56:50.000Z</time></trkpt><trkpt lon="5.96569" lat="51.031865"><ele>60.6</ele><time>2022-06-12T06:56:51.000Z</time></trkpt><trkpt lon="5.965789" lat="51.031842"><ele>60.8</ele><time>2022-06-12T06:56:52.000Z</time></trkpt><trkpt lon="5.965884" lat="51.031819"><ele>61</ele><time>2022-06-12T06:56:53.000Z</time></trkpt><trkpt lon="5.965981" lat="51.0318"><ele>61</ele><time>2022-06-12T06:56:54.000Z</time></trkpt><trkpt lon="5.966081" lat="51.031777"><ele>61.2</ele><time>2022-06-12T06:56:55.000Z</time></trkpt><trkpt lon="5.966181" lat="51.031754"><ele>61.2</ele><time>2022-06-12T06:56:56.000Z</time></trkpt><trkpt lon="5.966282" lat="51.031728"><ele>61.2</ele><time>2022-06-12T06:56:57.000Z</time></trkpt><trkpt lon="5.966379" lat="51.031705"><ele>61.2</ele><time>2022-06-12T06:56:58.000Z</time></trkpt><trkpt lon="5.966481" lat="51.031682"><ele>61.4</ele><time>2022-06-12T06:56:59.000Z</time></trkpt><trkpt lon="5.966584" lat="51.031659"><ele>61.4</ele><time>2022-06-12T06:57:00.000Z</time></trkpt><trkpt lon="5.966686" lat="51.031644"><ele>61.6</ele><time>2022-06-12T06:57:01.000Z</time></trkpt><trkpt lon="5.966788" lat="51.031625"><ele>61.6</ele><time>2022-06-12T06:57:02.000Z</time></trkpt><trkpt lon="5.96689" lat="51.031602"><ele>61.6</ele><time>2022-06-12T06:57:03.000Z</time></trkpt><trkpt lon="5.966991" lat="51.031582"><ele>61.6</ele><time>2022-06-12T06:57:04.000Z</time></trkpt><trkpt lon="5.967093" lat="51.031563"><ele>61.6</ele><time>2022-06-12T06:57:05.000Z</time></trkpt><trkpt lon="5.967196" lat="51.03154"><ele>61.6</ele><time>2022-06-12T06:57:06.000Z</time></trkpt><trkpt lon="5.967297" lat="51.031518"><ele>61.8</ele><time>2022-06-12T06:57:07.000Z</time></trkpt><trkpt lon="5.967397" lat="51.031495"><ele>61.8</ele><time>2022-06-12T06:57:08.000Z</time></trkpt><trkpt lon="5.967501" lat="51.031476"><ele>62</ele><time>2022-06-12T06:57:09.000Z</time></trkpt><trkpt lon="5.967603" lat="51.031453"><ele>62.2</ele><time>2022-06-12T06:57:10.000Z</time></trkpt><trkpt lon="5.967709" lat="51.031434"><ele>62.2</ele><time>2022-06-12T06:57:11.000Z</time></trkpt><trkpt lon="5.967814" lat="51.031411"><ele>62.2</ele><time>2022-06-12T06:57:12.000Z</time></trkpt><trkpt lon="5.967916" lat="51.031388"><ele>62.4</ele><time>2022-06-12T06:57:13.000Z</time></trkpt><trkpt lon="5.96802" lat="51.031369"><ele>62.6</ele><time>2022-06-12T06:57:14.000Z</time></trkpt><trkpt lon="5.968125" lat="51.031346"><ele>62.6</ele><time>2022-06-12T06:57:15.000Z</time></trkpt><trkpt lon="5.968229" lat="51.031323"><ele>62.6</ele><time>2022-06-12T06:57:16.000Z</time></trkpt><trkpt lon="5.968334" lat="51.031304"><ele>62.4</ele><time>2022-06-12T06:57:17.000Z</time></trkpt><trkpt lon="5.968439" lat="51.031281"><ele>62.4</ele><time>2022-06-12T06:57:18.000Z</time></trkpt><trkpt lon="5.968542" lat="51.031258"><ele>62.4</ele><time>2022-06-12T06:57:19.000Z</time></trkpt><trkpt lon="5.968647" lat="51.031239"><ele>62.6</ele><time>2022-06-12T06:57:20.000Z</time></trkpt><trkpt lon="5.96875" lat="51.031216"><ele>62.6</ele><time>2022-06-12T06:57:21.000Z</time></trkpt><trkpt lon="5.968854" lat="51.031197"><ele>62.6</ele><time>2022-06-12T06:57:22.000Z</time></trkpt><trkpt lon="5.968958" lat="51.031175"><ele>62.6</ele><time>2022-06-12T06:57:23.000Z</time></trkpt><trkpt lon="5.969059" lat="51.031156"><ele>62.6</ele><time>2022-06-12T06:57:24.000Z</time></trkpt><trkpt lon="5.969167" lat="51.031132"><ele>62.6</ele><time>2022-06-12T06:57:25.000Z</time></trkpt><trkpt lon="5.969269" lat="51.031114"><ele>62.6</ele><time>2022-06-12T06:57:26.000Z</time></trkpt><trkpt lon="5.969375" lat="51.031091"><ele>62.6</ele><time>2022-06-12T06:57:27.000Z</time></trkpt><trkpt lon="5.969481" lat="51.031071"><ele>62.6</ele><time>2022-06-12T06:57:28.000Z</time></trkpt><trkpt lon="5.969584" lat="51.031053"><ele>62.6</ele><time>2022-06-12T06:57:29.000Z</time></trkpt><trkpt lon="5.969693" lat="51.03103"><ele>62.8</ele><time>2022-06-12T06:57:30.000Z</time></trkpt><trkpt lon="5.969799" lat="51.03101"><ele>62.8</ele><time>2022-06-12T06:57:31.000Z</time></trkpt><trkpt lon="5.969905" lat="51.030987"><ele>62.8</ele><time>2022-06-12T06:57:32.000Z</time></trkpt><trkpt lon="5.970007" lat="51.030969"><ele>62.8</ele><time>2022-06-12T06:57:33.000Z</time></trkpt><trkpt lon="5.970116" lat="51.030945"><ele>62.8</ele><time>2022-06-12T06:57:34.000Z</time></trkpt><trkpt lon="5.970221" lat="51.030926"><ele>62.8</ele><time>2022-06-12T06:57:35.000Z</time></trkpt><trkpt lon="5.970325" lat="51.030907"><ele>63</ele><time>2022-06-12T06:57:36.000Z</time></trkpt><trkpt lon="5.970431" lat="51.030885"><ele>62.8</ele><time>2022-06-12T06:57:37.000Z</time></trkpt><trkpt lon="5.970535" lat="51.030865"><ele>62.8</ele><time>2022-06-12T06:57:38.000Z</time></trkpt><trkpt lon="5.970629" lat="51.030845"><ele>62.6</ele><time>2022-06-12T06:57:39.000Z</time></trkpt><trkpt lon="5.970742" lat="51.030823"><ele>62.6</ele><time>2022-06-12T06:57:40.000Z</time></trkpt><trkpt lon="5.970843" lat="51.030801"><ele>62.6</ele><time>2022-06-12T06:57:41.000Z</time></trkpt><trkpt lon="5.970949" lat="51.030781"><ele>62.6</ele><time>2022-06-12T06:57:42.000Z</time></trkpt><trkpt lon="5.971047" lat="51.030763"><ele>62.6</ele><time>2022-06-12T06:57:43.000Z</time></trkpt><trkpt lon="5.971158" lat="51.030743"><ele>62.4</ele><time>2022-06-12T06:57:44.000Z</time></trkpt><trkpt lon="5.971265" lat="51.030724"><ele>62.4</ele><time>2022-06-12T06:57:45.000Z</time></trkpt><trkpt lon="5.971374" lat="51.030698"><ele>62.2</ele><time>2022-06-12T06:57:46.000Z</time></trkpt><trkpt lon="5.971485" lat="51.030678"><ele>62.2</ele><time>2022-06-12T06:57:47.000Z</time></trkpt><trkpt lon="5.971598" lat="51.030656"><ele>61.8</ele><time>2022-06-12T06:57:48.000Z</time></trkpt><trkpt lon="5.971704" lat="51.030631"><ele>61.6</ele><time>2022-06-12T06:57:49.000Z</time></trkpt><trkpt lon="5.971828" lat="51.030602"><ele>61.4</ele><time>2022-06-12T06:57:50.000Z</time></trkpt><trkpt lon="5.971945" lat="51.030572"><ele>61</ele><time>2022-06-12T06:57:51.000Z</time></trkpt><trkpt lon="5.972058" lat="51.030539"><ele>60.6</ele><time>2022-06-12T06:57:52.000Z</time></trkpt><trkpt lon="5.97218" lat="51.030503"><ele>60.2</ele><time>2022-06-12T06:57:53.000Z</time></trkpt><trkpt lon="5.972297" lat="51.030466"><ele>59.8</ele><time>2022-06-12T06:57:54.000Z</time></trkpt><trkpt lon="5.972418" lat="51.030423"><ele>59.4</ele><time>2022-06-12T06:57:55.000Z</time></trkpt><trkpt lon="5.972539" lat="51.030378"><ele>58.8</ele><time>2022-06-12T06:57:56.000Z</time></trkpt><trkpt lon="5.972662" lat="51.030336"><ele>58.4</ele><time>2022-06-12T06:57:57.000Z</time></trkpt><trkpt lon="5.972788" lat="51.030294"><ele>58.2</ele><time>2022-06-12T06:57:58.000Z</time></trkpt><trkpt lon="5.972913" lat="51.030274"><ele>57.8</ele><time>2022-06-12T06:57:59.000Z</time></trkpt><trkpt lon="5.973044" lat="51.030262"><ele>57.6</ele><time>2022-06-12T06:58:00.000Z</time></trkpt><trkpt lon="5.973182" lat="51.030262"><ele>57.6</ele><time>2022-06-12T06:58:01.000Z</time></trkpt><trkpt lon="5.973317" lat="51.030269"><ele>57.4</ele><time>2022-06-12T06:58:02.000Z</time></trkpt><trkpt lon="5.973456" lat="51.030277"><ele>57.2</ele><time>2022-06-12T06:58:03.000Z</time></trkpt><trkpt lon="5.973591" lat="51.030285"><ele>57</ele><time>2022-06-12T06:58:04.000Z</time></trkpt><trkpt lon="5.973727" lat="51.030289"><ele>57</ele><time>2022-06-12T06:58:05.000Z</time></trkpt><trkpt lon="5.97386" lat="51.030292"><ele>57</ele><time>2022-06-12T06:58:06.000Z</time></trkpt><trkpt lon="5.97399" lat="51.030293"><ele>56.8</ele><time>2022-06-12T06:58:07.000Z</time></trkpt><trkpt lon="5.974119" lat="51.030285"><ele>57</ele><time>2022-06-12T06:58:08.000Z</time></trkpt><trkpt lon="5.974245" lat="51.030274"><ele>57</ele><time>2022-06-12T06:58:09.000Z</time></trkpt><trkpt lon="5.974366" lat="51.030259"><ele>57.4</ele><time>2022-06-12T06:58:10.000Z</time></trkpt><trkpt lon="5.974482" lat="51.030236"><ele>57.6</ele><time>2022-06-12T06:58:11.000Z</time></trkpt><trkpt lon="5.974591" lat="51.03021"><ele>57.8</ele><time>2022-06-12T06:58:12.000Z</time></trkpt><trkpt lon="5.974695" lat="51.030183"><ele>58.2</ele><time>2022-06-12T06:58:13.000Z</time></trkpt><trkpt lon="5.974795" lat="51.030156"><ele>58.6</ele><time>2022-06-12T06:58:14.000Z</time></trkpt><trkpt lon="5.974895" lat="51.030129"><ele>59</ele><time>2022-06-12T06:58:15.000Z</time></trkpt><trkpt lon="5.974993" lat="51.030103"><ele>59.4</ele><time>2022-06-12T06:58:16.000Z</time></trkpt><trkpt lon="5.975094" lat="51.030072"><ele>59.8</ele><time>2022-06-12T06:58:17.000Z</time></trkpt><trkpt lon="5.975191" lat="51.030045"><ele>60.2</ele><time>2022-06-12T06:58:18.000Z</time></trkpt><trkpt lon="5.975288" lat="51.030015"><ele>60.6</ele><time>2022-06-12T06:58:19.000Z</time></trkpt><trkpt lon="5.975387" lat="51.029984"><ele>60.8</ele><time>2022-06-12T06:58:20.000Z</time></trkpt><trkpt lon="5.975483" lat="51.029958"><ele>61</ele><time>2022-06-12T06:58:21.000Z</time></trkpt><trkpt lon="5.975582" lat="51.029927"><ele>61.4</ele><time>2022-06-12T06:58:22.000Z</time></trkpt><trkpt lon="5.975672" lat="51.029899"><ele>61.4</ele><time>2022-06-12T06:58:23.000Z</time></trkpt><trkpt lon="5.975776" lat="51.029867"><ele>61.6</ele><time>2022-06-12T06:58:24.000Z</time></trkpt><trkpt lon="5.975877" lat="51.029839"><ele>61.8</ele><time>2022-06-12T06:58:25.000Z</time></trkpt><trkpt lon="5.975974" lat="51.029813"><ele>61.8</ele><time>2022-06-12T06:58:26.000Z</time></trkpt><trkpt lon="5.976077" lat="51.029786"><ele>62</ele><time>2022-06-12T06:58:27.000Z</time></trkpt><trkpt lon="5.976177" lat="51.029759"><ele>62</ele><time>2022-06-12T06:58:28.000Z</time></trkpt><trkpt lon="5.976276" lat="51.029733"><ele>62.2</ele><time>2022-06-12T06:58:29.000Z</time></trkpt><trkpt lon="5.976375" lat="51.02971"><ele>62.2</ele><time>2022-06-12T06:58:30.000Z</time></trkpt><trkpt lon="5.976481" lat="51.02969"><ele>62.2</ele><time>2022-06-12T06:58:31.000Z</time></trkpt><trkpt lon="5.976586" lat="51.029671"><ele>62.4</ele><time>2022-06-12T06:58:32.000Z</time></trkpt><trkpt lon="5.97669" lat="51.029652"><ele>62.4</ele><time>2022-06-12T06:58:33.000Z</time></trkpt><trkpt lon="5.976797" lat="51.029633"><ele>62.4</ele><time>2022-06-12T06:58:34.000Z</time></trkpt><trkpt lon="5.976904" lat="51.029614"><ele>62.6</ele><time>2022-06-12T06:58:35.000Z</time></trkpt><trkpt lon="5.977007" lat="51.029599"><ele>62.6</ele><time>2022-06-12T06:58:36.000Z</time></trkpt><trkpt lon="5.977107" lat="51.029584"><ele>62.6</ele><time>2022-06-12T06:58:37.000Z</time></trkpt><trkpt lon="5.977205" lat="51.029569"><ele>62.6</ele><time>2022-06-12T06:58:38.000Z</time></trkpt><trkpt lon="5.977316" lat="51.02956"><ele>62.4</ele><time>2022-06-12T06:58:39.000Z</time></trkpt><trkpt lon="5.977422" lat="51.029549"><ele>62.4</ele><time>2022-06-12T06:58:40.000Z</time></trkpt><trkpt lon="5.977527" lat="51.029538"><ele>62.4</ele><time>2022-06-12T06:58:41.000Z</time></trkpt><trkpt lon="5.977632" lat="51.02953"><ele>62.4</ele><time>2022-06-12T06:58:42.000Z</time></trkpt><trkpt lon="5.977736" lat="51.029522"><ele>62.4</ele><time>2022-06-12T06:58:43.000Z</time></trkpt><trkpt lon="5.977839" lat="51.029515"><ele>62.4</ele><time>2022-06-12T06:58:44.000Z</time></trkpt><trkpt lon="5.977941" lat="51.029507"><ele>62.6</ele><time>2022-06-12T06:58:45.000Z</time></trkpt><trkpt lon="5.978046" lat="51.029499"><ele>62.6</ele><time>2022-06-12T06:58:46.000Z</time></trkpt><trkpt lon="5.978147" lat="51.029489"><ele>62.8</ele><time>2022-06-12T06:58:47.000Z</time></trkpt><trkpt lon="5.978258" lat="51.02948"><ele>62.8</ele><time>2022-06-12T06:58:48.000Z</time></trkpt><trkpt lon="5.97837" lat="51.029473"><ele>62.8</ele><time>2022-06-12T06:58:49.000Z</time></trkpt><trkpt lon="5.978484" lat="51.029465"><ele>62.8</ele><time>2022-06-12T06:58:50.000Z</time></trkpt><trkpt lon="5.978599" lat="51.029454"><ele>62.8</ele><time>2022-06-12T06:58:51.000Z</time></trkpt><trkpt lon="5.978713" lat="51.02945"><ele>62.8</ele><time>2022-06-12T06:58:52.000Z</time></trkpt><trkpt lon="5.97883" lat="51.029438"><ele>62.8</ele><time>2022-06-12T06:58:53.000Z</time></trkpt><trkpt lon="5.978947" lat="51.029431"><ele>62.8</ele><time>2022-06-12T06:58:54.000Z</time></trkpt><trkpt lon="5.979064" lat="51.029419"><ele>62.8</ele><time>2022-06-12T06:58:55.000Z</time></trkpt><trkpt lon="5.979179" lat="51.029412"><ele>63</ele><time>2022-06-12T06:58:56.000Z</time></trkpt><trkpt lon="5.979294" lat="51.0294"><ele>63</ele><time>2022-06-12T06:58:57.000Z</time></trkpt><trkpt lon="5.979405" lat="51.029393"><ele>63</ele><time>2022-06-12T06:58:58.000Z</time></trkpt><trkpt lon="5.979522" lat="51.029385"><ele>63.2</ele><time>2022-06-12T06:58:59.000Z</time></trkpt><trkpt lon="5.979633" lat="51.029374"><ele>63.2</ele><time>2022-06-12T06:59:00.000Z</time></trkpt><trkpt lon="5.979743" lat="51.029366"><ele>63.2</ele><time>2022-06-12T06:59:01.000Z</time></trkpt><trkpt lon="5.979846" lat="51.029358"><ele>63.2</ele><time>2022-06-12T06:59:02.000Z</time></trkpt><trkpt lon="5.979957" lat="51.02935"><ele>63.2</ele><time>2022-06-12T06:59:03.000Z</time></trkpt><trkpt lon="5.980059" lat="51.029347"><ele>63.2</ele><time>2022-06-12T06:59:04.000Z</time></trkpt><trkpt lon="5.980173" lat="51.029335"><ele>63.2</ele><time>2022-06-12T06:59:05.000Z</time></trkpt><trkpt lon="5.980282" lat="51.029328"><ele>63.2</ele><time>2022-06-12T06:59:06.000Z</time></trkpt><trkpt lon="5.980393" lat="51.02932"><ele>63.4</ele><time>2022-06-12T06:59:07.000Z</time></trkpt><trkpt lon="5.980498" lat="51.02931"><ele>63.4</ele><time>2022-06-12T06:59:08.000Z</time></trkpt><trkpt lon="5.980598" lat="51.029302"><ele>63.4</ele><time>2022-06-12T06:59:09.000Z</time></trkpt><trkpt lon="5.980716" lat="51.029293"><ele>63.6</ele><time>2022-06-12T06:59:10.000Z</time></trkpt><trkpt lon="5.98084" lat="51.029282"><ele>63.6</ele><time>2022-06-12T06:59:11.000Z</time></trkpt><trkpt lon="5.980955" lat="51.029271"><ele>63.6</ele><time>2022-06-12T06:59:12.000Z</time></trkpt><trkpt lon="5.981069" lat="51.029259"><ele>63.6</ele><time>2022-06-12T06:59:13.000Z</time></trkpt><trkpt lon="5.981184" lat="51.029248"><ele>63.6</ele><time>2022-06-12T06:59:14.000Z</time></trkpt><trkpt lon="5.981296" lat="51.029232"><ele>63.6</ele><time>2022-06-12T06:59:15.000Z</time></trkpt><trkpt lon="5.981405" lat="51.029217"><ele>63.6</ele><time>2022-06-12T06:59:16.000Z</time></trkpt><trkpt lon="5.98151" lat="51.029198"><ele>63.4</ele><time>2022-06-12T06:59:17.000Z</time></trkpt><trkpt lon="5.981615" lat="51.029179"><ele>63.4</ele><time>2022-06-12T06:59:18.000Z</time></trkpt><trkpt lon="5.981725" lat="51.02916"><ele>63.4</ele><time>2022-06-12T06:59:19.000Z</time></trkpt><trkpt lon="5.981837" lat="51.029137"><ele>63.2</ele><time>2022-06-12T06:59:20.000Z</time></trkpt><trkpt lon="5.981953" lat="51.029118"><ele>63.2</ele><time>2022-06-12T06:59:21.000Z</time></trkpt><trkpt lon="5.982061" lat="51.029099"><ele>63.2</ele><time>2022-06-12T06:59:22.000Z</time></trkpt><trkpt lon="5.982171" lat="51.029076"><ele>63.2</ele><time>2022-06-12T06:59:23.000Z</time></trkpt><trkpt lon="5.98228" lat="51.029053"><ele>63.2</ele><time>2022-06-12T06:59:24.000Z</time></trkpt><trkpt lon="5.982389" lat="51.029027"><ele>63.2</ele><time>2022-06-12T06:59:25.000Z</time></trkpt><trkpt lon="5.982491" lat="51.028999"><ele>63.2</ele><time>2022-06-12T06:59:26.000Z</time></trkpt><trkpt lon="5.982607" lat="51.028966"><ele>63.2</ele><time>2022-06-12T06:59:27.000Z</time></trkpt><trkpt lon="5.982712" lat="51.028929"><ele>63.2</ele><time>2022-06-12T06:59:28.000Z</time></trkpt><trkpt lon="5.982819" lat="51.02889"><ele>63</ele><time>2022-06-12T06:59:29.000Z</time></trkpt><trkpt lon="5.982917" lat="51.02885"><ele>63</ele><time>2022-06-12T06:59:30.000Z</time></trkpt><trkpt lon="5.983022" lat="51.028798"><ele>62.8</ele><time>2022-06-12T06:59:31.000Z</time></trkpt><trkpt lon="5.983117" lat="51.028754"><ele>62.8</ele><time>2022-06-12T06:59:32.000Z</time></trkpt><trkpt lon="5.983217" lat="51.028703"><ele>62.6</ele><time>2022-06-12T06:59:33.000Z</time></trkpt><trkpt lon="5.983313" lat="51.028658"><ele>62.6</ele><time>2022-06-12T06:59:34.000Z</time></trkpt><trkpt lon="5.983409" lat="51.028611"><ele>62.4</ele><time>2022-06-12T06:59:35.000Z</time></trkpt><trkpt lon="5.983504" lat="51.028566"><ele>62.4</ele><time>2022-06-12T06:59:36.000Z</time></trkpt><trkpt lon="5.983598" lat="51.02852"><ele>62.2</ele><time>2022-06-12T06:59:37.000Z</time></trkpt><trkpt lon="5.983695" lat="51.028474"><ele>62.2</ele><time>2022-06-12T06:59:38.000Z</time></trkpt><trkpt lon="5.983788" lat="51.028432"><ele>62</ele><time>2022-06-12T06:59:39.000Z</time></trkpt><trkpt lon="5.983882" lat="51.028386"><ele>62</ele><time>2022-06-12T06:59:40.000Z</time></trkpt><trkpt lon="5.983973" lat="51.028341"><ele>62</ele><time>2022-06-12T06:59:41.000Z</time></trkpt><trkpt lon="5.984064" lat="51.028295"><ele>62</ele><time>2022-06-12T06:59:42.000Z</time></trkpt><trkpt lon="5.984155" lat="51.028254"><ele>62</ele><time>2022-06-12T06:59:43.000Z</time></trkpt><trkpt lon="5.984248" lat="51.028211"><ele>62</ele><time>2022-06-12T06:59:44.000Z</time></trkpt><trkpt lon="5.984342" lat="51.028169"><ele>62</ele><time>2022-06-12T06:59:45.000Z</time></trkpt><trkpt lon="5.984439" lat="51.028127"><ele>61.8</ele><time>2022-06-12T06:59:46.000Z</time></trkpt><trkpt lon="5.984535" lat="51.028085"><ele>61.8</ele><time>2022-06-12T06:59:47.000Z</time></trkpt><trkpt lon="5.984624" lat="51.028043"><ele>61.8</ele><time>2022-06-12T06:59:48.000Z</time></trkpt><trkpt lon="5.984712" lat="51.027997"><ele>61.8</ele><time>2022-06-12T06:59:49.000Z</time></trkpt><trkpt lon="5.984797" lat="51.027948"><ele>61.8</ele><time>2022-06-12T06:59:50.000Z</time></trkpt><trkpt lon="5.984877" lat="51.027899"><ele>61.8</ele><time>2022-06-12T06:59:51.000Z</time></trkpt><trkpt lon="5.984964" lat="51.027849"><ele>61.8</ele><time>2022-06-12T06:59:52.000Z</time></trkpt><trkpt lon="5.985052" lat="51.027805"><ele>61.8</ele><time>2022-06-12T06:59:53.000Z</time></trkpt><trkpt lon="5.985148" lat="51.027758"><ele>61.8</ele><time>2022-06-12T06:59:54.000Z</time></trkpt><trkpt lon="5.985244" lat="51.027719"><ele>61.8</ele><time>2022-06-12T06:59:55.000Z</time></trkpt><trkpt lon="5.985337" lat="51.027681"><ele>61.8</ele><time>2022-06-12T06:59:56.000Z</time></trkpt><trkpt lon="5.985425" lat="51.02764"><ele>61.8</ele><time>2022-06-12T06:59:57.000Z</time></trkpt><trkpt lon="5.985517" lat="51.027593"><ele>61.8</ele><time>2022-06-12T06:59:58.000Z</time></trkpt><trkpt lon="5.985612" lat="51.027555"><ele>61.8</ele><time>2022-06-12T06:59:59.000Z</time></trkpt><trkpt lon="5.985714" lat="51.027513"><ele>62</ele><time>2022-06-12T07:00:00.000Z</time></trkpt><trkpt lon="5.98582" lat="51.027474"><ele>62</ele><time>2022-06-12T07:00:01.000Z</time></trkpt><trkpt lon="5.98593" lat="51.027437"><ele>62</ele><time>2022-06-12T07:00:02.000Z</time></trkpt><trkpt lon="5.986038" lat="51.027406"><ele>62</ele><time>2022-06-12T07:00:03.000Z</time></trkpt><trkpt lon="5.986148" lat="51.027375"><ele>61.8</ele><time>2022-06-12T07:00:04.000Z</time></trkpt><trkpt lon="5.986259" lat="51.027356"><ele>61.6</ele><time>2022-06-12T07:00:05.000Z</time></trkpt><trkpt lon="5.986373" lat="51.027337"><ele>61.6</ele><time>2022-06-12T07:00:06.000Z</time></trkpt><trkpt lon="5.986489" lat="51.027329"><ele>61.4</ele><time>2022-06-12T07:00:07.000Z</time></trkpt><trkpt lon="5.986605" lat="51.027325"><ele>61.4</ele><time>2022-06-12T07:00:08.000Z</time></trkpt><trkpt lon="5.98672" lat="51.027325"><ele>61.4</ele><time>2022-06-12T07:00:09.000Z</time></trkpt><trkpt lon="5.986836" lat="51.027328"><ele>61.4</ele><time>2022-06-12T07:00:10.000Z</time></trkpt><trkpt lon="5.986951" lat="51.027332"><ele>61.4</ele><time>2022-06-12T07:00:11.000Z</time></trkpt><trkpt lon="5.987069" lat="51.02734"><ele>61.4</ele><time>2022-06-12T07:00:12.000Z</time></trkpt><trkpt lon="5.987181" lat="51.027355"><ele>61.4</ele><time>2022-06-12T07:00:13.000Z</time></trkpt><trkpt lon="5.987289" lat="51.02737"><ele>61.4</ele><time>2022-06-12T07:00:14.000Z</time></trkpt><trkpt lon="5.987402" lat="51.027389"><ele>61.4</ele><time>2022-06-12T07:00:15.000Z</time></trkpt><trkpt lon="5.987512" lat="51.027404"><ele>61.4</ele><time>2022-06-12T07:00:16.000Z</time></trkpt><trkpt lon="5.987621" lat="51.027423"><ele>61.4</ele><time>2022-06-12T07:00:17.000Z</time></trkpt><trkpt lon="5.987734" lat="51.027442"><ele>61.4</ele><time>2022-06-12T07:00:18.000Z</time></trkpt><trkpt lon="5.987848" lat="51.027458"><ele>61.4</ele><time>2022-06-12T07:00:19.000Z</time></trkpt><trkpt lon="5.987959" lat="51.027465"><ele>61.2</ele><time>2022-06-12T07:00:20.000Z</time></trkpt><trkpt lon="5.988078" lat="51.027473"><ele>61.2</ele><time>2022-06-12T07:00:21.000Z</time></trkpt><trkpt lon="5.988205" lat="51.027481"><ele>61.2</ele><time>2022-06-12T07:00:22.000Z</time></trkpt><trkpt lon="5.98833" lat="51.027474"><ele>61</ele><time>2022-06-12T07:00:23.000Z</time></trkpt><trkpt lon="5.988449" lat="51.027459"><ele>61</ele><time>2022-06-12T07:00:24.000Z</time></trkpt><trkpt lon="5.988561" lat="51.027436"><ele>61</ele><time>2022-06-12T07:00:25.000Z</time></trkpt><trkpt lon="5.988665" lat="51.027409"><ele>61</ele><time>2022-06-12T07:00:26.000Z</time></trkpt><trkpt lon="5.988768" lat="51.027379"><ele>60.8</ele><time>2022-06-12T07:00:27.000Z</time></trkpt><trkpt lon="5.988873" lat="51.027352"><ele>60.8</ele><time>2022-06-12T07:00:28.000Z</time></trkpt><trkpt lon="5.988978" lat="51.027322"><ele>60.8</ele><time>2022-06-12T07:00:29.000Z</time></trkpt><trkpt lon="5.989087" lat="51.027299"><ele>60.6</ele><time>2022-06-12T07:00:30.000Z</time></trkpt><trkpt lon="5.989195" lat="51.027276"><ele>60.6</ele><time>2022-06-12T07:00:31.000Z</time></trkpt><trkpt lon="5.989309" lat="51.027256"><ele>60.6</ele><time>2022-06-12T07:00:32.000Z</time></trkpt><trkpt lon="5.989419" lat="51.027245"><ele>60.6</ele><time>2022-06-12T07:00:33.000Z</time></trkpt><trkpt lon="5.989533" lat="51.027241"><ele>60.4</ele><time>2022-06-12T07:00:34.000Z</time></trkpt><trkpt lon="5.989651" lat="51.027248"><ele>60.4</ele><time>2022-06-12T07:00:35.000Z</time></trkpt><trkpt lon="5.989762" lat="51.027259"><ele>60.4</ele><time>2022-06-12T07:00:36.000Z</time></trkpt><trkpt lon="5.989874" lat="51.027278"><ele>60.4</ele><time>2022-06-12T07:00:37.000Z</time></trkpt><trkpt lon="5.989981" lat="51.027294"><ele>60.4</ele><time>2022-06-12T07:00:38.000Z</time></trkpt><trkpt lon="5.990083" lat="51.027309"><ele>60.4</ele><time>2022-06-12T07:00:39.000Z</time></trkpt><trkpt lon="5.990191" lat="51.027317"><ele>60.4</ele><time>2022-06-12T07:00:40.000Z</time></trkpt><trkpt lon="5.9903" lat="51.027321"><ele>60.4</ele><time>2022-06-12T07:00:41.000Z</time></trkpt><trkpt lon="5.990411" lat="51.027321"><ele>60.4</ele><time>2022-06-12T07:00:42.000Z</time></trkpt><trkpt lon="5.990524" lat="51.027317"><ele>60.4</ele><time>2022-06-12T07:00:43.000Z</time></trkpt><trkpt lon="5.990642" lat="51.02731"><ele>60.4</ele><time>2022-06-12T07:00:44.000Z</time></trkpt><trkpt lon="5.990761" lat="51.027302"><ele>60.4</ele><time>2022-06-12T07:00:45.000Z</time></trkpt><trkpt lon="5.99088" lat="51.027291"><ele>60.2</ele><time>2022-06-12T07:00:46.000Z</time></trkpt><trkpt lon="5.990996" lat="51.027287"><ele>60.2</ele><time>2022-06-12T07:00:47.000Z</time></trkpt><trkpt lon="5.99111" lat="51.027275"><ele>60.4</ele><time>2022-06-12T07:00:48.000Z</time></trkpt><trkpt lon="5.991218" lat="51.027261"><ele>60.4</ele><time>2022-06-12T07:00:49.000Z</time></trkpt><trkpt lon="5.991343" lat="51.027241"><ele>60.4</ele><time>2022-06-12T07:00:50.000Z</time></trkpt><trkpt lon="5.991459" lat="51.027226"><ele>60.4</ele><time>2022-06-12T07:00:51.000Z</time></trkpt><trkpt lon="5.991573" lat="51.027207"><ele>60.4</ele><time>2022-06-12T07:00:52.000Z</time></trkpt><trkpt lon="5.991686" lat="51.027184"><ele>60.6</ele><time>2022-06-12T07:00:53.000Z</time></trkpt><trkpt lon="5.991798" lat="51.027158"><ele>60.6</ele><time>2022-06-12T07:00:54.000Z</time></trkpt><trkpt lon="5.991912" lat="51.027134"><ele>60.6</ele><time>2022-06-12T07:00:55.000Z</time></trkpt><trkpt lon="5.992027" lat="51.027112"><ele>60.6</ele><time>2022-06-12T07:00:56.000Z</time></trkpt><trkpt lon="5.992134" lat="51.027086"><ele>60.6</ele><time>2022-06-12T07:00:57.000Z</time></trkpt><trkpt lon="5.992247" lat="51.027063"><ele>60.6</ele><time>2022-06-12T07:00:58.000Z</time></trkpt><trkpt lon="5.992363" lat="51.027036"><ele>60.6</ele><time>2022-06-12T07:00:59.000Z</time></trkpt><trkpt lon="5.992476" lat="51.027009"><ele>60.6</ele><time>2022-06-12T07:01:00.000Z</time></trkpt><trkpt lon="5.992586" lat="51.026986"><ele>60.6</ele><time>2022-06-12T07:01:01.000Z</time></trkpt><trkpt lon="5.992697" lat="51.026963"><ele>60.6</ele><time>2022-06-12T07:01:02.000Z</time></trkpt><trkpt lon="5.992808" lat="51.026948"><ele>60.6</ele><time>2022-06-12T07:01:03.000Z</time></trkpt><trkpt lon="5.992916" lat="51.026936"><ele>60.6</ele><time>2022-06-12T07:01:04.000Z</time></trkpt><trkpt lon="5.993032" lat="51.026921"><ele>60.4</ele><time>2022-06-12T07:01:05.000Z</time></trkpt><trkpt lon="5.99315" lat="51.026905"><ele>60.4</ele><time>2022-06-12T07:01:06.000Z</time></trkpt><trkpt lon="5.993266" lat="51.02689"><ele>60.2</ele><time>2022-06-12T07:01:07.000Z</time></trkpt><trkpt lon="5.993375" lat="51.026876"><ele>60.2</ele><time>2022-06-12T07:01:08.000Z</time></trkpt><trkpt lon="5.9935" lat="51.026856"><ele>60</ele><time>2022-06-12T07:01:09.000Z</time></trkpt><trkpt lon="5.993614" lat="51.026841"><ele>60</ele><time>2022-06-12T07:01:10.000Z</time></trkpt><trkpt lon="5.993732" lat="51.026829"><ele>59.8</ele><time>2022-06-12T07:01:11.000Z</time></trkpt><trkpt lon="5.993844" lat="51.026825"><ele>59.8</ele><time>2022-06-12T07:01:12.000Z</time></trkpt><trkpt lon="5.993955" lat="51.026818"><ele>59.6</ele><time>2022-06-12T07:01:13.000Z</time></trkpt><trkpt lon="5.99407" lat="51.026814"><ele>59.4</ele><time>2022-06-12T07:01:14.000Z</time></trkpt><trkpt lon="5.994196" lat="51.02681"><ele>59.4</ele><time>2022-06-12T07:01:15.000Z</time></trkpt><trkpt lon="5.994315" lat="51.026802"><ele>59.4</ele><time>2022-06-12T07:01:16.000Z</time></trkpt><trkpt lon="5.994431" lat="51.026799"><ele>59.2</ele><time>2022-06-12T07:01:17.000Z</time></trkpt><trkpt lon="5.994555" lat="51.026802"><ele>59.2</ele><time>2022-06-12T07:01:18.000Z</time></trkpt><trkpt lon="5.994672" lat="51.026806"><ele>59.2</ele><time>2022-06-12T07:01:19.000Z</time></trkpt><trkpt lon="5.994793" lat="51.026813"><ele>59.2</ele><time>2022-06-12T07:01:20.000Z</time></trkpt><trkpt lon="5.994911" lat="51.026821"><ele>59</ele><time>2022-06-12T07:01:21.000Z</time></trkpt><trkpt lon="5.995031" lat="51.026825"><ele>59</ele><time>2022-06-12T07:01:22.000Z</time></trkpt><trkpt lon="5.995153" lat="51.026832"><ele>59</ele><time>2022-06-12T07:01:23.000Z</time></trkpt><trkpt lon="5.995272" lat="51.026844"><ele>58.8</ele><time>2022-06-12T07:01:24.000Z</time></trkpt><trkpt lon="5.995392" lat="51.026855"><ele>58.6</ele><time>2022-06-12T07:01:25.000Z</time></trkpt><trkpt lon="5.995512" lat="51.026863"><ele>58.4</ele><time>2022-06-12T07:01:26.000Z</time></trkpt><trkpt lon="5.995632" lat="51.026878"><ele>58.2</ele><time>2022-06-12T07:01:27.000Z</time></trkpt><trkpt lon="5.995746" lat="51.026885"><ele>58</ele><time>2022-06-12T07:01:28.000Z</time></trkpt><trkpt lon="5.995869" lat="51.026893"><ele>58</ele><time>2022-06-12T07:01:29.000Z</time></trkpt><trkpt lon="5.995987" lat="51.026901"><ele>58</ele><time>2022-06-12T07:01:30.000Z</time></trkpt><trkpt lon="5.996105" lat="51.026905"><ele>58</ele><time>2022-06-12T07:01:31.000Z</time></trkpt><trkpt lon="5.996224" lat="51.026909"><ele>57.8</ele><time>2022-06-12T07:01:32.000Z</time></trkpt><trkpt lon="5.996346" lat="51.026913"><ele>57.8</ele><time>2022-06-12T07:01:33.000Z</time></trkpt><trkpt lon="5.996469" lat="51.026913"><ele>57.8</ele><time>2022-06-12T07:01:34.000Z</time></trkpt><trkpt lon="5.996594" lat="51.026916"><ele>57.8</ele><time>2022-06-12T07:01:35.000Z</time></trkpt><trkpt lon="5.996712" lat="51.026917"><ele>58</ele><time>2022-06-12T07:01:36.000Z</time></trkpt><trkpt lon="5.99684" lat="51.02692"><ele>57.8</ele><time>2022-06-12T07:01:37.000Z</time></trkpt><trkpt lon="5.996937" lat="51.02692"><ele>57.6</ele><time>2022-06-12T07:01:38.000Z</time></trkpt><trkpt lon="5.997078" lat="51.02692"><ele>57.4</ele><time>2022-06-12T07:01:39.000Z</time></trkpt><trkpt lon="5.997199" lat="51.026917"><ele>57.4</ele><time>2022-06-12T07:01:40.000Z</time></trkpt><trkpt lon="5.997318" lat="51.026917"><ele>57.4</ele><time>2022-06-12T07:01:41.000Z</time></trkpt><trkpt lon="5.997434" lat="51.026917"><ele>57.6</ele><time>2022-06-12T07:01:42.000Z</time></trkpt><trkpt lon="5.997542" lat="51.026913"><ele>57.6</ele><time>2022-06-12T07:01:43.000Z</time></trkpt><trkpt lon="5.997664" lat="51.026905"><ele>57.6</ele><time>2022-06-12T07:01:44.000Z</time></trkpt><trkpt lon="5.997775" lat="51.026905"><ele>57.6</ele><time>2022-06-12T07:01:45.000Z</time></trkpt><trkpt lon="5.997886" lat="51.026901"><ele>57.8</ele><time>2022-06-12T07:01:46.000Z</time></trkpt><trkpt lon="5.997998" lat="51.026898"><ele>57.8</ele><time>2022-06-12T07:01:47.000Z</time></trkpt><trkpt lon="5.998115" lat="51.026894"><ele>57.6</ele><time>2022-06-12T07:01:48.000Z</time></trkpt><trkpt lon="5.998231" lat="51.02689"><ele>57.8</ele><time>2022-06-12T07:01:49.000Z</time></trkpt><trkpt lon="5.99834" lat="51.026882"><ele>57.8</ele><time>2022-06-12T07:01:50.000Z</time></trkpt><trkpt lon="5.998452" lat="51.026878"><ele>57.8</ele><time>2022-06-12T07:01:51.000Z</time></trkpt><trkpt lon="5.998565" lat="51.026871"><ele>57.8</ele><time>2022-06-12T07:01:52.000Z</time></trkpt><trkpt lon="5.998675" lat="51.026867"><ele>57.8</ele><time>2022-06-12T07:01:53.000Z</time></trkpt><trkpt lon="5.998778" lat="51.026863"><ele>57.8</ele><time>2022-06-12T07:01:54.000Z</time></trkpt><trkpt lon="5.998897" lat="51.026859"><ele>58</ele><time>2022-06-12T07:01:55.000Z</time></trkpt><trkpt lon="5.999008" lat="51.026852"><ele>58.2</ele><time>2022-06-12T07:01:56.000Z</time></trkpt><trkpt lon="5.99912" lat="51.026848"><ele>58.4</ele><time>2022-06-12T07:01:57.000Z</time></trkpt><trkpt lon="5.99923" lat="51.026841"><ele>58.6</ele><time>2022-06-12T07:01:58.000Z</time></trkpt><trkpt lon="5.99934" lat="51.026837"><ele>58.6</ele><time>2022-06-12T07:01:59.000Z</time></trkpt><trkpt lon="5.999452" lat="51.026833"><ele>58.6</ele><time>2022-06-12T07:02:00.000Z</time></trkpt><trkpt lon="5.999561" lat="51.026825"><ele>58.6</ele><time>2022-06-12T07:02:01.000Z</time></trkpt><trkpt lon="5.99967" lat="51.026821"><ele>58.8</ele><time>2022-06-12T07:02:02.000Z</time></trkpt><trkpt lon="5.999781" lat="51.026817"><ele>58.8</ele><time>2022-06-12T07:02:03.000Z</time></trkpt><trkpt lon="5.999879" lat="51.026811"><ele>59</ele><time>2022-06-12T07:02:04.000Z</time></trkpt><trkpt lon="5.999999" lat="51.026802"><ele>59.2</ele><time>2022-06-12T07:02:05.000Z</time></trkpt><trkpt lon="6.00011" lat="51.026798"><ele>59.4</ele><time>2022-06-12T07:02:06.000Z</time></trkpt><trkpt lon="6.000207" lat="51.026795"><ele>59.6</ele><time>2022-06-12T07:02:07.000Z</time></trkpt><trkpt lon="6.000331" lat="51.026787"><ele>59.6</ele><time>2022-06-12T07:02:08.000Z</time></trkpt><trkpt lon="6.000442" lat="51.026783"><ele>59.8</ele><time>2022-06-12T07:02:09.000Z</time></trkpt><trkpt lon="6.000556" lat="51.026776"><ele>59.8</ele><time>2022-06-12T07:02:10.000Z</time></trkpt><trkpt lon="6.000668" lat="51.026772"><ele>60</ele><time>2022-06-12T07:02:11.000Z</time></trkpt><trkpt lon="6.000775" lat="51.026764"><ele>60</ele><time>2022-06-12T07:02:12.000Z</time></trkpt><trkpt lon="6.000887" lat="51.02676"><ele>60</ele><time>2022-06-12T07:02:13.000Z</time></trkpt><trkpt lon="6.000993" lat="51.026753"><ele>60.2</ele><time>2022-06-12T07:02:14.000Z</time></trkpt><trkpt lon="6.001097" lat="51.026745"><ele>60.4</ele><time>2022-06-12T07:02:15.000Z</time></trkpt><trkpt lon="6.001206" lat="51.026741"><ele>60.6</ele><time>2022-06-12T07:02:16.000Z</time></trkpt><trkpt lon="6.001315" lat="51.026734"><ele>60.8</ele><time>2022-06-12T07:02:17.000Z</time></trkpt><trkpt lon="6.00142" lat="51.02673"><ele>60.8</ele><time>2022-06-12T07:02:18.000Z</time></trkpt><trkpt lon="6.001527" lat="51.026726"><ele>61</ele><time>2022-06-12T07:02:19.000Z</time></trkpt><trkpt lon="6.001631" lat="51.026718"><ele>61.2</ele><time>2022-06-12T07:02:20.000Z</time></trkpt><trkpt lon="6.001739" lat="51.026711"><ele>61.2</ele><time>2022-06-12T07:02:21.000Z</time></trkpt><trkpt lon="6.001847" lat="51.026707"><ele>61.4</ele><time>2022-06-12T07:02:22.000Z</time></trkpt><trkpt lon="6.001955" lat="51.026703"><ele>61.6</ele><time>2022-06-12T07:02:23.000Z</time></trkpt><trkpt lon="6.002064" lat="51.026695"><ele>61.6</ele><time>2022-06-12T07:02:24.000Z</time></trkpt><trkpt lon="6.002171" lat="51.026692"><ele>61.8</ele><time>2022-06-12T07:02:25.000Z</time></trkpt><trkpt lon="6.002278" lat="51.026688"><ele>61.8</ele><time>2022-06-12T07:02:26.000Z</time></trkpt><trkpt lon="6.002386" lat="51.02668"><ele>62</ele><time>2022-06-12T07:02:27.000Z</time></trkpt><trkpt lon="6.002493" lat="51.026676"><ele>62.2</ele><time>2022-06-12T07:02:28.000Z</time></trkpt><trkpt lon="6.002598" lat="51.026673"><ele>62.2</ele><time>2022-06-12T07:02:29.000Z</time></trkpt><trkpt lon="6.002705" lat="51.026669"><ele>62.4</ele><time>2022-06-12T07:02:30.000Z</time></trkpt><trkpt lon="6.00281" lat="51.026661"><ele>62.4</ele><time>2022-06-12T07:02:31.000Z</time></trkpt><trkpt lon="6.002913" lat="51.026654"><ele>62.6</ele><time>2022-06-12T07:02:32.000Z</time></trkpt><trkpt lon="6.003023" lat="51.02665"><ele>62.6</ele><time>2022-06-12T07:02:33.000Z</time></trkpt><trkpt lon="6.003132" lat="51.026642"><ele>62.8</ele><time>2022-06-12T07:02:34.000Z</time></trkpt><trkpt lon="6.003237" lat="51.026638"><ele>63</ele><time>2022-06-12T07:02:35.000Z</time></trkpt><trkpt lon="6.003337" lat="51.026631"><ele>63.2</ele><time>2022-06-12T07:02:36.000Z</time></trkpt><trkpt lon="6.003444" lat="51.026627"><ele>63.2</ele><time>2022-06-12T07:02:37.000Z</time></trkpt><trkpt lon="6.003542" lat="51.02662"><ele>63.4</ele><time>2022-06-12T07:02:38.000Z</time></trkpt><trkpt lon="6.00365" lat="51.026608"><ele>63.6</ele><time>2022-06-12T07:02:39.000Z</time></trkpt><trkpt lon="6.003756" lat="51.0266"><ele>63.6</ele><time>2022-06-12T07:02:40.000Z</time></trkpt><trkpt lon="6.003857" lat="51.026589"><ele>63.8</ele><time>2022-06-12T07:02:41.000Z</time></trkpt><trkpt lon="6.003959" lat="51.026581"><ele>64</ele><time>2022-06-12T07:02:42.000Z</time></trkpt><trkpt lon="6.00406" lat="51.026574"><ele>64</ele><time>2022-06-12T07:02:43.000Z</time></trkpt><trkpt lon="6.004164" lat="51.026562"><ele>64.2</ele><time>2022-06-12T07:02:44.000Z</time></trkpt><trkpt lon="6.004265" lat="51.026551"><ele>64.4</ele><time>2022-06-12T07:02:45.000Z</time></trkpt><trkpt lon="6.004367" lat="51.026539"><ele>64.6</ele><time>2022-06-12T07:02:46.000Z</time></trkpt><trkpt lon="6.004467" lat="51.026524"><ele>64.8</ele><time>2022-06-12T07:02:47.000Z</time></trkpt><trkpt lon="6.004567" lat="51.026509"><ele>65</ele><time>2022-06-12T07:02:48.000Z</time></trkpt><trkpt lon="6.004666" lat="51.026497"><ele>65.2</ele><time>2022-06-12T07:02:49.000Z</time></trkpt><trkpt lon="6.004766" lat="51.026482"><ele>65.4</ele><time>2022-06-12T07:02:50.000Z</time></trkpt><trkpt lon="6.004866" lat="51.026471"><ele>65.6</ele><time>2022-06-12T07:02:51.000Z</time></trkpt><trkpt lon="6.004964" lat="51.026455"><ele>65.6</ele><time>2022-06-12T07:02:52.000Z</time></trkpt><trkpt lon="6.005064" lat="51.026436"><ele>65.8</ele><time>2022-06-12T07:02:53.000Z</time></trkpt><trkpt lon="6.00516" lat="51.026421"><ele>66</ele><time>2022-06-12T07:02:54.000Z</time></trkpt><trkpt lon="6.005258" lat="51.026406"><ele>66.2</ele><time>2022-06-12T07:02:55.000Z</time></trkpt><trkpt lon="6.005362" lat="51.026391"><ele>66.4</ele><time>2022-06-12T07:02:56.000Z</time></trkpt><trkpt lon="6.005457" lat="51.026372"><ele>66.8</ele><time>2022-06-12T07:02:57.000Z</time></trkpt><trkpt lon="6.005557" lat="51.026356"><ele>67</ele><time>2022-06-12T07:02:58.000Z</time></trkpt><trkpt lon="6.005647" lat="51.026338"><ele>67.2</ele><time>2022-06-12T07:02:59.000Z</time></trkpt><trkpt lon="6.005745" lat="51.026322"><ele>67.2</ele><time>2022-06-12T07:03:00.000Z</time></trkpt><trkpt lon="6.005837" lat="51.026304"><ele>67.4</ele><time>2022-06-12T07:03:01.000Z</time></trkpt><trkpt lon="6.005936" lat="51.026288"><ele>67.6</ele><time>2022-06-12T07:03:02.000Z</time></trkpt><trkpt lon="6.006032" lat="51.026273"><ele>67.8</ele><time>2022-06-12T07:03:03.000Z</time></trkpt><trkpt lon="6.006131" lat="51.026253"><ele>68</ele><time>2022-06-12T07:03:04.000Z</time></trkpt><trkpt lon="6.006227" lat="51.026238"><ele>68</ele><time>2022-06-12T07:03:05.000Z</time></trkpt><trkpt lon="6.006321" lat="51.026219"><ele>68.2</ele><time>2022-06-12T07:03:06.000Z</time></trkpt><trkpt lon="6.006417" lat="51.026204"><ele>68.4</ele><time>2022-06-12T07:03:07.000Z</time></trkpt><trkpt lon="6.006507" lat="51.026185"><ele>68.4</ele><time>2022-06-12T07:03:08.000Z</time></trkpt><trkpt lon="6.006606" lat="51.026166"><ele>68.6</ele><time>2022-06-12T07:03:09.000Z</time></trkpt><trkpt lon="6.006701" lat="51.02615"><ele>68.6</ele><time>2022-06-12T07:03:10.000Z</time></trkpt><trkpt lon="6.006795" lat="51.026128"><ele>68.6</ele><time>2022-06-12T07:03:11.000Z</time></trkpt><trkpt lon="6.006892" lat="51.026108"><ele>68.8</ele><time>2022-06-12T07:03:12.000Z</time></trkpt><trkpt lon="6.00699" lat="51.026086"><ele>68.8</ele><time>2022-06-12T07:03:13.000Z</time></trkpt><trkpt lon="6.007087" lat="51.026063"><ele>69</ele><time>2022-06-12T07:03:14.000Z</time></trkpt><trkpt lon="6.007184" lat="51.02604"><ele>69.2</ele><time>2022-06-12T07:03:15.000Z</time></trkpt><trkpt lon="6.007279" lat="51.026017"><ele>69.2</ele><time>2022-06-12T07:03:16.000Z</time></trkpt><trkpt lon="6.007374" lat="51.025991"><ele>69.4</ele><time>2022-06-12T07:03:17.000Z</time></trkpt><trkpt lon="6.007472" lat="51.025967"><ele>69.4</ele><time>2022-06-12T07:03:18.000Z</time></trkpt><trkpt lon="6.007567" lat="51.025941"><ele>69.6</ele><time>2022-06-12T07:03:19.000Z</time></trkpt><trkpt lon="6.007664" lat="51.025915"><ele>69.8</ele><time>2022-06-12T07:03:20.000Z</time></trkpt><trkpt lon="6.007761" lat="51.025887"><ele>69.8</ele><time>2022-06-12T07:03:21.000Z</time></trkpt><trkpt lon="6.007847" lat="51.025864"><ele>70</ele><time>2022-06-12T07:03:22.000Z</time></trkpt><trkpt lon="6.00795" lat="51.025832"><ele>70</ele><time>2022-06-12T07:03:23.000Z</time></trkpt><trkpt lon="6.008053" lat="51.025803"><ele>70.2</ele><time>2022-06-12T07:03:24.000Z</time></trkpt><trkpt lon="6.008154" lat="51.025773"><ele>70.2</ele><time>2022-06-12T07:03:25.000Z</time></trkpt><trkpt lon="6.008229" lat="51.025753"><ele>70.2</ele><time>2022-06-12T07:03:26.000Z</time></trkpt><trkpt lon="6.008348" lat="51.025716"><ele>70</ele><time>2022-06-12T07:03:27.000Z</time></trkpt><trkpt lon="6.008436" lat="51.025689"><ele>70</ele><time>2022-06-12T07:03:28.000Z</time></trkpt><trkpt lon="6.008547" lat="51.025652"><ele>69.8</ele><time>2022-06-12T07:03:29.000Z</time></trkpt><trkpt lon="6.008647" lat="51.025624"><ele>69.6</ele><time>2022-06-12T07:03:30.000Z</time></trkpt><trkpt lon="6.008746" lat="51.025594"><ele>69.4</ele><time>2022-06-12T07:03:31.000Z</time></trkpt><trkpt lon="6.008845" lat="51.025563"><ele>69.2</ele><time>2022-06-12T07:03:32.000Z</time></trkpt><trkpt lon="6.008947" lat="51.025529"><ele>69</ele><time>2022-06-12T07:03:33.000Z</time></trkpt><trkpt lon="6.009049" lat="51.025499"><ele>68.6</ele><time>2022-06-12T07:03:34.000Z</time></trkpt><trkpt lon="6.009152" lat="51.025464"><ele>68.6</ele><time>2022-06-12T07:03:35.000Z</time></trkpt><trkpt lon="6.009253" lat="51.025434"><ele>68.4</ele><time>2022-06-12T07:03:36.000Z</time></trkpt><trkpt lon="6.009356" lat="51.025399"><ele>68.6</ele><time>2022-06-12T07:03:37.000Z</time></trkpt><trkpt lon="6.009456" lat="51.025366"><ele>68.6</ele><time>2022-06-12T07:03:38.000Z</time></trkpt><trkpt lon="6.00956" lat="51.025327"><ele>68.6</ele><time>2022-06-12T07:03:39.000Z</time></trkpt><trkpt lon="6.009662" lat="51.025289"><ele>68.6</ele><time>2022-06-12T07:03:40.000Z</time></trkpt><trkpt lon="6.009761" lat="51.025248"><ele>68.6</ele><time>2022-06-12T07:03:41.000Z</time></trkpt><trkpt lon="6.009864" lat="51.025209"><ele>68.4</ele><time>2022-06-12T07:03:42.000Z</time></trkpt><trkpt lon="6.009967" lat="51.025163"><ele>68.4</ele><time>2022-06-12T07:03:43.000Z</time></trkpt><trkpt lon="6.010069" lat="51.025121"><ele>68.2</ele><time>2022-06-12T07:03:44.000Z</time></trkpt><trkpt lon="6.010166" lat="51.025076"><ele>67.8</ele><time>2022-06-12T07:03:45.000Z</time></trkpt><trkpt lon="6.010265" lat="51.02503"><ele>67.4</ele><time>2022-06-12T07:03:46.000Z</time></trkpt><trkpt lon="6.01036" lat="51.024984"><ele>67</ele><time>2022-06-12T07:03:47.000Z</time></trkpt><trkpt lon="6.010456" lat="51.024938"><ele>66.8</ele><time>2022-06-12T07:03:48.000Z</time></trkpt><trkpt lon="6.010546" lat="51.024895"><ele>66.8</ele><time>2022-06-12T07:03:49.000Z</time></trkpt><trkpt lon="6.010652" lat="51.024846"><ele>66.6</ele><time>2022-06-12T07:03:50.000Z</time></trkpt><trkpt lon="6.010749" lat="51.024805"><ele>66.6</ele><time>2022-06-12T07:03:51.000Z</time></trkpt><trkpt lon="6.010847" lat="51.024759"><ele>66.6</ele><time>2022-06-12T07:03:52.000Z</time></trkpt><trkpt lon="6.01094" lat="51.024714"><ele>66.4</ele><time>2022-06-12T07:03:53.000Z</time></trkpt><trkpt lon="6.01103" lat="51.024671"><ele>66.2</ele><time>2022-06-12T07:03:54.000Z</time></trkpt><trkpt lon="6.01113" lat="51.024626"><ele>66.2</ele><time>2022-06-12T07:03:55.000Z</time></trkpt><trkpt lon="6.011231" lat="51.024583"><ele>66.2</ele><time>2022-06-12T07:03:56.000Z</time></trkpt><trkpt lon="6.01133" lat="51.024545"><ele>66.4</ele><time>2022-06-12T07:03:57.000Z</time></trkpt><trkpt lon="6.011434" lat="51.024507"><ele>66.4</ele><time>2022-06-12T07:03:58.000Z</time></trkpt><trkpt lon="6.011539" lat="51.024472"><ele>66.6</ele><time>2022-06-12T07:03:59.000Z</time></trkpt><trkpt lon="6.011639" lat="51.024439"><ele>66.4</ele><time>2022-06-12T07:04:00.000Z</time></trkpt><trkpt lon="6.011744" lat="51.024404"><ele>66.2</ele><time>2022-06-12T07:04:01.000Z</time></trkpt><trkpt lon="6.011845" lat="51.02437"><ele>66.2</ele><time>2022-06-12T07:04:02.000Z</time></trkpt><trkpt lon="6.011948" lat="51.024335"><ele>66.4</ele><time>2022-06-12T07:04:03.000Z</time></trkpt><trkpt lon="6.012047" lat="51.024301"><ele>66.2</ele><time>2022-06-12T07:04:04.000Z</time></trkpt><trkpt lon="6.01215" lat="51.024271"><ele>66.2</ele><time>2022-06-12T07:04:05.000Z</time></trkpt><trkpt lon="6.012259" lat="51.024244"><ele>66</ele><time>2022-06-12T07:04:06.000Z</time></trkpt><trkpt lon="6.012367" lat="51.024216"><ele>65.8</ele><time>2022-06-12T07:04:07.000Z</time></trkpt><trkpt lon="6.012467" lat="51.024189"><ele>65.6</ele><time>2022-06-12T07:04:08.000Z</time></trkpt><trkpt lon="6.012588" lat="51.024159"><ele>65.6</ele><time>2022-06-12T07:04:09.000Z</time></trkpt><trkpt lon="6.012697" lat="51.024136"><ele>65.6</ele><time>2022-06-12T07:04:10.000Z</time></trkpt><trkpt lon="6.01281" lat="51.024113"><ele>65.6</ele><time>2022-06-12T07:04:11.000Z</time></trkpt><trkpt lon="6.012924" lat="51.02409"><ele>65.6</ele><time>2022-06-12T07:04:12.000Z</time></trkpt><trkpt lon="6.013036" lat="51.024071"><ele>65.6</ele><time>2022-06-12T07:04:13.000Z</time></trkpt><trkpt lon="6.013147" lat="51.024049"><ele>65.6</ele><time>2022-06-12T07:04:14.000Z</time></trkpt><trkpt lon="6.013261" lat="51.024026"><ele>65.6</ele><time>2022-06-12T07:04:15.000Z</time></trkpt><trkpt lon="6.013372" lat="51.024004"><ele>65.6</ele><time>2022-06-12T07:04:16.000Z</time></trkpt><trkpt lon="6.013494" lat="51.023984"><ele>65.4</ele><time>2022-06-12T07:04:17.000Z</time></trkpt><trkpt lon="6.013604" lat="51.023965"><ele>65.4</ele><time>2022-06-12T07:04:18.000Z</time></trkpt><trkpt lon="6.013723" lat="51.023957"><ele>65.4</ele><time>2022-06-12T07:04:19.000Z</time></trkpt><trkpt lon="6.013847" lat="51.023945"><ele>65.4</ele><time>2022-06-12T07:04:20.000Z</time></trkpt><trkpt lon="6.013952" lat="51.023945"><ele>65.4</ele><time>2022-06-12T07:04:21.000Z</time></trkpt><trkpt lon="6.014081" lat="51.023945"><ele>65.4</ele><time>2022-06-12T07:04:22.000Z</time></trkpt><trkpt lon="6.014194" lat="51.023952"><ele>65.4</ele><time>2022-06-12T07:04:23.000Z</time></trkpt><trkpt lon="6.014314" lat="51.02396"><ele>65.4</ele><time>2022-06-12T07:04:24.000Z</time></trkpt><trkpt lon="6.01443" lat="51.023968"><ele>65.4</ele><time>2022-06-12T07:04:25.000Z</time></trkpt><trkpt lon="6.014543" lat="51.023975"><ele>65.4</ele><time>2022-06-12T07:04:26.000Z</time></trkpt><trkpt lon="6.014659" lat="51.023983"><ele>65.4</ele><time>2022-06-12T07:04:27.000Z</time></trkpt><trkpt lon="6.014774" lat="51.023987"><ele>65.4</ele><time>2022-06-12T07:04:28.000Z</time></trkpt><trkpt lon="6.014887" lat="51.023987"><ele>65.4</ele><time>2022-06-12T07:04:29.000Z</time></trkpt><trkpt lon="6.014998" lat="51.023987"><ele>65.4</ele><time>2022-06-12T07:04:30.000Z</time></trkpt><trkpt lon="6.015108" lat="51.02399"><ele>65.4</ele><time>2022-06-12T07:04:31.000Z</time></trkpt><trkpt lon="6.015221" lat="51.023991"><ele>65.6</ele><time>2022-06-12T07:04:32.000Z</time></trkpt><trkpt lon="6.015337" lat="51.023991"><ele>65.6</ele><time>2022-06-12T07:04:33.000Z</time></trkpt><trkpt lon="6.01545" lat="51.023987"><ele>65.6</ele><time>2022-06-12T07:04:34.000Z</time></trkpt><trkpt lon="6.015565" lat="51.023983"><ele>65.6</ele><time>2022-06-12T07:04:35.000Z</time></trkpt><trkpt lon="6.015675" lat="51.023976"><ele>65.4</ele><time>2022-06-12T07:04:36.000Z</time></trkpt><trkpt lon="6.015785" lat="51.023972"><ele>65.4</ele><time>2022-06-12T07:04:37.000Z</time></trkpt><trkpt lon="6.015898" lat="51.023964"><ele>65.2</ele><time>2022-06-12T07:04:38.000Z</time></trkpt><trkpt lon="6.016013" lat="51.02396"><ele>65</ele><time>2022-06-12T07:04:39.000Z</time></trkpt><trkpt lon="6.016128" lat="51.023953"><ele>65</ele><time>2022-06-12T07:04:40.000Z</time></trkpt><trkpt lon="6.016238" lat="51.023945"><ele>64.8</ele><time>2022-06-12T07:04:41.000Z</time></trkpt><trkpt lon="6.016353" lat="51.023945"><ele>64.8</ele><time>2022-06-12T07:04:42.000Z</time></trkpt><trkpt lon="6.016467" lat="51.023956"><ele>64.6</ele><time>2022-06-12T07:04:43.000Z</time></trkpt><trkpt lon="6.016585" lat="51.023964"><ele>64.4</ele><time>2022-06-12T07:04:44.000Z</time></trkpt><trkpt lon="6.016697" lat="51.023974"><ele>64.2</ele><time>2022-06-12T07:04:45.000Z</time></trkpt><trkpt lon="6.016823" lat="51.023986"><ele>64</ele><time>2022-06-12T07:04:46.000Z</time></trkpt><trkpt lon="6.016942" lat="51.023987"><ele>63.8</ele><time>2022-06-12T07:04:47.000Z</time></trkpt><trkpt lon="6.017059" lat="51.02398"><ele>63.6</ele><time>2022-06-12T07:04:48.000Z</time></trkpt><trkpt lon="6.017191" lat="51.023965"><ele>63.4</ele><time>2022-06-12T07:04:49.000Z</time></trkpt><trkpt lon="6.017307" lat="51.023946"><ele>63.2</ele><time>2022-06-12T07:04:50.000Z</time></trkpt><trkpt lon="6.017426" lat="51.023919"><ele>63</ele><time>2022-06-12T07:04:51.000Z</time></trkpt><trkpt lon="6.017538" lat="51.023892"><ele>62.8</ele><time>2022-06-12T07:04:52.000Z</time></trkpt><trkpt lon="6.017644" lat="51.023866"><ele>62.6</ele><time>2022-06-12T07:04:53.000Z</time></trkpt><trkpt lon="6.017742" lat="51.023832"><ele>62.4</ele><time>2022-06-12T07:04:54.000Z</time></trkpt><trkpt lon="6.017821" lat="51.02379"><ele>62.2</ele><time>2022-06-12T07:04:55.000Z</time></trkpt><trkpt lon="6.017886" lat="51.023741"><ele>62</ele><time>2022-06-12T07:04:56.000Z</time></trkpt><trkpt lon="6.017948" lat="51.023687"><ele>61.8</ele><time>2022-06-12T07:04:57.000Z</time></trkpt><trkpt lon="6.018012" lat="51.023626"><ele>61.6</ele><time>2022-06-12T07:04:58.000Z</time></trkpt><trkpt lon="6.018074" lat="51.023563"><ele>61.4</ele><time>2022-06-12T07:04:59.000Z</time></trkpt><trkpt lon="6.018135" lat="51.023493"><ele>61.2</ele><time>2022-06-12T07:05:00.000Z</time></trkpt><trkpt lon="6.018192" lat="51.02342"><ele>61</ele><time>2022-06-12T07:05:01.000Z</time></trkpt><trkpt lon="6.018253" lat="51.023341"><ele>60.8</ele><time>2022-06-12T07:05:02.000Z</time></trkpt><trkpt lon="6.018303" lat="51.023272"><ele>60.6</ele><time>2022-06-12T07:05:03.000Z</time></trkpt><trkpt lon="6.018342" lat="51.023204"><ele>60.6</ele><time>2022-06-12T07:05:04.000Z</time></trkpt><trkpt lon="6.018375" lat="51.023133"><ele>60.4</ele><time>2022-06-12T07:05:05.000Z</time></trkpt><trkpt lon="6.018406" lat="51.023065"><ele>60.4</ele><time>2022-06-12T07:05:06.000Z</time></trkpt><trkpt lon="6.018426" lat="51.022997"><ele>60.2</ele><time>2022-06-12T07:05:07.000Z</time></trkpt><trkpt lon="6.018431" lat="51.022936"><ele>60</ele><time>2022-06-12T07:05:08.000Z</time></trkpt><trkpt lon="6.018428" lat="51.022864"><ele>59.8</ele><time>2022-06-12T07:05:09.000Z</time></trkpt><trkpt lon="6.018409" lat="51.022795"><ele>59.6</ele><time>2022-06-12T07:05:10.000Z</time></trkpt><trkpt lon="6.018381" lat="51.022722"><ele>59.4</ele><time>2022-06-12T07:05:11.000Z</time></trkpt><trkpt lon="6.018354" lat="51.022654"><ele>59</ele><time>2022-06-12T07:05:12.000Z</time></trkpt><trkpt lon="6.018328" lat="51.022586"><ele>59.2</ele><time>2022-06-12T07:05:13.000Z</time></trkpt><trkpt lon="6.018301" lat="51.022525"><ele>59.4</ele><time>2022-06-12T07:05:14.000Z</time></trkpt><trkpt lon="6.018271" lat="51.022452"><ele>59.4</ele><time>2022-06-12T07:05:15.000Z</time></trkpt><trkpt lon="6.018259" lat="51.022381"><ele>59.4</ele><time>2022-06-12T07:05:16.000Z</time></trkpt><trkpt lon="6.018263" lat="51.022307"><ele>59.4</ele><time>2022-06-12T07:05:17.000Z</time></trkpt><trkpt lon="6.018283" lat="51.022239"><ele>59.4</ele><time>2022-06-12T07:05:18.000Z</time></trkpt><trkpt lon="6.018322" lat="51.022177"><ele>59.4</ele><time>2022-06-12T07:05:19.000Z</time></trkpt><trkpt lon="6.018381" lat="51.02212"><ele>59.4</ele><time>2022-06-12T07:05:20.000Z</time></trkpt><trkpt lon="6.018463" lat="51.022073"><ele>59.2</ele><time>2022-06-12T07:05:21.000Z</time></trkpt><trkpt lon="6.018547" lat="51.022027"><ele>59.4</ele><time>2022-06-12T07:05:22.000Z</time></trkpt><trkpt lon="6.018635" lat="51.021982"><ele>59.4</ele><time>2022-06-12T07:05:23.000Z</time></trkpt><trkpt lon="6.018728" lat="51.021936"><ele>59.4</ele><time>2022-06-12T07:05:24.000Z</time></trkpt><trkpt lon="6.018824" lat="51.02189"><ele>59.4</ele><time>2022-06-12T07:05:25.000Z</time></trkpt><trkpt lon="6.018916" lat="51.021848"><ele>59.4</ele><time>2022-06-12T07:05:26.000Z</time></trkpt><trkpt lon="6.01901" lat="51.021802"><ele>59.4</ele><time>2022-06-12T07:05:27.000Z</time></trkpt><trkpt lon="6.019102" lat="51.021765"><ele>59.4</ele><time>2022-06-12T07:05:28.000Z</time></trkpt><trkpt lon="6.019199" lat="51.021719"><ele>59.4</ele><time>2022-06-12T07:05:29.000Z</time></trkpt><trkpt lon="6.019293" lat="51.021677"><ele>59.2</ele><time>2022-06-12T07:05:30.000Z</time></trkpt><trkpt lon="6.019388" lat="51.021631"><ele>59.2</ele><time>2022-06-12T07:05:31.000Z</time></trkpt><trkpt lon="6.019487" lat="51.021589"><ele>59.2</ele><time>2022-06-12T07:05:32.000Z</time></trkpt><trkpt lon="6.019587" lat="51.021548"><ele>59.2</ele><time>2022-06-12T07:05:33.000Z</time></trkpt><trkpt lon="6.019686" lat="51.021505"><ele>59.2</ele><time>2022-06-12T07:05:34.000Z</time></trkpt><trkpt lon="6.019781" lat="51.021459"><ele>59.2</ele><time>2022-06-12T07:05:35.000Z</time></trkpt><trkpt lon="6.019873" lat="51.021417"><ele>59.4</ele><time>2022-06-12T07:05:36.000Z</time></trkpt><trkpt lon="6.019955" lat="51.021374"><ele>59.4</ele><time>2022-06-12T07:05:37.000Z</time></trkpt><trkpt lon="6.020046" lat="51.021326"><ele>59.4</ele><time>2022-06-12T07:05:38.000Z</time></trkpt><trkpt lon="6.020134" lat="51.021272"><ele>59.4</ele><time>2022-06-12T07:05:39.000Z</time></trkpt><trkpt lon="6.020217" lat="51.021223"><ele>59.4</ele><time>2022-06-12T07:05:40.000Z</time></trkpt><trkpt lon="6.020294" lat="51.021176"><ele>59.4</ele><time>2022-06-12T07:05:41.000Z</time></trkpt><trkpt lon="6.020384" lat="51.021126"><ele>59.4</ele><time>2022-06-12T07:05:42.000Z</time></trkpt><trkpt lon="6.020482" lat="51.021078"><ele>59.4</ele><time>2022-06-12T07:05:43.000Z</time></trkpt><trkpt lon="6.020574" lat="51.021029"><ele>59.6</ele><time>2022-06-12T07:05:44.000Z</time></trkpt><trkpt lon="6.020665" lat="51.020975"><ele>59.6</ele><time>2022-06-12T07:05:45.000Z</time></trkpt><trkpt lon="6.020756" lat="51.020926"><ele>59.6</ele><time>2022-06-12T07:05:46.000Z</time></trkpt><trkpt lon="6.020846" lat="51.020875"><ele>59.6</ele><time>2022-06-12T07:05:47.000Z</time></trkpt><trkpt lon="6.020935" lat="51.02083"><ele>59.6</ele><time>2022-06-12T07:05:48.000Z</time></trkpt><trkpt lon="6.021029" lat="51.020777"><ele>59.6</ele><time>2022-06-12T07:05:49.000Z</time></trkpt><trkpt lon="6.021118" lat="51.020732"><ele>59.8</ele><time>2022-06-12T07:05:50.000Z</time></trkpt><trkpt lon="6.021217" lat="51.020685"><ele>59.8</ele><time>2022-06-12T07:05:51.000Z</time></trkpt><trkpt lon="6.021313" lat="51.020639"><ele>59.8</ele><time>2022-06-12T07:05:52.000Z</time></trkpt><trkpt lon="6.021411" lat="51.020598"><ele>59.8</ele><time>2022-06-12T07:05:53.000Z</time></trkpt><trkpt lon="6.021517" lat="51.020555"><ele>59.8</ele><time>2022-06-12T07:05:54.000Z</time></trkpt><trkpt lon="6.02162" lat="51.020514"><ele>59.8</ele><time>2022-06-12T07:05:55.000Z</time></trkpt><trkpt lon="6.021726" lat="51.020471"><ele>59.8</ele><time>2022-06-12T07:05:56.000Z</time></trkpt><trkpt lon="6.021829" lat="51.020433"><ele>59.8</ele><time>2022-06-12T07:05:57.000Z</time></trkpt><trkpt lon="6.021931" lat="51.020392"><ele>59.6</ele><time>2022-06-12T07:05:58.000Z</time></trkpt><trkpt lon="6.022034" lat="51.020353"><ele>59.6</ele><time>2022-06-12T07:05:59.000Z</time></trkpt><trkpt lon="6.022134" lat="51.020314"><ele>59.6</ele><time>2022-06-12T07:06:00.000Z</time></trkpt><trkpt lon="6.022228" lat="51.020274"><ele>59.4</ele><time>2022-06-12T07:06:01.000Z</time></trkpt><trkpt lon="6.022329" lat="51.020235"><ele>59.4</ele><time>2022-06-12T07:06:02.000Z</time></trkpt><trkpt lon="6.022428" lat="51.020193"><ele>59.6</ele><time>2022-06-12T07:06:03.000Z</time></trkpt><trkpt lon="6.022526" lat="51.020151"><ele>59.4</ele><time>2022-06-12T07:06:04.000Z</time></trkpt><trkpt lon="6.022624" lat="51.020113"><ele>59.4</ele><time>2022-06-12T07:06:05.000Z</time></trkpt><trkpt lon="6.022706" lat="51.020079"><ele>59.4</ele><time>2022-06-12T07:06:06.000Z</time></trkpt><trkpt lon="6.02283" lat="51.020033"><ele>59.4</ele><time>2022-06-12T07:06:07.000Z</time></trkpt><trkpt lon="6.022931" lat="51.02"><ele>59.4</ele><time>2022-06-12T07:06:08.000Z</time></trkpt><trkpt lon="6.023039" lat="51.019964"><ele>59.4</ele><time>2022-06-12T07:06:09.000Z</time></trkpt><trkpt lon="6.023145" lat="51.019929"><ele>59.4</ele><time>2022-06-12T07:06:10.000Z</time></trkpt><trkpt lon="6.023246" lat="51.019895"><ele>59.6</ele><time>2022-06-12T07:06:11.000Z</time></trkpt><trkpt lon="6.023346" lat="51.019865"><ele>59.6</ele><time>2022-06-12T07:06:12.000Z</time></trkpt><trkpt lon="6.023447" lat="51.019833"><ele>59.6</ele><time>2022-06-12T07:06:13.000Z</time></trkpt><trkpt lon="6.023541" lat="51.019801"><ele>59.6</ele><time>2022-06-12T07:06:14.000Z</time></trkpt><trkpt lon="6.023644" lat="51.019765"><ele>59.6</ele><time>2022-06-12T07:06:15.000Z</time></trkpt><trkpt lon="6.023745" lat="51.019735"><ele>59.6</ele><time>2022-06-12T07:06:16.000Z</time></trkpt><trkpt lon="6.023843" lat="51.0197"><ele>59.6</ele><time>2022-06-12T07:06:17.000Z</time></trkpt><trkpt lon="6.023931" lat="51.019655"><ele>59.6</ele><time>2022-06-12T07:06:18.000Z</time></trkpt><trkpt lon="6.024015" lat="51.019615"><ele>59.6</ele><time>2022-06-12T07:06:19.000Z</time></trkpt><trkpt lon="6.024102" lat="51.019567"><ele>59.6</ele><time>2022-06-12T07:06:20.000Z</time></trkpt><trkpt lon="6.024177" lat="51.019523"><ele>59.8</ele><time>2022-06-12T07:06:21.000Z</time></trkpt><trkpt lon="6.02425" lat="51.019472"><ele>59.8</ele><time>2022-06-12T07:06:22.000Z</time></trkpt><trkpt lon="6.024295" lat="51.019408"><ele>59.8</ele><time>2022-06-12T07:06:23.000Z</time></trkpt><trkpt lon="6.024349" lat="51.019339"><ele>60</ele><time>2022-06-12T07:06:24.000Z</time></trkpt><trkpt lon="6.024404" lat="51.019282"><ele>59.8</ele><time>2022-06-12T07:06:25.000Z</time></trkpt><trkpt lon="6.024461" lat="51.019224"><ele>59.6</ele><time>2022-06-12T07:06:26.000Z</time></trkpt><trkpt lon="6.024522" lat="51.019163"><ele>59.4</ele><time>2022-06-12T07:06:27.000Z</time></trkpt><trkpt lon="6.024582" lat="51.019102"><ele>59.4</ele><time>2022-06-12T07:06:28.000Z</time></trkpt><trkpt lon="6.024632" lat="51.019052"><ele>59.2</ele><time>2022-06-12T07:06:29.000Z</time></trkpt><trkpt lon="6.024698" lat="51.018988"><ele>59</ele><time>2022-06-12T07:06:30.000Z</time></trkpt><trkpt lon="6.024757" lat="51.01893"><ele>58.8</ele><time>2022-06-12T07:06:31.000Z</time></trkpt><trkpt lon="6.024817" lat="51.018865"><ele>58.8</ele><time>2022-06-12T07:06:32.000Z</time></trkpt><trkpt lon="6.024877" lat="51.018812"><ele>59</ele><time>2022-06-12T07:06:33.000Z</time></trkpt><trkpt lon="6.024948" lat="51.018751"><ele>59.2</ele><time>2022-06-12T07:06:34.000Z</time></trkpt><trkpt lon="6.025016" lat="51.018697"><ele>59.2</ele><time>2022-06-12T07:06:35.000Z</time></trkpt><trkpt lon="6.025089" lat="51.01864"><ele>59.4</ele><time>2022-06-12T07:06:36.000Z</time></trkpt><trkpt lon="6.025163" lat="51.018588"><ele>59.2</ele><time>2022-06-12T07:06:37.000Z</time></trkpt><trkpt lon="6.025232" lat="51.018539"><ele>59.2</ele><time>2022-06-12T07:06:38.000Z</time></trkpt><trkpt lon="6.02532" lat="51.018481"><ele>59.2</ele><time>2022-06-12T07:06:39.000Z</time></trkpt><trkpt lon="6.025403" lat="51.018426"><ele>59.2</ele><time>2022-06-12T07:06:40.000Z</time></trkpt><trkpt lon="6.025484" lat="51.018381"><ele>59.2</ele><time>2022-06-12T07:06:41.000Z</time></trkpt><trkpt lon="6.025571" lat="51.018334"><ele>59.4</ele><time>2022-06-12T07:06:42.000Z</time></trkpt><trkpt lon="6.025657" lat="51.018286"><ele>59.6</ele><time>2022-06-12T07:06:43.000Z</time></trkpt><trkpt lon="6.025743" lat="51.018239"><ele>59.8</ele><time>2022-06-12T07:06:44.000Z</time></trkpt><trkpt lon="6.025832" lat="51.018191"><ele>59.8</ele><time>2022-06-12T07:06:45.000Z</time></trkpt><trkpt lon="6.025923" lat="51.01814"><ele>60</ele><time>2022-06-12T07:06:46.000Z</time></trkpt><trkpt lon="6.026009" lat="51.018096"><ele>60.2</ele><time>2022-06-12T07:06:47.000Z</time></trkpt><trkpt lon="6.0261" lat="51.018046"><ele>60.4</ele><time>2022-06-12T07:06:48.000Z</time></trkpt><trkpt lon="6.026186" lat="51.017997"><ele>60.4</ele><time>2022-06-12T07:06:49.000Z</time></trkpt><trkpt lon="6.026278" lat="51.017949"><ele>60.4</ele><time>2022-06-12T07:06:50.000Z</time></trkpt><trkpt lon="6.026365" lat="51.0179"><ele>60.6</ele><time>2022-06-12T07:06:51.000Z</time></trkpt><trkpt lon="6.026447" lat="51.017854"><ele>60.4</ele><time>2022-06-12T07:06:52.000Z</time></trkpt><trkpt lon="6.026529" lat="51.017809"><ele>60.6</ele><time>2022-06-12T07:06:53.000Z</time></trkpt><trkpt lon="6.026608" lat="51.017763"><ele>60.6</ele><time>2022-06-12T07:06:54.000Z</time></trkpt><trkpt lon="6.026689" lat="51.01771"><ele>60.6</ele><time>2022-06-12T07:06:55.000Z</time></trkpt><trkpt lon="6.026761" lat="51.017662"><ele>60.6</ele><time>2022-06-12T07:06:56.000Z</time></trkpt><trkpt lon="6.026841" lat="51.017606"><ele>60.4</ele><time>2022-06-12T07:06:57.000Z</time></trkpt><trkpt lon="6.026905" lat="51.01756"><ele>60.2</ele><time>2022-06-12T07:06:58.000Z</time></trkpt><trkpt lon="6.026989" lat="51.017501"><ele>60.2</ele><time>2022-06-12T07:06:59.000Z</time></trkpt><trkpt lon="6.027065" lat="51.017446"><ele>60.2</ele><time>2022-06-12T07:07:00.000Z</time></trkpt><trkpt lon="6.027138" lat="51.017393"><ele>60</ele><time>2022-06-12T07:07:01.000Z</time></trkpt><trkpt lon="6.027209" lat="51.017342"><ele>60</ele><time>2022-06-12T07:07:02.000Z</time></trkpt><trkpt lon="6.027292" lat="51.01729"><ele>59.8</ele><time>2022-06-12T07:07:03.000Z</time></trkpt><trkpt lon="6.027371" lat="51.017241"><ele>59.8</ele><time>2022-06-12T07:07:04.000Z</time></trkpt><trkpt lon="6.027458" lat="51.017198"><ele>59.8</ele><time>2022-06-12T07:07:05.000Z</time></trkpt><trkpt lon="6.027545" lat="51.017153"><ele>60</ele><time>2022-06-12T07:07:06.000Z</time></trkpt><trkpt lon="6.027634" lat="51.017111"><ele>60.2</ele><time>2022-06-12T07:07:07.000Z</time></trkpt><trkpt lon="6.027726" lat="51.017068"><ele>60.4</ele><time>2022-06-12T07:07:08.000Z</time></trkpt><trkpt lon="6.027816" lat="51.01703"><ele>60.6</ele><time>2022-06-12T07:07:09.000Z</time></trkpt><trkpt lon="6.027903" lat="51.016993"><ele>60.6</ele><time>2022-06-12T07:07:10.000Z</time></trkpt><trkpt lon="6.027992" lat="51.016956"><ele>60.8</ele><time>2022-06-12T07:07:11.000Z</time></trkpt><trkpt lon="6.028091" lat="51.016915"><ele>61</ele><time>2022-06-12T07:07:12.000Z</time></trkpt><trkpt lon="6.028181" lat="51.016878"><ele>61</ele><time>2022-06-12T07:07:13.000Z</time></trkpt><trkpt lon="6.028273" lat="51.016839"><ele>61</ele><time>2022-06-12T07:07:14.000Z</time></trkpt><trkpt lon="6.02837" lat="51.016801"><ele>61.2</ele><time>2022-06-12T07:07:15.000Z</time></trkpt><trkpt lon="6.028462" lat="51.016761"><ele>61.2</ele><time>2022-06-12T07:07:16.000Z</time></trkpt><trkpt lon="6.028562" lat="51.016717"><ele>61.4</ele><time>2022-06-12T07:07:17.000Z</time></trkpt><trkpt lon="6.028656" lat="51.016672"><ele>61.4</ele><time>2022-06-12T07:07:18.000Z</time></trkpt><trkpt lon="6.028747" lat="51.01663"><ele>61.6</ele><time>2022-06-12T07:07:19.000Z</time></trkpt><trkpt lon="6.028839" lat="51.016588"><ele>61.6</ele><time>2022-06-12T07:07:20.000Z</time></trkpt><trkpt lon="6.028931" lat="51.016542"><ele>61.6</ele><time>2022-06-12T07:07:21.000Z</time></trkpt><trkpt lon="6.029023" lat="51.016496"><ele>61.6</ele><time>2022-06-12T07:07:22.000Z</time></trkpt><trkpt lon="6.02911" lat="51.016448"><ele>61.8</ele><time>2022-06-12T07:07:23.000Z</time></trkpt><trkpt lon="6.029186" lat="51.016411"><ele>61.8</ele><time>2022-06-12T07:07:24.000Z</time></trkpt><trkpt lon="6.029291" lat="51.016359"><ele>61.8</ele><time>2022-06-12T07:07:25.000Z</time></trkpt><trkpt lon="6.029387" lat="51.016321"><ele>62</ele><time>2022-06-12T07:07:26.000Z</time></trkpt><trkpt lon="6.029483" lat="51.016279"><ele>61.8</ele><time>2022-06-12T07:07:27.000Z</time></trkpt><trkpt lon="6.029578" lat="51.016241"><ele>62</ele><time>2022-06-12T07:07:28.000Z</time></trkpt><trkpt lon="6.029674" lat="51.016203"><ele>62</ele><time>2022-06-12T07:07:29.000Z</time></trkpt><trkpt lon="6.029771" lat="51.01616"><ele>62</ele><time>2022-06-12T07:07:30.000Z</time></trkpt><trkpt lon="6.029865" lat="51.016122"><ele>62</ele><time>2022-06-12T07:07:31.000Z</time></trkpt><trkpt lon="6.029959" lat="51.01608"><ele>62.2</ele><time>2022-06-12T07:07:32.000Z</time></trkpt><trkpt lon="6.030056" lat="51.016042"><ele>62.2</ele><time>2022-06-12T07:07:33.000Z</time></trkpt><trkpt lon="6.030156" lat="51.016001"><ele>62.4</ele><time>2022-06-12T07:07:34.000Z</time></trkpt><trkpt lon="6.030256" lat="51.015966"><ele>62.2</ele><time>2022-06-12T07:07:35.000Z</time></trkpt><trkpt lon="6.030364" lat="51.015931"><ele>62.4</ele><time>2022-06-12T07:07:36.000Z</time></trkpt><trkpt lon="6.030469" lat="51.015901"><ele>62.2</ele><time>2022-06-12T07:07:37.000Z</time></trkpt><trkpt lon="6.03057" lat="51.015871"><ele>62.4</ele><time>2022-06-12T07:07:38.000Z</time></trkpt><trkpt lon="6.03068" lat="51.015836"><ele>62.6</ele><time>2022-06-12T07:07:39.000Z</time></trkpt><trkpt lon="6.03079" lat="51.015809"><ele>62.6</ele><time>2022-06-12T07:07:40.000Z</time></trkpt><trkpt lon="6.030901" lat="51.015782"><ele>62.6</ele><time>2022-06-12T07:07:41.000Z</time></trkpt><trkpt lon="6.03101" lat="51.015752"><ele>62.6</ele><time>2022-06-12T07:07:42.000Z</time></trkpt><trkpt lon="6.031123" lat="51.015721"><ele>62.6</ele><time>2022-06-12T07:07:43.000Z</time></trkpt><trkpt lon="6.031235" lat="51.015698"><ele>62.8</ele><time>2022-06-12T07:07:44.000Z</time></trkpt><trkpt lon="6.031351" lat="51.015679"><ele>62.8</ele><time>2022-06-12T07:07:45.000Z</time></trkpt><trkpt lon="6.031461" lat="51.015668"><ele>62.8</ele><time>2022-06-12T07:07:46.000Z</time></trkpt><trkpt lon="6.031579" lat="51.015653"><ele>62.8</ele><time>2022-06-12T07:07:47.000Z</time></trkpt><trkpt lon="6.031686" lat="51.015642"><ele>63</ele><time>2022-06-12T07:07:48.000Z</time></trkpt><trkpt lon="6.031804" lat="51.01563"><ele>63</ele><time>2022-06-12T07:07:49.000Z</time></trkpt><trkpt lon="6.031934" lat="51.015618"><ele>63</ele><time>2022-06-12T07:07:50.000Z</time></trkpt><trkpt lon="6.03205" lat="51.015607"><ele>63</ele><time>2022-06-12T07:07:51.000Z</time></trkpt><trkpt lon="6.032164" lat="51.015596"><ele>63.2</ele><time>2022-06-12T07:07:52.000Z</time></trkpt><trkpt lon="6.032292" lat="51.015584"><ele>63.2</ele><time>2022-06-12T07:07:53.000Z</time></trkpt><trkpt lon="6.03241" lat="51.015572"><ele>63.2</ele><time>2022-06-12T07:07:54.000Z</time></trkpt><trkpt lon="6.032526" lat="51.015561"><ele>63.2</ele><time>2022-06-12T07:07:55.000Z</time></trkpt><trkpt lon="6.032641" lat="51.015549"><ele>63.2</ele><time>2022-06-12T07:07:56.000Z</time></trkpt><trkpt lon="6.032756" lat="51.015534"><ele>63.4</ele><time>2022-06-12T07:07:57.000Z</time></trkpt><trkpt lon="6.032872" lat="51.015522"><ele>63.4</ele><time>2022-06-12T07:07:58.000Z</time></trkpt><trkpt lon="6.032985" lat="51.015511"><ele>63.4</ele><time>2022-06-12T07:07:59.000Z</time></trkpt><trkpt lon="6.033102" lat="51.015496"><ele>63.4</ele><time>2022-06-12T07:08:00.000Z</time></trkpt><trkpt lon="6.033216" lat="51.015484"><ele>63.4</ele><time>2022-06-12T07:08:01.000Z</time></trkpt><trkpt lon="6.03333" lat="51.015473"><ele>63.6</ele><time>2022-06-12T07:08:02.000Z</time></trkpt><trkpt lon="6.033446" lat="51.015461"><ele>63.6</ele><time>2022-06-12T07:08:03.000Z</time></trkpt><trkpt lon="6.033554" lat="51.015447"><ele>63.8</ele><time>2022-06-12T07:08:04.000Z</time></trkpt><trkpt lon="6.033668" lat="51.015431"><ele>63.8</ele><time>2022-06-12T07:08:05.000Z</time></trkpt><trkpt lon="6.033775" lat="51.015416"><ele>63.8</ele><time>2022-06-12T07:08:06.000Z</time></trkpt><trkpt lon="6.033878" lat="51.015404"><ele>64</ele><time>2022-06-12T07:08:07.000Z</time></trkpt><trkpt lon="6.033978" lat="51.015389"><ele>64</ele><time>2022-06-12T07:08:08.000Z</time></trkpt><trkpt lon="6.034078" lat="51.015377"><ele>64</ele><time>2022-06-12T07:08:09.000Z</time></trkpt><trkpt lon="6.034181" lat="51.015366"><ele>64</ele><time>2022-06-12T07:08:10.000Z</time></trkpt><trkpt lon="6.034297" lat="51.015351"><ele>64</ele><time>2022-06-12T07:08:11.000Z</time></trkpt><trkpt lon="6.034417" lat="51.015335"><ele>64</ele><time>2022-06-12T07:08:12.000Z</time></trkpt><trkpt lon="6.034537" lat="51.015324"><ele>64.2</ele><time>2022-06-12T07:08:13.000Z</time></trkpt><trkpt lon="6.034652" lat="51.015309"><ele>64.2</ele><time>2022-06-12T07:08:14.000Z</time></trkpt><trkpt lon="6.034769" lat="51.015301"><ele>64.2</ele><time>2022-06-12T07:08:15.000Z</time></trkpt><trkpt lon="6.034872" lat="51.015294"><ele>64.4</ele><time>2022-06-12T07:08:16.000Z</time></trkpt><trkpt lon="6.034992" lat="51.015289"><ele>64.4</ele><time>2022-06-12T07:08:17.000Z</time></trkpt><trkpt lon="6.035096" lat="51.015289"><ele>64.4</ele><time>2022-06-12T07:08:18.000Z</time></trkpt><trkpt lon="6.035217" lat="51.015293"><ele>64.4</ele><time>2022-06-12T07:08:19.000Z</time></trkpt><trkpt lon="6.035335" lat="51.015297"><ele>64.4</ele><time>2022-06-12T07:08:20.000Z</time></trkpt><trkpt lon="6.035457" lat="51.015304"><ele>64.4</ele><time>2022-06-12T07:08:21.000Z</time></trkpt><trkpt lon="6.035577" lat="51.015308"><ele>64.6</ele><time>2022-06-12T07:08:22.000Z</time></trkpt><trkpt lon="6.035698" lat="51.015312"><ele>64.6</ele><time>2022-06-12T07:08:23.000Z</time></trkpt><trkpt lon="6.035821" lat="51.015312"><ele>64.8</ele><time>2022-06-12T07:08:24.000Z</time></trkpt><trkpt lon="6.03594" lat="51.015312"><ele>64.8</ele><time>2022-06-12T07:08:25.000Z</time></trkpt><trkpt lon="6.036054" lat="51.015312"><ele>65</ele><time>2022-06-12T07:08:26.000Z</time></trkpt><trkpt lon="6.036169" lat="51.015312"><ele>65</ele><time>2022-06-12T07:08:27.000Z</time></trkpt><trkpt lon="6.036283" lat="51.015312"><ele>65</ele><time>2022-06-12T07:08:28.000Z</time></trkpt><trkpt lon="6.036394" lat="51.015312"><ele>65</ele><time>2022-06-12T07:08:29.000Z</time></trkpt><trkpt lon="6.036509" lat="51.015312"><ele>65</ele><time>2022-06-12T07:08:30.000Z</time></trkpt><trkpt lon="6.036622" lat="51.015309"><ele>65</ele><time>2022-06-12T07:08:31.000Z</time></trkpt><trkpt lon="6.036736" lat="51.015301"><ele>65.2</ele><time>2022-06-12T07:08:32.000Z</time></trkpt><trkpt lon="6.036853" lat="51.01529"><ele>65.2</ele><time>2022-06-12T07:08:33.000Z</time></trkpt><trkpt lon="6.036966" lat="51.015278"><ele>65.2</ele><time>2022-06-12T07:08:34.000Z</time></trkpt><trkpt lon="6.037073" lat="51.01526"><ele>65.2</ele><time>2022-06-12T07:08:35.000Z</time></trkpt><trkpt lon="6.037188" lat="51.015244"><ele>65.4</ele><time>2022-06-12T07:08:36.000Z</time></trkpt><trkpt lon="6.037297" lat="51.015229"><ele>65.4</ele><time>2022-06-12T07:08:37.000Z</time></trkpt><trkpt lon="6.037402" lat="51.015206"><ele>65.6</ele><time>2022-06-12T07:08:38.000Z</time></trkpt><trkpt lon="6.037504" lat="51.015191"><ele>65.6</ele><time>2022-06-12T07:08:39.000Z</time></trkpt><trkpt lon="6.037604" lat="51.01517"><ele>65.6</ele><time>2022-06-12T07:08:40.000Z</time></trkpt><trkpt lon="6.037715" lat="51.015149"><ele>65.6</ele><time>2022-06-12T07:08:41.000Z</time></trkpt><trkpt lon="6.037816" lat="51.01513"><ele>65.6</ele><time>2022-06-12T07:08:42.000Z</time></trkpt><trkpt lon="6.037889" lat="51.015108"><ele>65.6</ele><time>2022-06-12T07:08:43.000Z</time></trkpt><trkpt lon="6.037966" lat="51.015064"><ele>65.6</ele><time>2022-06-12T07:08:44.000Z</time></trkpt><trkpt lon="6.038019" lat="51.015012"><ele>65.6</ele><time>2022-06-12T07:08:45.000Z</time></trkpt><trkpt lon="6.038036" lat="51.014945"><ele>65.6</ele><time>2022-06-12T07:08:46.000Z</time></trkpt><trkpt lon="6.038029" lat="51.014876"><ele>65.6</ele><time>2022-06-12T07:08:47.000Z</time></trkpt><trkpt lon="6.038003" lat="51.0148"><ele>65.6</ele><time>2022-06-12T07:08:48.000Z</time></trkpt><trkpt lon="6.037966" lat="51.014726"><ele>65.8</ele><time>2022-06-12T07:08:49.000Z</time></trkpt><trkpt lon="6.037925" lat="51.014655"><ele>65.8</ele><time>2022-06-12T07:08:50.000Z</time></trkpt><trkpt lon="6.037883" lat="51.014582"><ele>65.6</ele><time>2022-06-12T07:08:51.000Z</time></trkpt><trkpt lon="6.037845" lat="51.014514"><ele>65.6</ele><time>2022-06-12T07:08:52.000Z</time></trkpt><trkpt lon="6.037807" lat="51.014445"><ele>65.6</ele><time>2022-06-12T07:08:53.000Z</time></trkpt><trkpt lon="6.037773" lat="51.01438"><ele>65.6</ele><time>2022-06-12T07:08:54.000Z</time></trkpt><trkpt lon="6.037746" lat="51.014315"><ele>65.6</ele><time>2022-06-12T07:08:55.000Z</time></trkpt><trkpt lon="6.037732" lat="51.014248"><ele>65.6</ele><time>2022-06-12T07:08:56.000Z</time></trkpt><trkpt lon="6.037744" lat="51.014182"><ele>65.6</ele><time>2022-06-12T07:08:57.000Z</time></trkpt><trkpt lon="6.037785" lat="51.014117"><ele>65.6</ele><time>2022-06-12T07:08:58.000Z</time></trkpt><trkpt lon="6.037852" lat="51.014063"><ele>65.6</ele><time>2022-06-12T07:08:59.000Z</time></trkpt><trkpt lon="6.037938" lat="51.014021"><ele>65.8</ele><time>2022-06-12T07:09:00.000Z</time></trkpt><trkpt lon="6.038037" lat="51.013994"><ele>66</ele><time>2022-06-12T07:09:01.000Z</time></trkpt><trkpt lon="6.038149" lat="51.013978"><ele>66</ele><time>2022-06-12T07:09:02.000Z</time></trkpt><trkpt lon="6.038265" lat="51.01397"><ele>66</ele><time>2022-06-12T07:09:03.000Z</time></trkpt><trkpt lon="6.038386" lat="51.013962"><ele>66</ele><time>2022-06-12T07:09:04.000Z</time></trkpt><trkpt lon="6.038503" lat="51.013958"><ele>66.2</ele><time>2022-06-12T07:09:05.000Z</time></trkpt><trkpt lon="6.038629" lat="51.013951"><ele>66.2</ele><time>2022-06-12T07:09:06.000Z</time></trkpt><trkpt lon="6.03874" lat="51.013943"><ele>66.4</ele><time>2022-06-12T07:09:07.000Z</time></trkpt><trkpt lon="6.038842" lat="51.013937"><ele>66.4</ele><time>2022-06-12T07:09:08.000Z</time></trkpt><trkpt lon="6.038977" lat="51.013924"><ele>66.4</ele><time>2022-06-12T07:09:09.000Z</time></trkpt><trkpt lon="6.039092" lat="51.013916"><ele>66.6</ele><time>2022-06-12T07:09:10.000Z</time></trkpt><trkpt lon="6.039202" lat="51.013909"><ele>66.6</ele><time>2022-06-12T07:09:11.000Z</time></trkpt><trkpt lon="6.039319" lat="51.013894"><ele>66.8</ele><time>2022-06-12T07:09:12.000Z</time></trkpt><trkpt lon="6.03943" lat="51.013886"><ele>67</ele><time>2022-06-12T07:09:13.000Z</time></trkpt><trkpt lon="6.039545" lat="51.013875"><ele>67</ele><time>2022-06-12T07:09:14.000Z</time></trkpt><trkpt lon="6.03966" lat="51.013867"><ele>67.2</ele><time>2022-06-12T07:09:15.000Z</time></trkpt><trkpt lon="6.039774" lat="51.013855"><ele>67.2</ele><time>2022-06-12T07:09:16.000Z</time></trkpt><trkpt lon="6.03989" lat="51.013848"><ele>67.2</ele><time>2022-06-12T07:09:17.000Z</time></trkpt><trkpt lon="6.040011" lat="51.013836"><ele>67.2</ele><time>2022-06-12T07:09:18.000Z</time></trkpt><trkpt lon="6.040127" lat="51.013829"><ele>67.4</ele><time>2022-06-12T07:09:19.000Z</time></trkpt><trkpt lon="6.040248" lat="51.013821"><ele>67.4</ele><time>2022-06-12T07:09:20.000Z</time></trkpt><trkpt lon="6.04037" lat="51.013821"><ele>67.6</ele><time>2022-06-12T07:09:21.000Z</time></trkpt><trkpt lon="6.040486" lat="51.013813"><ele>67.6</ele><time>2022-06-12T07:09:22.000Z</time></trkpt><trkpt lon="6.040605" lat="51.013802"><ele>67.8</ele><time>2022-06-12T07:09:23.000Z</time></trkpt><trkpt lon="6.040722" lat="51.013794"><ele>67.8</ele><time>2022-06-12T07:09:24.000Z</time></trkpt><trkpt lon="6.040838" lat="51.013787"><ele>68</ele><time>2022-06-12T07:09:25.000Z</time></trkpt><trkpt lon="6.040955" lat="51.013775"><ele>68</ele><time>2022-06-12T07:09:26.000Z</time></trkpt><trkpt lon="6.041073" lat="51.013764"><ele>68</ele><time>2022-06-12T07:09:27.000Z</time></trkpt><trkpt lon="6.04119" lat="51.013756"><ele>68</ele><time>2022-06-12T07:09:28.000Z</time></trkpt><trkpt lon="6.041311" lat="51.013745"><ele>68.2</ele><time>2022-06-12T07:09:29.000Z</time></trkpt><trkpt lon="6.041426" lat="51.01373"><ele>68.2</ele><time>2022-06-12T07:09:30.000Z</time></trkpt><trkpt lon="6.041536" lat="51.013711"><ele>68.2</ele><time>2022-06-12T07:09:31.000Z</time></trkpt><trkpt lon="6.041645" lat="51.013684"><ele>68.2</ele><time>2022-06-12T07:09:32.000Z</time></trkpt><trkpt lon="6.041752" lat="51.013654"><ele>68.4</ele><time>2022-06-12T07:09:33.000Z</time></trkpt><trkpt lon="6.041855" lat="51.01362"><ele>68.4</ele><time>2022-06-12T07:09:34.000Z</time></trkpt><trkpt lon="6.041956" lat="51.013578"><ele>68.4</ele><time>2022-06-12T07:09:35.000Z</time></trkpt><trkpt lon="6.042046" lat="51.013535"><ele>68.4</ele><time>2022-06-12T07:09:36.000Z</time></trkpt><trkpt lon="6.042145" lat="51.013487"><ele>68.4</ele><time>2022-06-12T07:09:37.000Z</time></trkpt><trkpt lon="6.042233" lat="51.013435"><ele>68.4</ele><time>2022-06-12T07:09:38.000Z</time></trkpt><trkpt lon="6.042323" lat="51.013383"><ele>68.4</ele><time>2022-06-12T07:09:39.000Z</time></trkpt><trkpt lon="6.042412" lat="51.01333"><ele>68.4</ele><time>2022-06-12T07:09:40.000Z</time></trkpt><trkpt lon="6.042498" lat="51.01328"><ele>68.4</ele><time>2022-06-12T07:09:41.000Z</time></trkpt><trkpt lon="6.042584" lat="51.013231"><ele>68.4</ele><time>2022-06-12T07:09:42.000Z</time></trkpt><trkpt lon="6.042672" lat="51.013182"><ele>68.6</ele><time>2022-06-12T07:09:43.000Z</time></trkpt><trkpt lon="6.042761" lat="51.013136"><ele>68.6</ele><time>2022-06-12T07:09:44.000Z</time></trkpt><trkpt lon="6.042847" lat="51.01309"><ele>68.6</ele><time>2022-06-12T07:09:45.000Z</time></trkpt><trkpt lon="6.042936" lat="51.013044"><ele>68.8</ele><time>2022-06-12T07:09:46.000Z</time></trkpt><trkpt lon="6.043026" lat="51.013002"><ele>68.8</ele><time>2022-06-12T07:09:47.000Z</time></trkpt><trkpt lon="6.043124" lat="51.01296"><ele>68.8</ele><time>2022-06-12T07:09:48.000Z</time></trkpt><trkpt lon="6.043222" lat="51.012918"><ele>69</ele><time>2022-06-12T07:09:49.000Z</time></trkpt><trkpt lon="6.043327" lat="51.01288"><ele>69</ele><time>2022-06-12T07:09:50.000Z</time></trkpt><trkpt lon="6.043433" lat="51.012845"><ele>69</ele><time>2022-06-12T07:09:51.000Z</time></trkpt><trkpt lon="6.043539" lat="51.012811"><ele>69</ele><time>2022-06-12T07:09:52.000Z</time></trkpt><trkpt lon="6.043648" lat="51.012777"><ele>68.8</ele><time>2022-06-12T07:09:53.000Z</time></trkpt><trkpt lon="6.043757" lat="51.012746"><ele>68.8</ele><time>2022-06-12T07:09:54.000Z</time></trkpt><trkpt lon="6.043868" lat="51.012719"><ele>68.6</ele><time>2022-06-12T07:09:55.000Z</time></trkpt><trkpt lon="6.04398" lat="51.012692"><ele>68.6</ele><time>2022-06-12T07:09:56.000Z</time></trkpt><trkpt lon="6.044091" lat="51.012666"><ele>68.4</ele><time>2022-06-12T07:09:57.000Z</time></trkpt><trkpt lon="6.044205" lat="51.012646"><ele>68.4</ele><time>2022-06-12T07:09:58.000Z</time></trkpt><trkpt lon="6.044321" lat="51.012642"><ele>68.2</ele><time>2022-06-12T07:09:59.000Z</time></trkpt><trkpt lon="6.044443" lat="51.012642"><ele>68</ele><time>2022-06-12T07:10:00.000Z</time></trkpt><trkpt lon="6.044562" lat="51.012653"><ele>67.8</ele><time>2022-06-12T07:10:01.000Z</time></trkpt><trkpt lon="6.044683" lat="51.012672"><ele>67.8</ele><time>2022-06-12T07:10:02.000Z</time></trkpt><trkpt lon="6.044799" lat="51.012695"><ele>67.6</ele><time>2022-06-12T07:10:03.000Z</time></trkpt><trkpt lon="6.044918" lat="51.012717"><ele>67.4</ele><time>2022-06-12T07:10:04.000Z</time></trkpt><trkpt lon="6.045033" lat="51.012744"><ele>67.2</ele><time>2022-06-12T07:10:05.000Z</time></trkpt><trkpt lon="6.045144" lat="51.012766"><ele>67.2</ele><time>2022-06-12T07:10:06.000Z</time></trkpt><trkpt lon="6.045262" lat="51.01279"><ele>67.2</ele><time>2022-06-12T07:10:07.000Z</time></trkpt><trkpt lon="6.045379" lat="51.012816"><ele>67</ele><time>2022-06-12T07:10:08.000Z</time></trkpt><trkpt lon="6.045495" lat="51.01284"><ele>67</ele><time>2022-06-12T07:10:09.000Z</time></trkpt><trkpt lon="6.045609" lat="51.012866"><ele>67</ele><time>2022-06-12T07:10:10.000Z</time></trkpt><trkpt lon="6.045725" lat="51.012882"><ele>67</ele><time>2022-06-12T07:10:11.000Z</time></trkpt><trkpt lon="6.045848" lat="51.01289"><ele>66.8</ele><time>2022-06-12T07:10:12.000Z</time></trkpt><trkpt lon="6.045968" lat="51.01289"><ele>67</ele><time>2022-06-12T07:10:13.000Z</time></trkpt><trkpt lon="6.046093" lat="51.012886"><ele>67</ele><time>2022-06-12T07:10:14.000Z</time></trkpt><trkpt lon="6.046216" lat="51.012879"><ele>67</ele><time>2022-06-12T07:10:15.000Z</time></trkpt><trkpt lon="6.046341" lat="51.012867"><ele>67.2</ele><time>2022-06-12T07:10:16.000Z</time></trkpt><trkpt lon="6.046451" lat="51.012852"><ele>67.2</ele><time>2022-06-12T07:10:17.000Z</time></trkpt><trkpt lon="6.046555" lat="51.012834"><ele>67.2</ele><time>2022-06-12T07:10:18.000Z</time></trkpt><trkpt lon="6.046655" lat="51.012818"><ele>67.2</ele><time>2022-06-12T07:10:19.000Z</time></trkpt><trkpt lon="6.046756" lat="51.012799"><ele>67.2</ele><time>2022-06-12T07:10:20.000Z</time></trkpt><trkpt lon="6.046861" lat="51.012784"><ele>67.2</ele><time>2022-06-12T07:10:21.000Z</time></trkpt><trkpt lon="6.046969" lat="51.012761"><ele>67.4</ele><time>2022-06-12T07:10:22.000Z</time></trkpt><trkpt lon="6.047079" lat="51.012735"><ele>67.4</ele><time>2022-06-12T07:10:23.000Z</time></trkpt><trkpt lon="6.047184" lat="51.0127"><ele>67.4</ele><time>2022-06-12T07:10:24.000Z</time></trkpt><trkpt lon="6.047285" lat="51.012666"><ele>67.4</ele><time>2022-06-12T07:10:25.000Z</time></trkpt><trkpt lon="6.04739" lat="51.012635"><ele>67.4</ele><time>2022-06-12T07:10:26.000Z</time></trkpt><trkpt lon="6.047494" lat="51.012605"><ele>67.6</ele><time>2022-06-12T07:10:27.000Z</time></trkpt><trkpt lon="6.047601" lat="51.012574"><ele>67.6</ele><time>2022-06-12T07:10:28.000Z</time></trkpt><trkpt lon="6.047709" lat="51.012555"><ele>67.8</ele><time>2022-06-12T07:10:29.000Z</time></trkpt><trkpt lon="6.047821" lat="51.012543"><ele>67.8</ele><time>2022-06-12T07:10:30.000Z</time></trkpt><trkpt lon="6.047932" lat="51.012543"><ele>68</ele><time>2022-06-12T07:10:31.000Z</time></trkpt><trkpt lon="6.048041" lat="51.012546"><ele>68</ele><time>2022-06-12T07:10:32.000Z</time></trkpt><trkpt lon="6.048149" lat="51.012554"><ele>68.2</ele><time>2022-06-12T07:10:33.000Z</time></trkpt><trkpt lon="6.04825" lat="51.012561"><ele>68.2</ele><time>2022-06-12T07:10:34.000Z</time></trkpt><trkpt lon="6.048353" lat="51.012569"><ele>68.2</ele><time>2022-06-12T07:10:35.000Z</time></trkpt><trkpt lon="6.048452" lat="51.012577"><ele>68.4</ele><time>2022-06-12T07:10:36.000Z</time></trkpt><trkpt lon="6.048555" lat="51.012584"><ele>68.4</ele><time>2022-06-12T07:10:37.000Z</time></trkpt><trkpt lon="6.048663" lat="51.012588"><ele>68.4</ele><time>2022-06-12T07:10:38.000Z</time></trkpt><trkpt lon="6.048768" lat="51.012581"><ele>68.6</ele><time>2022-06-12T07:10:39.000Z</time></trkpt><trkpt lon="6.048871" lat="51.012562"><ele>68.6</ele><time>2022-06-12T07:10:40.000Z</time></trkpt><trkpt lon="6.048967" lat="51.012536"><ele>68.6</ele><time>2022-06-12T07:10:41.000Z</time></trkpt><trkpt lon="6.049055" lat="51.012495"><ele>68.6</ele><time>2022-06-12T07:10:42.000Z</time></trkpt><trkpt lon="6.049132" lat="51.012445"><ele>68.8</ele><time>2022-06-12T07:10:43.000Z</time></trkpt><trkpt lon="6.049196" lat="51.012388"><ele>68.8</ele><time>2022-06-12T07:10:44.000Z</time></trkpt><trkpt lon="6.049246" lat="51.012325"><ele>69</ele><time>2022-06-12T07:10:45.000Z</time></trkpt><trkpt lon="6.049278" lat="51.01226"><ele>69</ele><time>2022-06-12T07:10:46.000Z</time></trkpt><trkpt lon="6.049296" lat="51.012187"><ele>69</ele><time>2022-06-12T07:10:47.000Z</time></trkpt><trkpt lon="6.049308" lat="51.012114"><ele>69</ele><time>2022-06-12T07:10:48.000Z</time></trkpt><trkpt lon="6.049318" lat="51.012046"><ele>69.2</ele><time>2022-06-12T07:10:49.000Z</time></trkpt><trkpt lon="6.049327" lat="51.011976"><ele>69.2</ele><time>2022-06-12T07:10:50.000Z</time></trkpt><trkpt lon="6.04933" lat="51.011905"><ele>69.2</ele><time>2022-06-12T07:10:51.000Z</time></trkpt><trkpt lon="6.049332" lat="51.011832"><ele>69.2</ele><time>2022-06-12T07:10:52.000Z</time></trkpt><trkpt lon="6.049336" lat="51.011759"><ele>69.2</ele><time>2022-06-12T07:10:53.000Z</time></trkpt><trkpt lon="6.049345" lat="51.011688"><ele>69.2</ele><time>2022-06-12T07:10:54.000Z</time></trkpt><trkpt lon="6.049351" lat="51.011615"><ele>69.4</ele><time>2022-06-12T07:10:55.000Z</time></trkpt><trkpt lon="6.049359" lat="51.011545"><ele>69.4</ele><time>2022-06-12T07:10:56.000Z</time></trkpt><trkpt lon="6.049369" lat="51.011474"><ele>69.4</ele><time>2022-06-12T07:10:57.000Z</time></trkpt><trkpt lon="6.049379" lat="51.011401"><ele>69.2</ele><time>2022-06-12T07:10:58.000Z</time></trkpt><trkpt lon="6.049392" lat="51.011326"><ele>69</ele><time>2022-06-12T07:10:59.000Z</time></trkpt><trkpt lon="6.049406" lat="51.011259"><ele>68.8</ele><time>2022-06-12T07:11:00.000Z</time></trkpt><trkpt lon="6.049424" lat="51.011178"><ele>68.8</ele><time>2022-06-12T07:11:01.000Z</time></trkpt><trkpt lon="6.049439" lat="51.011107"><ele>68.6</ele><time>2022-06-12T07:11:02.000Z</time></trkpt><trkpt lon="6.049459" lat="51.011028"><ele>68.4</ele><time>2022-06-12T07:11:03.000Z</time></trkpt><trkpt lon="6.049479" lat="51.010952"><ele>68.4</ele><time>2022-06-12T07:11:04.000Z</time></trkpt><trkpt lon="6.049501" lat="51.010878"><ele>68.4</ele><time>2022-06-12T07:11:05.000Z</time></trkpt><trkpt lon="6.049524" lat="51.010806"><ele>68.4</ele><time>2022-06-12T07:11:06.000Z</time></trkpt><trkpt lon="6.049546" lat="51.010733"><ele>68.4</ele><time>2022-06-12T07:11:07.000Z</time></trkpt><trkpt lon="6.049564" lat="51.010665"><ele>68.6</ele><time>2022-06-12T07:11:08.000Z</time></trkpt><trkpt lon="6.049584" lat="51.010596"><ele>68.6</ele><time>2022-06-12T07:11:09.000Z</time></trkpt><trkpt lon="6.049606" lat="51.010526"><ele>68.4</ele><time>2022-06-12T07:11:10.000Z</time></trkpt><trkpt lon="6.049626" lat="51.010458"><ele>68.4</ele><time>2022-06-12T07:11:11.000Z</time></trkpt><trkpt lon="6.049647" lat="51.01039"><ele>68.4</ele><time>2022-06-12T07:11:12.000Z</time></trkpt><trkpt lon="6.049671" lat="51.010317"><ele>68.6</ele><time>2022-06-12T07:11:13.000Z</time></trkpt><trkpt lon="6.049696" lat="51.010252"><ele>68.8</ele><time>2022-06-12T07:11:14.000Z</time></trkpt><trkpt lon="6.049722" lat="51.010184"><ele>68.8</ele><time>2022-06-12T07:11:15.000Z</time></trkpt><trkpt lon="6.049749" lat="51.010119"><ele>69</ele><time>2022-06-12T07:11:16.000Z</time></trkpt><trkpt lon="6.049772" lat="51.010055"><ele>69</ele><time>2022-06-12T07:11:17.000Z</time></trkpt><trkpt lon="6.049788" lat="51.009982"><ele>69.2</ele><time>2022-06-12T07:11:18.000Z</time></trkpt><trkpt lon="6.049798" lat="51.009909"><ele>69.2</ele><time>2022-06-12T07:11:19.000Z</time></trkpt><trkpt lon="6.0498" lat="51.009834"><ele>69.2</ele><time>2022-06-12T07:11:20.000Z</time></trkpt><trkpt lon="6.049794" lat="51.009761"><ele>69.2</ele><time>2022-06-12T07:11:21.000Z</time></trkpt><trkpt lon="6.049785" lat="51.009688"><ele>69.2</ele><time>2022-06-12T07:11:22.000Z</time></trkpt><trkpt lon="6.049776" lat="51.009617"><ele>69.4</ele><time>2022-06-12T07:11:23.000Z</time></trkpt><trkpt lon="6.049775" lat="51.009549"><ele>69.6</ele><time>2022-06-12T07:11:24.000Z</time></trkpt><trkpt lon="6.049785" lat="51.009482"><ele>69.6</ele><time>2022-06-12T07:11:25.000Z</time></trkpt><trkpt lon="6.049808" lat="51.009421"><ele>69.8</ele><time>2022-06-12T07:11:26.000Z</time></trkpt><trkpt lon="6.049841" lat="51.00936"><ele>69.8</ele><time>2022-06-12T07:11:27.000Z</time></trkpt><trkpt lon="6.049888" lat="51.009302"><ele>69.8</ele><time>2022-06-12T07:11:28.000Z</time></trkpt><trkpt lon="6.049951" lat="51.009254"><ele>69.8</ele><time>2022-06-12T07:11:29.000Z</time></trkpt><trkpt lon="6.050028" lat="51.00921"><ele>69.6</ele><time>2022-06-12T07:11:30.000Z</time></trkpt><trkpt lon="6.050106" lat="51.009187"><ele>69.6</ele><time>2022-06-12T07:11:31.000Z</time></trkpt><trkpt lon="6.050185" lat="51.009168"><ele>69.6</ele><time>2022-06-12T07:11:32.000Z</time></trkpt><trkpt lon="6.050261" lat="51.009159"><ele>69.6</ele><time>2022-06-12T07:11:33.000Z</time></trkpt><trkpt lon="6.050329" lat="51.009152"><ele>69.6</ele><time>2022-06-12T07:11:34.000Z</time></trkpt><trkpt lon="6.050394" lat="51.009144"><ele>69.6</ele><time>2022-06-12T07:11:35.000Z</time></trkpt><trkpt lon="6.050457" lat="51.00914"><ele>69.8</ele><time>2022-06-12T07:11:36.000Z</time></trkpt><trkpt lon="6.050519" lat="51.00914"><ele>69.8</ele><time>2022-06-12T07:11:37.000Z</time></trkpt><trkpt lon="6.050579" lat="51.009133"><ele>69.8</ele><time>2022-06-12T07:11:38.000Z</time></trkpt><trkpt lon="6.050638" lat="51.009132"><ele>69.8</ele><time>2022-06-12T07:11:39.000Z</time></trkpt><trkpt lon="6.050695" lat="51.009129"><ele>69.8</ele><time>2022-06-12T07:11:40.000Z</time></trkpt><trkpt lon="6.050747" lat="51.009132"><ele>69.8</ele><time>2022-06-12T07:11:41.000Z</time></trkpt><trkpt lon="6.050792" lat="51.009136"><ele>69.8</ele><time>2022-06-12T07:11:42.000Z</time></trkpt><trkpt lon="6.050832" lat="51.009136"><ele>69.8</ele><time>2022-06-12T07:11:43.000Z</time></trkpt><trkpt lon="6.050865" lat="51.009136"><ele>69.8</ele><time>2022-06-12T07:11:44.000Z</time></trkpt><trkpt lon="6.050896" lat="51.009136"><ele>69.8</ele><time>2022-06-12T07:11:45.000Z</time></trkpt><trkpt lon="6.050923" lat="51.00914"><ele>69.8</ele><time>2022-06-12T07:11:46.000Z</time></trkpt><trkpt lon="6.050944" lat="51.00914"><ele>69.8</ele><time>2022-06-12T07:11:47.000Z</time></trkpt><trkpt lon="6.05096" lat="51.009148"><ele>69.8</ele><time>2022-06-12T07:13:19.000Z</time></trkpt><trkpt lon="6.051004" lat="51.009155"><ele>69.8</ele><time>2022-06-12T07:13:20.000Z</time></trkpt><trkpt lon="6.051033" lat="51.009155"><ele>69.8</ele><time>2022-06-12T07:13:21.000Z</time></trkpt><trkpt lon="6.051062" lat="51.009155"><ele>69.8</ele><time>2022-06-12T07:13:22.000Z</time></trkpt><trkpt lon="6.051097" lat="51.009155"><ele>69.8</ele><time>2022-06-12T07:13:23.000Z</time></trkpt><trkpt lon="6.051141" lat="51.009155"><ele>69.6</ele><time>2022-06-12T07:13:24.000Z</time></trkpt><trkpt lon="6.05119" lat="51.009155"><ele>69.6</ele><time>2022-06-12T07:13:25.000Z</time></trkpt><trkpt lon="6.051239" lat="51.009155"><ele>69.6</ele><time>2022-06-12T07:13:26.000Z</time></trkpt><trkpt lon="6.051294" lat="51.009152"><ele>69.6</ele><time>2022-06-12T07:13:27.000Z</time></trkpt><trkpt lon="6.051355" lat="51.009155"><ele>69.6</ele><time>2022-06-12T07:13:28.000Z</time></trkpt><trkpt lon="6.051419" lat="51.009155"><ele>69.6</ele><time>2022-06-12T07:13:29.000Z</time></trkpt><trkpt lon="6.051486" lat="51.009155"><ele>69.6</ele><time>2022-06-12T07:13:30.000Z</time></trkpt><trkpt lon="6.051554" lat="51.009152"><ele>69.6</ele><time>2022-06-12T07:13:31.000Z</time></trkpt><trkpt lon="6.051634" lat="51.009148"><ele>69.6</ele><time>2022-06-12T07:13:32.000Z</time></trkpt><trkpt lon="6.05172" lat="51.00914"><ele>69.4</ele><time>2022-06-12T07:13:33.000Z</time></trkpt><trkpt lon="6.051814" lat="51.009136"><ele>69.4</ele><time>2022-06-12T07:13:34.000Z</time></trkpt><trkpt lon="6.051912" lat="51.009129"><ele>69.2</ele><time>2022-06-12T07:13:35.000Z</time></trkpt><trkpt lon="6.052012" lat="51.009117"><ele>69.4</ele><time>2022-06-12T07:13:36.000Z</time></trkpt><trkpt lon="6.052112" lat="51.009102"><ele>69.4</ele><time>2022-06-12T07:13:37.000Z</time></trkpt><trkpt lon="6.052213" lat="51.009084"><ele>69.4</ele><time>2022-06-12T07:13:38.000Z</time></trkpt><trkpt lon="6.05231" lat="51.009066"><ele>69.4</ele><time>2022-06-12T07:13:39.000Z</time></trkpt><trkpt lon="6.052425" lat="51.009042"><ele>69.2</ele><time>2022-06-12T07:13:40.000Z</time></trkpt><trkpt lon="6.052532" lat="51.009019"><ele>69.2</ele><time>2022-06-12T07:13:41.000Z</time></trkpt><trkpt lon="6.052642" lat="51.008992"><ele>69.2</ele><time>2022-06-12T07:13:42.000Z</time></trkpt><trkpt lon="6.052747" lat="51.008969"><ele>69.4</ele><time>2022-06-12T07:13:43.000Z</time></trkpt><trkpt lon="6.052852" lat="51.008943"><ele>69.4</ele><time>2022-06-12T07:13:44.000Z</time></trkpt><trkpt lon="6.052956" lat="51.00892"><ele>69.6</ele><time>2022-06-12T07:13:45.000Z</time></trkpt><trkpt lon="6.053054" lat="51.008898"><ele>69.6</ele><time>2022-06-12T07:13:46.000Z</time></trkpt><trkpt lon="6.053136" lat="51.008878"><ele>69.6</ele><time>2022-06-12T07:13:47.000Z</time></trkpt><trkpt lon="6.0532" lat="51.008848"><ele>69.8</ele><time>2022-06-12T07:13:48.000Z</time></trkpt><trkpt lon="6.053246" lat="51.00881"><ele>69.8</ele><time>2022-06-12T07:13:49.000Z</time></trkpt><trkpt lon="6.053282" lat="51.008783"><ele>69.8</ele><time>2022-06-12T07:13:50.000Z</time></trkpt><trkpt lon="6.053316" lat="51.00876"><ele>69.8</ele><time>2022-06-12T07:13:51.000Z</time></trkpt><trkpt lon="6.053355" lat="51.008744"><ele>70</ele><time>2022-06-12T07:13:52.000Z</time></trkpt><trkpt lon="6.053415" lat="51.008736"><ele>70</ele><time>2022-06-12T07:13:53.000Z</time></trkpt><trkpt lon="6.053487" lat="51.008732"><ele>70</ele><time>2022-06-12T07:13:54.000Z</time></trkpt><trkpt lon="6.053571" lat="51.008732"><ele>70</ele><time>2022-06-12T07:13:55.000Z</time></trkpt><trkpt lon="6.053675" lat="51.008735"><ele>70</ele><time>2022-06-12T07:13:56.000Z</time></trkpt><trkpt lon="6.053787" lat="51.008746"><ele>69.8</ele><time>2022-06-12T07:13:57.000Z</time></trkpt><trkpt lon="6.053908" lat="51.008754"><ele>69.8</ele><time>2022-06-12T07:13:58.000Z</time></trkpt><trkpt lon="6.054026" lat="51.008762"><ele>69.8</ele><time>2022-06-12T07:13:59.000Z</time></trkpt><trkpt lon="6.054152" lat="51.008777"><ele>69.8</ele><time>2022-06-12T07:14:00.000Z</time></trkpt><trkpt lon="6.054277" lat="51.008792"><ele>69.8</ele><time>2022-06-12T07:14:01.000Z</time></trkpt><trkpt lon="6.054412" lat="51.008811"><ele>69.8</ele><time>2022-06-12T07:14:02.000Z</time></trkpt><trkpt lon="6.05454" lat="51.00883"><ele>69.6</ele><time>2022-06-12T07:14:03.000Z</time></trkpt><trkpt lon="6.05467" lat="51.008845"><ele>69.8</ele><time>2022-06-12T07:14:04.000Z</time></trkpt><trkpt lon="6.054792" lat="51.008861"><ele>70.2</ele><time>2022-06-12T07:14:05.000Z</time></trkpt><trkpt lon="6.054907" lat="51.008879"><ele>70.4</ele><time>2022-06-12T07:14:06.000Z</time></trkpt><trkpt lon="6.055016" lat="51.008895"><ele>70.6</ele><time>2022-06-12T07:14:07.000Z</time></trkpt><trkpt lon="6.055118" lat="51.008914"><ele>70.8</ele><time>2022-06-12T07:14:08.000Z</time></trkpt><trkpt lon="6.055213" lat="51.008936"><ele>71</ele><time>2022-06-12T07:14:09.000Z</time></trkpt><trkpt lon="6.055301" lat="51.008954"><ele>71.2</ele><time>2022-06-12T07:14:10.000Z</time></trkpt><trkpt lon="6.055397" lat="51.008971"><ele>71.2</ele><time>2022-06-12T07:14:11.000Z</time></trkpt><trkpt lon="6.055498" lat="51.00899"><ele>71.4</ele><time>2022-06-12T07:14:12.000Z</time></trkpt><trkpt lon="6.05559" lat="51.00901"><ele>71.4</ele><time>2022-06-12T07:14:13.000Z</time></trkpt><trkpt lon="6.055671" lat="51.009031"><ele>71.6</ele><time>2022-06-12T07:14:14.000Z</time></trkpt><trkpt lon="6.055753" lat="51.009053"><ele>71.6</ele><time>2022-06-12T07:14:15.000Z</time></trkpt><trkpt lon="6.055843" lat="51.009078"><ele>71.6</ele><time>2022-06-12T07:14:16.000Z</time></trkpt><trkpt lon="6.055924" lat="51.0091"><ele>71.6</ele><time>2022-06-12T07:14:17.000Z</time></trkpt><trkpt lon="6.056013" lat="51.009113"><ele>71.6</ele><time>2022-06-12T07:14:18.000Z</time></trkpt><trkpt lon="6.05607" lat="51.009113"><ele>71.6</ele><time>2022-06-12T07:14:19.000Z</time></trkpt><trkpt lon="6.05616" lat="51.0091"><ele>71.6</ele><time>2022-06-12T07:14:20.000Z</time></trkpt><trkpt lon="6.056217" lat="51.009076"><ele>71.6</ele><time>2022-06-12T07:14:21.000Z</time></trkpt><trkpt lon="6.056257" lat="51.009041"><ele>71.6</ele><time>2022-06-12T07:14:22.000Z</time></trkpt><trkpt lon="6.056308" lat="51.008984"><ele>71.6</ele><time>2022-06-12T07:14:23.000Z</time></trkpt><trkpt lon="6.05636" lat="51.008917"><ele>71.6</ele><time>2022-06-12T07:14:24.000Z</time></trkpt><trkpt lon="6.056426" lat="51.008857"><ele>71.4</ele><time>2022-06-12T07:14:25.000Z</time></trkpt><trkpt lon="6.05649" lat="51.008796"><ele>71.6</ele><time>2022-06-12T07:14:26.000Z</time></trkpt><trkpt lon="6.056551" lat="51.008734"><ele>71.6</ele><time>2022-06-12T07:14:27.000Z</time></trkpt><trkpt lon="6.056603" lat="51.008673"><ele>71.6</ele><time>2022-06-12T07:14:28.000Z</time></trkpt><trkpt lon="6.05666" lat="51.008602"><ele>71.4</ele><time>2022-06-12T07:14:29.000Z</time></trkpt><trkpt lon="6.056714" lat="51.008544"><ele>71.4</ele><time>2022-06-12T07:14:30.000Z</time></trkpt><trkpt lon="6.056767" lat="51.008483"><ele>71.4</ele><time>2022-06-12T07:14:31.000Z</time></trkpt><trkpt lon="6.056816" lat="51.008425"><ele>71.4</ele><time>2022-06-12T07:14:32.000Z</time></trkpt><trkpt lon="6.056865" lat="51.008367"><ele>71.4</ele><time>2022-06-12T07:14:33.000Z</time></trkpt><trkpt lon="6.056918" lat="51.008312"><ele>71.4</ele><time>2022-06-12T07:14:34.000Z</time></trkpt><trkpt lon="6.056971" lat="51.008252"><ele>71.4</ele><time>2022-06-12T07:14:35.000Z</time></trkpt><trkpt lon="6.057026" lat="51.008196"><ele>71.4</ele><time>2022-06-12T07:14:36.000Z</time></trkpt><trkpt lon="6.057079" lat="51.00814"><ele>71.4</ele><time>2022-06-12T07:14:37.000Z</time></trkpt><trkpt lon="6.057132" lat="51.008086"><ele>71</ele><time>2022-06-12T07:14:38.000Z</time></trkpt><trkpt lon="6.057183" lat="51.008035"><ele>71</ele><time>2022-06-12T07:14:39.000Z</time></trkpt><trkpt lon="6.057241" lat="51.007979"><ele>71</ele><time>2022-06-12T07:14:40.000Z</time></trkpt><trkpt lon="6.057297" lat="51.007926"><ele>71</ele><time>2022-06-12T07:14:41.000Z</time></trkpt><trkpt lon="6.05735" lat="51.007871"><ele>71</ele><time>2022-06-12T07:14:42.000Z</time></trkpt><trkpt lon="6.057407" lat="51.00781"><ele>71</ele><time>2022-06-12T07:14:43.000Z</time></trkpt><trkpt lon="6.057464" lat="51.007754"><ele>71</ele><time>2022-06-12T07:14:44.000Z</time></trkpt><trkpt lon="6.057528" lat="51.007689"><ele>71</ele><time>2022-06-12T07:14:45.000Z</time></trkpt><trkpt lon="6.057585" lat="51.007631"><ele>71.2</ele><time>2022-06-12T07:14:46.000Z</time></trkpt><trkpt lon="6.057641" lat="51.007578"><ele>71.4</ele><time>2022-06-12T07:14:47.000Z</time></trkpt><trkpt lon="6.057696" lat="51.007525"><ele>71.4</ele><time>2022-06-12T07:14:48.000Z</time></trkpt><trkpt lon="6.05775" lat="51.007471"><ele>71.4</ele><time>2022-06-12T07:14:49.000Z</time></trkpt><trkpt lon="6.057805" lat="51.007421"><ele>71.4</ele><time>2022-06-12T07:14:50.000Z</time></trkpt><trkpt lon="6.057858" lat="51.007368"><ele>71.4</ele><time>2022-06-12T07:14:51.000Z</time></trkpt><trkpt lon="6.057915" lat="51.007311"><ele>71.4</ele><time>2022-06-12T07:14:52.000Z</time></trkpt><trkpt lon="6.05797" lat="51.007257"><ele>71.4</ele><time>2022-06-12T07:14:53.000Z</time></trkpt><trkpt lon="6.058025" lat="51.007208"><ele>71.4</ele><time>2022-06-12T07:14:54.000Z</time></trkpt><trkpt lon="6.058076" lat="51.007157"><ele>71.2</ele><time>2022-06-12T07:14:55.000Z</time></trkpt><trkpt lon="6.058129" lat="51.007102"><ele>71.2</ele><time>2022-06-12T07:14:56.000Z</time></trkpt><trkpt lon="6.058183" lat="51.007047"><ele>71.2</ele><time>2022-06-12T07:14:57.000Z</time></trkpt><trkpt lon="6.058235" lat="51.006994"><ele>71.2</ele><time>2022-06-12T07:14:58.000Z</time></trkpt><trkpt lon="6.058288" lat="51.006941"><ele>71.2</ele><time>2022-06-12T07:14:59.000Z</time></trkpt><trkpt lon="6.058343" lat="51.006887"><ele>71.2</ele><time>2022-06-12T07:15:00.000Z</time></trkpt><trkpt lon="6.058398" lat="51.00683"><ele>71</ele><time>2022-06-12T07:15:01.000Z</time></trkpt><trkpt lon="6.058458" lat="51.006773"><ele>71</ele><time>2022-06-12T07:15:02.000Z</time></trkpt><trkpt lon="6.058515" lat="51.006715"><ele>71.2</ele><time>2022-06-12T07:15:03.000Z</time></trkpt><trkpt lon="6.058568" lat="51.006659"><ele>71.2</ele><time>2022-06-12T07:15:04.000Z</time></trkpt><trkpt lon="6.058625" lat="51.006605"><ele>71.2</ele><time>2022-06-12T07:15:05.000Z</time></trkpt><trkpt lon="6.058685" lat="51.006551"><ele>71.2</ele><time>2022-06-12T07:15:06.000Z</time></trkpt><trkpt lon="6.058745" lat="51.006494"><ele>71.2</ele><time>2022-06-12T07:15:07.000Z</time></trkpt><trkpt lon="6.058798" lat="51.006444"><ele>71.2</ele><time>2022-06-12T07:15:08.000Z</time></trkpt><trkpt lon="6.058855" lat="51.00639"><ele>71.2</ele><time>2022-06-12T07:15:09.000Z</time></trkpt><trkpt lon="6.058927" lat="51.00633"><ele>71.4</ele><time>2022-06-12T07:15:10.000Z</time></trkpt><trkpt lon="6.058991" lat="51.006277"><ele>71.4</ele><time>2022-06-12T07:15:11.000Z</time></trkpt><trkpt lon="6.059057" lat="51.006223"><ele>71.4</ele><time>2022-06-12T07:15:12.000Z</time></trkpt><trkpt lon="6.05912" lat="51.00617"><ele>71.4</ele><time>2022-06-12T07:15:13.000Z</time></trkpt><trkpt lon="6.059186" lat="51.006117"><ele>71.4</ele><time>2022-06-12T07:15:14.000Z</time></trkpt><trkpt lon="6.059254" lat="51.006066"><ele>71.4</ele><time>2022-06-12T07:15:15.000Z</time></trkpt><trkpt lon="6.059314" lat="51.006017"><ele>71.4</ele><time>2022-06-12T07:15:16.000Z</time></trkpt><trkpt lon="6.059381" lat="51.005964"><ele>71.4</ele><time>2022-06-12T07:15:17.000Z</time></trkpt><trkpt lon="6.059446" lat="51.005915"><ele>71.4</ele><time>2022-06-12T07:15:18.000Z</time></trkpt><trkpt lon="6.059513" lat="51.005861"><ele>71.6</ele><time>2022-06-12T07:15:19.000Z</time></trkpt><trkpt lon="6.059579" lat="51.005808"><ele>71.6</ele><time>2022-06-12T07:15:20.000Z</time></trkpt><trkpt lon="6.059648" lat="51.005754"><ele>71.6</ele><time>2022-06-12T07:15:21.000Z</time></trkpt><trkpt lon="6.059716" lat="51.005701"><ele>71.8</ele><time>2022-06-12T07:15:22.000Z</time></trkpt><trkpt lon="6.059784" lat="51.005645"><ele>71.8</ele><time>2022-06-12T07:15:23.000Z</time></trkpt><trkpt lon="6.059849" lat="51.005591"><ele>71.8</ele><time>2022-06-12T07:15:24.000Z</time></trkpt><trkpt lon="6.059911" lat="51.005534"><ele>71.6</ele><time>2022-06-12T07:15:25.000Z</time></trkpt><trkpt lon="6.059971" lat="51.00548"><ele>71.6</ele><time>2022-06-12T07:15:26.000Z</time></trkpt><trkpt lon="6.060034" lat="51.005423"><ele>71.8</ele><time>2022-06-12T07:15:27.000Z</time></trkpt><trkpt lon="6.060102" lat="51.005372"><ele>71.8</ele><time>2022-06-12T07:15:28.000Z</time></trkpt><trkpt lon="6.060168" lat="51.005319"><ele>71.8</ele><time>2022-06-12T07:15:29.000Z</time></trkpt><trkpt lon="6.060235" lat="51.005266"><ele>71.8</ele><time>2022-06-12T07:15:30.000Z</time></trkpt><trkpt lon="6.0603" lat="51.005209"><ele>72</ele><time>2022-06-12T07:15:31.000Z</time></trkpt><trkpt lon="6.060365" lat="51.005155"><ele>72</ele><time>2022-06-12T07:15:32.000Z</time></trkpt><trkpt lon="6.060431" lat="51.005103"><ele>72</ele><time>2022-06-12T07:15:33.000Z</time></trkpt><trkpt lon="6.060496" lat="51.005048"><ele>72</ele><time>2022-06-12T07:15:34.000Z</time></trkpt><trkpt lon="6.060566" lat="51.004995"><ele>72</ele><time>2022-06-12T07:15:35.000Z</time></trkpt><trkpt lon="6.060631" lat="51.004942"><ele>72</ele><time>2022-06-12T07:15:36.000Z</time></trkpt><trkpt lon="6.060702" lat="51.004892"><ele>72</ele><time>2022-06-12T07:15:37.000Z</time></trkpt><trkpt lon="6.060761" lat="51.004847"><ele>72.2</ele><time>2022-06-12T07:15:38.000Z</time></trkpt><trkpt lon="6.060837" lat="51.004795"><ele>72.2</ele><time>2022-06-12T07:15:39.000Z</time></trkpt><trkpt lon="6.060911" lat="51.004743"><ele>72.2</ele><time>2022-06-12T07:15:40.000Z</time></trkpt><trkpt lon="6.060983" lat="51.004694"><ele>72.2</ele><time>2022-06-12T07:15:41.000Z</time></trkpt><trkpt lon="6.061055" lat="51.004644"><ele>72.4</ele><time>2022-06-12T07:15:42.000Z</time></trkpt><trkpt lon="6.061125" lat="51.004594"><ele>72.4</ele><time>2022-06-12T07:15:43.000Z</time></trkpt><trkpt lon="6.061192" lat="51.004545"><ele>72.4</ele><time>2022-06-12T07:15:44.000Z</time></trkpt><trkpt lon="6.06126" lat="51.004491"><ele>72.4</ele><time>2022-06-12T07:15:45.000Z</time></trkpt><trkpt lon="6.061325" lat="51.004439"><ele>72.6</ele><time>2022-06-12T07:15:46.000Z</time></trkpt><trkpt lon="6.061392" lat="51.004389"><ele>72.6</ele><time>2022-06-12T07:15:47.000Z</time></trkpt><trkpt lon="6.061462" lat="51.004336"><ele>72.8</ele><time>2022-06-12T07:15:48.000Z</time></trkpt><trkpt lon="6.061529" lat="51.004289"><ele>72.6</ele><time>2022-06-12T07:15:49.000Z</time></trkpt><trkpt lon="6.061599" lat="51.00424"><ele>72.6</ele><time>2022-06-12T07:15:50.000Z</time></trkpt><trkpt lon="6.061673" lat="51.004197"><ele>72.6</ele><time>2022-06-12T07:15:51.000Z</time></trkpt><trkpt lon="6.061747" lat="51.004152"><ele>72.6</ele><time>2022-06-12T07:15:52.000Z</time></trkpt><trkpt lon="6.061822" lat="51.00411"><ele>72.6</ele><time>2022-06-12T07:15:53.000Z</time></trkpt><trkpt lon="6.061903" lat="51.004068"><ele>72.6</ele><time>2022-06-12T07:15:54.000Z</time></trkpt><trkpt lon="6.061982" lat="51.00403"><ele>72.8</ele><time>2022-06-12T07:15:55.000Z</time></trkpt><trkpt lon="6.062065" lat="51.003987"><ele>72.8</ele><time>2022-06-12T07:15:56.000Z</time></trkpt><trkpt lon="6.062144" lat="51.003949"><ele>72.8</ele><time>2022-06-12T07:15:57.000Z</time></trkpt><trkpt lon="6.062223" lat="51.003909"><ele>72.8</ele><time>2022-06-12T07:15:58.000Z</time></trkpt><trkpt lon="6.062311" lat="51.003866"><ele>73</ele><time>2022-06-12T07:15:59.000Z</time></trkpt><trkpt lon="6.062395" lat="51.00382"><ele>73</ele><time>2022-06-12T07:16:00.000Z</time></trkpt><trkpt lon="6.062483" lat="51.003778"><ele>73</ele><time>2022-06-12T07:16:01.000Z</time></trkpt><trkpt lon="6.06257" lat="51.003739"><ele>73</ele><time>2022-06-12T07:16:02.000Z</time></trkpt><trkpt lon="6.062658" lat="51.003697"><ele>73</ele><time>2022-06-12T07:16:03.000Z</time></trkpt><trkpt lon="6.062747" lat="51.003663"><ele>73.2</ele><time>2022-06-12T07:16:04.000Z</time></trkpt><trkpt lon="6.062836" lat="51.003633"><ele>73.2</ele><time>2022-06-12T07:16:05.000Z</time></trkpt><trkpt lon="6.062928" lat="51.0036"><ele>73.4</ele><time>2022-06-12T07:16:06.000Z</time></trkpt><trkpt lon="6.063029" lat="51.003568"><ele>73.4</ele><time>2022-06-12T07:16:07.000Z</time></trkpt><trkpt lon="6.063124" lat="51.003539"><ele>73.4</ele><time>2022-06-12T07:16:08.000Z</time></trkpt><trkpt lon="6.063224" lat="51.003512"><ele>73.6</ele><time>2022-06-12T07:16:09.000Z</time></trkpt><trkpt lon="6.063332" lat="51.00348"><ele>73.6</ele><time>2022-06-12T07:16:10.000Z</time></trkpt><trkpt lon="6.063433" lat="51.003453"><ele>73.6</ele><time>2022-06-12T07:16:11.000Z</time></trkpt><trkpt lon="6.063538" lat="51.003422"><ele>73.6</ele><time>2022-06-12T07:16:12.000Z</time></trkpt><trkpt lon="6.063637" lat="51.003396"><ele>73.8</ele><time>2022-06-12T07:16:13.000Z</time></trkpt><trkpt lon="6.06374" lat="51.003369"><ele>73.8</ele><time>2022-06-12T07:16:14.000Z</time></trkpt><trkpt lon="6.063843" lat="51.003343"><ele>73.8</ele><time>2022-06-12T07:16:15.000Z</time></trkpt><trkpt lon="6.063942" lat="51.003308"><ele>74</ele><time>2022-06-12T07:16:16.000Z</time></trkpt><trkpt lon="6.06404" lat="51.003278"><ele>74</ele><time>2022-06-12T07:16:17.000Z</time></trkpt><trkpt lon="6.064136" lat="51.003244"><ele>74</ele><time>2022-06-12T07:16:18.000Z</time></trkpt><trkpt lon="6.064235" lat="51.003213"><ele>74.2</ele><time>2022-06-12T07:16:19.000Z</time></trkpt><trkpt lon="6.064336" lat="51.003182"><ele>74.2</ele><time>2022-06-12T07:16:20.000Z</time></trkpt><trkpt lon="6.064434" lat="51.003148"><ele>74.2</ele><time>2022-06-12T07:16:21.000Z</time></trkpt><trkpt lon="6.064531" lat="51.003114"><ele>74.4</ele><time>2022-06-12T07:16:22.000Z</time></trkpt><trkpt lon="6.064627" lat="51.003076"><ele>74.4</ele><time>2022-06-12T07:16:23.000Z</time></trkpt><trkpt lon="6.06472" lat="51.003039"><ele>74.4</ele><time>2022-06-12T07:16:24.000Z</time></trkpt><trkpt lon="6.064818" lat="51.003003"><ele>74.4</ele><time>2022-06-12T07:16:25.000Z</time></trkpt><trkpt lon="6.064915" lat="51.002965"><ele>74.4</ele><time>2022-06-12T07:16:26.000Z</time></trkpt><trkpt lon="6.065006" lat="51.002927"><ele>74.4</ele><time>2022-06-12T07:16:27.000Z</time></trkpt><trkpt lon="6.065092" lat="51.002885"><ele>74.4</ele><time>2022-06-12T07:16:28.000Z</time></trkpt><trkpt lon="6.065177" lat="51.00284"><ele>74.4</ele><time>2022-06-12T07:16:29.000Z</time></trkpt><trkpt lon="6.06526" lat="51.002793"><ele>74.4</ele><time>2022-06-12T07:16:30.000Z</time></trkpt><trkpt lon="6.06534" lat="51.002744"><ele>74.6</ele><time>2022-06-12T07:16:31.000Z</time></trkpt><trkpt lon="6.065413" lat="51.002695"><ele>74.6</ele><time>2022-06-12T07:16:32.000Z</time></trkpt><trkpt lon="6.065484" lat="51.002645"><ele>74.8</ele><time>2022-06-12T07:16:33.000Z</time></trkpt><trkpt lon="6.065554" lat="51.002592"><ele>74.8</ele><time>2022-06-12T07:16:34.000Z</time></trkpt><trkpt lon="6.065624" lat="51.002538"><ele>74.8</ele><time>2022-06-12T07:16:35.000Z</time></trkpt><trkpt lon="6.065698" lat="51.002489"><ele>74.8</ele><time>2022-06-12T07:16:36.000Z</time></trkpt><trkpt lon="6.065768" lat="51.002436"><ele>74.8</ele><time>2022-06-12T07:16:37.000Z</time></trkpt><trkpt lon="6.065836" lat="51.002387"><ele>74.8</ele><time>2022-06-12T07:16:38.000Z</time></trkpt><trkpt lon="6.065907" lat="51.002336"><ele>74.8</ele><time>2022-06-12T07:16:39.000Z</time></trkpt><trkpt lon="6.065977" lat="51.002287"><ele>75</ele><time>2022-06-12T07:16:40.000Z</time></trkpt><trkpt lon="6.066048" lat="51.002237"><ele>75</ele><time>2022-06-12T07:16:41.000Z</time></trkpt><trkpt lon="6.066118" lat="51.002187"><ele>75</ele><time>2022-06-12T07:16:42.000Z</time></trkpt><trkpt lon="6.066188" lat="51.002135"><ele>75.2</ele><time>2022-06-12T07:16:43.000Z</time></trkpt><trkpt lon="6.066259" lat="51.002086"><ele>75.2</ele><time>2022-06-12T07:16:44.000Z</time></trkpt><trkpt lon="6.06633" lat="51.002036"><ele>75.4</ele><time>2022-06-12T07:16:45.000Z</time></trkpt><trkpt lon="6.066397" lat="51.001988"><ele>75.6</ele><time>2022-06-12T07:16:46.000Z</time></trkpt><trkpt lon="6.066469" lat="51.001936"><ele>75.8</ele><time>2022-06-12T07:16:47.000Z</time></trkpt><trkpt lon="6.066536" lat="51.001886"><ele>75.8</ele><time>2022-06-12T07:16:48.000Z</time></trkpt><trkpt lon="6.066602" lat="51.001838"><ele>76</ele><time>2022-06-12T07:16:49.000Z</time></trkpt><trkpt lon="6.066669" lat="51.001784"><ele>76.2</ele><time>2022-06-12T07:16:50.000Z</time></trkpt><trkpt lon="6.066735" lat="51.001734"><ele>76.2</ele><time>2022-06-12T07:16:51.000Z</time></trkpt><trkpt lon="6.066801" lat="51.001684"><ele>76.4</ele><time>2022-06-12T07:16:52.000Z</time></trkpt><trkpt lon="6.066869" lat="51.001638"><ele>76.6</ele><time>2022-06-12T07:16:53.000Z</time></trkpt><trkpt lon="6.066934" lat="51.001589"><ele>76.6</ele><time>2022-06-12T07:16:54.000Z</time></trkpt><trkpt lon="6.066999" lat="51.001539"><ele>76.8</ele><time>2022-06-12T07:16:55.000Z</time></trkpt><trkpt lon="6.067061" lat="51.001491"><ele>77</ele><time>2022-06-12T07:16:56.000Z</time></trkpt><trkpt lon="6.067126" lat="51.00144"><ele>77.2</ele><time>2022-06-12T07:16:57.000Z</time></trkpt><trkpt lon="6.067188" lat="51.001391"><ele>77.4</ele><time>2022-06-12T07:16:58.000Z</time></trkpt><trkpt lon="6.067253" lat="51.001344"><ele>77.4</ele><time>2022-06-12T07:16:59.000Z</time></trkpt><trkpt lon="6.067315" lat="51.001294"><ele>77.2</ele><time>2022-06-12T07:17:00.000Z</time></trkpt><trkpt lon="6.067378" lat="51.001245"><ele>77.4</ele><time>2022-06-12T07:17:01.000Z</time></trkpt><trkpt lon="6.067439" lat="51.001196"><ele>77.6</ele><time>2022-06-12T07:17:02.000Z</time></trkpt><trkpt lon="6.067502" lat="51.001146"><ele>77.8</ele><time>2022-06-12T07:17:03.000Z</time></trkpt><trkpt lon="6.067565" lat="51.001096"><ele>78</ele><time>2022-06-12T07:17:04.000Z</time></trkpt><trkpt lon="6.067627" lat="51.001048"><ele>78.2</ele><time>2022-06-12T07:17:05.000Z</time></trkpt><trkpt lon="6.067692" lat="51.000999"><ele>78.2</ele><time>2022-06-12T07:17:06.000Z</time></trkpt><trkpt lon="6.067761" lat="51.000951"><ele>78.4</ele><time>2022-06-12T07:17:07.000Z</time></trkpt><trkpt lon="6.067832" lat="51.000901"><ele>78.6</ele><time>2022-06-12T07:17:08.000Z</time></trkpt><trkpt lon="6.067898" lat="51.000858"><ele>78.6</ele><time>2022-06-12T07:17:09.000Z</time></trkpt><trkpt lon="6.06797" lat="51.000811"><ele>78.8</ele><time>2022-06-12T07:17:10.000Z</time></trkpt><trkpt lon="6.068039" lat="51.000765"><ele>79</ele><time>2022-06-12T07:17:11.000Z</time></trkpt><trkpt lon="6.068112" lat="51.000715"><ele>79</ele><time>2022-06-12T07:17:12.000Z</time></trkpt><trkpt lon="6.068184" lat="51.000669"><ele>79.2</ele><time>2022-06-12T07:17:13.000Z</time></trkpt><trkpt lon="6.068255" lat="51.000624"><ele>79.2</ele><time>2022-06-12T07:17:14.000Z</time></trkpt><trkpt lon="6.068328" lat="51.000581"><ele>79.4</ele><time>2022-06-12T07:17:15.000Z</time></trkpt><trkpt lon="6.068399" lat="51.000532"><ele>79.6</ele><time>2022-06-12T07:17:16.000Z</time></trkpt><trkpt lon="6.06847" lat="51.000491"><ele>79.6</ele><time>2022-06-12T07:17:17.000Z</time></trkpt><trkpt lon="6.068544" lat="51.000441"><ele>79.8</ele><time>2022-06-12T07:17:18.000Z</time></trkpt><trkpt lon="6.068617" lat="51.000399"><ele>79.8</ele><time>2022-06-12T07:17:19.000Z</time></trkpt><trkpt lon="6.068691" lat="51.000349"><ele>80</ele><time>2022-06-12T07:17:20.000Z</time></trkpt><trkpt lon="6.068763" lat="51.000307"><ele>80.2</ele><time>2022-06-12T07:17:21.000Z</time></trkpt><trkpt lon="6.06884" lat="51.00026"><ele>80.2</ele><time>2022-06-12T07:17:22.000Z</time></trkpt><trkpt lon="6.068911" lat="51.000212"><ele>80.4</ele><time>2022-06-12T07:17:23.000Z</time></trkpt><trkpt lon="6.068984" lat="51.000167"><ele>80.4</ele><time>2022-06-12T07:17:24.000Z</time></trkpt><trkpt lon="6.069058" lat="51.000121"><ele>80.6</ele><time>2022-06-12T07:17:25.000Z</time></trkpt><trkpt lon="6.069131" lat="51.000075"><ele>80.8</ele><time>2022-06-12T07:17:26.000Z</time></trkpt><trkpt lon="6.069205" lat="51.000029"><ele>80.8</ele><time>2022-06-12T07:17:27.000Z</time></trkpt><trkpt lon="6.069279" lat="50.999979"><ele>81</ele><time>2022-06-12T07:17:28.000Z</time></trkpt><trkpt lon="6.069347" lat="50.999935"><ele>81</ele><time>2022-06-12T07:17:29.000Z</time></trkpt><trkpt lon="6.069421" lat="50.999883"><ele>81.2</ele><time>2022-06-12T07:17:30.000Z</time></trkpt><trkpt lon="6.069491" lat="50.999837"><ele>81.4</ele><time>2022-06-12T07:17:31.000Z</time></trkpt><trkpt lon="6.069561" lat="50.999792"><ele>81.6</ele><time>2022-06-12T07:17:32.000Z</time></trkpt><trkpt lon="6.069633" lat="50.999746"><ele>81.6</ele><time>2022-06-12T07:17:33.000Z</time></trkpt><trkpt lon="6.069707" lat="50.999696"><ele>81.8</ele><time>2022-06-12T07:17:34.000Z</time></trkpt><trkpt lon="6.069776" lat="50.999652"><ele>81.8</ele><time>2022-06-12T07:17:35.000Z</time></trkpt><trkpt lon="6.069851" lat="50.999605"><ele>81.8</ele><time>2022-06-12T07:17:36.000Z</time></trkpt><trkpt lon="6.069926" lat="50.999555"><ele>82</ele><time>2022-06-12T07:17:37.000Z</time></trkpt><trkpt lon="6.069997" lat="50.999506"><ele>82</ele><time>2022-06-12T07:17:38.000Z</time></trkpt><trkpt lon="6.070067" lat="50.999458"><ele>82.2</ele><time>2022-06-12T07:17:39.000Z</time></trkpt><trkpt lon="6.07014" lat="50.999411"><ele>82.2</ele><time>2022-06-12T07:17:40.000Z</time></trkpt><trkpt lon="6.07021" lat="50.999365"><ele>82.4</ele><time>2022-06-12T07:17:41.000Z</time></trkpt><trkpt lon="6.070281" lat="50.999315"><ele>82.4</ele><time>2022-06-12T07:17:42.000Z</time></trkpt><trkpt lon="6.070352" lat="50.99927"><ele>82.6</ele><time>2022-06-12T07:17:43.000Z</time></trkpt><trkpt lon="6.070424" lat="50.999223"><ele>82.6</ele><time>2022-06-12T07:17:44.000Z</time></trkpt><trkpt lon="6.070498" lat="50.999177"><ele>82.8</ele><time>2022-06-12T07:17:45.000Z</time></trkpt><trkpt lon="6.070568" lat="50.99913"><ele>82.8</ele><time>2022-06-12T07:17:46.000Z</time></trkpt><trkpt lon="6.070648" lat="50.999078"><ele>82.8</ele><time>2022-06-12T07:17:47.000Z</time></trkpt><trkpt lon="6.070726" lat="50.999032"><ele>83</ele><time>2022-06-12T07:17:48.000Z</time></trkpt><trkpt lon="6.070802" lat="50.998983"><ele>83</ele><time>2022-06-12T07:17:49.000Z</time></trkpt><trkpt lon="6.070864" lat="50.998943"><ele>83</ele><time>2022-06-12T07:17:50.000Z</time></trkpt><trkpt lon="6.070951" lat="50.998884"><ele>83</ele><time>2022-06-12T07:17:51.000Z</time></trkpt><trkpt lon="6.07102" lat="50.998835"><ele>83.2</ele><time>2022-06-12T07:17:52.000Z</time></trkpt><trkpt lon="6.071085" lat="50.998778"><ele>83.2</ele><time>2022-06-12T07:17:53.000Z</time></trkpt><trkpt lon="6.071137" lat="50.998721"><ele>83</ele><time>2022-06-12T07:17:54.000Z</time></trkpt><trkpt lon="6.071179" lat="50.998652"><ele>83.2</ele><time>2022-06-12T07:17:55.000Z</time></trkpt><trkpt lon="6.071206" lat="50.998578"><ele>83.2</ele><time>2022-06-12T07:17:56.000Z</time></trkpt><trkpt lon="6.071219" lat="50.998507"><ele>83.2</ele><time>2022-06-12T07:17:57.000Z</time></trkpt><trkpt lon="6.071222" lat="50.998435"><ele>83.2</ele><time>2022-06-12T07:17:58.000Z</time></trkpt><trkpt lon="6.071217" lat="50.998362"><ele>83</ele><time>2022-06-12T07:17:59.000Z</time></trkpt><trkpt lon="6.071212" lat="50.998286"><ele>83</ele><time>2022-06-12T07:18:00.000Z</time></trkpt><trkpt lon="6.071205" lat="50.998217"><ele>83</ele><time>2022-06-12T07:18:01.000Z</time></trkpt><trkpt lon="6.071199" lat="50.998145"><ele>82.8</ele><time>2022-06-12T07:18:02.000Z</time></trkpt><trkpt lon="6.071195" lat="50.998076"><ele>83</ele><time>2022-06-12T07:18:03.000Z</time></trkpt><trkpt lon="6.07119" lat="50.99801"><ele>83</ele><time>2022-06-12T07:18:04.000Z</time></trkpt><trkpt lon="6.071185" lat="50.997946"><ele>83</ele><time>2022-06-12T07:18:05.000Z</time></trkpt><trkpt lon="6.071182" lat="50.997882"><ele>83</ele><time>2022-06-12T07:18:06.000Z</time></trkpt><trkpt lon="6.071175" lat="50.997817"><ele>83</ele><time>2022-06-12T07:18:07.000Z</time></trkpt><trkpt lon="6.071169" lat="50.99775"><ele>83.2</ele><time>2022-06-12T07:18:08.000Z</time></trkpt><trkpt lon="6.071162" lat="50.997684"><ele>83.2</ele><time>2022-06-12T07:18:09.000Z</time></trkpt><trkpt lon="6.071157" lat="50.997614"><ele>83.2</ele><time>2022-06-12T07:18:10.000Z</time></trkpt><trkpt lon="6.071153" lat="50.997545"><ele>83.2</ele><time>2022-06-12T07:18:11.000Z</time></trkpt><trkpt lon="6.07115" lat="50.997481"><ele>83.2</ele><time>2022-06-12T07:18:12.000Z</time></trkpt><trkpt lon="6.071147" lat="50.997413"><ele>83</ele><time>2022-06-12T07:18:13.000Z</time></trkpt><trkpt lon="6.071148" lat="50.997348"><ele>83.2</ele><time>2022-06-12T07:18:14.000Z</time></trkpt><trkpt lon="6.071148" lat="50.997282"><ele>83.2</ele><time>2022-06-12T07:18:15.000Z</time></trkpt><trkpt lon="6.07115" lat="50.997221"><ele>83.2</ele><time>2022-06-12T07:18:16.000Z</time></trkpt><trkpt lon="6.071152" lat="50.997157"><ele>83.2</ele><time>2022-06-12T07:18:17.000Z</time></trkpt><trkpt lon="6.071152" lat="50.997093"><ele>83.2</ele><time>2022-06-12T07:18:18.000Z</time></trkpt><trkpt lon="6.071153" lat="50.997027"><ele>83.2</ele><time>2022-06-12T07:18:19.000Z</time></trkpt><trkpt lon="6.071155" lat="50.996958"><ele>83.2</ele><time>2022-06-12T07:18:20.000Z</time></trkpt><trkpt lon="6.071156" lat="50.996889"><ele>83.2</ele><time>2022-06-12T07:18:21.000Z</time></trkpt><trkpt lon="6.071155" lat="50.996821"><ele>83</ele><time>2022-06-12T07:18:22.000Z</time></trkpt><trkpt lon="6.071156" lat="50.996753"><ele>83</ele><time>2022-06-12T07:18:23.000Z</time></trkpt><trkpt lon="6.071156" lat="50.996685"><ele>83</ele><time>2022-06-12T07:18:24.000Z</time></trkpt><trkpt lon="6.071158" lat="50.996616"><ele>83</ele><time>2022-06-12T07:18:25.000Z</time></trkpt><trkpt lon="6.071155" lat="50.996548"><ele>83</ele><time>2022-06-12T07:18:26.000Z</time></trkpt><trkpt lon="6.07115" lat="50.996478"><ele>83</ele><time>2022-06-12T07:18:27.000Z</time></trkpt><trkpt lon="6.071147" lat="50.996408"><ele>83.2</ele><time>2022-06-12T07:18:28.000Z</time></trkpt><trkpt lon="6.071146" lat="50.99634"><ele>83.2</ele><time>2022-06-12T07:18:29.000Z</time></trkpt><trkpt lon="6.07115" lat="50.996271"><ele>83.2</ele><time>2022-06-12T07:18:30.000Z</time></trkpt><trkpt lon="6.071145" lat="50.996203"><ele>83.4</ele><time>2022-06-12T07:18:31.000Z</time></trkpt><trkpt lon="6.071143" lat="50.996135"><ele>83.4</ele><time>2022-06-12T07:18:32.000Z</time></trkpt><trkpt lon="6.071139" lat="50.996058"><ele>83.4</ele><time>2022-06-12T07:18:33.000Z</time></trkpt><trkpt lon="6.071138" lat="50.995988"><ele>83.6</ele><time>2022-06-12T07:18:34.000Z</time></trkpt><trkpt lon="6.07114" lat="50.995917"><ele>83.6</ele><time>2022-06-12T07:18:35.000Z</time></trkpt><trkpt lon="6.07114" lat="50.995844"><ele>83.6</ele><time>2022-06-12T07:18:36.000Z</time></trkpt><trkpt lon="6.071138" lat="50.995772"><ele>83.6</ele><time>2022-06-12T07:18:37.000Z</time></trkpt><trkpt lon="6.07114" lat="50.995697"><ele>83.4</ele><time>2022-06-12T07:18:38.000Z</time></trkpt><trkpt lon="6.071142" lat="50.995622"><ele>83.2</ele><time>2022-06-12T07:18:39.000Z</time></trkpt><trkpt lon="6.071142" lat="50.995544"><ele>83.2</ele><time>2022-06-12T07:18:40.000Z</time></trkpt><trkpt lon="6.071143" lat="50.995473"><ele>83</ele><time>2022-06-12T07:18:41.000Z</time></trkpt><trkpt lon="6.071145" lat="50.99539"><ele>82.8</ele><time>2022-06-12T07:18:42.000Z</time></trkpt><trkpt lon="6.071145" lat="50.99531"><ele>82.6</ele><time>2022-06-12T07:18:43.000Z</time></trkpt><trkpt lon="6.071144" lat="50.995247"><ele>82.4</ele><time>2022-06-12T07:18:44.000Z</time></trkpt><trkpt lon="6.071142" lat="50.995154"><ele>82</ele><time>2022-06-12T07:18:45.000Z</time></trkpt><trkpt lon="6.071137" lat="50.995071"><ele>81.8</ele><time>2022-06-12T07:18:46.000Z</time></trkpt><trkpt lon="6.07113" lat="50.994987"><ele>81.4</ele><time>2022-06-12T07:18:47.000Z</time></trkpt><trkpt lon="6.071125" lat="50.994902"><ele>81</ele><time>2022-06-12T07:18:48.000Z</time></trkpt><trkpt lon="6.071123" lat="50.994815"><ele>80.6</ele><time>2022-06-12T07:18:49.000Z</time></trkpt><trkpt lon="6.07112" lat="50.994734"><ele>80.2</ele><time>2022-06-12T07:18:50.000Z</time></trkpt><trkpt lon="6.071114" lat="50.99465"><ele>79.8</ele><time>2022-06-12T07:18:51.000Z</time></trkpt><trkpt lon="6.071105" lat="50.99456"><ele>79.4</ele><time>2022-06-12T07:18:52.000Z</time></trkpt><trkpt lon="6.071095" lat="50.994476"><ele>79</ele><time>2022-06-12T07:18:53.000Z</time></trkpt><trkpt lon="6.071082" lat="50.994389"><ele>78.6</ele><time>2022-06-12T07:18:54.000Z</time></trkpt><trkpt lon="6.071069" lat="50.9943"><ele>78.2</ele><time>2022-06-12T07:18:55.000Z</time></trkpt><trkpt lon="6.071054" lat="50.994216"><ele>78</ele><time>2022-06-12T07:18:56.000Z</time></trkpt><trkpt lon="6.071041" lat="50.994132"><ele>77.8</ele><time>2022-06-12T07:18:57.000Z</time></trkpt><trkpt lon="6.07103" lat="50.994047"><ele>77.6</ele><time>2022-06-12T07:18:58.000Z</time></trkpt><trkpt lon="6.071022" lat="50.993963"><ele>77.2</ele><time>2022-06-12T07:18:59.000Z</time></trkpt><trkpt lon="6.071017" lat="50.993887"><ele>77.2</ele><time>2022-06-12T07:19:00.000Z</time></trkpt><trkpt lon="6.071018" lat="50.993807"><ele>77.2</ele><time>2022-06-12T07:19:01.000Z</time></trkpt><trkpt lon="6.071025" lat="50.993729"><ele>77</ele><time>2022-06-12T07:19:02.000Z</time></trkpt><trkpt lon="6.07104" lat="50.993651"><ele>77</ele><time>2022-06-12T07:19:03.000Z</time></trkpt><trkpt lon="6.071058" lat="50.993571"><ele>77.2</ele><time>2022-06-12T07:19:04.000Z</time></trkpt><trkpt lon="6.071079" lat="50.993497"><ele>77.4</ele><time>2022-06-12T07:19:05.000Z</time></trkpt><trkpt lon="6.0711" lat="50.99342"><ele>77.6</ele><time>2022-06-12T07:19:06.000Z</time></trkpt><trkpt lon="6.07111" lat="50.993334"><ele>77.8</ele><time>2022-06-12T07:19:07.000Z</time></trkpt><trkpt lon="6.071115" lat="50.993258"><ele>77.8</ele><time>2022-06-12T07:19:08.000Z</time></trkpt><trkpt lon="6.071113" lat="50.993186"><ele>78</ele><time>2022-06-12T07:19:09.000Z</time></trkpt><trkpt lon="6.071103" lat="50.993121"><ele>78</ele><time>2022-06-12T07:19:10.000Z</time></trkpt><trkpt lon="6.071087" lat="50.993051"><ele>78.2</ele><time>2022-06-12T07:19:11.000Z</time></trkpt><trkpt lon="6.071054" lat="50.992983"><ele>78.4</ele><time>2022-06-12T07:19:12.000Z</time></trkpt><trkpt lon="6.071008" lat="50.992922"><ele>78.6</ele><time>2022-06-12T07:19:13.000Z</time></trkpt><trkpt lon="6.070958" lat="50.992861"><ele>78.8</ele><time>2022-06-12T07:19:14.000Z</time></trkpt><trkpt lon="6.070904" lat="50.992804"><ele>79</ele><time>2022-06-12T07:19:15.000Z</time></trkpt><trkpt lon="6.070853" lat="50.992748"><ele>79.2</ele><time>2022-06-12T07:19:16.000Z</time></trkpt><trkpt lon="6.070803" lat="50.992682"><ele>79.2</ele><time>2022-06-12T07:19:17.000Z</time></trkpt><trkpt lon="6.070764" lat="50.992617"><ele>79.4</ele><time>2022-06-12T07:19:18.000Z</time></trkpt><trkpt lon="6.070725" lat="50.992552"><ele>79.4</ele><time>2022-06-12T07:19:19.000Z</time></trkpt><trkpt lon="6.070688" lat="50.992486"><ele>79.4</ele><time>2022-06-12T07:19:20.000Z</time></trkpt><trkpt lon="6.070655" lat="50.992422"><ele>79.4</ele><time>2022-06-12T07:19:21.000Z</time></trkpt><trkpt lon="6.070626" lat="50.992353"><ele>79.4</ele><time>2022-06-12T07:19:22.000Z</time></trkpt><trkpt lon="6.070595" lat="50.992287"><ele>79.4</ele><time>2022-06-12T07:19:23.000Z</time></trkpt><trkpt lon="6.070575" lat="50.992215"><ele>79.4</ele><time>2022-06-12T07:19:24.000Z</time></trkpt><trkpt lon="6.070549" lat="50.99214"><ele>79.6</ele><time>2022-06-12T07:19:25.000Z</time></trkpt><trkpt lon="6.070526" lat="50.992068"><ele>79.6</ele><time>2022-06-12T07:19:26.000Z</time></trkpt><trkpt lon="6.070508" lat="50.991997"><ele>79.6</ele><time>2022-06-12T07:19:27.000Z</time></trkpt><trkpt lon="6.07048" lat="50.99192"><ele>79.6</ele><time>2022-06-12T07:19:28.000Z</time></trkpt><trkpt lon="6.070454" lat="50.991847"><ele>79.6</ele><time>2022-06-12T07:19:29.000Z</time></trkpt><trkpt lon="6.070429" lat="50.991785"><ele>79.6</ele><time>2022-06-12T07:19:30.000Z</time></trkpt><trkpt lon="6.070398" lat="50.991724"><ele>79.6</ele><time>2022-06-12T07:19:31.000Z</time></trkpt><trkpt lon="6.070369" lat="50.991667"><ele>79.6</ele><time>2022-06-12T07:19:32.000Z</time></trkpt><trkpt lon="6.070344" lat="50.991606"><ele>79.4</ele><time>2022-06-12T07:19:33.000Z</time></trkpt><trkpt lon="6.070312" lat="50.99154"><ele>79.4</ele><time>2022-06-12T07:19:34.000Z</time></trkpt><trkpt lon="6.070286" lat="50.991472"><ele>79.2</ele><time>2022-06-12T07:19:35.000Z</time></trkpt><trkpt lon="6.070271" lat="50.991405"><ele>79.2</ele><time>2022-06-12T07:19:36.000Z</time></trkpt><trkpt lon="6.070251" lat="50.991333"><ele>79</ele><time>2022-06-12T07:19:37.000Z</time></trkpt><trkpt lon="6.070238" lat="50.991255"><ele>78.8</ele><time>2022-06-12T07:19:38.000Z</time></trkpt><trkpt lon="6.070235" lat="50.991186"><ele>78.6</ele><time>2022-06-12T07:19:39.000Z</time></trkpt><trkpt lon="6.070243" lat="50.991115"><ele>78.4</ele><time>2022-06-12T07:19:40.000Z</time></trkpt><trkpt lon="6.070264" lat="50.991038"><ele>78.2</ele><time>2022-06-12T07:19:41.000Z</time></trkpt><trkpt lon="6.070299" lat="50.990957"><ele>78</ele><time>2022-06-12T07:19:42.000Z</time></trkpt><trkpt lon="6.070339" lat="50.990878"><ele>78</ele><time>2022-06-12T07:19:43.000Z</time></trkpt><trkpt lon="6.07038" lat="50.99081"><ele>77.8</ele><time>2022-06-12T07:19:44.000Z</time></trkpt><trkpt lon="6.070423" lat="50.990742"><ele>77.8</ele><time>2022-06-12T07:19:45.000Z</time></trkpt><trkpt lon="6.070474" lat="50.990664"><ele>77.8</ele><time>2022-06-12T07:19:46.000Z</time></trkpt><trkpt lon="6.070528" lat="50.990591"><ele>77.8</ele><time>2022-06-12T07:19:47.000Z</time></trkpt><trkpt lon="6.07058" lat="50.990514"><ele>77.8</ele><time>2022-06-12T07:19:48.000Z</time></trkpt><trkpt lon="6.07063" lat="50.990438"><ele>77.8</ele><time>2022-06-12T07:19:49.000Z</time></trkpt><trkpt lon="6.070687" lat="50.990359"><ele>77.6</ele><time>2022-06-12T07:19:50.000Z</time></trkpt><trkpt lon="6.070735" lat="50.990283"><ele>77.8</ele><time>2022-06-12T07:19:51.000Z</time></trkpt><trkpt lon="6.070784" lat="50.990207"><ele>77.8</ele><time>2022-06-12T07:19:52.000Z</time></trkpt><trkpt lon="6.070825" lat="50.990127"><ele>77.8</ele><time>2022-06-12T07:19:53.000Z</time></trkpt><trkpt lon="6.070863" lat="50.990056"><ele>77.8</ele><time>2022-06-12T07:19:54.000Z</time></trkpt><trkpt lon="6.070897" lat="50.989978"><ele>77.8</ele><time>2022-06-12T07:19:55.000Z</time></trkpt><trkpt lon="6.070931" lat="50.989907"><ele>78</ele><time>2022-06-12T07:19:56.000Z</time></trkpt><trkpt lon="6.070967" lat="50.989832"><ele>78</ele><time>2022-06-12T07:19:57.000Z</time></trkpt><trkpt lon="6.070999" lat="50.989757"><ele>78.2</ele><time>2022-06-12T07:19:58.000Z</time></trkpt><trkpt lon="6.071033" lat="50.989689"><ele>78.4</ele><time>2022-06-12T07:19:59.000Z</time></trkpt><trkpt lon="6.071063" lat="50.989611"><ele>78.6</ele><time>2022-06-12T07:20:00.000Z</time></trkpt><trkpt lon="6.071089" lat="50.989542"><ele>78.8</ele><time>2022-06-12T07:20:01.000Z</time></trkpt><trkpt lon="6.071119" lat="50.989473"><ele>79</ele><time>2022-06-12T07:20:02.000Z</time></trkpt><trkpt lon="6.071144" lat="50.989406"><ele>79</ele><time>2022-06-12T07:20:03.000Z</time></trkpt><trkpt lon="6.071174" lat="50.989336"><ele>79.2</ele><time>2022-06-12T07:20:04.000Z</time></trkpt><trkpt lon="6.071205" lat="50.989272"><ele>79.4</ele><time>2022-06-12T07:20:05.000Z</time></trkpt><trkpt lon="6.071235" lat="50.989216"><ele>79.4</ele><time>2022-06-12T07:20:06.000Z</time></trkpt><trkpt lon="6.071266" lat="50.989157"><ele>79.6</ele><time>2022-06-12T07:20:07.000Z</time></trkpt><trkpt lon="6.071296" lat="50.989107"><ele>79.8</ele><time>2022-06-12T07:20:08.000Z</time></trkpt><trkpt lon="6.071324" lat="50.989053"><ele>80</ele><time>2022-06-12T07:20:09.000Z</time></trkpt><trkpt lon="6.07135" lat="50.988998"><ele>80.2</ele><time>2022-06-12T07:20:10.000Z</time></trkpt><trkpt lon="6.071381" lat="50.988948"><ele>80.4</ele><time>2022-06-12T07:20:11.000Z</time></trkpt><trkpt lon="6.071411" lat="50.9889"><ele>80.6</ele><time>2022-06-12T07:20:12.000Z</time></trkpt><trkpt lon="6.071444" lat="50.988852"><ele>80.6</ele><time>2022-06-12T07:20:13.000Z</time></trkpt><trkpt lon="6.071481" lat="50.988803"><ele>80.8</ele><time>2022-06-12T07:20:14.000Z</time></trkpt><trkpt lon="6.071528" lat="50.988749"><ele>81</ele><time>2022-06-12T07:20:15.000Z</time></trkpt><trkpt lon="6.071573" lat="50.988696"><ele>81.2</ele><time>2022-06-12T07:20:16.000Z</time></trkpt><trkpt lon="6.071625" lat="50.988636"><ele>81.4</ele><time>2022-06-12T07:20:17.000Z</time></trkpt><trkpt lon="6.071679" lat="50.988581"><ele>81.6</ele><time>2022-06-12T07:20:18.000Z</time></trkpt><trkpt lon="6.071726" lat="50.988524"><ele>81.6</ele><time>2022-06-12T07:20:19.000Z</time></trkpt><trkpt lon="6.071782" lat="50.988463"><ele>81.8</ele><time>2022-06-12T07:20:20.000Z</time></trkpt><trkpt lon="6.071844" lat="50.988406"><ele>82</ele><time>2022-06-12T07:20:21.000Z</time></trkpt><trkpt lon="6.071915" lat="50.988353"><ele>82</ele><time>2022-06-12T07:20:22.000Z</time></trkpt><trkpt lon="6.071992" lat="50.988295"><ele>82.2</ele><time>2022-06-12T07:20:23.000Z</time></trkpt><trkpt lon="6.072074" lat="50.988249"><ele>82.4</ele><time>2022-06-12T07:20:24.000Z</time></trkpt><trkpt lon="6.072161" lat="50.988207"><ele>82.6</ele><time>2022-06-12T07:20:25.000Z</time></trkpt><trkpt lon="6.072248" lat="50.988161"><ele>82.8</ele><time>2022-06-12T07:20:26.000Z</time></trkpt><trkpt lon="6.072338" lat="50.988119"><ele>83</ele><time>2022-06-12T07:20:27.000Z</time></trkpt><trkpt lon="6.072432" lat="50.988076"><ele>83.2</ele><time>2022-06-12T07:20:28.000Z</time></trkpt><trkpt lon="6.072521" lat="50.98804"><ele>83.2</ele><time>2022-06-12T07:20:29.000Z</time></trkpt><trkpt lon="6.072619" lat="50.988001"><ele>83.4</ele><time>2022-06-12T07:20:30.000Z</time></trkpt><trkpt lon="6.072716" lat="50.987966"><ele>83.6</ele><time>2022-06-12T07:20:31.000Z</time></trkpt><trkpt lon="6.07281" lat="50.987928"><ele>83.6</ele><time>2022-06-12T07:20:32.000Z</time></trkpt><trkpt lon="6.072908" lat="50.98789"><ele>83.6</ele><time>2022-06-12T07:20:33.000Z</time></trkpt><trkpt lon="6.073006" lat="50.987852"><ele>83.8</ele><time>2022-06-12T07:20:34.000Z</time></trkpt><trkpt lon="6.073102" lat="50.987813"><ele>83.8</ele><time>2022-06-12T07:20:35.000Z</time></trkpt><trkpt lon="6.073198" lat="50.987775"><ele>84</ele><time>2022-06-12T07:20:36.000Z</time></trkpt><trkpt lon="6.073292" lat="50.987737"><ele>84</ele><time>2022-06-12T07:20:37.000Z</time></trkpt><trkpt lon="6.07338" lat="50.987697"><ele>84.2</ele><time>2022-06-12T07:20:38.000Z</time></trkpt><trkpt lon="6.073475" lat="50.987657"><ele>84.2</ele><time>2022-06-12T07:20:39.000Z</time></trkpt><trkpt lon="6.073561" lat="50.987619"><ele>84.2</ele><time>2022-06-12T07:20:40.000Z</time></trkpt><trkpt lon="6.073647" lat="50.987577"><ele>84.4</ele><time>2022-06-12T07:20:41.000Z</time></trkpt><trkpt lon="6.073729" lat="50.987535"><ele>84.4</ele><time>2022-06-12T07:20:42.000Z</time></trkpt><trkpt lon="6.07381" lat="50.987489"><ele>84.6</ele><time>2022-06-12T07:20:43.000Z</time></trkpt><trkpt lon="6.073883" lat="50.987445"><ele>84.6</ele><time>2022-06-12T07:20:44.000Z</time></trkpt><trkpt lon="6.07396" lat="50.987402"><ele>84.8</ele><time>2022-06-12T07:20:45.000Z</time></trkpt><trkpt lon="6.07403" lat="50.987357"><ele>84.8</ele><time>2022-06-12T07:20:46.000Z</time></trkpt><trkpt lon="6.074102" lat="50.98731"><ele>84.8</ele><time>2022-06-12T07:20:47.000Z</time></trkpt><trkpt lon="6.074172" lat="50.987261"><ele>84.8</ele><time>2022-06-12T07:20:48.000Z</time></trkpt><trkpt lon="6.074239" lat="50.987215"><ele>85</ele><time>2022-06-12T07:20:49.000Z</time></trkpt><trkpt lon="6.074305" lat="50.987165"><ele>85.2</ele><time>2022-06-12T07:20:50.000Z</time></trkpt><trkpt lon="6.07437" lat="50.987115"><ele>85.2</ele><time>2022-06-12T07:20:51.000Z</time></trkpt><trkpt lon="6.074435" lat="50.987062"><ele>85.4</ele><time>2022-06-12T07:20:52.000Z</time></trkpt><trkpt lon="6.074498" lat="50.987009"><ele>85.4</ele><time>2022-06-12T07:20:53.000Z</time></trkpt><trkpt lon="6.074559" lat="50.986959"><ele>85.4</ele><time>2022-06-12T07:20:54.000Z</time></trkpt><trkpt lon="6.074622" lat="50.986907"><ele>85.6</ele><time>2022-06-12T07:20:55.000Z</time></trkpt><trkpt lon="6.074679" lat="50.986853"><ele>85.6</ele><time>2022-06-12T07:20:56.000Z</time></trkpt><trkpt lon="6.07474" lat="50.986797"><ele>85.6</ele><time>2022-06-12T07:20:57.000Z</time></trkpt><trkpt lon="6.074796" lat="50.986745"><ele>85.6</ele><time>2022-06-12T07:20:58.000Z</time></trkpt><trkpt lon="6.074855" lat="50.986688"><ele>85.6</ele><time>2022-06-12T07:20:59.000Z</time></trkpt><trkpt lon="6.074918" lat="50.986631"><ele>85.8</ele><time>2022-06-12T07:21:00.000Z</time></trkpt><trkpt lon="6.074977" lat="50.986574"><ele>85.8</ele><time>2022-06-12T07:21:01.000Z</time></trkpt><trkpt lon="6.075035" lat="50.986521"><ele>85.8</ele><time>2022-06-12T07:21:02.000Z</time></trkpt><trkpt lon="6.075093" lat="50.986467"><ele>85.8</ele><time>2022-06-12T07:21:03.000Z</time></trkpt><trkpt lon="6.075153" lat="50.986417"><ele>86</ele><time>2022-06-12T07:21:04.000Z</time></trkpt><trkpt lon="6.075213" lat="50.986368"><ele>86.2</ele><time>2022-06-12T07:21:05.000Z</time></trkpt><trkpt lon="6.075269" lat="50.986315"><ele>86.4</ele><time>2022-06-12T07:21:06.000Z</time></trkpt><trkpt lon="6.075324" lat="50.986265"><ele>86.4</ele><time>2022-06-12T07:21:07.000Z</time></trkpt><trkpt lon="6.075382" lat="50.986213"><ele>86.6</ele><time>2022-06-12T07:21:08.000Z</time></trkpt><trkpt lon="6.075441" lat="50.986159"><ele>86.8</ele><time>2022-06-12T07:21:09.000Z</time></trkpt><trkpt lon="6.075501" lat="50.986109"><ele>86.8</ele><time>2022-06-12T07:21:10.000Z</time></trkpt><trkpt lon="6.075561" lat="50.986055"><ele>86.8</ele><time>2022-06-12T07:21:11.000Z</time></trkpt><trkpt lon="6.075622" lat="50.986002"><ele>87</ele><time>2022-06-12T07:21:12.000Z</time></trkpt><trkpt lon="6.075681" lat="50.985952"><ele>87</ele><time>2022-06-12T07:21:13.000Z</time></trkpt><trkpt lon="6.075742" lat="50.9859"><ele>87.2</ele><time>2022-06-12T07:21:14.000Z</time></trkpt><trkpt lon="6.075803" lat="50.985846"><ele>87.2</ele><time>2022-06-12T07:21:15.000Z</time></trkpt><trkpt lon="6.075861" lat="50.985793"><ele>87.2</ele><time>2022-06-12T07:21:16.000Z</time></trkpt><trkpt lon="6.07592" lat="50.985735"><ele>87.4</ele><time>2022-06-12T07:21:17.000Z</time></trkpt><trkpt lon="6.075975" lat="50.985678"><ele>87.4</ele><time>2022-06-12T07:21:18.000Z</time></trkpt><trkpt lon="6.076027" lat="50.985618"><ele>87.4</ele><time>2022-06-12T07:21:19.000Z</time></trkpt><trkpt lon="6.076078" lat="50.985559"><ele>87.4</ele><time>2022-06-12T07:21:20.000Z</time></trkpt><trkpt lon="6.076124" lat="50.985498"><ele>87.4</ele><time>2022-06-12T07:21:21.000Z</time></trkpt><trkpt lon="6.076155" lat="50.985432"><ele>87.4</ele><time>2022-06-12T07:21:22.000Z</time></trkpt><trkpt lon="6.076178" lat="50.985365"><ele>87.4</ele><time>2022-06-12T07:21:23.000Z</time></trkpt><trkpt lon="6.076185" lat="50.985294"><ele>87.4</ele><time>2022-06-12T07:21:24.000Z</time></trkpt><trkpt lon="6.076177" lat="50.985226"><ele>87.2</ele><time>2022-06-12T07:21:25.000Z</time></trkpt><trkpt lon="6.076158" lat="50.985154"><ele>87</ele><time>2022-06-12T07:21:26.000Z</time></trkpt><trkpt lon="6.076134" lat="50.98508"><ele>86.6</ele><time>2022-06-12T07:21:27.000Z</time></trkpt><trkpt lon="6.07611" lat="50.985011"><ele>86.4</ele><time>2022-06-12T07:21:28.000Z</time></trkpt><trkpt lon="6.076084" lat="50.984943"><ele>86.2</ele><time>2022-06-12T07:21:29.000Z</time></trkpt><trkpt lon="6.076061" lat="50.984871"><ele>86</ele><time>2022-06-12T07:21:30.000Z</time></trkpt><trkpt lon="6.07604" lat="50.984802"><ele>85.8</ele><time>2022-06-12T07:21:31.000Z</time></trkpt><trkpt lon="6.076025" lat="50.984736"><ele>85.8</ele><time>2022-06-12T07:21:32.000Z</time></trkpt><trkpt lon="6.076017" lat="50.98466"><ele>85.8</ele><time>2022-06-12T07:21:33.000Z</time></trkpt><trkpt lon="6.076017" lat="50.984593"><ele>85.8</ele><time>2022-06-12T07:21:34.000Z</time></trkpt><trkpt lon="6.076021" lat="50.984523"><ele>85.8</ele><time>2022-06-12T07:21:35.000Z</time></trkpt><trkpt lon="6.076031" lat="50.984455"><ele>85.6</ele><time>2022-06-12T07:21:36.000Z</time></trkpt><trkpt lon="6.076043" lat="50.984385"><ele>85.6</ele><time>2022-06-12T07:21:37.000Z</time></trkpt><trkpt lon="6.076056" lat="50.984317"><ele>85.6</ele><time>2022-06-12T07:21:38.000Z</time></trkpt><trkpt lon="6.076071" lat="50.984249"><ele>85.8</ele><time>2022-06-12T07:21:39.000Z</time></trkpt><trkpt lon="6.076085" lat="50.984185"><ele>85.8</ele><time>2022-06-12T07:21:40.000Z</time></trkpt><trkpt lon="6.076102" lat="50.984116"><ele>86</ele><time>2022-06-12T07:21:41.000Z</time></trkpt><trkpt lon="6.076119" lat="50.984045"><ele>86</ele><time>2022-06-12T07:21:42.000Z</time></trkpt><trkpt lon="6.076139" lat="50.98398"><ele>86</ele><time>2022-06-12T07:21:43.000Z</time></trkpt><trkpt lon="6.076162" lat="50.983916"><ele>86.2</ele><time>2022-06-12T07:21:44.000Z</time></trkpt><trkpt lon="6.076188" lat="50.983855"><ele>86.2</ele><time>2022-06-12T07:21:45.000Z</time></trkpt><trkpt lon="6.076219" lat="50.983797"><ele>86.2</ele><time>2022-06-12T07:21:46.000Z</time></trkpt><trkpt lon="6.076252" lat="50.983733"><ele>86.2</ele><time>2022-06-12T07:21:47.000Z</time></trkpt><trkpt lon="6.076281" lat="50.983671"><ele>86.2</ele><time>2022-06-12T07:21:48.000Z</time></trkpt><trkpt lon="6.076306" lat="50.983611"><ele>86.4</ele><time>2022-06-12T07:21:49.000Z</time></trkpt><trkpt lon="6.076329" lat="50.983546"><ele>86.4</ele><time>2022-06-12T07:21:50.000Z</time></trkpt><trkpt lon="6.076353" lat="50.983484"><ele>86.4</ele><time>2022-06-12T07:21:51.000Z</time></trkpt><trkpt lon="6.076374" lat="50.983423"><ele>86.4</ele><time>2022-06-12T07:21:52.000Z</time></trkpt><trkpt lon="6.076394" lat="50.983358"><ele>86.4</ele><time>2022-06-12T07:21:53.000Z</time></trkpt><trkpt lon="6.076405" lat="50.983297"><ele>86.4</ele><time>2022-06-12T07:21:54.000Z</time></trkpt><trkpt lon="6.076413" lat="50.98324"><ele>86.4</ele><time>2022-06-12T07:21:55.000Z</time></trkpt><trkpt lon="6.076415" lat="50.983179"><ele>86.4</ele><time>2022-06-12T07:21:56.000Z</time></trkpt><trkpt lon="6.076412" lat="50.983121"><ele>86.4</ele><time>2022-06-12T07:21:57.000Z</time></trkpt><trkpt lon="6.076403" lat="50.983064"><ele>86.6</ele><time>2022-06-12T07:21:58.000Z</time></trkpt><trkpt lon="6.076389" lat="50.982996"><ele>86.6</ele><time>2022-06-12T07:21:59.000Z</time></trkpt><trkpt lon="6.076367" lat="50.982923"><ele>86.6</ele><time>2022-06-12T07:22:00.000Z</time></trkpt><trkpt lon="6.076339" lat="50.982855"><ele>86.4</ele><time>2022-06-12T07:22:01.000Z</time></trkpt><trkpt lon="6.076306" lat="50.98279"><ele>86.4</ele><time>2022-06-12T07:22:02.000Z</time></trkpt><trkpt lon="6.076278" lat="50.982721"><ele>86.4</ele><time>2022-06-12T07:22:03.000Z</time></trkpt><trkpt lon="6.076252" lat="50.982649"><ele>86.2</ele><time>2022-06-12T07:22:04.000Z</time></trkpt><trkpt lon="6.076235" lat="50.982577"><ele>85.8</ele><time>2022-06-12T07:22:05.000Z</time></trkpt><trkpt lon="6.076216" lat="50.982501"><ele>85.4</ele><time>2022-06-12T07:22:06.000Z</time></trkpt><trkpt lon="6.0762" lat="50.982428"><ele>85</ele><time>2022-06-12T07:22:07.000Z</time></trkpt><trkpt lon="6.076183" lat="50.98236"><ele>84.6</ele><time>2022-06-12T07:22:08.000Z</time></trkpt><trkpt lon="6.076163" lat="50.982283"><ele>84.2</ele><time>2022-06-12T07:22:09.000Z</time></trkpt><trkpt lon="6.076147" lat="50.982204"><ele>83.8</ele><time>2022-06-12T07:22:10.000Z</time></trkpt><trkpt lon="6.07613" lat="50.982119"><ele>83.2</ele><time>2022-06-12T07:22:11.000Z</time></trkpt><trkpt lon="6.076112" lat="50.982035"><ele>82.6</ele><time>2022-06-12T07:22:12.000Z</time></trkpt><trkpt lon="6.076094" lat="50.981941"><ele>82.2</ele><time>2022-06-12T07:22:13.000Z</time></trkpt><trkpt lon="6.076077" lat="50.981856"><ele>81.8</ele><time>2022-06-12T07:22:14.000Z</time></trkpt><trkpt lon="6.076064" lat="50.981776"><ele>81.4</ele><time>2022-06-12T07:22:15.000Z</time></trkpt><trkpt lon="6.076049" lat="50.981699"><ele>81</ele><time>2022-06-12T07:22:16.000Z</time></trkpt><trkpt lon="6.076035" lat="50.98163"><ele>80.6</ele><time>2022-06-12T07:22:17.000Z</time></trkpt><trkpt lon="6.076025" lat="50.981566"><ele>80.4</ele><time>2022-06-12T07:22:18.000Z</time></trkpt><trkpt lon="6.076015" lat="50.981505"><ele>80</ele><time>2022-06-12T07:22:19.000Z</time></trkpt><trkpt lon="6.076007" lat="50.981454"><ele>79.6</ele><time>2022-06-12T07:22:20.000Z</time></trkpt><trkpt lon="6.076" lat="50.981409"><ele>79.4</ele><time>2022-06-12T07:22:21.000Z</time></trkpt><trkpt lon="6.075998" lat="50.981374"><ele>79.2</ele><time>2022-06-12T07:22:22.000Z</time></trkpt><trkpt lon="6.075998" lat="50.981343"><ele>79</ele><time>2022-06-12T07:22:23.000Z</time></trkpt><trkpt lon="6.076005" lat="50.981306"><ele>78.8</ele><time>2022-06-12T07:22:24.000Z</time></trkpt><trkpt lon="6.076032" lat="50.981268"><ele>78.6</ele><time>2022-06-12T07:22:25.000Z</time></trkpt><trkpt lon="6.076083" lat="50.981233"><ele>78.2</ele><time>2022-06-12T07:22:26.000Z</time></trkpt><trkpt lon="6.076154" lat="50.981202"><ele>78</ele><time>2022-06-12T07:22:27.000Z</time></trkpt><trkpt lon="6.076234" lat="50.981172"><ele>77.8</ele><time>2022-06-12T07:22:28.000Z</time></trkpt><trkpt lon="6.076321" lat="50.981141"><ele>77.6</ele><time>2022-06-12T07:22:29.000Z</time></trkpt><trkpt lon="6.076411" lat="50.98111"><ele>77.4</ele><time>2022-06-12T07:22:30.000Z</time></trkpt><trkpt lon="6.076501" lat="50.981073"><ele>77.4</ele><time>2022-06-12T07:22:31.000Z</time></trkpt><trkpt lon="6.076585" lat="50.981035"><ele>77.2</ele><time>2022-06-12T07:22:32.000Z</time></trkpt><trkpt lon="6.07667" lat="50.980993"><ele>77</ele><time>2022-06-12T07:22:33.000Z</time></trkpt><trkpt lon="6.076749" lat="50.980947"><ele>76.8</ele><time>2022-06-12T07:22:34.000Z</time></trkpt><trkpt lon="6.076823" lat="50.980894"><ele>76.8</ele><time>2022-06-12T07:22:35.000Z</time></trkpt><trkpt lon="6.076895" lat="50.98084"><ele>76.6</ele><time>2022-06-12T07:22:36.000Z</time></trkpt><trkpt lon="6.076964" lat="50.980787"><ele>76.4</ele><time>2022-06-12T07:22:37.000Z</time></trkpt><trkpt lon="6.077035" lat="50.980731"><ele>76.4</ele><time>2022-06-12T07:22:38.000Z</time></trkpt><trkpt lon="6.077103" lat="50.980669"><ele>76</ele><time>2022-06-12T07:22:39.000Z</time></trkpt><trkpt lon="6.077164" lat="50.980606"><ele>76</ele><time>2022-06-12T07:22:40.000Z</time></trkpt><trkpt lon="6.077225" lat="50.980543"><ele>75.6</ele><time>2022-06-12T07:22:41.000Z</time></trkpt><trkpt lon="6.077282" lat="50.980482"><ele>75.4</ele><time>2022-06-12T07:22:42.000Z</time></trkpt><trkpt lon="6.077337" lat="50.980414"><ele>75</ele><time>2022-06-12T07:22:43.000Z</time></trkpt><trkpt lon="6.07739" lat="50.980349"><ele>74.8</ele><time>2022-06-12T07:22:44.000Z</time></trkpt><trkpt lon="6.077441" lat="50.980284"><ele>74.8</ele><time>2022-06-12T07:22:45.000Z</time></trkpt><trkpt lon="6.07749" lat="50.98022"><ele>74.6</ele><time>2022-06-12T07:22:46.000Z</time></trkpt><trkpt lon="6.07753" lat="50.980158"><ele>74.6</ele><time>2022-06-12T07:22:47.000Z</time></trkpt><trkpt lon="6.077544" lat="50.980094"><ele>74.4</ele><time>2022-06-12T07:22:48.000Z</time></trkpt><trkpt lon="6.077527" lat="50.980036"><ele>74.4</ele><time>2022-06-12T07:22:49.000Z</time></trkpt><trkpt lon="6.077473" lat="50.979993"><ele>74.2</ele><time>2022-06-12T07:22:50.000Z</time></trkpt><trkpt lon="6.077397" lat="50.979966"><ele>74</ele><time>2022-06-12T07:22:51.000Z</time></trkpt><trkpt lon="6.077301" lat="50.979951"><ele>74</ele><time>2022-06-12T07:22:52.000Z</time></trkpt><trkpt lon="6.077192" lat="50.979943"><ele>73.8</ele><time>2022-06-12T07:22:53.000Z</time></trkpt><trkpt lon="6.077077" lat="50.979935"><ele>73.6</ele><time>2022-06-12T07:22:54.000Z</time></trkpt><trkpt lon="6.076962" lat="50.979924"><ele>73.2</ele><time>2022-06-12T07:22:55.000Z</time></trkpt><trkpt lon="6.076848" lat="50.979912"><ele>73</ele><time>2022-06-12T07:22:56.000Z</time></trkpt><trkpt lon="6.076729" lat="50.979901"><ele>72.8</ele><time>2022-06-12T07:22:57.000Z</time></trkpt><trkpt lon="6.076607" lat="50.979893"><ele>72.8</ele><time>2022-06-12T07:22:58.000Z</time></trkpt><trkpt lon="6.076487" lat="50.979885"><ele>73</ele><time>2022-06-12T07:22:59.000Z</time></trkpt><trkpt lon="6.076371" lat="50.979878"><ele>73</ele><time>2022-06-12T07:23:00.000Z</time></trkpt><trkpt lon="6.076255" lat="50.97987"><ele>72.8</ele><time>2022-06-12T07:23:01.000Z</time></trkpt><trkpt lon="6.076143" lat="50.979859"><ele>72.6</ele><time>2022-06-12T07:23:02.000Z</time></trkpt><trkpt lon="6.076029" lat="50.979851"><ele>72.2</ele><time>2022-06-12T07:23:03.000Z</time></trkpt><trkpt lon="6.075916" lat="50.979843"><ele>72.2</ele><time>2022-06-12T07:23:04.000Z</time></trkpt><trkpt lon="6.075805" lat="50.979832"><ele>72.2</ele><time>2022-06-12T07:23:05.000Z</time></trkpt><trkpt lon="6.075689" lat="50.979824"><ele>72.2</ele><time>2022-06-12T07:23:06.000Z</time></trkpt><trkpt lon="6.075575" lat="50.979817"><ele>72</ele><time>2022-06-12T07:23:07.000Z</time></trkpt><trkpt lon="6.075462" lat="50.979813"><ele>71.8</ele><time>2022-06-12T07:23:08.000Z</time></trkpt><trkpt lon="6.07535" lat="50.979809"><ele>71.6</ele><time>2022-06-12T07:23:09.000Z</time></trkpt><trkpt lon="6.075238" lat="50.979805"><ele>71.4</ele><time>2022-06-12T07:23:10.000Z</time></trkpt><trkpt lon="6.075125" lat="50.979805"><ele>71</ele><time>2022-06-12T07:23:11.000Z</time></trkpt><trkpt lon="6.075013" lat="50.979809"><ele>70.6</ele><time>2022-06-12T07:23:12.000Z</time></trkpt><trkpt lon="6.074906" lat="50.979812"><ele>70.4</ele><time>2022-06-12T07:23:13.000Z</time></trkpt><trkpt lon="6.074795" lat="50.97982"><ele>70</ele><time>2022-06-12T07:23:14.000Z</time></trkpt><trkpt lon="6.074687" lat="50.979831"><ele>69.8</ele><time>2022-06-12T07:23:15.000Z</time></trkpt><trkpt lon="6.074584" lat="50.979846"><ele>69.8</ele><time>2022-06-12T07:23:16.000Z</time></trkpt><trkpt lon="6.074472" lat="50.979858"><ele>69.6</ele><time>2022-06-12T07:23:17.000Z</time></trkpt><trkpt lon="6.074371" lat="50.979869"><ele>69.6</ele><time>2022-06-12T07:23:18.000Z</time></trkpt><trkpt lon="6.074266" lat="50.979874"><ele>69.6</ele><time>2022-06-12T07:23:19.000Z</time></trkpt><trkpt lon="6.074164" lat="50.979874"><ele>70</ele><time>2022-06-12T07:23:20.000Z</time></trkpt><trkpt lon="6.074066" lat="50.979859"><ele>70.2</ele><time>2022-06-12T07:23:21.000Z</time></trkpt><trkpt lon="6.073983" lat="50.979825"><ele>70.4</ele><time>2022-06-12T07:23:22.000Z</time></trkpt><trkpt lon="6.073911" lat="50.979769"><ele>70.4</ele><time>2022-06-12T07:23:23.000Z</time></trkpt><trkpt lon="6.07386" lat="50.979709"><ele>70.2</ele><time>2022-06-12T07:23:24.000Z</time></trkpt><trkpt lon="6.073836" lat="50.979643"><ele>70</ele><time>2022-06-12T07:23:25.000Z</time></trkpt><trkpt lon="6.073828" lat="50.979574"><ele>69.8</ele><time>2022-06-12T07:23:26.000Z</time></trkpt><trkpt lon="6.073827" lat="50.979509"><ele>69.8</ele><time>2022-06-12T07:23:27.000Z</time></trkpt><trkpt lon="6.073827" lat="50.979441"><ele>70</ele><time>2022-06-12T07:23:28.000Z</time></trkpt><trkpt lon="6.073831" lat="50.979372"><ele>70</ele><time>2022-06-12T07:23:29.000Z</time></trkpt><trkpt lon="6.073841" lat="50.979304"><ele>69.8</ele><time>2022-06-12T07:23:30.000Z</time></trkpt><trkpt lon="6.073851" lat="50.979239"><ele>69.6</ele><time>2022-06-12T07:23:31.000Z</time></trkpt><trkpt lon="6.073865" lat="50.979173"><ele>69.6</ele><time>2022-06-12T07:23:32.000Z</time></trkpt><trkpt lon="6.073878" lat="50.979105"><ele>69.6</ele><time>2022-06-12T07:23:33.000Z</time></trkpt><trkpt lon="6.073903" lat="50.979033"><ele>69.4</ele><time>2022-06-12T07:23:34.000Z</time></trkpt><trkpt lon="6.073941" lat="50.978968"><ele>69.4</ele><time>2022-06-12T07:23:35.000Z</time></trkpt><trkpt lon="6.073985" lat="50.978903"><ele>69.4</ele><time>2022-06-12T07:23:36.000Z</time></trkpt><trkpt lon="6.074034" lat="50.978842"><ele>69.2</ele><time>2022-06-12T07:23:37.000Z</time></trkpt><trkpt lon="6.074086" lat="50.978781"><ele>69.2</ele><time>2022-06-12T07:23:38.000Z</time></trkpt><trkpt lon="6.074142" lat="50.97872"><ele>69.2</ele><time>2022-06-12T07:23:39.000Z</time></trkpt><trkpt lon="6.074196" lat="50.978663"><ele>69</ele><time>2022-06-12T07:23:40.000Z</time></trkpt><trkpt lon="6.07425" lat="50.978605"><ele>69</ele><time>2022-06-12T07:23:41.000Z</time></trkpt><trkpt lon="6.074305" lat="50.978552"><ele>69</ele><time>2022-06-12T07:23:42.000Z</time></trkpt><trkpt lon="6.07436" lat="50.978495"><ele>69</ele><time>2022-06-12T07:23:43.000Z</time></trkpt><trkpt lon="6.074414" lat="50.978434"><ele>69</ele><time>2022-06-12T07:23:44.000Z</time></trkpt><trkpt lon="6.074464" lat="50.97837"><ele>69</ele><time>2022-06-12T07:23:45.000Z</time></trkpt><trkpt lon="6.074517" lat="50.978308"><ele>69</ele><time>2022-06-12T07:23:46.000Z</time></trkpt><trkpt lon="6.07457" lat="50.97825"><ele>69</ele><time>2022-06-12T07:23:47.000Z</time></trkpt><trkpt lon="6.074621" lat="50.978197"><ele>69</ele><time>2022-06-12T07:23:48.000Z</time></trkpt><trkpt lon="6.074677" lat="50.978143"><ele>69.2</ele><time>2022-06-12T07:23:49.000Z</time></trkpt><trkpt lon="6.074731" lat="50.978093"><ele>69.4</ele><time>2022-06-12T07:23:50.000Z</time></trkpt><trkpt lon="6.074783" lat="50.978041"><ele>69.4</ele><time>2022-06-12T07:23:51.000Z</time></trkpt><trkpt lon="6.074836" lat="50.977991"><ele>69.4</ele><time>2022-06-12T07:23:52.000Z</time></trkpt><trkpt lon="6.074892" lat="50.977938"><ele>69.6</ele><time>2022-06-12T07:23:53.000Z</time></trkpt><trkpt lon="6.074946" lat="50.977888"><ele>69.6</ele><time>2022-06-12T07:23:54.000Z</time></trkpt><trkpt lon="6.075003" lat="50.977838"><ele>69.6</ele><time>2022-06-12T07:23:55.000Z</time></trkpt><trkpt lon="6.075062" lat="50.977784"><ele>69.6</ele><time>2022-06-12T07:23:56.000Z</time></trkpt><trkpt lon="6.075115" lat="50.977731"><ele>69.8</ele><time>2022-06-12T07:23:57.000Z</time></trkpt><trkpt lon="6.075168" lat="50.977678"><ele>70</ele><time>2022-06-12T07:23:58.000Z</time></trkpt><trkpt lon="6.075223" lat="50.977629"><ele>70</ele><time>2022-06-12T07:23:59.000Z</time></trkpt><trkpt lon="6.075279" lat="50.977575"><ele>70.4</ele><time>2022-06-12T07:24:00.000Z</time></trkpt><trkpt lon="6.075337" lat="50.977525"><ele>70.4</ele><time>2022-06-12T07:24:01.000Z</time></trkpt><trkpt lon="6.075396" lat="50.97748"><ele>70.8</ele><time>2022-06-12T07:24:02.000Z</time></trkpt><trkpt lon="6.075459" lat="50.977434"><ele>70.8</ele><time>2022-06-12T07:24:03.000Z</time></trkpt><trkpt lon="6.075522" lat="50.977388"><ele>71</ele><time>2022-06-12T07:24:04.000Z</time></trkpt><trkpt lon="6.075591" lat="50.97735"><ele>71.2</ele><time>2022-06-12T07:24:05.000Z</time></trkpt><trkpt lon="6.075658" lat="50.977308"><ele>71.4</ele><time>2022-06-12T07:24:06.000Z</time></trkpt><trkpt lon="6.075718" lat="50.977262"><ele>71.6</ele><time>2022-06-12T07:24:07.000Z</time></trkpt><trkpt lon="6.075778" lat="50.977216"><ele>71.8</ele><time>2022-06-12T07:24:08.000Z</time></trkpt><trkpt lon="6.075837" lat="50.977171"><ele>72</ele><time>2022-06-12T07:24:09.000Z</time></trkpt><trkpt lon="6.07589" lat="50.977121"><ele>72.2</ele><time>2022-06-12T07:24:10.000Z</time></trkpt><trkpt lon="6.075943" lat="50.977071"><ele>72.4</ele><time>2022-06-12T07:24:11.000Z</time></trkpt><trkpt lon="6.076" lat="50.977018"><ele>72.4</ele><time>2022-06-12T07:24:12.000Z</time></trkpt><trkpt lon="6.076065" lat="50.976964"><ele>72.6</ele><time>2022-06-12T07:24:13.000Z</time></trkpt><trkpt lon="6.076131" lat="50.976915"><ele>72.8</ele><time>2022-06-12T07:24:14.000Z</time></trkpt><trkpt lon="6.076198" lat="50.976862"><ele>73</ele><time>2022-06-12T07:24:15.000Z</time></trkpt><trkpt lon="6.076262" lat="50.976809"><ele>73.2</ele><time>2022-06-12T07:24:16.000Z</time></trkpt><trkpt lon="6.076326" lat="50.976759"><ele>73.4</ele><time>2022-06-12T07:24:17.000Z</time></trkpt><trkpt lon="6.076389" lat="50.976713"><ele>73.4</ele><time>2022-06-12T07:24:18.000Z</time></trkpt><trkpt lon="6.076454" lat="50.976663"><ele>73.6</ele><time>2022-06-12T07:24:19.000Z</time></trkpt><trkpt lon="6.076517" lat="50.976617"><ele>73.8</ele><time>2022-06-12T07:24:20.000Z</time></trkpt><trkpt lon="6.076578" lat="50.976572"><ele>74</ele><time>2022-06-12T07:24:21.000Z</time></trkpt><trkpt lon="6.076639" lat="50.976526"><ele>74.2</ele><time>2022-06-12T07:24:22.000Z</time></trkpt><trkpt lon="6.076701" lat="50.976477"><ele>74.2</ele><time>2022-06-12T07:24:23.000Z</time></trkpt><trkpt lon="6.076763" lat="50.976434"><ele>74.4</ele><time>2022-06-12T07:24:24.000Z</time></trkpt><trkpt lon="6.076825" lat="50.976388"><ele>74.6</ele><time>2022-06-12T07:24:25.000Z</time></trkpt><trkpt lon="6.076886" lat="50.976346"><ele>74.6</ele><time>2022-06-12T07:24:26.000Z</time></trkpt><trkpt lon="6.076947" lat="50.976308"><ele>74.8</ele><time>2022-06-12T07:24:27.000Z</time></trkpt><trkpt lon="6.077004" lat="50.976267"><ele>74.8</ele><time>2022-06-12T07:24:28.000Z</time></trkpt><trkpt lon="6.077063" lat="50.976228"><ele>74.8</ele><time>2022-06-12T07:24:29.000Z</time></trkpt><trkpt lon="6.077117" lat="50.976183"><ele>74.8</ele><time>2022-06-12T07:24:30.000Z</time></trkpt><trkpt lon="6.077168" lat="50.97614"><ele>74.8</ele><time>2022-06-12T07:24:31.000Z</time></trkpt><trkpt lon="6.07722" lat="50.976095"><ele>74.8</ele><time>2022-06-12T07:24:32.000Z</time></trkpt><trkpt lon="6.077275" lat="50.976038"><ele>74.8</ele><time>2022-06-12T07:24:33.000Z</time></trkpt><trkpt lon="6.077329" lat="50.975977"><ele>74.6</ele><time>2022-06-12T07:24:34.000Z</time></trkpt><trkpt lon="6.077384" lat="50.975923"><ele>74.6</ele><time>2022-06-12T07:24:35.000Z</time></trkpt><trkpt lon="6.077435" lat="50.975869"><ele>74.6</ele><time>2022-06-12T07:24:36.000Z</time></trkpt><trkpt lon="6.077485" lat="50.975817"><ele>74.4</ele><time>2022-06-12T07:24:37.000Z</time></trkpt><trkpt lon="6.077535" lat="50.975756"><ele>74.4</ele><time>2022-06-12T07:24:38.000Z</time></trkpt><trkpt lon="6.077585" lat="50.975695"><ele>74.2</ele><time>2022-06-12T07:24:39.000Z</time></trkpt><trkpt lon="6.077634" lat="50.975631"><ele>74.2</ele><time>2022-06-12T07:24:40.000Z</time></trkpt><trkpt lon="6.077681" lat="50.975566"><ele>74</ele><time>2022-06-12T07:24:41.000Z</time></trkpt><trkpt lon="6.077727" lat="50.9755"><ele>74</ele><time>2022-06-12T07:24:42.000Z</time></trkpt><trkpt lon="6.077775" lat="50.975439"><ele>73.8</ele><time>2022-06-12T07:24:43.000Z</time></trkpt><trkpt lon="6.077826" lat="50.975375"><ele>73.6</ele><time>2022-06-12T07:24:44.000Z</time></trkpt><trkpt lon="6.077875" lat="50.97531"><ele>73.4</ele><time>2022-06-12T07:24:45.000Z</time></trkpt><trkpt lon="6.077922" lat="50.975241"><ele>73.2</ele><time>2022-06-12T07:24:46.000Z</time></trkpt><trkpt lon="6.07797" lat="50.975176"><ele>73.2</ele><time>2022-06-12T07:24:47.000Z</time></trkpt><trkpt lon="6.07802" lat="50.975112"><ele>73</ele><time>2022-06-12T07:24:48.000Z</time></trkpt><trkpt lon="6.078069" lat="50.975043"><ele>73</ele><time>2022-06-12T07:24:49.000Z</time></trkpt><trkpt lon="6.07812" lat="50.974978"><ele>72.8</ele><time>2022-06-12T07:24:50.000Z</time></trkpt><trkpt lon="6.078172" lat="50.974909"><ele>72.8</ele><time>2022-06-12T07:24:51.000Z</time></trkpt><trkpt lon="6.078222" lat="50.974844"><ele>72.6</ele><time>2022-06-12T07:24:52.000Z</time></trkpt><trkpt lon="6.078273" lat="50.974776"><ele>72.6</ele><time>2022-06-12T07:24:53.000Z</time></trkpt><trkpt lon="6.078328" lat="50.974711"><ele>72.4</ele><time>2022-06-12T07:24:54.000Z</time></trkpt><trkpt lon="6.078382" lat="50.974646"><ele>72.4</ele><time>2022-06-12T07:24:55.000Z</time></trkpt><trkpt lon="6.078431" lat="50.974585"><ele>72.4</ele><time>2022-06-12T07:24:56.000Z</time></trkpt><trkpt lon="6.078481" lat="50.97452"><ele>72.2</ele><time>2022-06-12T07:24:57.000Z</time></trkpt><trkpt lon="6.078532" lat="50.974455"><ele>72.2</ele><time>2022-06-12T07:24:58.000Z</time></trkpt><trkpt lon="6.078582" lat="50.974397"><ele>72.2</ele><time>2022-06-12T07:24:59.000Z</time></trkpt><trkpt lon="6.078632" lat="50.97434"><ele>72</ele><time>2022-06-12T07:25:00.000Z</time></trkpt><trkpt lon="6.078678" lat="50.97428"><ele>72</ele><time>2022-06-12T07:25:01.000Z</time></trkpt><trkpt lon="6.078723" lat="50.974211"><ele>72</ele><time>2022-06-12T07:25:02.000Z</time></trkpt><trkpt lon="6.078767" lat="50.974146"><ele>72</ele><time>2022-06-12T07:25:03.000Z</time></trkpt><trkpt lon="6.07881" lat="50.974078"><ele>71.8</ele><time>2022-06-12T07:25:04.000Z</time></trkpt><trkpt lon="6.07885" lat="50.974013"><ele>71.8</ele><time>2022-06-12T07:25:05.000Z</time></trkpt><trkpt lon="6.078889" lat="50.973947"><ele>71.8</ele><time>2022-06-12T07:25:06.000Z</time></trkpt><trkpt lon="6.078925" lat="50.973887"><ele>71.8</ele><time>2022-06-12T07:25:07.000Z</time></trkpt><trkpt lon="6.078957" lat="50.973818"><ele>71.8</ele><time>2022-06-12T07:25:08.000Z</time></trkpt><trkpt lon="6.078988" lat="50.973753"><ele>71.8</ele><time>2022-06-12T07:25:09.000Z</time></trkpt><trkpt lon="6.07902" lat="50.973685"><ele>71.8</ele><time>2022-06-12T07:25:10.000Z</time></trkpt><trkpt lon="6.079049" lat="50.973619"><ele>72</ele><time>2022-06-12T07:25:11.000Z</time></trkpt><trkpt lon="6.079071" lat="50.973555"><ele>72</ele><time>2022-06-12T07:25:12.000Z</time></trkpt><trkpt lon="6.079086" lat="50.973482"><ele>72</ele><time>2022-06-12T07:25:13.000Z</time></trkpt><trkpt lon="6.0791" lat="50.973414"><ele>72.2</ele><time>2022-06-12T07:25:14.000Z</time></trkpt><trkpt lon="6.079108" lat="50.973345"><ele>72.2</ele><time>2022-06-12T07:25:15.000Z</time></trkpt><trkpt lon="6.079113" lat="50.97328"><ele>72.4</ele><time>2022-06-12T07:25:16.000Z</time></trkpt><trkpt lon="6.07911" lat="50.973212"><ele>72.4</ele><time>2022-06-12T07:25:17.000Z</time></trkpt><trkpt lon="6.079118" lat="50.973143"><ele>72.4</ele><time>2022-06-12T07:25:18.000Z</time></trkpt><trkpt lon="6.079125" lat="50.973082"><ele>72.4</ele><time>2022-06-12T07:25:19.000Z</time></trkpt><trkpt lon="6.079128" lat="50.973016"><ele>72.4</ele><time>2022-06-12T07:25:20.000Z</time></trkpt><trkpt lon="6.079127" lat="50.972952"><ele>72.4</ele><time>2022-06-12T07:25:21.000Z</time></trkpt><trkpt lon="6.079133" lat="50.972887"><ele>72.2</ele><time>2022-06-12T07:25:22.000Z</time></trkpt><trkpt lon="6.079137" lat="50.972826"><ele>72.4</ele><time>2022-06-12T07:25:23.000Z</time></trkpt><trkpt lon="6.07913" lat="50.972761"><ele>72.4</ele><time>2022-06-12T07:25:24.000Z</time></trkpt><trkpt lon="6.079111" lat="50.9727"><ele>72.4</ele><time>2022-06-12T07:25:25.000Z</time></trkpt><trkpt lon="6.079079" lat="50.972635"><ele>72.4</ele><time>2022-06-12T07:25:26.000Z</time></trkpt><trkpt lon="6.079055" lat="50.972578"><ele>72.4</ele><time>2022-06-12T07:25:27.000Z</time></trkpt><trkpt lon="6.079026" lat="50.972513"><ele>72.6</ele><time>2022-06-12T07:25:28.000Z</time></trkpt><trkpt lon="6.079" lat="50.972446"><ele>72.6</ele><time>2022-06-12T07:25:29.000Z</time></trkpt><trkpt lon="6.078974" lat="50.972378"><ele>72.6</ele><time>2022-06-12T07:25:30.000Z</time></trkpt><trkpt lon="6.078944" lat="50.972307"><ele>73</ele><time>2022-06-12T07:25:31.000Z</time></trkpt><trkpt lon="6.07891" lat="50.972236"><ele>73.4</ele><time>2022-06-12T07:25:32.000Z</time></trkpt><trkpt lon="6.07886" lat="50.97217"><ele>73.6</ele><time>2022-06-12T07:25:33.000Z</time></trkpt><trkpt lon="6.078808" lat="50.972105"><ele>73.8</ele><time>2022-06-12T07:25:34.000Z</time></trkpt><trkpt lon="6.078748" lat="50.972036"><ele>74</ele><time>2022-06-12T07:25:35.000Z</time></trkpt><trkpt lon="6.078698" lat="50.97197"><ele>73.8</ele><time>2022-06-12T07:25:36.000Z</time></trkpt><trkpt lon="6.078642" lat="50.971899"><ele>73.8</ele><time>2022-06-12T07:25:37.000Z</time></trkpt><trkpt lon="6.078595" lat="50.971831"><ele>74</ele><time>2022-06-12T07:25:38.000Z</time></trkpt><trkpt lon="6.078553" lat="50.971765"><ele>74.2</ele><time>2022-06-12T07:25:39.000Z</time></trkpt><trkpt lon="6.078507" lat="50.971696"><ele>74.2</ele><time>2022-06-12T07:25:40.000Z</time></trkpt><trkpt lon="6.078461" lat="50.971629"><ele>74</ele><time>2022-06-12T07:25:41.000Z</time></trkpt><trkpt lon="6.078412" lat="50.971556"><ele>74</ele><time>2022-06-12T07:25:42.000Z</time></trkpt><trkpt lon="6.07836" lat="50.971488"><ele>74</ele><time>2022-06-12T07:25:43.000Z</time></trkpt><trkpt lon="6.078315" lat="50.971415"><ele>74</ele><time>2022-06-12T07:25:44.000Z</time></trkpt><trkpt lon="6.078273" lat="50.971346"><ele>74</ele><time>2022-06-12T07:25:45.000Z</time></trkpt><trkpt lon="6.078231" lat="50.971278"><ele>74</ele><time>2022-06-12T07:25:46.000Z</time></trkpt><trkpt lon="6.078191" lat="50.971209"><ele>74.2</ele><time>2022-06-12T07:25:47.000Z</time></trkpt><trkpt lon="6.078156" lat="50.97114"><ele>74.2</ele><time>2022-06-12T07:25:48.000Z</time></trkpt><trkpt lon="6.078125" lat="50.971072"><ele>74.4</ele><time>2022-06-12T07:25:49.000Z</time></trkpt><trkpt lon="6.078096" lat="50.970999"><ele>74.6</ele><time>2022-06-12T07:25:50.000Z</time></trkpt><trkpt lon="6.078066" lat="50.97093"><ele>74.8</ele><time>2022-06-12T07:25:51.000Z</time></trkpt><trkpt lon="6.078038" lat="50.970862"><ele>74.8</ele><time>2022-06-12T07:25:52.000Z</time></trkpt><trkpt lon="6.078012" lat="50.970793"><ele>75</ele><time>2022-06-12T07:25:53.000Z</time></trkpt><trkpt lon="6.077984" lat="50.970728"><ele>75</ele><time>2022-06-12T07:25:54.000Z</time></trkpt><trkpt lon="6.077951" lat="50.97066"><ele>75</ele><time>2022-06-12T07:25:55.000Z</time></trkpt><trkpt lon="6.077915" lat="50.970595"><ele>74.8</ele><time>2022-06-12T07:25:56.000Z</time></trkpt><trkpt lon="6.077883" lat="50.97053"><ele>74.8</ele><time>2022-06-12T07:25:57.000Z</time></trkpt><trkpt lon="6.077853" lat="50.970465"><ele>74.8</ele><time>2022-06-12T07:25:58.000Z</time></trkpt><trkpt lon="6.077823" lat="50.970398"><ele>74.8</ele><time>2022-06-12T07:25:59.000Z</time></trkpt><trkpt lon="6.077799" lat="50.970331"><ele>75</ele><time>2022-06-12T07:26:00.000Z</time></trkpt><trkpt lon="6.077774" lat="50.970263"><ele>75.2</ele><time>2022-06-12T07:26:01.000Z</time></trkpt><trkpt lon="6.077751" lat="50.970196"><ele>75.2</ele><time>2022-06-12T07:26:02.000Z</time></trkpt><trkpt lon="6.077729" lat="50.970125"><ele>75</ele><time>2022-06-12T07:26:03.000Z</time></trkpt><trkpt lon="6.077702" lat="50.970057"><ele>75</ele><time>2022-06-12T07:26:04.000Z</time></trkpt><trkpt lon="6.077674" lat="50.969988"><ele>75</ele><time>2022-06-12T07:26:05.000Z</time></trkpt><trkpt lon="6.077641" lat="50.969924"><ele>75.2</ele><time>2022-06-12T07:26:06.000Z</time></trkpt><trkpt lon="6.077604" lat="50.969858"><ele>75.4</ele><time>2022-06-12T07:26:07.000Z</time></trkpt><trkpt lon="6.077573" lat="50.96979"><ele>75.2</ele><time>2022-06-12T07:26:08.000Z</time></trkpt><trkpt lon="6.077544" lat="50.969721"><ele>75</ele><time>2022-06-12T07:26:09.000Z</time></trkpt><trkpt lon="6.077521" lat="50.969649"><ele>75</ele><time>2022-06-12T07:26:10.000Z</time></trkpt><trkpt lon="6.077499" lat="50.969584"><ele>74.8</ele><time>2022-06-12T07:26:11.000Z</time></trkpt><trkpt lon="6.077482" lat="50.969515"><ele>74.8</ele><time>2022-06-12T07:26:12.000Z</time></trkpt><trkpt lon="6.07747" lat="50.969442"><ele>74.8</ele><time>2022-06-12T07:26:13.000Z</time></trkpt><trkpt lon="6.077462" lat="50.969374"><ele>75</ele><time>2022-06-12T07:26:14.000Z</time></trkpt><trkpt lon="6.077463" lat="50.969305"><ele>75.2</ele><time>2022-06-12T07:26:15.000Z</time></trkpt><trkpt lon="6.077465" lat="50.969237"><ele>75.2</ele><time>2022-06-12T07:26:16.000Z</time></trkpt><trkpt lon="6.077468" lat="50.969173"><ele>75.2</ele><time>2022-06-12T07:26:17.000Z</time></trkpt><trkpt lon="6.077475" lat="50.969108"><ele>75.2</ele><time>2022-06-12T07:26:18.000Z</time></trkpt><trkpt lon="6.077493" lat="50.969038"><ele>75.2</ele><time>2022-06-12T07:26:19.000Z</time></trkpt><trkpt lon="6.077515" lat="50.968973"><ele>75.4</ele><time>2022-06-12T07:26:20.000Z</time></trkpt><trkpt lon="6.07754" lat="50.968915"><ele>75.6</ele><time>2022-06-12T07:26:21.000Z</time></trkpt><trkpt lon="6.077567" lat="50.968849"><ele>75.8</ele><time>2022-06-12T07:26:22.000Z</time></trkpt><trkpt lon="6.077597" lat="50.968787"><ele>75.8</ele><time>2022-06-12T07:26:23.000Z</time></trkpt><trkpt lon="6.077631" lat="50.968725"><ele>76</ele><time>2022-06-12T07:26:24.000Z</time></trkpt><trkpt lon="6.077662" lat="50.968665"><ele>76.2</ele><time>2022-06-12T07:26:25.000Z</time></trkpt><trkpt lon="6.077696" lat="50.968607"><ele>76.6</ele><time>2022-06-12T07:26:26.000Z</time></trkpt><trkpt lon="6.077729" lat="50.968553"><ele>76.8</ele><time>2022-06-12T07:26:27.000Z</time></trkpt><trkpt lon="6.077756" lat="50.968496"><ele>77.2</ele><time>2022-06-12T07:26:28.000Z</time></trkpt><trkpt lon="6.07779" lat="50.96844"><ele>77.4</ele><time>2022-06-12T07:26:29.000Z</time></trkpt><trkpt lon="6.077822" lat="50.968382"><ele>77.6</ele><time>2022-06-12T07:26:30.000Z</time></trkpt><trkpt lon="6.077855" lat="50.968328"><ele>78</ele><time>2022-06-12T07:26:31.000Z</time></trkpt><trkpt lon="6.077888" lat="50.968271"><ele>78.2</ele><time>2022-06-12T07:26:32.000Z</time></trkpt><trkpt lon="6.077921" lat="50.968217"><ele>78.4</ele><time>2022-06-12T07:26:33.000Z</time></trkpt><trkpt lon="6.077954" lat="50.968168"><ele>78.8</ele><time>2022-06-12T07:26:34.000Z</time></trkpt><trkpt lon="6.077981" lat="50.968119"><ele>79</ele><time>2022-06-12T07:26:35.000Z</time></trkpt><trkpt lon="6.078007" lat="50.968073"><ele>79.4</ele><time>2022-06-12T07:26:36.000Z</time></trkpt><trkpt lon="6.078041" lat="50.968027"><ele>79.6</ele><time>2022-06-12T07:26:37.000Z</time></trkpt><trkpt lon="6.078074" lat="50.967974"><ele>80</ele><time>2022-06-12T07:26:38.000Z</time></trkpt><trkpt lon="6.07811" lat="50.96792"><ele>80.4</ele><time>2022-06-12T07:26:39.000Z</time></trkpt><trkpt lon="6.078145" lat="50.967867"><ele>80.6</ele><time>2022-06-12T07:26:40.000Z</time></trkpt><trkpt lon="6.078178" lat="50.967815"><ele>81</ele><time>2022-06-12T07:26:41.000Z</time></trkpt><trkpt lon="6.078209" lat="50.967763"><ele>81.2</ele><time>2022-06-12T07:26:42.000Z</time></trkpt><trkpt lon="6.078246" lat="50.967721"><ele>81.4</ele><time>2022-06-12T07:26:43.000Z</time></trkpt><trkpt lon="6.078282" lat="50.967672"><ele>81.6</ele><time>2022-06-12T07:26:44.000Z</time></trkpt><trkpt lon="6.078319" lat="50.967622"><ele>81.8</ele><time>2022-06-12T07:26:45.000Z</time></trkpt><trkpt lon="6.078349" lat="50.967573"><ele>82</ele><time>2022-06-12T07:26:46.000Z</time></trkpt><trkpt lon="6.078373" lat="50.967523"><ele>82.4</ele><time>2022-06-12T07:26:47.000Z</time></trkpt><trkpt lon="6.078401" lat="50.967473"><ele>82.6</ele><time>2022-06-12T07:26:48.000Z</time></trkpt><trkpt lon="6.078429" lat="50.967424"><ele>83</ele><time>2022-06-12T07:26:49.000Z</time></trkpt><trkpt lon="6.078462" lat="50.967378"><ele>83.4</ele><time>2022-06-12T07:26:50.000Z</time></trkpt><trkpt lon="6.078495" lat="50.967329"><ele>83.6</ele><time>2022-06-12T07:26:51.000Z</time></trkpt><trkpt lon="6.078527" lat="50.967283"><ele>84</ele><time>2022-06-12T07:26:52.000Z</time></trkpt><trkpt lon="6.078559" lat="50.967233"><ele>84.4</ele><time>2022-06-12T07:26:53.000Z</time></trkpt><trkpt lon="6.078589" lat="50.96718"><ele>84.6</ele><time>2022-06-12T07:26:54.000Z</time></trkpt><trkpt lon="6.078619" lat="50.96713"><ele>84.6</ele><time>2022-06-12T07:26:55.000Z</time></trkpt><trkpt lon="6.078651" lat="50.967081"><ele>85</ele><time>2022-06-12T07:26:56.000Z</time></trkpt><trkpt lon="6.078681" lat="50.967031"><ele>85.2</ele><time>2022-06-12T07:26:57.000Z</time></trkpt><trkpt lon="6.078711" lat="50.966982"><ele>85.4</ele><time>2022-06-12T07:26:58.000Z</time></trkpt><trkpt lon="6.07874" lat="50.966932"><ele>85.8</ele><time>2022-06-12T07:26:59.000Z</time></trkpt><trkpt lon="6.078773" lat="50.966882"><ele>86.2</ele><time>2022-06-12T07:27:00.000Z</time></trkpt><trkpt lon="6.078803" lat="50.966829"><ele>86.6</ele><time>2022-06-12T07:27:01.000Z</time></trkpt><trkpt lon="6.078832" lat="50.966779"><ele>87</ele><time>2022-06-12T07:27:02.000Z</time></trkpt><trkpt lon="6.078862" lat="50.96673"><ele>87.2</ele><time>2022-06-12T07:27:03.000Z</time></trkpt><trkpt lon="6.078889" lat="50.96668"><ele>87.4</ele><time>2022-06-12T07:27:04.000Z</time></trkpt><trkpt lon="6.078918" lat="50.966631"><ele>87.6</ele><time>2022-06-12T07:27:05.000Z</time></trkpt><trkpt lon="6.078945" lat="50.966582"><ele>87.8</ele><time>2022-06-12T07:27:06.000Z</time></trkpt><trkpt lon="6.078974" lat="50.966532"><ele>88.2</ele><time>2022-06-12T07:27:07.000Z</time></trkpt><trkpt lon="6.079001" lat="50.966482"><ele>88.4</ele><time>2022-06-12T07:27:08.000Z</time></trkpt><trkpt lon="6.079026" lat="50.96644"><ele>88.6</ele><time>2022-06-12T07:27:09.000Z</time></trkpt><trkpt lon="6.079047" lat="50.96639"><ele>88.8</ele><time>2022-06-12T07:27:10.000Z</time></trkpt><trkpt lon="6.079067" lat="50.966339"><ele>89.2</ele><time>2022-06-12T07:27:11.000Z</time></trkpt><trkpt lon="6.079086" lat="50.966287"><ele>89.4</ele><time>2022-06-12T07:27:12.000Z</time></trkpt><trkpt lon="6.079106" lat="50.966237"><ele>89.6</ele><time>2022-06-12T07:27:13.000Z</time></trkpt><trkpt lon="6.079123" lat="50.966188"><ele>89.8</ele><time>2022-06-12T07:27:14.000Z</time></trkpt><trkpt lon="6.079141" lat="50.966135"><ele>90</ele><time>2022-06-12T07:27:15.000Z</time></trkpt><trkpt lon="6.07916" lat="50.966085"><ele>90.4</ele><time>2022-06-12T07:27:16.000Z</time></trkpt><trkpt lon="6.079173" lat="50.966032"><ele>90.6</ele><time>2022-06-12T07:27:17.000Z</time></trkpt><trkpt lon="6.079185" lat="50.965982"><ele>90.8</ele><time>2022-06-12T07:27:18.000Z</time></trkpt><trkpt lon="6.079196" lat="50.965933"><ele>91</ele><time>2022-06-12T07:27:19.000Z</time></trkpt><trkpt lon="6.079211" lat="50.965884"><ele>91.2</ele><time>2022-06-12T07:27:20.000Z</time></trkpt><trkpt lon="6.079231" lat="50.965833"><ele>91.4</ele><time>2022-06-12T07:27:21.000Z</time></trkpt><trkpt lon="6.079248" lat="50.96578"><ele>91.6</ele><time>2022-06-12T07:27:22.000Z</time></trkpt><trkpt lon="6.079261" lat="50.965727"><ele>91.8</ele><time>2022-06-12T07:27:23.000Z</time></trkpt><trkpt lon="6.079273" lat="50.965673"><ele>91.8</ele><time>2022-06-12T07:27:24.000Z</time></trkpt><trkpt lon="6.079283" lat="50.965624"><ele>92</ele><time>2022-06-12T07:27:25.000Z</time></trkpt><trkpt lon="6.079293" lat="50.965578"><ele>92.2</ele><time>2022-06-12T07:27:26.000Z</time></trkpt><trkpt lon="6.079303" lat="50.965532"><ele>92.2</ele><time>2022-06-12T07:27:27.000Z</time></trkpt><trkpt lon="6.079308" lat="50.965491"><ele>92.4</ele><time>2022-06-12T07:27:28.000Z</time></trkpt><trkpt lon="6.079313" lat="50.965448"><ele>92.6</ele><time>2022-06-12T07:27:29.000Z</time></trkpt><trkpt lon="6.07932" lat="50.965398"><ele>92.6</ele><time>2022-06-12T07:27:30.000Z</time></trkpt><trkpt lon="6.079328" lat="50.965353"><ele>92.8</ele><time>2022-06-12T07:27:31.000Z</time></trkpt><trkpt lon="6.079335" lat="50.965299"><ele>92.8</ele><time>2022-06-12T07:27:32.000Z</time></trkpt><trkpt lon="6.079343" lat="50.965242"><ele>93</ele><time>2022-06-12T07:27:33.000Z</time></trkpt><trkpt lon="6.079356" lat="50.965186"><ele>93</ele><time>2022-06-12T07:27:34.000Z</time></trkpt><trkpt lon="6.079369" lat="50.965132"><ele>93.2</ele><time>2022-06-12T07:27:35.000Z</time></trkpt><trkpt lon="6.079383" lat="50.965067"><ele>93.4</ele><time>2022-06-12T07:27:36.000Z</time></trkpt><trkpt lon="6.079396" lat="50.965006"><ele>93.4</ele><time>2022-06-12T07:27:37.000Z</time></trkpt><trkpt lon="6.079414" lat="50.964952"><ele>93.6</ele><time>2022-06-12T07:27:38.000Z</time></trkpt><trkpt lon="6.079431" lat="50.964902"><ele>93.6</ele><time>2022-06-12T07:27:39.000Z</time></trkpt><trkpt lon="6.079451" lat="50.964845"><ele>93.8</ele><time>2022-06-12T07:27:40.000Z</time></trkpt><trkpt lon="6.079466" lat="50.964789"><ele>93.8</ele><time>2022-06-12T07:27:41.000Z</time></trkpt><trkpt lon="6.079477" lat="50.964731"><ele>93.8</ele><time>2022-06-12T07:27:42.000Z</time></trkpt><trkpt lon="6.079485" lat="50.96467"><ele>94</ele><time>2022-06-12T07:27:43.000Z</time></trkpt><trkpt lon="6.079498" lat="50.964609"><ele>94</ele><time>2022-06-12T07:27:44.000Z</time></trkpt><trkpt lon="6.079516" lat="50.964553"><ele>94</ele><time>2022-06-12T07:27:45.000Z</time></trkpt><trkpt lon="6.079533" lat="50.964488"><ele>94</ele><time>2022-06-12T07:27:46.000Z</time></trkpt><trkpt lon="6.079551" lat="50.964426"><ele>94.2</ele><time>2022-06-12T07:27:47.000Z</time></trkpt><trkpt lon="6.079568" lat="50.964362"><ele>94.2</ele><time>2022-06-12T07:27:48.000Z</time></trkpt><trkpt lon="6.079584" lat="50.964301"><ele>94.2</ele><time>2022-06-12T07:27:49.000Z</time></trkpt><trkpt lon="6.079601" lat="50.964235"><ele>94.2</ele><time>2022-06-12T07:27:50.000Z</time></trkpt><trkpt lon="6.079621" lat="50.964167"><ele>94</ele><time>2022-06-12T07:27:51.000Z</time></trkpt><trkpt lon="6.079642" lat="50.964102"><ele>94</ele><time>2022-06-12T07:27:52.000Z</time></trkpt><trkpt lon="6.079665" lat="50.964033"><ele>94</ele><time>2022-06-12T07:27:53.000Z</time></trkpt><trkpt lon="6.079683" lat="50.963961"><ele>94</ele><time>2022-06-12T07:27:54.000Z</time></trkpt><trkpt lon="6.079698" lat="50.963892"><ele>93.8</ele><time>2022-06-12T07:27:55.000Z</time></trkpt><trkpt lon="6.079716" lat="50.963827"><ele>93.8</ele><time>2022-06-12T07:27:56.000Z</time></trkpt><trkpt lon="6.079736" lat="50.963759"><ele>93.8</ele><time>2022-06-12T07:27:57.000Z</time></trkpt><trkpt lon="6.079754" lat="50.963694"><ele>93.8</ele><time>2022-06-12T07:27:58.000Z</time></trkpt><trkpt lon="6.079773" lat="50.96363"><ele>93.6</ele><time>2022-06-12T07:27:59.000Z</time></trkpt><trkpt lon="6.07979" lat="50.963563"><ele>93.8</ele><time>2022-06-12T07:28:00.000Z</time></trkpt><trkpt lon="6.079814" lat="50.963496"><ele>93.8</ele><time>2022-06-12T07:28:01.000Z</time></trkpt><trkpt lon="6.079837" lat="50.963429"><ele>93.8</ele><time>2022-06-12T07:28:02.000Z</time></trkpt><trkpt lon="6.079856" lat="50.963362"><ele>93.8</ele><time>2022-06-12T07:28:03.000Z</time></trkpt><trkpt lon="6.079874" lat="50.963297"><ele>93.8</ele><time>2022-06-12T07:28:04.000Z</time></trkpt><trkpt lon="6.079894" lat="50.963232"><ele>93.8</ele><time>2022-06-12T07:28:05.000Z</time></trkpt><trkpt lon="6.079914" lat="50.963168"><ele>94</ele><time>2022-06-12T07:28:06.000Z</time></trkpt><trkpt lon="6.079932" lat="50.963103"><ele>94</ele><time>2022-06-12T07:28:07.000Z</time></trkpt><trkpt lon="6.079951" lat="50.963039"><ele>94</ele><time>2022-06-12T07:28:08.000Z</time></trkpt><trkpt lon="6.079969" lat="50.962977"><ele>94.2</ele><time>2022-06-12T07:28:09.000Z</time></trkpt><trkpt lon="6.079986" lat="50.962916"><ele>94.2</ele><time>2022-06-12T07:28:10.000Z</time></trkpt><trkpt lon="6.080002" lat="50.962852"><ele>94.2</ele><time>2022-06-12T07:28:11.000Z</time></trkpt><trkpt lon="6.080021" lat="50.96279"><ele>94.4</ele><time>2022-06-12T07:28:12.000Z</time></trkpt><trkpt lon="6.080038" lat="50.962725"><ele>94.6</ele><time>2022-06-12T07:28:13.000Z</time></trkpt><trkpt lon="6.080059" lat="50.962664"><ele>94.6</ele><time>2022-06-12T07:28:14.000Z</time></trkpt><trkpt lon="6.080078" lat="50.962598"><ele>94.6</ele><time>2022-06-12T07:28:15.000Z</time></trkpt><trkpt lon="6.080096" lat="50.962534"><ele>94.8</ele><time>2022-06-12T07:28:16.000Z</time></trkpt><trkpt lon="6.080114" lat="50.962469"><ele>94.8</ele><time>2022-06-12T07:28:17.000Z</time></trkpt><trkpt lon="6.080131" lat="50.962408"><ele>95</ele><time>2022-06-12T07:28:18.000Z</time></trkpt><trkpt lon="6.080151" lat="50.962347"><ele>95</ele><time>2022-06-12T07:28:19.000Z</time></trkpt><trkpt lon="6.08017" lat="50.962283"><ele>95.2</ele><time>2022-06-12T07:28:20.000Z</time></trkpt><trkpt lon="6.080188" lat="50.962221"><ele>95.4</ele><time>2022-06-12T07:28:21.000Z</time></trkpt><trkpt lon="6.080206" lat="50.962164"><ele>95.4</ele><time>2022-06-12T07:28:22.000Z</time></trkpt><trkpt lon="6.080226" lat="50.962106"><ele>95.6</ele><time>2022-06-12T07:28:23.000Z</time></trkpt><trkpt lon="6.080244" lat="50.962046"><ele>95.6</ele><time>2022-06-12T07:28:24.000Z</time></trkpt><trkpt lon="6.080264" lat="50.961988"><ele>95.8</ele><time>2022-06-12T07:28:25.000Z</time></trkpt><trkpt lon="6.080285" lat="50.961933"><ele>96</ele><time>2022-06-12T07:28:26.000Z</time></trkpt><trkpt lon="6.080309" lat="50.96187"><ele>96.2</ele><time>2022-06-12T07:28:27.000Z</time></trkpt><trkpt lon="6.080328" lat="50.96181"><ele>96.2</ele><time>2022-06-12T07:28:28.000Z</time></trkpt><trkpt lon="6.080343" lat="50.961748"><ele>96.4</ele><time>2022-06-12T07:28:29.000Z</time></trkpt><trkpt lon="6.080356" lat="50.961687"><ele>96.6</ele><time>2022-06-12T07:28:30.000Z</time></trkpt><trkpt lon="6.080372" lat="50.961624"><ele>96.8</ele><time>2022-06-12T07:28:31.000Z</time></trkpt><trkpt lon="6.080386" lat="50.961557"><ele>97</ele><time>2022-06-12T07:28:32.000Z</time></trkpt><trkpt lon="6.080403" lat="50.961493"><ele>97.2</ele><time>2022-06-12T07:28:33.000Z</time></trkpt><trkpt lon="6.080418" lat="50.961428"><ele>97.2</ele><time>2022-06-12T07:28:34.000Z</time></trkpt><trkpt lon="6.080434" lat="50.961363"><ele>97.2</ele><time>2022-06-12T07:28:35.000Z</time></trkpt><trkpt lon="6.080451" lat="50.961303"><ele>97.4</ele><time>2022-06-12T07:28:36.000Z</time></trkpt><trkpt lon="6.080471" lat="50.961238"><ele>97.4</ele><time>2022-06-12T07:28:37.000Z</time></trkpt><trkpt lon="6.080491" lat="50.961173"><ele>97.6</ele><time>2022-06-12T07:28:38.000Z</time></trkpt><trkpt lon="6.080511" lat="50.961108"><ele>97.8</ele><time>2022-06-12T07:28:39.000Z</time></trkpt><trkpt lon="6.08053" lat="50.961046"><ele>97.8</ele><time>2022-06-12T07:28:40.000Z</time></trkpt><trkpt lon="6.080546" lat="50.960982"><ele>98</ele><time>2022-06-12T07:28:41.000Z</time></trkpt><trkpt lon="6.080563" lat="50.960921"><ele>98.2</ele><time>2022-06-12T07:28:42.000Z</time></trkpt><trkpt lon="6.080578" lat="50.960852"><ele>98.6</ele><time>2022-06-12T07:28:43.000Z</time></trkpt><trkpt lon="6.080596" lat="50.96079"><ele>98.8</ele><time>2022-06-12T07:28:44.000Z</time></trkpt><trkpt lon="6.080616" lat="50.960726"><ele>99</ele><time>2022-06-12T07:28:45.000Z</time></trkpt><trkpt lon="6.080634" lat="50.960665"><ele>99</ele><time>2022-06-12T07:28:46.000Z</time></trkpt><trkpt lon="6.080651" lat="50.960604"><ele>99.2</ele><time>2022-06-12T07:28:47.000Z</time></trkpt><trkpt lon="6.080668" lat="50.960539"><ele>99.4</ele><time>2022-06-12T07:28:48.000Z</time></trkpt><trkpt lon="6.080685" lat="50.960478"><ele>99.6</ele><time>2022-06-12T07:28:49.000Z</time></trkpt><trkpt lon="6.080701" lat="50.960416"><ele>100</ele><time>2022-06-12T07:28:50.000Z</time></trkpt><trkpt lon="6.080719" lat="50.960352"><ele>100</ele><time>2022-06-12T07:28:51.000Z</time></trkpt><trkpt lon="6.080739" lat="50.960291"><ele>100.2</ele><time>2022-06-12T07:28:52.000Z</time></trkpt><trkpt lon="6.080758" lat="50.96023"><ele>100.6</ele><time>2022-06-12T07:28:53.000Z</time></trkpt><trkpt lon="6.080773" lat="50.960169"><ele>100.8</ele><time>2022-06-12T07:28:54.000Z</time></trkpt><trkpt lon="6.080791" lat="50.960112"><ele>101</ele><time>2022-06-12T07:28:55.000Z</time></trkpt><trkpt lon="6.080808" lat="50.960047"><ele>101.2</ele><time>2022-06-12T07:28:56.000Z</time></trkpt><trkpt lon="6.080826" lat="50.959986"><ele>101.2</ele><time>2022-06-12T07:28:57.000Z</time></trkpt><trkpt lon="6.080844" lat="50.959921"><ele>101.4</ele><time>2022-06-12T07:28:58.000Z</time></trkpt><trkpt lon="6.080861" lat="50.95986"><ele>101.6</ele><time>2022-06-12T07:28:59.000Z</time></trkpt><trkpt lon="6.080879" lat="50.959799"><ele>101.8</ele><time>2022-06-12T07:29:00.000Z</time></trkpt><trkpt lon="6.080896" lat="50.959738"><ele>101.8</ele><time>2022-06-12T07:29:01.000Z</time></trkpt><trkpt lon="6.080913" lat="50.959677"><ele>101.8</ele><time>2022-06-12T07:29:02.000Z</time></trkpt><trkpt lon="6.08093" lat="50.959616"><ele>101.8</ele><time>2022-06-12T07:29:03.000Z</time></trkpt><trkpt lon="6.080946" lat="50.959555"><ele>102</ele><time>2022-06-12T07:29:04.000Z</time></trkpt><trkpt lon="6.080965" lat="50.959497"><ele>102</ele><time>2022-06-12T07:29:05.000Z</time></trkpt><trkpt lon="6.080982" lat="50.959437"><ele>102.2</ele><time>2022-06-12T07:29:06.000Z</time></trkpt><trkpt lon="6.080999" lat="50.959376"><ele>102.2</ele><time>2022-06-12T07:29:07.000Z</time></trkpt><trkpt lon="6.081022" lat="50.959322"><ele>102.4</ele><time>2022-06-12T07:29:08.000Z</time></trkpt><trkpt lon="6.081042" lat="50.959266"><ele>102.4</ele><time>2022-06-12T07:29:09.000Z</time></trkpt><trkpt lon="6.081059" lat="50.959208"><ele>102.2</ele><time>2022-06-12T07:29:10.000Z</time></trkpt><trkpt lon="6.08108" lat="50.95915"><ele>102</ele><time>2022-06-12T07:29:11.000Z</time></trkpt><trkpt lon="6.0811" lat="50.959096"><ele>102</ele><time>2022-06-12T07:29:12.000Z</time></trkpt><trkpt lon="6.08112" lat="50.959039"><ele>102</ele><time>2022-06-12T07:29:13.000Z</time></trkpt><trkpt lon="6.081139" lat="50.958986"><ele>102</ele><time>2022-06-12T07:29:14.000Z</time></trkpt><trkpt lon="6.081156" lat="50.958929"><ele>102</ele><time>2022-06-12T07:29:15.000Z</time></trkpt><trkpt lon="6.08116" lat="50.95888"><ele>102</ele><time>2022-06-12T07:29:16.000Z</time></trkpt><trkpt lon="6.081144" lat="50.958822"><ele>102</ele><time>2022-06-12T07:29:17.000Z</time></trkpt><trkpt lon="6.081106" lat="50.958772"><ele>102</ele><time>2022-06-12T07:29:18.000Z</time></trkpt><trkpt lon="6.081052" lat="50.958734"><ele>102</ele><time>2022-06-12T07:29:19.000Z</time></trkpt><trkpt lon="6.080997" lat="50.958702"><ele>102</ele><time>2022-06-12T07:29:20.000Z</time></trkpt><trkpt lon="6.080918" lat="50.958658"><ele>101.8</ele><time>2022-06-12T07:29:21.000Z</time></trkpt><trkpt lon="6.080855" lat="50.958612"><ele>101.6</ele><time>2022-06-12T07:29:22.000Z</time></trkpt><trkpt lon="6.080809" lat="50.958555"><ele>101.2</ele><time>2022-06-12T07:29:23.000Z</time></trkpt><trkpt lon="6.080786" lat="50.95849"><ele>100.8</ele><time>2022-06-12T07:29:24.000Z</time></trkpt><trkpt lon="6.080785" lat="50.958418"><ele>100.4</ele><time>2022-06-12T07:29:25.000Z</time></trkpt><trkpt lon="6.080796" lat="50.958345"><ele>100</ele><time>2022-06-12T07:29:26.000Z</time></trkpt><trkpt lon="6.080814" lat="50.958274"><ele>99.8</ele><time>2022-06-12T07:29:27.000Z</time></trkpt><trkpt lon="6.080834" lat="50.958202"><ele>99.4</ele><time>2022-06-12T07:29:28.000Z</time></trkpt><trkpt lon="6.080854" lat="50.958128"><ele>99.2</ele><time>2022-06-12T07:29:29.000Z</time></trkpt><trkpt lon="6.08087" lat="50.958056"><ele>99</ele><time>2022-06-12T07:29:30.000Z</time></trkpt><trkpt lon="6.080884" lat="50.957985"><ele>98.6</ele><time>2022-06-12T07:29:31.000Z</time></trkpt><trkpt lon="6.080901" lat="50.957919"><ele>98.4</ele><time>2022-06-12T07:29:32.000Z</time></trkpt><trkpt lon="6.080916" lat="50.957861"><ele>98.2</ele><time>2022-06-12T07:29:33.000Z</time></trkpt><trkpt lon="6.08093" lat="50.957816"><ele>98.2</ele><time>2022-06-12T07:29:34.000Z</time></trkpt><trkpt lon="6.080938" lat="50.957776"><ele>98</ele><time>2022-06-12T07:29:35.000Z</time></trkpt><trkpt lon="6.080938" lat="50.95775"><ele>98</ele><time>2022-06-12T07:29:36.000Z</time></trkpt><trkpt lon="6.080938" lat="50.957729"><ele>97.8</ele><time>2022-06-12T07:29:37.000Z</time></trkpt><trkpt lon="6.08094" lat="50.957836"><ele>97.6</ele><time>2022-06-12T07:30:00.000Z</time></trkpt><trkpt lon="6.08094" lat="50.957847"><ele>97.6</ele><time>2022-06-12T07:30:01.000Z</time></trkpt><trkpt lon="6.08094" lat="50.957859"><ele>97.8</ele><time>2022-06-12T07:30:02.000Z</time></trkpt><trkpt lon="6.080943" lat="50.95787"><ele>97.8</ele><time>2022-06-12T07:30:03.000Z</time></trkpt><trkpt lon="6.080946" lat="50.957885"><ele>97.8</ele><time>2022-06-12T07:30:04.000Z</time></trkpt><trkpt lon="6.080948" lat="50.957893"><ele>97.8</ele><time>2022-06-12T07:30:05.000Z</time></trkpt><trkpt lon="6.08095" lat="50.957893"><ele>97.8</ele><time>2022-06-12T07:30:06.000Z</time></trkpt><trkpt lon="6.080955" lat="50.957893"><ele>97.8</ele><time>2022-06-12T07:30:07.000Z</time></trkpt><trkpt lon="6.080955" lat="50.957893"><ele>97.8</ele><time>2022-06-12T07:30:08.000Z</time></trkpt><trkpt lon="6.080955" lat="50.957893"><ele>97.8</ele><time>2022-06-12T07:30:09.000Z</time></trkpt><trkpt lon="6.080972" lat="50.957992"><ele>97.8</ele><time>2022-06-12T08:04:28.000Z</time></trkpt><trkpt lon="6.08097" lat="50.958"><ele>97.8</ele><time>2022-06-12T08:04:29.000Z</time></trkpt><trkpt lon="6.080968" lat="50.958008"><ele>97.8</ele><time>2022-06-12T08:04:30.000Z</time></trkpt><trkpt lon="6.080965" lat="50.958015"><ele>97.8</ele><time>2022-06-12T08:04:31.000Z</time></trkpt><trkpt lon="6.080965" lat="50.958023"><ele>97.8</ele><time>2022-06-12T08:04:32.000Z</time></trkpt><trkpt lon="6.080963" lat="50.958023"><ele>98</ele><time>2022-06-12T08:04:33.000Z</time></trkpt><trkpt lon="6.080963" lat="50.958027"><ele>98</ele><time>2022-06-12T08:04:34.000Z</time></trkpt><trkpt lon="6.080963" lat="50.958027"><ele>98</ele><time>2022-06-12T08:04:35.000Z</time></trkpt><trkpt lon="6.080963" lat="50.958027"><ele>98</ele><time>2022-06-12T08:04:36.000Z</time></trkpt><trkpt lon="6.080912" lat="50.958144"><ele>98</ele><time>2022-06-12T08:10:58.000Z</time></trkpt><trkpt lon="6.080907" lat="50.958167"><ele>98</ele><time>2022-06-12T08:10:59.000Z</time></trkpt><trkpt lon="6.0809" lat="50.958183"><ele>98</ele><time>2022-06-12T08:11:00.000Z</time></trkpt><trkpt lon="6.080889" lat="50.958205"><ele>98</ele><time>2022-06-12T08:11:01.000Z</time></trkpt><trkpt lon="6.080874" lat="50.958232"><ele>98</ele><time>2022-06-12T08:11:02.000Z</time></trkpt><trkpt lon="6.080861" lat="50.958266"><ele>98.2</ele><time>2022-06-12T08:11:03.000Z</time></trkpt><trkpt lon="6.080847" lat="50.9583"><ele>98.2</ele><time>2022-06-12T08:11:04.000Z</time></trkpt><trkpt lon="6.080837" lat="50.958342"><ele>98.2</ele><time>2022-06-12T08:11:05.000Z</time></trkpt><trkpt lon="6.08083" lat="50.95838"><ele>98.2</ele><time>2022-06-12T08:11:06.000Z</time></trkpt><trkpt lon="6.080825" lat="50.958419"><ele>98.4</ele><time>2022-06-12T08:11:07.000Z</time></trkpt><trkpt lon="6.080822" lat="50.958457"><ele>98.6</ele><time>2022-06-12T08:11:08.000Z</time></trkpt><trkpt lon="6.08082" lat="50.958495"><ele>98.8</ele><time>2022-06-12T08:11:09.000Z</time></trkpt><trkpt lon="6.080815" lat="50.958529"><ele>99</ele><time>2022-06-12T08:11:10.000Z</time></trkpt><trkpt lon="6.08081" lat="50.958567"><ele>99.2</ele><time>2022-06-12T08:11:11.000Z</time></trkpt><trkpt lon="6.08081" lat="50.958602"><ele>99.2</ele><time>2022-06-12T08:11:12.000Z</time></trkpt><trkpt lon="6.080821" lat="50.958643"><ele>99.4</ele><time>2022-06-12T08:11:13.000Z</time></trkpt><trkpt lon="6.080842" lat="50.958678"><ele>99.6</ele><time>2022-06-12T08:11:14.000Z</time></trkpt><trkpt lon="6.080879" lat="50.95872"><ele>99.8</ele><time>2022-06-12T08:11:15.000Z</time></trkpt><trkpt lon="6.080915" lat="50.958756"><ele>99.8</ele><time>2022-06-12T08:11:16.000Z</time></trkpt><trkpt lon="6.080957" lat="50.958796"><ele>100.2</ele><time>2022-06-12T08:11:17.000Z</time></trkpt><trkpt lon="6.080994" lat="50.958835"><ele>100.4</ele><time>2022-06-12T08:11:18.000Z</time></trkpt><trkpt lon="6.081029" lat="50.958883"><ele>100.6</ele><time>2022-06-12T08:11:19.000Z</time></trkpt><trkpt lon="6.081051" lat="50.958929"><ele>100.8</ele><time>2022-06-12T08:11:20.000Z</time></trkpt><trkpt lon="6.081061" lat="50.958974"><ele>101</ele><time>2022-06-12T08:11:21.000Z</time></trkpt><trkpt lon="6.081065" lat="50.959025"><ele>101.2</ele><time>2022-06-12T08:11:22.000Z</time></trkpt><trkpt lon="6.081063" lat="50.959075"><ele>101.2</ele><time>2022-06-12T08:11:23.000Z</time></trkpt><trkpt lon="6.081055" lat="50.959128"><ele>101.4</ele><time>2022-06-12T08:11:24.000Z</time></trkpt><trkpt lon="6.081042" lat="50.959184"><ele>101.4</ele><time>2022-06-12T08:11:25.000Z</time></trkpt><trkpt lon="6.081025" lat="50.959235"><ele>101.6</ele><time>2022-06-12T08:11:26.000Z</time></trkpt><trkpt lon="6.081006" lat="50.959302"><ele>101.6</ele><time>2022-06-12T08:11:27.000Z</time></trkpt><trkpt lon="6.080988" lat="50.959363"><ele>101.4</ele><time>2022-06-12T08:11:28.000Z</time></trkpt><trkpt lon="6.080967" lat="50.959429"><ele>101.4</ele><time>2022-06-12T08:11:29.000Z</time></trkpt><trkpt lon="6.080949" lat="50.959494"><ele>101.4</ele><time>2022-06-12T08:11:30.000Z</time></trkpt><trkpt lon="6.080933" lat="50.959561"><ele>101.4</ele><time>2022-06-12T08:11:31.000Z</time></trkpt><trkpt lon="6.080914" lat="50.959631"><ele>101.2</ele><time>2022-06-12T08:11:32.000Z</time></trkpt><trkpt lon="6.080897" lat="50.959703"><ele>101.2</ele><time>2022-06-12T08:11:33.000Z</time></trkpt><trkpt lon="6.080882" lat="50.959772"><ele>101</ele><time>2022-06-12T08:11:34.000Z</time></trkpt><trkpt lon="6.080866" lat="50.959843"><ele>101</ele><time>2022-06-12T08:11:35.000Z</time></trkpt><trkpt lon="6.080848" lat="50.959901"><ele>101</ele><time>2022-06-12T08:11:36.000Z</time></trkpt><trkpt lon="6.080829" lat="50.959972"><ele>100.8</ele><time>2022-06-12T08:11:37.000Z</time></trkpt><trkpt lon="6.080809" lat="50.960047"><ele>100.8</ele><time>2022-06-12T08:11:38.000Z</time></trkpt><trkpt lon="6.080789" lat="50.960115"><ele>100.6</ele><time>2022-06-12T08:11:39.000Z</time></trkpt><trkpt lon="6.080771" lat="50.960187"><ele>100.6</ele><time>2022-06-12T08:11:40.000Z</time></trkpt><trkpt lon="6.080751" lat="50.960254"><ele>100.4</ele><time>2022-06-12T08:11:41.000Z</time></trkpt><trkpt lon="6.080729" lat="50.960325"><ele>100.2</ele><time>2022-06-12T08:11:42.000Z</time></trkpt><trkpt lon="6.08071" lat="50.96039"><ele>100</ele><time>2022-06-12T08:11:43.000Z</time></trkpt><trkpt lon="6.080695" lat="50.960447"><ele>100</ele><time>2022-06-12T08:11:44.000Z</time></trkpt><trkpt lon="6.080676" lat="50.960516"><ele>99.8</ele><time>2022-06-12T08:11:45.000Z</time></trkpt><trkpt lon="6.080657" lat="50.960576"><ele>99.6</ele><time>2022-06-12T08:11:46.000Z</time></trkpt><trkpt lon="6.080642" lat="50.960633"><ele>99.4</ele><time>2022-06-12T08:11:47.000Z</time></trkpt><trkpt lon="6.080623" lat="50.960698"><ele>99.4</ele><time>2022-06-12T08:11:48.000Z</time></trkpt><trkpt lon="6.080606" lat="50.960756"><ele>99.2</ele><time>2022-06-12T08:11:49.000Z</time></trkpt><trkpt lon="6.08059" lat="50.960813"><ele>99</ele><time>2022-06-12T08:11:50.000Z</time></trkpt><trkpt lon="6.080574" lat="50.960866"><ele>98.8</ele><time>2022-06-12T08:11:51.000Z</time></trkpt><trkpt lon="6.080556" lat="50.960926"><ele>98.8</ele><time>2022-06-12T08:11:52.000Z</time></trkpt><trkpt lon="6.080536" lat="50.960989"><ele>98.6</ele><time>2022-06-12T08:11:53.000Z</time></trkpt><trkpt lon="6.080515" lat="50.961051"><ele>98.6</ele><time>2022-06-12T08:11:54.000Z</time></trkpt><trkpt lon="6.080497" lat="50.961111"><ele>98.4</ele><time>2022-06-12T08:11:55.000Z</time></trkpt><trkpt lon="6.080481" lat="50.961176"><ele>98.2</ele><time>2022-06-12T08:11:56.000Z</time></trkpt><trkpt lon="6.080462" lat="50.961237"><ele>98</ele><time>2022-06-12T08:11:57.000Z</time></trkpt><trkpt lon="6.080443" lat="50.961297"><ele>97.8</ele><time>2022-06-12T08:11:58.000Z</time></trkpt><trkpt lon="6.080424" lat="50.961359"><ele>97.6</ele><time>2022-06-12T08:11:59.000Z</time></trkpt><trkpt lon="6.080406" lat="50.96142"><ele>97.4</ele><time>2022-06-12T08:12:00.000Z</time></trkpt><trkpt lon="6.080389" lat="50.961485"><ele>97.2</ele><time>2022-06-12T08:12:01.000Z</time></trkpt><trkpt lon="6.080371" lat="50.961549"><ele>97</ele><time>2022-06-12T08:12:02.000Z</time></trkpt><trkpt lon="6.080351" lat="50.961609"><ele>96.8</ele><time>2022-06-12T08:12:03.000Z</time></trkpt><trkpt lon="6.080334" lat="50.961671"><ele>96.6</ele><time>2022-06-12T08:12:04.000Z</time></trkpt><trkpt lon="6.080319" lat="50.96174"><ele>96.4</ele><time>2022-06-12T08:12:05.000Z</time></trkpt><trkpt lon="6.080302" lat="50.961805"><ele>96.2</ele><time>2022-06-12T08:12:06.000Z</time></trkpt><trkpt lon="6.080283" lat="50.961866"><ele>96</ele><time>2022-06-12T08:12:07.000Z</time></trkpt><trkpt lon="6.080262" lat="50.961931"><ele>96</ele><time>2022-06-12T08:12:08.000Z</time></trkpt><trkpt lon="6.080243" lat="50.961992"><ele>96</ele><time>2022-06-12T08:12:09.000Z</time></trkpt><trkpt lon="6.080225" lat="50.962054"><ele>95.8</ele><time>2022-06-12T08:12:10.000Z</time></trkpt><trkpt lon="6.080202" lat="50.962133"><ele>95.8</ele><time>2022-06-12T08:12:11.000Z</time></trkpt><trkpt lon="6.080182" lat="50.962195"><ele>95.6</ele><time>2022-06-12T08:12:12.000Z</time></trkpt><trkpt lon="6.080163" lat="50.962265"><ele>95.4</ele><time>2022-06-12T08:12:13.000Z</time></trkpt><trkpt lon="6.080141" lat="50.962334"><ele>95.4</ele><time>2022-06-12T08:12:14.000Z</time></trkpt><trkpt lon="6.080121" lat="50.962406"><ele>95.2</ele><time>2022-06-12T08:12:15.000Z</time></trkpt><trkpt lon="6.080101" lat="50.962482"><ele>95</ele><time>2022-06-12T08:12:16.000Z</time></trkpt><trkpt lon="6.080079" lat="50.962559"><ele>94.8</ele><time>2022-06-12T08:12:17.000Z</time></trkpt><trkpt lon="6.080057" lat="50.962633"><ele>94.6</ele><time>2022-06-12T08:12:18.000Z</time></trkpt><trkpt lon="6.080037" lat="50.962705"><ele>94.4</ele><time>2022-06-12T08:12:19.000Z</time></trkpt><trkpt lon="6.080016" lat="50.962781"><ele>94.2</ele><time>2022-06-12T08:12:20.000Z</time></trkpt><trkpt lon="6.079996" lat="50.962852"><ele>94.2</ele><time>2022-06-12T08:12:21.000Z</time></trkpt><trkpt lon="6.079977" lat="50.962929"><ele>94.2</ele><time>2022-06-12T08:12:22.000Z</time></trkpt><trkpt lon="6.079957" lat="50.963002"><ele>94</ele><time>2022-06-12T08:12:23.000Z</time></trkpt><trkpt lon="6.079936" lat="50.963078"><ele>94</ele><time>2022-06-12T08:12:24.000Z</time></trkpt><trkpt lon="6.079912" lat="50.963148"><ele>93.8</ele><time>2022-06-12T08:12:25.000Z</time></trkpt><trkpt lon="6.07989" lat="50.96322"><ele>93.8</ele><time>2022-06-12T08:12:26.000Z</time></trkpt><trkpt lon="6.079869" lat="50.963292"><ele>93.8</ele><time>2022-06-12T08:12:27.000Z</time></trkpt><trkpt lon="6.079848" lat="50.963359"><ele>93.6</ele><time>2022-06-12T08:12:28.000Z</time></trkpt><trkpt lon="6.079826" lat="50.963434"><ele>93.6</ele><time>2022-06-12T08:12:29.000Z</time></trkpt><trkpt lon="6.079804" lat="50.963501"><ele>93.4</ele><time>2022-06-12T08:12:30.000Z</time></trkpt><trkpt lon="6.079783" lat="50.963577"><ele>93.4</ele><time>2022-06-12T08:12:31.000Z</time></trkpt><trkpt lon="6.079761" lat="50.96365"><ele>93.4</ele><time>2022-06-12T08:12:32.000Z</time></trkpt><trkpt lon="6.079741" lat="50.963715"><ele>93.4</ele><time>2022-06-12T08:12:33.000Z</time></trkpt><trkpt lon="6.07972" lat="50.963779"><ele>93.4</ele><time>2022-06-12T08:12:34.000Z</time></trkpt><trkpt lon="6.079701" lat="50.963848"><ele>93.4</ele><time>2022-06-12T08:12:35.000Z</time></trkpt><trkpt lon="6.079684" lat="50.963918"><ele>93.4</ele><time>2022-06-12T08:12:36.000Z</time></trkpt><trkpt lon="6.079667" lat="50.963982"><ele>93.4</ele><time>2022-06-12T08:12:37.000Z</time></trkpt><trkpt lon="6.079649" lat="50.964042"><ele>93.4</ele><time>2022-06-12T08:12:38.000Z</time></trkpt><trkpt lon="6.079629" lat="50.964116"><ele>93.4</ele><time>2022-06-12T08:12:39.000Z</time></trkpt><trkpt lon="6.079611" lat="50.964181"><ele>93.4</ele><time>2022-06-12T08:12:40.000Z</time></trkpt><trkpt lon="6.079594" lat="50.96425"><ele>93.4</ele><time>2022-06-12T08:12:41.000Z</time></trkpt><trkpt lon="6.079577" lat="50.964314"><ele>93.4</ele><time>2022-06-12T08:12:42.000Z</time></trkpt><trkpt lon="6.079557" lat="50.96438"><ele>93.4</ele><time>2022-06-12T08:12:43.000Z</time></trkpt><trkpt lon="6.079537" lat="50.964444"><ele>93.2</ele><time>2022-06-12T08:12:44.000Z</time></trkpt><trkpt lon="6.079518" lat="50.96451"><ele>93.2</ele><time>2022-06-12T08:12:45.000Z</time></trkpt><trkpt lon="6.079498" lat="50.96457"><ele>93.2</ele><time>2022-06-12T08:12:46.000Z</time></trkpt><trkpt lon="6.079482" lat="50.964627"><ele>93.2</ele><time>2022-06-12T08:12:47.000Z</time></trkpt><trkpt lon="6.079462" lat="50.964693"><ele>93.2</ele><time>2022-06-12T08:12:48.000Z</time></trkpt><trkpt lon="6.079445" lat="50.96475"><ele>93.2</ele><time>2022-06-12T08:12:49.000Z</time></trkpt><trkpt lon="6.079431" lat="50.964815"><ele>93</ele><time>2022-06-12T08:12:50.000Z</time></trkpt><trkpt lon="6.079412" lat="50.964883"><ele>93</ele><time>2022-06-12T08:12:51.000Z</time></trkpt><trkpt lon="6.079395" lat="50.964949"><ele>93</ele><time>2022-06-12T08:12:52.000Z</time></trkpt><trkpt lon="6.079378" lat="50.965016"><ele>92.8</ele><time>2022-06-12T08:12:53.000Z</time></trkpt><trkpt lon="6.079362" lat="50.965082"><ele>92.8</ele><time>2022-06-12T08:12:54.000Z</time></trkpt><trkpt lon="6.07935" lat="50.965144"><ele>92.8</ele><time>2022-06-12T08:12:55.000Z</time></trkpt><trkpt lon="6.079339" lat="50.965208"><ele>92.6</ele><time>2022-06-12T08:12:56.000Z</time></trkpt><trkpt lon="6.079326" lat="50.965269"><ele>92.4</ele><time>2022-06-12T08:12:57.000Z</time></trkpt><trkpt lon="6.079312" lat="50.965322"><ele>92.4</ele><time>2022-06-12T08:12:58.000Z</time></trkpt><trkpt lon="6.079304" lat="50.965398"><ele>92.2</ele><time>2022-06-12T08:12:59.000Z</time></trkpt><trkpt lon="6.079295" lat="50.965463"><ele>92.2</ele><time>2022-06-12T08:13:00.000Z</time></trkpt><trkpt lon="6.079284" lat="50.965532"><ele>92</ele><time>2022-06-12T08:13:01.000Z</time></trkpt><trkpt lon="6.079269" lat="50.965593"><ele>91.8</ele><time>2022-06-12T08:13:02.000Z</time></trkpt><trkpt lon="6.079257" lat="50.965657"><ele>91.6</ele><time>2022-06-12T08:13:03.000Z</time></trkpt><trkpt lon="6.079245" lat="50.965723"><ele>91.6</ele><time>2022-06-12T08:13:04.000Z</time></trkpt><trkpt lon="6.079232" lat="50.965788"><ele>91.4</ele><time>2022-06-12T08:13:05.000Z</time></trkpt><trkpt lon="6.079216" lat="50.965853"><ele>91.2</ele><time>2022-06-12T08:13:06.000Z</time></trkpt><trkpt lon="6.079199" lat="50.965916"><ele>91</ele><time>2022-06-12T08:13:07.000Z</time></trkpt><trkpt lon="6.079178" lat="50.965986"><ele>90.6</ele><time>2022-06-12T08:13:08.000Z</time></trkpt><trkpt lon="6.079153" lat="50.966057"><ele>90.4</ele><time>2022-06-12T08:13:09.000Z</time></trkpt><trkpt lon="6.079126" lat="50.96613"><ele>90.2</ele><time>2022-06-12T08:13:10.000Z</time></trkpt><trkpt lon="6.079096" lat="50.966204"><ele>90</ele><time>2022-06-12T08:13:11.000Z</time></trkpt><trkpt lon="6.079061" lat="50.96628"><ele>89.6</ele><time>2022-06-12T08:13:12.000Z</time></trkpt><trkpt lon="6.079026" lat="50.966356"><ele>89.2</ele><time>2022-06-12T08:13:13.000Z</time></trkpt><trkpt lon="6.078991" lat="50.966433"><ele>89</ele><time>2022-06-12T08:13:14.000Z</time></trkpt><trkpt lon="6.078954" lat="50.966512"><ele>88.8</ele><time>2022-06-12T08:13:15.000Z</time></trkpt><trkpt lon="6.078916" lat="50.966589"><ele>88.6</ele><time>2022-06-12T08:13:16.000Z</time></trkpt><trkpt lon="6.078876" lat="50.966662"><ele>88.2</ele><time>2022-06-12T08:13:17.000Z</time></trkpt><trkpt lon="6.078834" lat="50.966739"><ele>87.8</ele><time>2022-06-12T08:13:18.000Z</time></trkpt><trkpt lon="6.078788" lat="50.966817"><ele>87.6</ele><time>2022-06-12T08:13:19.000Z</time></trkpt><trkpt lon="6.078742" lat="50.966893"><ele>87.2</ele><time>2022-06-12T08:13:20.000Z</time></trkpt><trkpt lon="6.078692" lat="50.966974"><ele>87</ele><time>2022-06-12T08:13:21.000Z</time></trkpt><trkpt lon="6.078638" lat="50.96705"><ele>86.8</ele><time>2022-06-12T08:13:22.000Z</time></trkpt><trkpt lon="6.078585" lat="50.96713"><ele>86.4</ele><time>2022-06-12T08:13:23.000Z</time></trkpt><trkpt lon="6.078536" lat="50.967205"><ele>86</ele><time>2022-06-12T08:13:24.000Z</time></trkpt><trkpt lon="6.078484" lat="50.967287"><ele>85.6</ele><time>2022-06-12T08:13:25.000Z</time></trkpt><trkpt lon="6.078422" lat="50.967378"><ele>85</ele><time>2022-06-12T08:13:26.000Z</time></trkpt><trkpt lon="6.078367" lat="50.967454"><ele>84.6</ele><time>2022-06-12T08:13:27.000Z</time></trkpt><trkpt lon="6.07831" lat="50.967538"><ele>84</ele><time>2022-06-12T08:13:28.000Z</time></trkpt><trkpt lon="6.078253" lat="50.967619"><ele>83.6</ele><time>2022-06-12T08:13:29.000Z</time></trkpt><trkpt lon="6.0782" lat="50.967695"><ele>83.2</ele><time>2022-06-12T08:13:30.000Z</time></trkpt><trkpt lon="6.078153" lat="50.967771"><ele>82.8</ele><time>2022-06-12T08:13:31.000Z</time></trkpt><trkpt lon="6.078108" lat="50.967844"><ele>82.2</ele><time>2022-06-12T08:13:32.000Z</time></trkpt><trkpt lon="6.078066" lat="50.967916"><ele>81.8</ele><time>2022-06-12T08:13:33.000Z</time></trkpt><trkpt lon="6.078023" lat="50.96798"><ele>81.2</ele><time>2022-06-12T08:13:34.000Z</time></trkpt><trkpt lon="6.077986" lat="50.968045"><ele>80.8</ele><time>2022-06-12T08:13:35.000Z</time></trkpt><trkpt lon="6.07795" lat="50.968107"><ele>80.6</ele><time>2022-06-12T08:13:36.000Z</time></trkpt><trkpt lon="6.077917" lat="50.968174"><ele>80.2</ele><time>2022-06-12T08:13:37.000Z</time></trkpt><trkpt lon="6.077885" lat="50.968233"><ele>79.8</ele><time>2022-06-12T08:13:38.000Z</time></trkpt><trkpt lon="6.077849" lat="50.968298"><ele>79.6</ele><time>2022-06-12T08:13:39.000Z</time></trkpt><trkpt lon="6.07782" lat="50.96835"><ele>79.2</ele><time>2022-06-12T08:13:40.000Z</time></trkpt><trkpt lon="6.077793" lat="50.968401"><ele>78.8</ele><time>2022-06-12T08:13:41.000Z</time></trkpt><trkpt lon="6.077766" lat="50.968443"><ele>78.6</ele><time>2022-06-12T08:13:42.000Z</time></trkpt><trkpt lon="6.077744" lat="50.968489"><ele>78.4</ele><time>2022-06-12T08:13:43.000Z</time></trkpt><trkpt lon="6.077732" lat="50.968541"><ele>78.2</ele><time>2022-06-12T08:13:44.000Z</time></trkpt><trkpt lon="6.077724" lat="50.968599"><ele>77.8</ele><time>2022-06-12T08:13:45.000Z</time></trkpt><trkpt lon="6.077712" lat="50.968664"><ele>77.6</ele><time>2022-06-12T08:13:46.000Z</time></trkpt><trkpt lon="6.077694" lat="50.968732"><ele>77.2</ele><time>2022-06-12T08:13:47.000Z</time></trkpt><trkpt lon="6.077669" lat="50.968801"><ele>77</ele><time>2022-06-12T08:13:48.000Z</time></trkpt><trkpt lon="6.077639" lat="50.968877"><ele>76.6</ele><time>2022-06-12T08:13:49.000Z</time></trkpt><trkpt lon="6.077612" lat="50.968945"><ele>76.6</ele><time>2022-06-12T08:13:50.000Z</time></trkpt><trkpt lon="6.077584" lat="50.969037"><ele>76.4</ele><time>2022-06-12T08:13:51.000Z</time></trkpt><trkpt lon="6.077566" lat="50.969121"><ele>76.2</ele><time>2022-06-12T08:13:52.000Z</time></trkpt><trkpt lon="6.077556" lat="50.969204"><ele>76</ele><time>2022-06-12T08:13:53.000Z</time></trkpt><trkpt lon="6.077557" lat="50.969291"><ele>75.8</ele><time>2022-06-12T08:13:54.000Z</time></trkpt><trkpt lon="6.077563" lat="50.96938"><ele>75.8</ele><time>2022-06-12T08:13:55.000Z</time></trkpt><trkpt lon="6.077572" lat="50.969468"><ele>75.6</ele><time>2022-06-12T08:13:56.000Z</time></trkpt><trkpt lon="6.077586" lat="50.96955"><ele>75.6</ele><time>2022-06-12T08:13:57.000Z</time></trkpt><trkpt lon="6.077604" lat="50.969636"><ele>75.6</ele><time>2022-06-12T08:13:58.000Z</time></trkpt><trkpt lon="6.077627" lat="50.969717"><ele>75.4</ele><time>2022-06-12T08:13:59.000Z</time></trkpt><trkpt lon="6.077653" lat="50.969793"><ele>75.4</ele><time>2022-06-12T08:14:00.000Z</time></trkpt><trkpt lon="6.077679" lat="50.969869"><ele>75.6</ele><time>2022-06-12T08:14:01.000Z</time></trkpt><trkpt lon="6.077707" lat="50.969941"><ele>75.6</ele><time>2022-06-12T08:14:02.000Z</time></trkpt><trkpt lon="6.077734" lat="50.970013"><ele>75.4</ele><time>2022-06-12T08:14:03.000Z</time></trkpt><trkpt lon="6.07776" lat="50.970085"><ele>75.4</ele><time>2022-06-12T08:14:04.000Z</time></trkpt><trkpt lon="6.077788" lat="50.970158"><ele>75.4</ele><time>2022-06-12T08:14:05.000Z</time></trkpt><trkpt lon="6.077819" lat="50.970227"><ele>75.4</ele><time>2022-06-12T08:14:06.000Z</time></trkpt><trkpt lon="6.077847" lat="50.970297"><ele>75.4</ele><time>2022-06-12T08:14:07.000Z</time></trkpt><trkpt lon="6.077876" lat="50.970366"><ele>75.6</ele><time>2022-06-12T08:14:08.000Z</time></trkpt><trkpt lon="6.077904" lat="50.97043"><ele>75.6</ele><time>2022-06-12T08:14:09.000Z</time></trkpt><trkpt lon="6.077933" lat="50.970496"><ele>75.6</ele><time>2022-06-12T08:14:10.000Z</time></trkpt><trkpt lon="6.077966" lat="50.970564"><ele>75.6</ele><time>2022-06-12T08:14:11.000Z</time></trkpt><trkpt lon="6.077994" lat="50.970631"><ele>75.6</ele><time>2022-06-12T08:14:12.000Z</time></trkpt><trkpt lon="6.07802" lat="50.9707"><ele>75.6</ele><time>2022-06-12T08:14:13.000Z</time></trkpt><trkpt lon="6.078047" lat="50.970766"><ele>75.6</ele><time>2022-06-12T08:14:14.000Z</time></trkpt><trkpt lon="6.078073" lat="50.970834"><ele>75.6</ele><time>2022-06-12T08:14:15.000Z</time></trkpt><trkpt lon="6.0781" lat="50.970902"><ele>75.6</ele><time>2022-06-12T08:14:16.000Z</time></trkpt><trkpt lon="6.07813" lat="50.970971"><ele>75.6</ele><time>2022-06-12T08:14:17.000Z</time></trkpt><trkpt lon="6.078162" lat="50.971041"><ele>75.6</ele><time>2022-06-12T08:14:18.000Z</time></trkpt><trkpt lon="6.078195" lat="50.971109"><ele>75.6</ele><time>2022-06-12T08:14:19.000Z</time></trkpt><trkpt lon="6.078231" lat="50.971178"><ele>75.6</ele><time>2022-06-12T08:14:20.000Z</time></trkpt><trkpt lon="6.078266" lat="50.971247"><ele>75.4</ele><time>2022-06-12T08:14:21.000Z</time></trkpt><trkpt lon="6.078305" lat="50.971311"><ele>75.4</ele><time>2022-06-12T08:14:22.000Z</time></trkpt><trkpt lon="6.078349" lat="50.97138"><ele>75.4</ele><time>2022-06-12T08:14:23.000Z</time></trkpt><trkpt lon="6.078393" lat="50.971445"><ele>75.4</ele><time>2022-06-12T08:14:24.000Z</time></trkpt><trkpt lon="6.078439" lat="50.97151"><ele>75.4</ele><time>2022-06-12T08:14:25.000Z</time></trkpt><trkpt lon="6.078479" lat="50.971575"><ele>75.2</ele><time>2022-06-12T08:14:26.000Z</time></trkpt><trkpt lon="6.078518" lat="50.971639"><ele>75.2</ele><time>2022-06-12T08:14:27.000Z</time></trkpt><trkpt lon="6.078553" lat="50.971699"><ele>75.2</ele><time>2022-06-12T08:14:28.000Z</time></trkpt><trkpt lon="6.078592" lat="50.971757"><ele>75.2</ele><time>2022-06-12T08:14:29.000Z</time></trkpt><trkpt lon="6.07863" lat="50.971821"><ele>75.2</ele><time>2022-06-12T08:14:30.000Z</time></trkpt><trkpt lon="6.078668" lat="50.971886"><ele>75.2</ele><time>2022-06-12T08:14:31.000Z</time></trkpt><trkpt lon="6.078706" lat="50.971955"><ele>75</ele><time>2022-06-12T08:14:32.000Z</time></trkpt><trkpt lon="6.078743" lat="50.972021"><ele>74.8</ele><time>2022-06-12T08:14:33.000Z</time></trkpt><trkpt lon="6.078777" lat="50.972082"><ele>74.8</ele><time>2022-06-12T08:14:34.000Z</time></trkpt><trkpt lon="6.078809" lat="50.972143"><ele>74.8</ele><time>2022-06-12T08:14:35.000Z</time></trkpt><trkpt lon="6.078835" lat="50.972199"><ele>74.6</ele><time>2022-06-12T08:14:36.000Z</time></trkpt><trkpt lon="6.078848" lat="50.972254"><ele>74.6</ele><time>2022-06-12T08:14:37.000Z</time></trkpt><trkpt lon="6.078853" lat="50.9723"><ele>74.6</ele><time>2022-06-12T08:14:38.000Z</time></trkpt><trkpt lon="6.078858" lat="50.972345"><ele>74.6</ele><time>2022-06-12T08:14:39.000Z</time></trkpt><trkpt lon="6.078865" lat="50.972387"><ele>74.4</ele><time>2022-06-12T08:14:40.000Z</time></trkpt><trkpt lon="6.07887" lat="50.972429"><ele>74.4</ele><time>2022-06-12T08:14:41.000Z</time></trkpt><trkpt lon="6.07888" lat="50.972476"><ele>74.2</ele><time>2022-06-12T08:14:42.000Z</time></trkpt><trkpt lon="6.078895" lat="50.972529"><ele>74.2</ele><time>2022-06-12T08:14:43.000Z</time></trkpt><trkpt lon="6.078912" lat="50.972582"><ele>74</ele><time>2022-06-12T08:14:44.000Z</time></trkpt><trkpt lon="6.078931" lat="50.972646"><ele>74</ele><time>2022-06-12T08:14:45.000Z</time></trkpt><trkpt lon="6.078948" lat="50.972711"><ele>74</ele><time>2022-06-12T08:14:46.000Z</time></trkpt><trkpt lon="6.078965" lat="50.972778"><ele>73.8</ele><time>2022-06-12T08:14:47.000Z</time></trkpt><trkpt lon="6.078984" lat="50.972845"><ele>73.8</ele><time>2022-06-12T08:14:48.000Z</time></trkpt><trkpt lon="6.078996" lat="50.97292"><ele>73.8</ele><time>2022-06-12T08:14:49.000Z</time></trkpt><trkpt lon="6.079008" lat="50.972997"><ele>73.6</ele><time>2022-06-12T08:14:50.000Z</time></trkpt><trkpt lon="6.079011" lat="50.973069"><ele>73.6</ele><time>2022-06-12T08:14:51.000Z</time></trkpt><trkpt lon="6.079011" lat="50.973138"><ele>73.4</ele><time>2022-06-12T08:14:52.000Z</time></trkpt><trkpt lon="6.079007" lat="50.973209"><ele>73.4</ele><time>2022-06-12T08:14:53.000Z</time></trkpt><trkpt lon="6.078999" lat="50.973283"><ele>73.2</ele><time>2022-06-12T08:14:54.000Z</time></trkpt><trkpt lon="6.078984" lat="50.973348"><ele>73.2</ele><time>2022-06-12T08:14:55.000Z</time></trkpt><trkpt lon="6.078964" lat="50.973417"><ele>73.2</ele><time>2022-06-12T08:14:56.000Z</time></trkpt><trkpt lon="6.078947" lat="50.973485"><ele>73.2</ele><time>2022-06-12T08:14:57.000Z</time></trkpt><trkpt lon="6.078931" lat="50.973554"><ele>73.2</ele><time>2022-06-12T08:14:58.000Z</time></trkpt><trkpt lon="6.078907" lat="50.973619"><ele>73.2</ele><time>2022-06-12T08:14:59.000Z</time></trkpt><trkpt lon="6.078878" lat="50.973684"><ele>73</ele><time>2022-06-12T08:15:00.000Z</time></trkpt><trkpt lon="6.078848" lat="50.973752"><ele>73</ele><time>2022-06-12T08:15:01.000Z</time></trkpt><trkpt lon="6.078816" lat="50.973824"><ele>73</ele><time>2022-06-12T08:15:02.000Z</time></trkpt><trkpt lon="6.078783" lat="50.973897"><ele>73</ele><time>2022-06-12T08:15:03.000Z</time></trkpt><trkpt lon="6.078747" lat="50.973976"><ele>73</ele><time>2022-06-12T08:15:04.000Z</time></trkpt><trkpt lon="6.078707" lat="50.974053"><ele>72.8</ele><time>2022-06-12T08:15:05.000Z</time></trkpt><trkpt lon="6.078662" lat="50.974129"><ele>72.8</ele><time>2022-06-12T08:15:06.000Z</time></trkpt><trkpt lon="6.078615" lat="50.974202"><ele>72.8</ele><time>2022-06-12T08:15:07.000Z</time></trkpt><trkpt lon="6.078568" lat="50.974272"><ele>72.8</ele><time>2022-06-12T08:15:08.000Z</time></trkpt><trkpt lon="6.07852" lat="50.974337"><ele>73</ele><time>2022-06-12T08:15:09.000Z</time></trkpt><trkpt lon="6.078473" lat="50.974401"><ele>73</ele><time>2022-06-12T08:15:10.000Z</time></trkpt><trkpt lon="6.078427" lat="50.97447"><ele>73</ele><time>2022-06-12T08:15:11.000Z</time></trkpt><trkpt lon="6.07838" lat="50.974534"><ele>73.2</ele><time>2022-06-12T08:15:12.000Z</time></trkpt><trkpt lon="6.078333" lat="50.974603"><ele>73.2</ele><time>2022-06-12T08:15:13.000Z</time></trkpt><trkpt lon="6.078284" lat="50.974664"><ele>73.4</ele><time>2022-06-12T08:15:14.000Z</time></trkpt><trkpt lon="6.078236" lat="50.974734"><ele>73.4</ele><time>2022-06-12T08:15:15.000Z</time></trkpt><trkpt lon="6.078187" lat="50.974798"><ele>73.4</ele><time>2022-06-12T08:15:16.000Z</time></trkpt><trkpt lon="6.078139" lat="50.974866"><ele>73.4</ele><time>2022-06-12T08:15:17.000Z</time></trkpt><trkpt lon="6.078092" lat="50.974931"><ele>73.6</ele><time>2022-06-12T08:15:18.000Z</time></trkpt><trkpt lon="6.078045" lat="50.974996"><ele>73.6</ele><time>2022-06-12T08:15:19.000Z</time></trkpt><trkpt lon="6.078" lat="50.975059"><ele>73.8</ele><time>2022-06-12T08:15:20.000Z</time></trkpt><trkpt lon="6.077953" lat="50.975122"><ele>74</ele><time>2022-06-12T08:15:21.000Z</time></trkpt><trkpt lon="6.077907" lat="50.975184"><ele>74</ele><time>2022-06-12T08:15:22.000Z</time></trkpt><trkpt lon="6.077861" lat="50.975245"><ele>74</ele><time>2022-06-12T08:15:23.000Z</time></trkpt><trkpt lon="6.077817" lat="50.975298"><ele>74.2</ele><time>2022-06-12T08:15:24.000Z</time></trkpt><trkpt lon="6.07777" lat="50.975355"><ele>74.2</ele><time>2022-06-12T08:15:25.000Z</time></trkpt><trkpt lon="6.077722" lat="50.975412"><ele>74.2</ele><time>2022-06-12T08:15:26.000Z</time></trkpt><trkpt lon="6.07768" lat="50.97547"><ele>74.4</ele><time>2022-06-12T08:15:27.000Z</time></trkpt><trkpt lon="6.077638" lat="50.975527"><ele>74.4</ele><time>2022-06-12T08:15:28.000Z</time></trkpt><trkpt lon="6.07759" lat="50.975584"><ele>74.6</ele><time>2022-06-12T08:15:29.000Z</time></trkpt><trkpt lon="6.077543" lat="50.975642"><ele>74.6</ele><time>2022-06-12T08:15:30.000Z</time></trkpt><trkpt lon="6.077496" lat="50.975695"><ele>74.8</ele><time>2022-06-12T08:15:31.000Z</time></trkpt><trkpt lon="6.07745" lat="50.975745"><ele>74.8</ele><time>2022-06-12T08:15:32.000Z</time></trkpt><trkpt lon="6.077403" lat="50.975798"><ele>74.8</ele><time>2022-06-12T08:15:33.000Z</time></trkpt><trkpt lon="6.077353" lat="50.97585"><ele>74.8</ele><time>2022-06-12T08:15:34.000Z</time></trkpt><trkpt lon="6.0773" lat="50.975904"><ele>75</ele><time>2022-06-12T08:15:35.000Z</time></trkpt><trkpt lon="6.077242" lat="50.97595"><ele>75</ele><time>2022-06-12T08:15:36.000Z</time></trkpt><trkpt lon="6.077189" lat="50.975994"><ele>75.2</ele><time>2022-06-12T08:15:37.000Z</time></trkpt><trkpt lon="6.07713" lat="50.97605"><ele>75.2</ele><time>2022-06-12T08:15:38.000Z</time></trkpt><trkpt lon="6.077071" lat="50.9761"><ele>75.2</ele><time>2022-06-12T08:15:39.000Z</time></trkpt><trkpt lon="6.077016" lat="50.976152"><ele>75.4</ele><time>2022-06-12T08:15:40.000Z</time></trkpt><trkpt lon="6.07696" lat="50.976202"><ele>75.6</ele><time>2022-06-12T08:15:41.000Z</time></trkpt><trkpt lon="6.076895" lat="50.976248"><ele>75.6</ele><time>2022-06-12T08:15:42.000Z</time></trkpt><trkpt lon="6.076835" lat="50.976297"><ele>75.6</ele><time>2022-06-12T08:15:43.000Z</time></trkpt><trkpt lon="6.076769" lat="50.976347"><ele>75.6</ele><time>2022-06-12T08:15:44.000Z</time></trkpt><trkpt lon="6.0767" lat="50.976401"><ele>75.4</ele><time>2022-06-12T08:15:45.000Z</time></trkpt><trkpt lon="6.076632" lat="50.97645"><ele>75.4</ele><time>2022-06-12T08:15:46.000Z</time></trkpt><trkpt lon="6.076564" lat="50.976503"><ele>75.4</ele><time>2022-06-12T08:15:47.000Z</time></trkpt><trkpt lon="6.076498" lat="50.976552"><ele>75.2</ele><time>2022-06-12T08:15:48.000Z</time></trkpt><trkpt lon="6.076431" lat="50.976606"><ele>75</ele><time>2022-06-12T08:15:49.000Z</time></trkpt><trkpt lon="6.076364" lat="50.976655"><ele>75</ele><time>2022-06-12T08:15:50.000Z</time></trkpt><trkpt lon="6.076292" lat="50.976702"><ele>74.8</ele><time>2022-06-12T08:15:51.000Z</time></trkpt><trkpt lon="6.07622" lat="50.976756"><ele>74.6</ele><time>2022-06-12T08:15:52.000Z</time></trkpt><trkpt lon="6.076149" lat="50.976812"><ele>74.4</ele><time>2022-06-12T08:15:53.000Z</time></trkpt><trkpt lon="6.076078" lat="50.976858"><ele>74.2</ele><time>2022-06-12T08:15:54.000Z</time></trkpt><trkpt lon="6.076013" lat="50.976911"><ele>74</ele><time>2022-06-12T08:15:55.000Z</time></trkpt><trkpt lon="6.075943" lat="50.976969"><ele>73.8</ele><time>2022-06-12T08:15:56.000Z</time></trkpt><trkpt lon="6.075872" lat="50.977022"><ele>73.6</ele><time>2022-06-12T08:15:57.000Z</time></trkpt><trkpt lon="6.075806" lat="50.977076"><ele>73.4</ele><time>2022-06-12T08:15:58.000Z</time></trkpt><trkpt lon="6.075737" lat="50.97713"><ele>73.2</ele><time>2022-06-12T08:15:59.000Z</time></trkpt><trkpt lon="6.07567" lat="50.977179"><ele>72.8</ele><time>2022-06-12T08:16:00.000Z</time></trkpt><trkpt lon="6.075602" lat="50.977229"><ele>72.6</ele><time>2022-06-12T08:16:01.000Z</time></trkpt><trkpt lon="6.075539" lat="50.977278"><ele>72.4</ele><time>2022-06-12T08:16:02.000Z</time></trkpt><trkpt lon="6.075482" lat="50.977324"><ele>72.2</ele><time>2022-06-12T08:16:03.000Z</time></trkpt><trkpt lon="6.075424" lat="50.977373"><ele>72</ele><time>2022-06-12T08:16:04.000Z</time></trkpt><trkpt lon="6.075368" lat="50.977426"><ele>71.8</ele><time>2022-06-12T08:16:05.000Z</time></trkpt><trkpt lon="6.075311" lat="50.977479"><ele>71.6</ele><time>2022-06-12T08:16:06.000Z</time></trkpt><trkpt lon="6.075253" lat="50.977536"><ele>71.4</ele><time>2022-06-12T08:16:07.000Z</time></trkpt><trkpt lon="6.075196" lat="50.977595"><ele>71.4</ele><time>2022-06-12T08:16:08.000Z</time></trkpt><trkpt lon="6.075149" lat="50.977656"><ele>71.2</ele><time>2022-06-12T08:16:09.000Z</time></trkpt><trkpt lon="6.0751" lat="50.977716"><ele>71.2</ele><time>2022-06-12T08:16:10.000Z</time></trkpt><trkpt lon="6.075044" lat="50.977773"><ele>71</ele><time>2022-06-12T08:16:11.000Z</time></trkpt><trkpt lon="6.074985" lat="50.977835"><ele>70.8</ele><time>2022-06-12T08:16:12.000Z</time></trkpt><trkpt lon="6.074927" lat="50.977895"><ele>70.8</ele><time>2022-06-12T08:16:13.000Z</time></trkpt><trkpt lon="6.074874" lat="50.977953"><ele>70.6</ele><time>2022-06-12T08:16:14.000Z</time></trkpt><trkpt lon="6.074816" lat="50.978009"><ele>70.6</ele><time>2022-06-12T08:16:15.000Z</time></trkpt><trkpt lon="6.07476" lat="50.978071"><ele>70.6</ele><time>2022-06-12T08:16:16.000Z</time></trkpt><trkpt lon="6.074704" lat="50.978133"><ele>70.4</ele><time>2022-06-12T08:16:17.000Z</time></trkpt><trkpt lon="6.074648" lat="50.978197"><ele>70.2</ele><time>2022-06-12T08:16:18.000Z</time></trkpt><trkpt lon="6.074588" lat="50.978261"><ele>70.2</ele><time>2022-06-12T08:16:19.000Z</time></trkpt><trkpt lon="6.07453" lat="50.978322"><ele>70</ele><time>2022-06-12T08:16:20.000Z</time></trkpt><trkpt lon="6.074471" lat="50.978383"><ele>70</ele><time>2022-06-12T08:16:21.000Z</time></trkpt><trkpt lon="6.074412" lat="50.978447"><ele>70</ele><time>2022-06-12T08:16:22.000Z</time></trkpt><trkpt lon="6.074353" lat="50.978509"><ele>69.8</ele><time>2022-06-12T08:16:23.000Z</time></trkpt><trkpt lon="6.074297" lat="50.978564"><ele>69.8</ele><time>2022-06-12T08:16:24.000Z</time></trkpt><trkpt lon="6.074243" lat="50.978621"><ele>70</ele><time>2022-06-12T08:16:25.000Z</time></trkpt><trkpt lon="6.07419" lat="50.978681"><ele>69.8</ele><time>2022-06-12T08:16:26.000Z</time></trkpt><trkpt lon="6.074137" lat="50.978738"><ele>69.8</ele><time>2022-06-12T08:16:27.000Z</time></trkpt><trkpt lon="6.074084" lat="50.978799"><ele>70</ele><time>2022-06-12T08:16:28.000Z</time></trkpt><trkpt lon="6.074036" lat="50.978863"><ele>70</ele><time>2022-06-12T08:16:29.000Z</time></trkpt><trkpt lon="6.073994" lat="50.978928"><ele>70</ele><time>2022-06-12T08:16:30.000Z</time></trkpt><trkpt lon="6.073957" lat="50.978993"><ele>70</ele><time>2022-06-12T08:16:31.000Z</time></trkpt><trkpt lon="6.073926" lat="50.979059"><ele>70</ele><time>2022-06-12T08:16:32.000Z</time></trkpt><trkpt lon="6.073905" lat="50.979122"><ele>70</ele><time>2022-06-12T08:16:33.000Z</time></trkpt><trkpt lon="6.073888" lat="50.979183"><ele>70.2</ele><time>2022-06-12T08:16:34.000Z</time></trkpt><trkpt lon="6.073875" lat="50.979249"><ele>70.2</ele><time>2022-06-12T08:16:35.000Z</time></trkpt><trkpt lon="6.073865" lat="50.979307"><ele>70.2</ele><time>2022-06-12T08:16:36.000Z</time></trkpt><trkpt lon="6.073859" lat="50.979363"><ele>70.2</ele><time>2022-06-12T08:16:37.000Z</time></trkpt><trkpt lon="6.073852" lat="50.979418"><ele>70.4</ele><time>2022-06-12T08:16:38.000Z</time></trkpt><trkpt lon="6.073845" lat="50.979471"><ele>70.4</ele><time>2022-06-12T08:16:39.000Z</time></trkpt><trkpt lon="6.07384" lat="50.979524"><ele>70.4</ele><time>2022-06-12T08:16:40.000Z</time></trkpt><trkpt lon="6.073837" lat="50.979569"><ele>70.4</ele><time>2022-06-12T08:16:41.000Z</time></trkpt><trkpt lon="6.073841" lat="50.97962"><ele>70.6</ele><time>2022-06-12T08:16:42.000Z</time></trkpt><trkpt lon="6.073857" lat="50.979665"><ele>70.6</ele><time>2022-06-12T08:16:43.000Z</time></trkpt><trkpt lon="6.073884" lat="50.979708"><ele>70.6</ele><time>2022-06-12T08:16:44.000Z</time></trkpt><trkpt lon="6.073918" lat="50.97975"><ele>70.6</ele><time>2022-06-12T08:16:45.000Z</time></trkpt><trkpt lon="6.073955" lat="50.979792"><ele>70.6</ele><time>2022-06-12T08:16:46.000Z</time></trkpt><trkpt lon="6.073978" lat="50.979831"><ele>70.6</ele><time>2022-06-12T08:16:47.000Z</time></trkpt><trkpt lon="6.073983" lat="50.979883"><ele>70.6</ele><time>2022-06-12T08:16:48.000Z</time></trkpt><trkpt lon="6.073963" lat="50.979933"><ele>70.4</ele><time>2022-06-12T08:16:49.000Z</time></trkpt><trkpt lon="6.073913" lat="50.979983"><ele>70.2</ele><time>2022-06-12T08:16:50.000Z</time></trkpt><trkpt lon="6.07384" lat="50.980028"><ele>70.2</ele><time>2022-06-12T08:16:51.000Z</time></trkpt><trkpt lon="6.073751" lat="50.98006"><ele>70.2</ele><time>2022-06-12T08:16:52.000Z</time></trkpt><trkpt lon="6.073656" lat="50.98009"><ele>70</ele><time>2022-06-12T08:16:53.000Z</time></trkpt><trkpt lon="6.073556" lat="50.980113"><ele>69.8</ele><time>2022-06-12T08:16:54.000Z</time></trkpt><trkpt lon="6.073451" lat="50.980143"><ele>69.6</ele><time>2022-06-12T08:16:55.000Z</time></trkpt><trkpt lon="6.073343" lat="50.980181"><ele>69.2</ele><time>2022-06-12T08:16:56.000Z</time></trkpt><trkpt lon="6.073237" lat="50.980222"><ele>69.2</ele><time>2022-06-12T08:16:57.000Z</time></trkpt><trkpt lon="6.073134" lat="50.980265"><ele>69</ele><time>2022-06-12T08:16:58.000Z</time></trkpt><trkpt lon="6.073036" lat="50.980311"><ele>68.8</ele><time>2022-06-12T08:16:59.000Z</time></trkpt><trkpt lon="6.072936" lat="50.980346"><ele>69</ele><time>2022-06-12T08:17:00.000Z</time></trkpt><trkpt lon="6.072837" lat="50.980387"><ele>69</ele><time>2022-06-12T08:17:01.000Z</time></trkpt><trkpt lon="6.072735" lat="50.980426"><ele>68.8</ele><time>2022-06-12T08:17:02.000Z</time></trkpt><trkpt lon="6.072631" lat="50.980459"><ele>68.6</ele><time>2022-06-12T08:17:03.000Z</time></trkpt><trkpt lon="6.072521" lat="50.980486"><ele>68.6</ele><time>2022-06-12T08:17:04.000Z</time></trkpt><trkpt lon="6.072413" lat="50.98052"><ele>68.6</ele><time>2022-06-12T08:17:05.000Z</time></trkpt><trkpt lon="6.072308" lat="50.980554"><ele>68.6</ele><time>2022-06-12T08:17:06.000Z</time></trkpt><trkpt lon="6.0722" lat="50.980589"><ele>68.6</ele><time>2022-06-12T08:17:07.000Z</time></trkpt><trkpt lon="6.072094" lat="50.980624"><ele>68.6</ele><time>2022-06-12T08:17:08.000Z</time></trkpt><trkpt lon="6.07199" lat="50.980658"><ele>68.6</ele><time>2022-06-12T08:17:09.000Z</time></trkpt><trkpt lon="6.071891" lat="50.980688"><ele>68.6</ele><time>2022-06-12T08:17:10.000Z</time></trkpt><trkpt lon="6.071788" lat="50.980718"><ele>68.6</ele><time>2022-06-12T08:17:11.000Z</time></trkpt><trkpt lon="6.071682" lat="50.98075"><ele>68.4</ele><time>2022-06-12T08:17:12.000Z</time></trkpt><trkpt lon="6.071587" lat="50.980776"><ele>68.4</ele><time>2022-06-12T08:17:13.000Z</time></trkpt><trkpt lon="6.071492" lat="50.98081"><ele>68.4</ele><time>2022-06-12T08:17:14.000Z</time></trkpt><trkpt lon="6.071395" lat="50.980844"><ele>68.2</ele><time>2022-06-12T08:17:15.000Z</time></trkpt><trkpt lon="6.071298" lat="50.98088"><ele>68.4</ele><time>2022-06-12T08:17:16.000Z</time></trkpt><trkpt lon="6.071205" lat="50.98091"><ele>68.4</ele><time>2022-06-12T08:17:17.000Z</time></trkpt><trkpt lon="6.071108" lat="50.980933"><ele>68.4</ele><time>2022-06-12T08:17:18.000Z</time></trkpt><trkpt lon="6.071004" lat="50.980952"><ele>68.4</ele><time>2022-06-12T08:17:19.000Z</time></trkpt><trkpt lon="6.070895" lat="50.98096"><ele>68.4</ele><time>2022-06-12T08:17:20.000Z</time></trkpt><trkpt lon="6.070783" lat="50.980968"><ele>68.4</ele><time>2022-06-12T08:17:21.000Z</time></trkpt><trkpt lon="6.070668" lat="50.980968"><ele>68.6</ele><time>2022-06-12T08:17:22.000Z</time></trkpt><trkpt lon="6.070558" lat="50.980972"><ele>68.4</ele><time>2022-06-12T08:17:23.000Z</time></trkpt><trkpt lon="6.070442" lat="50.980976"><ele>68.2</ele><time>2022-06-12T08:17:24.000Z</time></trkpt><trkpt lon="6.070337" lat="50.98098"><ele>68.4</ele><time>2022-06-12T08:17:25.000Z</time></trkpt><trkpt lon="6.07023" lat="50.980984"><ele>68.4</ele><time>2022-06-12T08:17:26.000Z</time></trkpt><trkpt lon="6.070125" lat="50.980991"><ele>68.4</ele><time>2022-06-12T08:17:27.000Z</time></trkpt><trkpt lon="6.070018" lat="50.980999"><ele>68.6</ele><time>2022-06-12T08:17:28.000Z</time></trkpt><trkpt lon="6.069911" lat="50.981006"><ele>68.6</ele><time>2022-06-12T08:17:29.000Z</time></trkpt><trkpt lon="6.069808" lat="50.981014"><ele>68.6</ele><time>2022-06-12T08:17:30.000Z</time></trkpt><trkpt lon="6.069707" lat="50.981022"><ele>68.6</ele><time>2022-06-12T08:17:31.000Z</time></trkpt><trkpt lon="6.069605" lat="50.981033"><ele>68.6</ele><time>2022-06-12T08:17:32.000Z</time></trkpt><trkpt lon="6.06951" lat="50.981048"><ele>68.6</ele><time>2022-06-12T08:17:33.000Z</time></trkpt><trkpt lon="6.06942" lat="50.981059"><ele>68.4</ele><time>2022-06-12T08:17:34.000Z</time></trkpt><trkpt lon="6.069335" lat="50.981074"><ele>68.4</ele><time>2022-06-12T08:17:35.000Z</time></trkpt><trkpt lon="6.069254" lat="50.981093"><ele>68.4</ele><time>2022-06-12T08:17:36.000Z</time></trkpt><trkpt lon="6.069172" lat="50.981105"><ele>68.4</ele><time>2022-06-12T08:17:37.000Z</time></trkpt><trkpt lon="6.069096" lat="50.981117"><ele>68.4</ele><time>2022-06-12T08:17:38.000Z</time></trkpt><trkpt lon="6.069018" lat="50.981139"><ele>68.2</ele><time>2022-06-12T08:17:39.000Z</time></trkpt><trkpt lon="6.068938" lat="50.981162"><ele>68.4</ele><time>2022-06-12T08:17:40.000Z</time></trkpt><trkpt lon="6.068851" lat="50.981188"><ele>68.4</ele><time>2022-06-12T08:17:41.000Z</time></trkpt><trkpt lon="6.068761" lat="50.981218"><ele>68.4</ele><time>2022-06-12T08:17:42.000Z</time></trkpt><trkpt lon="6.068668" lat="50.981245"><ele>68.2</ele><time>2022-06-12T08:17:43.000Z</time></trkpt><trkpt lon="6.068568" lat="50.981272"><ele>68</ele><time>2022-06-12T08:17:44.000Z</time></trkpt><trkpt lon="6.068465" lat="50.981295"><ele>67.8</ele><time>2022-06-12T08:17:45.000Z</time></trkpt><trkpt lon="6.068362" lat="50.981315"><ele>67.8</ele><time>2022-06-12T08:17:46.000Z</time></trkpt><trkpt lon="6.068258" lat="50.981334"><ele>67.8</ele><time>2022-06-12T08:17:47.000Z</time></trkpt><trkpt lon="6.068148" lat="50.981349"><ele>67.6</ele><time>2022-06-12T08:17:48.000Z</time></trkpt><trkpt lon="6.068048" lat="50.981368"><ele>67.6</ele><time>2022-06-12T08:17:49.000Z</time></trkpt><trkpt lon="6.067936" lat="50.981387"><ele>67.4</ele><time>2022-06-12T08:17:50.000Z</time></trkpt><trkpt lon="6.067842" lat="50.981404"><ele>67.4</ele><time>2022-06-12T08:17:51.000Z</time></trkpt><trkpt lon="6.067724" lat="50.981422"><ele>67.2</ele><time>2022-06-12T08:17:52.000Z</time></trkpt><trkpt lon="6.067624" lat="50.981437"><ele>67.2</ele><time>2022-06-12T08:17:53.000Z</time></trkpt><trkpt lon="6.06752" lat="50.981452"><ele>67.2</ele><time>2022-06-12T08:17:54.000Z</time></trkpt><trkpt lon="6.067418" lat="50.981468"><ele>67.2</ele><time>2022-06-12T08:17:55.000Z</time></trkpt><trkpt lon="6.067319" lat="50.981483"><ele>67</ele><time>2022-06-12T08:17:56.000Z</time></trkpt><trkpt lon="6.067224" lat="50.981498"><ele>67</ele><time>2022-06-12T08:17:57.000Z</time></trkpt><trkpt lon="6.067126" lat="50.981517"><ele>67</ele><time>2022-06-12T08:17:58.000Z</time></trkpt><trkpt lon="6.067025" lat="50.981532"><ele>67</ele><time>2022-06-12T08:17:59.000Z</time></trkpt><trkpt lon="6.066924" lat="50.981547"><ele>67</ele><time>2022-06-12T08:18:00.000Z</time></trkpt><trkpt lon="6.066823" lat="50.981559"><ele>67</ele><time>2022-06-12T08:18:01.000Z</time></trkpt><trkpt lon="6.066716" lat="50.981574"><ele>67</ele><time>2022-06-12T08:18:02.000Z</time></trkpt><trkpt lon="6.066614" lat="50.981589"><ele>66.8</ele><time>2022-06-12T08:18:03.000Z</time></trkpt><trkpt lon="6.066518" lat="50.981607"><ele>66.8</ele><time>2022-06-12T08:18:04.000Z</time></trkpt><trkpt lon="6.066413" lat="50.981627"><ele>66.8</ele><time>2022-06-12T08:18:05.000Z</time></trkpt><trkpt lon="6.066312" lat="50.981649"><ele>66.8</ele><time>2022-06-12T08:18:06.000Z</time></trkpt><trkpt lon="6.066218" lat="50.981664"><ele>67</ele><time>2022-06-12T08:18:07.000Z</time></trkpt><trkpt lon="6.066105" lat="50.981685"><ele>67</ele><time>2022-06-12T08:18:08.000Z</time></trkpt><trkpt lon="6.066008" lat="50.981704"><ele>66.8</ele><time>2022-06-12T08:18:09.000Z</time></trkpt><trkpt lon="6.065912" lat="50.981719"><ele>66.8</ele><time>2022-06-12T08:18:10.000Z</time></trkpt><trkpt lon="6.065817" lat="50.981735"><ele>66.8</ele><time>2022-06-12T08:18:11.000Z</time></trkpt><trkpt lon="6.065719" lat="50.98175"><ele>66.8</ele><time>2022-06-12T08:18:12.000Z</time></trkpt><trkpt lon="6.065617" lat="50.981765"><ele>66.8</ele><time>2022-06-12T08:18:13.000Z</time></trkpt><trkpt lon="6.065517" lat="50.981779"><ele>66.8</ele><time>2022-06-12T08:18:14.000Z</time></trkpt><trkpt lon="6.065403" lat="50.981792"><ele>66.8</ele><time>2022-06-12T08:18:15.000Z</time></trkpt><trkpt lon="6.065296" lat="50.981807"><ele>66.8</ele><time>2022-06-12T08:18:16.000Z</time></trkpt><trkpt lon="6.065191" lat="50.981822"><ele>66.8</ele><time>2022-06-12T08:18:17.000Z</time></trkpt><trkpt lon="6.065085" lat="50.981834"><ele>66.8</ele><time>2022-06-12T08:18:18.000Z</time></trkpt><trkpt lon="6.064981" lat="50.981842"><ele>66.6</ele><time>2022-06-12T08:18:19.000Z</time></trkpt><trkpt lon="6.064874" lat="50.981857"><ele>66.6</ele><time>2022-06-12T08:18:20.000Z</time></trkpt><trkpt lon="6.06477" lat="50.981868"><ele>66.6</ele><time>2022-06-12T08:18:21.000Z</time></trkpt><trkpt lon="6.064665" lat="50.981884"><ele>66.6</ele><time>2022-06-12T08:18:22.000Z</time></trkpt><trkpt lon="6.064565" lat="50.981903"><ele>66.8</ele><time>2022-06-12T08:18:23.000Z</time></trkpt><trkpt lon="6.064463" lat="50.981918"><ele>66.8</ele><time>2022-06-12T08:18:24.000Z</time></trkpt><trkpt lon="6.064365" lat="50.981937"><ele>66.8</ele><time>2022-06-12T08:18:25.000Z</time></trkpt><trkpt lon="6.064268" lat="50.981952"><ele>66.8</ele><time>2022-06-12T08:18:26.000Z</time></trkpt><trkpt lon="6.064168" lat="50.981964"><ele>66.8</ele><time>2022-06-12T08:18:27.000Z</time></trkpt><trkpt lon="6.064067" lat="50.981975"><ele>66.6</ele><time>2022-06-12T08:18:28.000Z</time></trkpt><trkpt lon="6.063963" lat="50.981983"><ele>66.4</ele><time>2022-06-12T08:18:29.000Z</time></trkpt><trkpt lon="6.063859" lat="50.981991"><ele>66.2</ele><time>2022-06-12T08:18:30.000Z</time></trkpt><trkpt lon="6.063756" lat="50.981991"><ele>66</ele><time>2022-06-12T08:18:31.000Z</time></trkpt><trkpt lon="6.063651" lat="50.981994"><ele>66</ele><time>2022-06-12T08:18:32.000Z</time></trkpt><trkpt lon="6.06355" lat="50.981998"><ele>66</ele><time>2022-06-12T08:18:33.000Z</time></trkpt><trkpt lon="6.063449" lat="50.982006"><ele>66.2</ele><time>2022-06-12T08:18:34.000Z</time></trkpt><trkpt lon="6.063351" lat="50.982013"><ele>66.2</ele><time>2022-06-12T08:18:35.000Z</time></trkpt><trkpt lon="6.063252" lat="50.982021"><ele>66.2</ele><time>2022-06-12T08:18:36.000Z</time></trkpt><trkpt lon="6.063152" lat="50.982029"><ele>66</ele><time>2022-06-12T08:18:37.000Z</time></trkpt><trkpt lon="6.063055" lat="50.982036"><ele>66</ele><time>2022-06-12T08:18:38.000Z</time></trkpt><trkpt lon="6.062961" lat="50.98204"><ele>66</ele><time>2022-06-12T08:18:39.000Z</time></trkpt><trkpt lon="6.06287" lat="50.982048"><ele>66</ele><time>2022-06-12T08:18:40.000Z</time></trkpt><trkpt lon="6.062777" lat="50.982052"><ele>66</ele><time>2022-06-12T08:18:41.000Z</time></trkpt><trkpt lon="6.062678" lat="50.982059"><ele>66</ele><time>2022-06-12T08:18:42.000Z</time></trkpt><trkpt lon="6.062577" lat="50.982063"><ele>66</ele><time>2022-06-12T08:18:43.000Z</time></trkpt><trkpt lon="6.062474" lat="50.982063"><ele>66</ele><time>2022-06-12T08:18:44.000Z</time></trkpt><trkpt lon="6.062368" lat="50.982063"><ele>65.8</ele><time>2022-06-12T08:18:45.000Z</time></trkpt><trkpt lon="6.062267" lat="50.982063"><ele>65.8</ele><time>2022-06-12T08:18:46.000Z</time></trkpt><trkpt lon="6.062165" lat="50.982063"><ele>65.8</ele><time>2022-06-12T08:18:47.000Z</time></trkpt><trkpt lon="6.062069" lat="50.98206"><ele>65.8</ele><time>2022-06-12T08:18:48.000Z</time></trkpt><trkpt lon="6.061972" lat="50.982056"><ele>65.6</ele><time>2022-06-12T08:18:49.000Z</time></trkpt><trkpt lon="6.06188" lat="50.982052"><ele>65.6</ele><time>2022-06-12T08:18:50.000Z</time></trkpt><trkpt lon="6.061789" lat="50.982045"><ele>65.6</ele><time>2022-06-12T08:18:51.000Z</time></trkpt><trkpt lon="6.061698" lat="50.982033"><ele>65.6</ele><time>2022-06-12T08:18:52.000Z</time></trkpt><trkpt lon="6.06161" lat="50.982014"><ele>65.6</ele><time>2022-06-12T08:18:53.000Z</time></trkpt><trkpt lon="6.06152" lat="50.981988"><ele>65.6</ele><time>2022-06-12T08:18:54.000Z</time></trkpt><trkpt lon="6.061427" lat="50.981961"><ele>65.6</ele><time>2022-06-12T08:18:55.000Z</time></trkpt><trkpt lon="6.061322" lat="50.981942"><ele>65.6</ele><time>2022-06-12T08:18:56.000Z</time></trkpt><trkpt lon="6.061205" lat="50.981927"><ele>65.6</ele><time>2022-06-12T08:18:57.000Z</time></trkpt><trkpt lon="6.061095" lat="50.981916"><ele>65.4</ele><time>2022-06-12T08:18:58.000Z</time></trkpt><trkpt lon="6.06097" lat="50.981904"><ele>65.4</ele><time>2022-06-12T08:18:59.000Z</time></trkpt><trkpt lon="6.060856" lat="50.981888"><ele>65.4</ele><time>2022-06-12T08:19:00.000Z</time></trkpt><trkpt lon="6.060745" lat="50.981873"><ele>65.2</ele><time>2022-06-12T08:19:01.000Z</time></trkpt><trkpt lon="6.060638" lat="50.981858"><ele>65.4</ele><time>2022-06-12T08:19:02.000Z</time></trkpt><trkpt lon="6.060529" lat="50.981843"><ele>65.2</ele><time>2022-06-12T08:19:03.000Z</time></trkpt><trkpt lon="6.060419" lat="50.981827"><ele>65.2</ele><time>2022-06-12T08:19:04.000Z</time></trkpt><trkpt lon="6.060309" lat="50.981816"><ele>65</ele><time>2022-06-12T08:19:05.000Z</time></trkpt><trkpt lon="6.060201" lat="50.981801"><ele>65</ele><time>2022-06-12T08:19:06.000Z</time></trkpt><trkpt lon="6.060092" lat="50.981785"><ele>64.8</ele><time>2022-06-12T08:19:07.000Z</time></trkpt><trkpt lon="6.059985" lat="50.981774"><ele>64.8</ele><time>2022-06-12T08:19:08.000Z</time></trkpt><trkpt lon="6.059878" lat="50.981762"><ele>64.6</ele><time>2022-06-12T08:19:09.000Z</time></trkpt><trkpt lon="6.059777" lat="50.981747"><ele>64.6</ele><time>2022-06-12T08:19:10.000Z</time></trkpt><trkpt lon="6.059673" lat="50.981739"><ele>64.6</ele><time>2022-06-12T08:19:11.000Z</time></trkpt><trkpt lon="6.059568" lat="50.981728"><ele>64.4</ele><time>2022-06-12T08:19:12.000Z</time></trkpt><trkpt lon="6.059466" lat="50.981717"><ele>64.4</ele><time>2022-06-12T08:19:13.000Z</time></trkpt><trkpt lon="6.059361" lat="50.981705"><ele>64.4</ele><time>2022-06-12T08:19:14.000Z</time></trkpt><trkpt lon="6.059254" lat="50.981694"><ele>64.4</ele><time>2022-06-12T08:19:15.000Z</time></trkpt><trkpt lon="6.059149" lat="50.981679"><ele>64.4</ele><time>2022-06-12T08:19:16.000Z</time></trkpt><trkpt lon="6.059046" lat="50.981663"><ele>64.2</ele><time>2022-06-12T08:19:17.000Z</time></trkpt><trkpt lon="6.05894" lat="50.981652"><ele>64.2</ele><time>2022-06-12T08:19:18.000Z</time></trkpt><trkpt lon="6.058835" lat="50.98164"><ele>64.2</ele><time>2022-06-12T08:19:19.000Z</time></trkpt><trkpt lon="6.058731" lat="50.981629"><ele>64</ele><time>2022-06-12T08:19:20.000Z</time></trkpt><trkpt lon="6.058628" lat="50.981617"><ele>64</ele><time>2022-06-12T08:19:21.000Z</time></trkpt><trkpt lon="6.058525" lat="50.98161"><ele>64</ele><time>2022-06-12T08:19:22.000Z</time></trkpt><trkpt lon="6.058416" lat="50.981602"><ele>64</ele><time>2022-06-12T08:19:23.000Z</time></trkpt><trkpt lon="6.05831" lat="50.981594"><ele>63.8</ele><time>2022-06-12T08:19:24.000Z</time></trkpt><trkpt lon="6.05821" lat="50.981583"><ele>63.8</ele><time>2022-06-12T08:19:25.000Z</time></trkpt><trkpt lon="6.05811" lat="50.981575"><ele>64</ele><time>2022-06-12T08:19:26.000Z</time></trkpt><trkpt lon="6.058003" lat="50.981564"><ele>64</ele><time>2022-06-12T08:19:27.000Z</time></trkpt><trkpt lon="6.057895" lat="50.981556"><ele>64</ele><time>2022-06-12T08:19:28.000Z</time></trkpt><trkpt lon="6.057784" lat="50.981549"><ele>64</ele><time>2022-06-12T08:19:29.000Z</time></trkpt><trkpt lon="6.057677" lat="50.981537"><ele>64</ele><time>2022-06-12T08:19:30.000Z</time></trkpt><trkpt lon="6.057566" lat="50.981526"><ele>64</ele><time>2022-06-12T08:19:31.000Z</time></trkpt><trkpt lon="6.057455" lat="50.981518"><ele>63.8</ele><time>2022-06-12T08:19:32.000Z</time></trkpt><trkpt lon="6.057348" lat="50.981507"><ele>63.8</ele><time>2022-06-12T08:19:33.000Z</time></trkpt><trkpt lon="6.05724" lat="50.981499"><ele>63.8</ele><time>2022-06-12T08:19:34.000Z</time></trkpt><trkpt lon="6.057129" lat="50.981488"><ele>63.6</ele><time>2022-06-12T08:19:35.000Z</time></trkpt><trkpt lon="6.057018" lat="50.98148"><ele>63.6</ele><time>2022-06-12T08:19:36.000Z</time></trkpt><trkpt lon="6.056911" lat="50.981469"><ele>63.6</ele><time>2022-06-12T08:19:37.000Z</time></trkpt><trkpt lon="6.056809" lat="50.981461"><ele>63.6</ele><time>2022-06-12T08:19:38.000Z</time></trkpt><trkpt lon="6.056704" lat="50.981449"><ele>63.6</ele><time>2022-06-12T08:19:39.000Z</time></trkpt><trkpt lon="6.0566" lat="50.981438"><ele>63.6</ele><time>2022-06-12T08:19:40.000Z</time></trkpt><trkpt lon="6.056497" lat="50.98143"><ele>63.6</ele><time>2022-06-12T08:19:41.000Z</time></trkpt><trkpt lon="6.05639" lat="50.981419"><ele>63.8</ele><time>2022-06-12T08:19:42.000Z</time></trkpt><trkpt lon="6.056286" lat="50.981415"><ele>63.8</ele><time>2022-06-12T08:19:43.000Z</time></trkpt><trkpt lon="6.056181" lat="50.981404"><ele>63.8</ele><time>2022-06-12T08:19:44.000Z</time></trkpt><trkpt lon="6.056072" lat="50.9814"><ele>63.6</ele><time>2022-06-12T08:19:45.000Z</time></trkpt><trkpt lon="6.055969" lat="50.981392"><ele>63.6</ele><time>2022-06-12T08:19:46.000Z</time></trkpt><trkpt lon="6.05587" lat="50.981381"><ele>63.8</ele><time>2022-06-12T08:19:47.000Z</time></trkpt><trkpt lon="6.055772" lat="50.981369"><ele>64</ele><time>2022-06-12T08:19:48.000Z</time></trkpt><trkpt lon="6.055677" lat="50.981354"><ele>64</ele><time>2022-06-12T08:19:49.000Z</time></trkpt><trkpt lon="6.05558" lat="50.981339"><ele>64</ele><time>2022-06-12T08:19:50.000Z</time></trkpt><trkpt lon="6.05548" lat="50.981327"><ele>64</ele><time>2022-06-12T08:19:51.000Z</time></trkpt><trkpt lon="6.055383" lat="50.98132"><ele>64</ele><time>2022-06-12T08:19:52.000Z</time></trkpt><trkpt lon="6.055291" lat="50.981308"><ele>64</ele><time>2022-06-12T08:19:53.000Z</time></trkpt><trkpt lon="6.055205" lat="50.981297"><ele>64</ele><time>2022-06-12T08:19:54.000Z</time></trkpt><trkpt lon="6.055122" lat="50.981293"><ele>64</ele><time>2022-06-12T08:19:55.000Z</time></trkpt><trkpt lon="6.055032" lat="50.981285"><ele>63.8</ele><time>2022-06-12T08:19:56.000Z</time></trkpt><trkpt lon="6.054932" lat="50.981281"><ele>63.8</ele><time>2022-06-12T08:19:57.000Z</time></trkpt><trkpt lon="6.05483" lat="50.98127"><ele>63.8</ele><time>2022-06-12T08:19:58.000Z</time></trkpt><trkpt lon="6.054727" lat="50.981262"><ele>63.8</ele><time>2022-06-12T08:19:59.000Z</time></trkpt><trkpt lon="6.054619" lat="50.981259"><ele>63.6</ele><time>2022-06-12T08:20:00.000Z</time></trkpt><trkpt lon="6.054511" lat="50.981255"><ele>63.6</ele><time>2022-06-12T08:20:01.000Z</time></trkpt><trkpt lon="6.054403" lat="50.981251"><ele>63.6</ele><time>2022-06-12T08:20:02.000Z</time></trkpt><trkpt lon="6.054298" lat="50.981247"><ele>63.6</ele><time>2022-06-12T08:20:03.000Z</time></trkpt><trkpt lon="6.054191" lat="50.981243"><ele>63.6</ele><time>2022-06-12T08:20:04.000Z</time></trkpt><trkpt lon="6.054085" lat="50.981236"><ele>63.6</ele><time>2022-06-12T08:20:05.000Z</time></trkpt><trkpt lon="6.053977" lat="50.981232"><ele>63.4</ele><time>2022-06-12T08:20:06.000Z</time></trkpt><trkpt lon="6.053883" lat="50.981225"><ele>63.4</ele><time>2022-06-12T08:20:07.000Z</time></trkpt><trkpt lon="6.053767" lat="50.981217"><ele>63.4</ele><time>2022-06-12T08:20:08.000Z</time></trkpt><trkpt lon="6.053665" lat="50.981213"><ele>63.2</ele><time>2022-06-12T08:20:09.000Z</time></trkpt><trkpt lon="6.053569" lat="50.981205"><ele>63.2</ele><time>2022-06-12T08:20:10.000Z</time></trkpt><trkpt lon="6.053477" lat="50.981201"><ele>63.2</ele><time>2022-06-12T08:20:11.000Z</time></trkpt><trkpt lon="6.053394" lat="50.981194"><ele>63.2</ele><time>2022-06-12T08:20:12.000Z</time></trkpt><trkpt lon="6.053318" lat="50.98119"><ele>63</ele><time>2022-06-12T08:20:13.000Z</time></trkpt><trkpt lon="6.053248" lat="50.981182"><ele>63</ele><time>2022-06-12T08:20:14.000Z</time></trkpt><trkpt lon="6.053189" lat="50.981178"><ele>63</ele><time>2022-06-12T08:20:15.000Z</time></trkpt><trkpt lon="6.053139" lat="50.981171"><ele>63</ele><time>2022-06-12T08:20:16.000Z</time></trkpt><trkpt lon="6.053092" lat="50.981167"><ele>63</ele><time>2022-06-12T08:20:17.000Z</time></trkpt><trkpt lon="6.053044" lat="50.981167"><ele>63</ele><time>2022-06-12T08:20:18.000Z</time></trkpt><trkpt lon="6.052985" lat="50.981163"><ele>63.2</ele><time>2022-06-12T08:20:19.000Z</time></trkpt><trkpt lon="6.052921" lat="50.981159"><ele>63.2</ele><time>2022-06-12T08:20:20.000Z</time></trkpt><trkpt lon="6.052846" lat="50.981159"><ele>63.2</ele><time>2022-06-12T08:20:21.000Z</time></trkpt><trkpt lon="6.052755" lat="50.981159"><ele>63.2</ele><time>2022-06-12T08:20:22.000Z</time></trkpt><trkpt lon="6.052655" lat="50.981163"><ele>63</ele><time>2022-06-12T08:20:23.000Z</time></trkpt><trkpt lon="6.052543" lat="50.981163"><ele>62.8</ele><time>2022-06-12T08:20:24.000Z</time></trkpt><trkpt lon="6.052427" lat="50.981163"><ele>62.8</ele><time>2022-06-12T08:20:25.000Z</time></trkpt><trkpt lon="6.052313" lat="50.981163"><ele>62.8</ele><time>2022-06-12T08:20:26.000Z</time></trkpt><trkpt lon="6.052197" lat="50.981163"><ele>62.8</ele><time>2022-06-12T08:20:27.000Z</time></trkpt><trkpt lon="6.052083" lat="50.981163"><ele>62.6</ele><time>2022-06-12T08:20:28.000Z</time></trkpt><trkpt lon="6.051967" lat="50.981167"><ele>62.6</ele><time>2022-06-12T08:20:29.000Z</time></trkpt><trkpt lon="6.051848" lat="50.981167"><ele>62.6</ele><time>2022-06-12T08:20:30.000Z</time></trkpt><trkpt lon="6.051733" lat="50.981177"><ele>62.6</ele><time>2022-06-12T08:20:31.000Z</time></trkpt><trkpt lon="6.051614" lat="50.981189"><ele>62.6</ele><time>2022-06-12T08:20:32.000Z</time></trkpt><trkpt lon="6.051507" lat="50.981201"><ele>62.4</ele><time>2022-06-12T08:20:33.000Z</time></trkpt><trkpt lon="6.051398" lat="50.981212"><ele>62.4</ele><time>2022-06-12T08:20:34.000Z</time></trkpt><trkpt lon="6.051288" lat="50.981224"><ele>62.4</ele><time>2022-06-12T08:20:35.000Z</time></trkpt><trkpt lon="6.051177" lat="50.981239"><ele>62.4</ele><time>2022-06-12T08:20:36.000Z</time></trkpt><trkpt lon="6.051069" lat="50.98125"><ele>62.4</ele><time>2022-06-12T08:20:37.000Z</time></trkpt><trkpt lon="6.050958" lat="50.981266"><ele>62.2</ele><time>2022-06-12T08:20:38.000Z</time></trkpt><trkpt lon="6.050852" lat="50.981277"><ele>62.2</ele><time>2022-06-12T08:20:39.000Z</time></trkpt><trkpt lon="6.050743" lat="50.981289"><ele>62</ele><time>2022-06-12T08:20:40.000Z</time></trkpt><trkpt lon="6.050638" lat="50.9813"><ele>62</ele><time>2022-06-12T08:20:41.000Z</time></trkpt><trkpt lon="6.050536" lat="50.981312"><ele>62</ele><time>2022-06-12T08:20:42.000Z</time></trkpt><trkpt lon="6.05043" lat="50.981327"><ele>61.8</ele><time>2022-06-12T08:20:43.000Z</time></trkpt><trkpt lon="6.050321" lat="50.981346"><ele>61.8</ele><time>2022-06-12T08:20:44.000Z</time></trkpt><trkpt lon="6.050213" lat="50.981368"><ele>61.8</ele><time>2022-06-12T08:20:45.000Z</time></trkpt><trkpt lon="6.050107" lat="50.981391"><ele>61.8</ele><time>2022-06-12T08:20:46.000Z</time></trkpt><trkpt lon="6.050005" lat="50.981414"><ele>61.6</ele><time>2022-06-12T08:20:47.000Z</time></trkpt><trkpt lon="6.049905" lat="50.981436"><ele>61.6</ele><time>2022-06-12T08:20:48.000Z</time></trkpt><trkpt lon="6.0498" lat="50.98146"><ele>61.6</ele><time>2022-06-12T08:20:49.000Z</time></trkpt><trkpt lon="6.049704" lat="50.981482"><ele>61.4</ele><time>2022-06-12T08:20:50.000Z</time></trkpt><trkpt lon="6.049605" lat="50.981504"><ele>61.4</ele><time>2022-06-12T08:20:51.000Z</time></trkpt><trkpt lon="6.049502" lat="50.981525"><ele>61.4</ele><time>2022-06-12T08:20:52.000Z</time></trkpt><trkpt lon="6.0494" lat="50.981544"><ele>61.4</ele><time>2022-06-12T08:20:53.000Z</time></trkpt><trkpt lon="6.0493" lat="50.981567"><ele>61.4</ele><time>2022-06-12T08:20:54.000Z</time></trkpt><trkpt lon="6.049198" lat="50.981586"><ele>61.4</ele><time>2022-06-12T08:20:55.000Z</time></trkpt><trkpt lon="6.049097" lat="50.981605"><ele>61.4</ele><time>2022-06-12T08:20:56.000Z</time></trkpt><trkpt lon="6.048996" lat="50.981628"><ele>61.4</ele><time>2022-06-12T08:20:57.000Z</time></trkpt><trkpt lon="6.048887" lat="50.981647"><ele>61.4</ele><time>2022-06-12T08:20:58.000Z</time></trkpt><trkpt lon="6.048784" lat="50.981669"><ele>61.2</ele><time>2022-06-12T08:20:59.000Z</time></trkpt><trkpt lon="6.048675" lat="50.981696"><ele>61.2</ele><time>2022-06-12T08:21:00.000Z</time></trkpt><trkpt lon="6.04857" lat="50.981716"><ele>61</ele><time>2022-06-12T08:21:01.000Z</time></trkpt><trkpt lon="6.048467" lat="50.981738"><ele>61</ele><time>2022-06-12T08:21:02.000Z</time></trkpt><trkpt lon="6.048365" lat="50.981757"><ele>61</ele><time>2022-06-12T08:21:03.000Z</time></trkpt><trkpt lon="6.048263" lat="50.981784"><ele>61</ele><time>2022-06-12T08:21:04.000Z</time></trkpt><trkpt lon="6.048166" lat="50.981807"><ele>61</ele><time>2022-06-12T08:21:05.000Z</time></trkpt><trkpt lon="6.048067" lat="50.981826"><ele>61.2</ele><time>2022-06-12T08:21:06.000Z</time></trkpt><trkpt lon="6.047986" lat="50.981839"><ele>61.2</ele><time>2022-06-12T08:21:07.000Z</time></trkpt><trkpt lon="6.047882" lat="50.981859"><ele>61</ele><time>2022-06-12T08:21:08.000Z</time></trkpt><trkpt lon="6.047771" lat="50.98188"><ele>61</ele><time>2022-06-12T08:21:09.000Z</time></trkpt><trkpt lon="6.047673" lat="50.981899"><ele>61</ele><time>2022-06-12T08:21:10.000Z</time></trkpt><trkpt lon="6.047581" lat="50.981921"><ele>61</ele><time>2022-06-12T08:21:11.000Z</time></trkpt><trkpt lon="6.04749" lat="50.981944"><ele>60.8</ele><time>2022-06-12T08:21:12.000Z</time></trkpt><trkpt lon="6.047397" lat="50.981963"><ele>60.8</ele><time>2022-06-12T08:21:13.000Z</time></trkpt><trkpt lon="6.047307" lat="50.981982"><ele>60.8</ele><time>2022-06-12T08:21:14.000Z</time></trkpt><trkpt lon="6.047227" lat="50.981998"><ele>61</ele><time>2022-06-12T08:21:15.000Z</time></trkpt><trkpt lon="6.047165" lat="50.982009"><ele>61</ele><time>2022-06-12T08:21:16.000Z</time></trkpt><trkpt lon="6.047105" lat="50.982021"><ele>61.2</ele><time>2022-06-12T08:21:17.000Z</time></trkpt><trkpt lon="6.047065" lat="50.982029"><ele>61.4</ele><time>2022-06-12T08:21:18.000Z</time></trkpt><trkpt lon="6.047028" lat="50.982047"><ele>61.4</ele><time>2022-06-12T08:21:19.000Z</time></trkpt><trkpt lon="6.047012" lat="50.982066"><ele>61.6</ele><time>2022-06-12T08:21:20.000Z</time></trkpt><trkpt lon="6.047009" lat="50.982093"><ele>61.6</ele><time>2022-06-12T08:21:21.000Z</time></trkpt><trkpt lon="6.046986" lat="50.982116"><ele>61.8</ele><time>2022-06-12T08:21:22.000Z</time></trkpt><trkpt lon="6.046937" lat="50.982142"><ele>61.8</ele><time>2022-06-12T08:21:23.000Z</time></trkpt><trkpt lon="6.04686" lat="50.982162"><ele>61.6</ele><time>2022-06-12T08:21:24.000Z</time></trkpt><trkpt lon="6.046768" lat="50.982185"><ele>61.6</ele><time>2022-06-12T08:21:25.000Z</time></trkpt><trkpt lon="6.046668" lat="50.982207"><ele>61.4</ele><time>2022-06-12T08:21:26.000Z</time></trkpt><trkpt lon="6.046566" lat="50.982234"><ele>61.4</ele><time>2022-06-12T08:21:27.000Z</time></trkpt><trkpt lon="6.046459" lat="50.982257"><ele>61.2</ele><time>2022-06-12T08:21:28.000Z</time></trkpt><trkpt lon="6.04635" lat="50.982276"><ele>61</ele><time>2022-06-12T08:21:29.000Z</time></trkpt><trkpt lon="6.046239" lat="50.982299"><ele>61</ele><time>2022-06-12T08:21:30.000Z</time></trkpt><trkpt lon="6.046126" lat="50.982322"><ele>61</ele><time>2022-06-12T08:21:31.000Z</time></trkpt><trkpt lon="6.046009" lat="50.982345"><ele>61</ele><time>2022-06-12T08:21:32.000Z</time></trkpt><trkpt lon="6.045893" lat="50.982368"><ele>61</ele><time>2022-06-12T08:21:33.000Z</time></trkpt><trkpt lon="6.045783" lat="50.98239"><ele>61</ele><time>2022-06-12T08:21:34.000Z</time></trkpt><trkpt lon="6.045674" lat="50.982419"><ele>61</ele><time>2022-06-12T08:21:35.000Z</time></trkpt><trkpt lon="6.045559" lat="50.982444"><ele>61</ele><time>2022-06-12T08:21:36.000Z</time></trkpt><trkpt lon="6.045469" lat="50.982466"><ele>61</ele><time>2022-06-12T08:21:37.000Z</time></trkpt><trkpt lon="6.045347" lat="50.982501"><ele>61.2</ele><time>2022-06-12T08:21:38.000Z</time></trkpt><trkpt lon="6.045244" lat="50.982535"><ele>61.2</ele><time>2022-06-12T08:21:39.000Z</time></trkpt><trkpt lon="6.045144" lat="50.982576"><ele>61.2</ele><time>2022-06-12T08:21:40.000Z</time></trkpt><trkpt lon="6.045048" lat="50.982615"><ele>61.2</ele><time>2022-06-12T08:21:41.000Z</time></trkpt><trkpt lon="6.044957" lat="50.982657"><ele>61.2</ele><time>2022-06-12T08:21:42.000Z</time></trkpt><trkpt lon="6.044872" lat="50.982701"><ele>61.2</ele><time>2022-06-12T08:21:43.000Z</time></trkpt><trkpt lon="6.044781" lat="50.982748"><ele>61.2</ele><time>2022-06-12T08:21:44.000Z</time></trkpt><trkpt lon="6.044698" lat="50.982789"><ele>61.2</ele><time>2022-06-12T08:21:45.000Z</time></trkpt><trkpt lon="6.04461" lat="50.982828"><ele>61.2</ele><time>2022-06-12T08:21:46.000Z</time></trkpt><trkpt lon="6.04452" lat="50.982867"><ele>61.2</ele><time>2022-06-12T08:21:47.000Z</time></trkpt><trkpt lon="6.044427" lat="50.982905"><ele>61.2</ele><time>2022-06-12T08:21:48.000Z</time></trkpt><trkpt lon="6.044336" lat="50.982939"><ele>61.2</ele><time>2022-06-12T08:21:49.000Z</time></trkpt><trkpt lon="6.044242" lat="50.982974"><ele>61.2</ele><time>2022-06-12T08:21:50.000Z</time></trkpt><trkpt lon="6.04415" lat="50.983012"><ele>61.2</ele><time>2022-06-12T08:21:51.000Z</time></trkpt><trkpt lon="6.044056" lat="50.983046"><ele>61.2</ele><time>2022-06-12T08:21:52.000Z</time></trkpt><trkpt lon="6.043965" lat="50.983081"><ele>61.2</ele><time>2022-06-12T08:21:53.000Z</time></trkpt><trkpt lon="6.043873" lat="50.983118"><ele>61.2</ele><time>2022-06-12T08:21:54.000Z</time></trkpt><trkpt lon="6.043776" lat="50.983157"><ele>61.2</ele><time>2022-06-12T08:21:55.000Z</time></trkpt><trkpt lon="6.043682" lat="50.983191"><ele>61</ele><time>2022-06-12T08:21:56.000Z</time></trkpt><trkpt lon="6.043587" lat="50.983229"><ele>61</ele><time>2022-06-12T08:21:57.000Z</time></trkpt><trkpt lon="6.043492" lat="50.983263"><ele>61.2</ele><time>2022-06-12T08:21:58.000Z</time></trkpt><trkpt lon="6.043398" lat="50.983301"><ele>61.2</ele><time>2022-06-12T08:21:59.000Z</time></trkpt><trkpt lon="6.043302" lat="50.983336"><ele>61</ele><time>2022-06-12T08:22:00.000Z</time></trkpt><trkpt lon="6.043207" lat="50.98337"><ele>61</ele><time>2022-06-12T08:22:01.000Z</time></trkpt><trkpt lon="6.04311" lat="50.983397"><ele>60.8</ele><time>2022-06-12T08:22:02.000Z</time></trkpt><trkpt lon="6.043007" lat="50.983424"><ele>60.8</ele><time>2022-06-12T08:22:03.000Z</time></trkpt><trkpt lon="6.042901" lat="50.983447"><ele>60.6</ele><time>2022-06-12T08:22:04.000Z</time></trkpt><trkpt lon="6.042793" lat="50.983466"><ele>60.4</ele><time>2022-06-12T08:22:05.000Z</time></trkpt><trkpt lon="6.042681" lat="50.983489"><ele>60.2</ele><time>2022-06-12T08:22:06.000Z</time></trkpt><trkpt lon="6.042579" lat="50.983503"><ele>60.2</ele><time>2022-06-12T08:22:07.000Z</time></trkpt><trkpt lon="6.042459" lat="50.983527"><ele>60.2</ele><time>2022-06-12T08:22:08.000Z</time></trkpt><trkpt lon="6.042349" lat="50.983547"><ele>60.2</ele><time>2022-06-12T08:22:09.000Z</time></trkpt><trkpt lon="6.042242" lat="50.983566"><ele>60.2</ele><time>2022-06-12T08:22:10.000Z</time></trkpt><trkpt lon="6.042134" lat="50.983585"><ele>60.2</ele><time>2022-06-12T08:22:11.000Z</time></trkpt><trkpt lon="6.042026" lat="50.983604"><ele>60.2</ele><time>2022-06-12T08:22:12.000Z</time></trkpt><trkpt lon="6.041918" lat="50.983619"><ele>60</ele><time>2022-06-12T08:22:13.000Z</time></trkpt><trkpt lon="6.041808" lat="50.983638"><ele>59.8</ele><time>2022-06-12T08:22:14.000Z</time></trkpt><trkpt lon="6.041696" lat="50.983661"><ele>59.6</ele><time>2022-06-12T08:22:15.000Z</time></trkpt><trkpt lon="6.041586" lat="50.983676"><ele>59.4</ele><time>2022-06-12T08:22:16.000Z</time></trkpt><trkpt lon="6.041475" lat="50.983695"><ele>59.4</ele><time>2022-06-12T08:22:17.000Z</time></trkpt><trkpt lon="6.041367" lat="50.983714"><ele>59.4</ele><time>2022-06-12T08:22:18.000Z</time></trkpt><trkpt lon="6.041257" lat="50.98373"><ele>59.6</ele><time>2022-06-12T08:22:19.000Z</time></trkpt><trkpt lon="6.041154" lat="50.983749"><ele>59.6</ele><time>2022-06-12T08:22:20.000Z</time></trkpt><trkpt lon="6.041056" lat="50.983767"><ele>59.8</ele><time>2022-06-12T08:22:21.000Z</time></trkpt><trkpt lon="6.040947" lat="50.983783"><ele>60</ele><time>2022-06-12T08:22:22.000Z</time></trkpt><trkpt lon="6.040845" lat="50.983798"><ele>60</ele><time>2022-06-12T08:22:23.000Z</time></trkpt><trkpt lon="6.040745" lat="50.983817"><ele>60</ele><time>2022-06-12T08:22:24.000Z</time></trkpt><trkpt lon="6.040646" lat="50.983833"><ele>60.2</ele><time>2022-06-12T08:22:25.000Z</time></trkpt><trkpt lon="6.040554" lat="50.983852"><ele>60.2</ele><time>2022-06-12T08:22:26.000Z</time></trkpt><trkpt lon="6.040466" lat="50.983867"><ele>60.4</ele><time>2022-06-12T08:22:27.000Z</time></trkpt><trkpt lon="6.040389" lat="50.983882"><ele>60.4</ele><time>2022-06-12T08:22:28.000Z</time></trkpt><trkpt lon="6.040316" lat="50.983894"><ele>60.6</ele><time>2022-06-12T08:22:29.000Z</time></trkpt><trkpt lon="6.040241" lat="50.983905"><ele>60.8</ele><time>2022-06-12T08:22:30.000Z</time></trkpt><trkpt lon="6.040156" lat="50.983924"><ele>60.8</ele><time>2022-06-12T08:22:31.000Z</time></trkpt><trkpt lon="6.040063" lat="50.983939"><ele>60.6</ele><time>2022-06-12T08:22:32.000Z</time></trkpt><trkpt lon="6.039957" lat="50.983955"><ele>60.6</ele><time>2022-06-12T08:22:33.000Z</time></trkpt><trkpt lon="6.039847" lat="50.98397"><ele>60.4</ele><time>2022-06-12T08:22:34.000Z</time></trkpt><trkpt lon="6.039745" lat="50.983985"><ele>60.4</ele><time>2022-06-12T08:22:35.000Z</time></trkpt><trkpt lon="6.039636" lat="50.984004"><ele>60.4</ele><time>2022-06-12T08:22:36.000Z</time></trkpt><trkpt lon="6.039545" lat="50.984017"><ele>60.2</ele><time>2022-06-12T08:22:37.000Z</time></trkpt><trkpt lon="6.039414" lat="50.984035"><ele>60.2</ele><time>2022-06-12T08:22:38.000Z</time></trkpt><trkpt lon="6.039304" lat="50.98405"><ele>60</ele><time>2022-06-12T08:22:39.000Z</time></trkpt><trkpt lon="6.039197" lat="50.984066"><ele>60</ele><time>2022-06-12T08:22:40.000Z</time></trkpt><trkpt lon="6.039092" lat="50.984084"><ele>60</ele><time>2022-06-12T08:22:41.000Z</time></trkpt><trkpt lon="6.038994" lat="50.9841"><ele>60</ele><time>2022-06-12T08:22:42.000Z</time></trkpt><trkpt lon="6.038893" lat="50.984111"><ele>60</ele><time>2022-06-12T08:22:43.000Z</time></trkpt><trkpt lon="6.038789" lat="50.98413"><ele>60</ele><time>2022-06-12T08:22:44.000Z</time></trkpt><trkpt lon="6.038686" lat="50.984145"><ele>60</ele><time>2022-06-12T08:22:45.000Z</time></trkpt><trkpt lon="6.038577" lat="50.984165"><ele>60</ele><time>2022-06-12T08:22:46.000Z</time></trkpt><trkpt lon="6.03847" lat="50.98418"><ele>60</ele><time>2022-06-12T08:22:47.000Z</time></trkpt><trkpt lon="6.038364" lat="50.984199"><ele>59.8</ele><time>2022-06-12T08:22:48.000Z</time></trkpt><trkpt lon="6.038256" lat="50.984218"><ele>59.8</ele><time>2022-06-12T08:22:49.000Z</time></trkpt><trkpt lon="6.038149" lat="50.984237"><ele>59.8</ele><time>2022-06-12T08:22:50.000Z</time></trkpt><trkpt lon="6.038047" lat="50.984252"><ele>59.8</ele><time>2022-06-12T08:22:51.000Z</time></trkpt><trkpt lon="6.037933" lat="50.984268"><ele>59.6</ele><time>2022-06-12T08:22:52.000Z</time></trkpt><trkpt lon="6.037825" lat="50.984283"><ele>59.6</ele><time>2022-06-12T08:22:53.000Z</time></trkpt><trkpt lon="6.037717" lat="50.984298"><ele>59.6</ele><time>2022-06-12T08:22:54.000Z</time></trkpt><trkpt lon="6.037608" lat="50.984317"><ele>59.4</ele><time>2022-06-12T08:22:55.000Z</time></trkpt><trkpt lon="6.037505" lat="50.984332"><ele>59.4</ele><time>2022-06-12T08:22:56.000Z</time></trkpt><trkpt lon="6.037397" lat="50.984348"><ele>59.4</ele><time>2022-06-12T08:22:57.000Z</time></trkpt><trkpt lon="6.037291" lat="50.984367"><ele>59.4</ele><time>2022-06-12T08:22:58.000Z</time></trkpt><trkpt lon="6.037183" lat="50.984386"><ele>59.4</ele><time>2022-06-12T08:22:59.000Z</time></trkpt><trkpt lon="6.037069" lat="50.984405"><ele>59.4</ele><time>2022-06-12T08:23:00.000Z</time></trkpt><trkpt lon="6.036956" lat="50.984427"><ele>59.4</ele><time>2022-06-12T08:23:01.000Z</time></trkpt><trkpt lon="6.036845" lat="50.984447"><ele>59.2</ele><time>2022-06-12T08:23:02.000Z</time></trkpt><trkpt lon="6.036734" lat="50.984466"><ele>59.2</ele><time>2022-06-12T08:23:03.000Z</time></trkpt><trkpt lon="6.036624" lat="50.984488"><ele>59.2</ele><time>2022-06-12T08:23:04.000Z</time></trkpt><trkpt lon="6.036515" lat="50.984504"><ele>59</ele><time>2022-06-12T08:23:05.000Z</time></trkpt><trkpt lon="6.036401" lat="50.984523"><ele>59</ele><time>2022-06-12T08:23:06.000Z</time></trkpt><trkpt lon="6.036293" lat="50.984538"><ele>59</ele><time>2022-06-12T08:23:07.000Z</time></trkpt><trkpt lon="6.036193" lat="50.984553"><ele>59</ele><time>2022-06-12T08:23:08.000Z</time></trkpt><trkpt lon="6.036086" lat="50.984569"><ele>59</ele><time>2022-06-12T08:23:09.000Z</time></trkpt><trkpt lon="6.035982" lat="50.984584"><ele>59</ele><time>2022-06-12T08:23:10.000Z</time></trkpt><trkpt lon="6.035877" lat="50.984599"><ele>58.8</ele><time>2022-06-12T08:23:11.000Z</time></trkpt><trkpt lon="6.035769" lat="50.984619"><ele>59</ele><time>2022-06-12T08:23:12.000Z</time></trkpt><trkpt lon="6.03566" lat="50.984638"><ele>59</ele><time>2022-06-12T08:23:13.000Z</time></trkpt><trkpt lon="6.035554" lat="50.984653"><ele>59</ele><time>2022-06-12T08:23:14.000Z</time></trkpt><trkpt lon="6.035449" lat="50.984672"><ele>59</ele><time>2022-06-12T08:23:15.000Z</time></trkpt><trkpt lon="6.035339" lat="50.984691"><ele>59</ele><time>2022-06-12T08:23:16.000Z</time></trkpt><trkpt lon="6.035231" lat="50.984706"><ele>59</ele><time>2022-06-12T08:23:17.000Z</time></trkpt><trkpt lon="6.035124" lat="50.984725"><ele>59</ele><time>2022-06-12T08:23:18.000Z</time></trkpt><trkpt lon="6.035016" lat="50.984744"><ele>59</ele><time>2022-06-12T08:23:19.000Z</time></trkpt><trkpt lon="6.034907" lat="50.98476"><ele>59</ele><time>2022-06-12T08:23:20.000Z</time></trkpt><trkpt lon="6.034796" lat="50.984779"><ele>58.8</ele><time>2022-06-12T08:23:21.000Z</time></trkpt><trkpt lon="6.034691" lat="50.984794"><ele>58.6</ele><time>2022-06-12T08:23:22.000Z</time></trkpt><trkpt lon="6.034586" lat="50.984809"><ele>58.6</ele><time>2022-06-12T08:23:23.000Z</time></trkpt><trkpt lon="6.034482" lat="50.984828"><ele>58.6</ele><time>2022-06-12T08:23:24.000Z</time></trkpt><trkpt lon="6.034381" lat="50.984844"><ele>58.6</ele><time>2022-06-12T08:23:25.000Z</time></trkpt><trkpt lon="6.034278" lat="50.984863"><ele>58.6</ele><time>2022-06-12T08:23:26.000Z</time></trkpt><trkpt lon="6.034184" lat="50.984878"><ele>58.6</ele><time>2022-06-12T08:23:27.000Z</time></trkpt><trkpt lon="6.034092" lat="50.984893"><ele>58.4</ele><time>2022-06-12T08:23:28.000Z</time></trkpt><trkpt lon="6.034004" lat="50.984905"><ele>58.6</ele><time>2022-06-12T08:23:29.000Z</time></trkpt><trkpt lon="6.033929" lat="50.984916"><ele>58.6</ele><time>2022-06-12T08:23:30.000Z</time></trkpt><trkpt lon="6.033864" lat="50.984928"><ele>58.6</ele><time>2022-06-12T08:23:31.000Z</time></trkpt><trkpt lon="6.033811" lat="50.984939"><ele>58.8</ele><time>2022-06-12T08:23:32.000Z</time></trkpt><trkpt lon="6.033765" lat="50.984943"><ele>58.8</ele><time>2022-06-12T08:23:33.000Z</time></trkpt><trkpt lon="6.033726" lat="50.984947"><ele>58.8</ele><time>2022-06-12T08:23:34.000Z</time></trkpt><trkpt lon="6.033694" lat="50.984944"><ele>59</ele><time>2022-06-12T08:23:35.000Z</time></trkpt><trkpt lon="6.033663" lat="50.984929"><ele>59</ele><time>2022-06-12T08:23:36.000Z</time></trkpt><trkpt lon="6.033636" lat="50.98491"><ele>59</ele><time>2022-06-12T08:23:37.000Z</time></trkpt><trkpt lon="6.033603" lat="50.984891"><ele>59</ele><time>2022-06-12T08:23:38.000Z</time></trkpt><trkpt lon="6.033551" lat="50.984879"><ele>58.8</ele><time>2022-06-12T08:23:39.000Z</time></trkpt><trkpt lon="6.033485" lat="50.984875"><ele>58.8</ele><time>2022-06-12T08:23:40.000Z</time></trkpt><trkpt lon="6.033391" lat="50.984878"><ele>58.6</ele><time>2022-06-12T08:23:41.000Z</time></trkpt><trkpt lon="6.033292" lat="50.984886"><ele>58.4</ele><time>2022-06-12T08:23:42.000Z</time></trkpt><trkpt lon="6.033185" lat="50.98489"><ele>58.2</ele><time>2022-06-12T08:23:43.000Z</time></trkpt><trkpt lon="6.033072" lat="50.98489"><ele>58.2</ele><time>2022-06-12T08:23:44.000Z</time></trkpt><trkpt lon="6.032954" lat="50.984886"><ele>58</ele><time>2022-06-12T08:23:45.000Z</time></trkpt><trkpt lon="6.032834" lat="50.984882"><ele>58</ele><time>2022-06-12T08:23:46.000Z</time></trkpt><trkpt lon="6.032717" lat="50.984879"><ele>58</ele><time>2022-06-12T08:23:47.000Z</time></trkpt><trkpt lon="6.032603" lat="50.984875"><ele>57.8</ele><time>2022-06-12T08:23:48.000Z</time></trkpt><trkpt lon="6.032487" lat="50.984867"><ele>57.8</ele><time>2022-06-12T08:23:49.000Z</time></trkpt><trkpt lon="6.032375" lat="50.984863"><ele>57.8</ele><time>2022-06-12T08:23:50.000Z</time></trkpt><trkpt lon="6.032265" lat="50.98486"><ele>57.6</ele><time>2022-06-12T08:23:51.000Z</time></trkpt><trkpt lon="6.032156" lat="50.984852"><ele>57.6</ele><time>2022-06-12T08:23:52.000Z</time></trkpt><trkpt lon="6.032044" lat="50.984852"><ele>57.4</ele><time>2022-06-12T08:23:53.000Z</time></trkpt><trkpt lon="6.031935" lat="50.984844"><ele>57.2</ele><time>2022-06-12T08:23:54.000Z</time></trkpt><trkpt lon="6.03183" lat="50.984837"><ele>57.2</ele><time>2022-06-12T08:23:55.000Z</time></trkpt><trkpt lon="6.031726" lat="50.984829"><ele>57.2</ele><time>2022-06-12T08:23:56.000Z</time></trkpt><trkpt lon="6.031618" lat="50.984825"><ele>57.2</ele><time>2022-06-12T08:23:57.000Z</time></trkpt><trkpt lon="6.031507" lat="50.984825"><ele>57</ele><time>2022-06-12T08:23:58.000Z</time></trkpt><trkpt lon="6.031402" lat="50.984821"><ele>57</ele><time>2022-06-12T08:23:59.000Z</time></trkpt><trkpt lon="6.031297" lat="50.984818"><ele>57</ele><time>2022-06-12T08:24:00.000Z</time></trkpt><trkpt lon="6.031192" lat="50.984814"><ele>57</ele><time>2022-06-12T08:24:01.000Z</time></trkpt><trkpt lon="6.031082" lat="50.98481"><ele>57</ele><time>2022-06-12T08:24:02.000Z</time></trkpt><trkpt lon="6.030973" lat="50.98481"><ele>57</ele><time>2022-06-12T08:24:03.000Z</time></trkpt><trkpt lon="6.030867" lat="50.984802"><ele>57</ele><time>2022-06-12T08:24:04.000Z</time></trkpt><trkpt lon="6.030763" lat="50.984799"><ele>57</ele><time>2022-06-12T08:24:05.000Z</time></trkpt><trkpt lon="6.030657" lat="50.984798"><ele>56.8</ele><time>2022-06-12T08:24:06.000Z</time></trkpt><trkpt lon="6.03055" lat="50.984798"><ele>56.8</ele><time>2022-06-12T08:24:07.000Z</time></trkpt><trkpt lon="6.030446" lat="50.984795"><ele>56.8</ele><time>2022-06-12T08:24:08.000Z</time></trkpt><trkpt lon="6.030337" lat="50.984791"><ele>56.6</ele><time>2022-06-12T08:24:09.000Z</time></trkpt><trkpt lon="6.03023" lat="50.984783"><ele>56.6</ele><time>2022-06-12T08:24:10.000Z</time></trkpt><trkpt lon="6.030122" lat="50.984779"><ele>56.6</ele><time>2022-06-12T08:24:11.000Z</time></trkpt><trkpt lon="6.030012" lat="50.984776"><ele>56.6</ele><time>2022-06-12T08:24:12.000Z</time></trkpt><trkpt lon="6.02991" lat="50.984772"><ele>56.6</ele><time>2022-06-12T08:24:13.000Z</time></trkpt><trkpt lon="6.029797" lat="50.984772"><ele>56.8</ele><time>2022-06-12T08:24:14.000Z</time></trkpt><trkpt lon="6.02969" lat="50.984768"><ele>57</ele><time>2022-06-12T08:24:15.000Z</time></trkpt><trkpt lon="6.029582" lat="50.984761"><ele>56.8</ele><time>2022-06-12T08:24:16.000Z</time></trkpt><trkpt lon="6.029475" lat="50.984757"><ele>56.8</ele><time>2022-06-12T08:24:17.000Z</time></trkpt><trkpt lon="6.029369" lat="50.984756"><ele>56.8</ele><time>2022-06-12T08:24:18.000Z</time></trkpt><trkpt lon="6.02926" lat="50.984753"><ele>56.6</ele><time>2022-06-12T08:24:19.000Z</time></trkpt><trkpt lon="6.029151" lat="50.984753"><ele>56.6</ele><time>2022-06-12T08:24:20.000Z</time></trkpt><trkpt lon="6.029043" lat="50.984749"><ele>56.6</ele><time>2022-06-12T08:24:21.000Z</time></trkpt><trkpt lon="6.028935" lat="50.984749"><ele>56.6</ele><time>2022-06-12T08:24:22.000Z</time></trkpt><trkpt lon="6.02883" lat="50.984745"><ele>56.6</ele><time>2022-06-12T08:24:23.000Z</time></trkpt><trkpt lon="6.028722" lat="50.984741"><ele>56.6</ele><time>2022-06-12T08:24:24.000Z</time></trkpt><trkpt lon="6.028618" lat="50.984738"><ele>56.4</ele><time>2022-06-12T08:24:25.000Z</time></trkpt><trkpt lon="6.028507" lat="50.984734"><ele>56.4</ele><time>2022-06-12T08:24:26.000Z</time></trkpt><trkpt lon="6.0284" lat="50.98473"><ele>56.2</ele><time>2022-06-12T08:24:27.000Z</time></trkpt><trkpt lon="6.028296" lat="50.98473"><ele>56.2</ele><time>2022-06-12T08:24:28.000Z</time></trkpt><trkpt lon="6.028194" lat="50.984726"><ele>56</ele><time>2022-06-12T08:24:29.000Z</time></trkpt><trkpt lon="6.02809" lat="50.984722"><ele>56</ele><time>2022-06-12T08:24:30.000Z</time></trkpt><trkpt lon="6.027988" lat="50.984722"><ele>56</ele><time>2022-06-12T08:24:31.000Z</time></trkpt><trkpt lon="6.027888" lat="50.984719"><ele>56</ele><time>2022-06-12T08:24:32.000Z</time></trkpt><trkpt lon="6.027785" lat="50.984711"><ele>56</ele><time>2022-06-12T08:24:33.000Z</time></trkpt><trkpt lon="6.027685" lat="50.984707"><ele>56.2</ele><time>2022-06-12T08:24:34.000Z</time></trkpt><trkpt lon="6.027583" lat="50.984703"><ele>56.2</ele><time>2022-06-12T08:24:35.000Z</time></trkpt><trkpt lon="6.027486" lat="50.984696"><ele>56.2</ele><time>2022-06-12T08:24:36.000Z</time></trkpt><trkpt lon="6.027385" lat="50.984692"><ele>56.4</ele><time>2022-06-12T08:24:37.000Z</time></trkpt><trkpt lon="6.027286" lat="50.984684"><ele>56.4</ele><time>2022-06-12T08:24:38.000Z</time></trkpt><trkpt lon="6.027188" lat="50.98468"><ele>56.6</ele><time>2022-06-12T08:24:39.000Z</time></trkpt><trkpt lon="6.027088" lat="50.984677"><ele>56.8</ele><time>2022-06-12T08:24:40.000Z</time></trkpt><trkpt lon="6.026992" lat="50.984673"><ele>56.8</ele><time>2022-06-12T08:24:41.000Z</time></trkpt><trkpt lon="6.026898" lat="50.984665"><ele>57</ele><time>2022-06-12T08:24:42.000Z</time></trkpt><trkpt lon="6.02681" lat="50.984661"><ele>57</ele><time>2022-06-12T08:24:43.000Z</time></trkpt><trkpt lon="6.026724" lat="50.984654"><ele>57</ele><time>2022-06-12T08:24:44.000Z</time></trkpt><trkpt lon="6.026642" lat="50.984653"><ele>57</ele><time>2022-06-12T08:24:45.000Z</time></trkpt><trkpt lon="6.026561" lat="50.984653"><ele>57</ele><time>2022-06-12T08:24:46.000Z</time></trkpt><trkpt lon="6.026473" lat="50.984653"><ele>57</ele><time>2022-06-12T08:24:47.000Z</time></trkpt><trkpt lon="6.026388" lat="50.984653"><ele>57</ele><time>2022-06-12T08:24:48.000Z</time></trkpt><trkpt lon="6.026307" lat="50.984653"><ele>57</ele><time>2022-06-12T08:24:49.000Z</time></trkpt><trkpt lon="6.026229" lat="50.984653"><ele>57</ele><time>2022-06-12T08:24:50.000Z</time></trkpt><trkpt lon="6.026158" lat="50.984653"><ele>57</ele><time>2022-06-12T08:24:51.000Z</time></trkpt><trkpt lon="6.026093" lat="50.98465"><ele>57</ele><time>2022-06-12T08:24:52.000Z</time></trkpt><trkpt lon="6.026032" lat="50.984646"><ele>57</ele><time>2022-06-12T08:24:53.000Z</time></trkpt><trkpt lon="6.025976" lat="50.984646"><ele>57</ele><time>2022-06-12T08:24:54.000Z</time></trkpt><trkpt lon="6.025914" lat="50.984642"><ele>57</ele><time>2022-06-12T08:24:55.000Z</time></trkpt><trkpt lon="6.025846" lat="50.984635"><ele>57</ele><time>2022-06-12T08:24:56.000Z</time></trkpt><trkpt lon="6.02577" lat="50.984627"><ele>57.2</ele><time>2022-06-12T08:24:57.000Z</time></trkpt><trkpt lon="6.02568" lat="50.984627"><ele>57</ele><time>2022-06-12T08:24:58.000Z</time></trkpt><trkpt lon="6.025583" lat="50.984627"><ele>57</ele><time>2022-06-12T08:24:59.000Z</time></trkpt><trkpt lon="6.025478" lat="50.98463"><ele>57</ele><time>2022-06-12T08:25:00.000Z</time></trkpt><trkpt lon="6.025369" lat="50.984631"><ele>56.8</ele><time>2022-06-12T08:25:01.000Z</time></trkpt><trkpt lon="6.025254" lat="50.984627"><ele>56.8</ele><time>2022-06-12T08:25:02.000Z</time></trkpt><trkpt lon="6.025136" lat="50.984627"><ele>56.6</ele><time>2022-06-12T08:25:03.000Z</time></trkpt><trkpt lon="6.02502" lat="50.984623"><ele>56.6</ele><time>2022-06-12T08:25:04.000Z</time></trkpt><trkpt lon="6.0249" lat="50.984619"><ele>56.6</ele><time>2022-06-12T08:25:05.000Z</time></trkpt><trkpt lon="6.024783" lat="50.984615"><ele>56.4</ele><time>2022-06-12T08:25:06.000Z</time></trkpt><trkpt lon="6.02467" lat="50.984615"><ele>56.4</ele><time>2022-06-12T08:25:07.000Z</time></trkpt><trkpt lon="6.024552" lat="50.984612"><ele>56.6</ele><time>2022-06-12T08:25:08.000Z</time></trkpt><trkpt lon="6.024436" lat="50.984608"><ele>56.6</ele><time>2022-06-12T08:25:09.000Z</time></trkpt><trkpt lon="6.024323" lat="50.984604"><ele>56.6</ele><time>2022-06-12T08:25:10.000Z</time></trkpt><trkpt lon="6.024208" lat="50.9846"><ele>56.6</ele><time>2022-06-12T08:25:11.000Z</time></trkpt><trkpt lon="6.024094" lat="50.9846"><ele>56.6</ele><time>2022-06-12T08:25:12.000Z</time></trkpt><trkpt lon="6.023984" lat="50.984593"><ele>56.6</ele><time>2022-06-12T08:25:13.000Z</time></trkpt><trkpt lon="6.023877" lat="50.984589"><ele>56.6</ele><time>2022-06-12T08:25:14.000Z</time></trkpt><trkpt lon="6.023773" lat="50.984585"><ele>56.8</ele><time>2022-06-12T08:25:15.000Z</time></trkpt><trkpt lon="6.02367" lat="50.984585"><ele>56.8</ele><time>2022-06-12T08:25:16.000Z</time></trkpt><trkpt lon="6.023566" lat="50.984581"><ele>56.6</ele><time>2022-06-12T08:25:17.000Z</time></trkpt><trkpt lon="6.023464" lat="50.984577"><ele>56.6</ele><time>2022-06-12T08:25:18.000Z</time></trkpt><trkpt lon="6.023385" lat="50.984577"><ele>56.6</ele><time>2022-06-12T08:25:19.000Z</time></trkpt><trkpt lon="6.023258" lat="50.984574"><ele>56.6</ele><time>2022-06-12T08:25:20.000Z</time></trkpt><trkpt lon="6.023151" lat="50.984573"><ele>56.6</ele><time>2022-06-12T08:25:21.000Z</time></trkpt><trkpt lon="6.02304" lat="50.98457"><ele>56.4</ele><time>2022-06-12T08:25:22.000Z</time></trkpt><trkpt lon="6.022933" lat="50.98457"><ele>56.4</ele><time>2022-06-12T08:25:23.000Z</time></trkpt><trkpt lon="6.022817" lat="50.984566"><ele>56.4</ele><time>2022-06-12T08:25:24.000Z</time></trkpt><trkpt lon="6.022702" lat="50.984558"><ele>56.4</ele><time>2022-06-12T08:25:25.000Z</time></trkpt><trkpt lon="6.022588" lat="50.984554"><ele>56.2</ele><time>2022-06-12T08:25:26.000Z</time></trkpt><trkpt lon="6.022469" lat="50.984551"><ele>56</ele><time>2022-06-12T08:25:27.000Z</time></trkpt><trkpt lon="6.022349" lat="50.984547"><ele>56</ele><time>2022-06-12T08:25:28.000Z</time></trkpt><trkpt lon="6.022233" lat="50.984547"><ele>56</ele><time>2022-06-12T08:25:29.000Z</time></trkpt><trkpt lon="6.022118" lat="50.984543"><ele>56</ele><time>2022-06-12T08:25:30.000Z</time></trkpt><trkpt lon="6.021999" lat="50.984539"><ele>56</ele><time>2022-06-12T08:25:31.000Z</time></trkpt><trkpt lon="6.021884" lat="50.984539"><ele>56</ele><time>2022-06-12T08:25:32.000Z</time></trkpt><trkpt lon="6.021773" lat="50.984535"><ele>56</ele><time>2022-06-12T08:25:33.000Z</time></trkpt><trkpt lon="6.021663" lat="50.984535"><ele>55.8</ele><time>2022-06-12T08:25:34.000Z</time></trkpt><trkpt lon="6.021551" lat="50.984532"><ele>55.8</ele><time>2022-06-12T08:25:35.000Z</time></trkpt><trkpt lon="6.021441" lat="50.984528"><ele>55.6</ele><time>2022-06-12T08:25:36.000Z</time></trkpt><trkpt lon="6.021335" lat="50.984528"><ele>55.4</ele><time>2022-06-12T08:25:37.000Z</time></trkpt><trkpt lon="6.021227" lat="50.984524"><ele>55.4</ele><time>2022-06-12T08:25:38.000Z</time></trkpt><trkpt lon="6.021118" lat="50.98452"><ele>55.4</ele><time>2022-06-12T08:25:39.000Z</time></trkpt><trkpt lon="6.02101" lat="50.98452"><ele>55.4</ele><time>2022-06-12T08:25:40.000Z</time></trkpt><trkpt lon="6.020903" lat="50.984516"><ele>55.2</ele><time>2022-06-12T08:25:41.000Z</time></trkpt><trkpt lon="6.020797" lat="50.984513"><ele>55.2</ele><time>2022-06-12T08:25:42.000Z</time></trkpt><trkpt lon="6.020687" lat="50.984512"><ele>55.4</ele><time>2022-06-12T08:25:43.000Z</time></trkpt><trkpt lon="6.020584" lat="50.984509"><ele>55.4</ele><time>2022-06-12T08:25:44.000Z</time></trkpt><trkpt lon="6.020475" lat="50.984509"><ele>55.6</ele><time>2022-06-12T08:25:45.000Z</time></trkpt><trkpt lon="6.020369" lat="50.984509"><ele>55.6</ele><time>2022-06-12T08:25:46.000Z</time></trkpt><trkpt lon="6.020262" lat="50.984505"><ele>55.6</ele><time>2022-06-12T08:25:47.000Z</time></trkpt><trkpt lon="6.020155" lat="50.984501"><ele>55.6</ele><time>2022-06-12T08:25:48.000Z</time></trkpt><trkpt lon="6.020052" lat="50.984501"><ele>55.6</ele><time>2022-06-12T08:25:49.000Z</time></trkpt><trkpt lon="6.019943" lat="50.984497"><ele>55.8</ele><time>2022-06-12T08:25:50.000Z</time></trkpt><trkpt lon="6.019835" lat="50.984493"><ele>55.8</ele><time>2022-06-12T08:25:51.000Z</time></trkpt><trkpt lon="6.019725" lat="50.98449"><ele>55.6</ele><time>2022-06-12T08:25:52.000Z</time></trkpt><trkpt lon="6.019619" lat="50.984482"><ele>55.6</ele><time>2022-06-12T08:25:53.000Z</time></trkpt><trkpt lon="6.019507" lat="50.984478"><ele>55.4</ele><time>2022-06-12T08:25:54.000Z</time></trkpt><trkpt lon="6.019397" lat="50.984478"><ele>55.4</ele><time>2022-06-12T08:25:55.000Z</time></trkpt><trkpt lon="6.019289" lat="50.984474"><ele>55.2</ele><time>2022-06-12T08:25:56.000Z</time></trkpt><trkpt lon="6.01918" lat="50.984471"><ele>55.2</ele><time>2022-06-12T08:25:57.000Z</time></trkpt><trkpt lon="6.01907" lat="50.984467"><ele>55</ele><time>2022-06-12T08:25:58.000Z</time></trkpt><trkpt lon="6.01896" lat="50.984463"><ele>55</ele><time>2022-06-12T08:25:59.000Z</time></trkpt><trkpt lon="6.01885" lat="50.984459"><ele>55</ele><time>2022-06-12T08:26:00.000Z</time></trkpt><trkpt lon="6.018741" lat="50.984455"><ele>55</ele><time>2022-06-12T08:26:01.000Z</time></trkpt><trkpt lon="6.018632" lat="50.984455"><ele>55</ele><time>2022-06-12T08:26:02.000Z</time></trkpt><trkpt lon="6.018526" lat="50.984451"><ele>55</ele><time>2022-06-12T08:26:03.000Z</time></trkpt><trkpt lon="6.018419" lat="50.984448"><ele>55</ele><time>2022-06-12T08:26:04.000Z</time></trkpt><trkpt lon="6.018312" lat="50.984444"><ele>55</ele><time>2022-06-12T08:26:05.000Z</time></trkpt><trkpt lon="6.018209" lat="50.98444"><ele>55</ele><time>2022-06-12T08:26:06.000Z</time></trkpt><trkpt lon="6.018095" lat="50.98444"><ele>55</ele><time>2022-06-12T08:26:07.000Z</time></trkpt><trkpt lon="6.017989" lat="50.984436"><ele>55</ele><time>2022-06-12T08:26:08.000Z</time></trkpt><trkpt lon="6.017883" lat="50.984432"><ele>54.8</ele><time>2022-06-12T08:26:09.000Z</time></trkpt><trkpt lon="6.017783" lat="50.984429"><ele>54.8</ele><time>2022-06-12T08:26:10.000Z</time></trkpt><trkpt lon="6.017684" lat="50.984428"><ele>54.8</ele><time>2022-06-12T08:26:11.000Z</time></trkpt><trkpt lon="6.017587" lat="50.984425"><ele>54.8</ele><time>2022-06-12T08:26:12.000Z</time></trkpt><trkpt lon="6.017494" lat="50.984421"><ele>54.6</ele><time>2022-06-12T08:26:13.000Z</time></trkpt><trkpt lon="6.017405" lat="50.984421"><ele>54.8</ele><time>2022-06-12T08:26:14.000Z</time></trkpt><trkpt lon="6.017323" lat="50.984417"><ele>54.8</ele><time>2022-06-12T08:26:15.000Z</time></trkpt><trkpt lon="6.017249" lat="50.984413"><ele>54.8</ele><time>2022-06-12T08:26:16.000Z</time></trkpt><trkpt lon="6.017182" lat="50.984413"><ele>55</ele><time>2022-06-12T08:26:17.000Z</time></trkpt><trkpt lon="6.017125" lat="50.984409"><ele>55</ele><time>2022-06-12T08:26:18.000Z</time></trkpt><trkpt lon="6.017078" lat="50.984406"><ele>55</ele><time>2022-06-12T08:26:19.000Z</time></trkpt><trkpt lon="6.017038" lat="50.984406"><ele>55.2</ele><time>2022-06-12T08:26:20.000Z</time></trkpt><trkpt lon="6.017005" lat="50.984413"><ele>55.2</ele><time>2022-06-12T08:26:21.000Z</time></trkpt><trkpt lon="6.016979" lat="50.984428"><ele>55.2</ele><time>2022-06-12T08:26:22.000Z</time></trkpt><trkpt lon="6.016965" lat="50.984447"><ele>55.2</ele><time>2022-06-12T08:26:23.000Z</time></trkpt><trkpt lon="6.01696" lat="50.984473"><ele>55.4</ele><time>2022-06-12T08:26:24.000Z</time></trkpt><trkpt lon="6.016944" lat="50.984496"><ele>55.4</ele><time>2022-06-12T08:26:25.000Z</time></trkpt><trkpt lon="6.016896" lat="50.984512"><ele>55.4</ele><time>2022-06-12T08:26:26.000Z</time></trkpt><trkpt lon="6.016825" lat="50.984516"><ele>55.2</ele><time>2022-06-12T08:26:27.000Z</time></trkpt><trkpt lon="6.016743" lat="50.984512"><ele>54.8</ele><time>2022-06-12T08:26:28.000Z</time></trkpt><trkpt lon="6.016663" lat="50.984509"><ele>54.6</ele><time>2022-06-12T08:26:29.000Z</time></trkpt><trkpt lon="6.016585" lat="50.984509"><ele>54.6</ele><time>2022-06-12T08:26:30.000Z</time></trkpt><trkpt lon="6.016507" lat="50.984501"><ele>54.6</ele><time>2022-06-12T08:26:31.000Z</time></trkpt><trkpt lon="6.016431" lat="50.98449"><ele>54.6</ele><time>2022-06-12T08:26:32.000Z</time></trkpt><trkpt lon="6.016361" lat="50.984467"><ele>54.8</ele><time>2022-06-12T08:26:33.000Z</time></trkpt><trkpt lon="6.0163" lat="50.984437"><ele>54.6</ele><time>2022-06-12T08:26:34.000Z</time></trkpt><trkpt lon="6.016231" lat="50.984407"><ele>54.6</ele><time>2022-06-12T08:26:35.000Z</time></trkpt><trkpt lon="6.016149" lat="50.984387"><ele>54.8</ele><time>2022-06-12T08:26:36.000Z</time></trkpt><trkpt lon="6.016055" lat="50.984379"><ele>54.6</ele><time>2022-06-12T08:26:37.000Z</time></trkpt><trkpt lon="6.015947" lat="50.984375"><ele>54.6</ele><time>2022-06-12T08:26:38.000Z</time></trkpt><trkpt lon="6.01583" lat="50.984375"><ele>54.6</ele><time>2022-06-12T08:26:39.000Z</time></trkpt><trkpt lon="6.015713" lat="50.984368"><ele>54.6</ele><time>2022-06-12T08:26:40.000Z</time></trkpt><trkpt lon="6.015596" lat="50.984364"><ele>54.2</ele><time>2022-06-12T08:26:41.000Z</time></trkpt><trkpt lon="6.015478" lat="50.98436"><ele>54.2</ele><time>2022-06-12T08:26:42.000Z</time></trkpt><trkpt lon="6.015363" lat="50.984356"><ele>54</ele><time>2022-06-12T08:26:43.000Z</time></trkpt><trkpt lon="6.015245" lat="50.984349"><ele>53.6</ele><time>2022-06-12T08:26:44.000Z</time></trkpt><trkpt lon="6.015134" lat="50.984348"><ele>53.4</ele><time>2022-06-12T08:26:45.000Z</time></trkpt><trkpt lon="6.015021" lat="50.984348"><ele>53.6</ele><time>2022-06-12T08:26:46.000Z</time></trkpt><trkpt lon="6.014909" lat="50.984345"><ele>53.6</ele><time>2022-06-12T08:26:47.000Z</time></trkpt><trkpt lon="6.014798" lat="50.984345"><ele>53.6</ele><time>2022-06-12T08:26:48.000Z</time></trkpt><trkpt lon="6.014687" lat="50.984341"><ele>53.6</ele><time>2022-06-12T08:26:49.000Z</time></trkpt><trkpt lon="6.01458" lat="50.984341"><ele>53.8</ele><time>2022-06-12T08:26:50.000Z</time></trkpt><trkpt lon="6.014478" lat="50.984337"><ele>53.8</ele><time>2022-06-12T08:26:51.000Z</time></trkpt><trkpt lon="6.014366" lat="50.984337"><ele>53.6</ele><time>2022-06-12T08:26:52.000Z</time></trkpt><trkpt lon="6.014259" lat="50.984333"><ele>53.6</ele><time>2022-06-12T08:26:53.000Z</time></trkpt><trkpt lon="6.014154" lat="50.984333"><ele>53.6</ele><time>2022-06-12T08:26:54.000Z</time></trkpt><trkpt lon="6.014044" lat="50.984329"><ele>53.6</ele><time>2022-06-12T08:26:55.000Z</time></trkpt><trkpt lon="6.013941" lat="50.984326"><ele>53.6</ele><time>2022-06-12T08:26:56.000Z</time></trkpt><trkpt lon="6.013832" lat="50.984322"><ele>53.6</ele><time>2022-06-12T08:26:57.000Z</time></trkpt><trkpt lon="6.013723" lat="50.984322"><ele>53.6</ele><time>2022-06-12T08:26:58.000Z</time></trkpt><trkpt lon="6.01362" lat="50.984318"><ele>53.6</ele><time>2022-06-12T08:26:59.000Z</time></trkpt><trkpt lon="6.013508" lat="50.984314"><ele>53.4</ele><time>2022-06-12T08:27:00.000Z</time></trkpt><trkpt lon="6.013399" lat="50.984314"><ele>53.4</ele><time>2022-06-12T08:27:01.000Z</time></trkpt><trkpt lon="6.013289" lat="50.98431"><ele>53.6</ele><time>2022-06-12T08:27:02.000Z</time></trkpt><trkpt lon="6.01318" lat="50.984306"><ele>53.6</ele><time>2022-06-12T08:27:03.000Z</time></trkpt><trkpt lon="6.013072" lat="50.984299"><ele>53.6</ele><time>2022-06-12T08:27:04.000Z</time></trkpt><trkpt lon="6.012967" lat="50.984299"><ele>53.4</ele><time>2022-06-12T08:27:05.000Z</time></trkpt><trkpt lon="6.012863" lat="50.984299"><ele>53.2</ele><time>2022-06-12T08:27:06.000Z</time></trkpt><trkpt lon="6.012764" lat="50.984295"><ele>53.2</ele><time>2022-06-12T08:27:07.000Z</time></trkpt><trkpt lon="6.012663" lat="50.984295"><ele>53.4</ele><time>2022-06-12T08:27:08.000Z</time></trkpt><trkpt lon="6.012559" lat="50.984295"><ele>53.4</ele><time>2022-06-12T08:27:09.000Z</time></trkpt><trkpt lon="6.012454" lat="50.984291"><ele>53.6</ele><time>2022-06-12T08:27:10.000Z</time></trkpt><trkpt lon="6.012348" lat="50.984287"><ele>53.6</ele><time>2022-06-12T08:27:11.000Z</time></trkpt><trkpt lon="6.012239" lat="50.984284"><ele>53.6</ele><time>2022-06-12T08:27:12.000Z</time></trkpt><trkpt lon="6.012133" lat="50.984283"><ele>53.2</ele><time>2022-06-12T08:27:13.000Z</time></trkpt><trkpt lon="6.012025" lat="50.98428"><ele>53.2</ele><time>2022-06-12T08:27:14.000Z</time></trkpt><trkpt lon="6.011918" lat="50.984276"><ele>53.2</ele><time>2022-06-12T08:27:15.000Z</time></trkpt><trkpt lon="6.011814" lat="50.984272"><ele>53</ele><time>2022-06-12T08:27:16.000Z</time></trkpt><trkpt lon="6.011705" lat="50.984268"><ele>53</ele><time>2022-06-12T08:27:17.000Z</time></trkpt><trkpt lon="6.011602" lat="50.984268"><ele>53</ele><time>2022-06-12T08:27:18.000Z</time></trkpt><trkpt lon="6.011489" lat="50.984264"><ele>53.2</ele><time>2022-06-12T08:27:19.000Z</time></trkpt><trkpt lon="6.011381" lat="50.984261"><ele>53.2</ele><time>2022-06-12T08:27:20.000Z</time></trkpt><trkpt lon="6.011274" lat="50.984261"><ele>53.2</ele><time>2022-06-12T08:27:21.000Z</time></trkpt><trkpt lon="6.011167" lat="50.984257"><ele>53.4</ele><time>2022-06-12T08:27:22.000Z</time></trkpt><trkpt lon="6.011064" lat="50.984253"><ele>53.4</ele><time>2022-06-12T08:27:23.000Z</time></trkpt><trkpt lon="6.010958" lat="50.984249"><ele>53.4</ele><time>2022-06-12T08:27:24.000Z</time></trkpt><trkpt lon="6.010847" lat="50.984242"><ele>53.4</ele><time>2022-06-12T08:27:25.000Z</time></trkpt><trkpt lon="6.010737" lat="50.984238"><ele>53.4</ele><time>2022-06-12T08:27:26.000Z</time></trkpt><trkpt lon="6.010627" lat="50.984234"><ele>53.4</ele><time>2022-06-12T08:27:27.000Z</time></trkpt><trkpt lon="6.010517" lat="50.98423"><ele>53.2</ele><time>2022-06-12T08:27:28.000Z</time></trkpt><trkpt lon="6.010407" lat="50.98423"><ele>53.2</ele><time>2022-06-12T08:27:29.000Z</time></trkpt><trkpt lon="6.010298" lat="50.984226"><ele>53</ele><time>2022-06-12T08:27:30.000Z</time></trkpt><trkpt lon="6.010193" lat="50.984223"><ele>53</ele><time>2022-06-12T08:27:31.000Z</time></trkpt><trkpt lon="6.010084" lat="50.984219"><ele>53</ele><time>2022-06-12T08:27:32.000Z</time></trkpt><trkpt lon="6.009975" lat="50.984215"><ele>53</ele><time>2022-06-12T08:27:33.000Z</time></trkpt><trkpt lon="6.009868" lat="50.984215"><ele>53</ele><time>2022-06-12T08:27:34.000Z</time></trkpt><trkpt lon="6.009759" lat="50.984211"><ele>53</ele><time>2022-06-12T08:27:35.000Z</time></trkpt><trkpt lon="6.009653" lat="50.984207"><ele>53.2</ele><time>2022-06-12T08:27:36.000Z</time></trkpt><trkpt lon="6.009542" lat="50.984203"><ele>53.2</ele><time>2022-06-12T08:27:37.000Z</time></trkpt><trkpt lon="6.009435" lat="50.9842"><ele>53</ele><time>2022-06-12T08:27:38.000Z</time></trkpt><trkpt lon="6.009326" lat="50.984196"><ele>53.2</ele><time>2022-06-12T08:27:39.000Z</time></trkpt><trkpt lon="6.009219" lat="50.984192"><ele>53.2</ele><time>2022-06-12T08:27:40.000Z</time></trkpt><trkpt lon="6.009112" lat="50.984192"><ele>53</ele><time>2022-06-12T08:27:41.000Z</time></trkpt><trkpt lon="6.009007" lat="50.984188"><ele>53</ele><time>2022-06-12T08:27:42.000Z</time></trkpt><trkpt lon="6.008896" lat="50.984184"><ele>53</ele><time>2022-06-12T08:27:43.000Z</time></trkpt><trkpt lon="6.008789" lat="50.984181"><ele>52.8</ele><time>2022-06-12T08:27:44.000Z</time></trkpt><trkpt lon="6.008683" lat="50.984177"><ele>52.8</ele><time>2022-06-12T08:27:45.000Z</time></trkpt><trkpt lon="6.008577" lat="50.984173"><ele>52.6</ele><time>2022-06-12T08:27:46.000Z</time></trkpt><trkpt lon="6.00847" lat="50.984169"><ele>52.6</ele><time>2022-06-12T08:27:47.000Z</time></trkpt><trkpt lon="6.008365" lat="50.984165"><ele>52.6</ele><time>2022-06-12T08:27:48.000Z</time></trkpt><trkpt lon="6.008261" lat="50.984165"><ele>52.6</ele><time>2022-06-12T08:27:49.000Z</time></trkpt><trkpt lon="6.008158" lat="50.984162"><ele>52.6</ele><time>2022-06-12T08:27:50.000Z</time></trkpt><trkpt lon="6.008055" lat="50.984154"><ele>52.8</ele><time>2022-06-12T08:27:51.000Z</time></trkpt><trkpt lon="6.007955" lat="50.984154"><ele>53</ele><time>2022-06-12T08:27:52.000Z</time></trkpt><trkpt lon="6.007852" lat="50.98415"><ele>53.2</ele><time>2022-06-12T08:27:53.000Z</time></trkpt><trkpt lon="6.007747" lat="50.98415"><ele>53.2</ele><time>2022-06-12T08:27:54.000Z</time></trkpt><trkpt lon="6.007642" lat="50.98415"><ele>53.2</ele><time>2022-06-12T08:27:55.000Z</time></trkpt><trkpt lon="6.007521" lat="50.98415"><ele>53</ele><time>2022-06-12T08:27:56.000Z</time></trkpt><trkpt lon="6.007412" lat="50.984146"><ele>52.8</ele><time>2022-06-12T08:27:57.000Z</time></trkpt><trkpt lon="6.007302" lat="50.984142"><ele>52.8</ele><time>2022-06-12T08:27:58.000Z</time></trkpt><trkpt lon="6.007193" lat="50.984139"><ele>53</ele><time>2022-06-12T08:27:59.000Z</time></trkpt><trkpt lon="6.007082" lat="50.984138"><ele>52.8</ele><time>2022-06-12T08:28:00.000Z</time></trkpt><trkpt lon="6.006977" lat="50.984138"><ele>53</ele><time>2022-06-12T08:28:01.000Z</time></trkpt><trkpt lon="6.006866" lat="50.984138"><ele>53</ele><time>2022-06-12T08:28:02.000Z</time></trkpt><trkpt lon="6.006757" lat="50.984138"><ele>53</ele><time>2022-06-12T08:28:03.000Z</time></trkpt><trkpt lon="6.006646" lat="50.984135"><ele>53</ele><time>2022-06-12T08:28:04.000Z</time></trkpt><trkpt lon="6.00654" lat="50.984131"><ele>53</ele><time>2022-06-12T08:28:05.000Z</time></trkpt><trkpt lon="6.006433" lat="50.984127"><ele>52.8</ele><time>2022-06-12T08:28:06.000Z</time></trkpt><trkpt lon="6.006324" lat="50.984123"><ele>52.6</ele><time>2022-06-12T08:28:07.000Z</time></trkpt><trkpt lon="6.006215" lat="50.984123"><ele>52.6</ele><time>2022-06-12T08:28:08.000Z</time></trkpt><trkpt lon="6.006107" lat="50.984116"><ele>52.4</ele><time>2022-06-12T08:28:09.000Z</time></trkpt><trkpt lon="6.006" lat="50.984112"><ele>52.2</ele><time>2022-06-12T08:28:10.000Z</time></trkpt><trkpt lon="6.00589" lat="50.984108"><ele>52.2</ele><time>2022-06-12T08:28:11.000Z</time></trkpt><trkpt lon="6.00578" lat="50.984104"><ele>52</ele><time>2022-06-12T08:28:12.000Z</time></trkpt><trkpt lon="6.005675" lat="50.9841"><ele>51.8</ele><time>2022-06-12T08:28:13.000Z</time></trkpt><trkpt lon="6.005572" lat="50.984097"><ele>52</ele><time>2022-06-12T08:28:14.000Z</time></trkpt><trkpt lon="6.005468" lat="50.984093"><ele>52</ele><time>2022-06-12T08:28:15.000Z</time></trkpt><trkpt lon="6.005364" lat="50.984089"><ele>52</ele><time>2022-06-12T08:28:16.000Z</time></trkpt><trkpt lon="6.00526" lat="50.984085"><ele>52</ele><time>2022-06-12T08:28:17.000Z</time></trkpt><trkpt lon="6.005154" lat="50.984081"><ele>52</ele><time>2022-06-12T08:28:18.000Z</time></trkpt><trkpt lon="6.00505" lat="50.984078"><ele>52.2</ele><time>2022-06-12T08:28:19.000Z</time></trkpt><trkpt lon="6.004943" lat="50.984074"><ele>52.2</ele><time>2022-06-12T08:28:20.000Z</time></trkpt><trkpt lon="6.004842" lat="50.98407"><ele>52.4</ele><time>2022-06-12T08:28:21.000Z</time></trkpt><trkpt lon="6.004739" lat="50.98407"><ele>52.4</ele><time>2022-06-12T08:28:22.000Z</time></trkpt><trkpt lon="6.004636" lat="50.984066"><ele>52.6</ele><time>2022-06-12T08:28:23.000Z</time></trkpt><trkpt lon="6.004533" lat="50.984062"><ele>52.6</ele><time>2022-06-12T08:28:24.000Z</time></trkpt><trkpt lon="6.004428" lat="50.984059"><ele>52.6</ele><time>2022-06-12T08:28:25.000Z</time></trkpt><trkpt lon="6.004324" lat="50.984055"><ele>52.8</ele><time>2022-06-12T08:28:26.000Z</time></trkpt><trkpt lon="6.004224" lat="50.984051"><ele>52.8</ele><time>2022-06-12T08:28:27.000Z</time></trkpt><trkpt lon="6.004119" lat="50.984047"><ele>52.8</ele><time>2022-06-12T08:28:28.000Z</time></trkpt><trkpt lon="6.004014" lat="50.984043"><ele>52.8</ele><time>2022-06-12T08:28:29.000Z</time></trkpt><trkpt lon="6.003909" lat="50.984043"><ele>52.8</ele><time>2022-06-12T08:28:30.000Z</time></trkpt><trkpt lon="6.003805" lat="50.984043"><ele>52.8</ele><time>2022-06-12T08:28:31.000Z</time></trkpt><trkpt lon="6.003696" lat="50.984039"><ele>52.8</ele><time>2022-06-12T08:28:32.000Z</time></trkpt><trkpt lon="6.003586" lat="50.984039"><ele>52.8</ele><time>2022-06-12T08:28:33.000Z</time></trkpt><trkpt lon="6.003477" lat="50.984032"><ele>53</ele><time>2022-06-12T08:28:34.000Z</time></trkpt><trkpt lon="6.003373" lat="50.984024"><ele>53</ele><time>2022-06-12T08:28:35.000Z</time></trkpt><trkpt lon="6.00327" lat="50.984017"><ele>53</ele><time>2022-06-12T08:28:36.000Z</time></trkpt><trkpt lon="6.003165" lat="50.984009"><ele>53</ele><time>2022-06-12T08:28:37.000Z</time></trkpt><trkpt lon="6.003063" lat="50.984005"><ele>52.8</ele><time>2022-06-12T08:28:38.000Z</time></trkpt><trkpt lon="6.002957" lat="50.984001"><ele>52.8</ele><time>2022-06-12T08:28:39.000Z</time></trkpt><trkpt lon="6.002852" lat="50.983994"><ele>52.6</ele><time>2022-06-12T08:28:40.000Z</time></trkpt><trkpt lon="6.002748" lat="50.983994"><ele>52.6</ele><time>2022-06-12T08:28:41.000Z</time></trkpt><trkpt lon="6.002635" lat="50.983994"><ele>52.6</ele><time>2022-06-12T08:28:42.000Z</time></trkpt><trkpt lon="6.002527" lat="50.983986"><ele>52.6</ele><time>2022-06-12T08:28:43.000Z</time></trkpt><trkpt lon="6.002418" lat="50.983982"><ele>52.6</ele><time>2022-06-12T08:28:44.000Z</time></trkpt><trkpt lon="6.002298" lat="50.983975"><ele>52.6</ele><time>2022-06-12T08:28:45.000Z</time></trkpt><trkpt lon="6.002186" lat="50.983974"><ele>52.4</ele><time>2022-06-12T08:28:46.000Z</time></trkpt><trkpt lon="6.002074" lat="50.983971"><ele>52.2</ele><time>2022-06-12T08:28:47.000Z</time></trkpt><trkpt lon="6.001964" lat="50.983971"><ele>52.2</ele><time>2022-06-12T08:28:48.000Z</time></trkpt><trkpt lon="6.001851" lat="50.983967"><ele>52.2</ele><time>2022-06-12T08:28:49.000Z</time></trkpt><trkpt lon="6.00174" lat="50.983963"><ele>52.2</ele><time>2022-06-12T08:28:50.000Z</time></trkpt><trkpt lon="6.001647" lat="50.98396"><ele>52</ele><time>2022-06-12T08:28:51.000Z</time></trkpt><trkpt lon="6.001522" lat="50.983952"><ele>51.8</ele><time>2022-06-12T08:28:52.000Z</time></trkpt><trkpt lon="6.001413" lat="50.983948"><ele>51.6</ele><time>2022-06-12T08:28:53.000Z</time></trkpt><trkpt lon="6.001307" lat="50.983944"><ele>51.4</ele><time>2022-06-12T08:28:54.000Z</time></trkpt><trkpt lon="6.001197" lat="50.983944"><ele>51.4</ele><time>2022-06-12T08:28:55.000Z</time></trkpt><trkpt lon="6.001088" lat="50.983944"><ele>51.2</ele><time>2022-06-12T08:28:56.000Z</time></trkpt><trkpt lon="6.000979" lat="50.98394"><ele>51</ele><time>2022-06-12T08:28:57.000Z</time></trkpt><trkpt lon="6.000871" lat="50.98394"><ele>51</ele><time>2022-06-12T08:28:58.000Z</time></trkpt><trkpt lon="6.000771" lat="50.983933"><ele>50.8</ele><time>2022-06-12T08:28:59.000Z</time></trkpt><trkpt lon="6.000658" lat="50.983932"><ele>50.8</ele><time>2022-06-12T08:29:00.000Z</time></trkpt><trkpt lon="6.000555" lat="50.983929"><ele>51</ele><time>2022-06-12T08:29:01.000Z</time></trkpt><trkpt lon="6.000447" lat="50.983925"><ele>51</ele><time>2022-06-12T08:29:02.000Z</time></trkpt><trkpt lon="6.000342" lat="50.983921"><ele>51</ele><time>2022-06-12T08:29:03.000Z</time></trkpt><trkpt lon="6.000237" lat="50.983917"><ele>51</ele><time>2022-06-12T08:29:04.000Z</time></trkpt><trkpt lon="6.000133" lat="50.983914"><ele>51</ele><time>2022-06-12T08:29:05.000Z</time></trkpt><trkpt lon="6.000027" lat="50.983913"><ele>51</ele><time>2022-06-12T08:29:06.000Z</time></trkpt><trkpt lon="5.999925" lat="50.98391"><ele>51</ele><time>2022-06-12T08:29:07.000Z</time></trkpt><trkpt lon="5.999822" lat="50.983902"><ele>51.2</ele><time>2022-06-12T08:29:08.000Z</time></trkpt><trkpt lon="5.999718" lat="50.983902"><ele>51.2</ele><time>2022-06-12T08:29:09.000Z</time></trkpt><trkpt lon="5.999613" lat="50.983898"><ele>51</ele><time>2022-06-12T08:29:10.000Z</time></trkpt><trkpt lon="5.999506" lat="50.983894"><ele>50.8</ele><time>2022-06-12T08:29:11.000Z</time></trkpt><trkpt lon="5.9994" lat="50.983887"><ele>50.8</ele><time>2022-06-12T08:29:12.000Z</time></trkpt><trkpt lon="5.999294" lat="50.983887"><ele>51.2</ele><time>2022-06-12T08:29:13.000Z</time></trkpt><trkpt lon="5.999191" lat="50.983883"><ele>51</ele><time>2022-06-12T08:29:14.000Z</time></trkpt><trkpt lon="5.999092" lat="50.98388"><ele>51.2</ele><time>2022-06-12T08:29:15.000Z</time></trkpt><trkpt lon="5.998975" lat="50.983875"><ele>51.2</ele><time>2022-06-12T08:29:16.000Z</time></trkpt><trkpt lon="5.998868" lat="50.983872"><ele>51.2</ele><time>2022-06-12T08:29:17.000Z</time></trkpt><trkpt lon="5.998784" lat="50.983869"><ele>51.2</ele><time>2022-06-12T08:29:18.000Z</time></trkpt><trkpt lon="5.998672" lat="50.983865"><ele>51.2</ele><time>2022-06-12T08:29:19.000Z</time></trkpt><trkpt lon="5.998545" lat="50.98386"><ele>51.2</ele><time>2022-06-12T08:29:20.000Z</time></trkpt><trkpt lon="5.998441" lat="50.983856"><ele>51.2</ele><time>2022-06-12T08:29:21.000Z</time></trkpt><trkpt lon="5.998332" lat="50.983856"><ele>51.2</ele><time>2022-06-12T08:29:22.000Z</time></trkpt><trkpt lon="5.998228" lat="50.983853"><ele>51</ele><time>2022-06-12T08:29:23.000Z</time></trkpt><trkpt lon="5.998118" lat="50.983849"><ele>51</ele><time>2022-06-12T08:29:24.000Z</time></trkpt><trkpt lon="5.998013" lat="50.983845"><ele>51</ele><time>2022-06-12T08:29:25.000Z</time></trkpt><trkpt lon="5.997907" lat="50.983841"><ele>51</ele><time>2022-06-12T08:29:26.000Z</time></trkpt><trkpt lon="5.9978" lat="50.983834"><ele>51</ele><time>2022-06-12T08:29:27.000Z</time></trkpt><trkpt lon="5.997695" lat="50.983833"><ele>51.2</ele><time>2022-06-12T08:29:28.000Z</time></trkpt><trkpt lon="5.997589" lat="50.98383"><ele>51.4</ele><time>2022-06-12T08:29:29.000Z</time></trkpt><trkpt lon="5.997484" lat="50.983822"><ele>51.4</ele><time>2022-06-12T08:29:30.000Z</time></trkpt><trkpt lon="5.997383" lat="50.983818"><ele>51.2</ele><time>2022-06-12T08:29:31.000Z</time></trkpt><trkpt lon="5.997277" lat="50.983811"><ele>51.2</ele><time>2022-06-12T08:29:32.000Z</time></trkpt><trkpt lon="5.997173" lat="50.983807"><ele>51.4</ele><time>2022-06-12T08:29:33.000Z</time></trkpt><trkpt lon="5.997072" lat="50.983799"><ele>51.4</ele><time>2022-06-12T08:29:34.000Z</time></trkpt><trkpt lon="5.99697" lat="50.983799"><ele>51.4</ele><time>2022-06-12T08:29:35.000Z</time></trkpt><trkpt lon="5.996864" lat="50.983799"><ele>51.2</ele><time>2022-06-12T08:29:36.000Z</time></trkpt><trkpt lon="5.996757" lat="50.983799"><ele>51.2</ele><time>2022-06-12T08:29:37.000Z</time></trkpt><trkpt lon="5.996648" lat="50.983795"><ele>51</ele><time>2022-06-12T08:29:38.000Z</time></trkpt><trkpt lon="5.996538" lat="50.983791"><ele>51</ele><time>2022-06-12T08:29:39.000Z</time></trkpt><trkpt lon="5.996428" lat="50.983788"><ele>51</ele><time>2022-06-12T08:29:40.000Z</time></trkpt><trkpt lon="5.99632" lat="50.983784"><ele>51</ele><time>2022-06-12T08:29:41.000Z</time></trkpt><trkpt lon="5.99621" lat="50.983784"><ele>50.8</ele><time>2022-06-12T08:29:42.000Z</time></trkpt><trkpt lon="5.996104" lat="50.98378"><ele>51</ele><time>2022-06-12T08:29:43.000Z</time></trkpt><trkpt lon="5.995992" lat="50.983776"><ele>51</ele><time>2022-06-12T08:29:44.000Z</time></trkpt><trkpt lon="5.995888" lat="50.983769"><ele>51</ele><time>2022-06-12T08:29:45.000Z</time></trkpt><trkpt lon="5.99578" lat="50.983765"><ele>51</ele><time>2022-06-12T08:29:46.000Z</time></trkpt><trkpt lon="5.995672" lat="50.983761"><ele>51</ele><time>2022-06-12T08:29:47.000Z</time></trkpt><trkpt lon="5.995565" lat="50.983754"><ele>51.2</ele><time>2022-06-12T08:29:48.000Z</time></trkpt><trkpt lon="5.995456" lat="50.98375"><ele>51</ele><time>2022-06-12T08:29:49.000Z</time></trkpt><trkpt lon="5.995348" lat="50.983742"><ele>51</ele><time>2022-06-12T08:29:50.000Z</time></trkpt><trkpt lon="5.995238" lat="50.983738"><ele>51.2</ele><time>2022-06-12T08:29:51.000Z</time></trkpt><trkpt lon="5.995128" lat="50.983731"><ele>51.2</ele><time>2022-06-12T08:29:52.000Z</time></trkpt><trkpt lon="5.995019" lat="50.983727"><ele>51.2</ele><time>2022-06-12T08:29:53.000Z</time></trkpt><trkpt lon="5.99491" lat="50.983723"><ele>51.2</ele><time>2022-06-12T08:29:54.000Z</time></trkpt><trkpt lon="5.994798" lat="50.983719"><ele>51.2</ele><time>2022-06-12T08:29:55.000Z</time></trkpt><trkpt lon="5.994687" lat="50.983715"><ele>51.2</ele><time>2022-06-12T08:29:56.000Z</time></trkpt><trkpt lon="5.994578" lat="50.983708"><ele>51.2</ele><time>2022-06-12T08:29:57.000Z</time></trkpt><trkpt lon="5.994465" lat="50.983704"><ele>51.2</ele><time>2022-06-12T08:29:58.000Z</time></trkpt><trkpt lon="5.994359" lat="50.9837"><ele>51</ele><time>2022-06-12T08:29:59.000Z</time></trkpt><trkpt lon="5.994247" lat="50.983692"><ele>51</ele><time>2022-06-12T08:30:00.000Z</time></trkpt><trkpt lon="5.994141" lat="50.983689"><ele>50.8</ele><time>2022-06-12T08:30:01.000Z</time></trkpt><trkpt lon="5.994033" lat="50.983688"><ele>51</ele><time>2022-06-12T08:30:02.000Z</time></trkpt><trkpt lon="5.993929" lat="50.983681"><ele>51</ele><time>2022-06-12T08:30:03.000Z</time></trkpt><trkpt lon="5.993823" lat="50.983673"><ele>51</ele><time>2022-06-12T08:30:04.000Z</time></trkpt><trkpt lon="5.993722" lat="50.983669"><ele>51.2</ele><time>2022-06-12T08:30:05.000Z</time></trkpt><trkpt lon="5.99362" lat="50.983662"><ele>51.2</ele><time>2022-06-12T08:30:06.000Z</time></trkpt><trkpt lon="5.993517" lat="50.983658"><ele>51.2</ele><time>2022-06-12T08:30:07.000Z</time></trkpt><trkpt lon="5.99341" lat="50.983654"><ele>51.2</ele><time>2022-06-12T08:30:08.000Z</time></trkpt><trkpt lon="5.993308" lat="50.98365"><ele>51.2</ele><time>2022-06-12T08:30:09.000Z</time></trkpt><trkpt lon="5.993203" lat="50.983647"><ele>51</ele><time>2022-06-12T08:30:10.000Z</time></trkpt><trkpt lon="5.993104" lat="50.983643"><ele>51</ele><time>2022-06-12T08:30:11.000Z</time></trkpt><trkpt lon="5.993" lat="50.983639"><ele>51</ele><time>2022-06-12T08:30:12.000Z</time></trkpt><trkpt lon="5.992899" lat="50.983639"><ele>51</ele><time>2022-06-12T08:30:13.000Z</time></trkpt><trkpt lon="5.992801" lat="50.983631"><ele>51</ele><time>2022-06-12T08:30:14.000Z</time></trkpt><trkpt lon="5.992704" lat="50.983628"><ele>51</ele><time>2022-06-12T08:30:15.000Z</time></trkpt><trkpt lon="5.992613" lat="50.98362"><ele>51</ele><time>2022-06-12T08:30:16.000Z</time></trkpt><trkpt lon="5.992531" lat="50.983613"><ele>51.2</ele><time>2022-06-12T08:30:17.000Z</time></trkpt><trkpt lon="5.992463" lat="50.983608"><ele>51.2</ele><time>2022-06-12T08:30:18.000Z</time></trkpt><trkpt lon="5.992409" lat="50.983601"><ele>51.2</ele><time>2022-06-12T08:30:19.000Z</time></trkpt><trkpt lon="5.992354" lat="50.983604"><ele>51.4</ele><time>2022-06-12T08:30:20.000Z</time></trkpt><trkpt lon="5.992306" lat="50.983608"><ele>51.6</ele><time>2022-06-12T08:30:21.000Z</time></trkpt><trkpt lon="5.992276" lat="50.983623"><ele>52</ele><time>2022-06-12T08:30:22.000Z</time></trkpt><trkpt lon="5.992257" lat="50.983642"><ele>52.2</ele><time>2022-06-12T08:30:23.000Z</time></trkpt><trkpt lon="5.992241" lat="50.983665"><ele>52.4</ele><time>2022-06-12T08:30:24.000Z</time></trkpt><trkpt lon="5.992213" lat="50.98368"><ele>52.4</ele><time>2022-06-12T08:30:25.000Z</time></trkpt><trkpt lon="5.992178" lat="50.983684"><ele>52.4</ele><time>2022-06-12T08:30:26.000Z</time></trkpt><trkpt lon="5.992141" lat="50.983685"><ele>52.2</ele><time>2022-06-12T08:30:27.000Z</time></trkpt><trkpt lon="5.992101" lat="50.983674"><ele>52.2</ele><time>2022-06-12T08:30:28.000Z</time></trkpt><trkpt lon="5.992052" lat="50.983662"><ele>52</ele><time>2022-06-12T08:30:29.000Z</time></trkpt><trkpt lon="5.992003" lat="50.983644"><ele>52</ele><time>2022-06-12T08:30:30.000Z</time></trkpt><trkpt lon="5.991951" lat="50.983616"><ele>51.8</ele><time>2022-06-12T08:30:31.000Z</time></trkpt><trkpt lon="5.991895" lat="50.983583"><ele>51.6</ele><time>2022-06-12T08:30:32.000Z</time></trkpt><trkpt lon="5.991843" lat="50.983556"><ele>51.4</ele><time>2022-06-12T08:30:33.000Z</time></trkpt><trkpt lon="5.991798" lat="50.983529"><ele>51.2</ele><time>2022-06-12T08:30:34.000Z</time></trkpt><trkpt lon="5.991755" lat="50.983499"><ele>51.2</ele><time>2022-06-12T08:30:35.000Z</time></trkpt><trkpt lon="5.991713" lat="50.983472"><ele>51</ele><time>2022-06-12T08:30:36.000Z</time></trkpt><trkpt lon="5.991667" lat="50.983445"><ele>51</ele><time>2022-06-12T08:30:37.000Z</time></trkpt><trkpt lon="5.991631" lat="50.983423"><ele>50.8</ele><time>2022-06-12T08:30:38.000Z</time></trkpt><trkpt lon="5.991581" lat="50.983384"><ele>50.8</ele><time>2022-06-12T08:30:39.000Z</time></trkpt><trkpt lon="5.991532" lat="50.98335"><ele>50.6</ele><time>2022-06-12T08:30:40.000Z</time></trkpt><trkpt lon="5.99148" lat="50.983323"><ele>50.6</ele><time>2022-06-12T08:30:41.000Z</time></trkpt><trkpt lon="5.991431" lat="50.983293"><ele>50.6</ele><time>2022-06-12T08:30:42.000Z</time></trkpt><trkpt lon="5.99138" lat="50.983262"><ele>50.6</ele><time>2022-06-12T08:30:43.000Z</time></trkpt><trkpt lon="5.991332" lat="50.983226"><ele>50.6</ele><time>2022-06-12T08:30:44.000Z</time></trkpt><trkpt lon="5.991278" lat="50.98319"><ele>50.6</ele><time>2022-06-12T08:30:45.000Z</time></trkpt><trkpt lon="5.991221" lat="50.983156"><ele>50.6</ele><time>2022-06-12T08:30:46.000Z</time></trkpt><trkpt lon="5.991171" lat="50.983128"><ele>50.6</ele><time>2022-06-12T08:30:47.000Z</time></trkpt><trkpt lon="5.991128" lat="50.983102"><ele>50.4</ele><time>2022-06-12T08:30:48.000Z</time></trkpt><trkpt lon="5.991087" lat="50.983083"><ele>50.4</ele><time>2022-06-12T08:30:49.000Z</time></trkpt><trkpt lon="5.991042" lat="50.983064"><ele>50.4</ele><time>2022-06-12T08:30:50.000Z</time></trkpt><trkpt lon="5.99099" lat="50.983033"><ele>50.4</ele><time>2022-06-12T08:30:51.000Z</time></trkpt><trkpt lon="5.990937" lat="50.983006"><ele>50.4</ele><time>2022-06-12T08:30:52.000Z</time></trkpt><trkpt lon="5.99088" lat="50.98298"><ele>50.4</ele><time>2022-06-12T08:30:53.000Z</time></trkpt><trkpt lon="5.990819" lat="50.982939"><ele>50.4</ele><time>2022-06-12T08:30:54.000Z</time></trkpt><trkpt lon="5.990746" lat="50.9829"><ele>50.4</ele><time>2022-06-12T08:30:55.000Z</time></trkpt><trkpt lon="5.990679" lat="50.982862"><ele>50.4</ele><time>2022-06-12T08:30:56.000Z</time></trkpt><trkpt lon="5.990596" lat="50.98281"><ele>50.4</ele><time>2022-06-12T08:30:57.000Z</time></trkpt><trkpt lon="5.990501" lat="50.982753"><ele>50.4</ele><time>2022-06-12T08:30:58.000Z</time></trkpt><trkpt lon="5.990408" lat="50.982709"><ele>50.4</ele><time>2022-06-12T08:30:59.000Z</time></trkpt><trkpt lon="5.990291" lat="50.982653"><ele>50.4</ele><time>2022-06-12T08:31:00.000Z</time></trkpt><trkpt lon="5.990148" lat="50.982596"><ele>50.4</ele><time>2022-06-12T08:31:01.000Z</time></trkpt><trkpt lon="5.989949" lat="50.982542"><ele>50.4</ele><time>2022-06-12T08:31:02.000Z</time></trkpt><trkpt lon="5.989752" lat="50.982507"><ele>50.2</ele><time>2022-06-12T08:31:03.000Z</time></trkpt><trkpt lon="5.989586" lat="50.982481"><ele>50.2</ele><time>2022-06-12T08:31:04.000Z</time></trkpt><trkpt lon="5.989435" lat="50.982461"><ele>50.2</ele><time>2022-06-12T08:31:05.000Z</time></trkpt><trkpt lon="5.989283" lat="50.982445"><ele>50.2</ele><time>2022-06-12T08:31:06.000Z</time></trkpt><trkpt lon="5.989151" lat="50.982428"><ele>50.2</ele><time>2022-06-12T08:31:07.000Z</time></trkpt><trkpt lon="5.989012" lat="50.982415"><ele>50.2</ele><time>2022-06-12T08:31:08.000Z</time></trkpt><trkpt lon="5.988872" lat="50.982403"><ele>50.2</ele><time>2022-06-12T08:31:09.000Z</time></trkpt><trkpt lon="5.988751" lat="50.982392"><ele>50.2</ele><time>2022-06-12T08:31:10.000Z</time></trkpt><trkpt lon="5.988622" lat="50.982384"><ele>50.2</ele><time>2022-06-12T08:31:11.000Z</time></trkpt><trkpt lon="5.988496" lat="50.98238"><ele>50.2</ele><time>2022-06-12T08:31:12.000Z</time></trkpt><trkpt lon="5.988369" lat="50.982373"><ele>50.2</ele><time>2022-06-12T08:31:13.000Z</time></trkpt><trkpt lon="5.988242" lat="50.982365"><ele>50.2</ele><time>2022-06-12T08:31:14.000Z</time></trkpt><trkpt lon="5.988116" lat="50.982361"><ele>50.4</ele><time>2022-06-12T08:31:15.000Z</time></trkpt><trkpt lon="5.987995" lat="50.982354"><ele>50.4</ele><time>2022-06-12T08:31:16.000Z</time></trkpt><trkpt lon="5.987874" lat="50.98235"><ele>50.2</ele><time>2022-06-12T08:31:17.000Z</time></trkpt><trkpt lon="5.987756" lat="50.982346"><ele>50.4</ele><time>2022-06-12T08:31:18.000Z</time></trkpt><trkpt lon="5.987643" lat="50.982342"><ele>50.4</ele><time>2022-06-12T08:31:19.000Z</time></trkpt><trkpt lon="5.98753" lat="50.982338"><ele>50.4</ele><time>2022-06-12T08:31:20.000Z</time></trkpt><trkpt lon="5.987417" lat="50.982334"><ele>50.4</ele><time>2022-06-12T08:31:21.000Z</time></trkpt><trkpt lon="5.987311" lat="50.982327"><ele>50.4</ele><time>2022-06-12T08:31:22.000Z</time></trkpt><trkpt lon="5.987202" lat="50.982323"><ele>50.4</ele><time>2022-06-12T08:31:23.000Z</time></trkpt><trkpt lon="5.987097" lat="50.982319"><ele>50.4</ele><time>2022-06-12T08:31:24.000Z</time></trkpt><trkpt lon="5.986989" lat="50.982312"><ele>50.4</ele><time>2022-06-12T08:31:25.000Z</time></trkpt><trkpt lon="5.986883" lat="50.982308"><ele>50.4</ele><time>2022-06-12T08:31:26.000Z</time></trkpt><trkpt lon="5.986777" lat="50.9823"><ele>50.4</ele><time>2022-06-12T08:31:27.000Z</time></trkpt><trkpt lon="5.986674" lat="50.9823"><ele>50.6</ele><time>2022-06-12T08:31:28.000Z</time></trkpt><trkpt lon="5.986567" lat="50.982296"><ele>50.6</ele><time>2022-06-12T08:31:29.000Z</time></trkpt><trkpt lon="5.986463" lat="50.982292"><ele>50.4</ele><time>2022-06-12T08:31:30.000Z</time></trkpt><trkpt lon="5.986354" lat="50.982288"><ele>50.4</ele><time>2022-06-12T08:31:31.000Z</time></trkpt><trkpt lon="5.986247" lat="50.982281"><ele>50.6</ele><time>2022-06-12T08:31:32.000Z</time></trkpt><trkpt lon="5.986141" lat="50.982273"><ele>50.6</ele><time>2022-06-12T08:31:33.000Z</time></trkpt><trkpt lon="5.986032" lat="50.982269"><ele>50.6</ele><time>2022-06-12T08:31:34.000Z</time></trkpt><trkpt lon="5.985925" lat="50.982266"><ele>50.6</ele><time>2022-06-12T08:31:35.000Z</time></trkpt><trkpt lon="5.985817" lat="50.982262"><ele>50.6</ele><time>2022-06-12T08:31:36.000Z</time></trkpt><trkpt lon="5.985709" lat="50.982258"><ele>50.6</ele><time>2022-06-12T08:31:37.000Z</time></trkpt><trkpt lon="5.985614" lat="50.982255"><ele>50.6</ele><time>2022-06-12T08:31:38.000Z</time></trkpt><trkpt lon="5.985492" lat="50.98225"><ele>50.6</ele><time>2022-06-12T08:31:39.000Z</time></trkpt><trkpt lon="5.985382" lat="50.982247"><ele>50.4</ele><time>2022-06-12T08:31:40.000Z</time></trkpt><trkpt lon="5.985272" lat="50.982243"><ele>50.6</ele><time>2022-06-12T08:31:41.000Z</time></trkpt><trkpt lon="5.985164" lat="50.982239"><ele>50.6</ele><time>2022-06-12T08:31:42.000Z</time></trkpt><trkpt lon="5.985057" lat="50.982235"><ele>50.6</ele><time>2022-06-12T08:31:43.000Z</time></trkpt><trkpt lon="5.984951" lat="50.982231"><ele>50.6</ele><time>2022-06-12T08:31:44.000Z</time></trkpt><trkpt lon="5.984848" lat="50.982224"><ele>50.6</ele><time>2022-06-12T08:31:45.000Z</time></trkpt><trkpt lon="5.984744" lat="50.982223"><ele>50.6</ele><time>2022-06-12T08:31:46.000Z</time></trkpt><trkpt lon="5.984647" lat="50.982223"><ele>50.6</ele><time>2022-06-12T08:31:47.000Z</time></trkpt><trkpt lon="5.984555" lat="50.982223"><ele>50.6</ele><time>2022-06-12T08:31:48.000Z</time></trkpt><trkpt lon="5.984469" lat="50.982227"><ele>50.6</ele><time>2022-06-12T08:31:49.000Z</time></trkpt><trkpt lon="5.984379" lat="50.982235"><ele>50.6</ele><time>2022-06-12T08:31:50.000Z</time></trkpt><trkpt lon="5.984296" lat="50.982246"><ele>50.6</ele><time>2022-06-12T08:31:51.000Z</time></trkpt><trkpt lon="5.984213" lat="50.982261"><ele>50.6</ele><time>2022-06-12T08:31:52.000Z</time></trkpt><trkpt lon="5.984127" lat="50.982284"><ele>50.6</ele><time>2022-06-12T08:31:53.000Z</time></trkpt><trkpt lon="5.98404" lat="50.982314"><ele>50.8</ele><time>2022-06-12T08:31:54.000Z</time></trkpt><trkpt lon="5.983953" lat="50.982345"><ele>50.8</ele><time>2022-06-12T08:31:55.000Z</time></trkpt><trkpt lon="5.983863" lat="50.982383"><ele>50.8</ele><time>2022-06-12T08:31:56.000Z</time></trkpt><trkpt lon="5.983776" lat="50.98242"><ele>50.8</ele><time>2022-06-12T08:31:57.000Z</time></trkpt><trkpt lon="5.983689" lat="50.982462"><ele>50.6</ele><time>2022-06-12T08:31:58.000Z</time></trkpt><trkpt lon="5.983603" lat="50.982504"><ele>50.6</ele><time>2022-06-12T08:31:59.000Z</time></trkpt><trkpt lon="5.983517" lat="50.982546"><ele>50.6</ele><time>2022-06-12T08:32:00.000Z</time></trkpt><trkpt lon="5.983431" lat="50.982584"><ele>50.6</ele><time>2022-06-12T08:32:01.000Z</time></trkpt><trkpt lon="5.983344" lat="50.982627"><ele>50.8</ele><time>2022-06-12T08:32:02.000Z</time></trkpt><trkpt lon="5.98326" lat="50.982665"><ele>50.8</ele><time>2022-06-12T08:32:03.000Z</time></trkpt><trkpt lon="5.983176" lat="50.982702"><ele>50.8</ele><time>2022-06-12T08:32:04.000Z</time></trkpt><trkpt lon="5.98309" lat="50.982741"><ele>50.8</ele><time>2022-06-12T08:32:05.000Z</time></trkpt><trkpt lon="5.983007" lat="50.982782"><ele>50.6</ele><time>2022-06-12T08:32:06.000Z</time></trkpt><trkpt lon="5.982917" lat="50.982821"><ele>50.6</ele><time>2022-06-12T08:32:07.000Z</time></trkpt><trkpt lon="5.982835" lat="50.982862"><ele>50.6</ele><time>2022-06-12T08:32:08.000Z</time></trkpt><trkpt lon="5.98275" lat="50.982901"><ele>50.6</ele><time>2022-06-12T08:32:09.000Z</time></trkpt><trkpt lon="5.982665" lat="50.982943"><ele>50.6</ele><time>2022-06-12T08:32:10.000Z</time></trkpt><trkpt lon="5.98258" lat="50.982981"><ele>50.6</ele><time>2022-06-12T08:32:11.000Z</time></trkpt><trkpt lon="5.982496" lat="50.983023"><ele>50.6</ele><time>2022-06-12T08:32:12.000Z</time></trkpt><trkpt lon="5.982415" lat="50.983065"><ele>50.6</ele><time>2022-06-12T08:32:13.000Z</time></trkpt><trkpt lon="5.982336" lat="50.9831"><ele>50.6</ele><time>2022-06-12T08:32:14.000Z</time></trkpt><trkpt lon="5.982259" lat="50.983134"><ele>50.6</ele><time>2022-06-12T08:32:15.000Z</time></trkpt><trkpt lon="5.982184" lat="50.983168"><ele>50.6</ele><time>2022-06-12T08:32:16.000Z</time></trkpt><trkpt lon="5.982102" lat="50.983195"><ele>50.6</ele><time>2022-06-12T08:32:17.000Z</time></trkpt><trkpt lon="5.982016" lat="50.983222"><ele>50.6</ele><time>2022-06-12T08:32:18.000Z</time></trkpt><trkpt lon="5.981922" lat="50.983249"><ele>50.6</ele><time>2022-06-12T08:32:19.000Z</time></trkpt><trkpt lon="5.981828" lat="50.983275"><ele>50.6</ele><time>2022-06-12T08:32:20.000Z</time></trkpt><trkpt lon="5.981737" lat="50.983295"><ele>50.6</ele><time>2022-06-12T08:32:21.000Z</time></trkpt><trkpt lon="5.981647" lat="50.983317"><ele>50.6</ele><time>2022-06-12T08:32:22.000Z</time></trkpt><trkpt lon="5.981545" lat="50.983329"><ele>50.6</ele><time>2022-06-12T08:32:23.000Z</time></trkpt><trkpt lon="5.98144" lat="50.983337"><ele>50.6</ele><time>2022-06-12T08:32:24.000Z</time></trkpt><trkpt lon="5.981337" lat="50.98333"><ele>50.6</ele><time>2022-06-12T08:32:25.000Z</time></trkpt><trkpt lon="5.981227" lat="50.983319"><ele>50.6</ele><time>2022-06-12T08:32:26.000Z</time></trkpt><trkpt lon="5.98112" lat="50.983304"><ele>50.4</ele><time>2022-06-12T08:32:27.000Z</time></trkpt><trkpt lon="5.98102" lat="50.983283"><ele>50.4</ele><time>2022-06-12T08:32:28.000Z</time></trkpt><trkpt lon="5.980901" lat="50.983258"><ele>50.4</ele><time>2022-06-12T08:32:29.000Z</time></trkpt><trkpt lon="5.980805" lat="50.983238"><ele>50.2</ele><time>2022-06-12T08:32:30.000Z</time></trkpt><trkpt lon="5.98069" lat="50.983212"><ele>50.2</ele><time>2022-06-12T08:32:31.000Z</time></trkpt><trkpt lon="5.98059" lat="50.983193"><ele>50</ele><time>2022-06-12T08:32:32.000Z</time></trkpt><trkpt lon="5.980487" lat="50.983178"><ele>50</ele><time>2022-06-12T08:32:33.000Z</time></trkpt><trkpt lon="5.980384" lat="50.983159"><ele>50</ele><time>2022-06-12T08:32:34.000Z</time></trkpt><trkpt lon="5.980277" lat="50.983147"><ele>49.8</ele><time>2022-06-12T08:32:35.000Z</time></trkpt><trkpt lon="5.980167" lat="50.983132"><ele>49.6</ele><time>2022-06-12T08:32:36.000Z</time></trkpt><trkpt lon="5.980053" lat="50.983117"><ele>49.6</ele><time>2022-06-12T08:32:37.000Z</time></trkpt><trkpt lon="5.979943" lat="50.983102"><ele>49.8</ele><time>2022-06-12T08:32:38.000Z</time></trkpt><trkpt lon="5.97983" lat="50.983082"><ele>50</ele><time>2022-06-12T08:32:39.000Z</time></trkpt><trkpt lon="5.979731" lat="50.983063"><ele>50</ele><time>2022-06-12T08:32:40.000Z</time></trkpt><trkpt lon="5.979645" lat="50.983041"><ele>50</ele><time>2022-06-12T08:32:41.000Z</time></trkpt><trkpt lon="5.979569" lat="50.983022"><ele>50.2</ele><time>2022-06-12T08:32:42.000Z</time></trkpt><trkpt lon="5.979483" lat="50.982995"><ele>50.2</ele><time>2022-06-12T08:32:43.000Z</time></trkpt><trkpt lon="5.979411" lat="50.982962"><ele>50.2</ele><time>2022-06-12T08:32:44.000Z</time></trkpt><trkpt lon="5.979331" lat="50.982927"><ele>50</ele><time>2022-06-12T08:32:45.000Z</time></trkpt><trkpt lon="5.979248" lat="50.982889"><ele>50</ele><time>2022-06-12T08:32:46.000Z</time></trkpt><trkpt lon="5.979166" lat="50.98285"><ele>50.2</ele><time>2022-06-12T08:32:47.000Z</time></trkpt><trkpt lon="5.97908" lat="50.982812"><ele>50.2</ele><time>2022-06-12T08:32:48.000Z</time></trkpt><trkpt lon="5.978992" lat="50.982771"><ele>50.2</ele><time>2022-06-12T08:32:49.000Z</time></trkpt><trkpt lon="5.9789" lat="50.982725"><ele>50.2</ele><time>2022-06-12T08:32:50.000Z</time></trkpt><trkpt lon="5.978811" lat="50.982684"><ele>50.2</ele><time>2022-06-12T08:32:51.000Z</time></trkpt><trkpt lon="5.978721" lat="50.982644"><ele>50.2</ele><time>2022-06-12T08:32:52.000Z</time></trkpt><trkpt lon="5.978634" lat="50.982603"><ele>50.2</ele><time>2022-06-12T08:32:53.000Z</time></trkpt><trkpt lon="5.978542" lat="50.982561"><ele>50.2</ele><time>2022-06-12T08:32:54.000Z</time></trkpt><trkpt lon="5.978457" lat="50.982523"><ele>50.4</ele><time>2022-06-12T08:32:55.000Z</time></trkpt><trkpt lon="5.978371" lat="50.982481"><ele>50.4</ele><time>2022-06-12T08:32:56.000Z</time></trkpt><trkpt lon="5.978284" lat="50.982447"><ele>50.6</ele><time>2022-06-12T08:32:57.000Z</time></trkpt><trkpt lon="5.978206" lat="50.982411"><ele>50.8</ele><time>2022-06-12T08:32:58.000Z</time></trkpt><trkpt lon="5.978116" lat="50.98237"><ele>50.6</ele><time>2022-06-12T08:32:59.000Z</time></trkpt><trkpt lon="5.978034" lat="50.982336"><ele>50.6</ele><time>2022-06-12T08:33:00.000Z</time></trkpt><trkpt lon="5.977948" lat="50.982301"><ele>50.6</ele><time>2022-06-12T08:33:01.000Z</time></trkpt><trkpt lon="5.977865" lat="50.982274"><ele>50.8</ele><time>2022-06-12T08:33:02.000Z</time></trkpt><trkpt lon="5.977781" lat="50.982241"><ele>50.8</ele><time>2022-06-12T08:33:03.000Z</time></trkpt><trkpt lon="5.977695" lat="50.982206"><ele>51</ele><time>2022-06-12T08:33:04.000Z</time></trkpt><trkpt lon="5.977607" lat="50.982171"><ele>51</ele><time>2022-06-12T08:33:05.000Z</time></trkpt><trkpt lon="5.977525" lat="50.982133"><ele>51</ele><time>2022-06-12T08:33:06.000Z</time></trkpt><trkpt lon="5.977447" lat="50.982103"><ele>51</ele><time>2022-06-12T08:33:07.000Z</time></trkpt><trkpt lon="5.97738" lat="50.982071"><ele>51</ele><time>2022-06-12T08:33:08.000Z</time></trkpt><trkpt lon="5.977314" lat="50.982041"><ele>51.2</ele><time>2022-06-12T08:33:09.000Z</time></trkpt><trkpt lon="5.977259" lat="50.982022"><ele>51.2</ele><time>2022-06-12T08:33:10.000Z</time></trkpt><trkpt lon="5.977215" lat="50.98201"><ele>51.2</ele><time>2022-06-12T08:33:11.000Z</time></trkpt><trkpt lon="5.977181" lat="50.982003"><ele>51.4</ele><time>2022-06-12T08:33:12.000Z</time></trkpt><trkpt lon="5.977145" lat="50.981999"><ele>51.4</ele><time>2022-06-12T08:33:13.000Z</time></trkpt><trkpt lon="5.97711" lat="50.981988"><ele>51.6</ele><time>2022-06-12T08:33:14.000Z</time></trkpt><trkpt lon="5.977074" lat="50.981976"><ele>51.6</ele><time>2022-06-12T08:33:15.000Z</time></trkpt><trkpt lon="5.977031" lat="50.981961"><ele>51.6</ele><time>2022-06-12T08:33:16.000Z</time></trkpt><trkpt lon="5.976982" lat="50.981946"><ele>51.4</ele><time>2022-06-12T08:33:17.000Z</time></trkpt><trkpt lon="5.97693" lat="50.981927"><ele>51.2</ele><time>2022-06-12T08:33:18.000Z</time></trkpt><trkpt lon="5.976883" lat="50.981912"><ele>51.2</ele><time>2022-06-12T08:33:19.000Z</time></trkpt><trkpt lon="5.976845" lat="50.981897"><ele>51</ele><time>2022-06-12T08:33:20.000Z</time></trkpt><trkpt lon="5.976795" lat="50.981881"><ele>51</ele><time>2022-06-12T08:33:21.000Z</time></trkpt><trkpt lon="5.976745" lat="50.981858"><ele>51</ele><time>2022-06-12T08:33:22.000Z</time></trkpt><trkpt lon="5.976697" lat="50.981839"><ele>51</ele><time>2022-06-12T08:33:23.000Z</time></trkpt><trkpt lon="5.976647" lat="50.981813"><ele>50.8</ele><time>2022-06-12T08:33:24.000Z</time></trkpt><trkpt lon="5.976599" lat="50.98179"><ele>50.8</ele><time>2022-06-12T08:33:25.000Z</time></trkpt><trkpt lon="5.976558" lat="50.981768"><ele>50.8</ele><time>2022-06-12T08:33:26.000Z</time></trkpt><trkpt lon="5.976506" lat="50.981741"><ele>50.8</ele><time>2022-06-12T08:33:27.000Z</time></trkpt><trkpt lon="5.976455" lat="50.981713"><ele>50.6</ele><time>2022-06-12T08:33:28.000Z</time></trkpt><trkpt lon="5.976402" lat="50.98169"><ele>50.6</ele><time>2022-06-12T08:33:29.000Z</time></trkpt><trkpt lon="5.976338" lat="50.981657"><ele>50.6</ele><time>2022-06-12T08:33:30.000Z</time></trkpt><trkpt lon="5.976265" lat="50.981627"><ele>50.6</ele><time>2022-06-12T08:33:31.000Z</time></trkpt><trkpt lon="5.976178" lat="50.981602"><ele>50.6</ele><time>2022-06-12T08:33:32.000Z</time></trkpt><trkpt lon="5.976086" lat="50.981568"><ele>50.4</ele><time>2022-06-12T08:33:33.000Z</time></trkpt><trkpt lon="5.975996" lat="50.981538"><ele>50.6</ele><time>2022-06-12T08:33:34.000Z</time></trkpt><trkpt lon="5.975865" lat="50.981493"><ele>50.4</ele><time>2022-06-12T08:33:35.000Z</time></trkpt><trkpt lon="5.975765" lat="50.981446"><ele>50.4</ele><time>2022-06-12T08:33:36.000Z</time></trkpt><trkpt lon="5.975662" lat="50.981401"><ele>50.4</ele><time>2022-06-12T08:33:37.000Z</time></trkpt><trkpt lon="5.975576" lat="50.981359"><ele>50.4</ele><time>2022-06-12T08:33:38.000Z</time></trkpt><trkpt lon="5.975492" lat="50.981324"><ele>50.4</ele><time>2022-06-12T08:33:39.000Z</time></trkpt><trkpt lon="5.975402" lat="50.981279"><ele>50.4</ele><time>2022-06-12T08:33:40.000Z</time></trkpt><trkpt lon="5.975324" lat="50.981244"><ele>50.4</ele><time>2022-06-12T08:33:41.000Z</time></trkpt><trkpt lon="5.975234" lat="50.98121"><ele>50.4</ele><time>2022-06-12T08:33:42.000Z</time></trkpt><trkpt lon="5.975111" lat="50.981172"><ele>50.2</ele><time>2022-06-12T08:33:43.000Z</time></trkpt><trkpt lon="5.975015" lat="50.98113"><ele>50.2</ele><time>2022-06-12T08:33:44.000Z</time></trkpt><trkpt lon="5.974915" lat="50.981088"><ele>50</ele><time>2022-06-12T08:33:45.000Z</time></trkpt><trkpt lon="5.974814" lat="50.981043"><ele>50</ele><time>2022-06-12T08:33:46.000Z</time></trkpt><trkpt lon="5.974718" lat="50.981004"><ele>49.8</ele><time>2022-06-12T08:33:47.000Z</time></trkpt><trkpt lon="5.974609" lat="50.980959"><ele>49.6</ele><time>2022-06-12T08:33:48.000Z</time></trkpt><trkpt lon="5.974491" lat="50.980917"><ele>49.8</ele><time>2022-06-12T08:33:49.000Z</time></trkpt><trkpt lon="5.974376" lat="50.980875"><ele>49.6</ele><time>2022-06-12T08:33:50.000Z</time></trkpt><trkpt lon="5.974266" lat="50.980848"><ele>49.8</ele><time>2022-06-12T08:33:51.000Z</time></trkpt><trkpt lon="5.974145" lat="50.980806"><ele>49.8</ele><time>2022-06-12T08:33:52.000Z</time></trkpt><trkpt lon="5.974038" lat="50.980772"><ele>49.8</ele><time>2022-06-12T08:33:53.000Z</time></trkpt><trkpt lon="5.973927" lat="50.980741"><ele>49.8</ele><time>2022-06-12T08:33:54.000Z</time></trkpt><trkpt lon="5.973786" lat="50.98071"><ele>49.8</ele><time>2022-06-12T08:33:55.000Z</time></trkpt><trkpt lon="5.973675" lat="50.98068"><ele>49.8</ele><time>2022-06-12T08:33:56.000Z</time></trkpt><trkpt lon="5.973566" lat="50.980649"><ele>49.8</ele><time>2022-06-12T08:33:57.000Z</time></trkpt><trkpt lon="5.973467" lat="50.98063"><ele>50</ele><time>2022-06-12T08:33:58.000Z</time></trkpt><trkpt lon="5.973339" lat="50.980585"><ele>50.2</ele><time>2022-06-12T08:33:59.000Z</time></trkpt><trkpt lon="5.973205" lat="50.980557"><ele>50.2</ele><time>2022-06-12T08:34:00.000Z</time></trkpt><trkpt lon="5.97307" lat="50.980531"><ele>50.2</ele><time>2022-06-12T08:34:01.000Z</time></trkpt><trkpt lon="5.972972" lat="50.980511"><ele>50.4</ele><time>2022-06-12T08:34:02.000Z</time></trkpt><trkpt lon="5.972883" lat="50.980492"><ele>50.4</ele><time>2022-06-12T08:34:03.000Z</time></trkpt><trkpt lon="5.972782" lat="50.980473"><ele>50.4</ele><time>2022-06-12T08:34:04.000Z</time></trkpt><trkpt lon="5.972688" lat="50.980443"><ele>50.2</ele><time>2022-06-12T08:34:05.000Z</time></trkpt><trkpt lon="5.972614" lat="50.980424"><ele>50.2</ele><time>2022-06-12T08:34:06.000Z</time></trkpt><trkpt lon="5.972541" lat="50.980401"><ele>50.2</ele><time>2022-06-12T08:34:07.000Z</time></trkpt><trkpt lon="5.972497" lat="50.980374"><ele>50</ele><time>2022-06-12T08:34:08.000Z</time></trkpt><trkpt lon="5.97243" lat="50.980329"><ele>50</ele><time>2022-06-12T08:34:09.000Z</time></trkpt><trkpt lon="5.972366" lat="50.980283"><ele>50</ele><time>2022-06-12T08:34:10.000Z</time></trkpt><trkpt lon="5.972315" lat="50.980256"><ele>50.2</ele><time>2022-06-12T08:34:11.000Z</time></trkpt><trkpt lon="5.972268" lat="50.980234"><ele>50.2</ele><time>2022-06-12T08:34:12.000Z</time></trkpt><trkpt lon="5.972207" lat="50.980214"><ele>50.2</ele><time>2022-06-12T08:34:13.000Z</time></trkpt><trkpt lon="5.97215" lat="50.980195"><ele>50.2</ele><time>2022-06-12T08:34:14.000Z</time></trkpt><trkpt lon="5.972081" lat="50.980183"><ele>50.2</ele><time>2022-06-12T08:34:15.000Z</time></trkpt><trkpt lon="5.972004" lat="50.980201"><ele>50.2</ele><time>2022-06-12T08:34:16.000Z</time></trkpt><trkpt lon="5.971916" lat="50.980198"><ele>50.2</ele><time>2022-06-12T08:34:17.000Z</time></trkpt><trkpt lon="5.971815" lat="50.980198"><ele>50.2</ele><time>2022-06-12T08:34:18.000Z</time></trkpt><trkpt lon="5.971749" lat="50.980194"><ele>50.2</ele><time>2022-06-12T08:34:19.000Z</time></trkpt><trkpt lon="5.971698" lat="50.980187"><ele>50.2</ele><time>2022-06-12T08:34:20.000Z</time></trkpt><trkpt lon="5.97164" lat="50.980175"><ele>50.2</ele><time>2022-06-12T08:34:21.000Z</time></trkpt><trkpt lon="5.971585" lat="50.980164"><ele>50.2</ele><time>2022-06-12T08:34:22.000Z</time></trkpt><trkpt lon="5.97153" lat="50.980152"><ele>50.2</ele><time>2022-06-12T08:34:23.000Z</time></trkpt><trkpt lon="5.971472" lat="50.980141"><ele>50.2</ele><time>2022-06-12T08:34:24.000Z</time></trkpt><trkpt lon="5.971411" lat="50.980122"><ele>50</ele><time>2022-06-12T08:34:25.000Z</time></trkpt><trkpt lon="5.971338" lat="50.980107"><ele>50</ele><time>2022-06-12T08:34:26.000Z</time></trkpt><trkpt lon="5.971266" lat="50.980088"><ele>50</ele><time>2022-06-12T08:34:27.000Z</time></trkpt><trkpt lon="5.97119" lat="50.980073"><ele>49.8</ele><time>2022-06-12T08:34:28.000Z</time></trkpt><trkpt lon="5.971099" lat="50.980061"><ele>49.8</ele><time>2022-06-12T08:34:29.000Z</time></trkpt><trkpt lon="5.971017" lat="50.980046"><ele>49.6</ele><time>2022-06-12T08:34:30.000Z</time></trkpt><trkpt lon="5.970944" lat="50.980029"><ele>49.6</ele><time>2022-06-12T08:34:31.000Z</time></trkpt><trkpt lon="5.970855" lat="50.980011"><ele>49.6</ele><time>2022-06-12T08:34:32.000Z</time></trkpt><trkpt lon="5.970782" lat="50.979997"><ele>49.6</ele><time>2022-06-12T08:34:33.000Z</time></trkpt><trkpt lon="5.970687" lat="50.979981"><ele>49.6</ele><time>2022-06-12T08:34:34.000Z</time></trkpt><trkpt lon="5.970594" lat="50.979955"><ele>49.6</ele><time>2022-06-12T08:34:35.000Z</time></trkpt><trkpt lon="5.9705" lat="50.979935"><ele>49.6</ele><time>2022-06-12T08:34:36.000Z</time></trkpt><trkpt lon="5.970403" lat="50.979916"><ele>49.6</ele><time>2022-06-12T08:34:37.000Z</time></trkpt><trkpt lon="5.970319" lat="50.979894"><ele>49.8</ele><time>2022-06-12T08:34:38.000Z</time></trkpt><trkpt lon="5.970217" lat="50.97987"><ele>49.8</ele><time>2022-06-12T08:34:39.000Z</time></trkpt><trkpt lon="5.970109" lat="50.979844"><ele>50</ele><time>2022-06-12T08:34:40.000Z</time></trkpt><trkpt lon="5.970011" lat="50.979821"><ele>50</ele><time>2022-06-12T08:34:41.000Z</time></trkpt><trkpt lon="5.969902" lat="50.979802"><ele>50</ele><time>2022-06-12T08:34:42.000Z</time></trkpt><trkpt lon="5.969793" lat="50.979779"><ele>50</ele><time>2022-06-12T08:34:43.000Z</time></trkpt><trkpt lon="5.969686" lat="50.979757"><ele>49.8</ele><time>2022-06-12T08:34:44.000Z</time></trkpt><trkpt lon="5.969569" lat="50.979741"><ele>49.8</ele><time>2022-06-12T08:34:45.000Z</time></trkpt><trkpt lon="5.969449" lat="50.979722"><ele>49.6</ele><time>2022-06-12T08:34:46.000Z</time></trkpt><trkpt lon="5.969356" lat="50.979706"><ele>49.6</ele><time>2022-06-12T08:34:47.000Z</time></trkpt><trkpt lon="5.969223" lat="50.979684"><ele>49.6</ele><time>2022-06-12T08:34:48.000Z</time></trkpt><trkpt lon="5.969085" lat="50.979662"><ele>49.6</ele><time>2022-06-12T08:34:49.000Z</time></trkpt><trkpt lon="5.968948" lat="50.979638"><ele>49.8</ele><time>2022-06-12T08:34:50.000Z</time></trkpt><trkpt lon="5.968832" lat="50.979619"><ele>49.8</ele><time>2022-06-12T08:34:51.000Z</time></trkpt><trkpt lon="5.968713" lat="50.9796"><ele>49.8</ele><time>2022-06-12T08:34:52.000Z</time></trkpt><trkpt lon="5.968583" lat="50.979584"><ele>49.8</ele><time>2022-06-12T08:34:53.000Z</time></trkpt><trkpt lon="5.968474" lat="50.979574"><ele>49.8</ele><time>2022-06-12T08:34:54.000Z</time></trkpt><trkpt lon="5.968337" lat="50.979569"><ele>49.8</ele><time>2022-06-12T08:34:55.000Z</time></trkpt><trkpt lon="5.968228" lat="50.979565"><ele>49.6</ele><time>2022-06-12T08:34:56.000Z</time></trkpt><trkpt lon="5.968103" lat="50.979561"><ele>49.6</ele><time>2022-06-12T08:34:57.000Z</time></trkpt><trkpt lon="5.967991" lat="50.979568"><ele>49.6</ele><time>2022-06-12T08:34:58.000Z</time></trkpt><trkpt lon="5.967872" lat="50.979572"><ele>49.2</ele><time>2022-06-12T08:34:59.000Z</time></trkpt><trkpt lon="5.967757" lat="50.979583"><ele>49.2</ele><time>2022-06-12T08:35:00.000Z</time></trkpt><trkpt lon="5.967644" lat="50.979595"><ele>49</ele><time>2022-06-12T08:35:01.000Z</time></trkpt><trkpt lon="5.967519" lat="50.979603"><ele>49.2</ele><time>2022-06-12T08:35:02.000Z</time></trkpt><trkpt lon="5.967404" lat="50.979618"><ele>49.2</ele><time>2022-06-12T08:35:03.000Z</time></trkpt><trkpt lon="5.967297" lat="50.979636"><ele>49.2</ele><time>2022-06-12T08:35:04.000Z</time></trkpt><trkpt lon="5.967185" lat="50.979659"><ele>49.2</ele><time>2022-06-12T08:35:05.000Z</time></trkpt><trkpt lon="5.967079" lat="50.979686"><ele>49.4</ele><time>2022-06-12T08:35:06.000Z</time></trkpt><trkpt lon="5.966973" lat="50.979712"><ele>49.4</ele><time>2022-06-12T08:35:07.000Z</time></trkpt><trkpt lon="5.966858" lat="50.97975"><ele>49.4</ele><time>2022-06-12T08:35:08.000Z</time></trkpt><trkpt lon="5.966747" lat="50.979785"><ele>49.4</ele><time>2022-06-12T08:35:09.000Z</time></trkpt><trkpt lon="5.966646" lat="50.97983"><ele>49.4</ele><time>2022-06-12T08:35:10.000Z</time></trkpt><trkpt lon="5.96655" lat="50.979872"><ele>49.2</ele><time>2022-06-12T08:35:11.000Z</time></trkpt><trkpt lon="5.966469" lat="50.979916"><ele>49.4</ele><time>2022-06-12T08:35:12.000Z</time></trkpt><trkpt lon="5.966371" lat="50.979967"><ele>49.4</ele><time>2022-06-12T08:35:13.000Z</time></trkpt><trkpt lon="5.966285" lat="50.980013"><ele>49.4</ele><time>2022-06-12T08:35:14.000Z</time></trkpt><trkpt lon="5.966205" lat="50.980055"><ele>49.6</ele><time>2022-06-12T08:35:15.000Z</time></trkpt><trkpt lon="5.966127" lat="50.980104"><ele>49.6</ele><time>2022-06-12T08:35:16.000Z</time></trkpt><trkpt lon="5.966051" lat="50.980151"><ele>49.6</ele><time>2022-06-12T08:35:17.000Z</time></trkpt><trkpt lon="5.965984" lat="50.980204"><ele>49.6</ele><time>2022-06-12T08:35:18.000Z</time></trkpt><trkpt lon="5.965922" lat="50.980253"><ele>49.6</ele><time>2022-06-12T08:35:19.000Z</time></trkpt><trkpt lon="5.965864" lat="50.9803"><ele>49.6</ele><time>2022-06-12T08:35:20.000Z</time></trkpt><trkpt lon="5.965812" lat="50.980352"><ele>49.6</ele><time>2022-06-12T08:35:21.000Z</time></trkpt><trkpt lon="5.965765" lat="50.980406"><ele>49.8</ele><time>2022-06-12T08:35:22.000Z</time></trkpt><trkpt lon="5.96572" lat="50.980463"><ele>49.8</ele><time>2022-06-12T08:35:23.000Z</time></trkpt><trkpt lon="5.965676" lat="50.980517"><ele>49.8</ele><time>2022-06-12T08:35:24.000Z</time></trkpt><trkpt lon="5.965635" lat="50.98057"><ele>50</ele><time>2022-06-12T08:35:25.000Z</time></trkpt><trkpt lon="5.965592" lat="50.980619"><ele>50</ele><time>2022-06-12T08:35:26.000Z</time></trkpt><trkpt lon="5.965539" lat="50.980677"><ele>49.8</ele><time>2022-06-12T08:35:27.000Z</time></trkpt><trkpt lon="5.965485" lat="50.980741"><ele>49.8</ele><time>2022-06-12T08:35:28.000Z</time></trkpt><trkpt lon="5.965429" lat="50.980798"><ele>49.8</ele><time>2022-06-12T08:35:29.000Z</time></trkpt><trkpt lon="5.96537" lat="50.980853"><ele>49.8</ele><time>2022-06-12T08:35:30.000Z</time></trkpt><trkpt lon="5.965297" lat="50.980912"><ele>49.6</ele><time>2022-06-12T08:35:31.000Z</time></trkpt><trkpt lon="5.965219" lat="50.98096"><ele>49.6</ele><time>2022-06-12T08:35:32.000Z</time></trkpt><trkpt lon="5.965127" lat="50.981012"><ele>49.6</ele><time>2022-06-12T08:35:33.000Z</time></trkpt><trkpt lon="5.965051" lat="50.981054"><ele>50</ele><time>2022-06-12T08:35:34.000Z</time></trkpt><trkpt lon="5.964958" lat="50.981104"><ele>50</ele><time>2022-06-12T08:35:35.000Z</time></trkpt><trkpt lon="5.96486" lat="50.981156"><ele>49.8</ele><time>2022-06-12T08:35:36.000Z</time></trkpt><trkpt lon="5.964767" lat="50.981204"><ele>49.6</ele><time>2022-06-12T08:35:37.000Z</time></trkpt><trkpt lon="5.964685" lat="50.981244"><ele>49.6</ele><time>2022-06-12T08:35:38.000Z</time></trkpt><trkpt lon="5.964603" lat="50.981283"><ele>49.8</ele><time>2022-06-12T08:35:39.000Z</time></trkpt><trkpt lon="5.964527" lat="50.981322"><ele>50</ele><time>2022-06-12T08:35:40.000Z</time></trkpt><trkpt lon="5.964449" lat="50.981356"><ele>50</ele><time>2022-06-12T08:35:41.000Z</time></trkpt><trkpt lon="5.964373" lat="50.98139"><ele>50</ele><time>2022-06-12T08:35:42.000Z</time></trkpt><trkpt lon="5.964308" lat="50.981425"><ele>50</ele><time>2022-06-12T08:35:43.000Z</time></trkpt><trkpt lon="5.964247" lat="50.981463"><ele>50</ele><time>2022-06-12T08:35:44.000Z</time></trkpt><trkpt lon="5.964186" lat="50.981493"><ele>50</ele><time>2022-06-12T08:35:45.000Z</time></trkpt><trkpt lon="5.964129" lat="50.981531"><ele>49.8</ele><time>2022-06-12T08:35:46.000Z</time></trkpt><trkpt lon="5.964062" lat="50.981574"><ele>49.8</ele><time>2022-06-12T08:35:47.000Z</time></trkpt><trkpt lon="5.963993" lat="50.981619"><ele>49.8</ele><time>2022-06-12T08:35:48.000Z</time></trkpt><trkpt lon="5.963935" lat="50.981654"><ele>49.6</ele><time>2022-06-12T08:35:49.000Z</time></trkpt><trkpt lon="5.963874" lat="50.981688"><ele>49.4</ele><time>2022-06-12T08:35:50.000Z</time></trkpt><trkpt lon="5.963804" lat="50.981723"><ele>49.2</ele><time>2022-06-12T08:35:51.000Z</time></trkpt><trkpt lon="5.963747" lat="50.981753"><ele>49.2</ele><time>2022-06-12T08:35:52.000Z</time></trkpt><trkpt lon="5.96369" lat="50.981772"><ele>49</ele><time>2022-06-12T08:35:53.000Z</time></trkpt><trkpt lon="5.963624" lat="50.981803"><ele>49</ele><time>2022-06-12T08:35:54.000Z</time></trkpt><trkpt lon="5.963551" lat="50.981841"><ele>49</ele><time>2022-06-12T08:35:55.000Z</time></trkpt><trkpt lon="5.963459" lat="50.981875"><ele>48.8</ele><time>2022-06-12T08:35:56.000Z</time></trkpt><trkpt lon="5.963375" lat="50.981913"><ele>48.6</ele><time>2022-06-12T08:35:57.000Z</time></trkpt><trkpt lon="5.963298" lat="50.98194"><ele>48.6</ele><time>2022-06-12T08:35:58.000Z</time></trkpt><trkpt lon="5.963217" lat="50.981974"><ele>48.8</ele><time>2022-06-12T08:35:59.000Z</time></trkpt><trkpt lon="5.963144" lat="50.982005"><ele>49</ele><time>2022-06-12T08:36:00.000Z</time></trkpt><trkpt lon="5.963063" lat="50.98205"><ele>49</ele><time>2022-06-12T08:36:01.000Z</time></trkpt><trkpt lon="5.962989" lat="50.982089"><ele>49</ele><time>2022-06-12T08:36:02.000Z</time></trkpt><trkpt lon="5.962925" lat="50.982123"><ele>49</ele><time>2022-06-12T08:36:03.000Z</time></trkpt><trkpt lon="5.962867" lat="50.98215"><ele>49</ele><time>2022-06-12T08:36:04.000Z</time></trkpt><trkpt lon="5.962806" lat="50.982177"><ele>49.2</ele><time>2022-06-12T08:36:05.000Z</time></trkpt><trkpt lon="5.962744" lat="50.982207"><ele>49.2</ele><time>2022-06-12T08:36:06.000Z</time></trkpt><trkpt lon="5.962669" lat="50.982241"><ele>49.2</ele><time>2022-06-12T08:36:07.000Z</time></trkpt><trkpt lon="5.962586" lat="50.982272"><ele>49.2</ele><time>2022-06-12T08:36:08.000Z</time></trkpt><trkpt lon="5.962499" lat="50.98231"><ele>49.2</ele><time>2022-06-12T08:36:09.000Z</time></trkpt><trkpt lon="5.962415" lat="50.982344"><ele>49</ele><time>2022-06-12T08:36:10.000Z</time></trkpt><trkpt lon="5.962339" lat="50.982375"><ele>49</ele><time>2022-06-12T08:36:11.000Z</time></trkpt><trkpt lon="5.962259" lat="50.98242"><ele>49</ele><time>2022-06-12T08:36:12.000Z</time></trkpt><trkpt lon="5.962175" lat="50.982458"><ele>49</ele><time>2022-06-12T08:36:13.000Z</time></trkpt><trkpt lon="5.962088" lat="50.982511"><ele>49</ele><time>2022-06-12T08:36:14.000Z</time></trkpt><trkpt lon="5.962007" lat="50.98255"><ele>49</ele><time>2022-06-12T08:36:15.000Z</time></trkpt><trkpt lon="5.96192" lat="50.982603"><ele>49</ele><time>2022-06-12T08:36:16.000Z</time></trkpt><trkpt lon="5.961818" lat="50.982664"><ele>49</ele><time>2022-06-12T08:36:17.000Z</time></trkpt><trkpt lon="5.961721" lat="50.982729"><ele>48.8</ele><time>2022-06-12T08:36:18.000Z</time></trkpt><trkpt lon="5.961627" lat="50.982793"><ele>48.8</ele><time>2022-06-12T08:36:19.000Z</time></trkpt><trkpt lon="5.961527" lat="50.982847"><ele>48.6</ele><time>2022-06-12T08:36:20.000Z</time></trkpt><trkpt lon="5.96141" lat="50.982908"><ele>48.6</ele><time>2022-06-12T08:36:21.000Z</time></trkpt><trkpt lon="5.961297" lat="50.982969"><ele>48.6</ele><time>2022-06-12T08:36:22.000Z</time></trkpt><trkpt lon="5.961159" lat="50.983031"><ele>48.6</ele><time>2022-06-12T08:36:23.000Z</time></trkpt><trkpt lon="5.961028" lat="50.983084"><ele>48.6</ele><time>2022-06-12T08:36:24.000Z</time></trkpt><trkpt lon="5.960898" lat="50.983148"><ele>48.4</ele><time>2022-06-12T08:36:25.000Z</time></trkpt><trkpt lon="5.960779" lat="50.983217"><ele>48.4</ele><time>2022-06-12T08:36:26.000Z</time></trkpt><trkpt lon="5.960663" lat="50.983286"><ele>48.2</ele><time>2022-06-12T08:36:27.000Z</time></trkpt><trkpt lon="5.960572" lat="50.983343"><ele>48.2</ele><time>2022-06-12T08:36:28.000Z</time></trkpt><trkpt lon="5.960481" lat="50.9834"><ele>48</ele><time>2022-06-12T08:36:29.000Z</time></trkpt><trkpt lon="5.9604" lat="50.983446"><ele>48</ele><time>2022-06-12T08:36:30.000Z</time></trkpt><trkpt lon="5.960313" lat="50.983488"><ele>48</ele><time>2022-06-12T08:36:31.000Z</time></trkpt><trkpt lon="5.960236" lat="50.983526"><ele>48</ele><time>2022-06-12T08:36:32.000Z</time></trkpt><trkpt lon="5.960157" lat="50.983569"><ele>48</ele><time>2022-06-12T08:36:33.000Z</time></trkpt><trkpt lon="5.960087" lat="50.983607"><ele>48</ele><time>2022-06-12T08:36:34.000Z</time></trkpt><trkpt lon="5.960009" lat="50.983649"><ele>47.8</ele><time>2022-06-12T08:36:35.000Z</time></trkpt><trkpt lon="5.959934" lat="50.983703"><ele>48</ele><time>2022-06-12T08:36:36.000Z</time></trkpt><trkpt lon="5.95986" lat="50.983758"><ele>48</ele><time>2022-06-12T08:36:37.000Z</time></trkpt><trkpt lon="5.95979" lat="50.983811"><ele>48</ele><time>2022-06-12T08:36:38.000Z</time></trkpt><trkpt lon="5.959719" lat="50.98387"><ele>48.2</ele><time>2022-06-12T08:36:39.000Z</time></trkpt><trkpt lon="5.959655" lat="50.983927"><ele>48.2</ele><time>2022-06-12T08:36:40.000Z</time></trkpt><trkpt lon="5.959608" lat="50.983984"><ele>48.2</ele><time>2022-06-12T08:36:41.000Z</time></trkpt><trkpt lon="5.959567" lat="50.984041"><ele>48.4</ele><time>2022-06-12T08:36:42.000Z</time></trkpt><trkpt lon="5.959533" lat="50.984091"><ele>48.6</ele><time>2022-06-12T08:36:43.000Z</time></trkpt><trkpt lon="5.959503" lat="50.984148"><ele>48.6</ele><time>2022-06-12T08:36:44.000Z</time></trkpt><trkpt lon="5.959486" lat="50.984205"><ele>49</ele><time>2022-06-12T08:36:45.000Z</time></trkpt><trkpt lon="5.959473" lat="50.984261"><ele>49.2</ele><time>2022-06-12T08:36:46.000Z</time></trkpt><trkpt lon="5.959457" lat="50.984312"><ele>49.6</ele><time>2022-06-12T08:36:47.000Z</time></trkpt><trkpt lon="5.959434" lat="50.984373"><ele>50</ele><time>2022-06-12T08:36:48.000Z</time></trkpt><trkpt lon="5.959419" lat="50.98443"><ele>50.4</ele><time>2022-06-12T08:36:49.000Z</time></trkpt><trkpt lon="5.959415" lat="50.984492"><ele>51</ele><time>2022-06-12T08:36:50.000Z</time></trkpt><trkpt lon="5.959421" lat="50.984541"><ele>51.4</ele><time>2022-06-12T08:36:51.000Z</time></trkpt><trkpt lon="5.959422" lat="50.984587"><ele>52</ele><time>2022-06-12T08:36:52.000Z</time></trkpt><trkpt lon="5.959415" lat="50.984637"><ele>52.4</ele><time>2022-06-12T08:36:53.000Z</time></trkpt><trkpt lon="5.959417" lat="50.984679"><ele>53</ele><time>2022-06-12T08:36:54.000Z</time></trkpt><trkpt lon="5.95942" lat="50.984724"><ele>53.4</ele><time>2022-06-12T08:36:55.000Z</time></trkpt><trkpt lon="5.959427" lat="50.98477"><ele>53.8</ele><time>2022-06-12T08:36:56.000Z</time></trkpt><trkpt lon="5.959438" lat="50.984816"><ele>54.2</ele><time>2022-06-12T08:36:57.000Z</time></trkpt><trkpt lon="5.959449" lat="50.984862"><ele>54.6</ele><time>2022-06-12T08:36:58.000Z</time></trkpt><trkpt lon="5.959475" lat="50.9849"><ele>54.8</ele><time>2022-06-12T08:36:59.000Z</time></trkpt><trkpt lon="5.959502" lat="50.984934"><ele>55.2</ele><time>2022-06-12T08:37:00.000Z</time></trkpt><trkpt lon="5.959549" lat="50.984973"><ele>55.4</ele><time>2022-06-12T08:37:01.000Z</time></trkpt><trkpt lon="5.959595" lat="50.985014"><ele>55.6</ele><time>2022-06-12T08:37:02.000Z</time></trkpt><trkpt lon="5.959633" lat="50.985049"><ele>55.8</ele><time>2022-06-12T08:37:03.000Z</time></trkpt><trkpt lon="5.959677" lat="50.985086"><ele>55.8</ele><time>2022-06-12T08:37:04.000Z</time></trkpt><trkpt lon="5.959717" lat="50.985129"><ele>56</ele><time>2022-06-12T08:37:05.000Z</time></trkpt><trkpt lon="5.959759" lat="50.985167"><ele>56.2</ele><time>2022-06-12T08:37:06.000Z</time></trkpt><trkpt lon="5.959805" lat="50.985198"><ele>56.4</ele><time>2022-06-12T08:37:07.000Z</time></trkpt><trkpt lon="5.959855" lat="50.985232"><ele>56.4</ele><time>2022-06-12T08:37:08.000Z</time></trkpt><trkpt lon="5.959907" lat="50.98527"><ele>56.6</ele><time>2022-06-12T08:37:09.000Z</time></trkpt><trkpt lon="5.959963" lat="50.985312"><ele>56.8</ele><time>2022-06-12T08:37:10.000Z</time></trkpt><trkpt lon="5.960025" lat="50.985361"><ele>56.8</ele><time>2022-06-12T08:37:11.000Z</time></trkpt><trkpt lon="5.960099" lat="50.985404"><ele>57</ele><time>2022-06-12T08:37:12.000Z</time></trkpt><trkpt lon="5.960169" lat="50.985449"><ele>57.4</ele><time>2022-06-12T08:37:13.000Z</time></trkpt><trkpt lon="5.960238" lat="50.985495"><ele>57.4</ele><time>2022-06-12T08:37:14.000Z</time></trkpt><trkpt lon="5.9603" lat="50.985537"><ele>57.6</ele><time>2022-06-12T08:37:15.000Z</time></trkpt><trkpt lon="5.960361" lat="50.985575"><ele>57.8</ele><time>2022-06-12T08:37:16.000Z</time></trkpt><trkpt lon="5.960431" lat="50.985614"><ele>58</ele><time>2022-06-12T08:37:17.000Z</time></trkpt><trkpt lon="5.960493" lat="50.985651"><ele>58.2</ele><time>2022-06-12T08:37:18.000Z</time></trkpt><trkpt lon="5.960547" lat="50.985683"><ele>58.4</ele><time>2022-06-12T08:37:19.000Z</time></trkpt><trkpt lon="5.960597" lat="50.985713"><ele>58.6</ele><time>2022-06-12T08:37:20.000Z</time></trkpt><trkpt lon="5.960645" lat="50.985744"><ele>58.6</ele><time>2022-06-12T08:37:21.000Z</time></trkpt><trkpt lon="5.96069" lat="50.985781"><ele>58.8</ele><time>2022-06-12T08:37:22.000Z</time></trkpt><trkpt lon="5.960736" lat="50.985823"><ele>59</ele><time>2022-06-12T08:37:23.000Z</time></trkpt><trkpt lon="5.960787" lat="50.985858"><ele>59.2</ele><time>2022-06-12T08:37:24.000Z</time></trkpt><trkpt lon="5.960845" lat="50.985892"><ele>59.4</ele><time>2022-06-12T08:37:25.000Z</time></trkpt><trkpt lon="5.9609" lat="50.985934"><ele>59.6</ele><time>2022-06-12T08:37:26.000Z</time></trkpt><trkpt lon="5.960953" lat="50.985972"><ele>59.6</ele><time>2022-06-12T08:37:27.000Z</time></trkpt><trkpt lon="5.961015" lat="50.986014"><ele>59.6</ele><time>2022-06-12T08:37:28.000Z</time></trkpt><trkpt lon="5.961078" lat="50.986052"><ele>59.8</ele><time>2022-06-12T08:37:29.000Z</time></trkpt><trkpt lon="5.961147" lat="50.986091"><ele>59.8</ele><time>2022-06-12T08:37:30.000Z</time></trkpt><trkpt lon="5.961217" lat="50.986128"><ele>59.8</ele><time>2022-06-12T08:37:31.000Z</time></trkpt><trkpt lon="5.96128" lat="50.986169"><ele>60</ele><time>2022-06-12T08:37:32.000Z</time></trkpt><trkpt lon="5.961354" lat="50.986205"><ele>60</ele><time>2022-06-12T08:37:33.000Z</time></trkpt><trkpt lon="5.961415" lat="50.986242"><ele>60.2</ele><time>2022-06-12T08:37:34.000Z</time></trkpt><trkpt lon="5.961466" lat="50.986285"><ele>60.4</ele><time>2022-06-12T08:37:35.000Z</time></trkpt><trkpt lon="5.961518" lat="50.986327"><ele>60.4</ele><time>2022-06-12T08:37:36.000Z</time></trkpt><trkpt lon="5.961573" lat="50.986361"><ele>60.6</ele><time>2022-06-12T08:37:37.000Z</time></trkpt><trkpt lon="5.961628" lat="50.986392"><ele>60.8</ele><time>2022-06-12T08:37:38.000Z</time></trkpt><trkpt lon="5.961686" lat="50.986426"><ele>60.8</ele><time>2022-06-12T08:37:39.000Z</time></trkpt><trkpt lon="5.96175" lat="50.986461"><ele>61</ele><time>2022-06-12T08:37:40.000Z</time></trkpt><trkpt lon="5.961813" lat="50.986495"><ele>61</ele><time>2022-06-12T08:37:41.000Z</time></trkpt><trkpt lon="5.961868" lat="50.986525"><ele>61</ele><time>2022-06-12T08:37:42.000Z</time></trkpt><trkpt lon="5.961931" lat="50.986563"><ele>61</ele><time>2022-06-12T08:37:43.000Z</time></trkpt><trkpt lon="5.961987" lat="50.986602"><ele>61</ele><time>2022-06-12T08:37:44.000Z</time></trkpt><trkpt lon="5.962047" lat="50.986636"><ele>61.2</ele><time>2022-06-12T08:37:45.000Z</time></trkpt><trkpt lon="5.962094" lat="50.986674"><ele>61.2</ele><time>2022-06-12T08:37:46.000Z</time></trkpt><trkpt lon="5.96214" lat="50.986708"><ele>61.2</ele><time>2022-06-12T08:37:47.000Z</time></trkpt><trkpt lon="5.962182" lat="50.986743"><ele>61.2</ele><time>2022-06-12T08:37:48.000Z</time></trkpt><trkpt lon="5.962229" lat="50.986777"><ele>61.4</ele><time>2022-06-12T08:37:49.000Z</time></trkpt><trkpt lon="5.96228" lat="50.986819"><ele>61.4</ele><time>2022-06-12T08:37:50.000Z</time></trkpt><trkpt lon="5.962341" lat="50.986853"><ele>61.6</ele><time>2022-06-12T08:37:51.000Z</time></trkpt><trkpt lon="5.962404" lat="50.986884"><ele>61.6</ele><time>2022-06-12T08:37:52.000Z</time></trkpt><trkpt lon="5.962475" lat="50.986922"><ele>61.8</ele><time>2022-06-12T08:37:53.000Z</time></trkpt><trkpt lon="5.962531" lat="50.986963"><ele>61.8</ele><time>2022-06-12T08:37:54.000Z</time></trkpt><trkpt lon="5.962599" lat="50.987006"><ele>62</ele><time>2022-06-12T08:37:55.000Z</time></trkpt><trkpt lon="5.962669" lat="50.987058"><ele>62.2</ele><time>2022-06-12T08:37:56.000Z</time></trkpt><trkpt lon="5.962759" lat="50.987119"><ele>62.2</ele><time>2022-06-12T08:37:57.000Z</time></trkpt><trkpt lon="5.962813" lat="50.987173"><ele>62.4</ele><time>2022-06-12T08:37:58.000Z</time></trkpt><trkpt lon="5.962854" lat="50.987216"><ele>62.4</ele><time>2022-06-12T08:37:59.000Z</time></trkpt><trkpt lon="5.962886" lat="50.987265"><ele>62.6</ele><time>2022-06-12T08:38:00.000Z</time></trkpt><trkpt lon="5.962913" lat="50.987318"><ele>62.8</ele><time>2022-06-12T08:38:01.000Z</time></trkpt><trkpt lon="5.962946" lat="50.987373"><ele>62.8</ele><time>2022-06-12T08:38:02.000Z</time></trkpt><trkpt lon="5.96299" lat="50.987429"><ele>63</ele><time>2022-06-12T08:38:03.000Z</time></trkpt><trkpt lon="5.963021" lat="50.987475"><ele>63.2</ele><time>2022-06-12T08:38:04.000Z</time></trkpt><trkpt lon="5.963054" lat="50.987526"><ele>63.2</ele><time>2022-06-12T08:38:05.000Z</time></trkpt><trkpt lon="5.963082" lat="50.987577"><ele>63.4</ele><time>2022-06-12T08:38:06.000Z</time></trkpt><trkpt lon="5.963102" lat="50.987612"><ele>63.6</ele><time>2022-06-12T08:38:07.000Z</time></trkpt><trkpt lon="5.96311" lat="50.98765"><ele>63.6</ele><time>2022-06-12T08:38:08.000Z</time></trkpt><trkpt lon="5.96311" lat="50.987692"><ele>63.8</ele><time>2022-06-12T08:38:09.000Z</time></trkpt><trkpt lon="5.963076" lat="50.987727"><ele>64</ele><time>2022-06-12T08:38:10.000Z</time></trkpt><trkpt lon="5.963038" lat="50.987769"><ele>64.2</ele><time>2022-06-12T08:38:11.000Z</time></trkpt><trkpt lon="5.962979" lat="50.987796"><ele>64.2</ele><time>2022-06-12T08:38:12.000Z</time></trkpt><trkpt lon="5.962905" lat="50.987815"><ele>64.4</ele><time>2022-06-12T08:38:13.000Z</time></trkpt><trkpt lon="5.962821" lat="50.98783"><ele>64.4</ele><time>2022-06-12T08:38:14.000Z</time></trkpt><trkpt lon="5.962732" lat="50.987846"><ele>64.6</ele><time>2022-06-12T08:38:15.000Z</time></trkpt><trkpt lon="5.962639" lat="50.987861"><ele>64.6</ele><time>2022-06-12T08:38:16.000Z</time></trkpt><trkpt lon="5.962548" lat="50.98788"><ele>64.4</ele><time>2022-06-12T08:38:17.000Z</time></trkpt><trkpt lon="5.962457" lat="50.987899"><ele>64.4</ele><time>2022-06-12T08:38:18.000Z</time></trkpt><trkpt lon="5.962367" lat="50.987918"><ele>64.4</ele><time>2022-06-12T08:38:19.000Z</time></trkpt><trkpt lon="5.962279" lat="50.987945"><ele>64.4</ele><time>2022-06-12T08:38:20.000Z</time></trkpt><trkpt lon="5.962193" lat="50.987975"><ele>64.4</ele><time>2022-06-12T08:38:21.000Z</time></trkpt><trkpt lon="5.962098" lat="50.987995"><ele>64.4</ele><time>2022-06-12T08:38:22.000Z</time></trkpt><trkpt lon="5.962003" lat="50.988014"><ele>64.4</ele><time>2022-06-12T08:38:23.000Z</time></trkpt><trkpt lon="5.961918" lat="50.988033"><ele>64.4</ele><time>2022-06-12T08:38:24.000Z</time></trkpt><trkpt lon="5.961839" lat="50.988055"><ele>64.6</ele><time>2022-06-12T08:38:25.000Z</time></trkpt><trkpt lon="5.961764" lat="50.988075"><ele>64.6</ele><time>2022-06-12T08:38:26.000Z</time></trkpt><trkpt lon="5.96169" lat="50.988098"><ele>64.8</ele><time>2022-06-12T08:38:27.000Z</time></trkpt><trkpt lon="5.961617" lat="50.988113"><ele>64.8</ele><time>2022-06-12T08:38:28.000Z</time></trkpt><trkpt lon="5.961541" lat="50.988135"><ele>64.8</ele><time>2022-06-12T08:38:29.000Z</time></trkpt><trkpt lon="5.961453" lat="50.988155"><ele>64.8</ele><time>2022-06-12T08:38:30.000Z</time></trkpt><trkpt lon="5.961365" lat="50.988177"><ele>64.6</ele><time>2022-06-12T08:38:31.000Z</time></trkpt><trkpt lon="5.961271" lat="50.988197"><ele>64.4</ele><time>2022-06-12T08:38:32.000Z</time></trkpt><trkpt lon="5.961173" lat="50.98822"><ele>64.4</ele><time>2022-06-12T08:38:33.000Z</time></trkpt><trkpt lon="5.961078" lat="50.988246"><ele>64.4</ele><time>2022-06-12T08:38:34.000Z</time></trkpt><trkpt lon="5.960978" lat="50.988273"><ele>64.2</ele><time>2022-06-12T08:38:35.000Z</time></trkpt><trkpt lon="5.960874" lat="50.988299"><ele>64.2</ele><time>2022-06-12T08:38:36.000Z</time></trkpt><trkpt lon="5.960763" lat="50.988322"><ele>64</ele><time>2022-06-12T08:38:37.000Z</time></trkpt><trkpt lon="5.960651" lat="50.988349"><ele>64</ele><time>2022-06-12T08:38:38.000Z</time></trkpt><trkpt lon="5.960538" lat="50.988375"><ele>63.8</ele><time>2022-06-12T08:38:39.000Z</time></trkpt><trkpt lon="5.960422" lat="50.988403"><ele>63.6</ele><time>2022-06-12T08:38:40.000Z</time></trkpt><trkpt lon="5.96031" lat="50.988429"><ele>63.4</ele><time>2022-06-12T08:38:41.000Z</time></trkpt><trkpt lon="5.960205" lat="50.988449"><ele>63.2</ele><time>2022-06-12T08:38:42.000Z</time></trkpt><trkpt lon="5.960098" lat="50.988479"><ele>63</ele><time>2022-06-12T08:38:43.000Z</time></trkpt><trkpt lon="5.96" lat="50.988498"><ele>62.6</ele><time>2022-06-12T08:38:44.000Z</time></trkpt><trkpt lon="5.959893" lat="50.988521"><ele>62.4</ele><time>2022-06-12T08:38:45.000Z</time></trkpt><trkpt lon="5.959776" lat="50.988536"><ele>62.2</ele><time>2022-06-12T08:38:46.000Z</time></trkpt><trkpt lon="5.959656" lat="50.988562"><ele>61.8</ele><time>2022-06-12T08:38:47.000Z</time></trkpt><trkpt lon="5.959534" lat="50.988585"><ele>61.6</ele><time>2022-06-12T08:38:48.000Z</time></trkpt><trkpt lon="5.959419" lat="50.988605"><ele>61.4</ele><time>2022-06-12T08:38:49.000Z</time></trkpt><trkpt lon="5.959302" lat="50.988631"><ele>61.2</ele><time>2022-06-12T08:38:50.000Z</time></trkpt><trkpt lon="5.959178" lat="50.988654"><ele>61</ele><time>2022-06-12T08:38:51.000Z</time></trkpt><trkpt lon="5.959058" lat="50.988677"><ele>60.8</ele><time>2022-06-12T08:38:52.000Z</time></trkpt><trkpt lon="5.958927" lat="50.988706"><ele>60.6</ele><time>2022-06-12T08:38:53.000Z</time></trkpt><trkpt lon="5.9588" lat="50.988737"><ele>60.6</ele><time>2022-06-12T08:38:54.000Z</time></trkpt><trkpt lon="5.958678" lat="50.988772"><ele>60.6</ele><time>2022-06-12T08:38:55.000Z</time></trkpt><trkpt lon="5.958569" lat="50.988798"><ele>60.6</ele><time>2022-06-12T08:38:56.000Z</time></trkpt><trkpt lon="5.958446" lat="50.988829"><ele>60.6</ele><time>2022-06-12T08:38:57.000Z</time></trkpt><trkpt lon="5.958334" lat="50.988856"><ele>60.6</ele><time>2022-06-12T08:38:58.000Z</time></trkpt><trkpt lon="5.958213" lat="50.988883"><ele>60.8</ele><time>2022-06-12T08:38:59.000Z</time></trkpt><trkpt lon="5.958103" lat="50.988917"><ele>60.8</ele><time>2022-06-12T08:39:00.000Z</time></trkpt><trkpt lon="5.957997" lat="50.988947"><ele>60.8</ele><time>2022-06-12T08:39:01.000Z</time></trkpt><trkpt lon="5.957896" lat="50.988975"><ele>61</ele><time>2022-06-12T08:39:02.000Z</time></trkpt><trkpt lon="5.95779" lat="50.989001"><ele>61</ele><time>2022-06-12T08:39:03.000Z</time></trkpt><trkpt lon="5.957676" lat="50.989028"><ele>61</ele><time>2022-06-12T08:39:04.000Z</time></trkpt><trkpt lon="5.957578" lat="50.989058"><ele>61.2</ele><time>2022-06-12T08:39:05.000Z</time></trkpt><trkpt lon="5.957477" lat="50.989081"><ele>61.2</ele><time>2022-06-12T08:39:06.000Z</time></trkpt><trkpt lon="5.957373" lat="50.989108"><ele>61.4</ele><time>2022-06-12T08:39:07.000Z</time></trkpt><trkpt lon="5.957273" lat="50.989131"><ele>61.4</ele><time>2022-06-12T08:39:08.000Z</time></trkpt><trkpt lon="5.957174" lat="50.989154"><ele>61.4</ele><time>2022-06-12T08:39:09.000Z</time></trkpt><trkpt lon="5.957073" lat="50.989177"><ele>61.6</ele><time>2022-06-12T08:39:10.000Z</time></trkpt><trkpt lon="5.956979" lat="50.9892"><ele>61.6</ele><time>2022-06-12T08:39:11.000Z</time></trkpt><trkpt lon="5.956878" lat="50.989226"><ele>61.6</ele><time>2022-06-12T08:39:12.000Z</time></trkpt><trkpt lon="5.956774" lat="50.989256"><ele>61.8</ele><time>2022-06-12T08:39:13.000Z</time></trkpt><trkpt lon="5.956663" lat="50.989287"><ele>61.8</ele><time>2022-06-12T08:39:14.000Z</time></trkpt><trkpt lon="5.956554" lat="50.989314"><ele>61.8</ele><time>2022-06-12T08:39:15.000Z</time></trkpt><trkpt lon="5.956447" lat="50.98934"><ele>61.8</ele><time>2022-06-12T08:39:16.000Z</time></trkpt><trkpt lon="5.956332" lat="50.989371"><ele>61.8</ele><time>2022-06-12T08:39:17.000Z</time></trkpt><trkpt lon="5.956211" lat="50.989402"><ele>61.8</ele><time>2022-06-12T08:39:18.000Z</time></trkpt><trkpt lon="5.95609" lat="50.989435"><ele>61.8</ele><time>2022-06-12T08:39:19.000Z</time></trkpt><trkpt lon="5.955963" lat="50.989466"><ele>61.8</ele><time>2022-06-12T08:39:20.000Z</time></trkpt><trkpt lon="5.955838" lat="50.989497"><ele>61.8</ele><time>2022-06-12T08:39:21.000Z</time></trkpt><trkpt lon="5.955723" lat="50.989528"><ele>61.8</ele><time>2022-06-12T08:39:22.000Z</time></trkpt><trkpt lon="5.955608" lat="50.989558"><ele>62</ele><time>2022-06-12T08:39:23.000Z</time></trkpt><trkpt lon="5.955497" lat="50.989589"><ele>62</ele><time>2022-06-12T08:39:24.000Z</time></trkpt><trkpt lon="5.955389" lat="50.989615"><ele>62.2</ele><time>2022-06-12T08:39:25.000Z</time></trkpt><trkpt lon="5.955282" lat="50.989642"><ele>62.2</ele><time>2022-06-12T08:39:26.000Z</time></trkpt><trkpt lon="5.955175" lat="50.989669"><ele>62.4</ele><time>2022-06-12T08:39:27.000Z</time></trkpt><trkpt lon="5.955071" lat="50.989695"><ele>62.4</ele><time>2022-06-12T08:39:28.000Z</time></trkpt><trkpt lon="5.954964" lat="50.989722"><ele>62.6</ele><time>2022-06-12T08:39:29.000Z</time></trkpt><trkpt lon="5.954858" lat="50.989749"><ele>62.6</ele><time>2022-06-12T08:39:30.000Z</time></trkpt><trkpt lon="5.954749" lat="50.989776"><ele>62.6</ele><time>2022-06-12T08:39:31.000Z</time></trkpt><trkpt lon="5.954643" lat="50.989802"><ele>62.6</ele><time>2022-06-12T08:39:32.000Z</time></trkpt><trkpt lon="5.95454" lat="50.989829"><ele>62.6</ele><time>2022-06-12T08:39:33.000Z</time></trkpt><trkpt lon="5.954438" lat="50.98986"><ele>62.4</ele><time>2022-06-12T08:39:34.000Z</time></trkpt><trkpt lon="5.954333" lat="50.98989"><ele>62.4</ele><time>2022-06-12T08:39:35.000Z</time></trkpt><trkpt lon="5.954228" lat="50.989916"><ele>62.4</ele><time>2022-06-12T08:39:36.000Z</time></trkpt><trkpt lon="5.954119" lat="50.989943"><ele>62.4</ele><time>2022-06-12T08:39:37.000Z</time></trkpt><trkpt lon="5.954011" lat="50.989974"><ele>62.2</ele><time>2022-06-12T08:39:38.000Z</time></trkpt><trkpt lon="5.953906" lat="50.990001"><ele>62</ele><time>2022-06-12T08:39:39.000Z</time></trkpt><trkpt lon="5.9538" lat="50.990028"><ele>62</ele><time>2022-06-12T08:39:40.000Z</time></trkpt><trkpt lon="5.953696" lat="50.990054"><ele>62</ele><time>2022-06-12T08:39:41.000Z</time></trkpt><trkpt lon="5.953594" lat="50.990081"><ele>62</ele><time>2022-06-12T08:39:42.000Z</time></trkpt><trkpt lon="5.953492" lat="50.990108"><ele>62</ele><time>2022-06-12T08:39:43.000Z</time></trkpt><trkpt lon="5.953397" lat="50.990131"><ele>62</ele><time>2022-06-12T08:39:44.000Z</time></trkpt><trkpt lon="5.953302" lat="50.990157"><ele>62</ele><time>2022-06-12T08:39:45.000Z</time></trkpt><trkpt lon="5.95321" lat="50.99018"><ele>61.8</ele><time>2022-06-12T08:39:46.000Z</time></trkpt><trkpt lon="5.953115" lat="50.990203"><ele>61.8</ele><time>2022-06-12T08:39:47.000Z</time></trkpt><trkpt lon="5.953018" lat="50.99023"><ele>61.8</ele><time>2022-06-12T08:39:48.000Z</time></trkpt><trkpt lon="5.952919" lat="50.990256"><ele>61.6</ele><time>2022-06-12T08:39:49.000Z</time></trkpt><trkpt lon="5.952819" lat="50.990279"><ele>61.6</ele><time>2022-06-12T08:39:50.000Z</time></trkpt><trkpt lon="5.952717" lat="50.99031"><ele>61.4</ele><time>2022-06-12T08:39:51.000Z</time></trkpt><trkpt lon="5.952617" lat="50.99034"><ele>61.4</ele><time>2022-06-12T08:39:52.000Z</time></trkpt><trkpt lon="5.952513" lat="50.990367"><ele>61</ele><time>2022-06-12T08:39:53.000Z</time></trkpt><trkpt lon="5.95241" lat="50.990394"><ele>60.8</ele><time>2022-06-12T08:39:54.000Z</time></trkpt><trkpt lon="5.95231" lat="50.990417"><ele>60.6</ele><time>2022-06-12T08:39:55.000Z</time></trkpt><trkpt lon="5.952213" lat="50.990436"><ele>60.4</ele><time>2022-06-12T08:39:56.000Z</time></trkpt><trkpt lon="5.952115" lat="50.990455"><ele>60.2</ele><time>2022-06-12T08:39:57.000Z</time></trkpt><trkpt lon="5.952018" lat="50.990478"><ele>60.2</ele><time>2022-06-12T08:39:58.000Z</time></trkpt><trkpt lon="5.951922" lat="50.990497"><ele>60.2</ele><time>2022-06-12T08:39:59.000Z</time></trkpt><trkpt lon="5.951825" lat="50.990523"><ele>60.2</ele><time>2022-06-12T08:40:00.000Z</time></trkpt><trkpt lon="5.951729" lat="50.99055"><ele>60.4</ele><time>2022-06-12T08:40:01.000Z</time></trkpt><trkpt lon="5.951643" lat="50.990573"><ele>60.4</ele><time>2022-06-12T08:40:02.000Z</time></trkpt><trkpt lon="5.951548" lat="50.9906"><ele>60.4</ele><time>2022-06-12T08:40:03.000Z</time></trkpt><trkpt lon="5.95145" lat="50.990623"><ele>60.4</ele><time>2022-06-12T08:40:04.000Z</time></trkpt><trkpt lon="5.95135" lat="50.990649"><ele>60.4</ele><time>2022-06-12T08:40:05.000Z</time></trkpt><trkpt lon="5.95125" lat="50.990672"><ele>60.4</ele><time>2022-06-12T08:40:06.000Z</time></trkpt><trkpt lon="5.951147" lat="50.990699"><ele>60.2</ele><time>2022-06-12T08:40:07.000Z</time></trkpt><trkpt lon="5.951045" lat="50.990729"><ele>60.2</ele><time>2022-06-12T08:40:08.000Z</time></trkpt><trkpt lon="5.95094" lat="50.99076"><ele>60</ele><time>2022-06-12T08:40:09.000Z</time></trkpt><trkpt lon="5.950837" lat="50.990794"><ele>60</ele><time>2022-06-12T08:40:10.000Z</time></trkpt><trkpt lon="5.950737" lat="50.990828"><ele>59.8</ele><time>2022-06-12T08:40:11.000Z</time></trkpt><trkpt lon="5.950636" lat="50.990867"><ele>59.6</ele><time>2022-06-12T08:40:12.000Z</time></trkpt><trkpt lon="5.95054" lat="50.990905"><ele>59.4</ele><time>2022-06-12T08:40:13.000Z</time></trkpt><trkpt lon="5.950446" lat="50.990945"><ele>59.2</ele><time>2022-06-12T08:40:14.000Z</time></trkpt><trkpt lon="5.950354" lat="50.990987"><ele>59</ele><time>2022-06-12T08:40:15.000Z</time></trkpt><trkpt lon="5.950264" lat="50.991033"><ele>58.8</ele><time>2022-06-12T08:40:16.000Z</time></trkpt><trkpt lon="5.950181" lat="50.991083"><ele>58.6</ele><time>2022-06-12T08:40:17.000Z</time></trkpt><trkpt lon="5.950104" lat="50.991129"><ele>58.4</ele><time>2022-06-12T08:40:18.000Z</time></trkpt><trkpt lon="5.950029" lat="50.991182"><ele>58.2</ele><time>2022-06-12T08:40:19.000Z</time></trkpt><trkpt lon="5.94995" lat="50.991236"><ele>58</ele><time>2022-06-12T08:40:20.000Z</time></trkpt><trkpt lon="5.949873" lat="50.991289"><ele>57.6</ele><time>2022-06-12T08:40:21.000Z</time></trkpt><trkpt lon="5.949797" lat="50.991343"><ele>57.4</ele><time>2022-06-12T08:40:22.000Z</time></trkpt><trkpt lon="5.949721" lat="50.9914"><ele>57</ele><time>2022-06-12T08:40:23.000Z</time></trkpt><trkpt lon="5.949641" lat="50.991457"><ele>56.8</ele><time>2022-06-12T08:40:24.000Z</time></trkpt><trkpt lon="5.949561" lat="50.99151"><ele>56.4</ele><time>2022-06-12T08:40:25.000Z</time></trkpt><trkpt lon="5.949484" lat="50.991564"><ele>56.2</ele><time>2022-06-12T08:40:26.000Z</time></trkpt><trkpt lon="5.949411" lat="50.99161"><ele>55.8</ele><time>2022-06-12T08:40:27.000Z</time></trkpt><trkpt lon="5.949342" lat="50.991656"><ele>55.6</ele><time>2022-06-12T08:40:28.000Z</time></trkpt><trkpt lon="5.94928" lat="50.991698"><ele>55.4</ele><time>2022-06-12T08:40:29.000Z</time></trkpt><trkpt lon="5.949229" lat="50.991732"><ele>55.4</ele><time>2022-06-12T08:40:30.000Z</time></trkpt><trkpt lon="5.949182" lat="50.991766"><ele>55.4</ele><time>2022-06-12T08:40:31.000Z</time></trkpt><trkpt lon="5.94914" lat="50.991794"><ele>55.4</ele><time>2022-06-12T08:40:32.000Z</time></trkpt><trkpt lon="5.949099" lat="50.99182"><ele>55.6</ele><time>2022-06-12T08:40:33.000Z</time></trkpt><trkpt lon="5.949058" lat="50.99185"><ele>55.6</ele><time>2022-06-12T08:40:34.000Z</time></trkpt><trkpt lon="5.949007" lat="50.991881"><ele>55.6</ele><time>2022-06-12T08:40:35.000Z</time></trkpt><trkpt lon="5.948948" lat="50.991912"><ele>55.8</ele><time>2022-06-12T08:40:36.000Z</time></trkpt><trkpt lon="5.948889" lat="50.991946"><ele>55.6</ele><time>2022-06-12T08:40:37.000Z</time></trkpt><trkpt lon="5.94882" lat="50.991984"><ele>55.6</ele><time>2022-06-12T08:40:38.000Z</time></trkpt><trkpt lon="5.948743" lat="50.992026"><ele>55.4</ele><time>2022-06-12T08:40:39.000Z</time></trkpt><trkpt lon="5.948665" lat="50.992068"><ele>55.2</ele><time>2022-06-12T08:40:40.000Z</time></trkpt><trkpt lon="5.948584" lat="50.992114"><ele>55.2</ele><time>2022-06-12T08:40:41.000Z</time></trkpt><trkpt lon="5.948502" lat="50.992154"><ele>55</ele><time>2022-06-12T08:40:42.000Z</time></trkpt><trkpt lon="5.94841" lat="50.992205"><ele>54.8</ele><time>2022-06-12T08:40:43.000Z</time></trkpt><trkpt lon="5.948318" lat="50.992247"><ele>54.8</ele><time>2022-06-12T08:40:44.000Z</time></trkpt><trkpt lon="5.948228" lat="50.992296"><ele>54.6</ele><time>2022-06-12T08:40:45.000Z</time></trkpt><trkpt lon="5.948137" lat="50.992342"><ele>54.6</ele><time>2022-06-12T08:40:46.000Z</time></trkpt><trkpt lon="5.948046" lat="50.992392"><ele>54.6</ele><time>2022-06-12T08:40:47.000Z</time></trkpt><trkpt lon="5.947954" lat="50.99243"><ele>54.4</ele><time>2022-06-12T08:40:48.000Z</time></trkpt><trkpt lon="5.94786" lat="50.992472"><ele>54.4</ele><time>2022-06-12T08:40:49.000Z</time></trkpt><trkpt lon="5.947765" lat="50.99251"><ele>54.6</ele><time>2022-06-12T08:40:50.000Z</time></trkpt><trkpt lon="5.947668" lat="50.992541"><ele>54.4</ele><time>2022-06-12T08:40:51.000Z</time></trkpt><trkpt lon="5.947567" lat="50.992568"><ele>54.4</ele><time>2022-06-12T08:40:52.000Z</time></trkpt><trkpt lon="5.947463" lat="50.992591"><ele>54.4</ele><time>2022-06-12T08:40:53.000Z</time></trkpt><trkpt lon="5.947362" lat="50.992614"><ele>54.4</ele><time>2022-06-12T08:40:54.000Z</time></trkpt><trkpt lon="5.947261" lat="50.992633"><ele>54.4</ele><time>2022-06-12T08:40:55.000Z</time></trkpt><trkpt lon="5.947162" lat="50.992649"><ele>54.4</ele><time>2022-06-12T08:40:56.000Z</time></trkpt><trkpt lon="5.947063" lat="50.99266"><ele>54.2</ele><time>2022-06-12T08:40:57.000Z</time></trkpt><trkpt lon="5.946965" lat="50.992672"><ele>54.2</ele><time>2022-06-12T08:40:58.000Z</time></trkpt><trkpt lon="5.94687" lat="50.992676"><ele>54.4</ele><time>2022-06-12T08:40:59.000Z</time></trkpt><trkpt lon="5.946779" lat="50.992683"><ele>54.4</ele><time>2022-06-12T08:41:00.000Z</time></trkpt><trkpt lon="5.946686" lat="50.992691"><ele>54.4</ele><time>2022-06-12T08:41:01.000Z</time></trkpt><trkpt lon="5.946601" lat="50.992699"><ele>54.4</ele><time>2022-06-12T08:41:02.000Z</time></trkpt><trkpt lon="5.946522" lat="50.992713"><ele>54.6</ele><time>2022-06-12T08:41:03.000Z</time></trkpt><trkpt lon="5.946444" lat="50.992725"><ele>54.8</ele><time>2022-06-12T08:41:04.000Z</time></trkpt><trkpt lon="5.946369" lat="50.992744"><ele>55</ele><time>2022-06-12T08:41:05.000Z</time></trkpt><trkpt lon="5.9463" lat="50.992763"><ele>55</ele><time>2022-06-12T08:41:06.000Z</time></trkpt><trkpt lon="5.946237" lat="50.992775"><ele>55.2</ele><time>2022-06-12T08:41:07.000Z</time></trkpt><trkpt lon="5.946185" lat="50.992794"><ele>55.4</ele><time>2022-06-12T08:41:08.000Z</time></trkpt><trkpt lon="5.946141" lat="50.992804"><ele>55.4</ele><time>2022-06-12T08:41:09.000Z</time></trkpt><trkpt lon="5.946095" lat="50.992824"><ele>55.4</ele><time>2022-06-12T08:41:10.000Z</time></trkpt><trkpt lon="5.94605" lat="50.992843"><ele>55.4</ele><time>2022-06-12T08:41:11.000Z</time></trkpt><trkpt lon="5.946001" lat="50.99287"><ele>55.4</ele><time>2022-06-12T08:41:12.000Z</time></trkpt><trkpt lon="5.945952" lat="50.992907"><ele>55.4</ele><time>2022-06-12T08:41:13.000Z</time></trkpt><trkpt lon="5.945899" lat="50.992945"><ele>55.2</ele><time>2022-06-12T08:41:14.000Z</time></trkpt><trkpt lon="5.945839" lat="50.992989"><ele>55.2</ele><time>2022-06-12T08:41:15.000Z</time></trkpt><trkpt lon="5.945771" lat="50.99304"><ele>55</ele><time>2022-06-12T08:41:16.000Z</time></trkpt><trkpt lon="5.945704" lat="50.99309"><ele>54.8</ele><time>2022-06-12T08:41:17.000Z</time></trkpt><trkpt lon="5.945636" lat="50.993147"><ele>54.8</ele><time>2022-06-12T08:41:18.000Z</time></trkpt><trkpt lon="5.945582" lat="50.993191"><ele>54.8</ele><time>2022-06-12T08:41:19.000Z</time></trkpt><trkpt lon="5.945508" lat="50.993253"><ele>54.6</ele><time>2022-06-12T08:41:20.000Z</time></trkpt><trkpt lon="5.945444" lat="50.993304"><ele>54.6</ele><time>2022-06-12T08:41:21.000Z</time></trkpt><trkpt lon="5.945377" lat="50.993354"><ele>54.4</ele><time>2022-06-12T08:41:22.000Z</time></trkpt><trkpt lon="5.945309" lat="50.993406"><ele>54.2</ele><time>2022-06-12T08:41:23.000Z</time></trkpt><trkpt lon="5.945239" lat="50.99346"><ele>54.2</ele><time>2022-06-12T08:41:24.000Z</time></trkpt><trkpt lon="5.94517" lat="50.993513"><ele>54</ele><time>2022-06-12T08:41:25.000Z</time></trkpt><trkpt lon="5.945097" lat="50.993566"><ele>54</ele><time>2022-06-12T08:41:26.000Z</time></trkpt><trkpt lon="5.945021" lat="50.993616"><ele>53.8</ele><time>2022-06-12T08:41:27.000Z</time></trkpt><trkpt lon="5.944949" lat="50.993666"><ele>53.6</ele><time>2022-06-12T08:41:28.000Z</time></trkpt><trkpt lon="5.944877" lat="50.993712"><ele>53.4</ele><time>2022-06-12T08:41:29.000Z</time></trkpt><trkpt lon="5.944808" lat="50.993765"><ele>53</ele><time>2022-06-12T08:41:30.000Z</time></trkpt><trkpt lon="5.944739" lat="50.993811"><ele>52.6</ele><time>2022-06-12T08:41:31.000Z</time></trkpt><trkpt lon="5.944674" lat="50.993853"><ele>52.4</ele><time>2022-06-12T08:41:32.000Z</time></trkpt><trkpt lon="5.94461" lat="50.993896"><ele>52</ele><time>2022-06-12T08:41:33.000Z</time></trkpt><trkpt lon="5.944552" lat="50.993937"><ele>51.6</ele><time>2022-06-12T08:41:34.000Z</time></trkpt><trkpt lon="5.944497" lat="50.993972"><ele>51.4</ele><time>2022-06-12T08:41:35.000Z</time></trkpt><trkpt lon="5.944448" lat="50.994002"><ele>51.2</ele><time>2022-06-12T08:41:36.000Z</time></trkpt><trkpt lon="5.944405" lat="50.994029"><ele>51</ele><time>2022-06-12T08:41:37.000Z</time></trkpt><trkpt lon="5.944371" lat="50.994052"><ele>50.8</ele><time>2022-06-12T08:41:38.000Z</time></trkpt><trkpt lon="5.944343" lat="50.994068"><ele>50.6</ele><time>2022-06-12T08:41:39.000Z</time></trkpt><trkpt lon="5.944319" lat="50.994083"><ele>50.6</ele><time>2022-06-12T08:41:40.000Z</time></trkpt><trkpt lon="5.944297" lat="50.994098"><ele>50.4</ele><time>2022-06-12T08:41:41.000Z</time></trkpt><trkpt lon="5.944276" lat="50.994117"><ele>50.4</ele><time>2022-06-12T08:41:42.000Z</time></trkpt><trkpt lon="5.944251" lat="50.994136"><ele>50.2</ele><time>2022-06-12T08:41:43.000Z</time></trkpt><trkpt lon="5.944213" lat="50.994163"><ele>50.2</ele><time>2022-06-12T08:41:44.000Z</time></trkpt><trkpt lon="5.944165" lat="50.994197"><ele>50.2</ele><time>2022-06-12T08:41:45.000Z</time></trkpt><trkpt lon="5.944121" lat="50.994235"><ele>50.2</ele><time>2022-06-12T08:41:46.000Z</time></trkpt><trkpt lon="5.944094" lat="50.994287"><ele>50</ele><time>2022-06-12T08:41:47.000Z</time></trkpt><trkpt lon="5.944076" lat="50.994349"><ele>50</ele><time>2022-06-12T08:41:48.000Z</time></trkpt><trkpt lon="5.944059" lat="50.994409"><ele>50</ele><time>2022-06-12T08:41:49.000Z</time></trkpt><trkpt lon="5.944044" lat="50.994474"><ele>50.2</ele><time>2022-06-12T08:41:50.000Z</time></trkpt><trkpt lon="5.94403" lat="50.994536"><ele>50.2</ele><time>2022-06-12T08:41:51.000Z</time></trkpt><trkpt lon="5.944015" lat="50.994596"><ele>50.2</ele><time>2022-06-12T08:41:52.000Z</time></trkpt><trkpt lon="5.944004" lat="50.994657"><ele>50.4</ele><time>2022-06-12T08:41:53.000Z</time></trkpt><trkpt lon="5.943992" lat="50.994711"><ele>50.6</ele><time>2022-06-12T08:41:54.000Z</time></trkpt><trkpt lon="5.943987" lat="50.994757"><ele>50.6</ele><time>2022-06-12T08:41:55.000Z</time></trkpt><trkpt lon="5.943988" lat="50.994799"><ele>50.8</ele><time>2022-06-12T08:41:56.000Z</time></trkpt><trkpt lon="5.943996" lat="50.994841"><ele>50.8</ele><time>2022-06-12T08:41:57.000Z</time></trkpt><trkpt lon="5.944" lat="50.994887"><ele>51</ele><time>2022-06-12T08:41:58.000Z</time></trkpt><trkpt lon="5.943987" lat="50.994925"><ele>51</ele><time>2022-06-12T08:41:59.000Z</time></trkpt><trkpt lon="5.943947" lat="50.994963"><ele>51.2</ele><time>2022-06-12T08:42:00.000Z</time></trkpt><trkpt lon="5.943879" lat="50.995002"><ele>51.2</ele><time>2022-06-12T08:42:01.000Z</time></trkpt><trkpt lon="5.943796" lat="50.995043"><ele>51.2</ele><time>2022-06-12T08:42:02.000Z</time></trkpt><trkpt lon="5.943699" lat="50.995089"><ele>51.2</ele><time>2022-06-12T08:42:03.000Z</time></trkpt><trkpt lon="5.943604" lat="50.99513"><ele>51.2</ele><time>2022-06-12T08:42:04.000Z</time></trkpt><trkpt lon="5.943502" lat="50.995173"><ele>51</ele><time>2022-06-12T08:42:05.000Z</time></trkpt><trkpt lon="5.943403" lat="50.995215"><ele>51.2</ele><time>2022-06-12T08:42:06.000Z</time></trkpt><trkpt lon="5.943304" lat="50.995257"><ele>51.2</ele><time>2022-06-12T08:42:07.000Z</time></trkpt><trkpt lon="5.943206" lat="50.995295"><ele>51.2</ele><time>2022-06-12T08:42:08.000Z</time></trkpt><trkpt lon="5.943111" lat="50.995337"><ele>51.4</ele><time>2022-06-12T08:42:09.000Z</time></trkpt><trkpt lon="5.943018" lat="50.995379"><ele>51.4</ele><time>2022-06-12T08:42:10.000Z</time></trkpt><trkpt lon="5.942928" lat="50.995417"><ele>51.4</ele><time>2022-06-12T08:42:11.000Z</time></trkpt><trkpt lon="5.94284" lat="50.995454"><ele>51.2</ele><time>2022-06-12T08:42:12.000Z</time></trkpt><trkpt lon="5.94275" lat="50.995494"><ele>51</ele><time>2022-06-12T08:42:13.000Z</time></trkpt><trkpt lon="5.942658" lat="50.995532"><ele>51</ele><time>2022-06-12T08:42:14.000Z</time></trkpt><trkpt lon="5.942563" lat="50.99557"><ele>51.2</ele><time>2022-06-12T08:42:15.000Z</time></trkpt><trkpt lon="5.942465" lat="50.995604"><ele>51.4</ele><time>2022-06-12T08:42:16.000Z</time></trkpt><trkpt lon="5.942371" lat="50.995638"><ele>51.6</ele><time>2022-06-12T08:42:17.000Z</time></trkpt><trkpt lon="5.942271" lat="50.995669"><ele>51.8</ele><time>2022-06-12T08:42:18.000Z</time></trkpt><trkpt lon="5.942179" lat="50.995699"><ele>51.8</ele><time>2022-06-12T08:42:19.000Z</time></trkpt><trkpt lon="5.942084" lat="50.995731"><ele>51.8</ele><time>2022-06-12T08:42:20.000Z</time></trkpt><trkpt lon="5.941991" lat="50.995765"><ele>51.8</ele><time>2022-06-12T08:42:21.000Z</time></trkpt><trkpt lon="5.941895" lat="50.995799"><ele>51.8</ele><time>2022-06-12T08:42:22.000Z</time></trkpt><trkpt lon="5.941798" lat="50.995833"><ele>52</ele><time>2022-06-12T08:42:23.000Z</time></trkpt><trkpt lon="5.941702" lat="50.995864"><ele>52</ele><time>2022-06-12T08:42:24.000Z</time></trkpt><trkpt lon="5.941603" lat="50.995898"><ele>52</ele><time>2022-06-12T08:42:25.000Z</time></trkpt><trkpt lon="5.941508" lat="50.995932"><ele>52</ele><time>2022-06-12T08:42:26.000Z</time></trkpt><trkpt lon="5.941411" lat="50.99597"><ele>52</ele><time>2022-06-12T08:42:27.000Z</time></trkpt><trkpt lon="5.941317" lat="50.996"><ele>52</ele><time>2022-06-12T08:42:28.000Z</time></trkpt><trkpt lon="5.941213" lat="50.996035"><ele>52.2</ele><time>2022-06-12T08:42:29.000Z</time></trkpt><trkpt lon="5.94112" lat="50.996066"><ele>52.2</ele><time>2022-06-12T08:42:30.000Z</time></trkpt><trkpt lon="5.941028" lat="50.9961"><ele>52.2</ele><time>2022-06-12T08:42:31.000Z</time></trkpt><trkpt lon="5.940935" lat="50.99613"><ele>52.2</ele><time>2022-06-12T08:42:32.000Z</time></trkpt><trkpt lon="5.940839" lat="50.996162"><ele>52.2</ele><time>2022-06-12T08:42:33.000Z</time></trkpt><trkpt lon="5.940743" lat="50.996195"><ele>52.2</ele><time>2022-06-12T08:42:34.000Z</time></trkpt><trkpt lon="5.940643" lat="50.996223"><ele>52.2</ele><time>2022-06-12T08:42:35.000Z</time></trkpt><trkpt lon="5.940542" lat="50.996249"><ele>52.2</ele><time>2022-06-12T08:42:36.000Z</time></trkpt><trkpt lon="5.940439" lat="50.996276"><ele>52.2</ele><time>2022-06-12T08:42:37.000Z</time></trkpt><trkpt lon="5.940334" lat="50.996299"><ele>52.4</ele><time>2022-06-12T08:42:38.000Z</time></trkpt><trkpt lon="5.940236" lat="50.996322"><ele>52.4</ele><time>2022-06-12T08:42:39.000Z</time></trkpt><trkpt lon="5.940136" lat="50.996341"><ele>52.4</ele><time>2022-06-12T08:42:40.000Z</time></trkpt><trkpt lon="5.940038" lat="50.99636"><ele>52.6</ele><time>2022-06-12T08:42:41.000Z</time></trkpt><trkpt lon="5.939915" lat="50.996373"><ele>52.6</ele><time>2022-06-12T08:42:42.000Z</time></trkpt><trkpt lon="5.939792" lat="50.996385"><ele>52.8</ele><time>2022-06-12T08:42:43.000Z</time></trkpt><trkpt lon="5.939677" lat="50.996404"><ele>52.8</ele><time>2022-06-12T08:42:44.000Z</time></trkpt><trkpt lon="5.9396" lat="50.996458"><ele>53</ele><time>2022-06-12T08:42:45.000Z</time></trkpt><trkpt lon="5.939492" lat="50.996471"><ele>52.8</ele><time>2022-06-12T08:42:46.000Z</time></trkpt><trkpt lon="5.939453" lat="50.996468"><ele>52.8</ele><time>2022-06-12T08:42:47.000Z</time></trkpt><trkpt lon="5.939373" lat="50.996479"><ele>52.8</ele><time>2022-06-12T08:42:48.000Z</time></trkpt><trkpt lon="5.939268" lat="50.996494"><ele>52.8</ele><time>2022-06-12T08:42:49.000Z</time></trkpt><trkpt lon="5.939146" lat="50.996513"><ele>52.8</ele><time>2022-06-12T08:42:50.000Z</time></trkpt><trkpt lon="5.939039" lat="50.996525"><ele>52.8</ele><time>2022-06-12T08:42:51.000Z</time></trkpt><trkpt lon="5.938939" lat="50.996539"><ele>52.8</ele><time>2022-06-12T08:42:52.000Z</time></trkpt><trkpt lon="5.938842" lat="50.996551"><ele>52.8</ele><time>2022-06-12T08:42:53.000Z</time></trkpt><trkpt lon="5.938745" lat="50.996566"><ele>52.8</ele><time>2022-06-12T08:42:54.000Z</time></trkpt><trkpt lon="5.938648" lat="50.996582"><ele>52.8</ele><time>2022-06-12T08:42:55.000Z</time></trkpt><trkpt lon="5.938561" lat="50.996601"><ele>52.8</ele><time>2022-06-12T08:42:56.000Z</time></trkpt><trkpt lon="5.938475" lat="50.996619"><ele>52.8</ele><time>2022-06-12T08:42:57.000Z</time></trkpt><trkpt lon="5.938387" lat="50.996639"><ele>52.6</ele><time>2022-06-12T08:42:58.000Z</time></trkpt><trkpt lon="5.938297" lat="50.996654"><ele>52.6</ele><time>2022-06-12T08:42:59.000Z</time></trkpt><trkpt lon="5.938215" lat="50.996665"><ele>52.6</ele><time>2022-06-12T08:43:00.000Z</time></trkpt><trkpt lon="5.93813" lat="50.996673"><ele>52.6</ele><time>2022-06-12T08:43:01.000Z</time></trkpt><trkpt lon="5.938049" lat="50.996685"><ele>52.6</ele><time>2022-06-12T08:43:02.000Z</time></trkpt><trkpt lon="5.937985" lat="50.99671"><ele>52.6</ele><time>2022-06-12T08:43:03.000Z</time></trkpt><trkpt lon="5.937922" lat="50.996742"><ele>52.6</ele><time>2022-06-12T08:43:04.000Z</time></trkpt><trkpt lon="5.937878" lat="50.996794"><ele>52.4</ele><time>2022-06-12T08:43:05.000Z</time></trkpt><trkpt lon="5.937845" lat="50.996854"><ele>52.4</ele><time>2022-06-12T08:43:06.000Z</time></trkpt><trkpt lon="5.937813" lat="50.996922"><ele>52.2</ele><time>2022-06-12T08:43:07.000Z</time></trkpt><trkpt lon="5.937774" lat="50.996989"><ele>52.2</ele><time>2022-06-12T08:43:08.000Z</time></trkpt><trkpt lon="5.937731" lat="50.997053"><ele>52.4</ele><time>2022-06-12T08:43:09.000Z</time></trkpt><trkpt lon="5.937683" lat="50.997115"><ele>52.2</ele><time>2022-06-12T08:43:10.000Z</time></trkpt><trkpt lon="5.93763" lat="50.997172"><ele>52.4</ele><time>2022-06-12T08:43:11.000Z</time></trkpt><trkpt lon="5.937573" lat="50.997229"><ele>52.6</ele><time>2022-06-12T08:43:12.000Z</time></trkpt><trkpt lon="5.937513" lat="50.997283"><ele>52.6</ele><time>2022-06-12T08:43:13.000Z</time></trkpt><trkpt lon="5.93745" lat="50.997329"><ele>52.8</ele><time>2022-06-12T08:43:14.000Z</time></trkpt><trkpt lon="5.937386" lat="50.997377"><ele>53</ele><time>2022-06-12T08:43:15.000Z</time></trkpt><trkpt lon="5.937319" lat="50.997424"><ele>53.2</ele><time>2022-06-12T08:43:16.000Z</time></trkpt><trkpt lon="5.937252" lat="50.997468"><ele>53.2</ele><time>2022-06-12T08:43:17.000Z</time></trkpt><trkpt lon="5.937178" lat="50.997516"><ele>53.4</ele><time>2022-06-12T08:43:18.000Z</time></trkpt><trkpt lon="5.937103" lat="50.997558"><ele>53.4</ele><time>2022-06-12T08:43:19.000Z</time></trkpt><trkpt lon="5.93703" lat="50.997607"><ele>53.6</ele><time>2022-06-12T08:43:20.000Z</time></trkpt><trkpt lon="5.93696" lat="50.997653"><ele>53.6</ele><time>2022-06-12T08:43:21.000Z</time></trkpt><trkpt lon="5.93689" lat="50.997702"><ele>53.8</ele><time>2022-06-12T08:43:22.000Z</time></trkpt><trkpt lon="5.93682" lat="50.997755"><ele>53.8</ele><time>2022-06-12T08:43:23.000Z</time></trkpt><trkpt lon="5.936751" lat="50.997809"><ele>53.8</ele><time>2022-06-12T08:43:24.000Z</time></trkpt><trkpt lon="5.936685" lat="50.997859"><ele>53.8</ele><time>2022-06-12T08:43:25.000Z</time></trkpt><trkpt lon="5.936627" lat="50.997912"><ele>53.8</ele><time>2022-06-12T08:43:26.000Z</time></trkpt><trkpt lon="5.936573" lat="50.997964"><ele>53.8</ele><time>2022-06-12T08:43:27.000Z</time></trkpt><trkpt lon="5.936515" lat="50.998021"><ele>54</ele><time>2022-06-12T08:43:28.000Z</time></trkpt><trkpt lon="5.93645" lat="50.998076"><ele>53.8</ele><time>2022-06-12T08:43:29.000Z</time></trkpt><trkpt lon="5.936385" lat="50.998129"><ele>53.8</ele><time>2022-06-12T08:43:30.000Z</time></trkpt><trkpt lon="5.936319" lat="50.998179"><ele>53.8</ele><time>2022-06-12T08:43:31.000Z</time></trkpt><trkpt lon="5.93625" lat="50.998228"><ele>53.6</ele><time>2022-06-12T08:43:32.000Z</time></trkpt><trkpt lon="5.936181" lat="50.998282"><ele>53.6</ele><time>2022-06-12T08:43:33.000Z</time></trkpt><trkpt lon="5.936112" lat="50.998335"><ele>53.6</ele><time>2022-06-12T08:43:34.000Z</time></trkpt><trkpt lon="5.936041" lat="50.998385"><ele>53.6</ele><time>2022-06-12T08:43:35.000Z</time></trkpt><trkpt lon="5.935972" lat="50.998438"><ele>53.4</ele><time>2022-06-12T08:43:36.000Z</time></trkpt><trkpt lon="5.9359" lat="50.998492"><ele>53.4</ele><time>2022-06-12T08:43:37.000Z</time></trkpt><trkpt lon="5.935827" lat="50.998541"><ele>53.4</ele><time>2022-06-12T08:43:38.000Z</time></trkpt><trkpt lon="5.93575" lat="50.998586"><ele>53.2</ele><time>2022-06-12T08:43:39.000Z</time></trkpt><trkpt lon="5.935673" lat="50.998636"><ele>53.2</ele><time>2022-06-12T08:43:40.000Z</time></trkpt><trkpt lon="5.935598" lat="50.998687"><ele>53.2</ele><time>2022-06-12T08:43:41.000Z</time></trkpt><trkpt lon="5.935526" lat="50.998736"><ele>53.2</ele><time>2022-06-12T08:43:42.000Z</time></trkpt><trkpt lon="5.935455" lat="50.99879"><ele>53.2</ele><time>2022-06-12T08:43:43.000Z</time></trkpt><trkpt lon="5.935386" lat="50.998842"><ele>53.2</ele><time>2022-06-12T08:43:44.000Z</time></trkpt><trkpt lon="5.935315" lat="50.9989"><ele>53</ele><time>2022-06-12T08:43:45.000Z</time></trkpt><trkpt lon="5.935244" lat="50.998953"><ele>52.8</ele><time>2022-06-12T08:43:46.000Z</time></trkpt><trkpt lon="5.935176" lat="50.999014"><ele>52.6</ele><time>2022-06-12T08:43:47.000Z</time></trkpt><trkpt lon="5.93511" lat="50.999075"><ele>52.4</ele><time>2022-06-12T08:43:48.000Z</time></trkpt><trkpt lon="5.935045" lat="50.999132"><ele>52.4</ele><time>2022-06-12T08:43:49.000Z</time></trkpt><trkpt lon="5.934978" lat="50.999192"><ele>52.2</ele><time>2022-06-12T08:43:50.000Z</time></trkpt><trkpt lon="5.934902" lat="50.999247"><ele>52</ele><time>2022-06-12T08:43:51.000Z</time></trkpt><trkpt lon="5.934825" lat="50.999303"><ele>51.8</ele><time>2022-06-12T08:43:52.000Z</time></trkpt><trkpt lon="5.934745" lat="50.999364"><ele>51.6</ele><time>2022-06-12T08:43:53.000Z</time></trkpt><trkpt lon="5.934662" lat="50.999424"><ele>51.4</ele><time>2022-06-12T08:43:54.000Z</time></trkpt><trkpt lon="5.934575" lat="50.999486"><ele>51.2</ele><time>2022-06-12T08:43:55.000Z</time></trkpt><trkpt lon="5.934491" lat="50.999548"><ele>50.8</ele><time>2022-06-12T08:43:56.000Z</time></trkpt><trkpt lon="5.934406" lat="50.999609"><ele>50.6</ele><time>2022-06-12T08:43:57.000Z</time></trkpt><trkpt lon="5.934321" lat="50.999674"><ele>50.4</ele><time>2022-06-12T08:43:58.000Z</time></trkpt><trkpt lon="5.934237" lat="50.999735"><ele>50</ele><time>2022-06-12T08:43:59.000Z</time></trkpt><trkpt lon="5.934156" lat="50.9998"><ele>49.8</ele><time>2022-06-12T08:44:00.000Z</time></trkpt><trkpt lon="5.934074" lat="50.999861"><ele>49.6</ele><time>2022-06-12T08:44:01.000Z</time></trkpt><trkpt lon="5.933994" lat="50.999922"><ele>49.4</ele><time>2022-06-12T08:44:02.000Z</time></trkpt><trkpt lon="5.933911" lat="50.999984"><ele>49</ele><time>2022-06-12T08:44:03.000Z</time></trkpt><trkpt lon="5.933832" lat="51.000044"><ele>48.8</ele><time>2022-06-12T08:44:04.000Z</time></trkpt><trkpt lon="5.933751" lat="51.000105"><ele>48.6</ele><time>2022-06-12T08:44:05.000Z</time></trkpt><trkpt lon="5.933668" lat="51.000162"><ele>48.4</ele><time>2022-06-12T08:44:06.000Z</time></trkpt><trkpt lon="5.933586" lat="51.000223"><ele>48.4</ele><time>2022-06-12T08:44:07.000Z</time></trkpt><trkpt lon="5.933504" lat="51.000284"><ele>48.2</ele><time>2022-06-12T08:44:08.000Z</time></trkpt><trkpt lon="5.933423" lat="51.000341"><ele>48</ele><time>2022-06-12T08:44:09.000Z</time></trkpt><trkpt lon="5.933344" lat="51.000402"><ele>48</ele><time>2022-06-12T08:44:10.000Z</time></trkpt><trkpt lon="5.933268" lat="51.00046"><ele>47.8</ele><time>2022-06-12T08:44:11.000Z</time></trkpt><trkpt lon="5.933192" lat="51.000514"><ele>48</ele><time>2022-06-12T08:44:12.000Z</time></trkpt><trkpt lon="5.933115" lat="51.000567"><ele>48</ele><time>2022-06-12T08:44:13.000Z</time></trkpt><trkpt lon="5.933041" lat="51.000627"><ele>48</ele><time>2022-06-12T08:44:14.000Z</time></trkpt><trkpt lon="5.932967" lat="51.000681"><ele>48</ele><time>2022-06-12T08:44:15.000Z</time></trkpt><trkpt lon="5.932903" lat="51.000729"><ele>48</ele><time>2022-06-12T08:44:16.000Z</time></trkpt><trkpt lon="5.932825" lat="51.000784"><ele>48</ele><time>2022-06-12T08:44:17.000Z</time></trkpt><trkpt lon="5.932753" lat="51.000838"><ele>48.2</ele><time>2022-06-12T08:44:18.000Z</time></trkpt><trkpt lon="5.93268" lat="51.000891"><ele>48.2</ele><time>2022-06-12T08:44:19.000Z</time></trkpt><trkpt lon="5.932607" lat="51.000941"><ele>48.2</ele><time>2022-06-12T08:44:20.000Z</time></trkpt><trkpt lon="5.932527" lat="51.000987"><ele>48.2</ele><time>2022-06-12T08:44:21.000Z</time></trkpt><trkpt lon="5.93245" lat="51.001035"><ele>48.2</ele><time>2022-06-12T08:44:22.000Z</time></trkpt><trkpt lon="5.932378" lat="51.001091"><ele>48.2</ele><time>2022-06-12T08:44:23.000Z</time></trkpt><trkpt lon="5.932313" lat="51.00115"><ele>48</ele><time>2022-06-12T08:44:24.000Z</time></trkpt><trkpt lon="5.932242" lat="51.001211"><ele>48</ele><time>2022-06-12T08:44:25.000Z</time></trkpt><trkpt lon="5.932172" lat="51.001272"><ele>48</ele><time>2022-06-12T08:44:26.000Z</time></trkpt><trkpt lon="5.9321" lat="51.00133"><ele>48.2</ele><time>2022-06-12T08:44:27.000Z</time></trkpt><trkpt lon="5.932032" lat="51.001387"><ele>48.2</ele><time>2022-06-12T08:44:28.000Z</time></trkpt><trkpt lon="5.931972" lat="51.001437"><ele>48.4</ele><time>2022-06-12T08:44:29.000Z</time></trkpt><trkpt lon="5.931915" lat="51.001497"><ele>48.6</ele><time>2022-06-12T08:44:30.000Z</time></trkpt><trkpt lon="5.931859" lat="51.001551"><ele>48.6</ele><time>2022-06-12T08:44:31.000Z</time></trkpt><trkpt lon="5.931797" lat="51.001608"><ele>48.8</ele><time>2022-06-12T08:44:32.000Z</time></trkpt><trkpt lon="5.931729" lat="51.001665"><ele>48.8</ele><time>2022-06-12T08:44:33.000Z</time></trkpt><trkpt lon="5.931658" lat="51.001721"><ele>48.8</ele><time>2022-06-12T08:44:34.000Z</time></trkpt><trkpt lon="5.931586" lat="51.001776"><ele>49</ele><time>2022-06-12T08:44:35.000Z</time></trkpt><trkpt lon="5.931521" lat="51.001829"><ele>49</ele><time>2022-06-12T08:44:36.000Z</time></trkpt><trkpt lon="5.931454" lat="51.001883"><ele>49</ele><time>2022-06-12T08:44:37.000Z</time></trkpt><trkpt lon="5.931385" lat="51.001936"><ele>49</ele><time>2022-06-12T08:44:38.000Z</time></trkpt><trkpt lon="5.931313" lat="51.001982"><ele>49</ele><time>2022-06-12T08:44:39.000Z</time></trkpt><trkpt lon="5.931243" lat="51.002028"><ele>49</ele><time>2022-06-12T08:44:40.000Z</time></trkpt><trkpt lon="5.931172" lat="51.002067"><ele>49</ele><time>2022-06-12T08:44:41.000Z</time></trkpt><trkpt lon="5.931103" lat="51.002108"><ele>49</ele><time>2022-06-12T08:44:42.000Z</time></trkpt><trkpt lon="5.931035" lat="51.00215"><ele>49</ele><time>2022-06-12T08:44:43.000Z</time></trkpt><trkpt lon="5.93097" lat="51.002192"><ele>49</ele><time>2022-06-12T08:44:44.000Z</time></trkpt><trkpt lon="5.930906" lat="51.002241"><ele>49</ele><time>2022-06-12T08:44:45.000Z</time></trkpt><trkpt lon="5.930843" lat="51.002284"><ele>49</ele><time>2022-06-12T08:44:46.000Z</time></trkpt><trkpt lon="5.930782" lat="51.002332"><ele>49</ele><time>2022-06-12T08:44:47.000Z</time></trkpt><trkpt lon="5.930716" lat="51.002381"><ele>49</ele><time>2022-06-12T08:44:48.000Z</time></trkpt><trkpt lon="5.930644" lat="51.002439"><ele>49</ele><time>2022-06-12T08:44:49.000Z</time></trkpt><trkpt lon="5.930577" lat="51.002486"><ele>48.8</ele><time>2022-06-12T08:44:50.000Z</time></trkpt><trkpt lon="5.93051" lat="51.002536"><ele>48.8</ele><time>2022-06-12T08:44:51.000Z</time></trkpt><trkpt lon="5.930447" lat="51.002581"><ele>48.8</ele><time>2022-06-12T08:44:52.000Z</time></trkpt><trkpt lon="5.930385" lat="51.002623"><ele>48.8</ele><time>2022-06-12T08:44:53.000Z</time></trkpt><trkpt lon="5.93032" lat="51.002669"><ele>48.8</ele><time>2022-06-12T08:44:54.000Z</time></trkpt><trkpt lon="5.930261" lat="51.002713"><ele>48.8</ele><time>2022-06-12T08:44:55.000Z</time></trkpt><trkpt lon="5.930195" lat="51.002756"><ele>48.8</ele><time>2022-06-12T08:44:56.000Z</time></trkpt><trkpt lon="5.930125" lat="51.002809"><ele>48.8</ele><time>2022-06-12T08:44:57.000Z</time></trkpt><trkpt lon="5.930058" lat="51.002859"><ele>48.6</ele><time>2022-06-12T08:44:58.000Z</time></trkpt><trkpt lon="5.929997" lat="51.00291"><ele>48.6</ele><time>2022-06-12T08:44:59.000Z</time></trkpt><trkpt lon="5.929919" lat="51.002966"><ele>48.6</ele><time>2022-06-12T08:45:00.000Z</time></trkpt><trkpt lon="5.929849" lat="51.003019"><ele>48.6</ele><time>2022-06-12T08:45:01.000Z</time></trkpt><trkpt lon="5.929774" lat="51.003077"><ele>48.6</ele><time>2022-06-12T08:45:02.000Z</time></trkpt><trkpt lon="5.929684" lat="51.003141"><ele>48.4</ele><time>2022-06-12T08:45:03.000Z</time></trkpt><trkpt lon="5.929604" lat="51.003199"><ele>48.4</ele><time>2022-06-12T08:45:04.000Z</time></trkpt><trkpt lon="5.929521" lat="51.00326"><ele>48.2</ele><time>2022-06-12T08:45:05.000Z</time></trkpt><trkpt lon="5.92944" lat="51.003317"><ele>48.2</ele><time>2022-06-12T08:45:06.000Z</time></trkpt><trkpt lon="5.929366" lat="51.003374"><ele>48.2</ele><time>2022-06-12T08:45:07.000Z</time></trkpt><trkpt lon="5.929285" lat="51.003429"><ele>48</ele><time>2022-06-12T08:45:08.000Z</time></trkpt><trkpt lon="5.929201" lat="51.003496"><ele>48</ele><time>2022-06-12T08:45:09.000Z</time></trkpt><trkpt lon="5.929119" lat="51.003554"><ele>47.8</ele><time>2022-06-12T08:45:10.000Z</time></trkpt><trkpt lon="5.929039" lat="51.003618"><ele>47.6</ele><time>2022-06-12T08:45:11.000Z</time></trkpt><trkpt lon="5.928962" lat="51.003679"><ele>47.6</ele><time>2022-06-12T08:45:12.000Z</time></trkpt><trkpt lon="5.928883" lat="51.003748"><ele>47.6</ele><time>2022-06-12T08:45:13.000Z</time></trkpt><trkpt lon="5.928804" lat="51.003809"><ele>47.8</ele><time>2022-06-12T08:45:14.000Z</time></trkpt><trkpt lon="5.928726" lat="51.00387"><ele>47.8</ele><time>2022-06-12T08:45:15.000Z</time></trkpt><trkpt lon="5.928649" lat="51.003925"><ele>47.8</ele><time>2022-06-12T08:45:16.000Z</time></trkpt><trkpt lon="5.928569" lat="51.003984"><ele>47.8</ele><time>2022-06-12T08:45:17.000Z</time></trkpt><trkpt lon="5.928495" lat="51.004045"><ele>47.8</ele><time>2022-06-12T08:45:18.000Z</time></trkpt><trkpt lon="5.92842" lat="51.004103"><ele>47.8</ele><time>2022-06-12T08:45:19.000Z</time></trkpt><trkpt lon="5.928345" lat="51.004159"><ele>47.8</ele><time>2022-06-12T08:45:20.000Z</time></trkpt><trkpt lon="5.928266" lat="51.004221"><ele>47.8</ele><time>2022-06-12T08:45:21.000Z</time></trkpt><trkpt lon="5.928187" lat="51.004279"><ele>47.8</ele><time>2022-06-12T08:45:22.000Z</time></trkpt><trkpt lon="5.928113" lat="51.004332"><ele>47.8</ele><time>2022-06-12T08:45:23.000Z</time></trkpt><trkpt lon="5.928041" lat="51.004378"><ele>47.8</ele><time>2022-06-12T08:45:24.000Z</time></trkpt><trkpt lon="5.927965" lat="51.004431"><ele>47.6</ele><time>2022-06-12T08:45:25.000Z</time></trkpt><trkpt lon="5.927889" lat="51.004484"><ele>47.6</ele><time>2022-06-12T08:45:26.000Z</time></trkpt><trkpt lon="5.927809" lat="51.004538"><ele>47.4</ele><time>2022-06-12T08:45:27.000Z</time></trkpt><trkpt lon="5.927726" lat="51.004595"><ele>47.4</ele><time>2022-06-12T08:45:28.000Z</time></trkpt><trkpt lon="5.927635" lat="51.004656"><ele>47.4</ele><time>2022-06-12T08:45:29.000Z</time></trkpt><trkpt lon="5.927543" lat="51.00471"><ele>47.2</ele><time>2022-06-12T08:45:30.000Z</time></trkpt><trkpt lon="5.927464" lat="51.00477"><ele>47.2</ele><time>2022-06-12T08:45:31.000Z</time></trkpt><trkpt lon="5.927386" lat="51.004824"><ele>47</ele><time>2022-06-12T08:45:32.000Z</time></trkpt><trkpt lon="5.927309" lat="51.004885"><ele>47.2</ele><time>2022-06-12T08:45:33.000Z</time></trkpt><trkpt lon="5.927231" lat="51.004938"><ele>47.2</ele><time>2022-06-12T08:45:34.000Z</time></trkpt><trkpt lon="5.927153" lat="51.004995"><ele>47.4</ele><time>2022-06-12T08:45:35.000Z</time></trkpt><trkpt lon="5.927077" lat="51.005049"><ele>47.6</ele><time>2022-06-12T08:45:36.000Z</time></trkpt><trkpt lon="5.927" lat="51.005106"><ele>47.6</ele><time>2022-06-12T08:45:37.000Z</time></trkpt><trkpt lon="5.926925" lat="51.00516"><ele>47.8</ele><time>2022-06-12T08:45:38.000Z</time></trkpt><trkpt lon="5.926849" lat="51.005217"><ele>47.8</ele><time>2022-06-12T08:45:39.000Z</time></trkpt><trkpt lon="5.926776" lat="51.005281"><ele>48</ele><time>2022-06-12T08:45:40.000Z</time></trkpt><trkpt lon="5.926704" lat="51.005338"><ele>48</ele><time>2022-06-12T08:45:41.000Z</time></trkpt><trkpt lon="5.926632" lat="51.005389"><ele>48.2</ele><time>2022-06-12T08:45:42.000Z</time></trkpt><trkpt lon="5.926565" lat="51.005438"><ele>48.2</ele><time>2022-06-12T08:45:43.000Z</time></trkpt><trkpt lon="5.926495" lat="51.005484"><ele>48.4</ele><time>2022-06-12T08:45:44.000Z</time></trkpt><trkpt lon="5.926432" lat="51.005534"><ele>48.6</ele><time>2022-06-12T08:45:45.000Z</time></trkpt><trkpt lon="5.926364" lat="51.005587"><ele>48.8</ele><time>2022-06-12T08:45:46.000Z</time></trkpt><trkpt lon="5.926297" lat="51.005636"><ele>49</ele><time>2022-06-12T08:45:47.000Z</time></trkpt><trkpt lon="5.926226" lat="51.005686"><ele>49.2</ele><time>2022-06-12T08:45:48.000Z</time></trkpt><trkpt lon="5.926161" lat="51.005736"><ele>49.4</ele><time>2022-06-12T08:45:49.000Z</time></trkpt><trkpt lon="5.926091" lat="51.005785"><ele>49.6</ele><time>2022-06-12T08:45:50.000Z</time></trkpt><trkpt lon="5.926024" lat="51.005835"><ele>49.8</ele><time>2022-06-12T08:45:51.000Z</time></trkpt><trkpt lon="5.925957" lat="51.005885"><ele>50</ele><time>2022-06-12T08:45:52.000Z</time></trkpt><trkpt lon="5.925892" lat="51.005934"><ele>50.2</ele><time>2022-06-12T08:45:53.000Z</time></trkpt><trkpt lon="5.925829" lat="51.005984"><ele>50.4</ele><time>2022-06-12T08:45:54.000Z</time></trkpt><trkpt lon="5.925764" lat="51.006033"><ele>50.6</ele><time>2022-06-12T08:45:55.000Z</time></trkpt><trkpt lon="5.9257" lat="51.006087"><ele>50.8</ele><time>2022-06-12T08:45:56.000Z</time></trkpt><trkpt lon="5.925633" lat="51.006136"><ele>50.8</ele><time>2022-06-12T08:45:57.000Z</time></trkpt><trkpt lon="5.925571" lat="51.006189"><ele>51</ele><time>2022-06-12T08:45:58.000Z</time></trkpt><trkpt lon="5.92551" lat="51.006238"><ele>51</ele><time>2022-06-12T08:45:59.000Z</time></trkpt><trkpt lon="5.925433" lat="51.006296"><ele>51.2</ele><time>2022-06-12T08:46:00.000Z</time></trkpt><trkpt lon="5.925359" lat="51.00635"><ele>51.2</ele><time>2022-06-12T08:46:01.000Z</time></trkpt><trkpt lon="5.925291" lat="51.006403"><ele>51.2</ele><time>2022-06-12T08:46:02.000Z</time></trkpt><trkpt lon="5.925216" lat="51.006457"><ele>51.2</ele><time>2022-06-12T08:46:03.000Z</time></trkpt><trkpt lon="5.925142" lat="51.00651"><ele>51.4</ele><time>2022-06-12T08:46:04.000Z</time></trkpt><trkpt lon="5.925071" lat="51.006562"><ele>51.4</ele><time>2022-06-12T08:46:05.000Z</time></trkpt><trkpt lon="5.924997" lat="51.00662"><ele>51.4</ele><time>2022-06-12T08:46:06.000Z</time></trkpt><trkpt lon="5.924921" lat="51.006673"><ele>51.4</ele><time>2022-06-12T08:46:07.000Z</time></trkpt><trkpt lon="5.924844" lat="51.006727"><ele>51.4</ele><time>2022-06-12T08:46:08.000Z</time></trkpt><trkpt lon="5.924764" lat="51.006781"><ele>51.4</ele><time>2022-06-12T08:46:09.000Z</time></trkpt><trkpt lon="5.924685" lat="51.006833"><ele>51.2</ele><time>2022-06-12T08:46:10.000Z</time></trkpt><trkpt lon="5.924601" lat="51.006888"><ele>51.2</ele><time>2022-06-12T08:46:11.000Z</time></trkpt><trkpt lon="5.924514" lat="51.006934"><ele>51.2</ele><time>2022-06-12T08:46:12.000Z</time></trkpt><trkpt lon="5.924418" lat="51.00698"><ele>51</ele><time>2022-06-12T08:46:13.000Z</time></trkpt><trkpt lon="5.924318" lat="51.007025"><ele>51</ele><time>2022-06-12T08:46:14.000Z</time></trkpt><trkpt lon="5.924215" lat="51.007071"><ele>50.8</ele><time>2022-06-12T08:46:15.000Z</time></trkpt><trkpt lon="5.924113" lat="51.007106"><ele>50.8</ele><time>2022-06-12T08:46:16.000Z</time></trkpt><trkpt lon="5.924012" lat="51.007147"><ele>50.6</ele><time>2022-06-12T08:46:17.000Z</time></trkpt><trkpt lon="5.923909" lat="51.007186"><ele>50.4</ele><time>2022-06-12T08:46:18.000Z</time></trkpt><trkpt lon="5.9238" lat="51.007216"><ele>50.4</ele><time>2022-06-12T08:46:19.000Z</time></trkpt><trkpt lon="5.923681" lat="51.007247"><ele>50.4</ele><time>2022-06-12T08:46:20.000Z</time></trkpt><trkpt lon="5.923562" lat="51.007278"><ele>50.4</ele><time>2022-06-12T08:46:21.000Z</time></trkpt><trkpt lon="5.923446" lat="51.007304"><ele>50.2</ele><time>2022-06-12T08:46:22.000Z</time></trkpt><trkpt lon="5.92333" lat="51.007327"><ele>50.2</ele><time>2022-06-12T08:46:23.000Z</time></trkpt><trkpt lon="5.923215" lat="51.007354"><ele>50.2</ele><time>2022-06-12T08:46:24.000Z</time></trkpt><trkpt lon="5.923103" lat="51.007381"><ele>50.2</ele><time>2022-06-12T08:46:25.000Z</time></trkpt><trkpt lon="5.922989" lat="51.007407"><ele>50.2</ele><time>2022-06-12T08:46:26.000Z</time></trkpt><trkpt lon="5.92288" lat="51.007433"><ele>50.2</ele><time>2022-06-12T08:46:27.000Z</time></trkpt><trkpt lon="5.922768" lat="51.007457"><ele>50.2</ele><time>2022-06-12T08:46:28.000Z</time></trkpt><trkpt lon="5.922659" lat="51.00748"><ele>50.2</ele><time>2022-06-12T08:46:29.000Z</time></trkpt><trkpt lon="5.922552" lat="51.007499"><ele>50.2</ele><time>2022-06-12T08:46:30.000Z</time></trkpt><trkpt lon="5.922442" lat="51.007522"><ele>50.2</ele><time>2022-06-12T08:46:31.000Z</time></trkpt><trkpt lon="5.922336" lat="51.007545"><ele>50.2</ele><time>2022-06-12T08:46:32.000Z</time></trkpt><trkpt lon="5.922233" lat="51.007568"><ele>50.2</ele><time>2022-06-12T08:46:33.000Z</time></trkpt><trkpt lon="5.922128" lat="51.007591"><ele>50.2</ele><time>2022-06-12T08:46:34.000Z</time></trkpt><trkpt lon="5.922022" lat="51.007613"><ele>50.2</ele><time>2022-06-12T08:46:35.000Z</time></trkpt><trkpt lon="5.921909" lat="51.007639"><ele>50.4</ele><time>2022-06-12T08:46:36.000Z</time></trkpt><trkpt lon="5.921798" lat="51.007663"><ele>50.4</ele><time>2022-06-12T08:46:37.000Z</time></trkpt><trkpt lon="5.921699" lat="51.007685"><ele>50.6</ele><time>2022-06-12T08:46:38.000Z</time></trkpt><trkpt lon="5.921595" lat="51.007705"><ele>50.6</ele><time>2022-06-12T08:46:39.000Z</time></trkpt><trkpt lon="5.921498" lat="51.007726"><ele>50.6</ele><time>2022-06-12T08:46:40.000Z</time></trkpt><trkpt lon="5.921377" lat="51.007751"><ele>50.6</ele><time>2022-06-12T08:46:41.000Z</time></trkpt><trkpt lon="5.921263" lat="51.007774"><ele>50.8</ele><time>2022-06-12T08:46:42.000Z</time></trkpt><trkpt lon="5.921158" lat="51.007793"><ele>50.8</ele><time>2022-06-12T08:46:43.000Z</time></trkpt><trkpt lon="5.921052" lat="51.007816"><ele>50.8</ele><time>2022-06-12T08:46:44.000Z</time></trkpt><trkpt lon="5.920951" lat="51.007831"><ele>50.8</ele><time>2022-06-12T08:46:45.000Z</time></trkpt><trkpt lon="5.920844" lat="51.007857"><ele>50.8</ele><time>2022-06-12T08:46:46.000Z</time></trkpt><trkpt lon="5.920733" lat="51.00788"><ele>50.8</ele><time>2022-06-12T08:46:47.000Z</time></trkpt><trkpt lon="5.920626" lat="51.007903"><ele>50.8</ele><time>2022-06-12T08:46:48.000Z</time></trkpt><trkpt lon="5.920514" lat="51.007926"><ele>51</ele><time>2022-06-12T08:46:49.000Z</time></trkpt><trkpt lon="5.920404" lat="51.007949"><ele>51</ele><time>2022-06-12T08:46:50.000Z</time></trkpt><trkpt lon="5.920291" lat="51.007972"><ele>51</ele><time>2022-06-12T08:46:51.000Z</time></trkpt><trkpt lon="5.920181" lat="51.007991"><ele>51</ele><time>2022-06-12T08:46:52.000Z</time></trkpt><trkpt lon="5.920068" lat="51.008014"><ele>51.2</ele><time>2022-06-12T08:46:53.000Z</time></trkpt><trkpt lon="5.919957" lat="51.008033"><ele>51.2</ele><time>2022-06-12T08:46:54.000Z</time></trkpt><trkpt lon="5.919848" lat="51.008052"><ele>51.2</ele><time>2022-06-12T08:46:55.000Z</time></trkpt><trkpt lon="5.919737" lat="51.008071"><ele>51.4</ele><time>2022-06-12T08:46:56.000Z</time></trkpt><trkpt lon="5.919618" lat="51.008094"><ele>51.4</ele><time>2022-06-12T08:46:57.000Z</time></trkpt><trkpt lon="5.919508" lat="51.008117"><ele>51.4</ele><time>2022-06-12T08:46:58.000Z</time></trkpt><trkpt lon="5.919408" lat="51.008135"><ele>51.4</ele><time>2022-06-12T08:46:59.000Z</time></trkpt><trkpt lon="5.919302" lat="51.008151"><ele>51.4</ele><time>2022-06-12T08:47:00.000Z</time></trkpt><trkpt lon="5.919197" lat="51.00817"><ele>51.6</ele><time>2022-06-12T08:47:01.000Z</time></trkpt><trkpt lon="5.919088" lat="51.00819"><ele>51.6</ele><time>2022-06-12T08:47:02.000Z</time></trkpt><trkpt lon="5.918978" lat="51.008205"><ele>51.6</ele><time>2022-06-12T08:47:03.000Z</time></trkpt><trkpt lon="5.918865" lat="51.008224"><ele>51.4</ele><time>2022-06-12T08:47:04.000Z</time></trkpt><trkpt lon="5.91876" lat="51.00825"><ele>51.4</ele><time>2022-06-12T08:47:05.000Z</time></trkpt><trkpt lon="5.918653" lat="51.008277"><ele>51.4</ele><time>2022-06-12T08:47:06.000Z</time></trkpt><trkpt lon="5.918547" lat="51.0083"><ele>51.4</ele><time>2022-06-12T08:47:07.000Z</time></trkpt><trkpt lon="5.91844" lat="51.008326"><ele>51.4</ele><time>2022-06-12T08:47:08.000Z</time></trkpt><trkpt lon="5.918331" lat="51.008346"><ele>51.4</ele><time>2022-06-12T08:47:09.000Z</time></trkpt><trkpt lon="5.918222" lat="51.008372"><ele>51.4</ele><time>2022-06-12T08:47:10.000Z</time></trkpt><trkpt lon="5.918109" lat="51.008399"><ele>51.4</ele><time>2022-06-12T08:47:11.000Z</time></trkpt><trkpt lon="5.917994" lat="51.008426"><ele>51.4</ele><time>2022-06-12T08:47:12.000Z</time></trkpt><trkpt lon="5.917878" lat="51.008453"><ele>51.4</ele><time>2022-06-12T08:47:13.000Z</time></trkpt><trkpt lon="5.917761" lat="51.008476"><ele>51.4</ele><time>2022-06-12T08:47:14.000Z</time></trkpt><trkpt lon="5.917646" lat="51.008502"><ele>51.4</ele><time>2022-06-12T08:47:15.000Z</time></trkpt><trkpt lon="5.917528" lat="51.008529"><ele>51.6</ele><time>2022-06-12T08:47:16.000Z</time></trkpt><trkpt lon="5.917413" lat="51.008551"><ele>51.4</ele><time>2022-06-12T08:47:17.000Z</time></trkpt><trkpt lon="5.917292" lat="51.008571"><ele>51.4</ele><time>2022-06-12T08:47:18.000Z</time></trkpt><trkpt lon="5.917179" lat="51.008598"><ele>51.6</ele><time>2022-06-12T08:47:19.000Z</time></trkpt><trkpt lon="5.917066" lat="51.008624"><ele>51.6</ele><time>2022-06-12T08:47:20.000Z</time></trkpt><trkpt lon="5.916949" lat="51.008647"><ele>51.6</ele><time>2022-06-12T08:47:21.000Z</time></trkpt><trkpt lon="5.916831" lat="51.00867"><ele>51.6</ele><time>2022-06-12T08:47:22.000Z</time></trkpt><trkpt lon="5.91672" lat="51.008693"><ele>51.4</ele><time>2022-06-12T08:47:23.000Z</time></trkpt><trkpt lon="5.916607" lat="51.008716"><ele>51.4</ele><time>2022-06-12T08:47:24.000Z</time></trkpt><trkpt lon="5.916508" lat="51.008733"><ele>51.4</ele><time>2022-06-12T08:47:25.000Z</time></trkpt><trkpt lon="5.916386" lat="51.008758"><ele>51.4</ele><time>2022-06-12T08:47:26.000Z</time></trkpt><trkpt lon="5.91628" lat="51.008781"><ele>51.4</ele><time>2022-06-12T08:47:27.000Z</time></trkpt><trkpt lon="5.916172" lat="51.008807"><ele>51.4</ele><time>2022-06-12T08:47:28.000Z</time></trkpt><trkpt lon="5.916062" lat="51.008838"><ele>51.4</ele><time>2022-06-12T08:47:29.000Z</time></trkpt><trkpt lon="5.915949" lat="51.008865"><ele>51.4</ele><time>2022-06-12T08:47:30.000Z</time></trkpt><trkpt lon="5.915839" lat="51.008887"><ele>51.2</ele><time>2022-06-12T08:47:31.000Z</time></trkpt><trkpt lon="5.915723" lat="51.008914"><ele>51.2</ele><time>2022-06-12T08:47:32.000Z</time></trkpt><trkpt lon="5.915608" lat="51.008941"><ele>51</ele><time>2022-06-12T08:47:33.000Z</time></trkpt><trkpt lon="5.915491" lat="51.008967"><ele>51</ele><time>2022-06-12T08:47:34.000Z</time></trkpt><trkpt lon="5.915371" lat="51.00899"><ele>51</ele><time>2022-06-12T08:47:35.000Z</time></trkpt><trkpt lon="5.915248" lat="51.009013"><ele>50.8</ele><time>2022-06-12T08:47:36.000Z</time></trkpt><trkpt lon="5.915132" lat="51.00904"><ele>50.8</ele><time>2022-06-12T08:47:37.000Z</time></trkpt><trkpt lon="5.915016" lat="51.00907"><ele>50.6</ele><time>2022-06-12T08:47:38.000Z</time></trkpt><trkpt lon="5.914905" lat="51.0091"><ele>50.6</ele><time>2022-06-12T08:47:39.000Z</time></trkpt><trkpt lon="5.914793" lat="51.009131"><ele>50.6</ele><time>2022-06-12T08:47:40.000Z</time></trkpt><trkpt lon="5.914679" lat="51.009158"><ele>50.6</ele><time>2022-06-12T08:47:41.000Z</time></trkpt><trkpt lon="5.91457" lat="51.009188"><ele>50.6</ele><time>2022-06-12T08:47:42.000Z</time></trkpt><trkpt lon="5.914457" lat="51.009215"><ele>50.6</ele><time>2022-06-12T08:47:43.000Z</time></trkpt><trkpt lon="5.914346" lat="51.009242"><ele>50.6</ele><time>2022-06-12T08:47:44.000Z</time></trkpt><trkpt lon="5.914238" lat="51.009273"><ele>50.4</ele><time>2022-06-12T08:47:45.000Z</time></trkpt><trkpt lon="5.914128" lat="51.009303"><ele>50.4</ele><time>2022-06-12T08:47:46.000Z</time></trkpt><trkpt lon="5.91402" lat="51.009332"><ele>50.4</ele><time>2022-06-12T08:47:47.000Z</time></trkpt><trkpt lon="5.91391" lat="51.009364"><ele>50.6</ele><time>2022-06-12T08:47:48.000Z</time></trkpt><trkpt lon="5.913802" lat="51.009398"><ele>50.6</ele><time>2022-06-12T08:47:49.000Z</time></trkpt><trkpt lon="5.913694" lat="51.009429"><ele>50.6</ele><time>2022-06-12T08:47:50.000Z</time></trkpt><trkpt lon="5.913588" lat="51.009463"><ele>50.6</ele><time>2022-06-12T08:47:51.000Z</time></trkpt><trkpt lon="5.913484" lat="51.009494"><ele>50.6</ele><time>2022-06-12T08:47:52.000Z</time></trkpt><trkpt lon="5.913379" lat="51.009528"><ele>50.6</ele><time>2022-06-12T08:47:53.000Z</time></trkpt><trkpt lon="5.913275" lat="51.009562"><ele>50.6</ele><time>2022-06-12T08:47:54.000Z</time></trkpt><trkpt lon="5.913173" lat="51.009597"><ele>50.6</ele><time>2022-06-12T08:47:55.000Z</time></trkpt><trkpt lon="5.913072" lat="51.009633"><ele>50.6</ele><time>2022-06-12T08:47:56.000Z</time></trkpt><trkpt lon="5.912966" lat="51.009677"><ele>50.4</ele><time>2022-06-12T08:47:57.000Z</time></trkpt><trkpt lon="5.912865" lat="51.009719"><ele>50.4</ele><time>2022-06-12T08:47:58.000Z</time></trkpt><trkpt lon="5.912776" lat="51.009755"><ele>50.4</ele><time>2022-06-12T08:47:59.000Z</time></trkpt><trkpt lon="5.912666" lat="51.009806"><ele>50.4</ele><time>2022-06-12T08:48:00.000Z</time></trkpt><trkpt lon="5.912574" lat="51.009851"><ele>50.4</ele><time>2022-06-12T08:48:01.000Z</time></trkpt><trkpt lon="5.912478" lat="51.009894"><ele>50.4</ele><time>2022-06-12T08:48:02.000Z</time></trkpt><trkpt lon="5.912383" lat="51.00994"><ele>50.4</ele><time>2022-06-12T08:48:03.000Z</time></trkpt><trkpt lon="5.912288" lat="51.009986"><ele>50.4</ele><time>2022-06-12T08:48:04.000Z</time></trkpt><trkpt lon="5.912195" lat="51.010035"><ele>50.2</ele><time>2022-06-12T08:48:05.000Z</time></trkpt><trkpt lon="5.912104" lat="51.010081"><ele>50.2</ele><time>2022-06-12T08:48:06.000Z</time></trkpt><trkpt lon="5.912015" lat="51.010127"><ele>50.2</ele><time>2022-06-12T08:48:07.000Z</time></trkpt><trkpt lon="5.911931" lat="51.010175"><ele>50.2</ele><time>2022-06-12T08:48:08.000Z</time></trkpt><trkpt lon="5.911843" lat="51.010222"><ele>50.2</ele><time>2022-06-12T08:48:09.000Z</time></trkpt><trkpt lon="5.911755" lat="51.010275"><ele>50.2</ele><time>2022-06-12T08:48:10.000Z</time></trkpt><trkpt lon="5.911668" lat="51.010325"><ele>50</ele><time>2022-06-12T08:48:11.000Z</time></trkpt><trkpt lon="5.911583" lat="51.010378"><ele>50</ele><time>2022-06-12T08:48:12.000Z</time></trkpt><trkpt lon="5.9115" lat="51.010427"><ele>50</ele><time>2022-06-12T08:48:13.000Z</time></trkpt><trkpt lon="5.911415" lat="51.010484"><ele>50</ele><time>2022-06-12T08:48:14.000Z</time></trkpt><trkpt lon="5.911334" lat="51.010538"><ele>49.8</ele><time>2022-06-12T08:48:15.000Z</time></trkpt><trkpt lon="5.911256" lat="51.010592"><ele>49.8</ele><time>2022-06-12T08:48:16.000Z</time></trkpt><trkpt lon="5.911177" lat="51.010648"><ele>49.8</ele><time>2022-06-12T08:48:17.000Z</time></trkpt><trkpt lon="5.911099" lat="51.010706"><ele>49.8</ele><time>2022-06-12T08:48:18.000Z</time></trkpt><trkpt lon="5.911022" lat="51.010763"><ele>49.6</ele><time>2022-06-12T08:48:19.000Z</time></trkpt><trkpt lon="5.910951" lat="51.010817"><ele>49.6</ele><time>2022-06-12T08:48:20.000Z</time></trkpt><trkpt lon="5.910877" lat="51.010874"><ele>49.6</ele><time>2022-06-12T08:48:21.000Z</time></trkpt><trkpt lon="5.910809" lat="51.010933"><ele>49.6</ele><time>2022-06-12T08:48:22.000Z</time></trkpt><trkpt lon="5.91074" lat="51.010995"><ele>49.4</ele><time>2022-06-12T08:48:23.000Z</time></trkpt><trkpt lon="5.910678" lat="51.011053"><ele>49.4</ele><time>2022-06-12T08:48:24.000Z</time></trkpt><trkpt lon="5.91061" lat="51.011118"><ele>49.4</ele><time>2022-06-12T08:48:25.000Z</time></trkpt><trkpt lon="5.910546" lat="51.011175"><ele>49.6</ele><time>2022-06-12T08:48:26.000Z</time></trkpt><trkpt lon="5.910483" lat="51.011233"><ele>49.6</ele><time>2022-06-12T08:48:27.000Z</time></trkpt><trkpt lon="5.910424" lat="51.011297"><ele>49.6</ele><time>2022-06-12T08:48:28.000Z</time></trkpt><trkpt lon="5.910365" lat="51.011362"><ele>49.6</ele><time>2022-06-12T08:48:29.000Z</time></trkpt><trkpt lon="5.910309" lat="51.011423"><ele>49.6</ele><time>2022-06-12T08:48:30.000Z</time></trkpt><trkpt lon="5.91025" lat="51.011488"><ele>49.6</ele><time>2022-06-12T08:48:31.000Z</time></trkpt><trkpt lon="5.910193" lat="51.011549"><ele>49.6</ele><time>2022-06-12T08:48:32.000Z</time></trkpt><trkpt lon="5.910136" lat="51.01161"><ele>49.6</ele><time>2022-06-12T08:48:33.000Z</time></trkpt><trkpt lon="5.910081" lat="51.011674"><ele>49.6</ele><time>2022-06-12T08:48:34.000Z</time></trkpt><trkpt lon="5.910024" lat="51.01174"><ele>49.6</ele><time>2022-06-12T08:48:35.000Z</time></trkpt><trkpt lon="5.909967" lat="51.011804"><ele>49.4</ele><time>2022-06-12T08:48:36.000Z</time></trkpt><trkpt lon="5.909912" lat="51.011873"><ele>49.4</ele><time>2022-06-12T08:48:37.000Z</time></trkpt><trkpt lon="5.909859" lat="51.011942"><ele>49.4</ele><time>2022-06-12T08:48:38.000Z</time></trkpt><trkpt lon="5.909806" lat="51.01201"><ele>49.4</ele><time>2022-06-12T08:48:39.000Z</time></trkpt><trkpt lon="5.909754" lat="51.012078"><ele>49.4</ele><time>2022-06-12T08:48:40.000Z</time></trkpt><trkpt lon="5.909701" lat="51.012152"><ele>49.4</ele><time>2022-06-12T08:48:41.000Z</time></trkpt><trkpt lon="5.909651" lat="51.012224"><ele>49.4</ele><time>2022-06-12T08:48:42.000Z</time></trkpt><trkpt lon="5.909602" lat="51.012295"><ele>49.4</ele><time>2022-06-12T08:48:43.000Z</time></trkpt><trkpt lon="5.909556" lat="51.012368"><ele>49.2</ele><time>2022-06-12T08:48:44.000Z</time></trkpt><trkpt lon="5.90951" lat="51.012441"><ele>49.2</ele><time>2022-06-12T08:48:45.000Z</time></trkpt><trkpt lon="5.909467" lat="51.012512"><ele>49.2</ele><time>2022-06-12T08:48:46.000Z</time></trkpt><trkpt lon="5.909424" lat="51.012584"><ele>49</ele><time>2022-06-12T08:48:47.000Z</time></trkpt><trkpt lon="5.909381" lat="51.012663"><ele>49</ele><time>2022-06-12T08:48:48.000Z</time></trkpt><trkpt lon="5.909344" lat="51.012739"><ele>49.2</ele><time>2022-06-12T08:48:49.000Z</time></trkpt><trkpt lon="5.909308" lat="51.01281"><ele>49</ele><time>2022-06-12T08:48:50.000Z</time></trkpt><trkpt lon="5.909274" lat="51.012884"><ele>49</ele><time>2022-06-12T08:48:51.000Z</time></trkpt><trkpt lon="5.909238" lat="51.012959"><ele>49</ele><time>2022-06-12T08:48:52.000Z</time></trkpt><trkpt lon="5.909203" lat="51.013032"><ele>49</ele><time>2022-06-12T08:48:53.000Z</time></trkpt><trkpt lon="5.909168" lat="51.013109"><ele>49</ele><time>2022-06-12T08:48:54.000Z</time></trkpt><trkpt lon="5.909136" lat="51.013181"><ele>49</ele><time>2022-06-12T08:48:55.000Z</time></trkpt><trkpt lon="5.909106" lat="51.013257"><ele>49</ele><time>2022-06-12T08:48:56.000Z</time></trkpt><trkpt lon="5.909073" lat="51.01333"><ele>49</ele><time>2022-06-12T08:48:57.000Z</time></trkpt><trkpt lon="5.909043" lat="51.013402"><ele>49</ele><time>2022-06-12T08:48:58.000Z</time></trkpt><trkpt lon="5.909014" lat="51.013474"><ele>49</ele><time>2022-06-12T08:48:59.000Z</time></trkpt><trkpt lon="5.908986" lat="51.013547"><ele>49</ele><time>2022-06-12T08:49:00.000Z</time></trkpt><trkpt lon="5.908956" lat="51.01362"><ele>49.2</ele><time>2022-06-12T08:49:01.000Z</time></trkpt><trkpt lon="5.908926" lat="51.013693"><ele>49.2</ele><time>2022-06-12T08:49:02.000Z</time></trkpt><trkpt lon="5.908894" lat="51.013762"><ele>49.2</ele><time>2022-06-12T08:49:03.000Z</time></trkpt><trkpt lon="5.908866" lat="51.01383"><ele>49.2</ele><time>2022-06-12T08:49:04.000Z</time></trkpt><trkpt lon="5.908838" lat="51.013901"><ele>49.2</ele><time>2022-06-12T08:49:05.000Z</time></trkpt><trkpt lon="5.908808" lat="51.013967"><ele>49.2</ele><time>2022-06-12T08:49:06.000Z</time></trkpt><trkpt lon="5.90878" lat="51.014031"><ele>49.2</ele><time>2022-06-12T08:49:07.000Z</time></trkpt><trkpt lon="5.908751" lat="51.014105"><ele>49.2</ele><time>2022-06-12T08:49:08.000Z</time></trkpt><trkpt lon="5.908719" lat="51.014181"><ele>49.2</ele><time>2022-06-12T08:49:09.000Z</time></trkpt><trkpt lon="5.90869" lat="51.014249"><ele>49.2</ele><time>2022-06-12T08:49:10.000Z</time></trkpt><trkpt lon="5.908659" lat="51.014322"><ele>49.2</ele><time>2022-06-12T08:49:11.000Z</time></trkpt><trkpt lon="5.908627" lat="51.014391"><ele>49.2</ele><time>2022-06-12T08:49:12.000Z</time></trkpt><trkpt lon="5.908596" lat="51.014463"><ele>49.2</ele><time>2022-06-12T08:49:13.000Z</time></trkpt><trkpt lon="5.908566" lat="51.014539"><ele>49.2</ele><time>2022-06-12T08:49:14.000Z</time></trkpt><trkpt lon="5.908537" lat="51.014608"><ele>49.2</ele><time>2022-06-12T08:49:15.000Z</time></trkpt><trkpt lon="5.908509" lat="51.014677"><ele>49.2</ele><time>2022-06-12T08:49:16.000Z</time></trkpt><trkpt lon="5.908482" lat="51.014747"><ele>49</ele><time>2022-06-12T08:49:17.000Z</time></trkpt><trkpt lon="5.908454" lat="51.014818"><ele>49</ele><time>2022-06-12T08:49:18.000Z</time></trkpt><trkpt lon="5.908428" lat="51.014883"><ele>49</ele><time>2022-06-12T08:49:19.000Z</time></trkpt><trkpt lon="5.908399" lat="51.014948"><ele>49</ele><time>2022-06-12T08:49:20.000Z</time></trkpt><trkpt lon="5.908372" lat="51.015009"><ele>48.8</ele><time>2022-06-12T08:49:21.000Z</time></trkpt><trkpt lon="5.908347" lat="51.015069"><ele>48.8</ele><time>2022-06-12T08:49:22.000Z</time></trkpt><trkpt lon="5.908321" lat="51.015131"><ele>48.8</ele><time>2022-06-12T08:49:23.000Z</time></trkpt><trkpt lon="5.908296" lat="51.015181"><ele>48.8</ele><time>2022-06-12T08:49:24.000Z</time></trkpt><trkpt lon="5.908273" lat="51.015231"><ele>48.8</ele><time>2022-06-12T08:49:25.000Z</time></trkpt><trkpt lon="5.908253" lat="51.015275"><ele>48.8</ele><time>2022-06-12T08:49:26.000Z</time></trkpt><trkpt lon="5.90824" lat="51.015318"><ele>49</ele><time>2022-06-12T08:49:27.000Z</time></trkpt><trkpt lon="5.908243" lat="51.01536"><ele>49</ele><time>2022-06-12T08:49:28.000Z</time></trkpt><trkpt lon="5.908253" lat="51.015398"><ele>49</ele><time>2022-06-12T08:49:29.000Z</time></trkpt><trkpt lon="5.908255" lat="51.015439"><ele>49</ele><time>2022-06-12T08:49:30.000Z</time></trkpt><trkpt lon="5.908233" lat="51.015478"><ele>49</ele><time>2022-06-12T08:49:31.000Z</time></trkpt><trkpt lon="5.908191" lat="51.015528"><ele>49</ele><time>2022-06-12T08:49:32.000Z</time></trkpt><trkpt lon="5.908148" lat="51.015578"><ele>48.8</ele><time>2022-06-12T08:49:33.000Z</time></trkpt><trkpt lon="5.908105" lat="51.015631"><ele>48.8</ele><time>2022-06-12T08:49:34.000Z</time></trkpt><trkpt lon="5.90805" lat="51.015684"><ele>48.6</ele><time>2022-06-12T08:49:35.000Z</time></trkpt><trkpt lon="5.907983" lat="51.01574"><ele>48.6</ele><time>2022-06-12T08:49:36.000Z</time></trkpt><trkpt lon="5.907914" lat="51.015795"><ele>48.4</ele><time>2022-06-12T08:49:37.000Z</time></trkpt><trkpt lon="5.907847" lat="51.015856"><ele>48.4</ele><time>2022-06-12T08:49:38.000Z</time></trkpt><trkpt lon="5.907785" lat="51.015913"><ele>48.2</ele><time>2022-06-12T08:49:39.000Z</time></trkpt><trkpt lon="5.907727" lat="51.015977"><ele>48.2</ele><time>2022-06-12T08:49:40.000Z</time></trkpt><trkpt lon="5.907675" lat="51.016038"><ele>48.2</ele><time>2022-06-12T08:49:41.000Z</time></trkpt><trkpt lon="5.907624" lat="51.016101"><ele>48</ele><time>2022-06-12T08:49:42.000Z</time></trkpt><trkpt lon="5.907571" lat="51.016165"><ele>48</ele><time>2022-06-12T08:49:43.000Z</time></trkpt><trkpt lon="5.907517" lat="51.016233"><ele>47.8</ele><time>2022-06-12T08:49:44.000Z</time></trkpt><trkpt lon="5.90746" lat="51.016297"><ele>47.8</ele><time>2022-06-12T08:49:45.000Z</time></trkpt><trkpt lon="5.907398" lat="51.016362"><ele>47.8</ele><time>2022-06-12T08:49:46.000Z</time></trkpt><trkpt lon="5.907334" lat="51.016428"><ele>47.6</ele><time>2022-06-12T08:49:47.000Z</time></trkpt><trkpt lon="5.90727" lat="51.016495"><ele>47.6</ele><time>2022-06-12T08:49:48.000Z</time></trkpt><trkpt lon="5.907205" lat="51.016561"><ele>47.6</ele><time>2022-06-12T08:49:49.000Z</time></trkpt><trkpt lon="5.90714" lat="51.016626"><ele>47.4</ele><time>2022-06-12T08:49:50.000Z</time></trkpt><trkpt lon="5.907073" lat="51.01669"><ele>47.4</ele><time>2022-06-12T08:49:51.000Z</time></trkpt><trkpt lon="5.907003" lat="51.016752"><ele>47.4</ele><time>2022-06-12T08:49:52.000Z</time></trkpt><trkpt lon="5.906933" lat="51.016813"><ele>47.4</ele><time>2022-06-12T08:49:53.000Z</time></trkpt><trkpt lon="5.90686" lat="51.016873"><ele>47.4</ele><time>2022-06-12T08:49:54.000Z</time></trkpt><trkpt lon="5.906787" lat="51.016931"><ele>47.2</ele><time>2022-06-12T08:49:55.000Z</time></trkpt><trkpt lon="5.906714" lat="51.016985"><ele>47.2</ele><time>2022-06-12T08:49:56.000Z</time></trkpt><trkpt lon="5.906643" lat="51.017032"><ele>47.2</ele><time>2022-06-12T08:49:57.000Z</time></trkpt><trkpt lon="5.906575" lat="51.017084"><ele>47.2</ele><time>2022-06-12T08:49:58.000Z</time></trkpt><trkpt lon="5.906508" lat="51.017139"><ele>47.2</ele><time>2022-06-12T08:49:59.000Z</time></trkpt><trkpt lon="5.906431" lat="51.017195"><ele>47.2</ele><time>2022-06-12T08:50:00.000Z</time></trkpt><trkpt lon="5.906356" lat="51.017248"><ele>47.2</ele><time>2022-06-12T08:50:01.000Z</time></trkpt><trkpt lon="5.906281" lat="51.017298"><ele>47.2</ele><time>2022-06-12T08:50:02.000Z</time></trkpt><trkpt lon="5.906205" lat="51.017344"><ele>47</ele><time>2022-06-12T08:50:03.000Z</time></trkpt><trkpt lon="5.906129" lat="51.017393"><ele>47</ele><time>2022-06-12T08:50:04.000Z</time></trkpt><trkpt lon="5.90605" lat="51.017439"><ele>47</ele><time>2022-06-12T08:50:05.000Z</time></trkpt><trkpt lon="5.905969" lat="51.017489"><ele>47</ele><time>2022-06-12T08:50:06.000Z</time></trkpt><trkpt lon="5.905889" lat="51.017535"><ele>47</ele><time>2022-06-12T08:50:07.000Z</time></trkpt><trkpt lon="5.905811" lat="51.01758"><ele>47</ele><time>2022-06-12T08:50:08.000Z</time></trkpt><trkpt lon="5.905732" lat="51.017629"><ele>47.2</ele><time>2022-06-12T08:50:09.000Z</time></trkpt><trkpt lon="5.905651" lat="51.017677"><ele>47</ele><time>2022-06-12T08:50:10.000Z</time></trkpt><trkpt lon="5.905564" lat="51.017726"><ele>47</ele><time>2022-06-12T08:50:11.000Z</time></trkpt><trkpt lon="5.90548" lat="51.017775"><ele>47</ele><time>2022-06-12T08:50:12.000Z</time></trkpt><trkpt lon="5.905398" lat="51.017819"><ele>47.2</ele><time>2022-06-12T08:50:13.000Z</time></trkpt><trkpt lon="5.90531" lat="51.017862"><ele>47.2</ele><time>2022-06-12T08:50:14.000Z</time></trkpt><trkpt lon="5.905221" lat="51.017908"><ele>47.2</ele><time>2022-06-12T08:50:15.000Z</time></trkpt><trkpt lon="5.905128" lat="51.01795"><ele>47.2</ele><time>2022-06-12T08:50:16.000Z</time></trkpt><trkpt lon="5.905038" lat="51.017996"><ele>47.2</ele><time>2022-06-12T08:50:17.000Z</time></trkpt><trkpt lon="5.904949" lat="51.018035"><ele>47.2</ele><time>2022-06-12T08:50:18.000Z</time></trkpt><trkpt lon="5.90486" lat="51.018076"><ele>47.2</ele><time>2022-06-12T08:50:19.000Z</time></trkpt><trkpt lon="5.904769" lat="51.018118"><ele>47.2</ele><time>2022-06-12T08:50:20.000Z</time></trkpt><trkpt lon="5.904676" lat="51.018157"><ele>47.2</ele><time>2022-06-12T08:50:21.000Z</time></trkpt><trkpt lon="5.904584" lat="51.018195"><ele>47.2</ele><time>2022-06-12T08:50:22.000Z</time></trkpt><trkpt lon="5.904496" lat="51.018233"><ele>47.2</ele><time>2022-06-12T08:50:23.000Z</time></trkpt><trkpt lon="5.904407" lat="51.018267"><ele>47.2</ele><time>2022-06-12T08:50:24.000Z</time></trkpt><trkpt lon="5.904317" lat="51.018302"><ele>47.2</ele><time>2022-06-12T08:50:25.000Z</time></trkpt><trkpt lon="5.904225" lat="51.018336"><ele>47.2</ele><time>2022-06-12T08:50:26.000Z</time></trkpt><trkpt lon="5.904134" lat="51.01837"><ele>47.2</ele><time>2022-06-12T08:50:27.000Z</time></trkpt><trkpt lon="5.90404" lat="51.018404"><ele>47</ele><time>2022-06-12T08:50:28.000Z</time></trkpt><trkpt lon="5.90395" lat="51.018435"><ele>47</ele><time>2022-06-12T08:50:29.000Z</time></trkpt><trkpt lon="5.903858" lat="51.018466"><ele>47.2</ele><time>2022-06-12T08:50:30.000Z</time></trkpt><trkpt lon="5.903767" lat="51.018496"><ele>47.2</ele><time>2022-06-12T08:50:31.000Z</time></trkpt><trkpt lon="5.903676" lat="51.018527"><ele>47.2</ele><time>2022-06-12T08:50:32.000Z</time></trkpt><trkpt lon="5.903584" lat="51.018557"><ele>47.2</ele><time>2022-06-12T08:50:33.000Z</time></trkpt><trkpt lon="5.903493" lat="51.018584"><ele>47.2</ele><time>2022-06-12T08:50:34.000Z</time></trkpt><trkpt lon="5.903403" lat="51.01861"><ele>47.2</ele><time>2022-06-12T08:50:35.000Z</time></trkpt><trkpt lon="5.903315" lat="51.018641"><ele>47.2</ele><time>2022-06-12T08:50:36.000Z</time></trkpt><trkpt lon="5.903236" lat="51.018672"><ele>47.2</ele><time>2022-06-12T08:50:37.000Z</time></trkpt><trkpt lon="5.903164" lat="51.018706"><ele>47.2</ele><time>2022-06-12T08:50:38.000Z</time></trkpt><trkpt lon="5.903097" lat="51.01874"><ele>47</ele><time>2022-06-12T08:50:39.000Z</time></trkpt><trkpt lon="5.903031" lat="51.018775"><ele>47</ele><time>2022-06-12T08:50:40.000Z</time></trkpt><trkpt lon="5.902965" lat="51.018805"><ele>47</ele><time>2022-06-12T08:50:41.000Z</time></trkpt><trkpt lon="5.902903" lat="51.018832"><ele>47</ele><time>2022-06-12T08:50:42.000Z</time></trkpt><trkpt lon="5.902847" lat="51.018866"><ele>47</ele><time>2022-06-12T08:50:43.000Z</time></trkpt><trkpt lon="5.902805" lat="51.018904"><ele>47</ele><time>2022-06-12T08:50:44.000Z</time></trkpt><trkpt lon="5.902771" lat="51.018942"><ele>47</ele><time>2022-06-12T08:50:45.000Z</time></trkpt><trkpt lon="5.902731" lat="51.018977"><ele>47.2</ele><time>2022-06-12T08:50:46.000Z</time></trkpt><trkpt lon="5.902673" lat="51.018996"><ele>47.2</ele><time>2022-06-12T08:50:47.000Z</time></trkpt><trkpt lon="5.902598" lat="51.019004"><ele>47.2</ele><time>2022-06-12T08:50:48.000Z</time></trkpt><trkpt lon="5.902516" lat="51.019005"><ele>47.2</ele><time>2022-06-12T08:50:49.000Z</time></trkpt><trkpt lon="5.902431" lat="51.018986"><ele>47</ele><time>2022-06-12T08:50:50.000Z</time></trkpt><trkpt lon="5.902349" lat="51.01896"><ele>47</ele><time>2022-06-12T08:50:51.000Z</time></trkpt><trkpt lon="5.90226" lat="51.01894"><ele>47</ele><time>2022-06-12T08:50:52.000Z</time></trkpt><trkpt lon="5.902164" lat="51.01894"><ele>47</ele><time>2022-06-12T08:50:53.000Z</time></trkpt><trkpt lon="5.902058" lat="51.018955"><ele>47</ele><time>2022-06-12T08:50:54.000Z</time></trkpt><trkpt lon="5.901947" lat="51.018978"><ele>47</ele><time>2022-06-12T08:50:55.000Z</time></trkpt><trkpt lon="5.901836" lat="51.019"><ele>47</ele><time>2022-06-12T08:50:56.000Z</time></trkpt><trkpt lon="5.901726" lat="51.019023"><ele>47</ele><time>2022-06-12T08:50:57.000Z</time></trkpt><trkpt lon="5.901619" lat="51.019046"><ele>47</ele><time>2022-06-12T08:50:58.000Z</time></trkpt><trkpt lon="5.90151" lat="51.019065"><ele>46.8</ele><time>2022-06-12T08:50:59.000Z</time></trkpt><trkpt lon="5.901398" lat="51.019084"><ele>46.8</ele><time>2022-06-12T08:51:00.000Z</time></trkpt><trkpt lon="5.901289" lat="51.019104"><ele>46.8</ele><time>2022-06-12T08:51:01.000Z</time></trkpt><trkpt lon="5.901181" lat="51.019122"><ele>46.8</ele><time>2022-06-12T08:51:02.000Z</time></trkpt><trkpt lon="5.901072" lat="51.019138"><ele>46.8</ele><time>2022-06-12T08:51:03.000Z</time></trkpt><trkpt lon="5.900964" lat="51.019153"><ele>46.8</ele><time>2022-06-12T08:51:04.000Z</time></trkpt><trkpt lon="5.900858" lat="51.019168"><ele>46.8</ele><time>2022-06-12T08:51:05.000Z</time></trkpt><trkpt lon="5.900754" lat="51.019183"><ele>46.8</ele><time>2022-06-12T08:51:06.000Z</time></trkpt><trkpt lon="5.900647" lat="51.019202"><ele>46.8</ele><time>2022-06-12T08:51:07.000Z</time></trkpt><trkpt lon="5.900536" lat="51.019218"><ele>46.8</ele><time>2022-06-12T08:51:08.000Z</time></trkpt><trkpt lon="5.90043" lat="51.019233"><ele>47</ele><time>2022-06-12T08:51:09.000Z</time></trkpt><trkpt lon="5.900324" lat="51.019252"><ele>46.8</ele><time>2022-06-12T08:51:10.000Z</time></trkpt><trkpt lon="5.900216" lat="51.019268"><ele>46.8</ele><time>2022-06-12T08:51:11.000Z</time></trkpt><trkpt lon="5.900112" lat="51.019279"><ele>46.8</ele><time>2022-06-12T08:51:12.000Z</time></trkpt><trkpt lon="5.900008" lat="51.01929"><ele>46.6</ele><time>2022-06-12T08:51:13.000Z</time></trkpt><trkpt lon="5.899906" lat="51.019302"><ele>46.6</ele><time>2022-06-12T08:51:14.000Z</time></trkpt><trkpt lon="5.8998" lat="51.019317"><ele>46.4</ele><time>2022-06-12T08:51:15.000Z</time></trkpt><trkpt lon="5.8997" lat="51.019332"><ele>46.4</ele><time>2022-06-12T08:51:16.000Z</time></trkpt><trkpt lon="5.899598" lat="51.019344"><ele>46.4</ele><time>2022-06-12T08:51:17.000Z</time></trkpt><trkpt lon="5.8995" lat="51.019355"><ele>46.4</ele><time>2022-06-12T08:51:18.000Z</time></trkpt><trkpt lon="5.899398" lat="51.019367"><ele>46.4</ele><time>2022-06-12T08:51:19.000Z</time></trkpt><trkpt lon="5.899305" lat="51.019378"><ele>46.4</ele><time>2022-06-12T08:51:20.000Z</time></trkpt><trkpt lon="5.899211" lat="51.01939"><ele>46.4</ele><time>2022-06-12T08:51:21.000Z</time></trkpt><trkpt lon="5.899123" lat="51.019401"><ele>46.4</ele><time>2022-06-12T08:51:22.000Z</time></trkpt><trkpt lon="5.899042" lat="51.019416"><ele>46.4</ele><time>2022-06-12T08:51:23.000Z</time></trkpt><trkpt lon="5.898965" lat="51.019431"><ele>46.4</ele><time>2022-06-12T08:51:24.000Z</time></trkpt><trkpt lon="5.898889" lat="51.01945"><ele>46.4</ele><time>2022-06-12T08:51:25.000Z</time></trkpt><trkpt lon="5.898811" lat="51.01947"><ele>46.4</ele><time>2022-06-12T08:51:26.000Z</time></trkpt><trkpt lon="5.898741" lat="51.019503"><ele>46.4</ele><time>2022-06-12T08:51:27.000Z</time></trkpt><trkpt lon="5.898679" lat="51.019545"><ele>46.4</ele><time>2022-06-12T08:51:28.000Z</time></trkpt><trkpt lon="5.898616" lat="51.019587"><ele>46.4</ele><time>2022-06-12T08:51:29.000Z</time></trkpt><trkpt lon="5.898544" lat="51.01961"><ele>46.4</ele><time>2022-06-12T08:51:30.000Z</time></trkpt><trkpt lon="5.898463" lat="51.019619"><ele>46.4</ele><time>2022-06-12T08:51:31.000Z</time></trkpt><trkpt lon="5.898377" lat="51.019608"><ele>46.4</ele><time>2022-06-12T08:51:32.000Z</time></trkpt><trkpt lon="5.898292" lat="51.019586"><ele>46.2</ele><time>2022-06-12T08:51:33.000Z</time></trkpt><trkpt lon="5.898194" lat="51.019562"><ele>46.2</ele><time>2022-06-12T08:51:34.000Z</time></trkpt><trkpt lon="5.898086" lat="51.019554"><ele>46.2</ele><time>2022-06-12T08:51:35.000Z</time></trkpt><trkpt lon="5.897968" lat="51.019558"><ele>46</ele><time>2022-06-12T08:51:36.000Z</time></trkpt><trkpt lon="5.897848" lat="51.019562"><ele>45.8</ele><time>2022-06-12T08:51:37.000Z</time></trkpt><trkpt lon="5.897728" lat="51.019573"><ele>45.8</ele><time>2022-06-12T08:51:38.000Z</time></trkpt><trkpt lon="5.897608" lat="51.019584"><ele>45.8</ele><time>2022-06-12T08:51:39.000Z</time></trkpt><trkpt lon="5.897497" lat="51.019595"><ele>45.8</ele><time>2022-06-12T08:51:40.000Z</time></trkpt><trkpt lon="5.897378" lat="51.019611"><ele>46</ele><time>2022-06-12T08:51:41.000Z</time></trkpt><trkpt lon="5.897269" lat="51.019622"><ele>46</ele><time>2022-06-12T08:51:42.000Z</time></trkpt><trkpt lon="5.897162" lat="51.019637"><ele>46</ele><time>2022-06-12T08:51:43.000Z</time></trkpt><trkpt lon="5.897053" lat="51.019649"><ele>46</ele><time>2022-06-12T08:51:44.000Z</time></trkpt><trkpt lon="5.896949" lat="51.019661"><ele>46</ele><time>2022-06-12T08:51:45.000Z</time></trkpt><trkpt lon="5.89685" lat="51.019672"><ele>46</ele><time>2022-06-12T08:51:46.000Z</time></trkpt><trkpt lon="5.896746" lat="51.019687"><ele>46</ele><time>2022-06-12T08:51:47.000Z</time></trkpt><trkpt lon="5.896647" lat="51.019702"><ele>46</ele><time>2022-06-12T08:51:48.000Z</time></trkpt><trkpt lon="5.896536" lat="51.019718"><ele>46</ele><time>2022-06-12T08:51:49.000Z</time></trkpt><trkpt lon="5.896428" lat="51.019733"><ele>46</ele><time>2022-06-12T08:51:50.000Z</time></trkpt><trkpt lon="5.89632" lat="51.019744"><ele>46</ele><time>2022-06-12T08:51:51.000Z</time></trkpt><trkpt lon="5.896214" lat="51.019759"><ele>46</ele><time>2022-06-12T08:51:52.000Z</time></trkpt><trkpt lon="5.8961" lat="51.019775"><ele>46</ele><time>2022-06-12T08:51:53.000Z</time></trkpt><trkpt lon="5.895989" lat="51.019794"><ele>45.8</ele><time>2022-06-12T08:51:54.000Z</time></trkpt><trkpt lon="5.895883" lat="51.019809"><ele>45.8</ele><time>2022-06-12T08:51:55.000Z</time></trkpt><trkpt lon="5.895775" lat="51.019824"><ele>45.8</ele><time>2022-06-12T08:51:56.000Z</time></trkpt><trkpt lon="5.895667" lat="51.019839"><ele>45.8</ele><time>2022-06-12T08:51:57.000Z</time></trkpt><trkpt lon="5.895555" lat="51.019858"><ele>45.8</ele><time>2022-06-12T08:51:58.000Z</time></trkpt><trkpt lon="5.89545" lat="51.019873"><ele>46</ele><time>2022-06-12T08:51:59.000Z</time></trkpt><trkpt lon="5.895342" lat="51.019889"><ele>45.8</ele><time>2022-06-12T08:52:00.000Z</time></trkpt><trkpt lon="5.89523" lat="51.019908"><ele>45.8</ele><time>2022-06-12T08:52:01.000Z</time></trkpt><trkpt lon="5.895118" lat="51.019928"><ele>45.8</ele><time>2022-06-12T08:52:02.000Z</time></trkpt><trkpt lon="5.89501" lat="51.019943"><ele>45.8</ele><time>2022-06-12T08:52:03.000Z</time></trkpt><trkpt lon="5.894902" lat="51.019965"><ele>45.8</ele><time>2022-06-12T08:52:04.000Z</time></trkpt><trkpt lon="5.894794" lat="51.019985"><ele>45.8</ele><time>2022-06-12T08:52:05.000Z</time></trkpt><trkpt lon="5.894689" lat="51.020003"><ele>45.8</ele><time>2022-06-12T08:52:06.000Z</time></trkpt><trkpt lon="5.894582" lat="51.020026"><ele>45.6</ele><time>2022-06-12T08:52:07.000Z</time></trkpt><trkpt lon="5.894479" lat="51.020045"><ele>45.6</ele><time>2022-06-12T08:52:08.000Z</time></trkpt><trkpt lon="5.894374" lat="51.020065"><ele>45.6</ele><time>2022-06-12T08:52:09.000Z</time></trkpt><trkpt lon="5.894274" lat="51.020083"><ele>45.8</ele><time>2022-06-12T08:52:10.000Z</time></trkpt><trkpt lon="5.894163" lat="51.020103"><ele>45.8</ele><time>2022-06-12T08:52:11.000Z</time></trkpt><trkpt lon="5.894058" lat="51.020126"><ele>45.6</ele><time>2022-06-12T08:52:12.000Z</time></trkpt><trkpt lon="5.893957" lat="51.020145"><ele>45.6</ele><time>2022-06-12T08:52:13.000Z</time></trkpt><trkpt lon="5.893853" lat="51.020164"><ele>45.6</ele><time>2022-06-12T08:52:14.000Z</time></trkpt><trkpt lon="5.893745" lat="51.020187"><ele>45.6</ele><time>2022-06-12T08:52:15.000Z</time></trkpt><trkpt lon="5.893637" lat="51.020209"><ele>45.6</ele><time>2022-06-12T08:52:16.000Z</time></trkpt><trkpt lon="5.893528" lat="51.020236"><ele>45.8</ele><time>2022-06-12T08:52:17.000Z</time></trkpt><trkpt lon="5.893419" lat="51.020263"><ele>45.6</ele><time>2022-06-12T08:52:18.000Z</time></trkpt><trkpt lon="5.893314" lat="51.020286"><ele>45.6</ele><time>2022-06-12T08:52:19.000Z</time></trkpt><trkpt lon="5.893215" lat="51.020312"><ele>45.6</ele><time>2022-06-12T08:52:20.000Z</time></trkpt><trkpt lon="5.893115" lat="51.020339"><ele>45.6</ele><time>2022-06-12T08:52:21.000Z</time></trkpt><trkpt lon="5.893017" lat="51.020365"><ele>45.6</ele><time>2022-06-12T08:52:22.000Z</time></trkpt><trkpt lon="5.892914" lat="51.020392"><ele>45.6</ele><time>2022-06-12T08:52:23.000Z</time></trkpt><trkpt lon="5.892816" lat="51.020418"><ele>45.4</ele><time>2022-06-12T08:52:24.000Z</time></trkpt><trkpt lon="5.892711" lat="51.020446"><ele>45.6</ele><time>2022-06-12T08:52:25.000Z</time></trkpt><trkpt lon="5.892612" lat="51.020472"><ele>45.4</ele><time>2022-06-12T08:52:26.000Z</time></trkpt><trkpt lon="5.892511" lat="51.020502"><ele>45.4</ele><time>2022-06-12T08:52:27.000Z</time></trkpt><trkpt lon="5.892416" lat="51.020532"><ele>45.4</ele><time>2022-06-12T08:52:28.000Z</time></trkpt><trkpt lon="5.892315" lat="51.020563"><ele>45.4</ele><time>2022-06-12T08:52:29.000Z</time></trkpt><trkpt lon="5.892216" lat="51.020591"><ele>45.4</ele><time>2022-06-12T08:52:30.000Z</time></trkpt><trkpt lon="5.892119" lat="51.020617"><ele>45.4</ele><time>2022-06-12T08:52:31.000Z</time></trkpt><trkpt lon="5.892021" lat="51.020647"><ele>45.4</ele><time>2022-06-12T08:52:32.000Z</time></trkpt><trkpt lon="5.891922" lat="51.020678"><ele>45.4</ele><time>2022-06-12T08:52:33.000Z</time></trkpt><trkpt lon="5.891823" lat="51.020712"><ele>45.4</ele><time>2022-06-12T08:52:34.000Z</time></trkpt><trkpt lon="5.891725" lat="51.020746"><ele>45.4</ele><time>2022-06-12T08:52:35.000Z</time></trkpt><trkpt lon="5.891626" lat="51.020778"><ele>45.4</ele><time>2022-06-12T08:52:36.000Z</time></trkpt><trkpt lon="5.891529" lat="51.020808"><ele>45.4</ele><time>2022-06-12T08:52:37.000Z</time></trkpt><trkpt lon="5.891433" lat="51.020842"><ele>45.2</ele><time>2022-06-12T08:52:38.000Z</time></trkpt><trkpt lon="5.891338" lat="51.020876"><ele>45.2</ele><time>2022-06-12T08:52:39.000Z</time></trkpt><trkpt lon="5.891246" lat="51.020907"><ele>45.2</ele><time>2022-06-12T08:52:40.000Z</time></trkpt><trkpt lon="5.891151" lat="51.020942"><ele>45.2</ele><time>2022-06-12T08:52:41.000Z</time></trkpt><trkpt lon="5.891057" lat="51.020979"><ele>45.2</ele><time>2022-06-12T08:52:42.000Z</time></trkpt><trkpt lon="5.890959" lat="51.021013"><ele>45.2</ele><time>2022-06-12T08:52:43.000Z</time></trkpt><trkpt lon="5.89086" lat="51.021051"><ele>45.2</ele><time>2022-06-12T08:52:44.000Z</time></trkpt><trkpt lon="5.890765" lat="51.02109"><ele>45.2</ele><time>2022-06-12T08:52:45.000Z</time></trkpt><trkpt lon="5.890673" lat="51.021128"><ele>45.2</ele><time>2022-06-12T08:52:46.000Z</time></trkpt><trkpt lon="5.890582" lat="51.021166"><ele>45.2</ele><time>2022-06-12T08:52:47.000Z</time></trkpt><trkpt lon="5.890493" lat="51.021204"><ele>45.2</ele><time>2022-06-12T08:52:48.000Z</time></trkpt><trkpt lon="5.890402" lat="51.021242"><ele>45.2</ele><time>2022-06-12T08:52:49.000Z</time></trkpt><trkpt lon="5.890312" lat="51.021283"><ele>45.2</ele><time>2022-06-12T08:52:50.000Z</time></trkpt><trkpt lon="5.890221" lat="51.021327"><ele>45.2</ele><time>2022-06-12T08:52:51.000Z</time></trkpt><trkpt lon="5.890129" lat="51.021369"><ele>45.2</ele><time>2022-06-12T08:52:52.000Z</time></trkpt><trkpt lon="5.89004" lat="51.02141"><ele>45.2</ele><time>2022-06-12T08:52:53.000Z</time></trkpt><trkpt lon="5.889953" lat="51.021447"><ele>45.2</ele><time>2022-06-12T08:52:54.000Z</time></trkpt><trkpt lon="5.889862" lat="51.021493"><ele>45.2</ele><time>2022-06-12T08:52:55.000Z</time></trkpt><trkpt lon="5.889775" lat="51.021536"><ele>45</ele><time>2022-06-12T08:52:56.000Z</time></trkpt><trkpt lon="5.889687" lat="51.021577"><ele>45</ele><time>2022-06-12T08:52:57.000Z</time></trkpt><trkpt lon="5.889596" lat="51.02162"><ele>45</ele><time>2022-06-12T08:52:58.000Z</time></trkpt><trkpt lon="5.889513" lat="51.021666"><ele>45</ele><time>2022-06-12T08:52:59.000Z</time></trkpt><trkpt lon="5.889428" lat="51.021708"><ele>44.8</ele><time>2022-06-12T08:53:00.000Z</time></trkpt><trkpt lon="5.889341" lat="51.021754"><ele>45</ele><time>2022-06-12T08:53:01.000Z</time></trkpt><trkpt lon="5.889258" lat="51.021799"><ele>44.8</ele><time>2022-06-12T08:53:02.000Z</time></trkpt><trkpt lon="5.889174" lat="51.021845"><ele>44.8</ele><time>2022-06-12T08:53:03.000Z</time></trkpt><trkpt lon="5.889092" lat="51.021893"><ele>44.8</ele><time>2022-06-12T08:53:04.000Z</time></trkpt><trkpt lon="5.889007" lat="51.021936"><ele>44.6</ele><time>2022-06-12T08:53:05.000Z</time></trkpt><trkpt lon="5.888923" lat="51.021986"><ele>44.8</ele><time>2022-06-12T08:53:06.000Z</time></trkpt><trkpt lon="5.888843" lat="51.022035"><ele>44.8</ele><time>2022-06-12T08:53:07.000Z</time></trkpt><trkpt lon="5.888756" lat="51.022086"><ele>44.8</ele><time>2022-06-12T08:53:08.000Z</time></trkpt><trkpt lon="5.888674" lat="51.022135"><ele>44.8</ele><time>2022-06-12T08:53:09.000Z</time></trkpt><trkpt lon="5.888594" lat="51.022184"><ele>44.6</ele><time>2022-06-12T08:53:10.000Z</time></trkpt><trkpt lon="5.888513" lat="51.022234"><ele>44.6</ele><time>2022-06-12T08:53:11.000Z</time></trkpt><trkpt lon="5.888434" lat="51.022283"><ele>44.6</ele><time>2022-06-12T08:53:12.000Z</time></trkpt><trkpt lon="5.888354" lat="51.022333"><ele>44.6</ele><time>2022-06-12T08:53:13.000Z</time></trkpt><trkpt lon="5.88828" lat="51.022385"><ele>44.4</ele><time>2022-06-12T08:53:14.000Z</time></trkpt><trkpt lon="5.8882" lat="51.022439"><ele>44.4</ele><time>2022-06-12T08:53:15.000Z</time></trkpt><trkpt lon="5.888122" lat="51.022488"><ele>44.4</ele><time>2022-06-12T08:53:16.000Z</time></trkpt><trkpt lon="5.888043" lat="51.022543"><ele>44.4</ele><time>2022-06-12T08:53:17.000Z</time></trkpt><trkpt lon="5.887964" lat="51.022597"><ele>44.4</ele><time>2022-06-12T08:53:18.000Z</time></trkpt><trkpt lon="5.887893" lat="51.022648"><ele>44.2</ele><time>2022-06-12T08:53:19.000Z</time></trkpt><trkpt lon="5.88782" lat="51.022698"><ele>44</ele><time>2022-06-12T08:53:20.000Z</time></trkpt><trkpt lon="5.887744" lat="51.022753"><ele>44</ele><time>2022-06-12T08:53:21.000Z</time></trkpt><trkpt lon="5.887673" lat="51.022806"><ele>44</ele><time>2022-06-12T08:53:22.000Z</time></trkpt><trkpt lon="5.887602" lat="51.022863"><ele>44</ele><time>2022-06-12T08:53:23.000Z</time></trkpt><trkpt lon="5.887531" lat="51.022917"><ele>43.8</ele><time>2022-06-12T08:53:24.000Z</time></trkpt><trkpt lon="5.88746" lat="51.02297"><ele>43.8</ele><time>2022-06-12T08:53:25.000Z</time></trkpt><trkpt lon="5.887395" lat="51.023023"><ele>43.8</ele><time>2022-06-12T08:53:26.000Z</time></trkpt><trkpt lon="5.887333" lat="51.023074"><ele>43.8</ele><time>2022-06-12T08:53:27.000Z</time></trkpt><trkpt lon="5.887266" lat="51.023129"><ele>43.8</ele><time>2022-06-12T08:53:28.000Z</time></trkpt><trkpt lon="5.887195" lat="51.023187"><ele>43.6</ele><time>2022-06-12T08:53:29.000Z</time></trkpt><trkpt lon="5.887122" lat="51.023241"><ele>43.6</ele><time>2022-06-12T08:53:30.000Z</time></trkpt><trkpt lon="5.887055" lat="51.023299"><ele>43.6</ele><time>2022-06-12T08:53:31.000Z</time></trkpt><trkpt lon="5.886991" lat="51.023352"><ele>43.4</ele><time>2022-06-12T08:53:32.000Z</time></trkpt><trkpt lon="5.886925" lat="51.023405"><ele>43.4</ele><time>2022-06-12T08:53:33.000Z</time></trkpt><trkpt lon="5.886858" lat="51.023462"><ele>43.4</ele><time>2022-06-12T08:53:34.000Z</time></trkpt><trkpt lon="5.886793" lat="51.023522"><ele>43.4</ele><time>2022-06-12T08:53:35.000Z</time></trkpt><trkpt lon="5.886732" lat="51.023574"><ele>43.4</ele><time>2022-06-12T08:53:36.000Z</time></trkpt><trkpt lon="5.886668" lat="51.023637"><ele>43.4</ele><time>2022-06-12T08:53:37.000Z</time></trkpt><trkpt lon="5.886605" lat="51.023695"><ele>43.2</ele><time>2022-06-12T08:53:38.000Z</time></trkpt><trkpt lon="5.886544" lat="51.023752"><ele>43.2</ele><time>2022-06-12T08:53:39.000Z</time></trkpt><trkpt lon="5.886486" lat="51.023811"><ele>43.2</ele><time>2022-06-12T08:53:40.000Z</time></trkpt><trkpt lon="5.886421" lat="51.023874"><ele>43.2</ele><time>2022-06-12T08:53:41.000Z</time></trkpt><trkpt lon="5.886361" lat="51.023931"><ele>43.2</ele><time>2022-06-12T08:53:42.000Z</time></trkpt><trkpt lon="5.886303" lat="51.023994"><ele>43</ele><time>2022-06-12T08:53:43.000Z</time></trkpt><trkpt lon="5.886243" lat="51.024056"><ele>43</ele><time>2022-06-12T08:53:44.000Z</time></trkpt><trkpt lon="5.886192" lat="51.024111"><ele>43</ele><time>2022-06-12T08:53:45.000Z</time></trkpt><trkpt lon="5.886128" lat="51.024182"><ele>43</ele><time>2022-06-12T08:53:46.000Z</time></trkpt><trkpt lon="5.886073" lat="51.024248"><ele>42.8</ele><time>2022-06-12T08:53:47.000Z</time></trkpt><trkpt lon="5.886015" lat="51.024315"><ele>42.8</ele><time>2022-06-12T08:53:48.000Z</time></trkpt><trkpt lon="5.885958" lat="51.024382"><ele>42.8</ele><time>2022-06-12T08:53:49.000Z</time></trkpt><trkpt lon="5.885904" lat="51.024445"><ele>42.6</ele><time>2022-06-12T08:53:50.000Z</time></trkpt><trkpt lon="5.885849" lat="51.024508"><ele>42.4</ele><time>2022-06-12T08:53:51.000Z</time></trkpt><trkpt lon="5.885795" lat="51.024577"><ele>42.4</ele><time>2022-06-12T08:53:52.000Z</time></trkpt><trkpt lon="5.885743" lat="51.024645"><ele>42.4</ele><time>2022-06-12T08:53:53.000Z</time></trkpt><trkpt lon="5.885691" lat="51.024714"><ele>42.4</ele><time>2022-06-12T08:53:54.000Z</time></trkpt><trkpt lon="5.885637" lat="51.024787"><ele>42.4</ele><time>2022-06-12T08:53:55.000Z</time></trkpt><trkpt lon="5.885583" lat="51.024858"><ele>42.4</ele><time>2022-06-12T08:53:56.000Z</time></trkpt><trkpt lon="5.885535" lat="51.024926"><ele>42.4</ele><time>2022-06-12T08:53:57.000Z</time></trkpt><trkpt lon="5.885491" lat="51.024994"><ele>42.4</ele><time>2022-06-12T08:53:58.000Z</time></trkpt><trkpt lon="5.885444" lat="51.025067"><ele>42.4</ele><time>2022-06-12T08:53:59.000Z</time></trkpt><trkpt lon="5.885395" lat="51.025134"><ele>42.2</ele><time>2022-06-12T08:54:00.000Z</time></trkpt><trkpt lon="5.885347" lat="51.025206"><ele>42.4</ele><time>2022-06-12T08:54:01.000Z</time></trkpt><trkpt lon="5.8853" lat="51.025281"><ele>42.4</ele><time>2022-06-12T08:54:02.000Z</time></trkpt><trkpt lon="5.885257" lat="51.025353"><ele>42.4</ele><time>2022-06-12T08:54:03.000Z</time></trkpt><trkpt lon="5.885215" lat="51.025423"><ele>42.4</ele><time>2022-06-12T08:54:04.000Z</time></trkpt><trkpt lon="5.885172" lat="51.025495"><ele>42.4</ele><time>2022-06-12T08:54:05.000Z</time></trkpt><trkpt lon="5.885132" lat="51.025562"><ele>42.4</ele><time>2022-06-12T08:54:06.000Z</time></trkpt><trkpt lon="5.885091" lat="51.025634"><ele>42.4</ele><time>2022-06-12T08:54:07.000Z</time></trkpt><trkpt lon="5.885049" lat="51.02571"><ele>42.2</ele><time>2022-06-12T08:54:08.000Z</time></trkpt><trkpt lon="5.885011" lat="51.025782"><ele>42</ele><time>2022-06-12T08:54:09.000Z</time></trkpt><trkpt lon="5.884972" lat="51.025857"><ele>41.8</ele><time>2022-06-12T08:54:10.000Z</time></trkpt><trkpt lon="5.884935" lat="51.025929"><ele>41.8</ele><time>2022-06-12T08:54:11.000Z</time></trkpt><trkpt lon="5.884898" lat="51.026006"><ele>41.8</ele><time>2022-06-12T08:54:12.000Z</time></trkpt><trkpt lon="5.884864" lat="51.026076"><ele>41.8</ele><time>2022-06-12T08:54:13.000Z</time></trkpt><trkpt lon="5.884829" lat="51.026149"><ele>41.6</ele><time>2022-06-12T08:54:14.000Z</time></trkpt><trkpt lon="5.884795" lat="51.026226"><ele>41.6</ele><time>2022-06-12T08:54:15.000Z</time></trkpt><trkpt lon="5.884764" lat="51.026297"><ele>41.6</ele><time>2022-06-12T08:54:16.000Z</time></trkpt><trkpt lon="5.884734" lat="51.02637"><ele>41.6</ele><time>2022-06-12T08:54:17.000Z</time></trkpt><trkpt lon="5.884704" lat="51.026441"><ele>41.8</ele><time>2022-06-12T08:54:18.000Z</time></trkpt><trkpt lon="5.884676" lat="51.026518"><ele>41.8</ele><time>2022-06-12T08:54:19.000Z</time></trkpt><trkpt lon="5.88465" lat="51.026588"><ele>41.8</ele><time>2022-06-12T08:54:20.000Z</time></trkpt><trkpt lon="5.884624" lat="51.026663"><ele>41.6</ele><time>2022-06-12T08:54:21.000Z</time></trkpt><trkpt lon="5.884596" lat="51.026741"><ele>41.4</ele><time>2022-06-12T08:54:22.000Z</time></trkpt><trkpt lon="5.884571" lat="51.026813"><ele>41.4</ele><time>2022-06-12T08:54:23.000Z</time></trkpt><trkpt lon="5.884549" lat="51.026883"><ele>41.4</ele><time>2022-06-12T08:54:24.000Z</time></trkpt><trkpt lon="5.884525" lat="51.026958"><ele>41.4</ele><time>2022-06-12T08:54:25.000Z</time></trkpt><trkpt lon="5.884501" lat="51.027032"><ele>41.4</ele><time>2022-06-12T08:54:26.000Z</time></trkpt><trkpt lon="5.884479" lat="51.027104"><ele>41.4</ele><time>2022-06-12T08:54:27.000Z</time></trkpt><trkpt lon="5.884457" lat="51.027181"><ele>41.4</ele><time>2022-06-12T08:54:28.000Z</time></trkpt><trkpt lon="5.884436" lat="51.027253"><ele>41.4</ele><time>2022-06-12T08:54:29.000Z</time></trkpt><trkpt lon="5.884416" lat="51.027324"><ele>41.4</ele><time>2022-06-12T08:54:30.000Z</time></trkpt><trkpt lon="5.884401" lat="51.027397"><ele>41.2</ele><time>2022-06-12T08:54:31.000Z</time></trkpt><trkpt lon="5.884386" lat="51.027469"><ele>41.2</ele><time>2022-06-12T08:54:32.000Z</time></trkpt><trkpt lon="5.884372" lat="51.027547"><ele>41.2</ele><time>2022-06-12T08:54:33.000Z</time></trkpt><trkpt lon="5.884359" lat="51.027618"><ele>41.2</ele><time>2022-06-12T08:54:34.000Z</time></trkpt><trkpt lon="5.884347" lat="51.027689"><ele>41</ele><time>2022-06-12T08:54:35.000Z</time></trkpt><trkpt lon="5.884333" lat="51.027765"><ele>41</ele><time>2022-06-12T08:54:36.000Z</time></trkpt><trkpt lon="5.884322" lat="51.027841"><ele>40.8</ele><time>2022-06-12T08:54:37.000Z</time></trkpt><trkpt lon="5.884312" lat="51.027916"><ele>40.8</ele><time>2022-06-12T08:54:38.000Z</time></trkpt><trkpt lon="5.884304" lat="51.027985"><ele>40.8</ele><time>2022-06-12T08:54:39.000Z</time></trkpt><trkpt lon="5.884296" lat="51.028063"><ele>40.8</ele><time>2022-06-12T08:54:40.000Z</time></trkpt><trkpt lon="5.884287" lat="51.028142"><ele>40.8</ele><time>2022-06-12T08:54:41.000Z</time></trkpt><trkpt lon="5.884279" lat="51.028218"><ele>40.8</ele><time>2022-06-12T08:54:42.000Z</time></trkpt><trkpt lon="5.884274" lat="51.028295"><ele>40.8</ele><time>2022-06-12T08:54:43.000Z</time></trkpt><trkpt lon="5.88427" lat="51.028374"><ele>40.8</ele><time>2022-06-12T08:54:44.000Z</time></trkpt><trkpt lon="5.884265" lat="51.028452"><ele>40.8</ele><time>2022-06-12T08:54:45.000Z</time></trkpt><trkpt lon="5.884262" lat="51.028525"><ele>40.8</ele><time>2022-06-12T08:54:46.000Z</time></trkpt><trkpt lon="5.884259" lat="51.028603"><ele>40.8</ele><time>2022-06-12T08:54:47.000Z</time></trkpt><trkpt lon="5.884258" lat="51.028681"><ele>40.6</ele><time>2022-06-12T08:54:48.000Z</time></trkpt><trkpt lon="5.884258" lat="51.028753"><ele>40.6</ele><time>2022-06-12T08:54:49.000Z</time></trkpt><trkpt lon="5.884261" lat="51.028831"><ele>40.6</ele><time>2022-06-12T08:54:50.000Z</time></trkpt><trkpt lon="5.884265" lat="51.028907"><ele>40.6</ele><time>2022-06-12T08:54:51.000Z</time></trkpt><trkpt lon="5.884268" lat="51.028985"><ele>40.8</ele><time>2022-06-12T08:54:52.000Z</time></trkpt><trkpt lon="5.884275" lat="51.029061"><ele>40.6</ele><time>2022-06-12T08:54:53.000Z</time></trkpt><trkpt lon="5.88428" lat="51.029139"><ele>40.6</ele><time>2022-06-12T08:54:54.000Z</time></trkpt><trkpt lon="5.884283" lat="51.029215"><ele>40.6</ele><time>2022-06-12T08:54:55.000Z</time></trkpt><trkpt lon="5.884291" lat="51.029296"><ele>40.6</ele><time>2022-06-12T08:54:56.000Z</time></trkpt><trkpt lon="5.884301" lat="51.029373"><ele>40.6</ele><time>2022-06-12T08:54:57.000Z</time></trkpt><trkpt lon="5.884311" lat="51.029449"><ele>40.4</ele><time>2022-06-12T08:54:58.000Z</time></trkpt><trkpt lon="5.884321" lat="51.029526"><ele>40.6</ele><time>2022-06-12T08:54:59.000Z</time></trkpt><trkpt lon="5.884335" lat="51.029603"><ele>40.6</ele><time>2022-06-12T08:55:00.000Z</time></trkpt><trkpt lon="5.884348" lat="51.029683"><ele>40.4</ele><time>2022-06-12T08:55:01.000Z</time></trkpt><trkpt lon="5.884361" lat="51.029757"><ele>40.2</ele><time>2022-06-12T08:55:02.000Z</time></trkpt><trkpt lon="5.884376" lat="51.029837"><ele>40.2</ele><time>2022-06-12T08:55:03.000Z</time></trkpt><trkpt lon="5.884391" lat="51.029913"><ele>40.2</ele><time>2022-06-12T08:55:04.000Z</time></trkpt><trkpt lon="5.884407" lat="51.029988"><ele>40</ele><time>2022-06-12T08:55:05.000Z</time></trkpt><trkpt lon="5.884424" lat="51.030068"><ele>40</ele><time>2022-06-12T08:55:06.000Z</time></trkpt><trkpt lon="5.884438" lat="51.030141"><ele>40.2</ele><time>2022-06-12T08:55:07.000Z</time></trkpt><trkpt lon="5.884451" lat="51.030216"><ele>40.2</ele><time>2022-06-12T08:55:08.000Z</time></trkpt><trkpt lon="5.884463" lat="51.03029"><ele>40</ele><time>2022-06-12T08:55:09.000Z</time></trkpt><trkpt lon="5.884473" lat="51.03036"><ele>40</ele><time>2022-06-12T08:55:10.000Z</time></trkpt><trkpt lon="5.884484" lat="51.030438"><ele>40</ele><time>2022-06-12T08:55:11.000Z</time></trkpt><trkpt lon="5.884499" lat="51.03051"><ele>40.2</ele><time>2022-06-12T08:55:12.000Z</time></trkpt><trkpt lon="5.884514" lat="51.030578"><ele>40.4</ele><time>2022-06-12T08:55:13.000Z</time></trkpt><trkpt lon="5.884527" lat="51.03065"><ele>40.6</ele><time>2022-06-12T08:55:14.000Z</time></trkpt><trkpt lon="5.88454" lat="51.030721"><ele>40.8</ele><time>2022-06-12T08:55:15.000Z</time></trkpt><trkpt lon="5.884553" lat="51.030796"><ele>41</ele><time>2022-06-12T08:55:16.000Z</time></trkpt><trkpt lon="5.884566" lat="51.030868"><ele>41.2</ele><time>2022-06-12T08:55:17.000Z</time></trkpt><trkpt lon="5.884579" lat="51.03094"><ele>41.4</ele><time>2022-06-12T08:55:18.000Z</time></trkpt><trkpt lon="5.884592" lat="51.031012"><ele>41.6</ele><time>2022-06-12T08:55:19.000Z</time></trkpt><trkpt lon="5.884604" lat="51.031084"><ele>41.8</ele><time>2022-06-12T08:55:20.000Z</time></trkpt><trkpt lon="5.884617" lat="51.03116"><ele>42</ele><time>2022-06-12T08:55:21.000Z</time></trkpt><trkpt lon="5.884631" lat="51.031235"><ele>42.2</ele><time>2022-06-12T08:55:22.000Z</time></trkpt><trkpt lon="5.884644" lat="51.031308"><ele>42.4</ele><time>2022-06-12T08:55:23.000Z</time></trkpt><trkpt lon="5.884655" lat="51.031376"><ele>42.6</ele><time>2022-06-12T08:55:24.000Z</time></trkpt><trkpt lon="5.884668" lat="51.031449"><ele>42.8</ele><time>2022-06-12T08:55:25.000Z</time></trkpt><trkpt lon="5.884678" lat="51.031521"><ele>42.8</ele><time>2022-06-12T08:55:26.000Z</time></trkpt><trkpt lon="5.884688" lat="51.031588"><ele>43.2</ele><time>2022-06-12T08:55:27.000Z</time></trkpt><trkpt lon="5.884696" lat="51.031662"><ele>43.4</ele><time>2022-06-12T08:55:28.000Z</time></trkpt><trkpt lon="5.884705" lat="51.031731"><ele>43.8</ele><time>2022-06-12T08:55:29.000Z</time></trkpt><trkpt lon="5.884711" lat="51.031796"><ele>44</ele><time>2022-06-12T08:55:30.000Z</time></trkpt><trkpt lon="5.884716" lat="51.031861"><ele>44.2</ele><time>2022-06-12T08:55:31.000Z</time></trkpt><trkpt lon="5.884721" lat="51.031925"><ele>44.4</ele><time>2022-06-12T08:55:32.000Z</time></trkpt><trkpt lon="5.884726" lat="51.031989"><ele>44.6</ele><time>2022-06-12T08:55:33.000Z</time></trkpt><trkpt lon="5.884733" lat="51.03205"><ele>44.8</ele><time>2022-06-12T08:55:34.000Z</time></trkpt><trkpt lon="5.884742" lat="51.032115"><ele>44.8</ele><time>2022-06-12T08:55:35.000Z</time></trkpt><trkpt lon="5.884751" lat="51.032179"><ele>45</ele><time>2022-06-12T08:55:36.000Z</time></trkpt><trkpt lon="5.884758" lat="51.032241"><ele>45.2</ele><time>2022-06-12T08:55:37.000Z</time></trkpt><trkpt lon="5.884763" lat="51.032307"><ele>45.2</ele><time>2022-06-12T08:55:38.000Z</time></trkpt><trkpt lon="5.884768" lat="51.032376"><ele>45.2</ele><time>2022-06-12T08:55:39.000Z</time></trkpt><trkpt lon="5.884775" lat="51.032443"><ele>45</ele><time>2022-06-12T08:55:40.000Z</time></trkpt><trkpt lon="5.88478" lat="51.032511"><ele>44.8</ele><time>2022-06-12T08:55:41.000Z</time></trkpt><trkpt lon="5.884783" lat="51.032588"><ele>44.6</ele><time>2022-06-12T08:55:42.000Z</time></trkpt><trkpt lon="5.884782" lat="51.032658"><ele>44.2</ele><time>2022-06-12T08:55:43.000Z</time></trkpt><trkpt lon="5.884779" lat="51.032735"><ele>43.8</ele><time>2022-06-12T08:55:44.000Z</time></trkpt><trkpt lon="5.884777" lat="51.032816"><ele>43.6</ele><time>2022-06-12T08:55:45.000Z</time></trkpt><trkpt lon="5.884772" lat="51.032894"><ele>43.4</ele><time>2022-06-12T08:55:46.000Z</time></trkpt><trkpt lon="5.884767" lat="51.032975"><ele>43.2</ele><time>2022-06-12T08:55:47.000Z</time></trkpt><trkpt lon="5.88476" lat="51.033052"><ele>42.8</ele><time>2022-06-12T08:55:48.000Z</time></trkpt><trkpt lon="5.88475" lat="51.033134"><ele>42.2</ele><time>2022-06-12T08:55:49.000Z</time></trkpt><trkpt lon="5.884738" lat="51.033217"><ele>41.8</ele><time>2022-06-12T08:55:50.000Z</time></trkpt><trkpt lon="5.884723" lat="51.033303"><ele>41.4</ele><time>2022-06-12T08:55:51.000Z</time></trkpt><trkpt lon="5.884706" lat="51.033396"><ele>41.2</ele><time>2022-06-12T08:55:52.000Z</time></trkpt><trkpt lon="5.884687" lat="51.033485"><ele>40.6</ele><time>2022-06-12T08:55:53.000Z</time></trkpt><trkpt lon="5.884667" lat="51.033572"><ele>40.2</ele><time>2022-06-12T08:55:54.000Z</time></trkpt><trkpt lon="5.88465" lat="51.033668"><ele>39.8</ele><time>2022-06-12T08:55:55.000Z</time></trkpt><trkpt lon="5.884621" lat="51.03376"><ele>39.2</ele><time>2022-06-12T08:55:56.000Z</time></trkpt><trkpt lon="5.884591" lat="51.033855"><ele>39</ele><time>2022-06-12T08:55:57.000Z</time></trkpt><trkpt lon="5.884563" lat="51.033943"><ele>38.6</ele><time>2022-06-12T08:55:58.000Z</time></trkpt><trkpt lon="5.884533" lat="51.034031"><ele>38.6</ele><time>2022-06-12T08:55:59.000Z</time></trkpt><trkpt lon="5.884491" lat="51.034122"><ele>38.2</ele><time>2022-06-12T08:56:00.000Z</time></trkpt><trkpt lon="5.884455" lat="51.034217"><ele>38</ele><time>2022-06-12T08:56:01.000Z</time></trkpt><trkpt lon="5.884414" lat="51.034305"><ele>37.8</ele><time>2022-06-12T08:56:02.000Z</time></trkpt><trkpt lon="5.884369" lat="51.034406"><ele>37.2</ele><time>2022-06-12T08:56:03.000Z</time></trkpt><trkpt lon="5.884327" lat="51.034496"><ele>36.8</ele><time>2022-06-12T08:56:04.000Z</time></trkpt><trkpt lon="5.884281" lat="51.034588"><ele>36.6</ele><time>2022-06-12T08:56:05.000Z</time></trkpt><trkpt lon="5.884232" lat="51.034683"><ele>36.2</ele><time>2022-06-12T08:56:06.000Z</time></trkpt><trkpt lon="5.884178" lat="51.034773"><ele>36</ele><time>2022-06-12T08:56:07.000Z</time></trkpt><trkpt lon="5.884125" lat="51.034856"><ele>36</ele><time>2022-06-12T08:56:08.000Z</time></trkpt><trkpt lon="5.884071" lat="51.034939"><ele>35.6</ele><time>2022-06-12T08:56:09.000Z</time></trkpt><trkpt lon="5.884022" lat="51.035025"><ele>35.4</ele><time>2022-06-12T08:56:10.000Z</time></trkpt><trkpt lon="5.883972" lat="51.035105"><ele>35</ele><time>2022-06-12T08:56:11.000Z</time></trkpt><trkpt lon="5.883924" lat="51.03518"><ele>35</ele><time>2022-06-12T08:56:12.000Z</time></trkpt><trkpt lon="5.883874" lat="51.035257"><ele>35</ele><time>2022-06-12T08:56:13.000Z</time></trkpt><trkpt lon="5.883825" lat="51.03533"><ele>35</ele><time>2022-06-12T08:56:14.000Z</time></trkpt><trkpt lon="5.883775" lat="51.0354"><ele>35</ele><time>2022-06-12T08:56:15.000Z</time></trkpt><trkpt lon="5.883724" lat="51.035466"><ele>35</ele><time>2022-06-12T08:56:16.000Z</time></trkpt><trkpt lon="5.88367" lat="51.035537"><ele>35.2</ele><time>2022-06-12T08:56:17.000Z</time></trkpt><trkpt lon="5.883616" lat="51.035607"><ele>35.2</ele><time>2022-06-12T08:56:18.000Z</time></trkpt><trkpt lon="5.883565" lat="51.035668"><ele>35.2</ele><time>2022-06-12T08:56:19.000Z</time></trkpt><trkpt lon="5.883511" lat="51.035727"><ele>35.2</ele><time>2022-06-12T08:56:20.000Z</time></trkpt><trkpt lon="5.883458" lat="51.035792"><ele>35</ele><time>2022-06-12T08:56:21.000Z</time></trkpt><trkpt lon="5.8834" lat="51.035858"><ele>34.8</ele><time>2022-06-12T08:56:22.000Z</time></trkpt><trkpt lon="5.88334" lat="51.035923"><ele>34.6</ele><time>2022-06-12T08:56:23.000Z</time></trkpt><trkpt lon="5.883277" lat="51.035986"><ele>34.8</ele><time>2022-06-12T08:56:24.000Z</time></trkpt><trkpt lon="5.883209" lat="51.036054"><ele>34.8</ele><time>2022-06-12T08:56:25.000Z</time></trkpt><trkpt lon="5.883141" lat="51.036121"><ele>34.6</ele><time>2022-06-12T08:56:26.000Z</time></trkpt><trkpt lon="5.883073" lat="51.036182"><ele>34.6</ele><time>2022-06-12T08:56:27.000Z</time></trkpt><trkpt lon="5.883011" lat="51.036237"><ele>34.6</ele><time>2022-06-12T08:56:28.000Z</time></trkpt><trkpt lon="5.882948" lat="51.036295"><ele>34.6</ele><time>2022-06-12T08:56:29.000Z</time></trkpt><trkpt lon="5.882886" lat="51.036349"><ele>34.6</ele><time>2022-06-12T08:56:30.000Z</time></trkpt><trkpt lon="5.882824" lat="51.036406"><ele>34.6</ele><time>2022-06-12T08:56:31.000Z</time></trkpt><trkpt lon="5.882753" lat="51.036467"><ele>34.6</ele><time>2022-06-12T08:56:32.000Z</time></trkpt><trkpt lon="5.882689" lat="51.036519"><ele>34.6</ele><time>2022-06-12T08:56:33.000Z</time></trkpt><trkpt lon="5.882623" lat="51.03657"><ele>34.6</ele><time>2022-06-12T08:56:34.000Z</time></trkpt><trkpt lon="5.882556" lat="51.036624"><ele>34.4</ele><time>2022-06-12T08:56:35.000Z</time></trkpt><trkpt lon="5.882486" lat="51.036677"><ele>34.6</ele><time>2022-06-12T08:56:36.000Z</time></trkpt><trkpt lon="5.882411" lat="51.036733"><ele>34.6</ele><time>2022-06-12T08:56:37.000Z</time></trkpt><trkpt lon="5.882338" lat="51.036787"><ele>34.6</ele><time>2022-06-12T08:56:38.000Z</time></trkpt><trkpt lon="5.882259" lat="51.036844"><ele>34.6</ele><time>2022-06-12T08:56:39.000Z</time></trkpt><trkpt lon="5.882183" lat="51.036898"><ele>34.6</ele><time>2022-06-12T08:56:40.000Z</time></trkpt><trkpt lon="5.88211" lat="51.036948"><ele>34.6</ele><time>2022-06-12T08:56:41.000Z</time></trkpt><trkpt lon="5.882043" lat="51.036998"><ele>34.4</ele><time>2022-06-12T08:56:42.000Z</time></trkpt><trkpt lon="5.881974" lat="51.037047"><ele>34.4</ele><time>2022-06-12T08:56:43.000Z</time></trkpt><trkpt lon="5.881896" lat="51.037096"><ele>34.4</ele><time>2022-06-12T08:56:44.000Z</time></trkpt><trkpt lon="5.881817" lat="51.037142"><ele>34.4</ele><time>2022-06-12T08:56:45.000Z</time></trkpt><trkpt lon="5.881741" lat="51.037184"><ele>34.4</ele><time>2022-06-12T08:56:46.000Z</time></trkpt><trkpt lon="5.881664" lat="51.037229"><ele>34.4</ele><time>2022-06-12T08:56:47.000Z</time></trkpt><trkpt lon="5.881589" lat="51.037283"><ele>34.4</ele><time>2022-06-12T08:56:48.000Z</time></trkpt><trkpt lon="5.881524" lat="51.037337"><ele>34.4</ele><time>2022-06-12T08:56:49.000Z</time></trkpt><trkpt lon="5.881469" lat="51.037394"><ele>34.4</ele><time>2022-06-12T08:56:50.000Z</time></trkpt><trkpt lon="5.881421" lat="51.037451"><ele>34.4</ele><time>2022-06-12T08:56:51.000Z</time></trkpt><trkpt lon="5.881378" lat="51.037504"><ele>34.6</ele><time>2022-06-12T08:56:52.000Z</time></trkpt><trkpt lon="5.88134" lat="51.037553"><ele>34.6</ele><time>2022-06-12T08:56:53.000Z</time></trkpt><trkpt lon="5.881303" lat="51.037593"><ele>34.6</ele><time>2022-06-12T08:56:54.000Z</time></trkpt><trkpt lon="5.881255" lat="51.037627"><ele>34.6</ele><time>2022-06-12T08:56:55.000Z</time></trkpt><trkpt lon="5.881204" lat="51.037661"><ele>34.8</ele><time>2022-06-12T08:56:56.000Z</time></trkpt><trkpt lon="5.881147" lat="51.037692"><ele>34.8</ele><time>2022-06-12T08:56:57.000Z</time></trkpt><trkpt lon="5.881096" lat="51.037722"><ele>34.8</ele><time>2022-06-12T08:56:58.000Z</time></trkpt><trkpt lon="5.881046" lat="51.037749"><ele>34.8</ele><time>2022-06-12T08:56:59.000Z</time></trkpt><trkpt lon="5.880989" lat="51.03778"><ele>34.8</ele><time>2022-06-12T08:57:00.000Z</time></trkpt><trkpt lon="5.880914" lat="51.037803"><ele>34.6</ele><time>2022-06-12T08:57:01.000Z</time></trkpt><trkpt lon="5.880823" lat="51.037818"><ele>34.6</ele><time>2022-06-12T08:57:02.000Z</time></trkpt><trkpt lon="5.880723" lat="51.037834"><ele>34.6</ele><time>2022-06-12T08:57:03.000Z</time></trkpt><trkpt lon="5.880628" lat="51.037853"><ele>34.6</ele><time>2022-06-12T08:57:04.000Z</time></trkpt><trkpt lon="5.880541" lat="51.037875"><ele>34.6</ele><time>2022-06-12T08:57:05.000Z</time></trkpt><trkpt lon="5.880459" lat="51.037909"><ele>34.6</ele><time>2022-06-12T08:57:06.000Z</time></trkpt><trkpt lon="5.880383" lat="51.037951"><ele>34.6</ele><time>2022-06-12T08:57:07.000Z</time></trkpt><trkpt lon="5.880309" lat="51.03799"><ele>34.6</ele><time>2022-06-12T08:57:08.000Z</time></trkpt><trkpt lon="5.880234" lat="51.038031"><ele>34.4</ele><time>2022-06-12T08:57:09.000Z</time></trkpt><trkpt lon="5.880167" lat="51.038064"><ele>34.4</ele><time>2022-06-12T08:57:10.000Z</time></trkpt><trkpt lon="5.880078" lat="51.038107"><ele>34.2</ele><time>2022-06-12T08:57:11.000Z</time></trkpt><trkpt lon="5.880001" lat="51.038142"><ele>34.2</ele><time>2022-06-12T08:57:12.000Z</time></trkpt><trkpt lon="5.879922" lat="51.038184"><ele>34.2</ele><time>2022-06-12T08:57:13.000Z</time></trkpt><trkpt lon="5.879836" lat="51.038222"><ele>34.2</ele><time>2022-06-12T08:57:14.000Z</time></trkpt><trkpt lon="5.879754" lat="51.038264"><ele>34.2</ele><time>2022-06-12T08:57:15.000Z</time></trkpt><trkpt lon="5.879673" lat="51.038309"><ele>34.2</ele><time>2022-06-12T08:57:16.000Z</time></trkpt><trkpt lon="5.879595" lat="51.038351"><ele>34.2</ele><time>2022-06-12T08:57:17.000Z</time></trkpt><trkpt lon="5.879512" lat="51.038393"><ele>34.2</ele><time>2022-06-12T08:57:18.000Z</time></trkpt><trkpt lon="5.879423" lat="51.038435"><ele>34.2</ele><time>2022-06-12T08:57:19.000Z</time></trkpt><trkpt lon="5.879337" lat="51.038473"><ele>34.2</ele><time>2022-06-12T08:57:20.000Z</time></trkpt><trkpt lon="5.879251" lat="51.038516"><ele>34.2</ele><time>2022-06-12T08:57:21.000Z</time></trkpt><trkpt lon="5.879166" lat="51.038554"><ele>34.2</ele><time>2022-06-12T08:57:22.000Z</time></trkpt><trkpt lon="5.87908" lat="51.038595"><ele>34.2</ele><time>2022-06-12T08:57:23.000Z</time></trkpt><trkpt lon="5.878985" lat="51.038645"><ele>34.2</ele><time>2022-06-12T08:57:24.000Z</time></trkpt><trkpt lon="5.878893" lat="51.038687"><ele>34.2</ele><time>2022-06-12T08:57:25.000Z</time></trkpt><trkpt lon="5.878802" lat="51.038736"><ele>34</ele><time>2022-06-12T08:57:26.000Z</time></trkpt><trkpt lon="5.878711" lat="51.038779"><ele>34</ele><time>2022-06-12T08:57:27.000Z</time></trkpt><trkpt lon="5.878617" lat="51.038824"><ele>34</ele><time>2022-06-12T08:57:28.000Z</time></trkpt><trkpt lon="5.878525" lat="51.03887"><ele>34</ele><time>2022-06-12T08:57:29.000Z</time></trkpt><trkpt lon="5.87843" lat="51.038912"><ele>34</ele><time>2022-06-12T08:57:30.000Z</time></trkpt><trkpt lon="5.878338" lat="51.038954"><ele>34</ele><time>2022-06-12T08:57:31.000Z</time></trkpt><trkpt lon="5.878248" lat="51.038996"><ele>34</ele><time>2022-06-12T08:57:32.000Z</time></trkpt><trkpt lon="5.878161" lat="51.039038"><ele>34</ele><time>2022-06-12T08:57:33.000Z</time></trkpt><trkpt lon="5.878075" lat="51.03908"><ele>34</ele><time>2022-06-12T08:57:34.000Z</time></trkpt><trkpt lon="5.877985" lat="51.039122"><ele>34</ele><time>2022-06-12T08:57:35.000Z</time></trkpt><trkpt lon="5.8779" lat="51.039159"><ele>34</ele><time>2022-06-12T08:57:36.000Z</time></trkpt><trkpt lon="5.877807" lat="51.039205"><ele>34</ele><time>2022-06-12T08:57:37.000Z</time></trkpt><trkpt lon="5.877718" lat="51.039248"><ele>34</ele><time>2022-06-12T08:57:38.000Z</time></trkpt><trkpt lon="5.87763" lat="51.03929"><ele>34</ele><time>2022-06-12T08:57:39.000Z</time></trkpt><trkpt lon="5.87755" lat="51.039326"><ele>33.8</ele><time>2022-06-12T08:57:40.000Z</time></trkpt><trkpt lon="5.877445" lat="51.039374"><ele>33.8</ele><time>2022-06-12T08:57:41.000Z</time></trkpt><trkpt lon="5.877351" lat="51.039419"><ele>33.8</ele><time>2022-06-12T08:57:42.000Z</time></trkpt><trkpt lon="5.877256" lat="51.039466"><ele>33.6</ele><time>2022-06-12T08:57:43.000Z</time></trkpt><trkpt lon="5.877165" lat="51.039507"><ele>33.6</ele><time>2022-06-12T08:57:44.000Z</time></trkpt><trkpt lon="5.877073" lat="51.039553"><ele>33.6</ele><time>2022-06-12T08:57:45.000Z</time></trkpt><trkpt lon="5.876983" lat="51.039595"><ele>33.6</ele><time>2022-06-12T08:57:46.000Z</time></trkpt><trkpt lon="5.876899" lat="51.039637"><ele>33.4</ele><time>2022-06-12T08:57:47.000Z</time></trkpt><trkpt lon="5.876811" lat="51.039679"><ele>33.4</ele><time>2022-06-12T08:57:48.000Z</time></trkpt><trkpt lon="5.876727" lat="51.03972"><ele>33.4</ele><time>2022-06-12T08:57:49.000Z</time></trkpt><trkpt lon="5.876633" lat="51.039763"><ele>33.2</ele><time>2022-06-12T08:57:50.000Z</time></trkpt><trkpt lon="5.876537" lat="51.039809"><ele>33.2</ele><time>2022-06-12T08:57:51.000Z</time></trkpt><trkpt lon="5.87644" lat="51.039847"><ele>33.2</ele><time>2022-06-12T08:57:52.000Z</time></trkpt><trkpt lon="5.876343" lat="51.039896"><ele>33.2</ele><time>2022-06-12T08:57:53.000Z</time></trkpt><trkpt lon="5.876248" lat="51.039943"><ele>33.2</ele><time>2022-06-12T08:57:54.000Z</time></trkpt><trkpt lon="5.876154" lat="51.039991"><ele>33.2</ele><time>2022-06-12T08:57:55.000Z</time></trkpt><trkpt lon="5.876058" lat="51.040037"><ele>33.2</ele><time>2022-06-12T08:57:56.000Z</time></trkpt><trkpt lon="5.875965" lat="51.040087"><ele>33.2</ele><time>2022-06-12T08:57:57.000Z</time></trkpt><trkpt lon="5.875872" lat="51.040133"><ele>33.2</ele><time>2022-06-12T08:57:58.000Z</time></trkpt><trkpt lon="5.87578" lat="51.040182"><ele>33.2</ele><time>2022-06-12T08:57:59.000Z</time></trkpt><trkpt lon="5.875688" lat="51.040228"><ele>33.2</ele><time>2022-06-12T08:58:00.000Z</time></trkpt><trkpt lon="5.875595" lat="51.040278"><ele>33</ele><time>2022-06-12T08:58:01.000Z</time></trkpt><trkpt lon="5.875504" lat="51.040324"><ele>33</ele><time>2022-06-12T08:58:02.000Z</time></trkpt><trkpt lon="5.875415" lat="51.040373"><ele>33</ele><time>2022-06-12T08:58:03.000Z</time></trkpt><trkpt lon="5.875327" lat="51.040422"><ele>33</ele><time>2022-06-12T08:58:04.000Z</time></trkpt><trkpt lon="5.87524" lat="51.040468"><ele>33.2</ele><time>2022-06-12T08:58:05.000Z</time></trkpt><trkpt lon="5.875162" lat="51.04051"><ele>33.2</ele><time>2022-06-12T08:58:06.000Z</time></trkpt><trkpt lon="5.875082" lat="51.040552"><ele>33</ele><time>2022-06-12T08:58:07.000Z</time></trkpt><trkpt lon="5.875001" lat="51.040595"><ele>33</ele><time>2022-06-12T08:58:08.000Z</time></trkpt><trkpt lon="5.874922" lat="51.040633"><ele>33</ele><time>2022-06-12T08:58:09.000Z</time></trkpt><trkpt lon="5.874846" lat="51.040671"><ele>33</ele><time>2022-06-12T08:58:10.000Z</time></trkpt><trkpt lon="5.874767" lat="51.040717"><ele>33</ele><time>2022-06-12T08:58:11.000Z</time></trkpt><trkpt lon="5.874687" lat="51.040763"><ele>33</ele><time>2022-06-12T08:58:12.000Z</time></trkpt><trkpt lon="5.874609" lat="51.040804"><ele>32.8</ele><time>2022-06-12T08:58:13.000Z</time></trkpt><trkpt lon="5.87453" lat="51.040849"><ele>32.8</ele><time>2022-06-12T08:58:14.000Z</time></trkpt><trkpt lon="5.874447" lat="51.040896"><ele>32.8</ele><time>2022-06-12T08:58:15.000Z</time></trkpt><trkpt lon="5.874366" lat="51.040942"><ele>32.8</ele><time>2022-06-12T08:58:16.000Z</time></trkpt><trkpt lon="5.874282" lat="51.040992"><ele>33</ele><time>2022-06-12T08:58:17.000Z</time></trkpt><trkpt lon="5.874198" lat="51.041037"><ele>33</ele><time>2022-06-12T08:58:18.000Z</time></trkpt><trkpt lon="5.874115" lat="51.041086"><ele>33</ele><time>2022-06-12T08:58:19.000Z</time></trkpt><trkpt lon="5.87403" lat="51.041136"><ele>33</ele><time>2022-06-12T08:58:20.000Z</time></trkpt><trkpt lon="5.873946" lat="51.041186"><ele>33</ele><time>2022-06-12T08:58:21.000Z</time></trkpt><trkpt lon="5.873865" lat="51.041234"><ele>33</ele><time>2022-06-12T08:58:22.000Z</time></trkpt><trkpt lon="5.873781" lat="51.041285"><ele>33</ele><time>2022-06-12T08:58:23.000Z</time></trkpt><trkpt lon="5.873699" lat="51.041338"><ele>32.8</ele><time>2022-06-12T08:58:24.000Z</time></trkpt><trkpt lon="5.873616" lat="51.041391"><ele>32.6</ele><time>2022-06-12T08:58:25.000Z</time></trkpt><trkpt lon="5.873531" lat="51.041445"><ele>32.4</ele><time>2022-06-12T08:58:26.000Z</time></trkpt><trkpt lon="5.873446" lat="51.041502"><ele>32.4</ele><time>2022-06-12T08:58:27.000Z</time></trkpt><trkpt lon="5.87336" lat="51.041559"><ele>32.4</ele><time>2022-06-12T08:58:28.000Z</time></trkpt><trkpt lon="5.873273" lat="51.041617"><ele>32.4</ele><time>2022-06-12T08:58:29.000Z</time></trkpt><trkpt lon="5.873191" lat="51.041674"><ele>32.4</ele><time>2022-06-12T08:58:30.000Z</time></trkpt><trkpt lon="5.873111" lat="51.041727"><ele>32.4</ele><time>2022-06-12T08:58:31.000Z</time></trkpt><trkpt lon="5.873035" lat="51.04178"><ele>32.4</ele><time>2022-06-12T08:58:32.000Z</time></trkpt><trkpt lon="5.872957" lat="51.041834"><ele>32.6</ele><time>2022-06-12T08:58:33.000Z</time></trkpt><trkpt lon="5.872881" lat="51.041887"><ele>32.6</ele><time>2022-06-12T08:58:34.000Z</time></trkpt><trkpt lon="5.872809" lat="51.041941"><ele>32.8</ele><time>2022-06-12T08:58:35.000Z</time></trkpt><trkpt lon="5.87274" lat="51.041989"><ele>32.8</ele><time>2022-06-12T08:58:36.000Z</time></trkpt><trkpt lon="5.872666" lat="51.04204"><ele>32.8</ele><time>2022-06-12T08:58:37.000Z</time></trkpt><trkpt lon="5.872593" lat="51.042093"><ele>32.8</ele><time>2022-06-12T08:58:38.000Z</time></trkpt><trkpt lon="5.872519" lat="51.042143"><ele>32.6</ele><time>2022-06-12T08:58:39.000Z</time></trkpt><trkpt lon="5.872449" lat="51.042194"><ele>32.6</ele><time>2022-06-12T08:58:40.000Z</time></trkpt><trkpt lon="5.872375" lat="51.04225"><ele>32.6</ele><time>2022-06-12T08:58:41.000Z</time></trkpt><trkpt lon="5.872306" lat="51.042303"><ele>32.6</ele><time>2022-06-12T08:58:42.000Z</time></trkpt><trkpt lon="5.872233" lat="51.04236"><ele>32.6</ele><time>2022-06-12T08:58:43.000Z</time></trkpt><trkpt lon="5.87216" lat="51.042413"><ele>32.6</ele><time>2022-06-12T08:58:44.000Z</time></trkpt><trkpt lon="5.872087" lat="51.04247"><ele>32.4</ele><time>2022-06-12T08:58:45.000Z</time></trkpt><trkpt lon="5.872014" lat="51.042524"><ele>32.4</ele><time>2022-06-12T08:58:46.000Z</time></trkpt><trkpt lon="5.871942" lat="51.042582"><ele>32.4</ele><time>2022-06-12T08:58:47.000Z</time></trkpt><trkpt lon="5.871872" lat="51.042635"><ele>32.4</ele><time>2022-06-12T08:58:48.000Z</time></trkpt><trkpt lon="5.871803" lat="51.042692"><ele>32.4</ele><time>2022-06-12T08:58:49.000Z</time></trkpt><trkpt lon="5.871731" lat="51.042753"><ele>32.2</ele><time>2022-06-12T08:58:50.000Z</time></trkpt><trkpt lon="5.871663" lat="51.04281"><ele>32.2</ele><time>2022-06-12T08:58:51.000Z</time></trkpt><trkpt lon="5.871596" lat="51.042871"><ele>32.2</ele><time>2022-06-12T08:58:52.000Z</time></trkpt><trkpt lon="5.871527" lat="51.042928"><ele>32</ele><time>2022-06-12T08:58:53.000Z</time></trkpt><trkpt lon="5.871457" lat="51.042985"><ele>32</ele><time>2022-06-12T08:58:54.000Z</time></trkpt><trkpt lon="5.871387" lat="51.043047"><ele>32</ele><time>2022-06-12T08:58:55.000Z</time></trkpt><trkpt lon="5.871321" lat="51.043107"><ele>32</ele><time>2022-06-12T08:58:56.000Z</time></trkpt><trkpt lon="5.871257" lat="51.043161"><ele>32</ele><time>2022-06-12T08:58:57.000Z</time></trkpt><trkpt lon="5.871194" lat="51.043222"><ele>31.8</ele><time>2022-06-12T08:58:58.000Z</time></trkpt><trkpt lon="5.871128" lat="51.043283"><ele>31.8</ele><time>2022-06-12T08:58:59.000Z</time></trkpt><trkpt lon="5.871064" lat="51.043344"><ele>31.8</ele><time>2022-06-12T08:59:00.000Z</time></trkpt><trkpt lon="5.871002" lat="51.043402"><ele>31.8</ele><time>2022-06-12T08:59:01.000Z</time></trkpt><trkpt lon="5.870942" lat="51.043462"><ele>31.6</ele><time>2022-06-12T08:59:02.000Z</time></trkpt><trkpt lon="5.870882" lat="51.043524"><ele>31.6</ele><time>2022-06-12T08:59:03.000Z</time></trkpt><trkpt lon="5.870823" lat="51.043584"><ele>31.6</ele><time>2022-06-12T08:59:04.000Z</time></trkpt><trkpt lon="5.870764" lat="51.043642"><ele>31.6</ele><time>2022-06-12T08:59:05.000Z</time></trkpt><trkpt lon="5.870705" lat="51.043703"><ele>31.4</ele><time>2022-06-12T08:59:06.000Z</time></trkpt><trkpt lon="5.870648" lat="51.04376"><ele>31.4</ele><time>2022-06-12T08:59:07.000Z</time></trkpt><trkpt lon="5.870587" lat="51.043821"><ele>31.4</ele><time>2022-06-12T08:59:08.000Z</time></trkpt><trkpt lon="5.870525" lat="51.043882"><ele>31.4</ele><time>2022-06-12T08:59:09.000Z</time></trkpt><trkpt lon="5.870467" lat="51.043943"><ele>31.4</ele><time>2022-06-12T08:59:10.000Z</time></trkpt><trkpt lon="5.870408" lat="51.044008"><ele>31.4</ele><time>2022-06-12T08:59:11.000Z</time></trkpt><trkpt lon="5.87035" lat="51.044073"><ele>31.4</ele><time>2022-06-12T08:59:12.000Z</time></trkpt><trkpt lon="5.870293" lat="51.044138"><ele>31.4</ele><time>2022-06-12T08:59:13.000Z</time></trkpt><trkpt lon="5.870236" lat="51.044202"><ele>31.4</ele><time>2022-06-12T08:59:14.000Z</time></trkpt><trkpt lon="5.870179" lat="51.044268"><ele>31.4</ele><time>2022-06-12T08:59:15.000Z</time></trkpt><trkpt lon="5.870122" lat="51.044332"><ele>31.2</ele><time>2022-06-12T08:59:16.000Z</time></trkpt><trkpt lon="5.870067" lat="51.044397"><ele>31.2</ele><time>2022-06-12T08:59:17.000Z</time></trkpt><trkpt lon="5.870011" lat="51.044462"><ele>31.2</ele><time>2022-06-12T08:59:18.000Z</time></trkpt><trkpt lon="5.869957" lat="51.044527"><ele>31.2</ele><time>2022-06-12T08:59:19.000Z</time></trkpt><trkpt lon="5.869902" lat="51.044588"><ele>31.2</ele><time>2022-06-12T08:59:20.000Z</time></trkpt><trkpt lon="5.869847" lat="51.044653"><ele>31.2</ele><time>2022-06-12T08:59:21.000Z</time></trkpt><trkpt lon="5.869795" lat="51.044718"><ele>31.2</ele><time>2022-06-12T08:59:22.000Z</time></trkpt><trkpt lon="5.869743" lat="51.044782"><ele>31.2</ele><time>2022-06-12T08:59:23.000Z</time></trkpt><trkpt lon="5.869694" lat="51.044847"><ele>31.2</ele><time>2022-06-12T08:59:24.000Z</time></trkpt><trkpt lon="5.869644" lat="51.044912"><ele>31.2</ele><time>2022-06-12T08:59:25.000Z</time></trkpt><trkpt lon="5.869592" lat="51.044977"><ele>31.2</ele><time>2022-06-12T08:59:26.000Z</time></trkpt><trkpt lon="5.869542" lat="51.045042"><ele>31.2</ele><time>2022-06-12T08:59:27.000Z</time></trkpt><trkpt lon="5.869493" lat="51.04511"><ele>31.2</ele><time>2022-06-12T08:59:28.000Z</time></trkpt><trkpt lon="5.869445" lat="51.045179"><ele>31.2</ele><time>2022-06-12T08:59:29.000Z</time></trkpt><trkpt lon="5.869397" lat="51.045246"><ele>31</ele><time>2022-06-12T08:59:30.000Z</time></trkpt><trkpt lon="5.869348" lat="51.045316"><ele>31</ele><time>2022-06-12T08:59:31.000Z</time></trkpt><trkpt lon="5.8693" lat="51.045381"><ele>31</ele><time>2022-06-12T08:59:32.000Z</time></trkpt><trkpt lon="5.869255" lat="51.045446"><ele>31.2</ele><time>2022-06-12T08:59:33.000Z</time></trkpt><trkpt lon="5.86921" lat="51.045515"><ele>31</ele><time>2022-06-12T08:59:34.000Z</time></trkpt><trkpt lon="5.869167" lat="51.045583"><ele>31</ele><time>2022-06-12T08:59:35.000Z</time></trkpt><trkpt lon="5.869122" lat="51.045651"><ele>31</ele><time>2022-06-12T08:59:36.000Z</time></trkpt><trkpt lon="5.869076" lat="51.04572"><ele>31</ele><time>2022-06-12T08:59:37.000Z</time></trkpt><trkpt lon="5.869035" lat="51.045785"><ele>31</ele><time>2022-06-12T08:59:38.000Z</time></trkpt><trkpt lon="5.868991" lat="51.045854"><ele>31</ele><time>2022-06-12T08:59:39.000Z</time></trkpt><trkpt lon="5.868951" lat="51.045919"><ele>31</ele><time>2022-06-12T08:59:40.000Z</time></trkpt><trkpt lon="5.868913" lat="51.045984"><ele>31</ele><time>2022-06-12T08:59:41.000Z</time></trkpt><trkpt lon="5.868874" lat="51.046045"><ele>31</ele><time>2022-06-12T08:59:42.000Z</time></trkpt><trkpt lon="5.868835" lat="51.04611"><ele>31.2</ele><time>2022-06-12T08:59:43.000Z</time></trkpt><trkpt lon="5.868795" lat="51.046174"><ele>31.2</ele><time>2022-06-12T08:59:44.000Z</time></trkpt><trkpt lon="5.868756" lat="51.04624"><ele>31.2</ele><time>2022-06-12T08:59:45.000Z</time></trkpt><trkpt lon="5.868719" lat="51.046301"><ele>31</ele><time>2022-06-12T08:59:46.000Z</time></trkpt><trkpt lon="5.868686" lat="51.046362"><ele>31</ele><time>2022-06-12T08:59:47.000Z</time></trkpt><trkpt lon="5.868655" lat="51.046422"><ele>31</ele><time>2022-06-12T08:59:48.000Z</time></trkpt><trkpt lon="5.868623" lat="51.046484"><ele>31.2</ele><time>2022-06-12T08:59:49.000Z</time></trkpt><trkpt lon="5.868588" lat="51.046552"><ele>31.2</ele><time>2022-06-12T08:59:50.000Z</time></trkpt><trkpt lon="5.868551" lat="51.046617"><ele>31.4</ele><time>2022-06-12T08:59:51.000Z</time></trkpt><trkpt lon="5.868516" lat="51.046686"><ele>31.4</ele><time>2022-06-12T08:59:52.000Z</time></trkpt><trkpt lon="5.868485" lat="51.046754"><ele>31.4</ele><time>2022-06-12T08:59:53.000Z</time></trkpt><trkpt lon="5.868449" lat="51.046826"><ele>31.2</ele><time>2022-06-12T08:59:54.000Z</time></trkpt><trkpt lon="5.868411" lat="51.046896"><ele>31.2</ele><time>2022-06-12T08:59:55.000Z</time></trkpt><trkpt lon="5.868376" lat="51.046964"><ele>31.2</ele><time>2022-06-12T08:59:56.000Z</time></trkpt><trkpt lon="5.868343" lat="51.047032"><ele>31.2</ele><time>2022-06-12T08:59:57.000Z</time></trkpt><trkpt lon="5.868313" lat="51.047101"><ele>31.2</ele><time>2022-06-12T08:59:58.000Z</time></trkpt><trkpt lon="5.86828" lat="51.04717"><ele>31.2</ele><time>2022-06-12T08:59:59.000Z</time></trkpt><trkpt lon="5.86825" lat="51.047239"><ele>31.2</ele><time>2022-06-12T09:00:00.000Z</time></trkpt><trkpt lon="5.868218" lat="51.04731"><ele>31.2</ele><time>2022-06-12T09:00:01.000Z</time></trkpt><trkpt lon="5.868187" lat="51.04738"><ele>31.4</ele><time>2022-06-12T09:00:02.000Z</time></trkpt><trkpt lon="5.868156" lat="51.047449"><ele>31.4</ele><time>2022-06-12T09:00:03.000Z</time></trkpt><trkpt lon="5.868129" lat="51.047514"><ele>31.4</ele><time>2022-06-12T09:00:04.000Z</time></trkpt><trkpt lon="5.868103" lat="51.047577"><ele>31.4</ele><time>2022-06-12T09:00:05.000Z</time></trkpt><trkpt lon="5.868074" lat="51.047647"><ele>31.4</ele><time>2022-06-12T09:00:06.000Z</time></trkpt><trkpt lon="5.868049" lat="51.04771"><ele>31.6</ele><time>2022-06-12T09:00:07.000Z</time></trkpt><trkpt lon="5.868022" lat="51.047781"><ele>31.4</ele><time>2022-06-12T09:00:08.000Z</time></trkpt><trkpt lon="5.868001" lat="51.047846"><ele>31.4</ele><time>2022-06-12T09:00:09.000Z</time></trkpt><trkpt lon="5.867977" lat="51.047909"><ele>31.2</ele><time>2022-06-12T09:00:10.000Z</time></trkpt><trkpt lon="5.867951" lat="51.047967"><ele>31.2</ele><time>2022-06-12T09:00:11.000Z</time></trkpt><trkpt lon="5.867926" lat="51.048037"><ele>31.4</ele><time>2022-06-12T09:00:12.000Z</time></trkpt><trkpt lon="5.867904" lat="51.048102"><ele>31.4</ele><time>2022-06-12T09:00:13.000Z</time></trkpt><trkpt lon="5.867884" lat="51.048173"><ele>31.4</ele><time>2022-06-12T09:00:14.000Z</time></trkpt><trkpt lon="5.867864" lat="51.048239"><ele>31.4</ele><time>2022-06-12T09:00:15.000Z</time></trkpt><trkpt lon="5.867846" lat="51.048307"><ele>31.2</ele><time>2022-06-12T09:00:16.000Z</time></trkpt><trkpt lon="5.86783" lat="51.048376"><ele>31.2</ele><time>2022-06-12T09:00:17.000Z</time></trkpt><trkpt lon="5.867812" lat="51.048444"><ele>31.4</ele><time>2022-06-12T09:00:18.000Z</time></trkpt><trkpt lon="5.867796" lat="51.048513"><ele>31.4</ele><time>2022-06-12T09:00:19.000Z</time></trkpt><trkpt lon="5.867776" lat="51.048581"><ele>31.4</ele><time>2022-06-12T09:00:20.000Z</time></trkpt><trkpt lon="5.867756" lat="51.048654"><ele>31.4</ele><time>2022-06-12T09:00:21.000Z</time></trkpt><trkpt lon="5.867739" lat="51.048718"><ele>31.4</ele><time>2022-06-12T09:00:22.000Z</time></trkpt><trkpt lon="5.867721" lat="51.048787"><ele>31.6</ele><time>2022-06-12T09:00:23.000Z</time></trkpt><trkpt lon="5.867704" lat="51.04886"><ele>31.6</ele><time>2022-06-12T09:00:24.000Z</time></trkpt><trkpt lon="5.867689" lat="51.048928"><ele>31.6</ele><time>2022-06-12T09:00:25.000Z</time></trkpt><trkpt lon="5.867674" lat="51.048997"><ele>31.6</ele><time>2022-06-12T09:00:26.000Z</time></trkpt><trkpt lon="5.86766" lat="51.049066"><ele>31.6</ele><time>2022-06-12T09:00:27.000Z</time></trkpt><trkpt lon="5.867645" lat="51.049139"><ele>31.6</ele><time>2022-06-12T09:00:28.000Z</time></trkpt><trkpt lon="5.867627" lat="51.049211"><ele>31.6</ele><time>2022-06-12T09:00:29.000Z</time></trkpt><trkpt lon="5.867613" lat="51.049283"><ele>31.6</ele><time>2022-06-12T09:00:30.000Z</time></trkpt><trkpt lon="5.867596" lat="51.049356"><ele>31.6</ele><time>2022-06-12T09:00:31.000Z</time></trkpt><trkpt lon="5.867577" lat="51.049432"><ele>31.6</ele><time>2022-06-12T09:00:32.000Z</time></trkpt><trkpt lon="5.867561" lat="51.049506"><ele>31.4</ele><time>2022-06-12T09:00:33.000Z</time></trkpt><trkpt lon="5.867544" lat="51.04958"><ele>31.4</ele><time>2022-06-12T09:00:34.000Z</time></trkpt><trkpt lon="5.867529" lat="51.049658"><ele>31.4</ele><time>2022-06-12T09:00:35.000Z</time></trkpt><trkpt lon="5.867512" lat="51.04973"><ele>31.6</ele><time>2022-06-12T09:00:36.000Z</time></trkpt><trkpt lon="5.867496" lat="51.049802"><ele>31.4</ele><time>2022-06-12T09:00:37.000Z</time></trkpt><trkpt lon="5.86748" lat="51.049871"><ele>31.4</ele><time>2022-06-12T09:00:38.000Z</time></trkpt><trkpt lon="5.867464" lat="51.04994"><ele>31.4</ele><time>2022-06-12T09:00:39.000Z</time></trkpt><trkpt lon="5.867449" lat="51.050005"><ele>31.4</ele><time>2022-06-12T09:00:40.000Z</time></trkpt><trkpt lon="5.867436" lat="51.050075"><ele>31.4</ele><time>2022-06-12T09:00:41.000Z</time></trkpt><trkpt lon="5.867419" lat="51.050146"><ele>31.2</ele><time>2022-06-12T09:00:42.000Z</time></trkpt><trkpt lon="5.867402" lat="51.050211"><ele>31.2</ele><time>2022-06-12T09:00:43.000Z</time></trkpt><trkpt lon="5.867389" lat="51.050274"><ele>31</ele><time>2022-06-12T09:00:44.000Z</time></trkpt><trkpt lon="5.867375" lat="51.05034"><ele>31</ele><time>2022-06-12T09:00:45.000Z</time></trkpt><trkpt lon="5.867361" lat="51.050409"><ele>31.2</ele><time>2022-06-12T09:00:46.000Z</time></trkpt><trkpt lon="5.867349" lat="51.050474"><ele>31.2</ele><time>2022-06-12T09:00:47.000Z</time></trkpt><trkpt lon="5.867331" lat="51.050545"><ele>31.2</ele><time>2022-06-12T09:00:48.000Z</time></trkpt><trkpt lon="5.867314" lat="51.050614"><ele>31</ele><time>2022-06-12T09:00:49.000Z</time></trkpt><trkpt lon="5.867292" lat="51.050691"><ele>31</ele><time>2022-06-12T09:00:50.000Z</time></trkpt><trkpt lon="5.867263" lat="51.050764"><ele>30.8</ele><time>2022-06-12T09:00:51.000Z</time></trkpt><trkpt lon="5.867227" lat="51.050836"><ele>30.6</ele><time>2022-06-12T09:00:52.000Z</time></trkpt><trkpt lon="5.867188" lat="51.050905"><ele>30.4</ele><time>2022-06-12T09:00:53.000Z</time></trkpt><trkpt lon="5.86715" lat="51.050974"><ele>30.4</ele><time>2022-06-12T09:00:54.000Z</time></trkpt><trkpt lon="5.867113" lat="51.051042"><ele>30.4</ele><time>2022-06-12T09:00:55.000Z</time></trkpt><trkpt lon="5.867078" lat="51.051111"><ele>30.6</ele><time>2022-06-12T09:00:56.000Z</time></trkpt><trkpt lon="5.867041" lat="51.05118"><ele>30.6</ele><time>2022-06-12T09:00:57.000Z</time></trkpt><trkpt lon="5.867005" lat="51.051247"><ele>30.6</ele><time>2022-06-12T09:00:58.000Z</time></trkpt><trkpt lon="5.866971" lat="51.051308"><ele>30.4</ele><time>2022-06-12T09:00:59.000Z</time></trkpt><trkpt lon="5.86693" lat="51.051385"><ele>30.4</ele><time>2022-06-12T09:01:00.000Z</time></trkpt><trkpt lon="5.866888" lat="51.051454"><ele>30.2</ele><time>2022-06-12T09:01:01.000Z</time></trkpt><trkpt lon="5.866845" lat="51.051523"><ele>30.2</ele><time>2022-06-12T09:01:02.000Z</time></trkpt><trkpt lon="5.866795" lat="51.051588"><ele>30.2</ele><time>2022-06-12T09:01:03.000Z</time></trkpt><trkpt lon="5.866745" lat="51.051653"><ele>30.4</ele><time>2022-06-12T09:01:04.000Z</time></trkpt><trkpt lon="5.866694" lat="51.051713"><ele>30.4</ele><time>2022-06-12T09:01:05.000Z</time></trkpt><trkpt lon="5.866642" lat="51.051775"><ele>30.4</ele><time>2022-06-12T09:01:06.000Z</time></trkpt><trkpt lon="5.866592" lat="51.051832"><ele>30.2</ele><time>2022-06-12T09:01:07.000Z</time></trkpt><trkpt lon="5.866548" lat="51.051893"><ele>30.2</ele><time>2022-06-12T09:01:08.000Z</time></trkpt><trkpt lon="5.866508" lat="51.051958"><ele>30</ele><time>2022-06-12T09:01:09.000Z</time></trkpt><trkpt lon="5.86647" lat="51.052026"><ele>30.2</ele><time>2022-06-12T09:01:10.000Z</time></trkpt><trkpt lon="5.866432" lat="51.05209"><ele>30.4</ele><time>2022-06-12T09:01:11.000Z</time></trkpt><trkpt lon="5.866393" lat="51.052157"><ele>30.4</ele><time>2022-06-12T09:01:12.000Z</time></trkpt><trkpt lon="5.866353" lat="51.052221"><ele>30.4</ele><time>2022-06-12T09:01:13.000Z</time></trkpt><trkpt lon="5.86631" lat="51.05229"><ele>30.4</ele><time>2022-06-12T09:01:14.000Z</time></trkpt><trkpt lon="5.866263" lat="51.052355"><ele>30.6</ele><time>2022-06-12T09:01:15.000Z</time></trkpt><trkpt lon="5.866215" lat="51.052419"><ele>30.6</ele><time>2022-06-12T09:01:16.000Z</time></trkpt><trkpt lon="5.86617" lat="51.052481"><ele>30.4</ele><time>2022-06-12T09:01:17.000Z</time></trkpt><trkpt lon="5.866123" lat="51.05254"><ele>30.6</ele><time>2022-06-12T09:01:18.000Z</time></trkpt><trkpt lon="5.866073" lat="51.052603"><ele>30.4</ele><time>2022-06-12T09:01:19.000Z</time></trkpt><trkpt lon="5.866027" lat="51.052663"><ele>30.6</ele><time>2022-06-12T09:01:20.000Z</time></trkpt><trkpt lon="5.865977" lat="51.052724"><ele>30.6</ele><time>2022-06-12T09:01:21.000Z</time></trkpt><trkpt lon="5.865927" lat="51.052789"><ele>30.6</ele><time>2022-06-12T09:01:22.000Z</time></trkpt><trkpt lon="5.865878" lat="51.052851"><ele>30.6</ele><time>2022-06-12T09:01:23.000Z</time></trkpt><trkpt lon="5.865833" lat="51.052915"><ele>30.6</ele><time>2022-06-12T09:01:24.000Z</time></trkpt><trkpt lon="5.865787" lat="51.05298"><ele>30.6</ele><time>2022-06-12T09:01:25.000Z</time></trkpt><trkpt lon="5.865736" lat="51.053048"><ele>30.6</ele><time>2022-06-12T09:01:26.000Z</time></trkpt><trkpt lon="5.865684" lat="51.053117"><ele>30.6</ele><time>2022-06-12T09:01:27.000Z</time></trkpt><trkpt lon="5.86563" lat="51.053185"><ele>30.6</ele><time>2022-06-12T09:01:28.000Z</time></trkpt><trkpt lon="5.865574" lat="51.053251"><ele>30.6</ele><time>2022-06-12T09:01:29.000Z</time></trkpt><trkpt lon="5.865523" lat="51.053319"><ele>30.6</ele><time>2022-06-12T09:01:30.000Z</time></trkpt><trkpt lon="5.865481" lat="51.053385"><ele>30.6</ele><time>2022-06-12T09:01:31.000Z</time></trkpt><trkpt lon="5.865454" lat="51.053457"><ele>30.6</ele><time>2022-06-12T09:01:32.000Z</time></trkpt><trkpt lon="5.865442" lat="51.053529"><ele>30.4</ele><time>2022-06-12T09:01:33.000Z</time></trkpt><trkpt lon="5.865437" lat="51.053609"><ele>30.4</ele><time>2022-06-12T09:01:34.000Z</time></trkpt><trkpt lon="5.865429" lat="51.053685"><ele>30.2</ele><time>2022-06-12T09:01:35.000Z</time></trkpt><trkpt lon="5.865414" lat="51.053762"><ele>30.4</ele><time>2022-06-12T09:01:36.000Z</time></trkpt><trkpt lon="5.86538" lat="51.053831"><ele>30.2</ele><time>2022-06-12T09:01:37.000Z</time></trkpt><trkpt lon="5.865329" lat="51.053899"><ele>30.4</ele><time>2022-06-12T09:01:38.000Z</time></trkpt><trkpt lon="5.865264" lat="51.053957"><ele>30.2</ele><time>2022-06-12T09:01:39.000Z</time></trkpt><trkpt lon="5.865193" lat="51.054014"><ele>30.2</ele><time>2022-06-12T09:01:40.000Z</time></trkpt><trkpt lon="5.865115" lat="51.054067"><ele>30.4</ele><time>2022-06-12T09:01:41.000Z</time></trkpt><trkpt lon="5.865032" lat="51.054117"><ele>30.4</ele><time>2022-06-12T09:01:42.000Z</time></trkpt><trkpt lon="5.86495" lat="51.054167"><ele>30.4</ele><time>2022-06-12T09:01:43.000Z</time></trkpt><trkpt lon="5.864869" lat="51.054216"><ele>30.4</ele><time>2022-06-12T09:01:44.000Z</time></trkpt><trkpt lon="5.86479" lat="51.054269"><ele>30.4</ele><time>2022-06-12T09:01:45.000Z</time></trkpt><trkpt lon="5.864712" lat="51.054319"><ele>30.6</ele><time>2022-06-12T09:01:46.000Z</time></trkpt><trkpt lon="5.864646" lat="51.054366"><ele>30.6</ele><time>2022-06-12T09:01:47.000Z</time></trkpt><trkpt lon="5.864575" lat="51.054419"><ele>30.4</ele><time>2022-06-12T09:01:48.000Z</time></trkpt><trkpt lon="5.864514" lat="51.054475"><ele>30.2</ele><time>2022-06-12T09:01:49.000Z</time></trkpt><trkpt lon="5.86446" lat="51.054532"><ele>30.2</ele><time>2022-06-12T09:01:50.000Z</time></trkpt><trkpt lon="5.864402" lat="51.054586"><ele>30.4</ele><time>2022-06-12T09:01:51.000Z</time></trkpt><trkpt lon="5.864345" lat="51.05464"><ele>30.4</ele><time>2022-06-12T09:01:52.000Z</time></trkpt><trkpt lon="5.86429" lat="51.054694"><ele>30.4</ele><time>2022-06-12T09:01:53.000Z</time></trkpt><trkpt lon="5.864238" lat="51.054746"><ele>30.4</ele><time>2022-06-12T09:01:54.000Z</time></trkpt><trkpt lon="5.864187" lat="51.054807"><ele>30.4</ele><time>2022-06-12T09:01:55.000Z</time></trkpt><trkpt lon="5.864135" lat="51.054864"><ele>30.2</ele><time>2022-06-12T09:01:56.000Z</time></trkpt><trkpt lon="5.864087" lat="51.054922"><ele>30.2</ele><time>2022-06-12T09:01:57.000Z</time></trkpt><trkpt lon="5.864041" lat="51.054975"><ele>30</ele><time>2022-06-12T09:01:58.000Z</time></trkpt><trkpt lon="5.863993" lat="51.055033"><ele>30.2</ele><time>2022-06-12T09:01:59.000Z</time></trkpt><trkpt lon="5.863939" lat="51.055093"><ele>30.4</ele><time>2022-06-12T09:02:00.000Z</time></trkpt><trkpt lon="5.863887" lat="51.055162"><ele>30.2</ele><time>2022-06-12T09:02:01.000Z</time></trkpt><trkpt lon="5.863833" lat="51.05523"><ele>30.4</ele><time>2022-06-12T09:02:02.000Z</time></trkpt><trkpt lon="5.863776" lat="51.055292"><ele>30.4</ele><time>2022-06-12T09:02:03.000Z</time></trkpt><trkpt lon="5.863724" lat="51.05536"><ele>30.4</ele><time>2022-06-12T09:02:04.000Z</time></trkpt><trkpt lon="5.863672" lat="51.055422"><ele>30.2</ele><time>2022-06-12T09:02:05.000Z</time></trkpt><trkpt lon="5.86362" lat="51.055483"><ele>30.2</ele><time>2022-06-12T09:02:06.000Z</time></trkpt><trkpt lon="5.863569" lat="51.055544"><ele>30.4</ele><time>2022-06-12T09:02:07.000Z</time></trkpt><trkpt lon="5.863519" lat="51.055601"><ele>30.4</ele><time>2022-06-12T09:02:08.000Z</time></trkpt><trkpt lon="5.863473" lat="51.055655"><ele>30.4</ele><time>2022-06-12T09:02:09.000Z</time></trkpt><trkpt lon="5.863433" lat="51.055708"><ele>30.4</ele><time>2022-06-12T09:02:10.000Z</time></trkpt><trkpt lon="5.863393" lat="51.055754"><ele>30.6</ele><time>2022-06-12T09:02:11.000Z</time></trkpt><trkpt lon="5.863358" lat="51.055796"><ele>30.6</ele><time>2022-06-12T09:02:12.000Z</time></trkpt><trkpt lon="5.863328" lat="51.055831"><ele>30.8</ele><time>2022-06-12T09:02:13.000Z</time></trkpt><trkpt lon="5.863296" lat="51.055858"><ele>30.8</ele><time>2022-06-12T09:02:14.000Z</time></trkpt><trkpt lon="5.863263" lat="51.055877"><ele>31</ele><time>2022-06-12T09:02:15.000Z</time></trkpt><trkpt lon="5.863226" lat="51.055885"><ele>31</ele><time>2022-06-12T09:02:16.000Z</time></trkpt><trkpt lon="5.86319" lat="51.055889"><ele>31</ele><time>2022-06-12T09:02:17.000Z</time></trkpt><trkpt lon="5.863149" lat="51.055893"><ele>31.2</ele><time>2022-06-12T09:02:18.000Z</time></trkpt><trkpt lon="5.863102" lat="51.055893"><ele>31.2</ele><time>2022-06-12T09:02:19.000Z</time></trkpt><trkpt lon="5.863052" lat="51.0559"><ele>31.2</ele><time>2022-06-12T09:02:20.000Z</time></trkpt><trkpt lon="5.863011" lat="51.055919"><ele>31</ele><time>2022-06-12T09:02:21.000Z</time></trkpt><trkpt lon="5.862994" lat="51.055953"><ele>31</ele><time>2022-06-12T09:02:22.000Z</time></trkpt><trkpt lon="5.862996" lat="51.056002"><ele>31</ele><time>2022-06-12T09:02:23.000Z</time></trkpt><trkpt lon="5.863013" lat="51.056062"><ele>31</ele><time>2022-06-12T09:02:24.000Z</time></trkpt><trkpt lon="5.863023" lat="51.056123"><ele>30.8</ele><time>2022-06-12T09:02:25.000Z</time></trkpt><trkpt lon="5.863033" lat="51.056187"><ele>30.8</ele><time>2022-06-12T09:02:26.000Z</time></trkpt><trkpt lon="5.863035" lat="51.056251"><ele>30.8</ele><time>2022-06-12T09:02:27.000Z</time></trkpt><trkpt lon="5.863037" lat="51.056318"><ele>30.8</ele><time>2022-06-12T09:02:28.000Z</time></trkpt><trkpt lon="5.863033" lat="51.056379"><ele>30.8</ele><time>2022-06-12T09:02:29.000Z</time></trkpt><trkpt lon="5.86303" lat="51.056441"><ele>30.8</ele><time>2022-06-12T09:02:30.000Z</time></trkpt><trkpt lon="5.863029" lat="51.056513"><ele>30.6</ele><time>2022-06-12T09:02:31.000Z</time></trkpt><trkpt lon="5.863029" lat="51.056577"><ele>30.6</ele><time>2022-06-12T09:02:32.000Z</time></trkpt><trkpt lon="5.863024" lat="51.056646"><ele>30.6</ele><time>2022-06-12T09:02:33.000Z</time></trkpt><trkpt lon="5.863015" lat="51.056711"><ele>30.6</ele><time>2022-06-12T09:02:34.000Z</time></trkpt><trkpt lon="5.863005" lat="51.05678"><ele>30.6</ele><time>2022-06-12T09:02:35.000Z</time></trkpt><trkpt lon="5.862999" lat="51.056848"><ele>30.6</ele><time>2022-06-12T09:02:36.000Z</time></trkpt><trkpt lon="5.862993" lat="51.056919"><ele>30.8</ele><time>2022-06-12T09:02:37.000Z</time></trkpt><trkpt lon="5.862987" lat="51.056988"><ele>30.8</ele><time>2022-06-12T09:02:38.000Z</time></trkpt><trkpt lon="5.86298" lat="51.057061"><ele>30.8</ele><time>2022-06-12T09:02:39.000Z</time></trkpt><trkpt lon="5.862972" lat="51.057134"><ele>30.8</ele><time>2022-06-12T09:02:40.000Z</time></trkpt><trkpt lon="5.862965" lat="51.057206"><ele>30.8</ele><time>2022-06-12T09:02:41.000Z</time></trkpt><trkpt lon="5.862957" lat="51.05728"><ele>30.8</ele><time>2022-06-12T09:02:42.000Z</time></trkpt><trkpt lon="5.86295" lat="51.057348"><ele>30.8</ele><time>2022-06-12T09:02:43.000Z</time></trkpt><trkpt lon="5.862942" lat="51.057416"><ele>31</ele><time>2022-06-12T09:02:44.000Z</time></trkpt><trkpt lon="5.862935" lat="51.057485"><ele>30.8</ele><time>2022-06-12T09:02:45.000Z</time></trkpt><trkpt lon="5.862929" lat="51.057554"><ele>30.8</ele><time>2022-06-12T09:02:46.000Z</time></trkpt><trkpt lon="5.862922" lat="51.057622"><ele>30.8</ele><time>2022-06-12T09:02:47.000Z</time></trkpt><trkpt lon="5.862913" lat="51.057691"><ele>30.8</ele><time>2022-06-12T09:02:48.000Z</time></trkpt><trkpt lon="5.862907" lat="51.057763"><ele>30.8</ele><time>2022-06-12T09:02:49.000Z</time></trkpt><trkpt lon="5.8629" lat="51.057836"><ele>30.6</ele><time>2022-06-12T09:02:50.000Z</time></trkpt><trkpt lon="5.862893" lat="51.057905"><ele>30.6</ele><time>2022-06-12T09:02:51.000Z</time></trkpt><trkpt lon="5.862887" lat="51.05797"><ele>30.4</ele><time>2022-06-12T09:02:52.000Z</time></trkpt><trkpt lon="5.86288" lat="51.058035"><ele>30.4</ele><time>2022-06-12T09:02:53.000Z</time></trkpt><trkpt lon="5.862872" lat="51.058099"><ele>30.4</ele><time>2022-06-12T09:02:54.000Z</time></trkpt><trkpt lon="5.862865" lat="51.058164"><ele>30.4</ele><time>2022-06-12T09:02:55.000Z</time></trkpt><trkpt lon="5.862862" lat="51.058225"><ele>30.4</ele><time>2022-06-12T09:02:56.000Z</time></trkpt><trkpt lon="5.862857" lat="51.05829"><ele>30.4</ele><time>2022-06-12T09:02:57.000Z</time></trkpt><trkpt lon="5.862847" lat="51.058351"><ele>30.6</ele><time>2022-06-12T09:02:58.000Z</time></trkpt><trkpt lon="5.862839" lat="51.058402"><ele>30.6</ele><time>2022-06-12T09:02:59.000Z</time></trkpt><trkpt lon="5.862829" lat="51.058451"><ele>30.6</ele><time>2022-06-12T09:03:00.000Z</time></trkpt><trkpt lon="5.862817" lat="51.05849"><ele>30.6</ele><time>2022-06-12T09:03:01.000Z</time></trkpt><trkpt lon="5.862804" lat="51.058524"><ele>30.6</ele><time>2022-06-12T09:03:02.000Z</time></trkpt><trkpt lon="5.862794" lat="51.058551"><ele>30.6</ele><time>2022-06-12T09:03:03.000Z</time></trkpt><trkpt lon="5.862787" lat="51.058574"><ele>30.8</ele><time>2022-06-12T09:03:04.000Z</time></trkpt><trkpt lon="5.86279" lat="51.058593"><ele>30.8</ele><time>2022-06-12T09:03:05.000Z</time></trkpt><trkpt lon="5.862806" lat="51.058608"><ele>30.8</ele><time>2022-06-12T09:03:06.000Z</time></trkpt><trkpt lon="5.862837" lat="51.05862"><ele>30.8</ele><time>2022-06-12T09:03:07.000Z</time></trkpt><trkpt lon="5.862879" lat="51.058631"><ele>30.8</ele><time>2022-06-12T09:03:08.000Z</time></trkpt><trkpt lon="5.86292" lat="51.058643"><ele>30.8</ele><time>2022-06-12T09:03:09.000Z</time></trkpt><trkpt lon="5.862946" lat="51.058673"><ele>30.8</ele><time>2022-06-12T09:03:10.000Z</time></trkpt><trkpt lon="5.862942" lat="51.058714"><ele>30.8</ele><time>2022-06-12T09:03:11.000Z</time></trkpt><trkpt lon="5.862917" lat="51.05876"><ele>30.8</ele><time>2022-06-12T09:03:12.000Z</time></trkpt><trkpt lon="5.862886" lat="51.058813"><ele>30.8</ele><time>2022-06-12T09:03:13.000Z</time></trkpt><trkpt lon="5.862861" lat="51.058866"><ele>30.8</ele><time>2022-06-12T09:03:14.000Z</time></trkpt><trkpt lon="5.862841" lat="51.058922"><ele>30.8</ele><time>2022-06-12T09:03:15.000Z</time></trkpt><trkpt lon="5.862806" lat="51.058981"><ele>30.8</ele><time>2022-06-12T09:03:16.000Z</time></trkpt><trkpt lon="5.862753" lat="51.059033"><ele>31</ele><time>2022-06-12T09:03:17.000Z</time></trkpt><trkpt lon="5.862689" lat="51.059088"><ele>31</ele><time>2022-06-12T09:03:18.000Z</time></trkpt><trkpt lon="5.862617" lat="51.059144"><ele>31</ele><time>2022-06-12T09:03:19.000Z</time></trkpt><trkpt lon="5.862545" lat="51.059202"><ele>31.2</ele><time>2022-06-12T09:03:20.000Z</time></trkpt><trkpt lon="5.862474" lat="51.059259"><ele>31.4</ele><time>2022-06-12T09:03:21.000Z</time></trkpt><trkpt lon="5.862406" lat="51.05931"><ele>31.4</ele><time>2022-06-12T09:03:22.000Z</time></trkpt><trkpt lon="5.862331" lat="51.059366"><ele>31.4</ele><time>2022-06-12T09:03:23.000Z</time></trkpt><trkpt lon="5.862261" lat="51.059419"><ele>31.4</ele><time>2022-06-12T09:03:24.000Z</time></trkpt><trkpt lon="5.86219" lat="51.059472"><ele>31.4</ele><time>2022-06-12T09:03:25.000Z</time></trkpt><trkpt lon="5.862117" lat="51.059526"><ele>31.4</ele><time>2022-06-12T09:03:26.000Z</time></trkpt><trkpt lon="5.862046" lat="51.059582"><ele>31.2</ele><time>2022-06-12T09:03:27.000Z</time></trkpt><trkpt lon="5.861971" lat="51.059633"><ele>31.2</ele><time>2022-06-12T09:03:28.000Z</time></trkpt><trkpt lon="5.861894" lat="51.059687"><ele>31.2</ele><time>2022-06-12T09:03:29.000Z</time></trkpt><trkpt lon="5.861814" lat="51.059732"><ele>31.2</ele><time>2022-06-12T09:03:30.000Z</time></trkpt><trkpt lon="5.861733" lat="51.059779"><ele>31.2</ele><time>2022-06-12T09:03:31.000Z</time></trkpt><trkpt lon="5.861652" lat="51.059831"><ele>31.2</ele><time>2022-06-12T09:03:32.000Z</time></trkpt><trkpt lon="5.861569" lat="51.059884"><ele>31</ele><time>2022-06-12T09:03:33.000Z</time></trkpt><trkpt lon="5.861485" lat="51.059938"><ele>31</ele><time>2022-06-12T09:03:34.000Z</time></trkpt><trkpt lon="5.861401" lat="51.059992"><ele>30.8</ele><time>2022-06-12T09:03:35.000Z</time></trkpt><trkpt lon="5.861318" lat="51.060045"><ele>30.6</ele><time>2022-06-12T09:03:36.000Z</time></trkpt><trkpt lon="5.861238" lat="51.060102"><ele>30.6</ele><time>2022-06-12T09:03:37.000Z</time></trkpt><trkpt lon="5.861159" lat="51.060156"><ele>30.6</ele><time>2022-06-12T09:03:38.000Z</time></trkpt><trkpt lon="5.861078" lat="51.060206"><ele>30.6</ele><time>2022-06-12T09:03:39.000Z</time></trkpt><trkpt lon="5.861001" lat="51.060255"><ele>30.6</ele><time>2022-06-12T09:03:40.000Z</time></trkpt><trkpt lon="5.860933" lat="51.060304"><ele>30.6</ele><time>2022-06-12T09:03:41.000Z</time></trkpt><trkpt lon="5.860869" lat="51.060354"><ele>30.6</ele><time>2022-06-12T09:03:42.000Z</time></trkpt><trkpt lon="5.860807" lat="51.0604"><ele>30.6</ele><time>2022-06-12T09:03:43.000Z</time></trkpt><trkpt lon="5.860747" lat="51.060446"><ele>30.6</ele><time>2022-06-12T09:03:44.000Z</time></trkpt><trkpt lon="5.860686" lat="51.060491"><ele>30.6</ele><time>2022-06-12T09:03:45.000Z</time></trkpt><trkpt lon="5.860615" lat="51.06053"><ele>30.6</ele><time>2022-06-12T09:03:46.000Z</time></trkpt><trkpt lon="5.860542" lat="51.060579"><ele>30.4</ele><time>2022-06-12T09:03:47.000Z</time></trkpt><trkpt lon="5.860461" lat="51.060633"><ele>30.4</ele><time>2022-06-12T09:03:48.000Z</time></trkpt><trkpt lon="5.860378" lat="51.06069"><ele>30.2</ele><time>2022-06-12T09:03:49.000Z</time></trkpt><trkpt lon="5.860291" lat="51.060744"><ele>30.2</ele><time>2022-06-12T09:03:50.000Z</time></trkpt><trkpt lon="5.860205" lat="51.060804"><ele>30.2</ele><time>2022-06-12T09:03:51.000Z</time></trkpt><trkpt lon="5.860114" lat="51.060862"><ele>30.2</ele><time>2022-06-12T09:03:52.000Z</time></trkpt><trkpt lon="5.860028" lat="51.060922"><ele>30</ele><time>2022-06-12T09:03:53.000Z</time></trkpt><trkpt lon="5.859946" lat="51.060982"><ele>29.8</ele><time>2022-06-12T09:03:54.000Z</time></trkpt><trkpt lon="5.859868" lat="51.061048"><ele>30</ele><time>2022-06-12T09:03:55.000Z</time></trkpt><trkpt lon="5.859798" lat="51.061109"><ele>30</ele><time>2022-06-12T09:03:56.000Z</time></trkpt><trkpt lon="5.859733" lat="51.061173"><ele>30</ele><time>2022-06-12T09:03:57.000Z</time></trkpt><trkpt lon="5.859672" lat="51.061235"><ele>30</ele><time>2022-06-12T09:03:58.000Z</time></trkpt><trkpt lon="5.85962" lat="51.061292"><ele>30.2</ele><time>2022-06-12T09:03:59.000Z</time></trkpt><trkpt lon="5.85957" lat="51.06135"><ele>30.2</ele><time>2022-06-12T09:04:00.000Z</time></trkpt><trkpt lon="5.859517" lat="51.061407"><ele>30.2</ele><time>2022-06-12T09:04:01.000Z</time></trkpt><trkpt lon="5.859468" lat="51.061464"><ele>30.2</ele><time>2022-06-12T09:04:02.000Z</time></trkpt><trkpt lon="5.859417" lat="51.061522"><ele>30.2</ele><time>2022-06-12T09:04:03.000Z</time></trkpt><trkpt lon="5.859372" lat="51.061586"><ele>30.2</ele><time>2022-06-12T09:04:04.000Z</time></trkpt><trkpt lon="5.859326" lat="51.061648"><ele>30.2</ele><time>2022-06-12T09:04:05.000Z</time></trkpt><trkpt lon="5.859283" lat="51.061708"><ele>30.2</ele><time>2022-06-12T09:04:06.000Z</time></trkpt><trkpt lon="5.859242" lat="51.061773"><ele>30.2</ele><time>2022-06-12T09:04:07.000Z</time></trkpt><trkpt lon="5.859202" lat="51.061837"><ele>30.2</ele><time>2022-06-12T09:04:08.000Z</time></trkpt><trkpt lon="5.859158" lat="51.061903"><ele>30.2</ele><time>2022-06-12T09:04:09.000Z</time></trkpt><trkpt lon="5.859117" lat="51.061971"><ele>30.2</ele><time>2022-06-12T09:04:10.000Z</time></trkpt><trkpt lon="5.859072" lat="51.062047"><ele>30.2</ele><time>2022-06-12T09:04:11.000Z</time></trkpt><trkpt lon="5.85903" lat="51.062119"><ele>30.2</ele><time>2022-06-12T09:04:12.000Z</time></trkpt><trkpt lon="5.858991" lat="51.062196"><ele>30</ele><time>2022-06-12T09:04:13.000Z</time></trkpt><trkpt lon="5.858954" lat="51.062277"><ele>29.8</ele><time>2022-06-12T09:04:14.000Z</time></trkpt><trkpt lon="5.858924" lat="51.062353"><ele>29.8</ele><time>2022-06-12T09:04:15.000Z</time></trkpt><trkpt lon="5.858894" lat="51.062432"><ele>29.8</ele><time>2022-06-12T09:04:16.000Z</time></trkpt><trkpt lon="5.858867" lat="51.062502"><ele>29.8</ele><time>2022-06-12T09:04:17.000Z</time></trkpt><trkpt lon="5.858838" lat="51.062577"><ele>29.8</ele><time>2022-06-12T09:04:18.000Z</time></trkpt><trkpt lon="5.85881" lat="51.062646"><ele>29.6</ele><time>2022-06-12T09:04:19.000Z</time></trkpt><trkpt lon="5.85878" lat="51.062718"><ele>29.4</ele><time>2022-06-12T09:04:20.000Z</time></trkpt><trkpt lon="5.858748" lat="51.062787"><ele>29.4</ele><time>2022-06-12T09:04:21.000Z</time></trkpt><trkpt lon="5.858719" lat="51.062856"><ele>29.4</ele><time>2022-06-12T09:04:22.000Z</time></trkpt><trkpt lon="5.858694" lat="51.062925"><ele>29.6</ele><time>2022-06-12T09:04:23.000Z</time></trkpt><trkpt lon="5.858668" lat="51.062993"><ele>29.6</ele><time>2022-06-12T09:04:24.000Z</time></trkpt><trkpt lon="5.858638" lat="51.063059"><ele>29.8</ele><time>2022-06-12T09:04:25.000Z</time></trkpt><trkpt lon="5.858608" lat="51.063119"><ele>29.8</ele><time>2022-06-12T09:04:26.000Z</time></trkpt><trkpt lon="5.858573" lat="51.063184"><ele>29.8</ele><time>2022-06-12T09:04:27.000Z</time></trkpt><trkpt lon="5.858536" lat="51.063249"><ele>29.8</ele><time>2022-06-12T09:04:28.000Z</time></trkpt><trkpt lon="5.8585" lat="51.063314"><ele>29.8</ele><time>2022-06-12T09:04:29.000Z</time></trkpt><trkpt lon="5.858463" lat="51.063375"><ele>29.8</ele><time>2022-06-12T09:04:30.000Z</time></trkpt><trkpt lon="5.858427" lat="51.063435"><ele>29.8</ele><time>2022-06-12T09:04:31.000Z</time></trkpt><trkpt lon="5.858384" lat="51.063496"><ele>29.8</ele><time>2022-06-12T09:04:32.000Z</time></trkpt><trkpt lon="5.858329" lat="51.063552"><ele>29.8</ele><time>2022-06-12T09:04:33.000Z</time></trkpt><trkpt lon="5.858271" lat="51.063606"><ele>29.8</ele><time>2022-06-12T09:04:34.000Z</time></trkpt><trkpt lon="5.858201" lat="51.06366"><ele>29.8</ele><time>2022-06-12T09:04:35.000Z</time></trkpt><trkpt lon="5.85813" lat="51.06371"><ele>29.8</ele><time>2022-06-12T09:04:36.000Z</time></trkpt><trkpt lon="5.858054" lat="51.063761"><ele>29.8</ele><time>2022-06-12T09:04:37.000Z</time></trkpt><trkpt lon="5.857982" lat="51.06381"><ele>29.8</ele><time>2022-06-12T09:04:38.000Z</time></trkpt><trkpt lon="5.857908" lat="51.06386"><ele>29.8</ele><time>2022-06-12T09:04:39.000Z</time></trkpt><trkpt lon="5.857835" lat="51.063909"><ele>29.8</ele><time>2022-06-12T09:04:40.000Z</time></trkpt><trkpt lon="5.857763" lat="51.063955"><ele>29.8</ele><time>2022-06-12T09:04:41.000Z</time></trkpt><trkpt lon="5.857694" lat="51.064005"><ele>30</ele><time>2022-06-12T09:04:42.000Z</time></trkpt><trkpt lon="5.857628" lat="51.064047"><ele>30</ele><time>2022-06-12T09:04:43.000Z</time></trkpt><trkpt lon="5.857566" lat="51.064093"><ele>30</ele><time>2022-06-12T09:04:44.000Z</time></trkpt><trkpt lon="5.857499" lat="51.064142"><ele>30</ele><time>2022-06-12T09:04:45.000Z</time></trkpt><trkpt lon="5.857429" lat="51.064192"><ele>30</ele><time>2022-06-12T09:04:46.000Z</time></trkpt><trkpt lon="5.857361" lat="51.064241"><ele>30</ele><time>2022-06-12T09:04:47.000Z</time></trkpt><trkpt lon="5.857293" lat="51.064291"><ele>30</ele><time>2022-06-12T09:04:48.000Z</time></trkpt><trkpt lon="5.857226" lat="51.064341"><ele>30.2</ele><time>2022-06-12T09:04:49.000Z</time></trkpt><trkpt lon="5.857163" lat="51.064394"><ele>30.2</ele><time>2022-06-12T09:04:50.000Z</time></trkpt><trkpt lon="5.857101" lat="51.064447"><ele>30.2</ele><time>2022-06-12T09:04:51.000Z</time></trkpt><trkpt lon="5.857038" lat="51.064505"><ele>30.2</ele><time>2022-06-12T09:04:52.000Z</time></trkpt><trkpt lon="5.856979" lat="51.064558"><ele>30.2</ele><time>2022-06-12T09:04:53.000Z</time></trkpt><trkpt lon="5.856919" lat="51.064611"><ele>30.2</ele><time>2022-06-12T09:04:54.000Z</time></trkpt><trkpt lon="5.85686" lat="51.064668"><ele>30.2</ele><time>2022-06-12T09:04:55.000Z</time></trkpt><trkpt lon="5.856799" lat="51.064726"><ele>30.2</ele><time>2022-06-12T09:04:56.000Z</time></trkpt><trkpt lon="5.856745" lat="51.064779"><ele>30.2</ele><time>2022-06-12T09:04:57.000Z</time></trkpt><trkpt lon="5.856692" lat="51.064829"><ele>30.2</ele><time>2022-06-12T09:04:58.000Z</time></trkpt><trkpt lon="5.856647" lat="51.064871"><ele>30.2</ele><time>2022-06-12T09:04:59.000Z</time></trkpt><trkpt lon="5.856605" lat="51.064917"><ele>30.2</ele><time>2022-06-12T09:05:00.000Z</time></trkpt><trkpt lon="5.856565" lat="51.064955"><ele>30.4</ele><time>2022-06-12T09:05:01.000Z</time></trkpt><trkpt lon="5.856525" lat="51.064993"><ele>30.4</ele><time>2022-06-12T09:05:02.000Z</time></trkpt><trkpt lon="5.856489" lat="51.065035"><ele>30.4</ele><time>2022-06-12T09:05:03.000Z</time></trkpt><trkpt lon="5.856459" lat="51.065074"><ele>30.4</ele><time>2022-06-12T09:05:04.000Z</time></trkpt><trkpt lon="5.856444" lat="51.065108"><ele>30.2</ele><time>2022-06-12T09:05:05.000Z</time></trkpt><trkpt lon="5.856434" lat="51.065153"><ele>30.2</ele><time>2022-06-12T09:05:06.000Z</time></trkpt><trkpt lon="5.85643" lat="51.065206"><ele>30.2</ele><time>2022-06-12T09:05:07.000Z</time></trkpt><trkpt lon="5.856444" lat="51.065264"><ele>30.2</ele><time>2022-06-12T09:05:08.000Z</time></trkpt><trkpt lon="5.856458" lat="51.065325"><ele>30.2</ele><time>2022-06-12T09:05:09.000Z</time></trkpt><trkpt lon="5.85647" lat="51.065393"><ele>30.2</ele><time>2022-06-12T09:05:10.000Z</time></trkpt><trkpt lon="5.856477" lat="51.06546"><ele>30.2</ele><time>2022-06-12T09:05:11.000Z</time></trkpt><trkpt lon="5.85648" lat="51.065534"><ele>30.2</ele><time>2022-06-12T09:05:12.000Z</time></trkpt><trkpt lon="5.85648" lat="51.065607"><ele>30.2</ele><time>2022-06-12T09:05:13.000Z</time></trkpt><trkpt lon="5.856474" lat="51.065676"><ele>30.2</ele><time>2022-06-12T09:05:14.000Z</time></trkpt><trkpt lon="5.856464" lat="51.065744"><ele>30.2</ele><time>2022-06-12T09:05:15.000Z</time></trkpt><trkpt lon="5.856443" lat="51.065812"><ele>30.4</ele><time>2022-06-12T09:05:16.000Z</time></trkpt><trkpt lon="5.856417" lat="51.065878"><ele>30.4</ele><time>2022-06-12T09:05:17.000Z</time></trkpt><trkpt lon="5.856394" lat="51.065946"><ele>30.4</ele><time>2022-06-12T09:05:18.000Z</time></trkpt><trkpt lon="5.856373" lat="51.066013"><ele>30.4</ele><time>2022-06-12T09:05:19.000Z</time></trkpt><trkpt lon="5.856351" lat="51.066083"><ele>30.4</ele><time>2022-06-12T09:05:20.000Z</time></trkpt><trkpt lon="5.856329" lat="51.066148"><ele>30.4</ele><time>2022-06-12T09:05:21.000Z</time></trkpt><trkpt lon="5.856307" lat="51.066213"><ele>30.4</ele><time>2022-06-12T09:05:22.000Z</time></trkpt><trkpt lon="5.856283" lat="51.066274"><ele>30.4</ele><time>2022-06-12T09:05:23.000Z</time></trkpt><trkpt lon="5.856263" lat="51.066338"><ele>30.4</ele><time>2022-06-12T09:05:24.000Z</time></trkpt><trkpt lon="5.856246" lat="51.066404"><ele>30.4</ele><time>2022-06-12T09:05:25.000Z</time></trkpt><trkpt lon="5.856226" lat="51.066461"><ele>30.4</ele><time>2022-06-12T09:05:26.000Z</time></trkpt><trkpt lon="5.856207" lat="51.066516"><ele>30.4</ele><time>2022-06-12T09:05:27.000Z</time></trkpt><trkpt lon="5.856178" lat="51.066572"><ele>30.4</ele><time>2022-06-12T09:05:28.000Z</time></trkpt><trkpt lon="5.85615" lat="51.066622"><ele>30.4</ele><time>2022-06-12T09:05:29.000Z</time></trkpt><trkpt lon="5.856122" lat="51.066667"><ele>30.4</ele><time>2022-06-12T09:05:30.000Z</time></trkpt><trkpt lon="5.85609" lat="51.066706"><ele>30.4</ele><time>2022-06-12T09:05:31.000Z</time></trkpt><trkpt lon="5.856061" lat="51.066737"><ele>30.4</ele><time>2022-06-12T09:05:32.000Z</time></trkpt><trkpt lon="5.856039" lat="51.066764"><ele>30.4</ele><time>2022-06-12T09:05:33.000Z</time></trkpt><trkpt lon="5.856029" lat="51.066795"><ele>30.4</ele><time>2022-06-12T09:05:34.000Z</time></trkpt><trkpt lon="5.856035" lat="51.066832"><ele>30.4</ele><time>2022-06-12T09:05:35.000Z</time></trkpt><trkpt lon="5.856057" lat="51.066884"><ele>30.4</ele><time>2022-06-12T09:05:36.000Z</time></trkpt><trkpt lon="5.856087" lat="51.066935"><ele>30.6</ele><time>2022-06-12T09:05:37.000Z</time></trkpt><trkpt lon="5.856103" lat="51.066987"><ele>30.6</ele><time>2022-06-12T09:05:38.000Z</time></trkpt><trkpt lon="5.856097" lat="51.067041"><ele>30.4</ele><time>2022-06-12T09:05:39.000Z</time></trkpt><trkpt lon="5.856074" lat="51.067095"><ele>30.2</ele><time>2022-06-12T09:05:40.000Z</time></trkpt><trkpt lon="5.856043" lat="51.067155"><ele>30</ele><time>2022-06-12T09:05:41.000Z</time></trkpt><trkpt lon="5.85601" lat="51.067224"><ele>30</ele><time>2022-06-12T09:05:42.000Z</time></trkpt><trkpt lon="5.855979" lat="51.067293"><ele>30</ele><time>2022-06-12T09:05:43.000Z</time></trkpt><trkpt lon="5.855954" lat="51.067365"><ele>30</ele><time>2022-06-12T09:05:44.000Z</time></trkpt><trkpt lon="5.855933" lat="51.067437"><ele>30</ele><time>2022-06-12T09:05:45.000Z</time></trkpt><trkpt lon="5.855911" lat="51.067513"><ele>30</ele><time>2022-06-12T09:05:46.000Z</time></trkpt><trkpt lon="5.855884" lat="51.06759"><ele>30</ele><time>2022-06-12T09:05:47.000Z</time></trkpt><trkpt lon="5.855853" lat="51.067666"><ele>29.8</ele><time>2022-06-12T09:05:48.000Z</time></trkpt><trkpt lon="5.855819" lat="51.067737"><ele>29.8</ele><time>2022-06-12T09:05:49.000Z</time></trkpt><trkpt lon="5.855783" lat="51.067811"><ele>30</ele><time>2022-06-12T09:05:50.000Z</time></trkpt><trkpt lon="5.855751" lat="51.067888"><ele>30</ele><time>2022-06-12T09:05:51.000Z</time></trkpt><trkpt lon="5.855724" lat="51.067964"><ele>30</ele><time>2022-06-12T09:05:52.000Z</time></trkpt><trkpt lon="5.855702" lat="51.06804"><ele>30</ele><time>2022-06-12T09:05:53.000Z</time></trkpt><trkpt lon="5.855683" lat="51.068112"><ele>30.2</ele><time>2022-06-12T09:05:54.000Z</time></trkpt><trkpt lon="5.855661" lat="51.068189"><ele>30.2</ele><time>2022-06-12T09:05:55.000Z</time></trkpt><trkpt lon="5.855639" lat="51.068258"><ele>30.2</ele><time>2022-06-12T09:05:56.000Z</time></trkpt><trkpt lon="5.855614" lat="51.06833"><ele>30</ele><time>2022-06-12T09:05:57.000Z</time></trkpt><trkpt lon="5.855583" lat="51.068406"><ele>30.2</ele><time>2022-06-12T09:05:58.000Z</time></trkpt><trkpt lon="5.855557" lat="51.068482"><ele>30.2</ele><time>2022-06-12T09:05:59.000Z</time></trkpt><trkpt lon="5.855534" lat="51.068559"><ele>30.2</ele><time>2022-06-12T09:06:00.000Z</time></trkpt><trkpt lon="5.855512" lat="51.068631"><ele>30.4</ele><time>2022-06-12T09:06:01.000Z</time></trkpt><trkpt lon="5.855489" lat="51.068704"><ele>30.4</ele><time>2022-06-12T09:06:02.000Z</time></trkpt><trkpt lon="5.855464" lat="51.068777"><ele>30.4</ele><time>2022-06-12T09:06:03.000Z</time></trkpt><trkpt lon="5.855441" lat="51.068849"><ele>30.4</ele><time>2022-06-12T09:06:04.000Z</time></trkpt><trkpt lon="5.855418" lat="51.068917"><ele>30.4</ele><time>2022-06-12T09:06:05.000Z</time></trkpt><trkpt lon="5.855391" lat="51.06899"><ele>30.6</ele><time>2022-06-12T09:06:06.000Z</time></trkpt><trkpt lon="5.855366" lat="51.069059"><ele>30.6</ele><time>2022-06-12T09:06:07.000Z</time></trkpt><trkpt lon="5.855342" lat="51.069124"><ele>30.6</ele><time>2022-06-12T09:06:08.000Z</time></trkpt><trkpt lon="5.855316" lat="51.069193"><ele>30.6</ele><time>2022-06-12T09:06:09.000Z</time></trkpt><trkpt lon="5.855291" lat="51.069264"><ele>30.8</ele><time>2022-06-12T09:06:10.000Z</time></trkpt><trkpt lon="5.855264" lat="51.069337"><ele>30.8</ele><time>2022-06-12T09:06:11.000Z</time></trkpt><trkpt lon="5.855241" lat="51.069406"><ele>30.6</ele><time>2022-06-12T09:06:12.000Z</time></trkpt><trkpt lon="5.855214" lat="51.069474"><ele>30.6</ele><time>2022-06-12T09:06:13.000Z</time></trkpt><trkpt lon="5.855191" lat="51.069547"><ele>30.6</ele><time>2022-06-12T09:06:14.000Z</time></trkpt><trkpt lon="5.85517" lat="51.069608"><ele>30.6</ele><time>2022-06-12T09:06:15.000Z</time></trkpt><trkpt lon="5.855143" lat="51.069688"><ele>30.8</ele><time>2022-06-12T09:06:16.000Z</time></trkpt><trkpt lon="5.855121" lat="51.069757"><ele>30.8</ele><time>2022-06-12T09:06:17.000Z</time></trkpt><trkpt lon="5.855095" lat="51.069825"><ele>30.8</ele><time>2022-06-12T09:06:18.000Z</time></trkpt><trkpt lon="5.855068" lat="51.069898"><ele>30.8</ele><time>2022-06-12T09:06:19.000Z</time></trkpt><trkpt lon="5.855039" lat="51.069966"><ele>30.8</ele><time>2022-06-12T09:06:20.000Z</time></trkpt><trkpt lon="5.855011" lat="51.070039"><ele>30.8</ele><time>2022-06-12T09:06:21.000Z</time></trkpt><trkpt lon="5.854983" lat="51.070103"><ele>30.8</ele><time>2022-06-12T09:06:22.000Z</time></trkpt><trkpt lon="5.854948" lat="51.070176"><ele>30.8</ele><time>2022-06-12T09:06:23.000Z</time></trkpt><trkpt lon="5.854918" lat="51.070241"><ele>30.8</ele><time>2022-06-12T09:06:24.000Z</time></trkpt><trkpt lon="5.854889" lat="51.07031"><ele>30.8</ele><time>2022-06-12T09:06:25.000Z</time></trkpt><trkpt lon="5.854864" lat="51.070375"><ele>30.8</ele><time>2022-06-12T09:06:26.000Z</time></trkpt><trkpt lon="5.854836" lat="51.070436"><ele>30.8</ele><time>2022-06-12T09:06:27.000Z</time></trkpt><trkpt lon="5.854808" lat="51.070497"><ele>30.8</ele><time>2022-06-12T09:06:28.000Z</time></trkpt><trkpt lon="5.854779" lat="51.070554"><ele>30.8</ele><time>2022-06-12T09:06:29.000Z</time></trkpt><trkpt lon="5.854756" lat="51.070608"><ele>30.8</ele><time>2022-06-12T09:06:30.000Z</time></trkpt><trkpt lon="5.854728" lat="51.070654"><ele>31</ele><time>2022-06-12T09:06:31.000Z</time></trkpt><trkpt lon="5.854682" lat="51.070696"><ele>31</ele><time>2022-06-12T09:06:32.000Z</time></trkpt><trkpt lon="5.854622" lat="51.070731"><ele>31</ele><time>2022-06-12T09:06:33.000Z</time></trkpt><trkpt lon="5.854564" lat="51.070769"><ele>30.8</ele><time>2022-06-12T09:06:34.000Z</time></trkpt><trkpt lon="5.854517" lat="51.070818"><ele>30.8</ele><time>2022-06-12T09:06:35.000Z</time></trkpt><trkpt lon="5.85448" lat="51.070879"><ele>30.6</ele><time>2022-06-12T09:06:36.000Z</time></trkpt><trkpt lon="5.854446" lat="51.070943"><ele>30.4</ele><time>2022-06-12T09:06:37.000Z</time></trkpt><trkpt lon="5.854408" lat="51.071004"><ele>30</ele><time>2022-06-12T09:06:38.000Z</time></trkpt><trkpt lon="5.854365" lat="51.071073"><ele>29.8</ele><time>2022-06-12T09:06:39.000Z</time></trkpt><trkpt lon="5.854321" lat="51.071149"><ele>29.4</ele><time>2022-06-12T09:06:40.000Z</time></trkpt><trkpt lon="5.854288" lat="51.071209"><ele>29</ele><time>2022-06-12T09:06:41.000Z</time></trkpt><trkpt lon="5.854248" lat="51.071294"><ele>28.6</ele><time>2022-06-12T09:06:42.000Z</time></trkpt><trkpt lon="5.854208" lat="51.071367"><ele>28.2</ele><time>2022-06-12T09:06:43.000Z</time></trkpt><trkpt lon="5.854171" lat="51.071431"><ele>27.8</ele><time>2022-06-12T09:06:44.000Z</time></trkpt><trkpt lon="5.854139" lat="51.071493"><ele>27.4</ele><time>2022-06-12T09:06:45.000Z</time></trkpt><trkpt lon="5.854106" lat="51.071551"><ele>27.2</ele><time>2022-06-12T09:06:46.000Z</time></trkpt><trkpt lon="5.854078" lat="51.071607"><ele>27.2</ele><time>2022-06-12T09:06:47.000Z</time></trkpt><trkpt lon="5.854048" lat="51.071661"><ele>27.2</ele><time>2022-06-12T09:06:48.000Z</time></trkpt><trkpt lon="5.854015" lat="51.071707"><ele>27.2</ele><time>2022-06-12T09:06:49.000Z</time></trkpt><trkpt lon="5.853986" lat="51.071757"><ele>27.4</ele><time>2022-06-12T09:06:50.000Z</time></trkpt><trkpt lon="5.853956" lat="51.07181"><ele>27.4</ele><time>2022-06-12T09:06:51.000Z</time></trkpt><trkpt lon="5.853929" lat="51.071863"><ele>27.6</ele><time>2022-06-12T09:06:52.000Z</time></trkpt><trkpt lon="5.853913" lat="51.071915"><ele>27.6</ele><time>2022-06-12T09:06:53.000Z</time></trkpt><trkpt lon="5.853897" lat="51.071981"><ele>27.8</ele><time>2022-06-12T09:06:54.000Z</time></trkpt><trkpt lon="5.853866" lat="51.072046"><ele>27.8</ele><time>2022-06-12T09:06:55.000Z</time></trkpt><trkpt lon="5.853818" lat="51.072115"><ele>28</ele><time>2022-06-12T09:06:56.000Z</time></trkpt><trkpt lon="5.853764" lat="51.072179"><ele>28</ele><time>2022-06-12T09:06:57.000Z</time></trkpt><trkpt lon="5.853704" lat="51.072252"><ele>28.2</ele><time>2022-06-12T09:06:58.000Z</time></trkpt><trkpt lon="5.853642" lat="51.072321"><ele>28.2</ele><time>2022-06-12T09:06:59.000Z</time></trkpt><trkpt lon="5.853577" lat="51.072397"><ele>28.2</ele><time>2022-06-12T09:07:00.000Z</time></trkpt><trkpt lon="5.853511" lat="51.072469"><ele>28.2</ele><time>2022-06-12T09:07:01.000Z</time></trkpt><trkpt lon="5.853447" lat="51.072535"><ele>28.2</ele><time>2022-06-12T09:07:02.000Z</time></trkpt><trkpt lon="5.853381" lat="51.072601"><ele>28.2</ele><time>2022-06-12T09:07:03.000Z</time></trkpt><trkpt lon="5.853313" lat="51.072667"><ele>28.2</ele><time>2022-06-12T09:07:04.000Z</time></trkpt><trkpt lon="5.853238" lat="51.072732"><ele>28.2</ele><time>2022-06-12T09:07:05.000Z</time></trkpt><trkpt lon="5.853156" lat="51.0728"><ele>28.2</ele><time>2022-06-12T09:07:06.000Z</time></trkpt><trkpt lon="5.85307" lat="51.072862"><ele>28</ele><time>2022-06-12T09:07:07.000Z</time></trkpt><trkpt lon="5.852979" lat="51.072924"><ele>28</ele><time>2022-06-12T09:07:08.000Z</time></trkpt><trkpt lon="5.852883" lat="51.072988"><ele>28</ele><time>2022-06-12T09:07:09.000Z</time></trkpt><trkpt lon="5.852791" lat="51.073053"><ele>27.8</ele><time>2022-06-12T09:07:10.000Z</time></trkpt><trkpt lon="5.852699" lat="51.073121"><ele>28</ele><time>2022-06-12T09:07:11.000Z</time></trkpt><trkpt lon="5.85261" lat="51.073183"><ele>28</ele><time>2022-06-12T09:07:12.000Z</time></trkpt><trkpt lon="5.852526" lat="51.073248"><ele>28</ele><time>2022-06-12T09:07:13.000Z</time></trkpt><trkpt lon="5.852451" lat="51.073305"><ele>28</ele><time>2022-06-12T09:07:14.000Z</time></trkpt><trkpt lon="5.852375" lat="51.073366"><ele>27.8</ele><time>2022-06-12T09:07:15.000Z</time></trkpt><trkpt lon="5.8523" lat="51.073419"><ele>27.8</ele><time>2022-06-12T09:07:16.000Z</time></trkpt><trkpt lon="5.852231" lat="51.073473"><ele>27.8</ele><time>2022-06-12T09:07:17.000Z</time></trkpt><trkpt lon="5.852161" lat="51.073526"><ele>27.8</ele><time>2022-06-12T09:07:18.000Z</time></trkpt><trkpt lon="5.852091" lat="51.073575"><ele>27.8</ele><time>2022-06-12T09:07:19.000Z</time></trkpt><trkpt lon="5.852023" lat="51.073629"><ele>27.8</ele><time>2022-06-12T09:07:20.000Z</time></trkpt><trkpt lon="5.851956" lat="51.073679"><ele>27.8</ele><time>2022-06-12T09:07:21.000Z</time></trkpt><trkpt lon="5.851885" lat="51.073728"><ele>27.8</ele><time>2022-06-12T09:07:22.000Z</time></trkpt><trkpt lon="5.851815" lat="51.073786"><ele>28</ele><time>2022-06-12T09:07:23.000Z</time></trkpt><trkpt lon="5.851745" lat="51.073842"><ele>28</ele><time>2022-06-12T09:07:24.000Z</time></trkpt><trkpt lon="5.851668" lat="51.073896"><ele>28</ele><time>2022-06-12T09:07:25.000Z</time></trkpt><trkpt lon="5.851582" lat="51.073946"><ele>28</ele><time>2022-06-12T09:07:26.000Z</time></trkpt><trkpt lon="5.851501" lat="51.073992"><ele>28.2</ele><time>2022-06-12T09:07:27.000Z</time></trkpt><trkpt lon="5.85142" lat="51.074038"><ele>28.2</ele><time>2022-06-12T09:07:28.000Z</time></trkpt><trkpt lon="5.851338" lat="51.074083"><ele>28.2</ele><time>2022-06-12T09:07:29.000Z</time></trkpt><trkpt lon="5.851258" lat="51.074129"><ele>28.2</ele><time>2022-06-12T09:07:30.000Z</time></trkpt><trkpt lon="5.851175" lat="51.074179"><ele>28.2</ele><time>2022-06-12T09:07:31.000Z</time></trkpt><trkpt lon="5.851093" lat="51.074232"><ele>28.2</ele><time>2022-06-12T09:07:32.000Z</time></trkpt><trkpt lon="5.85101" lat="51.074292"><ele>28.2</ele><time>2022-06-12T09:07:33.000Z</time></trkpt><trkpt lon="5.850925" lat="51.07435"><ele>28.2</ele><time>2022-06-12T09:07:34.000Z</time></trkpt><trkpt lon="5.850849" lat="51.074407"><ele>28</ele><time>2022-06-12T09:07:35.000Z</time></trkpt><trkpt lon="5.850773" lat="51.074468"><ele>28</ele><time>2022-06-12T09:07:36.000Z</time></trkpt><trkpt lon="5.850705" lat="51.074525"><ele>28</ele><time>2022-06-12T09:07:37.000Z</time></trkpt><trkpt lon="5.850644" lat="51.074582"><ele>28</ele><time>2022-06-12T09:07:38.000Z</time></trkpt><trkpt lon="5.85059" lat="51.074647"><ele>28</ele><time>2022-06-12T09:07:39.000Z</time></trkpt><trkpt lon="5.85054" lat="51.074713"><ele>27.8</ele><time>2022-06-12T09:07:40.000Z</time></trkpt><trkpt lon="5.850501" lat="51.074769"><ele>27.8</ele><time>2022-06-12T09:07:41.000Z</time></trkpt><trkpt lon="5.850458" lat="51.074835"><ele>27.6</ele><time>2022-06-12T09:07:42.000Z</time></trkpt><trkpt lon="5.850416" lat="51.0749"><ele>27.6</ele><time>2022-06-12T09:07:43.000Z</time></trkpt><trkpt lon="5.850368" lat="51.074964"><ele>27.4</ele><time>2022-06-12T09:07:44.000Z</time></trkpt><trkpt lon="5.850305" lat="51.075029"><ele>27.4</ele><time>2022-06-12T09:07:45.000Z</time></trkpt><trkpt lon="5.850226" lat="51.075078"><ele>27.4</ele><time>2022-06-12T09:07:46.000Z</time></trkpt><trkpt lon="5.850122" lat="51.075114"><ele>27.4</ele><time>2022-06-12T09:07:47.000Z</time></trkpt><trkpt lon="5.850004" lat="51.075134"><ele>27.2</ele><time>2022-06-12T09:07:48.000Z</time></trkpt><trkpt lon="5.849882" lat="51.075153"><ele>27.2</ele><time>2022-06-12T09:07:49.000Z</time></trkpt><trkpt lon="5.849763" lat="51.075172"><ele>27.2</ele><time>2022-06-12T09:07:50.000Z</time></trkpt><trkpt lon="5.849647" lat="51.075202"><ele>27.2</ele><time>2022-06-12T09:07:51.000Z</time></trkpt><trkpt lon="5.849541" lat="51.07524"><ele>27.2</ele><time>2022-06-12T09:07:52.000Z</time></trkpt><trkpt lon="5.849438" lat="51.075281"><ele>27.2</ele><time>2022-06-12T09:07:53.000Z</time></trkpt><trkpt lon="5.849342" lat="51.075327"><ele>27.2</ele><time>2022-06-12T09:07:54.000Z</time></trkpt><trkpt lon="5.849257" lat="51.075376"><ele>27.4</ele><time>2022-06-12T09:07:55.000Z</time></trkpt><trkpt lon="5.849175" lat="51.075423"><ele>27.2</ele><time>2022-06-12T09:07:56.000Z</time></trkpt><trkpt lon="5.849103" lat="51.075464"><ele>27.2</ele><time>2022-06-12T09:07:57.000Z</time></trkpt><trkpt lon="5.84901" lat="51.075507"><ele>27</ele><time>2022-06-12T09:07:58.000Z</time></trkpt><trkpt lon="5.848917" lat="51.075538"><ele>26.8</ele><time>2022-06-12T09:07:59.000Z</time></trkpt><trkpt lon="5.848814" lat="51.075561"><ele>26.6</ele><time>2022-06-12T09:08:00.000Z</time></trkpt><trkpt lon="5.848703" lat="51.075576"><ele>26.6</ele><time>2022-06-12T09:08:01.000Z</time></trkpt><trkpt lon="5.848597" lat="51.075577"><ele>26.8</ele><time>2022-06-12T09:08:02.000Z</time></trkpt><trkpt lon="5.848484" lat="51.07558"><ele>26.8</ele><time>2022-06-12T09:08:03.000Z</time></trkpt><trkpt lon="5.848374" lat="51.075581"><ele>26.8</ele><time>2022-06-12T09:08:04.000Z</time></trkpt><trkpt lon="5.848261" lat="51.075573"><ele>26.8</ele><time>2022-06-12T09:08:05.000Z</time></trkpt><trkpt lon="5.84815" lat="51.075562"><ele>27</ele><time>2022-06-12T09:08:06.000Z</time></trkpt><trkpt lon="5.848047" lat="51.075543"><ele>27</ele><time>2022-06-12T09:08:07.000Z</time></trkpt><trkpt lon="5.847949" lat="51.075521"><ele>27</ele><time>2022-06-12T09:08:08.000Z</time></trkpt><trkpt lon="5.84785" lat="51.075497"><ele>27.2</ele><time>2022-06-12T09:08:09.000Z</time></trkpt><trkpt lon="5.847751" lat="51.075471"><ele>27.2</ele><time>2022-06-12T09:08:10.000Z</time></trkpt><trkpt lon="5.847647" lat="51.075441"><ele>27.2</ele><time>2022-06-12T09:08:11.000Z</time></trkpt><trkpt lon="5.847543" lat="51.075413"><ele>27.2</ele><time>2022-06-12T09:08:12.000Z</time></trkpt><trkpt lon="5.84744" lat="51.075387"><ele>27.2</ele><time>2022-06-12T09:08:13.000Z</time></trkpt><trkpt lon="5.847337" lat="51.07536"><ele>27.2</ele><time>2022-06-12T09:08:14.000Z</time></trkpt><trkpt lon="5.847232" lat="51.075333"><ele>27.2</ele><time>2022-06-12T09:08:15.000Z</time></trkpt><trkpt lon="5.847127" lat="51.075311"><ele>27.2</ele><time>2022-06-12T09:08:16.000Z</time></trkpt><trkpt lon="5.847019" lat="51.075288"><ele>27.2</ele><time>2022-06-12T09:08:17.000Z</time></trkpt><trkpt lon="5.846912" lat="51.075265"><ele>27.2</ele><time>2022-06-12T09:08:18.000Z</time></trkpt><trkpt lon="5.846803" lat="51.075245"><ele>27.2</ele><time>2022-06-12T09:08:19.000Z</time></trkpt><trkpt lon="5.846693" lat="51.075234"><ele>27.2</ele><time>2022-06-12T09:08:20.000Z</time></trkpt><trkpt lon="5.846581" lat="51.075219"><ele>27.2</ele><time>2022-06-12T09:08:21.000Z</time></trkpt><trkpt lon="5.84647" lat="51.075207"><ele>27.2</ele><time>2022-06-12T09:08:22.000Z</time></trkpt><trkpt lon="5.846357" lat="51.075199"><ele>27.2</ele><time>2022-06-12T09:08:23.000Z</time></trkpt><trkpt lon="5.846244" lat="51.075192"><ele>27.2</ele><time>2022-06-12T09:08:24.000Z</time></trkpt><trkpt lon="5.846131" lat="51.075184"><ele>27.2</ele><time>2022-06-12T09:08:25.000Z</time></trkpt><trkpt lon="5.84602" lat="51.07518"><ele>27</ele><time>2022-06-12T09:08:26.000Z</time></trkpt><trkpt lon="5.845907" lat="51.075176"><ele>27</ele><time>2022-06-12T09:08:27.000Z</time></trkpt><trkpt lon="5.845793" lat="51.075173"><ele>27</ele><time>2022-06-12T09:08:28.000Z</time></trkpt><trkpt lon="5.845678" lat="51.075172"><ele>27</ele><time>2022-06-12T09:08:29.000Z</time></trkpt><trkpt lon="5.845564" lat="51.075172"><ele>26.8</ele><time>2022-06-12T09:08:30.000Z</time></trkpt><trkpt lon="5.84545" lat="51.075176"><ele>26.8</ele><time>2022-06-12T09:08:31.000Z</time></trkpt><trkpt lon="5.845334" lat="51.075176"><ele>26.8</ele><time>2022-06-12T09:08:32.000Z</time></trkpt><trkpt lon="5.845221" lat="51.07518"><ele>27</ele><time>2022-06-12T09:08:33.000Z</time></trkpt><trkpt lon="5.845106" lat="51.075184"><ele>27</ele><time>2022-06-12T09:08:34.000Z</time></trkpt><trkpt lon="5.844996" lat="51.075187"><ele>27</ele><time>2022-06-12T09:08:35.000Z</time></trkpt><trkpt lon="5.844887" lat="51.075191"><ele>27</ele><time>2022-06-12T09:08:36.000Z</time></trkpt><trkpt lon="5.84478" lat="51.075195"><ele>27</ele><time>2022-06-12T09:08:37.000Z</time></trkpt><trkpt lon="5.844673" lat="51.075199"><ele>27</ele><time>2022-06-12T09:08:38.000Z</time></trkpt><trkpt lon="5.844564" lat="51.075203"><ele>27</ele><time>2022-06-12T09:08:39.000Z</time></trkpt><trkpt lon="5.844454" lat="51.075207"><ele>27</ele><time>2022-06-12T09:08:40.000Z</time></trkpt><trkpt lon="5.844345" lat="51.07521"><ele>27</ele><time>2022-06-12T09:08:41.000Z</time></trkpt><trkpt lon="5.844234" lat="51.075214"><ele>27</ele><time>2022-06-12T09:08:42.000Z</time></trkpt><trkpt lon="5.844124" lat="51.075218"><ele>26.8</ele><time>2022-06-12T09:08:43.000Z</time></trkpt><trkpt lon="5.844018" lat="51.075218"><ele>26.8</ele><time>2022-06-12T09:08:44.000Z</time></trkpt><trkpt lon="5.843912" lat="51.075214"><ele>26.8</ele><time>2022-06-12T09:08:45.000Z</time></trkpt><trkpt lon="5.843804" lat="51.075218"><ele>26.8</ele><time>2022-06-12T09:08:46.000Z</time></trkpt><trkpt lon="5.843699" lat="51.075218"><ele>26.8</ele><time>2022-06-12T09:08:47.000Z</time></trkpt><trkpt lon="5.843598" lat="51.075225"><ele>26.6</ele><time>2022-06-12T09:08:48.000Z</time></trkpt><trkpt lon="5.843494" lat="51.075237"><ele>26.6</ele><time>2022-06-12T09:08:49.000Z</time></trkpt><trkpt lon="5.843391" lat="51.075248"><ele>26.6</ele><time>2022-06-12T09:08:50.000Z</time></trkpt><trkpt lon="5.843288" lat="51.07526"><ele>26.6</ele><time>2022-06-12T09:08:51.000Z</time></trkpt><trkpt lon="5.84319" lat="51.075271"><ele>26.6</ele><time>2022-06-12T09:08:52.000Z</time></trkpt><trkpt lon="5.843093" lat="51.075279"><ele>26.6</ele><time>2022-06-12T09:08:53.000Z</time></trkpt><trkpt lon="5.843" lat="51.075287"><ele>26.6</ele><time>2022-06-12T09:08:54.000Z</time></trkpt><trkpt lon="5.842913" lat="51.075302"><ele>26.6</ele><time>2022-06-12T09:08:55.000Z</time></trkpt><trkpt lon="5.842841" lat="51.075335"><ele>26.6</ele><time>2022-06-12T09:08:56.000Z</time></trkpt><trkpt lon="5.842793" lat="51.075388"><ele>26.8</ele><time>2022-06-12T09:08:57.000Z</time></trkpt><trkpt lon="5.842768" lat="51.075444"><ele>26.8</ele><time>2022-06-12T09:08:58.000Z</time></trkpt><trkpt lon="5.842752" lat="51.075502"><ele>26.6</ele><time>2022-06-12T09:08:59.000Z</time></trkpt><trkpt lon="5.84274" lat="51.075571"><ele>26.6</ele><time>2022-06-12T09:09:00.000Z</time></trkpt><trkpt lon="5.842741" lat="51.075628"><ele>26.6</ele><time>2022-06-12T09:09:01.000Z</time></trkpt><trkpt lon="5.842754" lat="51.075686"><ele>26.6</ele><time>2022-06-12T09:09:02.000Z</time></trkpt><trkpt lon="5.842776" lat="51.075739"><ele>26.8</ele><time>2022-06-12T09:09:03.000Z</time></trkpt><trkpt lon="5.842807" lat="51.075789"><ele>26.8</ele><time>2022-06-12T09:09:04.000Z</time></trkpt><trkpt lon="5.842834" lat="51.075835"><ele>27</ele><time>2022-06-12T09:09:05.000Z</time></trkpt><trkpt lon="5.842835" lat="51.075877"><ele>27</ele><time>2022-06-12T09:09:06.000Z</time></trkpt><trkpt lon="5.842805" lat="51.075918"><ele>27</ele><time>2022-06-12T09:09:07.000Z</time></trkpt><trkpt lon="5.842749" lat="51.075961"><ele>27</ele><time>2022-06-12T09:09:08.000Z</time></trkpt><trkpt lon="5.842679" lat="51.075998"><ele>27</ele><time>2022-06-12T09:09:09.000Z</time></trkpt><trkpt lon="5.842598" lat="51.076037"><ele>27</ele><time>2022-06-12T09:09:10.000Z</time></trkpt><trkpt lon="5.84251" lat="51.076083"><ele>27</ele><time>2022-06-12T09:09:11.000Z</time></trkpt><trkpt lon="5.842422" lat="51.076129"><ele>26.8</ele><time>2022-06-12T09:09:12.000Z</time></trkpt><trkpt lon="5.842336" lat="51.076178"><ele>26.8</ele><time>2022-06-12T09:09:13.000Z</time></trkpt><trkpt lon="5.842254" lat="51.076224"><ele>26.8</ele><time>2022-06-12T09:09:14.000Z</time></trkpt><trkpt lon="5.842172" lat="51.076277"><ele>26.8</ele><time>2022-06-12T09:09:15.000Z</time></trkpt><trkpt lon="5.842087" lat="51.076326"><ele>26.8</ele><time>2022-06-12T09:09:16.000Z</time></trkpt><trkpt lon="5.842001" lat="51.07638"><ele>26.8</ele><time>2022-06-12T09:09:17.000Z</time></trkpt><trkpt lon="5.841916" lat="51.076426"><ele>26.8</ele><time>2022-06-12T09:09:18.000Z</time></trkpt><trkpt lon="5.841831" lat="51.076472"><ele>26.8</ele><time>2022-06-12T09:09:19.000Z</time></trkpt><trkpt lon="5.841743" lat="51.076518"><ele>26.8</ele><time>2022-06-12T09:09:20.000Z</time></trkpt><trkpt lon="5.841653" lat="51.07656"><ele>26.8</ele><time>2022-06-12T09:09:21.000Z</time></trkpt><trkpt lon="5.841567" lat="51.076596"><ele>26.8</ele><time>2022-06-12T09:09:22.000Z</time></trkpt><trkpt lon="5.841468" lat="51.07664"><ele>26.8</ele><time>2022-06-12T09:09:23.000Z</time></trkpt><trkpt lon="5.841375" lat="51.076678"><ele>26.8</ele><time>2022-06-12T09:09:24.000Z</time></trkpt><trkpt lon="5.84128" lat="51.076716"><ele>26.8</ele><time>2022-06-12T09:09:25.000Z</time></trkpt><trkpt lon="5.841184" lat="51.076758"><ele>27</ele><time>2022-06-12T09:09:26.000Z</time></trkpt><trkpt lon="5.84109" lat="51.076793"><ele>27</ele><time>2022-06-12T09:09:27.000Z</time></trkpt><trkpt lon="5.840996" lat="51.076831"><ele>27</ele><time>2022-06-12T09:09:28.000Z</time></trkpt><trkpt lon="5.840904" lat="51.076868"><ele>27</ele><time>2022-06-12T09:09:29.000Z</time></trkpt><trkpt lon="5.84081" lat="51.076907"><ele>27</ele><time>2022-06-12T09:09:30.000Z</time></trkpt><trkpt lon="5.840718" lat="51.076941"><ele>27</ele><time>2022-06-12T09:09:31.000Z</time></trkpt><trkpt lon="5.840624" lat="51.07698"><ele>27</ele><time>2022-06-12T09:09:32.000Z</time></trkpt><trkpt lon="5.840532" lat="51.077014"><ele>27</ele><time>2022-06-12T09:09:33.000Z</time></trkpt><trkpt lon="5.840435" lat="51.077052"><ele>27.2</ele><time>2022-06-12T09:09:34.000Z</time></trkpt><trkpt lon="5.840341" lat="51.077086"><ele>27.2</ele><time>2022-06-12T09:09:35.000Z</time></trkpt><trkpt lon="5.840254" lat="51.077124"><ele>27</ele><time>2022-06-12T09:09:36.000Z</time></trkpt><trkpt lon="5.840166" lat="51.077162"><ele>27</ele><time>2022-06-12T09:09:37.000Z</time></trkpt><trkpt lon="5.840077" lat="51.077197"><ele>27</ele><time>2022-06-12T09:09:38.000Z</time></trkpt><trkpt lon="5.839988" lat="51.077235"><ele>27</ele><time>2022-06-12T09:09:39.000Z</time></trkpt><trkpt lon="5.8399" lat="51.077269"><ele>27</ele><time>2022-06-12T09:09:40.000Z</time></trkpt><trkpt lon="5.839818" lat="51.077301"><ele>27</ele><time>2022-06-12T09:09:41.000Z</time></trkpt><trkpt lon="5.839721" lat="51.077335"><ele>27</ele><time>2022-06-12T09:09:42.000Z</time></trkpt><trkpt lon="5.839634" lat="51.077365"><ele>27</ele><time>2022-06-12T09:09:43.000Z</time></trkpt><trkpt lon="5.839544" lat="51.077395"><ele>27</ele><time>2022-06-12T09:09:44.000Z</time></trkpt><trkpt lon="5.839461" lat="51.077419"><ele>27</ele><time>2022-06-12T09:09:45.000Z</time></trkpt><trkpt lon="5.839383" lat="51.077438"><ele>27</ele><time>2022-06-12T09:09:46.000Z</time></trkpt><trkpt lon="5.839313" lat="51.077442"><ele>27</ele><time>2022-06-12T09:09:47.000Z</time></trkpt><trkpt lon="5.839249" lat="51.077438"><ele>27.2</ele><time>2022-06-12T09:09:48.000Z</time></trkpt><trkpt lon="5.839204" lat="51.077424"><ele>27.2</ele><time>2022-06-12T09:09:49.000Z</time></trkpt><trkpt lon="5.839167" lat="51.077408"><ele>27.4</ele><time>2022-06-12T09:09:50.000Z</time></trkpt><trkpt lon="5.839125" lat="51.0774"><ele>27.4</ele><time>2022-06-12T09:09:51.000Z</time></trkpt><trkpt lon="5.839076" lat="51.077411"><ele>27.6</ele><time>2022-06-12T09:09:52.000Z</time></trkpt><trkpt lon="5.839017" lat="51.077434"><ele>27.8</ele><time>2022-06-12T09:09:53.000Z</time></trkpt><trkpt lon="5.838949" lat="51.077464"><ele>27.8</ele><time>2022-06-12T09:09:54.000Z</time></trkpt><trkpt lon="5.838871" lat="51.077494"><ele>27.8</ele><time>2022-06-12T09:09:55.000Z</time></trkpt><trkpt lon="5.838782" lat="51.077525"><ele>28</ele><time>2022-06-12T09:09:56.000Z</time></trkpt><trkpt lon="5.838691" lat="51.077555"><ele>28</ele><time>2022-06-12T09:09:57.000Z</time></trkpt><trkpt lon="5.838589" lat="51.07759"><ele>28</ele><time>2022-06-12T09:09:58.000Z</time></trkpt><trkpt lon="5.838484" lat="51.07762"><ele>28</ele><time>2022-06-12T09:09:59.000Z</time></trkpt><trkpt lon="5.838377" lat="51.077651"><ele>28</ele><time>2022-06-12T09:10:00.000Z</time></trkpt><trkpt lon="5.838269" lat="51.077678"><ele>28</ele><time>2022-06-12T09:10:01.000Z</time></trkpt><trkpt lon="5.838158" lat="51.077708"><ele>27.8</ele><time>2022-06-12T09:10:02.000Z</time></trkpt><trkpt lon="5.838045" lat="51.077735"><ele>27.8</ele><time>2022-06-12T09:10:03.000Z</time></trkpt><trkpt lon="5.837928" lat="51.077762"><ele>27.6</ele><time>2022-06-12T09:10:04.000Z</time></trkpt><trkpt lon="5.83781" lat="51.077788"><ele>27.6</ele><time>2022-06-12T09:10:05.000Z</time></trkpt><trkpt lon="5.83769" lat="51.077811"><ele>27.8</ele><time>2022-06-12T09:10:06.000Z</time></trkpt><trkpt lon="5.837572" lat="51.077838"><ele>27.8</ele><time>2022-06-12T09:10:07.000Z</time></trkpt><trkpt lon="5.837459" lat="51.077861"><ele>27.8</ele><time>2022-06-12T09:10:08.000Z</time></trkpt><trkpt lon="5.837347" lat="51.077884"><ele>27.8</ele><time>2022-06-12T09:10:09.000Z</time></trkpt><trkpt lon="5.837236" lat="51.077907"><ele>27.8</ele><time>2022-06-12T09:10:10.000Z</time></trkpt><trkpt lon="5.837124" lat="51.07793"><ele>27.8</ele><time>2022-06-12T09:10:11.000Z</time></trkpt><trkpt lon="5.837012" lat="51.077953"><ele>27.8</ele><time>2022-06-12T09:10:12.000Z</time></trkpt><trkpt lon="5.836904" lat="51.077972"><ele>27.8</ele><time>2022-06-12T09:10:13.000Z</time></trkpt><trkpt lon="5.836798" lat="51.077995"><ele>27.8</ele><time>2022-06-12T09:10:14.000Z</time></trkpt><trkpt lon="5.836693" lat="51.078017"><ele>27.8</ele><time>2022-06-12T09:10:15.000Z</time></trkpt><trkpt lon="5.836589" lat="51.078037"><ele>27.8</ele><time>2022-06-12T09:10:16.000Z</time></trkpt><trkpt lon="5.83648" lat="51.078059"><ele>27.8</ele><time>2022-06-12T09:10:17.000Z</time></trkpt><trkpt lon="5.836374" lat="51.078086"><ele>27.8</ele><time>2022-06-12T09:10:18.000Z</time></trkpt><trkpt lon="5.836264" lat="51.078105"><ele>27.8</ele><time>2022-06-12T09:10:19.000Z</time></trkpt><trkpt lon="5.836155" lat="51.078132"><ele>27.8</ele><time>2022-06-12T09:10:20.000Z</time></trkpt><trkpt lon="5.836051" lat="51.078155"><ele>27.8</ele><time>2022-06-12T09:10:21.000Z</time></trkpt><trkpt lon="5.835944" lat="51.078177"><ele>27.8</ele><time>2022-06-12T09:10:22.000Z</time></trkpt><trkpt lon="5.835842" lat="51.0782"><ele>27.6</ele><time>2022-06-12T09:10:23.000Z</time></trkpt><trkpt lon="5.835737" lat="51.078223"><ele>27.6</ele><time>2022-06-12T09:10:24.000Z</time></trkpt><trkpt lon="5.835629" lat="51.078242"><ele>27.6</ele><time>2022-06-12T09:10:25.000Z</time></trkpt><trkpt lon="5.835518" lat="51.078269"><ele>27.6</ele><time>2022-06-12T09:10:26.000Z</time></trkpt><trkpt lon="5.835409" lat="51.078288"><ele>27.6</ele><time>2022-06-12T09:10:27.000Z</time></trkpt><trkpt lon="5.835304" lat="51.07831"><ele>27.6</ele><time>2022-06-12T09:10:28.000Z</time></trkpt><trkpt lon="5.835185" lat="51.078334"><ele>27.6</ele><time>2022-06-12T09:10:29.000Z</time></trkpt><trkpt lon="5.835073" lat="51.078349"><ele>27.6</ele><time>2022-06-12T09:10:30.000Z</time></trkpt><trkpt lon="5.83496" lat="51.078369"><ele>27.6</ele><time>2022-06-12T09:10:31.000Z</time></trkpt><trkpt lon="5.834853" lat="51.078387"><ele>27.6</ele><time>2022-06-12T09:10:32.000Z</time></trkpt><trkpt lon="5.834744" lat="51.078403"><ele>27.6</ele><time>2022-06-12T09:10:33.000Z</time></trkpt><trkpt lon="5.834632" lat="51.078418"><ele>27.6</ele><time>2022-06-12T09:10:34.000Z</time></trkpt><trkpt lon="5.834519" lat="51.078433"><ele>27.6</ele><time>2022-06-12T09:10:35.000Z</time></trkpt><trkpt lon="5.834406" lat="51.078449"><ele>27.6</ele><time>2022-06-12T09:10:36.000Z</time></trkpt><trkpt lon="5.834289" lat="51.07846"><ele>27.6</ele><time>2022-06-12T09:10:37.000Z</time></trkpt><trkpt lon="5.834174" lat="51.078472"><ele>27.6</ele><time>2022-06-12T09:10:38.000Z</time></trkpt><trkpt lon="5.834062" lat="51.078483"><ele>27.6</ele><time>2022-06-12T09:10:39.000Z</time></trkpt><trkpt lon="5.833952" lat="51.078495"><ele>27.6</ele><time>2022-06-12T09:10:40.000Z</time></trkpt><trkpt lon="5.833842" lat="51.078502"><ele>27.6</ele><time>2022-06-12T09:10:41.000Z</time></trkpt><trkpt lon="5.833731" lat="51.078506"><ele>27.6</ele><time>2022-06-12T09:10:42.000Z</time></trkpt><trkpt lon="5.833621" lat="51.078514"><ele>27.8</ele><time>2022-06-12T09:10:43.000Z</time></trkpt><trkpt lon="5.833513" lat="51.078518"><ele>27.8</ele><time>2022-06-12T09:10:44.000Z</time></trkpt><trkpt lon="5.833405" lat="51.078518"><ele>27.8</ele><time>2022-06-12T09:10:45.000Z</time></trkpt><trkpt lon="5.833297" lat="51.078522"><ele>28</ele><time>2022-06-12T09:10:46.000Z</time></trkpt><trkpt lon="5.833194" lat="51.078522"><ele>28</ele><time>2022-06-12T09:10:47.000Z</time></trkpt><trkpt lon="5.833094" lat="51.078518"><ele>28</ele><time>2022-06-12T09:10:48.000Z</time></trkpt><trkpt lon="5.83299" lat="51.078518"><ele>28.2</ele><time>2022-06-12T09:10:49.000Z</time></trkpt><trkpt lon="5.832891" lat="51.078514"><ele>28</ele><time>2022-06-12T09:10:50.000Z</time></trkpt><trkpt lon="5.83279" lat="51.07851"><ele>28</ele><time>2022-06-12T09:10:51.000Z</time></trkpt><trkpt lon="5.832689" lat="51.078507"><ele>28</ele><time>2022-06-12T09:10:52.000Z</time></trkpt><trkpt lon="5.83259" lat="51.078503"><ele>28</ele><time>2022-06-12T09:10:53.000Z</time></trkpt><trkpt lon="5.832497" lat="51.078495"><ele>28</ele><time>2022-06-12T09:10:54.000Z</time></trkpt><trkpt lon="5.832407" lat="51.078491"><ele>28.2</ele><time>2022-06-12T09:10:55.000Z</time></trkpt><trkpt lon="5.832318" lat="51.078488"><ele>28.2</ele><time>2022-06-12T09:10:56.000Z</time></trkpt><trkpt lon="5.832234" lat="51.078484"><ele>28.4</ele><time>2022-06-12T09:10:57.000Z</time></trkpt><trkpt lon="5.832154" lat="51.078484"><ele>28.6</ele><time>2022-06-12T09:10:58.000Z</time></trkpt><trkpt lon="5.832078" lat="51.07848"><ele>28.8</ele><time>2022-06-12T09:10:59.000Z</time></trkpt><trkpt lon="5.832007" lat="51.07848"><ele>29</ele><time>2022-06-12T09:11:00.000Z</time></trkpt><trkpt lon="5.831945" lat="51.07848"><ele>29.2</ele><time>2022-06-12T09:11:01.000Z</time></trkpt><trkpt lon="5.831889" lat="51.07848"><ele>29.2</ele><time>2022-06-12T09:11:02.000Z</time></trkpt><trkpt lon="5.831837" lat="51.07848"><ele>29.4</ele><time>2022-06-12T09:11:03.000Z</time></trkpt><trkpt lon="5.831793" lat="51.07848"><ele>29.6</ele><time>2022-06-12T09:11:04.000Z</time></trkpt><trkpt lon="5.831757" lat="51.07848"><ele>29.8</ele><time>2022-06-12T09:11:05.000Z</time></trkpt><trkpt lon="5.831724" lat="51.07848"><ele>29.8</ele><time>2022-06-12T09:11:06.000Z</time></trkpt><trkpt lon="5.831703" lat="51.07848"><ele>30</ele><time>2022-06-12T09:11:07.000Z</time></trkpt><trkpt lon="5.831687" lat="51.07848"><ele>30</ele><time>2022-06-12T09:11:08.000Z</time></trkpt><trkpt lon="5.831673" lat="51.078484"><ele>30.2</ele><time>2022-06-12T09:11:28.000Z</time></trkpt><trkpt lon="5.831624" lat="51.078498"><ele>30.2</ele><time>2022-06-12T09:11:29.000Z</time></trkpt><trkpt lon="5.831591" lat="51.078503"><ele>30.4</ele><time>2022-06-12T09:11:30.000Z</time></trkpt><trkpt lon="5.831554" lat="51.078503"><ele>30.4</ele><time>2022-06-12T09:11:31.000Z</time></trkpt><trkpt lon="5.831506" lat="51.078503"><ele>30.4</ele><time>2022-06-12T09:11:32.000Z</time></trkpt><trkpt lon="5.831451" lat="51.078503"><ele>30.4</ele><time>2022-06-12T09:11:33.000Z</time></trkpt><trkpt lon="5.831392" lat="51.078499"><ele>30.6</ele><time>2022-06-12T09:11:34.000Z</time></trkpt><trkpt lon="5.831326" lat="51.078495"><ele>30.6</ele><time>2022-06-12T09:11:35.000Z</time></trkpt><trkpt lon="5.83126" lat="51.078491"><ele>30.8</ele><time>2022-06-12T09:11:36.000Z</time></trkpt><trkpt lon="5.83119" lat="51.078484"><ele>30.8</ele><time>2022-06-12T09:11:37.000Z</time></trkpt><trkpt lon="5.831113" lat="51.07848"><ele>31</ele><time>2022-06-12T09:11:38.000Z</time></trkpt><trkpt lon="5.83104" lat="51.07848"><ele>31.2</ele><time>2022-06-12T09:11:39.000Z</time></trkpt><trkpt lon="5.830965" lat="51.07848"><ele>31.2</ele><time>2022-06-12T09:11:40.000Z</time></trkpt><trkpt lon="5.830891" lat="51.078473"><ele>31.4</ele><time>2022-06-12T09:11:41.000Z</time></trkpt><trkpt lon="5.830802" lat="51.078469"><ele>31.4</ele><time>2022-06-12T09:11:42.000Z</time></trkpt><trkpt lon="5.830702" lat="51.078468"><ele>31.6</ele><time>2022-06-12T09:11:43.000Z</time></trkpt><trkpt lon="5.830592" lat="51.078468"><ele>31.8</ele><time>2022-06-12T09:11:44.000Z</time></trkpt><trkpt lon="5.830477" lat="51.078472"><ele>31.8</ele><time>2022-06-12T09:11:45.000Z</time></trkpt><trkpt lon="5.83036" lat="51.078472"><ele>32</ele><time>2022-06-12T09:11:46.000Z</time></trkpt><trkpt lon="5.830237" lat="51.078472"><ele>32.2</ele><time>2022-06-12T09:11:47.000Z</time></trkpt><trkpt lon="5.830113" lat="51.078472"><ele>32.4</ele><time>2022-06-12T09:11:48.000Z</time></trkpt><trkpt lon="5.829989" lat="51.078472"><ele>32.8</ele><time>2022-06-12T09:11:49.000Z</time></trkpt><trkpt lon="5.82987" lat="51.078476"><ele>33</ele><time>2022-06-12T09:11:50.000Z</time></trkpt><trkpt lon="5.829752" lat="51.07848"><ele>33.4</ele><time>2022-06-12T09:11:51.000Z</time></trkpt><trkpt lon="5.829646" lat="51.078483"><ele>33.8</ele><time>2022-06-12T09:11:52.000Z</time></trkpt><trkpt lon="5.829546" lat="51.078494"><ele>34</ele><time>2022-06-12T09:11:53.000Z</time></trkpt><trkpt lon="5.829445" lat="51.078499"><ele>34.2</ele><time>2022-06-12T09:11:54.000Z</time></trkpt><trkpt lon="5.829352" lat="51.078506"><ele>34.6</ele><time>2022-06-12T09:11:55.000Z</time></trkpt><trkpt lon="5.829258" lat="51.078517"><ele>34.8</ele><time>2022-06-12T09:11:56.000Z</time></trkpt><trkpt lon="5.829162" lat="51.078525"><ele>35</ele><time>2022-06-12T09:11:57.000Z</time></trkpt><trkpt lon="5.829059" lat="51.078537"><ele>35.2</ele><time>2022-06-12T09:11:58.000Z</time></trkpt><trkpt lon="5.828957" lat="51.078548"><ele>35.2</ele><time>2022-06-12T09:11:59.000Z</time></trkpt><trkpt lon="5.828859" lat="51.078559"><ele>35.2</ele><time>2022-06-12T09:12:00.000Z</time></trkpt><trkpt lon="5.82876" lat="51.078575"><ele>35.4</ele><time>2022-06-12T09:12:01.000Z</time></trkpt><trkpt lon="5.828659" lat="51.07859"><ele>35.6</ele><time>2022-06-12T09:12:02.000Z</time></trkpt><trkpt lon="5.828563" lat="51.078605"><ele>36</ele><time>2022-06-12T09:12:03.000Z</time></trkpt><trkpt lon="5.82847" lat="51.07862"><ele>36.2</ele><time>2022-06-12T09:12:04.000Z</time></trkpt><trkpt lon="5.828377" lat="51.078636"><ele>36.6</ele><time>2022-06-12T09:12:05.000Z</time></trkpt><trkpt lon="5.828286" lat="51.078651"><ele>36.8</ele><time>2022-06-12T09:12:06.000Z</time></trkpt><trkpt lon="5.828195" lat="51.07867"><ele>37</ele><time>2022-06-12T09:12:07.000Z</time></trkpt><trkpt lon="5.828107" lat="51.078689"><ele>37.4</ele><time>2022-06-12T09:12:08.000Z</time></trkpt><trkpt lon="5.828016" lat="51.078707"><ele>37.6</ele><time>2022-06-12T09:12:09.000Z</time></trkpt><trkpt lon="5.82792" lat="51.078723"><ele>37.8</ele><time>2022-06-12T09:12:10.000Z</time></trkpt><trkpt lon="5.827833" lat="51.078742"><ele>37.8</ele><time>2022-06-12T09:12:11.000Z</time></trkpt><trkpt lon="5.827743" lat="51.078762"><ele>38</ele><time>2022-06-12T09:12:12.000Z</time></trkpt><trkpt lon="5.827656" lat="51.078781"><ele>38.2</ele><time>2022-06-12T09:12:13.000Z</time></trkpt><trkpt lon="5.827571" lat="51.078803"><ele>38.4</ele><time>2022-06-12T09:12:14.000Z</time></trkpt><trkpt lon="5.827489" lat="51.078825"><ele>38.6</ele><time>2022-06-12T09:12:15.000Z</time></trkpt><trkpt lon="5.8274" lat="51.078849"><ele>39</ele><time>2022-06-12T09:12:16.000Z</time></trkpt><trkpt lon="5.827318" lat="51.078875"><ele>39.2</ele><time>2022-06-12T09:12:17.000Z</time></trkpt><trkpt lon="5.827234" lat="51.078898"><ele>39.4</ele><time>2022-06-12T09:12:18.000Z</time></trkpt><trkpt lon="5.827146" lat="51.078921"><ele>39.8</ele><time>2022-06-12T09:12:19.000Z</time></trkpt><trkpt lon="5.827064" lat="51.078944"><ele>40</ele><time>2022-06-12T09:12:20.000Z</time></trkpt><trkpt lon="5.826978" lat="51.078971"><ele>40</ele><time>2022-06-12T09:12:21.000Z</time></trkpt><trkpt lon="5.826893" lat="51.079001"><ele>40.2</ele><time>2022-06-12T09:12:22.000Z</time></trkpt><trkpt lon="5.826808" lat="51.079028"><ele>40.4</ele><time>2022-06-12T09:12:23.000Z</time></trkpt><trkpt lon="5.826721" lat="51.079059"><ele>40.6</ele><time>2022-06-12T09:12:24.000Z</time></trkpt><trkpt lon="5.826634" lat="51.079089"><ele>40.6</ele><time>2022-06-12T09:12:25.000Z</time></trkpt><trkpt lon="5.82655" lat="51.079116"><ele>40.8</ele><time>2022-06-12T09:12:26.000Z</time></trkpt><trkpt lon="5.826466" lat="51.079143"><ele>40.8</ele><time>2022-06-12T09:12:27.000Z</time></trkpt><trkpt lon="5.826382" lat="51.079172"><ele>41</ele><time>2022-06-12T09:12:28.000Z</time></trkpt><trkpt lon="5.826295" lat="51.079203"><ele>41</ele><time>2022-06-12T09:12:29.000Z</time></trkpt><trkpt lon="5.826204" lat="51.079234"><ele>41.2</ele><time>2022-06-12T09:12:30.000Z</time></trkpt><trkpt lon="5.826113" lat="51.079264"><ele>41.4</ele><time>2022-06-12T09:12:31.000Z</time></trkpt><trkpt lon="5.826022" lat="51.079295"><ele>41.4</ele><time>2022-06-12T09:12:32.000Z</time></trkpt><trkpt lon="5.82593" lat="51.079326"><ele>41.6</ele><time>2022-06-12T09:12:33.000Z</time></trkpt><trkpt lon="5.825838" lat="51.079356"><ele>41.6</ele><time>2022-06-12T09:12:34.000Z</time></trkpt><trkpt lon="5.825745" lat="51.07939"><ele>41.8</ele><time>2022-06-12T09:12:35.000Z</time></trkpt><trkpt lon="5.825648" lat="51.079421"><ele>41.8</ele><time>2022-06-12T09:12:36.000Z</time></trkpt><trkpt lon="5.825558" lat="51.07945"><ele>42</ele><time>2022-06-12T09:12:37.000Z</time></trkpt><trkpt lon="5.82546" lat="51.079485"><ele>42</ele><time>2022-06-12T09:12:38.000Z</time></trkpt><trkpt lon="5.825365" lat="51.079516"><ele>42</ele><time>2022-06-12T09:12:39.000Z</time></trkpt><trkpt lon="5.825273" lat="51.079551"><ele>42</ele><time>2022-06-12T09:12:40.000Z</time></trkpt><trkpt lon="5.825183" lat="51.079584"><ele>42</ele><time>2022-06-12T09:12:41.000Z</time></trkpt><trkpt lon="5.825086" lat="51.079615"><ele>42</ele><time>2022-06-12T09:12:42.000Z</time></trkpt><trkpt lon="5.824988" lat="51.07965"><ele>41.8</ele><time>2022-06-12T09:12:43.000Z</time></trkpt><trkpt lon="5.824895" lat="51.079684"><ele>41.8</ele><time>2022-06-12T09:12:44.000Z</time></trkpt><trkpt lon="5.8248" lat="51.079718"><ele>41.8</ele><time>2022-06-12T09:12:45.000Z</time></trkpt><trkpt lon="5.824704" lat="51.079749"><ele>41.6</ele><time>2022-06-12T09:12:46.000Z</time></trkpt><trkpt lon="5.824609" lat="51.079782"><ele>41.6</ele><time>2022-06-12T09:12:47.000Z</time></trkpt><trkpt lon="5.82451" lat="51.079821"><ele>41.4</ele><time>2022-06-12T09:12:48.000Z</time></trkpt><trkpt lon="5.824411" lat="51.079855"><ele>41.4</ele><time>2022-06-12T09:12:49.000Z</time></trkpt><trkpt lon="5.824309" lat="51.07989"><ele>41.2</ele><time>2022-06-12T09:12:50.000Z</time></trkpt><trkpt lon="5.824209" lat="51.079924"><ele>41</ele><time>2022-06-12T09:12:51.000Z</time></trkpt><trkpt lon="5.824108" lat="51.079958"><ele>41</ele><time>2022-06-12T09:12:52.000Z</time></trkpt><trkpt lon="5.824004" lat="51.079997"><ele>40.8</ele><time>2022-06-12T09:12:53.000Z</time></trkpt><trkpt lon="5.823899" lat="51.080035"><ele>40.6</ele><time>2022-06-12T09:12:54.000Z</time></trkpt><trkpt lon="5.823792" lat="51.080069"><ele>40.4</ele><time>2022-06-12T09:12:55.000Z</time></trkpt><trkpt lon="5.823687" lat="51.080107"><ele>40.2</ele><time>2022-06-12T09:12:56.000Z</time></trkpt><trkpt lon="5.823578" lat="51.080146"><ele>39.8</ele><time>2022-06-12T09:12:57.000Z</time></trkpt><trkpt lon="5.823468" lat="51.080184"><ele>39.6</ele><time>2022-06-12T09:12:58.000Z</time></trkpt><trkpt lon="5.823364" lat="51.080223"><ele>39.4</ele><time>2022-06-12T09:12:59.000Z</time></trkpt><trkpt lon="5.823244" lat="51.080264"><ele>39</ele><time>2022-06-12T09:13:00.000Z</time></trkpt><trkpt lon="5.823132" lat="51.080301"><ele>38.8</ele><time>2022-06-12T09:13:01.000Z</time></trkpt><trkpt lon="5.823017" lat="51.08034"><ele>38.4</ele><time>2022-06-12T09:13:02.000Z</time></trkpt><trkpt lon="5.8229" lat="51.080378"><ele>38</ele><time>2022-06-12T09:13:03.000Z</time></trkpt><trkpt lon="5.822791" lat="51.080412"><ele>37.6</ele><time>2022-06-12T09:13:04.000Z</time></trkpt><trkpt lon="5.822676" lat="51.080446"><ele>37.4</ele><time>2022-06-12T09:13:05.000Z</time></trkpt><trkpt lon="5.822557" lat="51.080485"><ele>37.2</ele><time>2022-06-12T09:13:06.000Z</time></trkpt><trkpt lon="5.82244" lat="51.080515"><ele>36.8</ele><time>2022-06-12T09:13:07.000Z</time></trkpt><trkpt lon="5.822321" lat="51.08055"><ele>36.6</ele><time>2022-06-12T09:13:08.000Z</time></trkpt><trkpt lon="5.822201" lat="51.080584"><ele>36.2</ele><time>2022-06-12T09:13:09.000Z</time></trkpt><trkpt lon="5.822081" lat="51.080615"><ele>36</ele><time>2022-06-12T09:13:10.000Z</time></trkpt><trkpt lon="5.821961" lat="51.080645"><ele>35.6</ele><time>2022-06-12T09:13:11.000Z</time></trkpt><trkpt lon="5.821834" lat="51.080672"><ele>35.4</ele><time>2022-06-12T09:13:12.000Z</time></trkpt><trkpt lon="5.821707" lat="51.080699"><ele>35</ele><time>2022-06-12T09:13:13.000Z</time></trkpt><trkpt lon="5.821581" lat="51.080722"><ele>34.8</ele><time>2022-06-12T09:13:14.000Z</time></trkpt><trkpt lon="5.821454" lat="51.080749"><ele>34.4</ele><time>2022-06-12T09:13:15.000Z</time></trkpt><trkpt lon="5.821331" lat="51.080772"><ele>34</ele><time>2022-06-12T09:13:16.000Z</time></trkpt><trkpt lon="5.82121" lat="51.080794"><ele>33.8</ele><time>2022-06-12T09:13:17.000Z</time></trkpt><trkpt lon="5.821083" lat="51.080817"><ele>33.4</ele><time>2022-06-12T09:13:18.000Z</time></trkpt><trkpt lon="5.820956" lat="51.080836"><ele>33</ele><time>2022-06-12T09:13:19.000Z</time></trkpt><trkpt lon="5.820827" lat="51.080852"><ele>32.6</ele><time>2022-06-12T09:13:20.000Z</time></trkpt><trkpt lon="5.820698" lat="51.080867"><ele>32.4</ele><time>2022-06-12T09:13:21.000Z</time></trkpt><trkpt lon="5.820563" lat="51.080879"><ele>32</ele><time>2022-06-12T09:13:22.000Z</time></trkpt><trkpt lon="5.820427" lat="51.080894"><ele>31.8</ele><time>2022-06-12T09:13:23.000Z</time></trkpt><trkpt lon="5.820287" lat="51.080905"><ele>31.4</ele><time>2022-06-12T09:13:24.000Z</time></trkpt><trkpt lon="5.820148" lat="51.080917"><ele>31</ele><time>2022-06-12T09:13:25.000Z</time></trkpt><trkpt lon="5.820003" lat="51.080925"><ele>30.8</ele><time>2022-06-12T09:13:26.000Z</time></trkpt><trkpt lon="5.819863" lat="51.080932"><ele>30.4</ele><time>2022-06-12T09:13:27.000Z</time></trkpt><trkpt lon="5.819723" lat="51.08094"><ele>30</ele><time>2022-06-12T09:13:28.000Z</time></trkpt><trkpt lon="5.819575" lat="51.080951"><ele>29.8</ele><time>2022-06-12T09:13:29.000Z</time></trkpt><trkpt lon="5.819434" lat="51.080955"><ele>29.4</ele><time>2022-06-12T09:13:30.000Z</time></trkpt><trkpt lon="5.81929" lat="51.080963"><ele>29.2</ele><time>2022-06-12T09:13:31.000Z</time></trkpt><trkpt lon="5.819148" lat="51.08097"><ele>28.8</ele><time>2022-06-12T09:13:32.000Z</time></trkpt><trkpt lon="5.818996" lat="51.080978"><ele>28.6</ele><time>2022-06-12T09:13:33.000Z</time></trkpt><trkpt lon="5.818844" lat="51.080986"><ele>28.2</ele><time>2022-06-12T09:13:34.000Z</time></trkpt><trkpt lon="5.818692" lat="51.080997"><ele>28</ele><time>2022-06-12T09:13:35.000Z</time></trkpt><trkpt lon="5.818546" lat="51.081005"><ele>27.6</ele><time>2022-06-12T09:13:36.000Z</time></trkpt><trkpt lon="5.818404" lat="51.081012"><ele>27.6</ele><time>2022-06-12T09:13:37.000Z</time></trkpt><trkpt lon="5.818263" lat="51.08102"><ele>27.2</ele><time>2022-06-12T09:13:38.000Z</time></trkpt><trkpt lon="5.818121" lat="51.081031"><ele>27.2</ele><time>2022-06-12T09:13:39.000Z</time></trkpt><trkpt lon="5.817982" lat="51.081039"><ele>27</ele><time>2022-06-12T09:13:40.000Z</time></trkpt><trkpt lon="5.817846" lat="51.081047"><ele>26.8</ele><time>2022-06-12T09:13:41.000Z</time></trkpt><trkpt lon="5.817711" lat="51.081058"><ele>26.6</ele><time>2022-06-12T09:13:42.000Z</time></trkpt><trkpt lon="5.817575" lat="51.081069"><ele>26.6</ele><time>2022-06-12T09:13:43.000Z</time></trkpt><trkpt lon="5.81744" lat="51.081077"><ele>26.4</ele><time>2022-06-12T09:13:44.000Z</time></trkpt><trkpt lon="5.817309" lat="51.081085"><ele>26.4</ele><time>2022-06-12T09:13:45.000Z</time></trkpt><trkpt lon="5.817182" lat="51.081093"><ele>26.4</ele><time>2022-06-12T09:13:46.000Z</time></trkpt><trkpt lon="5.81706" lat="51.081096"><ele>26.4</ele><time>2022-06-12T09:13:47.000Z</time></trkpt><trkpt lon="5.816938" lat="51.0811"><ele>26.2</ele><time>2022-06-12T09:13:48.000Z</time></trkpt><trkpt lon="5.816818" lat="51.081108"><ele>26.2</ele><time>2022-06-12T09:13:49.000Z</time></trkpt><trkpt lon="5.816703" lat="51.081115"><ele>26.2</ele><time>2022-06-12T09:13:50.000Z</time></trkpt><trkpt lon="5.81659" lat="51.081123"><ele>26.2</ele><time>2022-06-12T09:13:51.000Z</time></trkpt><trkpt lon="5.816477" lat="51.081134"><ele>26.2</ele><time>2022-06-12T09:13:52.000Z</time></trkpt><trkpt lon="5.816367" lat="51.081146"><ele>26.2</ele><time>2022-06-12T09:13:53.000Z</time></trkpt><trkpt lon="5.816259" lat="51.081157"><ele>26.2</ele><time>2022-06-12T09:13:54.000Z</time></trkpt><trkpt lon="5.816149" lat="51.081172"><ele>26.2</ele><time>2022-06-12T09:13:55.000Z</time></trkpt><trkpt lon="5.816037" lat="51.081188"><ele>26.2</ele><time>2022-06-12T09:13:56.000Z</time></trkpt><trkpt lon="5.815929" lat="51.081203"><ele>26.2</ele><time>2022-06-12T09:13:57.000Z</time></trkpt><trkpt lon="5.815819" lat="51.081218"><ele>26.2</ele><time>2022-06-12T09:13:58.000Z</time></trkpt><trkpt lon="5.815705" lat="51.081237"><ele>26</ele><time>2022-06-12T09:13:59.000Z</time></trkpt><trkpt lon="5.815596" lat="51.081252"><ele>25.8</ele><time>2022-06-12T09:14:00.000Z</time></trkpt><trkpt lon="5.815486" lat="51.081271"><ele>25.8</ele><time>2022-06-12T09:14:01.000Z</time></trkpt><trkpt lon="5.815378" lat="51.081294"><ele>25.8</ele><time>2022-06-12T09:14:02.000Z</time></trkpt><trkpt lon="5.815271" lat="51.081313"><ele>25.8</ele><time>2022-06-12T09:14:03.000Z</time></trkpt><trkpt lon="5.815164" lat="51.081332"><ele>25.6</ele><time>2022-06-12T09:14:04.000Z</time></trkpt><trkpt lon="5.815057" lat="51.081355"><ele>25.6</ele><time>2022-06-12T09:14:05.000Z</time></trkpt><trkpt lon="5.81495" lat="51.081378"><ele>25.6</ele><time>2022-06-12T09:14:06.000Z</time></trkpt><trkpt lon="5.814845" lat="51.081401"><ele>25.6</ele><time>2022-06-12T09:14:07.000Z</time></trkpt><trkpt lon="5.814741" lat="51.081424"><ele>25.8</ele><time>2022-06-12T09:14:08.000Z</time></trkpt><trkpt lon="5.81464" lat="51.08145"><ele>25.8</ele><time>2022-06-12T09:14:09.000Z</time></trkpt><trkpt lon="5.814532" lat="51.08147"><ele>25.8</ele><time>2022-06-12T09:14:10.000Z</time></trkpt><trkpt lon="5.814429" lat="51.081493"><ele>25.8</ele><time>2022-06-12T09:14:11.000Z</time></trkpt><trkpt lon="5.814328" lat="51.081519"><ele>25.8</ele><time>2022-06-12T09:14:12.000Z</time></trkpt><trkpt lon="5.814227" lat="51.081546"><ele>25.8</ele><time>2022-06-12T09:14:13.000Z</time></trkpt><trkpt lon="5.814127" lat="51.081573"><ele>25.8</ele><time>2022-06-12T09:14:14.000Z</time></trkpt><trkpt lon="5.814031" lat="51.081599"><ele>26</ele><time>2022-06-12T09:14:15.000Z</time></trkpt><trkpt lon="5.813937" lat="51.081622"><ele>26</ele><time>2022-06-12T09:14:16.000Z</time></trkpt><trkpt lon="5.813842" lat="51.081645"><ele>26</ele><time>2022-06-12T09:14:17.000Z</time></trkpt><trkpt lon="5.81375" lat="51.081672"><ele>26</ele><time>2022-06-12T09:14:18.000Z</time></trkpt><trkpt lon="5.813664" lat="51.081691"><ele>25.8</ele><time>2022-06-12T09:14:19.000Z</time></trkpt><trkpt lon="5.813574" lat="51.081714"><ele>25.8</ele><time>2022-06-12T09:14:20.000Z</time></trkpt><trkpt lon="5.813493" lat="51.081733"><ele>25.8</ele><time>2022-06-12T09:14:21.000Z</time></trkpt><trkpt lon="5.813419" lat="51.081755"><ele>25.8</ele><time>2022-06-12T09:14:22.000Z</time></trkpt><trkpt lon="5.813354" lat="51.081786"><ele>25.8</ele><time>2022-06-12T09:14:23.000Z</time></trkpt><trkpt lon="5.813308" lat="51.08182"><ele>25.8</ele><time>2022-06-12T09:14:24.000Z</time></trkpt><trkpt lon="5.813275" lat="51.081854"><ele>25.8</ele><time>2022-06-12T09:14:25.000Z</time></trkpt><trkpt lon="5.813251" lat="51.081892"><ele>25.8</ele><time>2022-06-12T09:14:26.000Z</time></trkpt><trkpt lon="5.813231" lat="51.081927"><ele>26</ele><time>2022-06-12T09:14:27.000Z</time></trkpt><trkpt lon="5.813209" lat="51.081957"><ele>26</ele><time>2022-06-12T09:14:28.000Z</time></trkpt><trkpt lon="5.813184" lat="51.081984"><ele>26</ele><time>2022-06-12T09:14:29.000Z</time></trkpt><trkpt lon="5.813154" lat="51.082008"><ele>26</ele><time>2022-06-12T09:14:30.000Z</time></trkpt><trkpt lon="5.813117" lat="51.08203"><ele>26</ele><time>2022-06-12T09:14:31.000Z</time></trkpt><trkpt lon="5.813067" lat="51.082046"><ele>26.2</ele><time>2022-06-12T09:14:32.000Z</time></trkpt><trkpt lon="5.813003" lat="51.08205"><ele>26.2</ele><time>2022-06-12T09:14:33.000Z</time></trkpt><trkpt lon="5.812932" lat="51.08205"><ele>26.2</ele><time>2022-06-12T09:14:34.000Z</time></trkpt><trkpt lon="5.812855" lat="51.082039"><ele>26</ele><time>2022-06-12T09:14:35.000Z</time></trkpt><trkpt lon="5.812775" lat="51.082021"><ele>26</ele><time>2022-06-12T09:14:36.000Z</time></trkpt><trkpt lon="5.812692" lat="51.082005"><ele>26</ele><time>2022-06-12T09:14:37.000Z</time></trkpt><trkpt lon="5.8126" lat="51.081986"><ele>26.2</ele><time>2022-06-12T09:14:38.000Z</time></trkpt><trkpt lon="5.812509" lat="51.081975"><ele>26.2</ele><time>2022-06-12T09:14:39.000Z</time></trkpt><trkpt lon="5.81241" lat="51.081981"><ele>26.2</ele><time>2022-06-12T09:14:40.000Z</time></trkpt><trkpt lon="5.812311" lat="51.081993"><ele>26.2</ele><time>2022-06-12T09:14:41.000Z</time></trkpt><trkpt lon="5.812211" lat="51.082019"><ele>26.2</ele><time>2022-06-12T09:14:42.000Z</time></trkpt><trkpt lon="5.812108" lat="51.082042"><ele>26.2</ele><time>2022-06-12T09:14:43.000Z</time></trkpt><trkpt lon="5.812008" lat="51.082065"><ele>26.2</ele><time>2022-06-12T09:14:44.000Z</time></trkpt><trkpt lon="5.811908" lat="51.082088"><ele>26.2</ele><time>2022-06-12T09:14:45.000Z</time></trkpt><trkpt lon="5.811807" lat="51.082114"><ele>26.2</ele><time>2022-06-12T09:14:46.000Z</time></trkpt><trkpt lon="5.811702" lat="51.082137"><ele>26.2</ele><time>2022-06-12T09:14:47.000Z</time></trkpt><trkpt lon="5.811598" lat="51.08216"><ele>26.2</ele><time>2022-06-12T09:14:48.000Z</time></trkpt><trkpt lon="5.811492" lat="51.082183"><ele>26.4</ele><time>2022-06-12T09:14:49.000Z</time></trkpt><trkpt lon="5.811384" lat="51.08221"><ele>26.4</ele><time>2022-06-12T09:14:50.000Z</time></trkpt><trkpt lon="5.811272" lat="51.082236"><ele>26.4</ele><time>2022-06-12T09:14:51.000Z</time></trkpt><trkpt lon="5.811163" lat="51.082263"><ele>26.4</ele><time>2022-06-12T09:14:52.000Z</time></trkpt><trkpt lon="5.811051" lat="51.082293"><ele>26.4</ele><time>2022-06-12T09:14:53.000Z</time></trkpt><trkpt lon="5.81094" lat="51.082324"><ele>26.4</ele><time>2022-06-12T09:14:54.000Z</time></trkpt><trkpt lon="5.810832" lat="51.082354"><ele>26.4</ele><time>2022-06-12T09:14:55.000Z</time></trkpt><trkpt lon="5.810722" lat="51.082385"><ele>26.4</ele><time>2022-06-12T09:14:56.000Z</time></trkpt><trkpt lon="5.810616" lat="51.082422"><ele>26.4</ele><time>2022-06-12T09:14:57.000Z</time></trkpt><trkpt lon="5.810509" lat="51.082461"><ele>26.4</ele><time>2022-06-12T09:14:58.000Z</time></trkpt><trkpt lon="5.810407" lat="51.082499"><ele>26.4</ele><time>2022-06-12T09:14:59.000Z</time></trkpt><trkpt lon="5.810309" lat="51.082541"><ele>26.4</ele><time>2022-06-12T09:15:00.000Z</time></trkpt><trkpt lon="5.810218" lat="51.082585"><ele>26.4</ele><time>2022-06-12T09:15:01.000Z</time></trkpt><trkpt lon="5.810127" lat="51.082632"><ele>26.4</ele><time>2022-06-12T09:15:02.000Z</time></trkpt><trkpt lon="5.810042" lat="51.082682"><ele>26.4</ele><time>2022-06-12T09:15:03.000Z</time></trkpt><trkpt lon="5.809958" lat="51.082731"><ele>26.4</ele><time>2022-06-12T09:15:04.000Z</time></trkpt><trkpt lon="5.809876" lat="51.082785"><ele>26.4</ele><time>2022-06-12T09:15:05.000Z</time></trkpt><trkpt lon="5.809798" lat="51.082838"><ele>26.4</ele><time>2022-06-12T09:15:06.000Z</time></trkpt><trkpt lon="5.809722" lat="51.082891"><ele>26.4</ele><time>2022-06-12T09:15:07.000Z</time></trkpt><trkpt lon="5.809645" lat="51.082945"><ele>26.6</ele><time>2022-06-12T09:15:08.000Z</time></trkpt><trkpt lon="5.809569" lat="51.082998"><ele>26.6</ele><time>2022-06-12T09:15:09.000Z</time></trkpt><trkpt lon="5.809493" lat="51.083052"><ele>26.6</ele><time>2022-06-12T09:15:10.000Z</time></trkpt><trkpt lon="5.809419" lat="51.083104"><ele>26.6</ele><time>2022-06-12T09:15:11.000Z</time></trkpt><trkpt lon="5.809342" lat="51.083154"><ele>26.6</ele><time>2022-06-12T09:15:12.000Z</time></trkpt><trkpt lon="5.809266" lat="51.083208"><ele>26.6</ele><time>2022-06-12T09:15:13.000Z</time></trkpt><trkpt lon="5.809189" lat="51.083261"><ele>26.6</ele><time>2022-06-12T09:15:14.000Z</time></trkpt><trkpt lon="5.809112" lat="51.083314"><ele>26.6</ele><time>2022-06-12T09:15:15.000Z</time></trkpt><trkpt lon="5.809031" lat="51.083368"><ele>26.6</ele><time>2022-06-12T09:15:16.000Z</time></trkpt><trkpt lon="5.808951" lat="51.083418"><ele>26.8</ele><time>2022-06-12T09:15:17.000Z</time></trkpt><trkpt lon="5.808869" lat="51.083471"><ele>26.8</ele><time>2022-06-12T09:15:18.000Z</time></trkpt><trkpt lon="5.80879" lat="51.083521"><ele>26.8</ele><time>2022-06-12T09:15:19.000Z</time></trkpt><trkpt lon="5.808711" lat="51.083571"><ele>26.8</ele><time>2022-06-12T09:15:20.000Z</time></trkpt><trkpt lon="5.808629" lat="51.08362"><ele>26.8</ele><time>2022-06-12T09:15:21.000Z</time></trkpt><trkpt lon="5.808547" lat="51.083669"><ele>27</ele><time>2022-06-12T09:15:22.000Z</time></trkpt><trkpt lon="5.808461" lat="51.083723"><ele>27</ele><time>2022-06-12T09:15:23.000Z</time></trkpt><trkpt lon="5.808375" lat="51.083773"><ele>27</ele><time>2022-06-12T09:15:24.000Z</time></trkpt><trkpt lon="5.808287" lat="51.083826"><ele>27</ele><time>2022-06-12T09:15:25.000Z</time></trkpt><trkpt lon="5.8082" lat="51.083876"><ele>27</ele><time>2022-06-12T09:15:26.000Z</time></trkpt><trkpt lon="5.808111" lat="51.083929"><ele>27</ele><time>2022-06-12T09:15:27.000Z</time></trkpt><trkpt lon="5.808023" lat="51.083986"><ele>26.8</ele><time>2022-06-12T09:15:28.000Z</time></trkpt><trkpt lon="5.807935" lat="51.08404"><ele>26.8</ele><time>2022-06-12T09:15:29.000Z</time></trkpt><trkpt lon="5.807848" lat="51.084093"><ele>26.8</ele><time>2022-06-12T09:15:30.000Z</time></trkpt><trkpt lon="5.807762" lat="51.084142"><ele>26.8</ele><time>2022-06-12T09:15:31.000Z</time></trkpt><trkpt lon="5.807674" lat="51.084194"><ele>26.8</ele><time>2022-06-12T09:15:32.000Z</time></trkpt><trkpt lon="5.807581" lat="51.084246"><ele>26.8</ele><time>2022-06-12T09:15:33.000Z</time></trkpt><trkpt lon="5.807496" lat="51.084291"><ele>26.8</ele><time>2022-06-12T09:15:34.000Z</time></trkpt><trkpt lon="5.807396" lat="51.084344"><ele>26.8</ele><time>2022-06-12T09:15:35.000Z</time></trkpt><trkpt lon="5.807306" lat="51.084395"><ele>26.6</ele><time>2022-06-12T09:15:36.000Z</time></trkpt><trkpt lon="5.807219" lat="51.084444"><ele>26.4</ele><time>2022-06-12T09:15:37.000Z</time></trkpt><trkpt lon="5.80713" lat="51.08449"><ele>26.4</ele><time>2022-06-12T09:15:38.000Z</time></trkpt><trkpt lon="5.807046" lat="51.084543"><ele>26.4</ele><time>2022-06-12T09:15:39.000Z</time></trkpt><trkpt lon="5.806957" lat="51.084589"><ele>26.4</ele><time>2022-06-12T09:15:40.000Z</time></trkpt><trkpt lon="5.806872" lat="51.084635"><ele>26.4</ele><time>2022-06-12T09:15:41.000Z</time></trkpt><trkpt lon="5.806787" lat="51.084684"><ele>26.4</ele><time>2022-06-12T09:15:42.000Z</time></trkpt><trkpt lon="5.806698" lat="51.084727"><ele>26.4</ele><time>2022-06-12T09:15:43.000Z</time></trkpt><trkpt lon="5.806611" lat="51.084776"><ele>26.4</ele><time>2022-06-12T09:15:44.000Z</time></trkpt><trkpt lon="5.806527" lat="51.084821"><ele>26.4</ele><time>2022-06-12T09:15:45.000Z</time></trkpt><trkpt lon="5.806439" lat="51.084871"><ele>26.6</ele><time>2022-06-12T09:15:46.000Z</time></trkpt><trkpt lon="5.806353" lat="51.084917"><ele>26.6</ele><time>2022-06-12T09:15:47.000Z</time></trkpt><trkpt lon="5.806268" lat="51.084963"><ele>26.6</ele><time>2022-06-12T09:15:48.000Z</time></trkpt><trkpt lon="5.806188" lat="51.085006"><ele>26.6</ele><time>2022-06-12T09:15:49.000Z</time></trkpt><trkpt lon="5.806096" lat="51.085055"><ele>26.6</ele><time>2022-06-12T09:15:50.000Z</time></trkpt><trkpt lon="5.806008" lat="51.085101"><ele>26.6</ele><time>2022-06-12T09:15:51.000Z</time></trkpt><trkpt lon="5.805925" lat="51.08515"><ele>26.6</ele><time>2022-06-12T09:15:52.000Z</time></trkpt><trkpt lon="5.805843" lat="51.085192"><ele>26.6</ele><time>2022-06-12T09:15:53.000Z</time></trkpt><trkpt lon="5.805763" lat="51.085238"><ele>26.6</ele><time>2022-06-12T09:15:54.000Z</time></trkpt><trkpt lon="5.805684" lat="51.085284"><ele>26.6</ele><time>2022-06-12T09:15:55.000Z</time></trkpt><trkpt lon="5.805609" lat="51.085332"><ele>26.6</ele><time>2022-06-12T09:15:56.000Z</time></trkpt><trkpt lon="5.805536" lat="51.085379"><ele>26.6</ele><time>2022-06-12T09:15:57.000Z</time></trkpt><trkpt lon="5.805465" lat="51.085432"><ele>26.6</ele><time>2022-06-12T09:15:58.000Z</time></trkpt><trkpt lon="5.805409" lat="51.08547"><ele>26.6</ele><time>2022-06-12T09:15:59.000Z</time></trkpt><trkpt lon="5.805328" lat="51.085535"><ele>26.6</ele><time>2022-06-12T09:16:00.000Z</time></trkpt><trkpt lon="5.805264" lat="51.085588"><ele>26.8</ele><time>2022-06-12T09:16:01.000Z</time></trkpt><trkpt lon="5.805201" lat="51.08564"><ele>26.6</ele><time>2022-06-12T09:16:02.000Z</time></trkpt><trkpt lon="5.805137" lat="51.085695"><ele>26.6</ele><time>2022-06-12T09:16:03.000Z</time></trkpt><trkpt lon="5.805084" lat="51.085745"><ele>26.6</ele><time>2022-06-12T09:16:04.000Z</time></trkpt><trkpt lon="5.805035" lat="51.085791"><ele>26.6</ele><time>2022-06-12T09:16:05.000Z</time></trkpt><trkpt lon="5.804987" lat="51.085836"><ele>26.8</ele><time>2022-06-12T09:16:06.000Z</time></trkpt><trkpt lon="5.804939" lat="51.085878"><ele>26.8</ele><time>2022-06-12T09:16:07.000Z</time></trkpt><trkpt lon="5.804892" lat="51.085921"><ele>26.8</ele><time>2022-06-12T09:16:08.000Z</time></trkpt><trkpt lon="5.80485" lat="51.085962"><ele>26.8</ele><time>2022-06-12T09:16:09.000Z</time></trkpt><trkpt lon="5.804806" lat="51.086001"><ele>26.8</ele><time>2022-06-12T09:16:10.000Z</time></trkpt><trkpt lon="5.804761" lat="51.086047"><ele>26.8</ele><time>2022-06-12T09:16:11.000Z</time></trkpt><trkpt lon="5.804716" lat="51.086087"><ele>26.8</ele><time>2022-06-12T09:16:12.000Z</time></trkpt><trkpt lon="5.804665" lat="51.086138"><ele>26.8</ele><time>2022-06-12T09:16:13.000Z</time></trkpt><trkpt lon="5.804612" lat="51.086187"><ele>26.8</ele><time>2022-06-12T09:16:14.000Z</time></trkpt><trkpt lon="5.804558" lat="51.086241"><ele>26.8</ele><time>2022-06-12T09:16:15.000Z</time></trkpt><trkpt lon="5.804505" lat="51.086294"><ele>27</ele><time>2022-06-12T09:16:16.000Z</time></trkpt><trkpt lon="5.804446" lat="51.086347"><ele>26.8</ele><time>2022-06-12T09:16:17.000Z</time></trkpt><trkpt lon="5.804384" lat="51.086405"><ele>26.8</ele><time>2022-06-12T09:16:18.000Z</time></trkpt><trkpt lon="5.804329" lat="51.086458"><ele>27</ele><time>2022-06-12T09:16:19.000Z</time></trkpt><trkpt lon="5.804275" lat="51.086515"><ele>27</ele><time>2022-06-12T09:16:20.000Z</time></trkpt><trkpt lon="5.80421" lat="51.086577"><ele>27</ele><time>2022-06-12T09:16:21.000Z</time></trkpt><trkpt lon="5.804146" lat="51.086639"><ele>27</ele><time>2022-06-12T09:16:22.000Z</time></trkpt><trkpt lon="5.804077" lat="51.086705"><ele>27</ele><time>2022-06-12T09:16:23.000Z</time></trkpt><trkpt lon="5.804008" lat="51.086774"><ele>27</ele><time>2022-06-12T09:16:24.000Z</time></trkpt><trkpt lon="5.803938" lat="51.086843"><ele>27</ele><time>2022-06-12T09:16:25.000Z</time></trkpt><trkpt lon="5.803873" lat="51.086911"><ele>27</ele><time>2022-06-12T09:16:26.000Z</time></trkpt><trkpt lon="5.80381" lat="51.086972"><ele>27</ele><time>2022-06-12T09:16:27.000Z</time></trkpt><trkpt lon="5.803746" lat="51.087034"><ele>27</ele><time>2022-06-12T09:16:28.000Z</time></trkpt><trkpt lon="5.803681" lat="51.087095"><ele>27</ele><time>2022-06-12T09:16:29.000Z</time></trkpt><trkpt lon="5.803614" lat="51.087156"><ele>27</ele><time>2022-06-12T09:16:30.000Z</time></trkpt><trkpt lon="5.803551" lat="51.087217"><ele>27.2</ele><time>2022-06-12T09:16:31.000Z</time></trkpt><trkpt lon="5.803487" lat="51.087277"><ele>27.2</ele><time>2022-06-12T09:16:32.000Z</time></trkpt><trkpt lon="5.803423" lat="51.087339"><ele>27.2</ele><time>2022-06-12T09:16:33.000Z</time></trkpt><trkpt lon="5.803361" lat="51.087394"><ele>27.4</ele><time>2022-06-12T09:16:34.000Z</time></trkpt><trkpt lon="5.803297" lat="51.087452"><ele>27.4</ele><time>2022-06-12T09:16:35.000Z</time></trkpt><trkpt lon="5.803234" lat="51.087511"><ele>27.4</ele><time>2022-06-12T09:16:36.000Z</time></trkpt><trkpt lon="5.803174" lat="51.087564"><ele>27.6</ele><time>2022-06-12T09:16:37.000Z</time></trkpt><trkpt lon="5.803113" lat="51.087621"><ele>27.8</ele><time>2022-06-12T09:16:38.000Z</time></trkpt><trkpt lon="5.803049" lat="51.087679"><ele>27.8</ele><time>2022-06-12T09:16:39.000Z</time></trkpt><trkpt lon="5.802987" lat="51.087736"><ele>27.8</ele><time>2022-06-12T09:16:40.000Z</time></trkpt><trkpt lon="5.802927" lat="51.087793"><ele>27.8</ele><time>2022-06-12T09:16:41.000Z</time></trkpt><trkpt lon="5.802864" lat="51.087854"><ele>27.8</ele><time>2022-06-12T09:16:42.000Z</time></trkpt><trkpt lon="5.8028" lat="51.087912"><ele>27.8</ele><time>2022-06-12T09:16:43.000Z</time></trkpt><trkpt lon="5.802738" lat="51.087973"><ele>27.8</ele><time>2022-06-12T09:16:44.000Z</time></trkpt><trkpt lon="5.802678" lat="51.08803"><ele>27.8</ele><time>2022-06-12T09:16:45.000Z</time></trkpt><trkpt lon="5.802617" lat="51.088091"><ele>27.8</ele><time>2022-06-12T09:16:46.000Z</time></trkpt><trkpt lon="5.802554" lat="51.088148"><ele>27.8</ele><time>2022-06-12T09:16:47.000Z</time></trkpt><trkpt lon="5.802493" lat="51.088209"><ele>27.8</ele><time>2022-06-12T09:16:48.000Z</time></trkpt><trkpt lon="5.802433" lat="51.088269"><ele>27.6</ele><time>2022-06-12T09:16:49.000Z</time></trkpt><trkpt lon="5.80237" lat="51.08833"><ele>27.6</ele><time>2022-06-12T09:16:50.000Z</time></trkpt><trkpt lon="5.802305" lat="51.088396"><ele>27.6</ele><time>2022-06-12T09:16:51.000Z</time></trkpt><trkpt lon="5.802242" lat="51.088455"><ele>27.6</ele><time>2022-06-12T09:16:52.000Z</time></trkpt><trkpt lon="5.80218" lat="51.088517"><ele>27.8</ele><time>2022-06-12T09:16:53.000Z</time></trkpt><trkpt lon="5.802124" lat="51.088572"><ele>27.8</ele><time>2022-06-12T09:16:54.000Z</time></trkpt><trkpt lon="5.80205" lat="51.088647"><ele>27.8</ele><time>2022-06-12T09:16:55.000Z</time></trkpt><trkpt lon="5.801984" lat="51.08871"><ele>27.6</ele><time>2022-06-12T09:16:56.000Z</time></trkpt><trkpt lon="5.801916" lat="51.088777"><ele>27.6</ele><time>2022-06-12T09:16:57.000Z</time></trkpt><trkpt lon="5.801852" lat="51.088842"><ele>27.6</ele><time>2022-06-12T09:16:58.000Z</time></trkpt><trkpt lon="5.801789" lat="51.088907"><ele>27.4</ele><time>2022-06-12T09:16:59.000Z</time></trkpt><trkpt lon="5.801724" lat="51.088968"><ele>27.4</ele><time>2022-06-12T09:17:00.000Z</time></trkpt><trkpt lon="5.801658" lat="51.089032"><ele>27.4</ele><time>2022-06-12T09:17:01.000Z</time></trkpt><trkpt lon="5.801591" lat="51.089097"><ele>27.4</ele><time>2022-06-12T09:17:02.000Z</time></trkpt><trkpt lon="5.801525" lat="51.089163"><ele>27.4</ele><time>2022-06-12T09:17:03.000Z</time></trkpt><trkpt lon="5.801461" lat="51.089227"><ele>27.4</ele><time>2022-06-12T09:17:04.000Z</time></trkpt><trkpt lon="5.801394" lat="51.089292"><ele>27.4</ele><time>2022-06-12T09:17:05.000Z</time></trkpt><trkpt lon="5.80133" lat="51.089353"><ele>27.4</ele><time>2022-06-12T09:17:06.000Z</time></trkpt><trkpt lon="5.80127" lat="51.089418"><ele>27.6</ele><time>2022-06-12T09:17:07.000Z</time></trkpt><trkpt lon="5.80121" lat="51.089479"><ele>27.6</ele><time>2022-06-12T09:17:08.000Z</time></trkpt><trkpt lon="5.801154" lat="51.089544"><ele>27.6</ele><time>2022-06-12T09:17:09.000Z</time></trkpt><trkpt lon="5.801094" lat="51.089609"><ele>27.4</ele><time>2022-06-12T09:17:10.000Z</time></trkpt><trkpt lon="5.801032" lat="51.089677"><ele>27.6</ele><time>2022-06-12T09:17:11.000Z</time></trkpt><trkpt lon="5.800973" lat="51.089742"><ele>27.6</ele><time>2022-06-12T09:17:12.000Z</time></trkpt><trkpt lon="5.800912" lat="51.089811"><ele>27.4</ele><time>2022-06-12T09:17:13.000Z</time></trkpt><trkpt lon="5.800859" lat="51.089879"><ele>27.4</ele><time>2022-06-12T09:17:14.000Z</time></trkpt><trkpt lon="5.800811" lat="51.089948"><ele>27.4</ele><time>2022-06-12T09:17:15.000Z</time></trkpt><trkpt lon="5.800772" lat="51.09002"><ele>27.4</ele><time>2022-06-12T09:17:16.000Z</time></trkpt><trkpt lon="5.800735" lat="51.090089"><ele>27.2</ele><time>2022-06-12T09:17:17.000Z</time></trkpt><trkpt lon="5.800706" lat="51.090165"><ele>27.2</ele><time>2022-06-12T09:17:18.000Z</time></trkpt><trkpt lon="5.800685" lat="51.090237"><ele>27.2</ele><time>2022-06-12T09:17:19.000Z</time></trkpt><trkpt lon="5.800667" lat="51.090314"><ele>27.2</ele><time>2022-06-12T09:17:20.000Z</time></trkpt><trkpt lon="5.800657" lat="51.090391"><ele>27.2</ele><time>2022-06-12T09:17:21.000Z</time></trkpt><trkpt lon="5.800652" lat="51.090464"><ele>27.2</ele><time>2022-06-12T09:17:22.000Z</time></trkpt><trkpt lon="5.80065" lat="51.090543"><ele>27.2</ele><time>2022-06-12T09:17:23.000Z</time></trkpt><trkpt lon="5.80065" lat="51.090619"><ele>27.2</ele><time>2022-06-12T09:17:24.000Z</time></trkpt><trkpt lon="5.800655" lat="51.090693"><ele>27</ele><time>2022-06-12T09:17:25.000Z</time></trkpt><trkpt lon="5.800661" lat="51.090767"><ele>27.2</ele><time>2022-06-12T09:17:26.000Z</time></trkpt><trkpt lon="5.800667" lat="51.09084"><ele>27.2</ele><time>2022-06-12T09:17:27.000Z</time></trkpt><trkpt lon="5.80067" lat="51.090913"><ele>27.2</ele><time>2022-06-12T09:17:28.000Z</time></trkpt><trkpt lon="5.800673" lat="51.090985"><ele>27.2</ele><time>2022-06-12T09:17:29.000Z</time></trkpt><trkpt lon="5.800675" lat="51.091058"><ele>27</ele><time>2022-06-12T09:17:30.000Z</time></trkpt><trkpt lon="5.800675" lat="51.09113"><ele>27</ele><time>2022-06-12T09:17:31.000Z</time></trkpt><trkpt lon="5.80067" lat="51.091197"><ele>27.2</ele><time>2022-06-12T09:17:32.000Z</time></trkpt><trkpt lon="5.80066" lat="51.091268"><ele>27.2</ele><time>2022-06-12T09:17:33.000Z</time></trkpt><trkpt lon="5.800644" lat="51.091337"><ele>27.4</ele><time>2022-06-12T09:17:34.000Z</time></trkpt><trkpt lon="5.800621" lat="51.091405"><ele>27.6</ele><time>2022-06-12T09:17:35.000Z</time></trkpt><trkpt lon="5.800592" lat="51.09147"><ele>27.6</ele><time>2022-06-12T09:17:36.000Z</time></trkpt><trkpt lon="5.800557" lat="51.091535"><ele>27.6</ele><time>2022-06-12T09:17:37.000Z</time></trkpt><trkpt lon="5.800512" lat="51.091596"><ele>27.8</ele><time>2022-06-12T09:17:38.000Z</time></trkpt><trkpt lon="5.800458" lat="51.091658"><ele>27.8</ele><time>2022-06-12T09:17:39.000Z</time></trkpt><trkpt lon="5.800402" lat="51.09171"><ele>28</ele><time>2022-06-12T09:17:40.000Z</time></trkpt><trkpt lon="5.800335" lat="51.091757"><ele>28</ele><time>2022-06-12T09:17:41.000Z</time></trkpt><trkpt lon="5.800273" lat="51.091798"><ele>28.2</ele><time>2022-06-12T09:17:42.000Z</time></trkpt><trkpt lon="5.800196" lat="51.091845"><ele>28.4</ele><time>2022-06-12T09:17:43.000Z</time></trkpt><trkpt lon="5.800118" lat="51.091891"><ele>28.6</ele><time>2022-06-12T09:17:44.000Z</time></trkpt><trkpt lon="5.800041" lat="51.091937"><ele>28.8</ele><time>2022-06-12T09:17:45.000Z</time></trkpt><trkpt lon="5.799966" lat="51.091978"><ele>29</ele><time>2022-06-12T09:17:46.000Z</time></trkpt><trkpt lon="5.799889" lat="51.092024"><ele>29</ele><time>2022-06-12T09:17:47.000Z</time></trkpt><trkpt lon="5.799813" lat="51.09207"><ele>29.2</ele><time>2022-06-12T09:17:48.000Z</time></trkpt><trkpt lon="5.799736" lat="51.092116"><ele>29.6</ele><time>2022-06-12T09:17:49.000Z</time></trkpt><trkpt lon="5.799661" lat="51.092161"><ele>29.8</ele><time>2022-06-12T09:17:50.000Z</time></trkpt><trkpt lon="5.799586" lat="51.092204"><ele>30</ele><time>2022-06-12T09:17:51.000Z</time></trkpt><trkpt lon="5.799517" lat="51.092246"><ele>30.4</ele><time>2022-06-12T09:17:52.000Z</time></trkpt><trkpt lon="5.799436" lat="51.092295"><ele>30.6</ele><time>2022-06-12T09:17:53.000Z</time></trkpt><trkpt lon="5.799364" lat="51.092336"><ele>30.8</ele><time>2022-06-12T09:17:54.000Z</time></trkpt><trkpt lon="5.79929" lat="51.092383"><ele>31.2</ele><time>2022-06-12T09:17:55.000Z</time></trkpt><trkpt lon="5.799216" lat="51.092425"><ele>31.4</ele><time>2022-06-12T09:17:56.000Z</time></trkpt><trkpt lon="5.799144" lat="51.092467"><ele>31.6</ele><time>2022-06-12T09:17:57.000Z</time></trkpt><trkpt lon="5.799075" lat="51.092508"><ele>31.8</ele><time>2022-06-12T09:17:58.000Z</time></trkpt><trkpt lon="5.799005" lat="51.092546"><ele>32</ele><time>2022-06-12T09:17:59.000Z</time></trkpt><trkpt lon="5.79893" lat="51.092589"><ele>32.2</ele><time>2022-06-12T09:18:00.000Z</time></trkpt><trkpt lon="5.798855" lat="51.092634"><ele>32.4</ele><time>2022-06-12T09:18:01.000Z</time></trkpt><trkpt lon="5.798781" lat="51.092675"><ele>32.4</ele><time>2022-06-12T09:18:02.000Z</time></trkpt><trkpt lon="5.798701" lat="51.092722"><ele>32.6</ele><time>2022-06-12T09:18:03.000Z</time></trkpt><trkpt lon="5.798624" lat="51.092768"><ele>32.8</ele><time>2022-06-12T09:18:04.000Z</time></trkpt><trkpt lon="5.798549" lat="51.09281"><ele>32.8</ele><time>2022-06-12T09:18:05.000Z</time></trkpt><trkpt lon="5.798475" lat="51.092852"><ele>32.8</ele><time>2022-06-12T09:18:06.000Z</time></trkpt><trkpt lon="5.7984" lat="51.092898"><ele>32.8</ele><time>2022-06-12T09:18:07.000Z</time></trkpt><trkpt lon="5.798326" lat="51.092942"><ele>32.8</ele><time>2022-06-12T09:18:08.000Z</time></trkpt><trkpt lon="5.798247" lat="51.092986"><ele>32.8</ele><time>2022-06-12T09:18:09.000Z</time></trkpt><trkpt lon="5.798171" lat="51.093031"><ele>32.8</ele><time>2022-06-12T09:18:10.000Z</time></trkpt><trkpt lon="5.798095" lat="51.093081"><ele>32.6</ele><time>2022-06-12T09:18:11.000Z</time></trkpt><trkpt lon="5.79803" lat="51.093118"><ele>32.4</ele><time>2022-06-12T09:18:12.000Z</time></trkpt><trkpt lon="5.797939" lat="51.093169"><ele>32.4</ele><time>2022-06-12T09:18:13.000Z</time></trkpt><trkpt lon="5.797864" lat="51.093214"><ele>32.2</ele><time>2022-06-12T09:18:14.000Z</time></trkpt><trkpt lon="5.797789" lat="51.093257"><ele>32</ele><time>2022-06-12T09:18:15.000Z</time></trkpt><trkpt lon="5.797719" lat="51.093298"><ele>31.6</ele><time>2022-06-12T09:18:16.000Z</time></trkpt><trkpt lon="5.797651" lat="51.09334"><ele>31.4</ele><time>2022-06-12T09:18:17.000Z</time></trkpt><trkpt lon="5.797578" lat="51.093378"><ele>31.2</ele><time>2022-06-12T09:18:18.000Z</time></trkpt><trkpt lon="5.797502" lat="51.093413"><ele>31</ele><time>2022-06-12T09:18:19.000Z</time></trkpt><trkpt lon="5.797428" lat="51.093447"><ele>30.6</ele><time>2022-06-12T09:18:20.000Z</time></trkpt><trkpt lon="5.797356" lat="51.093478"><ele>30.4</ele><time>2022-06-12T09:18:21.000Z</time></trkpt><trkpt lon="5.797295" lat="51.093507"><ele>30.2</ele><time>2022-06-12T09:18:22.000Z</time></trkpt><trkpt lon="5.797235" lat="51.093535"><ele>30</ele><time>2022-06-12T09:18:23.000Z</time></trkpt><trkpt lon="5.797189" lat="51.093562"><ele>29.6</ele><time>2022-06-12T09:18:24.000Z</time></trkpt><trkpt lon="5.797148" lat="51.093592"><ele>29.4</ele><time>2022-06-12T09:18:25.000Z</time></trkpt><trkpt lon="5.797121" lat="51.093623"><ele>29.2</ele><time>2022-06-12T09:18:26.000Z</time></trkpt><trkpt lon="5.797109" lat="51.093646"><ele>29</ele><time>2022-06-12T09:18:27.000Z</time></trkpt><trkpt lon="5.797102" lat="51.093669"><ele>28.8</ele><time>2022-06-12T09:18:28.000Z</time></trkpt><trkpt lon="5.797094" lat="51.093692"><ele>28.6</ele><time>2022-06-12T09:18:29.000Z</time></trkpt><trkpt lon="5.797076" lat="51.093711"><ele>28.6</ele><time>2022-06-12T09:18:30.000Z</time></trkpt><trkpt lon="5.79704" lat="51.093722"><ele>28.4</ele><time>2022-06-12T09:18:31.000Z</time></trkpt><trkpt lon="5.796988" lat="51.093734"><ele>28.2</ele><time>2022-06-12T09:18:32.000Z</time></trkpt><trkpt lon="5.796925" lat="51.093749"><ele>28.2</ele><time>2022-06-12T09:18:33.000Z</time></trkpt><trkpt lon="5.796858" lat="51.093765"><ele>28</ele><time>2022-06-12T09:18:34.000Z</time></trkpt><trkpt lon="5.796786" lat="51.09378"><ele>27.8</ele><time>2022-06-12T09:18:35.000Z</time></trkpt><trkpt lon="5.796712" lat="51.093798"><ele>27.8</ele><time>2022-06-12T09:18:36.000Z</time></trkpt><trkpt lon="5.796634" lat="51.093814"><ele>27.6</ele><time>2022-06-12T09:18:37.000Z</time></trkpt><trkpt lon="5.796566" lat="51.093837"><ele>27.6</ele><time>2022-06-12T09:18:38.000Z</time></trkpt><trkpt lon="5.796517" lat="51.093867"><ele>27.4</ele><time>2022-06-12T09:18:39.000Z</time></trkpt><trkpt lon="5.796498" lat="51.093912"><ele>27.2</ele><time>2022-06-12T09:18:40.000Z</time></trkpt><trkpt lon="5.796501" lat="51.093961"><ele>27.2</ele><time>2022-06-12T09:18:41.000Z</time></trkpt><trkpt lon="5.796521" lat="51.094002"><ele>27.2</ele><time>2022-06-12T09:18:42.000Z</time></trkpt><trkpt lon="5.796552" lat="51.094057"><ele>27.2</ele><time>2022-06-12T09:18:43.000Z</time></trkpt><trkpt lon="5.796587" lat="51.094118"><ele>27.2</ele><time>2022-06-12T09:18:44.000Z</time></trkpt><trkpt lon="5.796619" lat="51.094176"><ele>27.2</ele><time>2022-06-12T09:18:45.000Z</time></trkpt><trkpt lon="5.796647" lat="51.094232"><ele>27.2</ele><time>2022-06-12T09:18:46.000Z</time></trkpt><trkpt lon="5.796674" lat="51.094288"><ele>27</ele><time>2022-06-12T09:18:47.000Z</time></trkpt><trkpt lon="5.796697" lat="51.094346"><ele>27</ele><time>2022-06-12T09:18:48.000Z</time></trkpt><trkpt lon="5.79672" lat="51.094406"><ele>26.8</ele><time>2022-06-12T09:18:49.000Z</time></trkpt><trkpt lon="5.796741" lat="51.094465"><ele>26.8</ele><time>2022-06-12T09:18:50.000Z</time></trkpt><trkpt lon="5.796759" lat="51.094524"><ele>26.6</ele><time>2022-06-12T09:18:51.000Z</time></trkpt><trkpt lon="5.796776" lat="51.094587"><ele>26.6</ele><time>2022-06-12T09:18:52.000Z</time></trkpt><trkpt lon="5.796799" lat="51.094644"><ele>26.6</ele><time>2022-06-12T09:18:53.000Z</time></trkpt><trkpt lon="5.796839" lat="51.094694"><ele>26.6</ele><time>2022-06-12T09:18:54.000Z</time></trkpt><trkpt lon="5.796912" lat="51.094725"><ele>26.6</ele><time>2022-06-12T09:18:55.000Z</time></trkpt><trkpt lon="5.796998" lat="51.094741"><ele>26.6</ele><time>2022-06-12T09:18:56.000Z</time></trkpt><trkpt lon="5.79709" lat="51.094742"><ele>26.8</ele><time>2022-06-12T09:18:57.000Z</time></trkpt><trkpt lon="5.79719" lat="51.094742"><ele>26.8</ele><time>2022-06-12T09:18:58.000Z</time></trkpt><trkpt lon="5.797281" lat="51.094745"><ele>26.8</ele><time>2022-06-12T09:18:59.000Z</time></trkpt><trkpt lon="5.797385" lat="51.094749"><ele>26.8</ele><time>2022-06-12T09:19:00.000Z</time></trkpt><trkpt lon="5.797475" lat="51.094764"><ele>26.6</ele><time>2022-06-12T09:19:01.000Z</time></trkpt><trkpt lon="5.797559" lat="51.09479"><ele>26.6</ele><time>2022-06-12T09:19:02.000Z</time></trkpt><trkpt lon="5.797634" lat="51.094836"><ele>26.6</ele><time>2022-06-12T09:19:03.000Z</time></trkpt><trkpt lon="5.797693" lat="51.094896"><ele>26.6</ele><time>2022-06-12T09:19:04.000Z</time></trkpt><trkpt lon="5.797748" lat="51.094955"><ele>26.6</ele><time>2022-06-12T09:19:05.000Z</time></trkpt><trkpt lon="5.797806" lat="51.095014"><ele>26.6</ele><time>2022-06-12T09:19:06.000Z</time></trkpt><trkpt lon="5.797869" lat="51.095075"><ele>26.6</ele><time>2022-06-12T09:19:07.000Z</time></trkpt><trkpt lon="5.79793" lat="51.095136"><ele>26.6</ele><time>2022-06-12T09:19:08.000Z</time></trkpt><trkpt lon="5.797989" lat="51.095189"><ele>26.4</ele><time>2022-06-12T09:19:09.000Z</time></trkpt><trkpt lon="5.798054" lat="51.095243"><ele>26.4</ele><time>2022-06-12T09:19:10.000Z</time></trkpt><trkpt lon="5.798124" lat="51.095297"><ele>26.4</ele><time>2022-06-12T09:19:11.000Z</time></trkpt><trkpt lon="5.798177" lat="51.095343"><ele>26.2</ele><time>2022-06-12T09:19:12.000Z</time></trkpt><trkpt lon="5.798242" lat="51.095405"><ele>26.2</ele><time>2022-06-12T09:19:13.000Z</time></trkpt><trkpt lon="5.798311" lat="51.095472"><ele>26</ele><time>2022-06-12T09:19:14.000Z</time></trkpt><trkpt lon="5.798366" lat="51.09553"><ele>26.2</ele><time>2022-06-12T09:19:15.000Z</time></trkpt><trkpt lon="5.79842" lat="51.095583"><ele>26.2</ele><time>2022-06-12T09:19:16.000Z</time></trkpt><trkpt lon="5.798472" lat="51.095634"><ele>26.2</ele><time>2022-06-12T09:19:17.000Z</time></trkpt><trkpt lon="5.798531" lat="51.095689"><ele>26.2</ele><time>2022-06-12T09:19:18.000Z</time></trkpt><trkpt lon="5.798586" lat="51.095745"><ele>26</ele><time>2022-06-12T09:19:19.000Z</time></trkpt><trkpt lon="5.798643" lat="51.095808"><ele>26</ele><time>2022-06-12T09:19:20.000Z</time></trkpt><trkpt lon="5.798696" lat="51.095868"><ele>26</ele><time>2022-06-12T09:19:21.000Z</time></trkpt><trkpt lon="5.798751" lat="51.09593"><ele>26</ele><time>2022-06-12T09:19:22.000Z</time></trkpt><trkpt lon="5.798803" lat="51.095989"><ele>26</ele><time>2022-06-12T09:19:23.000Z</time></trkpt><trkpt lon="5.798858" lat="51.096055"><ele>26</ele><time>2022-06-12T09:19:24.000Z</time></trkpt><trkpt lon="5.798905" lat="51.096112"><ele>26</ele><time>2022-06-12T09:19:25.000Z</time></trkpt><trkpt lon="5.798958" lat="51.096178"><ele>26.2</ele><time>2022-06-12T09:19:26.000Z</time></trkpt><trkpt lon="5.799008" lat="51.096239"><ele>26.2</ele><time>2022-06-12T09:19:27.000Z</time></trkpt><trkpt lon="5.799058" lat="51.0963"><ele>26.2</ele><time>2022-06-12T09:19:28.000Z</time></trkpt><trkpt lon="5.799107" lat="51.096364"><ele>26.2</ele><time>2022-06-12T09:19:29.000Z</time></trkpt><trkpt lon="5.799155" lat="51.096426"><ele>26.2</ele><time>2022-06-12T09:19:30.000Z</time></trkpt><trkpt lon="5.7992" lat="51.09649"><ele>26.2</ele><time>2022-06-12T09:19:31.000Z</time></trkpt><trkpt lon="5.799239" lat="51.09655"><ele>26.4</ele><time>2022-06-12T09:19:32.000Z</time></trkpt><trkpt lon="5.799279" lat="51.096614"><ele>26.4</ele><time>2022-06-12T09:19:33.000Z</time></trkpt><trkpt lon="5.799316" lat="51.09667"><ele>26.4</ele><time>2022-06-12T09:19:34.000Z</time></trkpt><trkpt lon="5.799352" lat="51.096731"><ele>26.4</ele><time>2022-06-12T09:19:35.000Z</time></trkpt><trkpt lon="5.799387" lat="51.096784"><ele>26.4</ele><time>2022-06-12T09:19:36.000Z</time></trkpt><trkpt lon="5.799414" lat="51.096834"><ele>26.6</ele><time>2022-06-12T09:19:37.000Z</time></trkpt><trkpt lon="5.799441" lat="51.096884"><ele>26.4</ele><time>2022-06-12T09:19:38.000Z</time></trkpt><trkpt lon="5.799466" lat="51.096933"><ele>26.4</ele><time>2022-06-12T09:19:39.000Z</time></trkpt><trkpt lon="5.799491" lat="51.096983"><ele>26.6</ele><time>2022-06-12T09:19:40.000Z</time></trkpt><trkpt lon="5.799509" lat="51.097031"><ele>26.6</ele><time>2022-06-12T09:19:41.000Z</time></trkpt><trkpt lon="5.79952" lat="51.097076"><ele>26.6</ele><time>2022-06-12T09:19:42.000Z</time></trkpt><trkpt lon="5.79952" lat="51.097119"><ele>26.6</ele><time>2022-06-12T09:19:43.000Z</time></trkpt><trkpt lon="5.799504" lat="51.097167"><ele>26.6</ele><time>2022-06-12T09:19:44.000Z</time></trkpt><trkpt lon="5.799473" lat="51.097216"><ele>26.6</ele><time>2022-06-12T09:19:45.000Z</time></trkpt><trkpt lon="5.799427" lat="51.097262"><ele>26.6</ele><time>2022-06-12T09:19:46.000Z</time></trkpt><trkpt lon="5.799368" lat="51.097303"><ele>26.6</ele><time>2022-06-12T09:19:47.000Z</time></trkpt><trkpt lon="5.799294" lat="51.097353"><ele>26.4</ele><time>2022-06-12T09:19:48.000Z</time></trkpt><trkpt lon="5.79922" lat="51.097406"><ele>26.2</ele><time>2022-06-12T09:19:49.000Z</time></trkpt><trkpt lon="5.799147" lat="51.097459"><ele>26.4</ele><time>2022-06-12T09:19:50.000Z</time></trkpt><trkpt lon="5.799071" lat="51.097512"><ele>26.2</ele><time>2022-06-12T09:19:51.000Z</time></trkpt><trkpt lon="5.798994" lat="51.097566"><ele>26.2</ele><time>2022-06-12T09:19:52.000Z</time></trkpt><trkpt lon="5.798916" lat="51.097624"><ele>26</ele><time>2022-06-12T09:19:53.000Z</time></trkpt><trkpt lon="5.79884" lat="51.09768"><ele>25.8</ele><time>2022-06-12T09:19:54.000Z</time></trkpt><trkpt lon="5.798766" lat="51.097734"><ele>25.6</ele><time>2022-06-12T09:19:55.000Z</time></trkpt><trkpt lon="5.798691" lat="51.097783"><ele>25.6</ele><time>2022-06-12T09:19:56.000Z</time></trkpt><trkpt lon="5.798615" lat="51.097837"><ele>25.6</ele><time>2022-06-12T09:19:57.000Z</time></trkpt><trkpt lon="5.798538" lat="51.097887"><ele>25.6</ele><time>2022-06-12T09:19:58.000Z</time></trkpt><trkpt lon="5.798466" lat="51.097936"><ele>25.8</ele><time>2022-06-12T09:19:59.000Z</time></trkpt><trkpt lon="5.798389" lat="51.09799"><ele>26</ele><time>2022-06-12T09:20:00.000Z</time></trkpt><trkpt lon="5.798313" lat="51.09804"><ele>26.2</ele><time>2022-06-12T09:20:01.000Z</time></trkpt><trkpt lon="5.798238" lat="51.098096"><ele>26.2</ele><time>2022-06-12T09:20:02.000Z</time></trkpt><trkpt lon="5.798161" lat="51.09815"><ele>26</ele><time>2022-06-12T09:20:03.000Z</time></trkpt><trkpt lon="5.798083" lat="51.098207"><ele>26</ele><time>2022-06-12T09:20:04.000Z</time></trkpt><trkpt lon="5.798003" lat="51.098261"><ele>26</ele><time>2022-06-12T09:20:05.000Z</time></trkpt><trkpt lon="5.797926" lat="51.098309"><ele>26</ele><time>2022-06-12T09:20:06.000Z</time></trkpt><trkpt lon="5.797844" lat="51.09836"><ele>26</ele><time>2022-06-12T09:20:07.000Z</time></trkpt><trkpt lon="5.797762" lat="51.098409"><ele>26</ele><time>2022-06-12T09:20:08.000Z</time></trkpt><trkpt lon="5.797686" lat="51.098451"><ele>26.2</ele><time>2022-06-12T09:20:09.000Z</time></trkpt><trkpt lon="5.797594" lat="51.098501"><ele>26.4</ele><time>2022-06-12T09:20:10.000Z</time></trkpt><trkpt lon="5.797511" lat="51.098539"><ele>26.6</ele><time>2022-06-12T09:20:11.000Z</time></trkpt><trkpt lon="5.79742" lat="51.098581"><ele>26.6</ele><time>2022-06-12T09:20:12.000Z</time></trkpt><trkpt lon="5.79733" lat="51.098616"><ele>26.6</ele><time>2022-06-12T09:20:13.000Z</time></trkpt><trkpt lon="5.797235" lat="51.098651"><ele>26.6</ele><time>2022-06-12T09:20:14.000Z</time></trkpt><trkpt lon="5.797139" lat="51.098682"><ele>26.4</ele><time>2022-06-12T09:20:15.000Z</time></trkpt><trkpt lon="5.797045" lat="51.098712"><ele>26.4</ele><time>2022-06-12T09:20:16.000Z</time></trkpt><trkpt lon="5.796952" lat="51.098742"><ele>26.6</ele><time>2022-06-12T09:20:17.000Z</time></trkpt><trkpt lon="5.796861" lat="51.098769"><ele>26.6</ele><time>2022-06-12T09:20:18.000Z</time></trkpt><trkpt lon="5.796771" lat="51.098788"><ele>26.6</ele><time>2022-06-12T09:20:19.000Z</time></trkpt><trkpt lon="5.796682" lat="51.098808"><ele>26.8</ele><time>2022-06-12T09:20:20.000Z</time></trkpt><trkpt lon="5.796595" lat="51.098826"><ele>26.8</ele><time>2022-06-12T09:20:21.000Z</time></trkpt><trkpt lon="5.796506" lat="51.098842"><ele>27</ele><time>2022-06-12T09:20:22.000Z</time></trkpt><trkpt lon="5.796416" lat="51.098846"><ele>27</ele><time>2022-06-12T09:20:23.000Z</time></trkpt><trkpt lon="5.796328" lat="51.098846"><ele>27</ele><time>2022-06-12T09:20:24.000Z</time></trkpt><trkpt lon="5.796247" lat="51.098843"><ele>27.2</ele><time>2022-06-12T09:20:25.000Z</time></trkpt><trkpt lon="5.796171" lat="51.098835"><ele>27.2</ele><time>2022-06-12T09:20:26.000Z</time></trkpt><trkpt lon="5.796104" lat="51.098835"><ele>27.2</ele><time>2022-06-12T09:20:27.000Z</time></trkpt><trkpt lon="5.796044" lat="51.098835"><ele>27.2</ele><time>2022-06-12T09:20:28.000Z</time></trkpt><trkpt lon="5.795989" lat="51.098839"><ele>27.4</ele><time>2022-06-12T09:20:29.000Z</time></trkpt><trkpt lon="5.795938" lat="51.098857"><ele>27.4</ele><time>2022-06-12T09:20:30.000Z</time></trkpt><trkpt lon="5.795886" lat="51.098883"><ele>27.4</ele><time>2022-06-12T09:20:31.000Z</time></trkpt><trkpt lon="5.795833" lat="51.098917"><ele>27.4</ele><time>2022-06-12T09:20:32.000Z</time></trkpt><trkpt lon="5.79578" lat="51.09895"><ele>27.4</ele><time>2022-06-12T09:20:33.000Z</time></trkpt><trkpt lon="5.795705" lat="51.098975"><ele>27.6</ele><time>2022-06-12T09:20:34.000Z</time></trkpt><trkpt lon="5.795609" lat="51.098995"><ele>27.4</ele><time>2022-06-12T09:20:35.000Z</time></trkpt><trkpt lon="5.795497" lat="51.099013"><ele>27.4</ele><time>2022-06-12T09:20:36.000Z</time></trkpt><trkpt lon="5.795386" lat="51.099036"><ele>27.4</ele><time>2022-06-12T09:20:37.000Z</time></trkpt><trkpt lon="5.795269" lat="51.099066"><ele>27.2</ele><time>2022-06-12T09:20:38.000Z</time></trkpt><trkpt lon="5.795159" lat="51.099092"><ele>27</ele><time>2022-06-12T09:20:39.000Z</time></trkpt><trkpt lon="5.795032" lat="51.099124"><ele>26.8</ele><time>2022-06-12T09:20:40.000Z</time></trkpt><trkpt lon="5.794911" lat="51.09915"><ele>26.8</ele><time>2022-06-12T09:20:41.000Z</time></trkpt><trkpt lon="5.794781" lat="51.099177"><ele>26.6</ele><time>2022-06-12T09:20:42.000Z</time></trkpt><trkpt lon="5.794669" lat="51.099205"><ele>26.4</ele><time>2022-06-12T09:20:43.000Z</time></trkpt><trkpt lon="5.794539" lat="51.099238"><ele>26.2</ele><time>2022-06-12T09:20:44.000Z</time></trkpt><trkpt lon="5.794423" lat="51.099269"><ele>26.2</ele><time>2022-06-12T09:20:45.000Z</time></trkpt><trkpt lon="5.794311" lat="51.099296"><ele>26</ele><time>2022-06-12T09:20:46.000Z</time></trkpt><trkpt lon="5.794206" lat="51.099318"><ele>26.2</ele><time>2022-06-12T09:20:47.000Z</time></trkpt><trkpt lon="5.794097" lat="51.099341"><ele>26.2</ele><time>2022-06-12T09:20:48.000Z</time></trkpt><trkpt lon="5.793996" lat="51.099364"><ele>26.2</ele><time>2022-06-12T09:20:49.000Z</time></trkpt><trkpt lon="5.793893" lat="51.099387"><ele>26.2</ele><time>2022-06-12T09:20:50.000Z</time></trkpt><trkpt lon="5.793791" lat="51.099402"><ele>26.2</ele><time>2022-06-12T09:20:51.000Z</time></trkpt><trkpt lon="5.793683" lat="51.099421"><ele>26.2</ele><time>2022-06-12T09:20:52.000Z</time></trkpt><trkpt lon="5.793575" lat="51.099441"><ele>26.2</ele><time>2022-06-12T09:20:53.000Z</time></trkpt><trkpt lon="5.793469" lat="51.099456"><ele>26</ele><time>2022-06-12T09:20:54.000Z</time></trkpt><trkpt lon="5.793367" lat="51.099474"><ele>25.8</ele><time>2022-06-12T09:20:55.000Z</time></trkpt><trkpt lon="5.793248" lat="51.099491"><ele>25.6</ele><time>2022-06-12T09:20:56.000Z</time></trkpt><trkpt lon="5.793133" lat="51.099506"><ele>25.6</ele><time>2022-06-12T09:20:57.000Z</time></trkpt><trkpt lon="5.793016" lat="51.099521"><ele>25.4</ele><time>2022-06-12T09:20:58.000Z</time></trkpt><trkpt lon="5.792903" lat="51.099536"><ele>25.2</ele><time>2022-06-12T09:20:59.000Z</time></trkpt><trkpt lon="5.792785" lat="51.099551"><ele>25.2</ele><time>2022-06-12T09:21:00.000Z</time></trkpt><trkpt lon="5.792671" lat="51.099563"><ele>25.2</ele><time>2022-06-12T09:21:01.000Z</time></trkpt><trkpt lon="5.792552" lat="51.099578"><ele>25.4</ele><time>2022-06-12T09:21:02.000Z</time></trkpt><trkpt lon="5.792443" lat="51.099593"><ele>25.4</ele><time>2022-06-12T09:21:03.000Z</time></trkpt><trkpt lon="5.792328" lat="51.099601"><ele>25.6</ele><time>2022-06-12T09:21:04.000Z</time></trkpt><trkpt lon="5.792223" lat="51.099612"><ele>25.8</ele><time>2022-06-12T09:21:05.000Z</time></trkpt><trkpt lon="5.792107" lat="51.099624"><ele>25.8</ele><time>2022-06-12T09:21:06.000Z</time></trkpt><trkpt lon="5.792" lat="51.099632"><ele>26</ele><time>2022-06-12T09:21:07.000Z</time></trkpt><trkpt lon="5.791885" lat="51.09964"><ele>26.2</ele><time>2022-06-12T09:21:08.000Z</time></trkpt><trkpt lon="5.791777" lat="51.099647"><ele>26.2</ele><time>2022-06-12T09:21:09.000Z</time></trkpt><trkpt lon="5.791659" lat="51.099655"><ele>26.4</ele><time>2022-06-12T09:21:10.000Z</time></trkpt><trkpt lon="5.79155" lat="51.099659"><ele>26.4</ele><time>2022-06-12T09:21:11.000Z</time></trkpt><trkpt lon="5.791439" lat="51.099663"><ele>26.4</ele><time>2022-06-12T09:21:12.000Z</time></trkpt><trkpt lon="5.791329" lat="51.099666"><ele>26.4</ele><time>2022-06-12T09:21:13.000Z</time></trkpt><trkpt lon="5.791221" lat="51.09967"><ele>26.4</ele><time>2022-06-12T09:21:14.000Z</time></trkpt><trkpt lon="5.791109" lat="51.099674"><ele>26.4</ele><time>2022-06-12T09:21:15.000Z</time></trkpt><trkpt lon="5.790995" lat="51.099674"><ele>26.4</ele><time>2022-06-12T09:21:16.000Z</time></trkpt><trkpt lon="5.790883" lat="51.099674"><ele>26.2</ele><time>2022-06-12T09:21:17.000Z</time></trkpt><trkpt lon="5.790768" lat="51.099674"><ele>26</ele><time>2022-06-12T09:21:18.000Z</time></trkpt><trkpt lon="5.790655" lat="51.099674"><ele>25.8</ele><time>2022-06-12T09:21:19.000Z</time></trkpt><trkpt lon="5.790541" lat="51.099674"><ele>25.8</ele><time>2022-06-12T09:21:20.000Z</time></trkpt><trkpt lon="5.790431" lat="51.099674"><ele>25.6</ele><time>2022-06-12T09:21:21.000Z</time></trkpt><trkpt lon="5.790319" lat="51.099671"><ele>25.6</ele><time>2022-06-12T09:21:22.000Z</time></trkpt><trkpt lon="5.790211" lat="51.09967"><ele>25.8</ele><time>2022-06-12T09:21:23.000Z</time></trkpt><trkpt lon="5.790098" lat="51.099667"><ele>25.8</ele><time>2022-06-12T09:21:24.000Z</time></trkpt><trkpt lon="5.789992" lat="51.099667"><ele>26</ele><time>2022-06-12T09:21:25.000Z</time></trkpt><trkpt lon="5.789884" lat="51.099659"><ele>26</ele><time>2022-06-12T09:21:26.000Z</time></trkpt><trkpt lon="5.789782" lat="51.099655"><ele>26.2</ele><time>2022-06-12T09:21:27.000Z</time></trkpt><trkpt lon="5.789674" lat="51.099652"><ele>26.4</ele><time>2022-06-12T09:21:28.000Z</time></trkpt><trkpt lon="5.78957" lat="51.099648"><ele>26.4</ele><time>2022-06-12T09:21:29.000Z</time></trkpt><trkpt lon="5.789466" lat="51.09964"><ele>26.2</ele><time>2022-06-12T09:21:30.000Z</time></trkpt><trkpt lon="5.789364" lat="51.099633"><ele>26.2</ele><time>2022-06-12T09:21:31.000Z</time></trkpt><trkpt lon="5.789262" lat="51.099622"><ele>26.2</ele><time>2022-06-12T09:21:32.000Z</time></trkpt><trkpt lon="5.789157" lat="51.099614"><ele>26.2</ele><time>2022-06-12T09:21:33.000Z</time></trkpt><trkpt lon="5.789056" lat="51.099606"><ele>26.4</ele><time>2022-06-12T09:21:34.000Z</time></trkpt><trkpt lon="5.78895" lat="51.099595"><ele>26.4</ele><time>2022-06-12T09:21:35.000Z</time></trkpt><trkpt lon="5.788852" lat="51.099587"><ele>26.4</ele><time>2022-06-12T09:21:36.000Z</time></trkpt><trkpt lon="5.788762" lat="51.099576"><ele>26.6</ele><time>2022-06-12T09:21:37.000Z</time></trkpt><trkpt lon="5.788665" lat="51.099564"><ele>26.4</ele><time>2022-06-12T09:21:38.000Z</time></trkpt><trkpt lon="5.788578" lat="51.09956"><ele>26.6</ele><time>2022-06-12T09:21:39.000Z</time></trkpt><trkpt lon="5.788487" lat="51.09956"><ele>26.6</ele><time>2022-06-12T09:21:40.000Z</time></trkpt><trkpt lon="5.788402" lat="51.09956"><ele>26.6</ele><time>2022-06-12T09:21:41.000Z</time></trkpt><trkpt lon="5.788322" lat="51.099574"><ele>26.8</ele><time>2022-06-12T09:21:42.000Z</time></trkpt><trkpt lon="5.788261" lat="51.099595"><ele>27</ele><time>2022-06-12T09:21:43.000Z</time></trkpt><trkpt lon="5.788202" lat="51.099638"><ele>27</ele><time>2022-06-12T09:21:44.000Z</time></trkpt><trkpt lon="5.788167" lat="51.099687"><ele>27</ele><time>2022-06-12T09:21:45.000Z</time></trkpt><trkpt lon="5.788141" lat="51.099744"><ele>27</ele><time>2022-06-12T09:21:46.000Z</time></trkpt><trkpt lon="5.78811" lat="51.099805"><ele>26.8</ele><time>2022-06-12T09:21:47.000Z</time></trkpt><trkpt lon="5.788067" lat="51.09987"><ele>26.6</ele><time>2022-06-12T09:21:48.000Z</time></trkpt><trkpt lon="5.78803" lat="51.099931"><ele>26.6</ele><time>2022-06-12T09:21:49.000Z</time></trkpt><trkpt lon="5.788002" lat="51.099996"><ele>26.4</ele><time>2022-06-12T09:21:50.000Z</time></trkpt><trkpt lon="5.787984" lat="51.10006"><ele>26.4</ele><time>2022-06-12T09:21:51.000Z</time></trkpt><trkpt lon="5.787967" lat="51.100136"><ele>26.4</ele><time>2022-06-12T09:21:52.000Z</time></trkpt><trkpt lon="5.787956" lat="51.100204"><ele>26.4</ele><time>2022-06-12T09:21:53.000Z</time></trkpt><trkpt lon="5.787947" lat="51.100278"><ele>26.4</ele><time>2022-06-12T09:21:54.000Z</time></trkpt><trkpt lon="5.787936" lat="51.100346"><ele>26.6</ele><time>2022-06-12T09:21:55.000Z</time></trkpt><trkpt lon="5.787921" lat="51.100419"><ele>26.4</ele><time>2022-06-12T09:21:56.000Z</time></trkpt><trkpt lon="5.787903" lat="51.100491"><ele>26</ele><time>2022-06-12T09:21:57.000Z</time></trkpt><trkpt lon="5.787884" lat="51.100564"><ele>26</ele><time>2022-06-12T09:21:58.000Z</time></trkpt><trkpt lon="5.787868" lat="51.100631"><ele>26</ele><time>2022-06-12T09:21:59.000Z</time></trkpt><trkpt lon="5.787849" lat="51.100709"><ele>26.2</ele><time>2022-06-12T09:22:00.000Z</time></trkpt><trkpt lon="5.787831" lat="51.100777"><ele>26</ele><time>2022-06-12T09:22:01.000Z</time></trkpt><trkpt lon="5.787812" lat="51.100843"><ele>26</ele><time>2022-06-12T09:22:02.000Z</time></trkpt><trkpt lon="5.787793" lat="51.100912"><ele>26</ele><time>2022-06-12T09:22:03.000Z</time></trkpt><trkpt lon="5.787776" lat="51.100984"><ele>26.2</ele><time>2022-06-12T09:22:04.000Z</time></trkpt><trkpt lon="5.787761" lat="51.10105"><ele>26.4</ele><time>2022-06-12T09:22:05.000Z</time></trkpt><trkpt lon="5.787749" lat="51.101122"><ele>26.4</ele><time>2022-06-12T09:22:06.000Z</time></trkpt><trkpt lon="5.787735" lat="51.101194"><ele>26.4</ele><time>2022-06-12T09:22:07.000Z</time></trkpt><trkpt lon="5.787719" lat="51.101272"><ele>26.4</ele><time>2022-06-12T09:22:08.000Z</time></trkpt><trkpt lon="5.787706" lat="51.101339"><ele>26.4</ele><time>2022-06-12T09:22:09.000Z</time></trkpt><trkpt lon="5.787691" lat="51.101418"><ele>26.2</ele><time>2022-06-12T09:22:10.000Z</time></trkpt><trkpt lon="5.787676" lat="51.101485"><ele>26.2</ele><time>2022-06-12T09:22:11.000Z</time></trkpt><trkpt lon="5.787659" lat="51.101555"><ele>26</ele><time>2022-06-12T09:22:12.000Z</time></trkpt><trkpt lon="5.787642" lat="51.101621"><ele>25.8</ele><time>2022-06-12T09:22:13.000Z</time></trkpt><trkpt lon="5.787624" lat="51.101694"><ele>25.8</ele><time>2022-06-12T09:22:14.000Z</time></trkpt><trkpt lon="5.787611" lat="51.101763"><ele>25.8</ele><time>2022-06-12T09:22:15.000Z</time></trkpt><trkpt lon="5.787597" lat="51.101834"><ele>26</ele><time>2022-06-12T09:22:16.000Z</time></trkpt><trkpt lon="5.787584" lat="51.101898"><ele>26</ele><time>2022-06-12T09:22:17.000Z</time></trkpt><trkpt lon="5.787571" lat="51.101968"><ele>26</ele><time>2022-06-12T09:22:18.000Z</time></trkpt><trkpt lon="5.787556" lat="51.102038"><ele>25.8</ele><time>2022-06-12T09:22:19.000Z</time></trkpt><trkpt lon="5.787541" lat="51.102109"><ele>25.8</ele><time>2022-06-12T09:22:20.000Z</time></trkpt><trkpt lon="5.787524" lat="51.10218"><ele>25.8</ele><time>2022-06-12T09:22:21.000Z</time></trkpt><trkpt lon="5.787508" lat="51.102252"><ele>25.8</ele><time>2022-06-12T09:22:22.000Z</time></trkpt><trkpt lon="5.78749" lat="51.102318"><ele>26</ele><time>2022-06-12T09:22:23.000Z</time></trkpt><trkpt lon="5.787473" lat="51.102388"><ele>26.2</ele><time>2022-06-12T09:22:24.000Z</time></trkpt><trkpt lon="5.787458" lat="51.102457"><ele>26.2</ele><time>2022-06-12T09:22:25.000Z</time></trkpt><trkpt lon="5.787442" lat="51.102529"><ele>26.4</ele><time>2022-06-12T09:22:26.000Z</time></trkpt><trkpt lon="5.787434" lat="51.102593"><ele>26.2</ele><time>2022-06-12T09:22:27.000Z</time></trkpt><trkpt lon="5.787432" lat="51.102661"><ele>26.2</ele><time>2022-06-12T09:22:28.000Z</time></trkpt><trkpt lon="5.787439" lat="51.102733"><ele>26.2</ele><time>2022-06-12T09:22:29.000Z</time></trkpt><trkpt lon="5.787465" lat="51.1028"><ele>26.2</ele><time>2022-06-12T09:22:30.000Z</time></trkpt><trkpt lon="5.787495" lat="51.102861"><ele>26.2</ele><time>2022-06-12T09:22:31.000Z</time></trkpt><trkpt lon="5.787534" lat="51.102928"><ele>26.2</ele><time>2022-06-12T09:22:32.000Z</time></trkpt><trkpt lon="5.787575" lat="51.102989"><ele>26.2</ele><time>2022-06-12T09:22:33.000Z</time></trkpt><trkpt lon="5.787625" lat="51.103048"><ele>26.4</ele><time>2022-06-12T09:22:34.000Z</time></trkpt><trkpt lon="5.787675" lat="51.103099"><ele>26.6</ele><time>2022-06-12T09:22:35.000Z</time></trkpt><trkpt lon="5.787731" lat="51.103151"><ele>26.6</ele><time>2022-06-12T09:22:36.000Z</time></trkpt><trkpt lon="5.787761" lat="51.1032"><ele>26.8</ele><time>2022-06-12T09:22:37.000Z</time></trkpt><trkpt lon="5.787774" lat="51.10325"><ele>27</ele><time>2022-06-12T09:22:38.000Z</time></trkpt><trkpt lon="5.787767" lat="51.103291"><ele>27</ele><time>2022-06-12T09:22:39.000Z</time></trkpt><trkpt lon="5.787732" lat="51.103327"><ele>26.8</ele><time>2022-06-12T09:22:40.000Z</time></trkpt><trkpt lon="5.787664" lat="51.103354"><ele>26.6</ele><time>2022-06-12T09:22:41.000Z</time></trkpt><trkpt lon="5.787592" lat="51.103376"><ele>26.2</ele><time>2022-06-12T09:22:42.000Z</time></trkpt><trkpt lon="5.787504" lat="51.103404"><ele>26.2</ele><time>2022-06-12T09:22:43.000Z</time></trkpt><trkpt lon="5.787416" lat="51.10343"><ele>26.2</ele><time>2022-06-12T09:22:44.000Z</time></trkpt><trkpt lon="5.78732" lat="51.103461"><ele>26.2</ele><time>2022-06-12T09:22:45.000Z</time></trkpt><trkpt lon="5.78723" lat="51.103483"><ele>26</ele><time>2022-06-12T09:22:46.000Z</time></trkpt><trkpt lon="5.787125" lat="51.10351"><ele>25.6</ele><time>2022-06-12T09:22:47.000Z</time></trkpt><trkpt lon="5.787025" lat="51.103536"><ele>25.4</ele><time>2022-06-12T09:22:48.000Z</time></trkpt><trkpt lon="5.78692" lat="51.103564"><ele>25.4</ele><time>2022-06-12T09:22:49.000Z</time></trkpt><trkpt lon="5.786826" lat="51.103586"><ele>25.4</ele><time>2022-06-12T09:22:50.000Z</time></trkpt><trkpt lon="5.786724" lat="51.103614"><ele>25.6</ele><time>2022-06-12T09:22:51.000Z</time></trkpt><trkpt lon="5.786628" lat="51.103639"><ele>25.6</ele><time>2022-06-12T09:22:52.000Z</time></trkpt><trkpt lon="5.78652" lat="51.103667"><ele>25.4</ele><time>2022-06-12T09:22:53.000Z</time></trkpt><trkpt lon="5.786422" lat="51.103693"><ele>25.2</ele><time>2022-06-12T09:22:54.000Z</time></trkpt><trkpt lon="5.786314" lat="51.103717"><ele>25.2</ele><time>2022-06-12T09:22:55.000Z</time></trkpt><trkpt lon="5.786214" lat="51.103738"><ele>25</ele><time>2022-06-12T09:22:56.000Z</time></trkpt><trkpt lon="5.786106" lat="51.103762"><ele>24.8</ele><time>2022-06-12T09:22:57.000Z</time></trkpt><trkpt lon="5.786007" lat="51.10378"><ele>24.6</ele><time>2022-06-12T09:22:58.000Z</time></trkpt><trkpt lon="5.785891" lat="51.103801"><ele>24.6</ele><time>2022-06-12T09:22:59.000Z</time></trkpt><trkpt lon="5.785789" lat="51.103816"><ele>24.6</ele><time>2022-06-12T09:23:00.000Z</time></trkpt><trkpt lon="5.785681" lat="51.103835"><ele>25</ele><time>2022-06-12T09:23:01.000Z</time></trkpt><trkpt lon="5.785586" lat="51.103849"><ele>25</ele><time>2022-06-12T09:23:02.000Z</time></trkpt><trkpt lon="5.785474" lat="51.103862"><ele>25</ele><time>2022-06-12T09:23:03.000Z</time></trkpt><trkpt lon="5.785372" lat="51.103877"><ele>25</ele><time>2022-06-12T09:23:04.000Z</time></trkpt><trkpt lon="5.785267" lat="51.103893"><ele>25</ele><time>2022-06-12T09:23:05.000Z</time></trkpt><trkpt lon="5.785173" lat="51.103907"><ele>25.2</ele><time>2022-06-12T09:23:06.000Z</time></trkpt><trkpt lon="5.785064" lat="51.103919"><ele>25.4</ele><time>2022-06-12T09:23:07.000Z</time></trkpt><trkpt lon="5.784964" lat="51.103927"><ele>25.4</ele><time>2022-06-12T09:23:08.000Z</time></trkpt><trkpt lon="5.784854" lat="51.103935"><ele>25.6</ele><time>2022-06-12T09:23:09.000Z</time></trkpt><trkpt lon="5.784756" lat="51.103935"><ele>26</ele><time>2022-06-12T09:23:10.000Z</time></trkpt><trkpt lon="5.784643" lat="51.103939"><ele>26</ele><time>2022-06-12T09:23:11.000Z</time></trkpt><trkpt lon="5.784546" lat="51.103939"><ele>26.2</ele><time>2022-06-12T09:23:12.000Z</time></trkpt><trkpt lon="5.784439" lat="51.103935"><ele>26.4</ele><time>2022-06-12T09:23:13.000Z</time></trkpt><trkpt lon="5.784345" lat="51.103935"><ele>26.8</ele><time>2022-06-12T09:23:14.000Z</time></trkpt><trkpt lon="5.784245" lat="51.103932"><ele>27</ele><time>2022-06-12T09:23:15.000Z</time></trkpt><trkpt lon="5.784157" lat="51.103928"><ele>27.2</ele><time>2022-06-12T09:23:16.000Z</time></trkpt><trkpt lon="5.784067" lat="51.103931"><ele>27.4</ele><time>2022-06-12T09:23:17.000Z</time></trkpt><trkpt lon="5.783989" lat="51.103938"><ele>27.4</ele><time>2022-06-12T09:23:18.000Z</time></trkpt><trkpt lon="5.783913" lat="51.103954"><ele>27.8</ele><time>2022-06-12T09:23:19.000Z</time></trkpt><trkpt lon="5.783873" lat="51.103978"><ele>28</ele><time>2022-06-12T09:23:20.000Z</time></trkpt><trkpt lon="5.783883" lat="51.104028"><ele>28</ele><time>2022-06-12T09:23:21.000Z</time></trkpt><trkpt lon="5.783913" lat="51.104077"><ele>28.2</ele><time>2022-06-12T09:23:22.000Z</time></trkpt><trkpt lon="5.783954" lat="51.104127"><ele>28.2</ele><time>2022-06-12T09:23:23.000Z</time></trkpt><trkpt lon="5.78401" lat="51.104181"><ele>28.2</ele><time>2022-06-12T09:23:24.000Z</time></trkpt><trkpt lon="5.784053" lat="51.104228"><ele>28.4</ele><time>2022-06-12T09:23:25.000Z</time></trkpt><trkpt lon="5.784103" lat="51.104288"><ele>28.4</ele><time>2022-06-12T09:23:26.000Z</time></trkpt><trkpt lon="5.784134" lat="51.104338"><ele>28.4</ele><time>2022-06-12T09:23:27.000Z</time></trkpt><trkpt lon="5.784148" lat="51.104394"><ele>28.6</ele><time>2022-06-12T09:23:28.000Z</time></trkpt><trkpt lon="5.784136" lat="51.104446"><ele>28.6</ele><time>2022-06-12T09:23:29.000Z</time></trkpt><trkpt lon="5.784106" lat="51.10449"><ele>28.6</ele><time>2022-06-12T09:23:30.000Z</time></trkpt><trkpt lon="5.784056" lat="51.104531"><ele>28.6</ele><time>2022-06-12T09:23:31.000Z</time></trkpt><trkpt lon="5.78398" lat="51.104577"><ele>28.4</ele><time>2022-06-12T09:23:32.000Z</time></trkpt><trkpt lon="5.783898" lat="51.104619"><ele>28.4</ele><time>2022-06-12T09:23:33.000Z</time></trkpt><trkpt lon="5.783809" lat="51.104661"><ele>28.4</ele><time>2022-06-12T09:23:34.000Z</time></trkpt><trkpt lon="5.783718" lat="51.104706"><ele>28.4</ele><time>2022-06-12T09:23:35.000Z</time></trkpt><trkpt lon="5.78362" lat="51.104749"><ele>28.4</ele><time>2022-06-12T09:23:36.000Z</time></trkpt><trkpt lon="5.78353" lat="51.10479"><ele>28.4</ele><time>2022-06-12T09:23:37.000Z</time></trkpt><trkpt lon="5.783432" lat="51.104837"><ele>28.2</ele><time>2022-06-12T09:23:38.000Z</time></trkpt><trkpt lon="5.783347" lat="51.10488"><ele>28.2</ele><time>2022-06-12T09:23:39.000Z</time></trkpt><trkpt lon="5.783252" lat="51.104932"><ele>28.2</ele><time>2022-06-12T09:23:40.000Z</time></trkpt><trkpt lon="5.783168" lat="51.104983"><ele>28</ele><time>2022-06-12T09:23:41.000Z</time></trkpt><trkpt lon="5.783083" lat="51.105038"><ele>28.2</ele><time>2022-06-12T09:23:42.000Z</time></trkpt><trkpt lon="5.783009" lat="51.10509"><ele>28</ele><time>2022-06-12T09:23:43.000Z</time></trkpt><trkpt lon="5.782936" lat="51.105149"><ele>28</ele><time>2022-06-12T09:23:44.000Z</time></trkpt><trkpt lon="5.782878" lat="51.105209"><ele>28</ele><time>2022-06-12T09:23:45.000Z</time></trkpt><trkpt lon="5.782823" lat="51.105282"><ele>28</ele><time>2022-06-12T09:23:46.000Z</time></trkpt><trkpt lon="5.782784" lat="51.105352"><ele>28</ele><time>2022-06-12T09:23:47.000Z</time></trkpt><trkpt lon="5.782746" lat="51.105424"><ele>27.8</ele><time>2022-06-12T09:23:48.000Z</time></trkpt><trkpt lon="5.782713" lat="51.105493"><ele>27.6</ele><time>2022-06-12T09:23:49.000Z</time></trkpt><trkpt lon="5.78268" lat="51.105568"><ele>27.8</ele><time>2022-06-12T09:23:50.000Z</time></trkpt><trkpt lon="5.782654" lat="51.105634"><ele>28</ele><time>2022-06-12T09:23:51.000Z</time></trkpt><trkpt lon="5.782631" lat="51.105713"><ele>28</ele><time>2022-06-12T09:23:52.000Z</time></trkpt><trkpt lon="5.782617" lat="51.105789"><ele>27.8</ele><time>2022-06-12T09:23:53.000Z</time></trkpt><trkpt lon="5.782609" lat="51.105866"><ele>27.8</ele><time>2022-06-12T09:23:54.000Z</time></trkpt><trkpt lon="5.782607" lat="51.105942"><ele>27.6</ele><time>2022-06-12T09:23:55.000Z</time></trkpt><trkpt lon="5.782608" lat="51.106021"><ele>27.6</ele><time>2022-06-12T09:23:56.000Z</time></trkpt><trkpt lon="5.782614" lat="51.106093"><ele>27.6</ele><time>2022-06-12T09:23:57.000Z</time></trkpt><trkpt lon="5.782623" lat="51.106171"><ele>27.4</ele><time>2022-06-12T09:23:58.000Z</time></trkpt><trkpt lon="5.782629" lat="51.106236"><ele>27.4</ele><time>2022-06-12T09:23:59.000Z</time></trkpt><trkpt lon="5.78264" lat="51.106309"><ele>27.4</ele><time>2022-06-12T09:24:00.000Z</time></trkpt><trkpt lon="5.782651" lat="51.106375"><ele>27.4</ele><time>2022-06-12T09:24:01.000Z</time></trkpt><trkpt lon="5.782656" lat="51.106445"><ele>27.6</ele><time>2022-06-12T09:24:02.000Z</time></trkpt><trkpt lon="5.782649" lat="51.106515"><ele>27.4</ele><time>2022-06-12T09:24:03.000Z</time></trkpt><trkpt lon="5.78264" lat="51.106584"><ele>27.4</ele><time>2022-06-12T09:24:04.000Z</time></trkpt><trkpt lon="5.782631" lat="51.106649"><ele>27.6</ele><time>2022-06-12T09:24:05.000Z</time></trkpt><trkpt lon="5.782622" lat="51.106721"><ele>27.6</ele><time>2022-06-12T09:24:06.000Z</time></trkpt><trkpt lon="5.782616" lat="51.106784"><ele>27.6</ele><time>2022-06-12T09:24:07.000Z</time></trkpt><trkpt lon="5.782609" lat="51.106858"><ele>27.6</ele><time>2022-06-12T09:24:08.000Z</time></trkpt><trkpt lon="5.782602" lat="51.106923"><ele>27.6</ele><time>2022-06-12T09:24:09.000Z</time></trkpt><trkpt lon="5.782595" lat="51.106995"><ele>27.8</ele><time>2022-06-12T09:24:10.000Z</time></trkpt><trkpt lon="5.782589" lat="51.107058"><ele>27.8</ele><time>2022-06-12T09:24:11.000Z</time></trkpt><trkpt lon="5.782582" lat="51.107136"><ele>27.8</ele><time>2022-06-12T09:24:12.000Z</time></trkpt><trkpt lon="5.78258" lat="51.107208"><ele>27.6</ele><time>2022-06-12T09:24:13.000Z</time></trkpt><trkpt lon="5.782574" lat="51.107284"><ele>27.6</ele><time>2022-06-12T09:24:14.000Z</time></trkpt><trkpt lon="5.782569" lat="51.10735"><ele>27.6</ele><time>2022-06-12T09:24:15.000Z</time></trkpt><trkpt lon="5.782563" lat="51.107426"><ele>27.6</ele><time>2022-06-12T09:24:16.000Z</time></trkpt><trkpt lon="5.782556" lat="51.10749"><ele>27.6</ele><time>2022-06-12T09:24:17.000Z</time></trkpt><trkpt lon="5.782547" lat="51.107563"><ele>27.8</ele><time>2022-06-12T09:24:18.000Z</time></trkpt><trkpt lon="5.782541" lat="51.107629"><ele>27.8</ele><time>2022-06-12T09:24:19.000Z</time></trkpt><trkpt lon="5.782535" lat="51.107705"><ele>27.8</ele><time>2022-06-12T09:24:20.000Z</time></trkpt><trkpt lon="5.782529" lat="51.107772"><ele>27.8</ele><time>2022-06-12T09:24:21.000Z</time></trkpt><trkpt lon="5.78253" lat="51.107846"><ele>27.8</ele><time>2022-06-12T09:24:22.000Z</time></trkpt><trkpt lon="5.782537" lat="51.107913"><ele>27.8</ele><time>2022-06-12T09:24:23.000Z</time></trkpt><trkpt lon="5.782549" lat="51.107991"><ele>27.8</ele><time>2022-06-12T09:24:24.000Z</time></trkpt><trkpt lon="5.782573" lat="51.108055"><ele>28</ele><time>2022-06-12T09:24:25.000Z</time></trkpt><trkpt lon="5.782619" lat="51.108124"><ele>27.8</ele><time>2022-06-12T09:24:26.000Z</time></trkpt><trkpt lon="5.782667" lat="51.108186"><ele>27.8</ele><time>2022-06-12T09:24:27.000Z</time></trkpt><trkpt lon="5.782722" lat="51.108254"><ele>27.8</ele><time>2022-06-12T09:24:28.000Z</time></trkpt><trkpt lon="5.782772" lat="51.108311"><ele>28</ele><time>2022-06-12T09:24:29.000Z</time></trkpt><trkpt lon="5.782829" lat="51.10838"><ele>28.2</ele><time>2022-06-12T09:24:30.000Z</time></trkpt><trkpt lon="5.782879" lat="51.108439"><ele>28.2</ele><time>2022-06-12T09:24:31.000Z</time></trkpt><trkpt lon="5.782932" lat="51.108501"><ele>28.2</ele><time>2022-06-12T09:24:32.000Z</time></trkpt><trkpt lon="5.782988" lat="51.108561"><ele>28.2</ele><time>2022-06-12T09:24:33.000Z</time></trkpt><trkpt lon="5.783045" lat="51.108629"><ele>28.2</ele><time>2022-06-12T09:24:34.000Z</time></trkpt><trkpt lon="5.783095" lat="51.108686"><ele>28.2</ele><time>2022-06-12T09:24:35.000Z</time></trkpt><trkpt lon="5.783149" lat="51.10875"><ele>28.2</ele><time>2022-06-12T09:24:36.000Z</time></trkpt><trkpt lon="5.783192" lat="51.108813"><ele>28.4</ele><time>2022-06-12T09:24:37.000Z</time></trkpt><trkpt lon="5.783241" lat="51.108883"><ele>28.4</ele><time>2022-06-12T09:24:38.000Z</time></trkpt><trkpt lon="5.783283" lat="51.108949"><ele>28.4</ele><time>2022-06-12T09:24:39.000Z</time></trkpt><trkpt lon="5.783327" lat="51.109021"><ele>28.4</ele><time>2022-06-12T09:24:40.000Z</time></trkpt><trkpt lon="5.783364" lat="51.109086"><ele>28.4</ele><time>2022-06-12T09:24:41.000Z</time></trkpt><trkpt lon="5.783402" lat="51.109156"><ele>28.6</ele><time>2022-06-12T09:24:42.000Z</time></trkpt><trkpt lon="5.783437" lat="51.109222"><ele>28.6</ele><time>2022-06-12T09:24:43.000Z</time></trkpt><trkpt lon="5.783471" lat="51.10929"><ele>28.6</ele><time>2022-06-12T09:24:44.000Z</time></trkpt><trkpt lon="5.783504" lat="51.10936"><ele>28.8</ele><time>2022-06-12T09:24:45.000Z</time></trkpt><trkpt lon="5.783542" lat="51.109433"><ele>29</ele><time>2022-06-12T09:24:46.000Z</time></trkpt><trkpt lon="5.783572" lat="51.109495"><ele>29</ele><time>2022-06-12T09:24:47.000Z</time></trkpt><trkpt lon="5.783607" lat="51.10957"><ele>29</ele><time>2022-06-12T09:24:48.000Z</time></trkpt><trkpt lon="5.783637" lat="51.109635"><ele>28.8</ele><time>2022-06-12T09:24:49.000Z</time></trkpt><trkpt lon="5.783672" lat="51.109715"><ele>28.6</ele><time>2022-06-12T09:24:50.000Z</time></trkpt><trkpt lon="5.783704" lat="51.109781"><ele>28.6</ele><time>2022-06-12T09:24:51.000Z</time></trkpt><trkpt lon="5.783741" lat="51.109858"><ele>28.6</ele><time>2022-06-12T09:24:52.000Z</time></trkpt><trkpt lon="5.783778" lat="51.109925"><ele>28.4</ele><time>2022-06-12T09:24:53.000Z</time></trkpt><trkpt lon="5.783819" lat="51.109993"><ele>28.4</ele><time>2022-06-12T09:24:54.000Z</time></trkpt><trkpt lon="5.783858" lat="51.110062"><ele>28.4</ele><time>2022-06-12T09:24:55.000Z</time></trkpt><trkpt lon="5.783904" lat="51.110131"><ele>28.4</ele><time>2022-06-12T09:24:56.000Z</time></trkpt><trkpt lon="5.783949" lat="51.110196"><ele>28.4</ele><time>2022-06-12T09:24:57.000Z</time></trkpt><trkpt lon="5.784002" lat="51.110264"><ele>28.4</ele><time>2022-06-12T09:24:58.000Z</time></trkpt><trkpt lon="5.78405" lat="51.110325"><ele>28.4</ele><time>2022-06-12T09:24:59.000Z</time></trkpt><trkpt lon="5.784104" lat="51.11039"><ele>28.4</ele><time>2022-06-12T09:25:00.000Z</time></trkpt><trkpt lon="5.784153" lat="51.110452"><ele>28.6</ele><time>2022-06-12T09:25:01.000Z</time></trkpt><trkpt lon="5.784207" lat="51.110519"><ele>28.6</ele><time>2022-06-12T09:25:02.000Z</time></trkpt><trkpt lon="5.784256" lat="51.110584"><ele>28.6</ele><time>2022-06-12T09:25:03.000Z</time></trkpt><trkpt lon="5.784309" lat="51.110654"><ele>28.6</ele><time>2022-06-12T09:25:04.000Z</time></trkpt><trkpt lon="5.784356" lat="51.110714"><ele>28.6</ele><time>2022-06-12T09:25:05.000Z</time></trkpt><trkpt lon="5.78441" lat="51.110786"><ele>28.6</ele><time>2022-06-12T09:25:06.000Z</time></trkpt><trkpt lon="5.784461" lat="51.110846"><ele>28.8</ele><time>2022-06-12T09:25:07.000Z</time></trkpt><trkpt lon="5.784519" lat="51.110917"><ele>29</ele><time>2022-06-12T09:25:08.000Z</time></trkpt><trkpt lon="5.784572" lat="51.110982"><ele>29.2</ele><time>2022-06-12T09:25:09.000Z</time></trkpt><trkpt lon="5.78463" lat="51.111049"><ele>29.2</ele><time>2022-06-12T09:25:10.000Z</time></trkpt><trkpt lon="5.784683" lat="51.111105"><ele>29.4</ele><time>2022-06-12T09:25:11.000Z</time></trkpt><trkpt lon="5.78475" lat="51.111174"><ele>29.4</ele><time>2022-06-12T09:25:12.000Z</time></trkpt><trkpt lon="5.784811" lat="51.111238"><ele>29.4</ele><time>2022-06-12T09:25:13.000Z</time></trkpt><trkpt lon="5.784878" lat="51.111302"><ele>29.4</ele><time>2022-06-12T09:25:14.000Z</time></trkpt><trkpt lon="5.784939" lat="51.111361"><ele>29.6</ele><time>2022-06-12T09:25:15.000Z</time></trkpt><trkpt lon="5.78501" lat="51.111429"><ele>29.6</ele><time>2022-06-12T09:25:16.000Z</time></trkpt><trkpt lon="5.785075" lat="51.111489"><ele>29.6</ele><time>2022-06-12T09:25:17.000Z</time></trkpt><trkpt lon="5.785145" lat="51.111554"><ele>29.6</ele><time>2022-06-12T09:25:18.000Z</time></trkpt><trkpt lon="5.785203" lat="51.111613"><ele>29.6</ele><time>2022-06-12T09:25:19.000Z</time></trkpt><trkpt lon="5.785272" lat="51.111683"><ele>29.6</ele><time>2022-06-12T09:25:20.000Z</time></trkpt><trkpt lon="5.785329" lat="51.111744"><ele>29.6</ele><time>2022-06-12T09:25:21.000Z</time></trkpt><trkpt lon="5.785389" lat="51.111806"><ele>29.6</ele><time>2022-06-12T09:25:22.000Z</time></trkpt><trkpt lon="5.785444" lat="51.11187"><ele>29.6</ele><time>2022-06-12T09:25:23.000Z</time></trkpt><trkpt lon="5.785497" lat="51.111935"><ele>29.8</ele><time>2022-06-12T09:25:24.000Z</time></trkpt><trkpt lon="5.785539" lat="51.111997"><ele>29.8</ele><time>2022-06-12T09:25:25.000Z</time></trkpt><trkpt lon="5.785581" lat="51.112064"><ele>29.8</ele><time>2022-06-12T09:25:26.000Z</time></trkpt><trkpt lon="5.785614" lat="51.112129"><ele>30</ele><time>2022-06-12T09:25:27.000Z</time></trkpt><trkpt lon="5.785653" lat="51.112201"><ele>30</ele><time>2022-06-12T09:25:28.000Z</time></trkpt><trkpt lon="5.785687" lat="51.112265"><ele>30</ele><time>2022-06-12T09:25:29.000Z</time></trkpt><trkpt lon="5.785728" lat="51.112343"><ele>30</ele><time>2022-06-12T09:25:30.000Z</time></trkpt><trkpt lon="5.785761" lat="51.112404"><ele>30</ele><time>2022-06-12T09:25:31.000Z</time></trkpt><trkpt lon="5.785796" lat="51.112476"><ele>30</ele><time>2022-06-12T09:25:32.000Z</time></trkpt><trkpt lon="5.785827" lat="51.112542"><ele>30</ele><time>2022-06-12T09:25:33.000Z</time></trkpt><trkpt lon="5.785862" lat="51.112621"><ele>30</ele><time>2022-06-12T09:25:34.000Z</time></trkpt><trkpt lon="5.78589" lat="51.112686"><ele>29.8</ele><time>2022-06-12T09:25:35.000Z</time></trkpt><trkpt lon="5.785922" lat="51.112758"><ele>29.8</ele><time>2022-06-12T09:25:36.000Z</time></trkpt><trkpt lon="5.785953" lat="51.112826"><ele>29.8</ele><time>2022-06-12T09:25:37.000Z</time></trkpt><trkpt lon="5.785986" lat="51.112899"><ele>29.6</ele><time>2022-06-12T09:25:38.000Z</time></trkpt><trkpt lon="5.786018" lat="51.112965"><ele>29.6</ele><time>2022-06-12T09:25:39.000Z</time></trkpt><trkpt lon="5.786054" lat="51.113033"><ele>29.6</ele><time>2022-06-12T09:25:40.000Z</time></trkpt><trkpt lon="5.78609" lat="51.113092"><ele>29.6</ele><time>2022-06-12T09:25:41.000Z</time></trkpt><trkpt lon="5.786139" lat="51.113157"><ele>29.8</ele><time>2022-06-12T09:25:42.000Z</time></trkpt><trkpt lon="5.786191" lat="51.113215"><ele>29.8</ele><time>2022-06-12T09:25:43.000Z</time></trkpt><trkpt lon="5.786255" lat="51.113272"><ele>29.8</ele><time>2022-06-12T09:25:44.000Z</time></trkpt><trkpt lon="5.786319" lat="51.113324"><ele>29.6</ele><time>2022-06-12T09:25:45.000Z</time></trkpt><trkpt lon="5.786388" lat="51.113385"><ele>29.6</ele><time>2022-06-12T09:25:46.000Z</time></trkpt><trkpt lon="5.786449" lat="51.113435"><ele>29.6</ele><time>2022-06-12T09:25:47.000Z</time></trkpt><trkpt lon="5.786515" lat="51.113492"><ele>29.6</ele><time>2022-06-12T09:25:48.000Z</time></trkpt><trkpt lon="5.786582" lat="51.11355"><ele>29.6</ele><time>2022-06-12T09:25:49.000Z</time></trkpt><trkpt lon="5.786648" lat="51.113604"><ele>29.6</ele><time>2022-06-12T09:25:50.000Z</time></trkpt><trkpt lon="5.786713" lat="51.113664"><ele>29.6</ele><time>2022-06-12T09:25:51.000Z</time></trkpt><trkpt lon="5.786777" lat="51.113721"><ele>29.4</ele><time>2022-06-12T09:25:52.000Z</time></trkpt><trkpt lon="5.786832" lat="51.113784"><ele>29.4</ele><time>2022-06-12T09:25:53.000Z</time></trkpt><trkpt lon="5.786886" lat="51.113847"><ele>29.4</ele><time>2022-06-12T09:25:54.000Z</time></trkpt><trkpt lon="5.786925" lat="51.113916"><ele>29.4</ele><time>2022-06-12T09:25:55.000Z</time></trkpt><trkpt lon="5.786954" lat="51.113981"><ele>29.4</ele><time>2022-06-12T09:25:56.000Z</time></trkpt><trkpt lon="5.786973" lat="51.114053"><ele>29.4</ele><time>2022-06-12T09:25:57.000Z</time></trkpt><trkpt lon="5.786981" lat="51.114122"><ele>29.4</ele><time>2022-06-12T09:25:58.000Z</time></trkpt><trkpt lon="5.786985" lat="51.11419"><ele>29.4</ele><time>2022-06-12T09:25:59.000Z</time></trkpt><trkpt lon="5.786985" lat="51.114259"><ele>29.2</ele><time>2022-06-12T09:26:00.000Z</time></trkpt><trkpt lon="5.78698" lat="51.114324"><ele>29.2</ele><time>2022-06-12T09:26:01.000Z</time></trkpt><trkpt lon="5.786975" lat="51.114389"><ele>29.2</ele><time>2022-06-12T09:26:02.000Z</time></trkpt><trkpt lon="5.786967" lat="51.114449"><ele>29</ele><time>2022-06-12T09:26:03.000Z</time></trkpt><trkpt lon="5.786954" lat="51.114514"><ele>28.8</ele><time>2022-06-12T09:26:04.000Z</time></trkpt><trkpt lon="5.786937" lat="51.114583"><ele>28.8</ele><time>2022-06-12T09:26:05.000Z</time></trkpt><trkpt lon="5.786925" lat="51.114655"><ele>28.8</ele><time>2022-06-12T09:26:06.000Z</time></trkpt><trkpt lon="5.78692" lat="51.114734"><ele>28.8</ele><time>2022-06-12T09:26:07.000Z</time></trkpt><trkpt lon="5.786921" lat="51.114812"><ele>28.6</ele><time>2022-06-12T09:26:08.000Z</time></trkpt><trkpt lon="5.786923" lat="51.114892"><ele>28.4</ele><time>2022-06-12T09:26:09.000Z</time></trkpt><trkpt lon="5.786925" lat="51.114972"><ele>28.4</ele><time>2022-06-12T09:26:10.000Z</time></trkpt><trkpt lon="5.786928" lat="51.115048"><ele>28.4</ele><time>2022-06-12T09:26:11.000Z</time></trkpt><trkpt lon="5.78693" lat="51.115124"><ele>28.4</ele><time>2022-06-12T09:26:12.000Z</time></trkpt><trkpt lon="5.78693" lat="51.115201"><ele>28.4</ele><time>2022-06-12T09:26:13.000Z</time></trkpt><trkpt lon="5.786928" lat="51.115278"><ele>28.4</ele><time>2022-06-12T09:26:14.000Z</time></trkpt><trkpt lon="5.786925" lat="51.115354"><ele>28.4</ele><time>2022-06-12T09:26:15.000Z</time></trkpt><trkpt lon="5.786917" lat="51.115425"><ele>28.4</ele><time>2022-06-12T09:26:16.000Z</time></trkpt><trkpt lon="5.786905" lat="51.115502"><ele>28.2</ele><time>2022-06-12T09:26:17.000Z</time></trkpt><trkpt lon="5.786894" lat="51.115579"><ele>28.2</ele><time>2022-06-12T09:26:18.000Z</time></trkpt><trkpt lon="5.786877" lat="51.115655"><ele>28</ele><time>2022-06-12T09:26:19.000Z</time></trkpt><trkpt lon="5.786859" lat="51.115735"><ele>27.8</ele><time>2022-06-12T09:26:20.000Z</time></trkpt><trkpt lon="5.786836" lat="51.115812"><ele>28</ele><time>2022-06-12T09:26:21.000Z</time></trkpt><trkpt lon="5.786811" lat="51.115891"><ele>27.8</ele><time>2022-06-12T09:26:22.000Z</time></trkpt><trkpt lon="5.786784" lat="51.115964"><ele>27.8</ele><time>2022-06-12T09:26:23.000Z</time></trkpt><trkpt lon="5.786758" lat="51.116036"><ele>27.8</ele><time>2022-06-12T09:26:24.000Z</time></trkpt><trkpt lon="5.786731" lat="51.116109"><ele>27.8</ele><time>2022-06-12T09:26:25.000Z</time></trkpt><trkpt lon="5.786704" lat="51.116178"><ele>28</ele><time>2022-06-12T09:26:26.000Z</time></trkpt><trkpt lon="5.786678" lat="51.116246"><ele>28</ele><time>2022-06-12T09:26:27.000Z</time></trkpt><trkpt lon="5.786653" lat="51.116315"><ele>27.8</ele><time>2022-06-12T09:26:28.000Z</time></trkpt><trkpt lon="5.786629" lat="51.11638"><ele>28</ele><time>2022-06-12T09:26:29.000Z</time></trkpt><trkpt lon="5.786614" lat="51.116449"><ele>28</ele><time>2022-06-12T09:26:30.000Z</time></trkpt><trkpt lon="5.786601" lat="51.116517"><ele>28</ele><time>2022-06-12T09:26:31.000Z</time></trkpt><trkpt lon="5.786592" lat="51.116583"><ele>28</ele><time>2022-06-12T09:26:32.000Z</time></trkpt><trkpt lon="5.786584" lat="51.116655"><ele>28</ele><time>2022-06-12T09:26:33.000Z</time></trkpt><trkpt lon="5.786583" lat="51.116723"><ele>28</ele><time>2022-06-12T09:26:34.000Z</time></trkpt><trkpt lon="5.786588" lat="51.116792"><ele>28.2</ele><time>2022-06-12T09:26:35.000Z</time></trkpt><trkpt lon="5.786596" lat="51.116861"><ele>28.4</ele><time>2022-06-12T09:26:36.000Z</time></trkpt><trkpt lon="5.78661" lat="51.116926"><ele>28.4</ele><time>2022-06-12T09:26:37.000Z</time></trkpt><trkpt lon="5.786625" lat="51.116991"><ele>28.4</ele><time>2022-06-12T09:26:38.000Z</time></trkpt><trkpt lon="5.786644" lat="51.117059"><ele>28.4</ele><time>2022-06-12T09:26:39.000Z</time></trkpt><trkpt lon="5.786663" lat="51.117124"><ele>28.4</ele><time>2022-06-12T09:26:40.000Z</time></trkpt><trkpt lon="5.786684" lat="51.117192"><ele>28.4</ele><time>2022-06-12T09:26:41.000Z</time></trkpt><trkpt lon="5.786704" lat="51.117261"><ele>28.4</ele><time>2022-06-12T09:26:42.000Z</time></trkpt><trkpt lon="5.786728" lat="51.117326"><ele>28.4</ele><time>2022-06-12T09:26:43.000Z</time></trkpt><trkpt lon="5.786751" lat="51.117395"><ele>28.4</ele><time>2022-06-12T09:26:44.000Z</time></trkpt><trkpt lon="5.786776" lat="51.117468"><ele>28.6</ele><time>2022-06-12T09:26:45.000Z</time></trkpt><trkpt lon="5.786799" lat="51.117536"><ele>28.6</ele><time>2022-06-12T09:26:46.000Z</time></trkpt><trkpt lon="5.786822" lat="51.117605"><ele>28.6</ele><time>2022-06-12T09:26:47.000Z</time></trkpt><trkpt lon="5.786844" lat="51.117676"><ele>28.6</ele><time>2022-06-12T09:26:48.000Z</time></trkpt><trkpt lon="5.786866" lat="51.117742"><ele>28.6</ele><time>2022-06-12T09:26:49.000Z</time></trkpt><trkpt lon="5.786889" lat="51.117822"><ele>28.4</ele><time>2022-06-12T09:26:50.000Z</time></trkpt><trkpt lon="5.786912" lat="51.117894"><ele>28.2</ele><time>2022-06-12T09:26:51.000Z</time></trkpt><trkpt lon="5.786931" lat="51.117966"><ele>28.2</ele><time>2022-06-12T09:26:52.000Z</time></trkpt><trkpt lon="5.786943" lat="51.118039"><ele>28</ele><time>2022-06-12T09:26:53.000Z</time></trkpt><trkpt lon="5.786943" lat="51.118116"><ele>28</ele><time>2022-06-12T09:26:54.000Z</time></trkpt><trkpt lon="5.786932" lat="51.118188"><ele>27.8</ele><time>2022-06-12T09:26:55.000Z</time></trkpt><trkpt lon="5.786909" lat="51.118264"><ele>27.6</ele><time>2022-06-12T09:26:56.000Z</time></trkpt><trkpt lon="5.786875" lat="51.118337"><ele>27.4</ele><time>2022-06-12T09:26:57.000Z</time></trkpt><trkpt lon="5.786832" lat="51.118402"><ele>27.4</ele><time>2022-06-12T09:26:58.000Z</time></trkpt><trkpt lon="5.786787" lat="51.118466"><ele>27.4</ele><time>2022-06-12T09:26:59.000Z</time></trkpt><trkpt lon="5.786743" lat="51.118535"><ele>27.6</ele><time>2022-06-12T09:27:00.000Z</time></trkpt><trkpt lon="5.786711" lat="51.118604"><ele>27.4</ele><time>2022-06-12T09:27:01.000Z</time></trkpt><trkpt lon="5.786691" lat="51.118673"><ele>27.2</ele><time>2022-06-12T09:27:02.000Z</time></trkpt><trkpt lon="5.786684" lat="51.118741"><ele>27.4</ele><time>2022-06-12T09:27:03.000Z</time></trkpt><trkpt lon="5.786688" lat="51.118806"><ele>27.6</ele><time>2022-06-12T09:27:04.000Z</time></trkpt><trkpt lon="5.786701" lat="51.118874"><ele>27.8</ele><time>2022-06-12T09:27:05.000Z</time></trkpt><trkpt lon="5.786722" lat="51.118944"><ele>28</ele><time>2022-06-12T09:27:06.000Z</time></trkpt><trkpt lon="5.786749" lat="51.119012"><ele>28</ele><time>2022-06-12T09:27:07.000Z</time></trkpt><trkpt lon="5.786781" lat="51.119081"><ele>28.2</ele><time>2022-06-12T09:27:08.000Z</time></trkpt><trkpt lon="5.786814" lat="51.11915"><ele>28.4</ele><time>2022-06-12T09:27:09.000Z</time></trkpt><trkpt lon="5.786847" lat="51.119218"><ele>28.4</ele><time>2022-06-12T09:27:10.000Z</time></trkpt><trkpt lon="5.786879" lat="51.119287"><ele>28.6</ele><time>2022-06-12T09:27:11.000Z</time></trkpt><trkpt lon="5.78691" lat="51.119359"><ele>28.6</ele><time>2022-06-12T09:27:12.000Z</time></trkpt><trkpt lon="5.78694" lat="51.119424"><ele>28.6</ele><time>2022-06-12T09:27:13.000Z</time></trkpt><trkpt lon="5.78697" lat="51.119496"><ele>28.6</ele><time>2022-06-12T09:27:14.000Z</time></trkpt><trkpt lon="5.787006" lat="51.119566"><ele>28.6</ele><time>2022-06-12T09:27:15.000Z</time></trkpt><trkpt lon="5.787044" lat="51.119634"><ele>28.8</ele><time>2022-06-12T09:27:16.000Z</time></trkpt><trkpt lon="5.78708" lat="51.119703"><ele>28.8</ele><time>2022-06-12T09:27:17.000Z</time></trkpt><trkpt lon="5.787117" lat="51.119774"><ele>28.8</ele><time>2022-06-12T09:27:18.000Z</time></trkpt><trkpt lon="5.787155" lat="51.119848"><ele>28.8</ele><time>2022-06-12T09:27:19.000Z</time></trkpt><trkpt lon="5.787194" lat="51.119916"><ele>28.8</ele><time>2022-06-12T09:27:20.000Z</time></trkpt><trkpt lon="5.787233" lat="51.119985"><ele>28.8</ele><time>2022-06-12T09:27:21.000Z</time></trkpt><trkpt lon="5.787272" lat="51.120057"><ele>28.8</ele><time>2022-06-12T09:27:22.000Z</time></trkpt><trkpt lon="5.787312" lat="51.120126"><ele>28.8</ele><time>2022-06-12T09:27:23.000Z</time></trkpt><trkpt lon="5.78735" lat="51.120195"><ele>29</ele><time>2022-06-12T09:27:24.000Z</time></trkpt><trkpt lon="5.78739" lat="51.120263"><ele>29</ele><time>2022-06-12T09:27:25.000Z</time></trkpt><trkpt lon="5.78743" lat="51.120332"><ele>29</ele><time>2022-06-12T09:27:26.000Z</time></trkpt><trkpt lon="5.787472" lat="51.120401"><ele>29</ele><time>2022-06-12T09:27:27.000Z</time></trkpt><trkpt lon="5.78751" lat="51.120466"><ele>29</ele><time>2022-06-12T09:27:28.000Z</time></trkpt><trkpt lon="5.787548" lat="51.120534"><ele>29</ele><time>2022-06-12T09:27:29.000Z</time></trkpt><trkpt lon="5.787587" lat="51.120603"><ele>29</ele><time>2022-06-12T09:27:30.000Z</time></trkpt><trkpt lon="5.787627" lat="51.120671"><ele>28.8</ele><time>2022-06-12T09:27:31.000Z</time></trkpt><trkpt lon="5.787669" lat="51.120736"><ele>28.8</ele><time>2022-06-12T09:27:32.000Z</time></trkpt><trkpt lon="5.787714" lat="51.120799"><ele>28.6</ele><time>2022-06-12T09:27:33.000Z</time></trkpt><trkpt lon="5.78776" lat="51.120865"><ele>28.6</ele><time>2022-06-12T09:27:34.000Z</time></trkpt><trkpt lon="5.78781" lat="51.120931"><ele>28.6</ele><time>2022-06-12T09:27:35.000Z</time></trkpt><trkpt lon="5.78786" lat="51.120996"><ele>28.6</ele><time>2022-06-12T09:27:36.000Z</time></trkpt><trkpt lon="5.787911" lat="51.12106"><ele>28.6</ele><time>2022-06-12T09:27:37.000Z</time></trkpt><trkpt lon="5.787965" lat="51.121125"><ele>28.6</ele><time>2022-06-12T09:27:38.000Z</time></trkpt><trkpt lon="5.788016" lat="51.12119"><ele>28.6</ele><time>2022-06-12T09:27:39.000Z</time></trkpt><trkpt lon="5.788072" lat="51.121256"><ele>28.6</ele><time>2022-06-12T09:27:40.000Z</time></trkpt><trkpt lon="5.788128" lat="51.12132"><ele>28.6</ele><time>2022-06-12T09:27:41.000Z</time></trkpt><trkpt lon="5.788183" lat="51.121385"><ele>28.6</ele><time>2022-06-12T09:27:42.000Z</time></trkpt><trkpt lon="5.78824" lat="51.12145"><ele>28.6</ele><time>2022-06-12T09:27:43.000Z</time></trkpt><trkpt lon="5.788293" lat="51.121519"><ele>28.6</ele><time>2022-06-12T09:27:44.000Z</time></trkpt><trkpt lon="5.788352" lat="51.121584"><ele>28.8</ele><time>2022-06-12T09:27:45.000Z</time></trkpt><trkpt lon="5.788406" lat="51.121648"><ele>28.8</ele><time>2022-06-12T09:27:46.000Z</time></trkpt><trkpt lon="5.788463" lat="51.121717"><ele>28.6</ele><time>2022-06-12T09:27:47.000Z</time></trkpt><trkpt lon="5.788517" lat="51.121782"><ele>28.6</ele><time>2022-06-12T09:27:48.000Z</time></trkpt><trkpt lon="5.788571" lat="51.121847"><ele>28.6</ele><time>2022-06-12T09:27:49.000Z</time></trkpt><trkpt lon="5.788621" lat="51.121914"><ele>28.8</ele><time>2022-06-12T09:27:50.000Z</time></trkpt><trkpt lon="5.788663" lat="51.121984"><ele>28.6</ele><time>2022-06-12T09:27:51.000Z</time></trkpt><trkpt lon="5.788702" lat="51.122049"><ele>28.6</ele><time>2022-06-12T09:27:52.000Z</time></trkpt><trkpt lon="5.788739" lat="51.122114"><ele>28.6</ele><time>2022-06-12T09:27:53.000Z</time></trkpt><trkpt lon="5.788773" lat="51.122182"><ele>28.6</ele><time>2022-06-12T09:27:54.000Z</time></trkpt><trkpt lon="5.788807" lat="51.122251"><ele>28.6</ele><time>2022-06-12T09:27:55.000Z</time></trkpt><trkpt lon="5.78884" lat="51.122319"><ele>28.6</ele><time>2022-06-12T09:27:56.000Z</time></trkpt><trkpt lon="5.788873" lat="51.122395"><ele>28.6</ele><time>2022-06-12T09:27:57.000Z</time></trkpt><trkpt lon="5.788903" lat="51.122463"><ele>28.4</ele><time>2022-06-12T09:27:58.000Z</time></trkpt><trkpt lon="5.788929" lat="51.12254"><ele>28.4</ele><time>2022-06-12T09:27:59.000Z</time></trkpt><trkpt lon="5.788946" lat="51.122615"><ele>28.4</ele><time>2022-06-12T09:28:00.000Z</time></trkpt><trkpt lon="5.788958" lat="51.122688"><ele>28.4</ele><time>2022-06-12T09:28:01.000Z</time></trkpt><trkpt lon="5.788959" lat="51.122765"><ele>28.2</ele><time>2022-06-12T09:28:02.000Z</time></trkpt><trkpt lon="5.788955" lat="51.122838"><ele>28.2</ele><time>2022-06-12T09:28:03.000Z</time></trkpt><trkpt lon="5.78895" lat="51.122911"><ele>28.2</ele><time>2022-06-12T09:28:04.000Z</time></trkpt><trkpt lon="5.788945" lat="51.122983"><ele>28.2</ele><time>2022-06-12T09:28:05.000Z</time></trkpt><trkpt lon="5.788953" lat="51.123048"><ele>28.2</ele><time>2022-06-12T09:28:06.000Z</time></trkpt><trkpt lon="5.788977" lat="51.123113"><ele>28.2</ele><time>2022-06-12T09:28:07.000Z</time></trkpt><trkpt lon="5.78901" lat="51.123174"><ele>28.2</ele><time>2022-06-12T09:28:08.000Z</time></trkpt><trkpt lon="5.78905" lat="51.123228"><ele>28.2</ele><time>2022-06-12T09:28:09.000Z</time></trkpt><trkpt lon="5.789087" lat="51.123278"><ele>28.2</ele><time>2022-06-12T09:28:10.000Z</time></trkpt><trkpt lon="5.789116" lat="51.12332"><ele>28.4</ele><time>2022-06-12T09:28:11.000Z</time></trkpt><trkpt lon="5.78913" lat="51.123355"><ele>28.4</ele><time>2022-06-12T09:28:12.000Z</time></trkpt><trkpt lon="5.789104" lat="51.123385"><ele>28.4</ele><time>2022-06-12T09:28:13.000Z</time></trkpt><trkpt lon="5.789043" lat="51.123394"><ele>28.2</ele><time>2022-06-12T09:28:14.000Z</time></trkpt><trkpt lon="5.788965" lat="51.123387"><ele>28</ele><time>2022-06-12T09:28:15.000Z</time></trkpt><trkpt lon="5.788878" lat="51.123372"><ele>28</ele><time>2022-06-12T09:28:16.000Z</time></trkpt><trkpt lon="5.78879" lat="51.123349"><ele>27.8</ele><time>2022-06-12T09:28:17.000Z</time></trkpt><trkpt lon="5.788701" lat="51.123326"><ele>27.6</ele><time>2022-06-12T09:28:18.000Z</time></trkpt><trkpt lon="5.788609" lat="51.123303"><ele>27.6</ele><time>2022-06-12T09:28:19.000Z</time></trkpt><trkpt lon="5.788516" lat="51.123281"><ele>27.4</ele><time>2022-06-12T09:28:20.000Z</time></trkpt><trkpt lon="5.788424" lat="51.123258"><ele>27.6</ele><time>2022-06-12T09:28:21.000Z</time></trkpt><trkpt lon="5.788327" lat="51.123231"><ele>27.6</ele><time>2022-06-12T09:28:22.000Z</time></trkpt><trkpt lon="5.788229" lat="51.123208"><ele>27.6</ele><time>2022-06-12T09:28:23.000Z</time></trkpt><trkpt lon="5.788121" lat="51.123189"><ele>27.6</ele><time>2022-06-12T09:28:24.000Z</time></trkpt><trkpt lon="5.788012" lat="51.123173"><ele>27.6</ele><time>2022-06-12T09:28:25.000Z</time></trkpt><trkpt lon="5.787902" lat="51.123165"><ele>27.6</ele><time>2022-06-12T09:28:26.000Z</time></trkpt><trkpt lon="5.787801" lat="51.123165"><ele>27.6</ele><time>2022-06-12T09:28:27.000Z</time></trkpt><trkpt lon="5.787676" lat="51.123165"><ele>27.8</ele><time>2022-06-12T09:28:28.000Z</time></trkpt><trkpt lon="5.787564" lat="51.123165"><ele>27.6</ele><time>2022-06-12T09:28:29.000Z</time></trkpt><trkpt lon="5.787448" lat="51.123165"><ele>27.8</ele><time>2022-06-12T09:28:30.000Z</time></trkpt><trkpt lon="5.787338" lat="51.123165"><ele>27.8</ele><time>2022-06-12T09:28:31.000Z</time></trkpt><trkpt lon="5.787224" lat="51.123161"><ele>28</ele><time>2022-06-12T09:28:32.000Z</time></trkpt><trkpt lon="5.787113" lat="51.123165"><ele>28</ele><time>2022-06-12T09:28:33.000Z</time></trkpt><trkpt lon="5.787" lat="51.123165"><ele>28</ele><time>2022-06-12T09:28:34.000Z</time></trkpt><trkpt lon="5.786891" lat="51.123161"><ele>28.2</ele><time>2022-06-12T09:28:35.000Z</time></trkpt><trkpt lon="5.786777" lat="51.123158"><ele>28.4</ele><time>2022-06-12T09:28:36.000Z</time></trkpt><trkpt lon="5.786668" lat="51.123154"><ele>28.6</ele><time>2022-06-12T09:28:37.000Z</time></trkpt><trkpt lon="5.786556" lat="51.123154"><ele>28.6</ele><time>2022-06-12T09:28:38.000Z</time></trkpt><trkpt lon="5.786442" lat="51.12315"><ele>28.8</ele><time>2022-06-12T09:28:39.000Z</time></trkpt><trkpt lon="5.786332" lat="51.123146"><ele>28.8</ele><time>2022-06-12T09:28:40.000Z</time></trkpt><trkpt lon="5.786222" lat="51.123142"><ele>28.8</ele><time>2022-06-12T09:28:41.000Z</time></trkpt><trkpt lon="5.786113" lat="51.123142"><ele>28.6</ele><time>2022-06-12T09:28:42.000Z</time></trkpt><trkpt lon="5.786004" lat="51.123139"><ele>28.6</ele><time>2022-06-12T09:28:43.000Z</time></trkpt><trkpt lon="5.785895" lat="51.123135"><ele>28.8</ele><time>2022-06-12T09:28:44.000Z</time></trkpt><trkpt lon="5.785787" lat="51.123131"><ele>28.8</ele><time>2022-06-12T09:28:45.000Z</time></trkpt><trkpt lon="5.785683" lat="51.123127"><ele>28.8</ele><time>2022-06-12T09:28:46.000Z</time></trkpt><trkpt lon="5.785575" lat="51.123127"><ele>28.8</ele><time>2022-06-12T09:28:47.000Z</time></trkpt><trkpt lon="5.785472" lat="51.123127"><ele>28.8</ele><time>2022-06-12T09:28:48.000Z</time></trkpt><trkpt lon="5.785374" lat="51.123127"><ele>29</ele><time>2022-06-12T09:28:49.000Z</time></trkpt><trkpt lon="5.785277" lat="51.12312"><ele>29</ele><time>2022-06-12T09:28:50.000Z</time></trkpt><trkpt lon="5.785184" lat="51.123101"><ele>29</ele><time>2022-06-12T09:28:51.000Z</time></trkpt><trkpt lon="5.785097" lat="51.123071"><ele>29</ele><time>2022-06-12T09:28:52.000Z</time></trkpt><trkpt lon="5.785013" lat="51.12304"><ele>29</ele><time>2022-06-12T09:28:53.000Z</time></trkpt><trkpt lon="5.784931" lat="51.123007"><ele>29.2</ele><time>2022-06-12T09:28:54.000Z</time></trkpt><trkpt lon="5.784847" lat="51.122968"><ele>29.2</ele><time>2022-06-12T09:28:55.000Z</time></trkpt><trkpt lon="5.784762" lat="51.12293"><ele>29.2</ele><time>2022-06-12T09:28:56.000Z</time></trkpt><trkpt lon="5.784675" lat="51.122895"><ele>29.2</ele><time>2022-06-12T09:28:57.000Z</time></trkpt><trkpt lon="5.784579" lat="51.122865"><ele>29.2</ele><time>2022-06-12T09:28:58.000Z</time></trkpt><trkpt lon="5.784472" lat="51.122853"><ele>29</ele><time>2022-06-12T09:28:59.000Z</time></trkpt><trkpt lon="5.784366" lat="51.122852"><ele>29</ele><time>2022-06-12T09:29:00.000Z</time></trkpt><trkpt lon="5.784257" lat="51.122863"><ele>29</ele><time>2022-06-12T09:29:01.000Z</time></trkpt><trkpt lon="5.784146" lat="51.122878"><ele>28.8</ele><time>2022-06-12T09:29:02.000Z</time></trkpt><trkpt lon="5.784039" lat="51.122897"><ele>29</ele><time>2022-06-12T09:29:03.000Z</time></trkpt><trkpt lon="5.783928" lat="51.122917"><ele>29</ele><time>2022-06-12T09:29:04.000Z</time></trkpt><trkpt lon="5.783818" lat="51.122935"><ele>28.8</ele><time>2022-06-12T09:29:05.000Z</time></trkpt><trkpt lon="5.783704" lat="51.122958"><ele>28.8</ele><time>2022-06-12T09:29:06.000Z</time></trkpt><trkpt lon="5.783588" lat="51.122977"><ele>28.8</ele><time>2022-06-12T09:29:07.000Z</time></trkpt><trkpt lon="5.783475" lat="51.122993"><ele>29</ele><time>2022-06-12T09:29:08.000Z</time></trkpt><trkpt lon="5.783365" lat="51.123012"><ele>29</ele><time>2022-06-12T09:29:09.000Z</time></trkpt><trkpt lon="5.783253" lat="51.123035"><ele>29</ele><time>2022-06-12T09:29:10.000Z</time></trkpt><trkpt lon="5.783138" lat="51.123057"><ele>29</ele><time>2022-06-12T09:29:11.000Z</time></trkpt><trkpt lon="5.783022" lat="51.123077"><ele>29</ele><time>2022-06-12T09:29:12.000Z</time></trkpt><trkpt lon="5.782909" lat="51.123096"><ele>28.8</ele><time>2022-06-12T09:29:13.000Z</time></trkpt><trkpt lon="5.782796" lat="51.123118"><ele>28.6</ele><time>2022-06-12T09:29:14.000Z</time></trkpt><trkpt lon="5.782684" lat="51.123138"><ele>28.4</ele><time>2022-06-12T09:29:15.000Z</time></trkpt><trkpt lon="5.782575" lat="51.123157"><ele>28.4</ele><time>2022-06-12T09:29:16.000Z</time></trkpt><trkpt lon="5.782464" lat="51.123176"><ele>28.4</ele><time>2022-06-12T09:29:17.000Z</time></trkpt><trkpt lon="5.782352" lat="51.123195"><ele>28.4</ele><time>2022-06-12T09:29:18.000Z</time></trkpt><trkpt lon="5.782242" lat="51.123218"><ele>28.4</ele><time>2022-06-12T09:29:19.000Z</time></trkpt><trkpt lon="5.782134" lat="51.123233"><ele>28.4</ele><time>2022-06-12T09:29:20.000Z</time></trkpt><trkpt lon="5.782026" lat="51.123252"><ele>28.4</ele><time>2022-06-12T09:29:21.000Z</time></trkpt><trkpt lon="5.78192" lat="51.123271"><ele>28.4</ele><time>2022-06-12T09:29:22.000Z</time></trkpt><trkpt lon="5.781812" lat="51.12329"><ele>28.6</ele><time>2022-06-12T09:29:23.000Z</time></trkpt><trkpt lon="5.781703" lat="51.123309"><ele>28.6</ele><time>2022-06-12T09:29:24.000Z</time></trkpt><trkpt lon="5.781596" lat="51.123328"><ele>28.4</ele><time>2022-06-12T09:29:25.000Z</time></trkpt><trkpt lon="5.781491" lat="51.123347"><ele>28.4</ele><time>2022-06-12T09:29:26.000Z</time></trkpt><trkpt lon="5.781388" lat="51.123367"><ele>28.4</ele><time>2022-06-12T09:29:27.000Z</time></trkpt><trkpt lon="5.781289" lat="51.123382"><ele>28.2</ele><time>2022-06-12T09:29:28.000Z</time></trkpt><trkpt lon="5.781189" lat="51.123401"><ele>28</ele><time>2022-06-12T09:29:29.000Z</time></trkpt><trkpt lon="5.781094" lat="51.123416"><ele>28</ele><time>2022-06-12T09:29:30.000Z</time></trkpt><trkpt lon="5.781002" lat="51.123428"><ele>28</ele><time>2022-06-12T09:29:31.000Z</time></trkpt><trkpt lon="5.780904" lat="51.123447"><ele>28</ele><time>2022-06-12T09:29:32.000Z</time></trkpt><trkpt lon="5.780805" lat="51.123466"><ele>28</ele><time>2022-06-12T09:29:33.000Z</time></trkpt><trkpt lon="5.780702" lat="51.123481"><ele>28.2</ele><time>2022-06-12T09:29:34.000Z</time></trkpt><trkpt lon="5.780599" lat="51.1235"><ele>28.4</ele><time>2022-06-12T09:29:35.000Z</time></trkpt><trkpt lon="5.780494" lat="51.123519"><ele>28.6</ele><time>2022-06-12T09:29:36.000Z</time></trkpt><trkpt lon="5.780391" lat="51.123538"><ele>28.6</ele><time>2022-06-12T09:29:37.000Z</time></trkpt><trkpt lon="5.780287" lat="51.123557"><ele>28.8</ele><time>2022-06-12T09:29:38.000Z</time></trkpt><trkpt lon="5.78018" lat="51.123577"><ele>28.8</ele><time>2022-06-12T09:29:39.000Z</time></trkpt><trkpt lon="5.780074" lat="51.123595"><ele>28.8</ele><time>2022-06-12T09:29:40.000Z</time></trkpt><trkpt lon="5.779969" lat="51.123611"><ele>29</ele><time>2022-06-12T09:29:41.000Z</time></trkpt><trkpt lon="5.779862" lat="51.123633"><ele>29</ele><time>2022-06-12T09:29:42.000Z</time></trkpt><trkpt lon="5.779753" lat="51.123653"><ele>29</ele><time>2022-06-12T09:29:43.000Z</time></trkpt><trkpt lon="5.779649" lat="51.123672"><ele>29.2</ele><time>2022-06-12T09:29:44.000Z</time></trkpt><trkpt lon="5.77954" lat="51.123691"><ele>29.2</ele><time>2022-06-12T09:29:45.000Z</time></trkpt><trkpt lon="5.779432" lat="51.12371"><ele>29.2</ele><time>2022-06-12T09:29:46.000Z</time></trkpt><trkpt lon="5.779326" lat="51.123729"><ele>29.4</ele><time>2022-06-12T09:29:47.000Z</time></trkpt><trkpt lon="5.779217" lat="51.123748"><ele>29.4</ele><time>2022-06-12T09:29:48.000Z</time></trkpt><trkpt lon="5.779109" lat="51.123771"><ele>29.4</ele><time>2022-06-12T09:29:49.000Z</time></trkpt><trkpt lon="5.779001" lat="51.12379"><ele>29.4</ele><time>2022-06-12T09:29:50.000Z</time></trkpt><trkpt lon="5.778895" lat="51.123809"><ele>29.6</ele><time>2022-06-12T09:29:51.000Z</time></trkpt><trkpt lon="5.778783" lat="51.123828"><ele>29.6</ele><time>2022-06-12T09:29:52.000Z</time></trkpt><trkpt lon="5.778672" lat="51.123851"><ele>29.6</ele><time>2022-06-12T09:29:53.000Z</time></trkpt><trkpt lon="5.778562" lat="51.12387"><ele>29.4</ele><time>2022-06-12T09:29:54.000Z</time></trkpt><trkpt lon="5.778456" lat="51.123889"><ele>29.4</ele><time>2022-06-12T09:29:55.000Z</time></trkpt><trkpt lon="5.778347" lat="51.123905"><ele>29.4</ele><time>2022-06-12T09:29:56.000Z</time></trkpt><trkpt lon="5.778238" lat="51.123927"><ele>29.4</ele><time>2022-06-12T09:29:57.000Z</time></trkpt><trkpt lon="5.778129" lat="51.123946"><ele>29.4</ele><time>2022-06-12T09:29:58.000Z</time></trkpt><trkpt lon="5.778028" lat="51.123964"><ele>29.4</ele><time>2022-06-12T09:29:59.000Z</time></trkpt><trkpt lon="5.777913" lat="51.123985"><ele>29.4</ele><time>2022-06-12T09:30:00.000Z</time></trkpt><trkpt lon="5.777809" lat="51.124004"><ele>29.4</ele><time>2022-06-12T09:30:01.000Z</time></trkpt><trkpt lon="5.777705" lat="51.124023"><ele>29.4</ele><time>2022-06-12T09:30:02.000Z</time></trkpt><trkpt lon="5.777603" lat="51.124046"><ele>29.2</ele><time>2022-06-12T09:30:03.000Z</time></trkpt><trkpt lon="5.777501" lat="51.124068"><ele>29.2</ele><time>2022-06-12T09:30:04.000Z</time></trkpt><trkpt lon="5.777397" lat="51.124095"><ele>29.4</ele><time>2022-06-12T09:30:05.000Z</time></trkpt><trkpt lon="5.777293" lat="51.124118"><ele>29.4</ele><time>2022-06-12T09:30:06.000Z</time></trkpt><trkpt lon="5.777189" lat="51.124144"><ele>29.6</ele><time>2022-06-12T09:30:07.000Z</time></trkpt><trkpt lon="5.777084" lat="51.124168"><ele>29.6</ele><time>2022-06-12T09:30:08.000Z</time></trkpt><trkpt lon="5.77698" lat="51.124193"><ele>29.6</ele><time>2022-06-12T09:30:09.000Z</time></trkpt><trkpt lon="5.776871" lat="51.124221"><ele>29.6</ele><time>2022-06-12T09:30:10.000Z</time></trkpt><trkpt lon="5.776764" lat="51.124248"><ele>29.6</ele><time>2022-06-12T09:30:11.000Z</time></trkpt><trkpt lon="5.776659" lat="51.12427"><ele>29.6</ele><time>2022-06-12T09:30:12.000Z</time></trkpt><trkpt lon="5.776554" lat="51.124301"><ele>29.6</ele><time>2022-06-12T09:30:13.000Z</time></trkpt><trkpt lon="5.776451" lat="51.124328"><ele>29.6</ele><time>2022-06-12T09:30:14.000Z</time></trkpt><trkpt lon="5.776345" lat="51.124354"><ele>29.6</ele><time>2022-06-12T09:30:15.000Z</time></trkpt><trkpt lon="5.776245" lat="51.124381"><ele>29.6</ele><time>2022-06-12T09:30:16.000Z</time></trkpt><trkpt lon="5.776143" lat="51.124408"><ele>29.8</ele><time>2022-06-12T09:30:17.000Z</time></trkpt><trkpt lon="5.776041" lat="51.124434"><ele>29.8</ele><time>2022-06-12T09:30:18.000Z</time></trkpt><trkpt lon="5.775939" lat="51.124457"><ele>29.8</ele><time>2022-06-12T09:30:19.000Z</time></trkpt><trkpt lon="5.775836" lat="51.124484"><ele>29.8</ele><time>2022-06-12T09:30:20.000Z</time></trkpt><trkpt lon="5.775735" lat="51.124503"><ele>29.6</ele><time>2022-06-12T09:30:21.000Z</time></trkpt><trkpt lon="5.775623" lat="51.124522"><ele>29.6</ele><time>2022-06-12T09:30:22.000Z</time></trkpt><trkpt lon="5.775512" lat="51.124545"><ele>29.6</ele><time>2022-06-12T09:30:23.000Z</time></trkpt><trkpt lon="5.775403" lat="51.124564"><ele>29.6</ele><time>2022-06-12T09:30:24.000Z</time></trkpt><trkpt lon="5.775291" lat="51.124587"><ele>29.8</ele><time>2022-06-12T09:30:25.000Z</time></trkpt><trkpt lon="5.77518" lat="51.124603"><ele>29.6</ele><time>2022-06-12T09:30:26.000Z</time></trkpt><trkpt lon="5.775071" lat="51.124625"><ele>29.8</ele><time>2022-06-12T09:30:27.000Z</time></trkpt><trkpt lon="5.774961" lat="51.124644"><ele>29.8</ele><time>2022-06-12T09:30:28.000Z</time></trkpt><trkpt lon="5.774851" lat="51.12466"><ele>29.8</ele><time>2022-06-12T09:30:29.000Z</time></trkpt><trkpt lon="5.77474" lat="51.124679"><ele>29.8</ele><time>2022-06-12T09:30:30.000Z</time></trkpt><trkpt lon="5.774628" lat="51.124694"><ele>29.8</ele><time>2022-06-12T09:30:31.000Z</time></trkpt><trkpt lon="5.774516" lat="51.124713"><ele>29.8</ele><time>2022-06-12T09:30:32.000Z</time></trkpt><trkpt lon="5.774405" lat="51.124732"><ele>29.8</ele><time>2022-06-12T09:30:33.000Z</time></trkpt><trkpt lon="5.774295" lat="51.124751"><ele>29.8</ele><time>2022-06-12T09:30:34.000Z</time></trkpt><trkpt lon="5.774183" lat="51.12477"><ele>29.8</ele><time>2022-06-12T09:30:35.000Z</time></trkpt><trkpt lon="5.774076" lat="51.124789"><ele>29.8</ele><time>2022-06-12T09:30:36.000Z</time></trkpt><trkpt lon="5.773969" lat="51.124812"><ele>29.8</ele><time>2022-06-12T09:30:37.000Z</time></trkpt><trkpt lon="5.773863" lat="51.124839"><ele>29.8</ele><time>2022-06-12T09:30:38.000Z</time></trkpt><trkpt lon="5.773758" lat="51.124865"><ele>29.8</ele><time>2022-06-12T09:30:39.000Z</time></trkpt><trkpt lon="5.773655" lat="51.124892"><ele>29.8</ele><time>2022-06-12T09:30:40.000Z</time></trkpt><trkpt lon="5.773552" lat="51.124926"><ele>29.8</ele><time>2022-06-12T09:30:41.000Z</time></trkpt><trkpt lon="5.773448" lat="51.124961"><ele>29.6</ele><time>2022-06-12T09:30:42.000Z</time></trkpt><trkpt lon="5.773361" lat="51.12499"><ele>29.6</ele><time>2022-06-12T09:30:43.000Z</time></trkpt><trkpt lon="5.773257" lat="51.125028"><ele>29.6</ele><time>2022-06-12T09:30:44.000Z</time></trkpt><trkpt lon="5.773148" lat="51.125068"><ele>29.6</ele><time>2022-06-12T09:30:45.000Z</time></trkpt><trkpt lon="5.773053" lat="51.125109"><ele>29.6</ele><time>2022-06-12T09:30:46.000Z</time></trkpt><trkpt lon="5.772958" lat="51.125151"><ele>29.6</ele><time>2022-06-12T09:30:47.000Z</time></trkpt><trkpt lon="5.772867" lat="51.125193"><ele>29.6</ele><time>2022-06-12T09:30:48.000Z</time></trkpt><trkpt lon="5.772776" lat="51.125231"><ele>29.4</ele><time>2022-06-12T09:30:49.000Z</time></trkpt><trkpt lon="5.772686" lat="51.125276"><ele>29.4</ele><time>2022-06-12T09:30:50.000Z</time></trkpt><trkpt lon="5.772588" lat="51.125315"><ele>29.2</ele><time>2022-06-12T09:30:51.000Z</time></trkpt><trkpt lon="5.772495" lat="51.125357"><ele>29.2</ele><time>2022-06-12T09:30:52.000Z</time></trkpt><trkpt lon="5.772402" lat="51.125399"><ele>29.2</ele><time>2022-06-12T09:30:53.000Z</time></trkpt><trkpt lon="5.772311" lat="51.125443"><ele>29.2</ele><time>2022-06-12T09:30:54.000Z</time></trkpt><trkpt lon="5.77222" lat="51.125483"><ele>29.2</ele><time>2022-06-12T09:30:55.000Z</time></trkpt><trkpt lon="5.772133" lat="51.125521"><ele>29</ele><time>2022-06-12T09:30:56.000Z</time></trkpt><trkpt lon="5.772045" lat="51.125559"><ele>29</ele><time>2022-06-12T09:30:57.000Z</time></trkpt><trkpt lon="5.771954" lat="51.125597"><ele>29</ele><time>2022-06-12T09:30:58.000Z</time></trkpt><trkpt lon="5.77186" lat="51.125638"><ele>29</ele><time>2022-06-12T09:30:59.000Z</time></trkpt><trkpt lon="5.771769" lat="51.125681"><ele>28.8</ele><time>2022-06-12T09:31:00.000Z</time></trkpt><trkpt lon="5.771678" lat="51.125723"><ele>28.8</ele><time>2022-06-12T09:31:01.000Z</time></trkpt><trkpt lon="5.771586" lat="51.125765"><ele>28.8</ele><time>2022-06-12T09:31:02.000Z</time></trkpt><trkpt lon="5.771495" lat="51.125807"><ele>28.6</ele><time>2022-06-12T09:31:03.000Z</time></trkpt><trkpt lon="5.771405" lat="51.125849"><ele>28.6</ele><time>2022-06-12T09:31:04.000Z</time></trkpt><trkpt lon="5.771315" lat="51.125895"><ele>28.6</ele><time>2022-06-12T09:31:05.000Z</time></trkpt><trkpt lon="5.771231" lat="51.125936"><ele>28.6</ele><time>2022-06-12T09:31:06.000Z</time></trkpt><trkpt lon="5.771143" lat="51.125979"><ele>28.6</ele><time>2022-06-12T09:31:07.000Z</time></trkpt><trkpt lon="5.771053" lat="51.126025"><ele>28.6</ele><time>2022-06-12T09:31:08.000Z</time></trkpt><trkpt lon="5.770965" lat="51.126067"><ele>28.6</ele><time>2022-06-12T09:31:09.000Z</time></trkpt><trkpt lon="5.770875" lat="51.126108"><ele>28.4</ele><time>2022-06-12T09:31:10.000Z</time></trkpt><trkpt lon="5.770787" lat="51.126154"><ele>28.4</ele><time>2022-06-12T09:31:11.000Z</time></trkpt><trkpt lon="5.770695" lat="51.1262"><ele>28.2</ele><time>2022-06-12T09:31:12.000Z</time></trkpt><trkpt lon="5.770603" lat="51.126246"><ele>28.2</ele><time>2022-06-12T09:31:13.000Z</time></trkpt><trkpt lon="5.770509" lat="51.126291"><ele>28</ele><time>2022-06-12T09:31:14.000Z</time></trkpt><trkpt lon="5.770411" lat="51.126337"><ele>28</ele><time>2022-06-12T09:31:15.000Z</time></trkpt><trkpt lon="5.770317" lat="51.126383"><ele>28</ele><time>2022-06-12T09:31:16.000Z</time></trkpt><trkpt lon="5.770231" lat="51.126423"><ele>28</ele><time>2022-06-12T09:31:17.000Z</time></trkpt><trkpt lon="5.770139" lat="51.126466"><ele>27.8</ele><time>2022-06-12T09:31:18.000Z</time></trkpt><trkpt lon="5.770047" lat="51.126511"><ele>27.8</ele><time>2022-06-12T09:31:19.000Z</time></trkpt><trkpt lon="5.76996" lat="51.126562"><ele>27.6</ele><time>2022-06-12T09:31:20.000Z</time></trkpt><trkpt lon="5.769884" lat="51.126618"><ele>27.6</ele><time>2022-06-12T09:31:21.000Z</time></trkpt><trkpt lon="5.769816" lat="51.126676"><ele>27.6</ele><time>2022-06-12T09:31:22.000Z</time></trkpt><trkpt lon="5.769756" lat="51.126737"><ele>27.4</ele><time>2022-06-12T09:31:23.000Z</time></trkpt><trkpt lon="5.769703" lat="51.126798"><ele>27.4</ele><time>2022-06-12T09:31:24.000Z</time></trkpt><trkpt lon="5.769655" lat="51.126863"><ele>27.4</ele><time>2022-06-12T09:31:25.000Z</time></trkpt><trkpt lon="5.769607" lat="51.126924"><ele>27.4</ele><time>2022-06-12T09:31:26.000Z</time></trkpt><trkpt lon="5.76956" lat="51.126989"><ele>27.4</ele><time>2022-06-12T09:31:27.000Z</time></trkpt><trkpt lon="5.769513" lat="51.12705"><ele>27.4</ele><time>2022-06-12T09:31:28.000Z</time></trkpt><trkpt lon="5.769467" lat="51.127111"><ele>27.4</ele><time>2022-06-12T09:31:29.000Z</time></trkpt><trkpt lon="5.769423" lat="51.127176"><ele>27.4</ele><time>2022-06-12T09:31:30.000Z</time></trkpt><trkpt lon="5.769383" lat="51.12724"><ele>27.4</ele><time>2022-06-12T09:31:31.000Z</time></trkpt><trkpt lon="5.769348" lat="51.127305"><ele>27.4</ele><time>2022-06-12T09:31:32.000Z</time></trkpt><trkpt lon="5.769315" lat="51.12737"><ele>27.4</ele><time>2022-06-12T09:31:33.000Z</time></trkpt><trkpt lon="5.769281" lat="51.127435"><ele>27.4</ele><time>2022-06-12T09:31:34.000Z</time></trkpt><trkpt lon="5.76925" lat="51.127504"><ele>27.4</ele><time>2022-06-12T09:31:35.000Z</time></trkpt><trkpt lon="5.76922" lat="51.127569"><ele>27.6</ele><time>2022-06-12T09:31:36.000Z</time></trkpt><trkpt lon="5.76919" lat="51.127637"><ele>27.6</ele><time>2022-06-12T09:31:37.000Z</time></trkpt><trkpt lon="5.769161" lat="51.127706"><ele>27.6</ele><time>2022-06-12T09:31:38.000Z</time></trkpt><trkpt lon="5.769134" lat="51.127771"><ele>27.6</ele><time>2022-06-12T09:31:39.000Z</time></trkpt><trkpt lon="5.769108" lat="51.127834"><ele>27.6</ele><time>2022-06-12T09:31:40.000Z</time></trkpt><trkpt lon="5.769086" lat="51.127897"><ele>27.6</ele><time>2022-06-12T09:31:41.000Z</time></trkpt><trkpt lon="5.769063" lat="51.127965"><ele>27.6</ele><time>2022-06-12T09:31:42.000Z</time></trkpt><trkpt lon="5.769041" lat="51.12803"><ele>27.6</ele><time>2022-06-12T09:31:43.000Z</time></trkpt><trkpt lon="5.769022" lat="51.128098"><ele>27.6</ele><time>2022-06-12T09:31:44.000Z</time></trkpt><trkpt lon="5.769001" lat="51.128166"><ele>27.6</ele><time>2022-06-12T09:31:45.000Z</time></trkpt><trkpt lon="5.768981" lat="51.128234"><ele>27.6</ele><time>2022-06-12T09:31:46.000Z</time></trkpt><trkpt lon="5.768961" lat="51.128309"><ele>27.6</ele><time>2022-06-12T09:31:47.000Z</time></trkpt><trkpt lon="5.768941" lat="51.128377"><ele>27.6</ele><time>2022-06-12T09:31:48.000Z</time></trkpt><trkpt lon="5.768919" lat="51.128446"><ele>27.6</ele><time>2022-06-12T09:31:49.000Z</time></trkpt><trkpt lon="5.768897" lat="51.128518"><ele>27.6</ele><time>2022-06-12T09:31:50.000Z</time></trkpt><trkpt lon="5.768877" lat="51.128587"><ele>27.6</ele><time>2022-06-12T09:31:51.000Z</time></trkpt><trkpt lon="5.768857" lat="51.128656"><ele>27.6</ele><time>2022-06-12T09:31:52.000Z</time></trkpt><trkpt lon="5.768836" lat="51.128725"><ele>27.6</ele><time>2022-06-12T09:31:53.000Z</time></trkpt><trkpt lon="5.768814" lat="51.128793"><ele>27.6</ele><time>2022-06-12T09:31:54.000Z</time></trkpt><trkpt lon="5.768792" lat="51.128865"><ele>27.4</ele><time>2022-06-12T09:31:55.000Z</time></trkpt><trkpt lon="5.768772" lat="51.128934"><ele>27.4</ele><time>2022-06-12T09:31:56.000Z</time></trkpt><trkpt lon="5.768752" lat="51.129003"><ele>27.4</ele><time>2022-06-12T09:31:57.000Z</time></trkpt><trkpt lon="5.768731" lat="51.129074"><ele>27.2</ele><time>2022-06-12T09:31:58.000Z</time></trkpt><trkpt lon="5.768709" lat="51.129144"><ele>27</ele><time>2022-06-12T09:31:59.000Z</time></trkpt><trkpt lon="5.768688" lat="51.129213"><ele>27.2</ele><time>2022-06-12T09:32:00.000Z</time></trkpt><trkpt lon="5.768668" lat="51.129277"><ele>27.2</ele><time>2022-06-12T09:32:01.000Z</time></trkpt><trkpt lon="5.768647" lat="51.129346"><ele>27.2</ele><time>2022-06-12T09:32:02.000Z</time></trkpt><trkpt lon="5.768629" lat="51.129408"><ele>27.2</ele><time>2022-06-12T09:32:03.000Z</time></trkpt><trkpt lon="5.768611" lat="51.129472"><ele>27.2</ele><time>2022-06-12T09:32:04.000Z</time></trkpt><trkpt lon="5.768591" lat="51.129537"><ele>27.2</ele><time>2022-06-12T09:32:05.000Z</time></trkpt><trkpt lon="5.768571" lat="51.129598"><ele>27.2</ele><time>2022-06-12T09:32:06.000Z</time></trkpt><trkpt lon="5.768553" lat="51.129663"><ele>27.2</ele><time>2022-06-12T09:32:07.000Z</time></trkpt><trkpt lon="5.768534" lat="51.129728"><ele>27.2</ele><time>2022-06-12T09:32:08.000Z</time></trkpt><trkpt lon="5.768516" lat="51.129793"><ele>27.2</ele><time>2022-06-12T09:32:09.000Z</time></trkpt><trkpt lon="5.768497" lat="51.129854"><ele>27.2</ele><time>2022-06-12T09:32:10.000Z</time></trkpt><trkpt lon="5.76848" lat="51.129915"><ele>27.2</ele><time>2022-06-12T09:32:11.000Z</time></trkpt><trkpt lon="5.768464" lat="51.129975"><ele>27.4</ele><time>2022-06-12T09:32:12.000Z</time></trkpt><trkpt lon="5.768447" lat="51.130032"><ele>27.4</ele><time>2022-06-12T09:32:13.000Z</time></trkpt><trkpt lon="5.768431" lat="51.13009"><ele>27.6</ele><time>2022-06-12T09:32:14.000Z</time></trkpt><trkpt lon="5.768414" lat="51.130148"><ele>27.8</ele><time>2022-06-12T09:32:15.000Z</time></trkpt><trkpt lon="5.768396" lat="51.130205"><ele>27.8</ele><time>2022-06-12T09:32:16.000Z</time></trkpt><trkpt lon="5.768379" lat="51.130262"><ele>28</ele><time>2022-06-12T09:32:17.000Z</time></trkpt><trkpt lon="5.768361" lat="51.130327"><ele>28</ele><time>2022-06-12T09:32:18.000Z</time></trkpt><trkpt lon="5.768342" lat="51.130388"><ele>28</ele><time>2022-06-12T09:32:19.000Z</time></trkpt><trkpt lon="5.768327" lat="51.130453"><ele>28</ele><time>2022-06-12T09:32:20.000Z</time></trkpt><trkpt lon="5.768312" lat="51.130521"><ele>28</ele><time>2022-06-12T09:32:21.000Z</time></trkpt><trkpt lon="5.768295" lat="51.13059"><ele>28</ele><time>2022-06-12T09:32:22.000Z</time></trkpt><trkpt lon="5.768276" lat="51.130658"><ele>27.8</ele><time>2022-06-12T09:32:23.000Z</time></trkpt><trkpt lon="5.768254" lat="51.130731"><ele>27.8</ele><time>2022-06-12T09:32:24.000Z</time></trkpt><trkpt lon="5.768233" lat="51.130803"><ele>28</ele><time>2022-06-12T09:32:25.000Z</time></trkpt><trkpt lon="5.768211" lat="51.130876"><ele>28</ele><time>2022-06-12T09:32:26.000Z</time></trkpt><trkpt lon="5.768186" lat="51.130945"><ele>28</ele><time>2022-06-12T09:32:27.000Z</time></trkpt><trkpt lon="5.768158" lat="51.131013"><ele>28</ele><time>2022-06-12T09:32:28.000Z</time></trkpt><trkpt lon="5.76813" lat="51.131077"><ele>28</ele><time>2022-06-12T09:32:29.000Z</time></trkpt><trkpt lon="5.768101" lat="51.13114"><ele>27.8</ele><time>2022-06-12T09:32:30.000Z</time></trkpt><trkpt lon="5.768071" lat="51.131204"><ele>27.8</ele><time>2022-06-12T09:32:31.000Z</time></trkpt><trkpt lon="5.768044" lat="51.131267"><ele>27.8</ele><time>2022-06-12T09:32:32.000Z</time></trkpt><trkpt lon="5.768009" lat="51.131334"><ele>27.8</ele><time>2022-06-12T09:32:33.000Z</time></trkpt><trkpt lon="5.767976" lat="51.131402"><ele>27.8</ele><time>2022-06-12T09:32:34.000Z</time></trkpt><trkpt lon="5.76794" lat="51.131467"><ele>27.8</ele><time>2022-06-12T09:32:35.000Z</time></trkpt><trkpt lon="5.767901" lat="51.131536"><ele>27.8</ele><time>2022-06-12T09:32:36.000Z</time></trkpt><trkpt lon="5.767861" lat="51.131601"><ele>27.8</ele><time>2022-06-12T09:32:37.000Z</time></trkpt><trkpt lon="5.76782" lat="51.131669"><ele>27.6</ele><time>2022-06-12T09:32:38.000Z</time></trkpt><trkpt lon="5.76778" lat="51.131734"><ele>27.6</ele><time>2022-06-12T09:32:39.000Z</time></trkpt><trkpt lon="5.767741" lat="51.131797"><ele>27.6</ele><time>2022-06-12T09:32:40.000Z</time></trkpt><trkpt lon="5.767702" lat="51.131864"><ele>27.6</ele><time>2022-06-12T09:32:41.000Z</time></trkpt><trkpt lon="5.767668" lat="51.131933"><ele>27.6</ele><time>2022-06-12T09:32:42.000Z</time></trkpt><trkpt lon="5.767636" lat="51.131998"><ele>27.6</ele><time>2022-06-12T09:32:43.000Z</time></trkpt><trkpt lon="5.767612" lat="51.132053"><ele>27.6</ele><time>2022-06-12T09:32:44.000Z</time></trkpt><trkpt lon="5.767581" lat="51.132132"><ele>27.6</ele><time>2022-06-12T09:32:45.000Z</time></trkpt><trkpt lon="5.767553" lat="51.132196"><ele>27.6</ele><time>2022-06-12T09:32:46.000Z</time></trkpt><trkpt lon="5.767526" lat="51.132265"><ele>27.4</ele><time>2022-06-12T09:32:47.000Z</time></trkpt><trkpt lon="5.767496" lat="51.132333"><ele>27.4</ele><time>2022-06-12T09:32:48.000Z</time></trkpt><trkpt lon="5.767468" lat="51.132402"><ele>27.4</ele><time>2022-06-12T09:32:49.000Z</time></trkpt><trkpt lon="5.767441" lat="51.132474"><ele>27.4</ele><time>2022-06-12T09:32:50.000Z</time></trkpt><trkpt lon="5.767417" lat="51.132541"><ele>27.2</ele><time>2022-06-12T09:32:51.000Z</time></trkpt><trkpt lon="5.767394" lat="51.132614"><ele>27.2</ele><time>2022-06-12T09:32:52.000Z</time></trkpt><trkpt lon="5.767374" lat="51.132684"><ele>27.2</ele><time>2022-06-12T09:32:53.000Z</time></trkpt><trkpt lon="5.767358" lat="51.132752"><ele>27.2</ele><time>2022-06-12T09:32:54.000Z</time></trkpt><trkpt lon="5.767342" lat="51.132821"><ele>27.4</ele><time>2022-06-12T09:32:55.000Z</time></trkpt><trkpt lon="5.767331" lat="51.132889"><ele>27.4</ele><time>2022-06-12T09:32:56.000Z</time></trkpt><trkpt lon="5.76732" lat="51.132959"><ele>27.4</ele><time>2022-06-12T09:32:57.000Z</time></trkpt><trkpt lon="5.76731" lat="51.133024"><ele>27.4</ele><time>2022-06-12T09:32:58.000Z</time></trkpt><trkpt lon="5.7673" lat="51.133092"><ele>27.6</ele><time>2022-06-12T09:32:59.000Z</time></trkpt><trkpt lon="5.767291" lat="51.133157"><ele>27.6</ele><time>2022-06-12T09:33:00.000Z</time></trkpt><trkpt lon="5.767279" lat="51.133222"><ele>27.6</ele><time>2022-06-12T09:33:01.000Z</time></trkpt><trkpt lon="5.767265" lat="51.133287"><ele>27.6</ele><time>2022-06-12T09:33:02.000Z</time></trkpt><trkpt lon="5.767254" lat="51.133352"><ele>27.8</ele><time>2022-06-12T09:33:03.000Z</time></trkpt><trkpt lon="5.767242" lat="51.133413"><ele>27.8</ele><time>2022-06-12T09:33:04.000Z</time></trkpt><trkpt lon="5.76723" lat="51.133478"><ele>28</ele><time>2022-06-12T09:33:05.000Z</time></trkpt><trkpt lon="5.767219" lat="51.133539"><ele>28</ele><time>2022-06-12T09:33:06.000Z</time></trkpt><trkpt lon="5.767209" lat="51.133595"><ele>28.2</ele><time>2022-06-12T09:33:07.000Z</time></trkpt><trkpt lon="5.767199" lat="51.13365"><ele>28.2</ele><time>2022-06-12T09:33:08.000Z</time></trkpt><trkpt lon="5.76719" lat="51.133699"><ele>28.4</ele><time>2022-06-12T09:33:09.000Z</time></trkpt><trkpt lon="5.76718" lat="51.133745"><ele>28.4</ele><time>2022-06-12T09:33:10.000Z</time></trkpt><trkpt lon="5.767174" lat="51.133784"><ele>28.6</ele><time>2022-06-12T09:33:11.000Z</time></trkpt><trkpt lon="5.767169" lat="51.133822"><ele>28.6</ele><time>2022-06-12T09:33:12.000Z</time></trkpt><trkpt lon="5.767163" lat="51.133853"><ele>28.6</ele><time>2022-06-12T09:33:13.000Z</time></trkpt><trkpt lon="5.767159" lat="51.13388"><ele>28.8</ele><time>2022-06-12T09:33:14.000Z</time></trkpt><trkpt lon="5.767157" lat="51.133906"><ele>28.8</ele><time>2022-06-12T09:33:15.000Z</time></trkpt><trkpt lon="5.767155" lat="51.133936"><ele>28.8</ele><time>2022-06-12T09:33:16.000Z</time></trkpt><trkpt lon="5.767147" lat="51.133967"><ele>28.8</ele><time>2022-06-12T09:33:17.000Z</time></trkpt><trkpt lon="5.767123" lat="51.133994"><ele>28.8</ele><time>2022-06-12T09:33:18.000Z</time></trkpt><trkpt lon="5.767075" lat="51.13401"><ele>28.8</ele><time>2022-06-12T09:33:19.000Z</time></trkpt><trkpt lon="5.767007" lat="51.134021"><ele>28.8</ele><time>2022-06-12T09:33:20.000Z</time></trkpt><trkpt lon="5.766926" lat="51.134029"><ele>28.6</ele><time>2022-06-12T09:33:21.000Z</time></trkpt><trkpt lon="5.766833" lat="51.134029"><ele>28.6</ele><time>2022-06-12T09:33:22.000Z</time></trkpt><trkpt lon="5.766729" lat="51.134033"><ele>28.6</ele><time>2022-06-12T09:33:23.000Z</time></trkpt><trkpt lon="5.766619" lat="51.134033"><ele>28.6</ele><time>2022-06-12T09:33:24.000Z</time></trkpt><trkpt lon="5.766506" lat="51.134037"><ele>28.6</ele><time>2022-06-12T09:33:25.000Z</time></trkpt><trkpt lon="5.766389" lat="51.134044"><ele>28.6</ele><time>2022-06-12T09:33:26.000Z</time></trkpt><trkpt lon="5.766276" lat="51.134048"><ele>28.6</ele><time>2022-06-12T09:33:27.000Z</time></trkpt><trkpt lon="5.766161" lat="51.134056"><ele>28.6</ele><time>2022-06-12T09:33:28.000Z</time></trkpt><trkpt lon="5.766049" lat="51.13406"><ele>28.6</ele><time>2022-06-12T09:33:29.000Z</time></trkpt><trkpt lon="5.765938" lat="51.134064"><ele>28.6</ele><time>2022-06-12T09:33:30.000Z</time></trkpt><trkpt lon="5.765829" lat="51.134067"><ele>28.6</ele><time>2022-06-12T09:33:31.000Z</time></trkpt><trkpt lon="5.765723" lat="51.134071"><ele>28.6</ele><time>2022-06-12T09:33:32.000Z</time></trkpt><trkpt lon="5.76562" lat="51.134075"><ele>28.6</ele><time>2022-06-12T09:33:33.000Z</time></trkpt><trkpt lon="5.765516" lat="51.134082"><ele>28.8</ele><time>2022-06-12T09:33:34.000Z</time></trkpt><trkpt lon="5.765413" lat="51.134083"><ele>28.8</ele><time>2022-06-12T09:33:35.000Z</time></trkpt><trkpt lon="5.765306" lat="51.134086"><ele>28.8</ele><time>2022-06-12T09:33:36.000Z</time></trkpt><trkpt lon="5.765199" lat="51.13409"><ele>28.8</ele><time>2022-06-12T09:33:37.000Z</time></trkpt><trkpt lon="5.765094" lat="51.134094"><ele>28.8</ele><time>2022-06-12T09:33:38.000Z</time></trkpt><trkpt lon="5.76499" lat="51.134094"><ele>28.8</ele><time>2022-06-12T09:33:39.000Z</time></trkpt><trkpt lon="5.764884" lat="51.134102"><ele>29</ele><time>2022-06-12T09:33:40.000Z</time></trkpt><trkpt lon="5.764778" lat="51.134106"><ele>29</ele><time>2022-06-12T09:33:41.000Z</time></trkpt><trkpt lon="5.764674" lat="51.134109"><ele>29</ele><time>2022-06-12T09:33:42.000Z</time></trkpt><trkpt lon="5.764569" lat="51.134113"><ele>28.8</ele><time>2022-06-12T09:33:43.000Z</time></trkpt><trkpt lon="5.764464" lat="51.134113"><ele>28.8</ele><time>2022-06-12T09:33:44.000Z</time></trkpt><trkpt lon="5.764359" lat="51.134117"><ele>28.8</ele><time>2022-06-12T09:33:45.000Z</time></trkpt><trkpt lon="5.764252" lat="51.134121"><ele>28.8</ele><time>2022-06-12T09:33:46.000Z</time></trkpt><trkpt lon="5.764145" lat="51.134128"><ele>28.8</ele><time>2022-06-12T09:33:47.000Z</time></trkpt><trkpt lon="5.764039" lat="51.134136"><ele>28.6</ele><time>2022-06-12T09:33:48.000Z</time></trkpt><trkpt lon="5.763932" lat="51.134144"><ele>28.4</ele><time>2022-06-12T09:33:49.000Z</time></trkpt><trkpt lon="5.763826" lat="51.134151"><ele>28.4</ele><time>2022-06-12T09:33:50.000Z</time></trkpt><trkpt lon="5.76372" lat="51.134166"><ele>28.4</ele><time>2022-06-12T09:33:51.000Z</time></trkpt><trkpt lon="5.763617" lat="51.134178"><ele>28.4</ele><time>2022-06-12T09:33:52.000Z</time></trkpt><trkpt lon="5.763512" lat="51.134193"><ele>28.6</ele><time>2022-06-12T09:33:53.000Z</time></trkpt><trkpt lon="5.763408" lat="51.134208"><ele>28.6</ele><time>2022-06-12T09:33:54.000Z</time></trkpt><trkpt lon="5.763309" lat="51.134227"><ele>28.8</ele><time>2022-06-12T09:33:55.000Z</time></trkpt><trkpt lon="5.763207" lat="51.134242"><ele>28.8</ele><time>2022-06-12T09:33:56.000Z</time></trkpt><trkpt lon="5.763107" lat="51.134258"><ele>28.8</ele><time>2022-06-12T09:33:57.000Z</time></trkpt><trkpt lon="5.763008" lat="51.134269"><ele>28.8</ele><time>2022-06-12T09:33:58.000Z</time></trkpt><trkpt lon="5.762907" lat="51.134284"><ele>28.8</ele><time>2022-06-12T09:33:59.000Z</time></trkpt><trkpt lon="5.762806" lat="51.1343"><ele>28.8</ele><time>2022-06-12T09:34:00.000Z</time></trkpt><trkpt lon="5.762702" lat="51.134315"><ele>28.8</ele><time>2022-06-12T09:34:01.000Z</time></trkpt><trkpt lon="5.762598" lat="51.134333"><ele>28.8</ele><time>2022-06-12T09:34:02.000Z</time></trkpt><trkpt lon="5.762488" lat="51.134349"><ele>28.8</ele><time>2022-06-12T09:34:03.000Z</time></trkpt><trkpt lon="5.762384" lat="51.134364"><ele>28.8</ele><time>2022-06-12T09:34:04.000Z</time></trkpt><trkpt lon="5.762277" lat="51.13438"><ele>28.8</ele><time>2022-06-12T09:34:05.000Z</time></trkpt><trkpt lon="5.762172" lat="51.134395"><ele>28.8</ele><time>2022-06-12T09:34:06.000Z</time></trkpt><trkpt lon="5.762072" lat="51.13441"><ele>28.8</ele><time>2022-06-12T09:34:07.000Z</time></trkpt><trkpt lon="5.761972" lat="51.134426"><ele>28.8</ele><time>2022-06-12T09:34:08.000Z</time></trkpt><trkpt lon="5.761872" lat="51.134437"><ele>28.8</ele><time>2022-06-12T09:34:09.000Z</time></trkpt><trkpt lon="5.761771" lat="51.134452"><ele>28.8</ele><time>2022-06-12T09:34:10.000Z</time></trkpt><trkpt lon="5.761665" lat="51.134467"><ele>28.8</ele><time>2022-06-12T09:34:11.000Z</time></trkpt><trkpt lon="5.761557" lat="51.134483"><ele>28.8</ele><time>2022-06-12T09:34:12.000Z</time></trkpt><trkpt lon="5.761446" lat="51.134498"><ele>28.8</ele><time>2022-06-12T09:34:13.000Z</time></trkpt><trkpt lon="5.761338" lat="51.13452"><ele>28.8</ele><time>2022-06-12T09:34:14.000Z</time></trkpt><trkpt lon="5.76123" lat="51.13454"><ele>28.8</ele><time>2022-06-12T09:34:15.000Z</time></trkpt><trkpt lon="5.761119" lat="51.134559"><ele>28.8</ele><time>2022-06-12T09:34:16.000Z</time></trkpt><trkpt lon="5.761007" lat="51.134574"><ele>28.8</ele><time>2022-06-12T09:34:17.000Z</time></trkpt><trkpt lon="5.760895" lat="51.13459"><ele>28.8</ele><time>2022-06-12T09:34:18.000Z</time></trkpt><trkpt lon="5.760778" lat="51.134608"><ele>28.6</ele><time>2022-06-12T09:34:19.000Z</time></trkpt><trkpt lon="5.760664" lat="51.134628"><ele>28.6</ele><time>2022-06-12T09:34:20.000Z</time></trkpt><trkpt lon="5.760551" lat="51.134643"><ele>28.6</ele><time>2022-06-12T09:34:21.000Z</time></trkpt><trkpt lon="5.760443" lat="51.134658"><ele>28.6</ele><time>2022-06-12T09:34:22.000Z</time></trkpt><trkpt lon="5.760336" lat="51.134673"><ele>28.6</ele><time>2022-06-12T09:34:23.000Z</time></trkpt><trkpt lon="5.760229" lat="51.134689"><ele>28.6</ele><time>2022-06-12T09:34:24.000Z</time></trkpt><trkpt lon="5.760117" lat="51.134711"><ele>28.6</ele><time>2022-06-12T09:34:25.000Z</time></trkpt><trkpt lon="5.760008" lat="51.134734"><ele>28.4</ele><time>2022-06-12T09:34:26.000Z</time></trkpt><trkpt lon="5.759895" lat="51.134757"><ele>28.6</ele><time>2022-06-12T09:34:27.000Z</time></trkpt><trkpt lon="5.759786" lat="51.134784"><ele>28.6</ele><time>2022-06-12T09:34:28.000Z</time></trkpt><trkpt lon="5.759679" lat="51.134807"><ele>28.6</ele><time>2022-06-12T09:34:29.000Z</time></trkpt><trkpt lon="5.759572" lat="51.134833"><ele>28.6</ele><time>2022-06-12T09:34:30.000Z</time></trkpt><trkpt lon="5.75947" lat="51.134859"><ele>28.6</ele><time>2022-06-12T09:34:31.000Z</time></trkpt><trkpt lon="5.759366" lat="51.134887"><ele>28.6</ele><time>2022-06-12T09:34:32.000Z</time></trkpt><trkpt lon="5.759262" lat="51.134917"><ele>28.6</ele><time>2022-06-12T09:34:33.000Z</time></trkpt><trkpt lon="5.759155" lat="51.134944"><ele>28.6</ele><time>2022-06-12T09:34:34.000Z</time></trkpt><trkpt lon="5.759046" lat="51.134974"><ele>28.6</ele><time>2022-06-12T09:34:35.000Z</time></trkpt><trkpt lon="5.758938" lat="51.135005"><ele>28.6</ele><time>2022-06-12T09:34:36.000Z</time></trkpt><trkpt lon="5.758832" lat="51.135032"><ele>28.6</ele><time>2022-06-12T09:34:37.000Z</time></trkpt><trkpt lon="5.75873" lat="51.135061"><ele>28.6</ele><time>2022-06-12T09:34:38.000Z</time></trkpt><trkpt lon="5.758625" lat="51.135089"><ele>28.6</ele><time>2022-06-12T09:34:39.000Z</time></trkpt><trkpt lon="5.758524" lat="51.135116"><ele>28.8</ele><time>2022-06-12T09:34:40.000Z</time></trkpt><trkpt lon="5.758427" lat="51.135142"><ele>28.8</ele><time>2022-06-12T09:34:41.000Z</time></trkpt><trkpt lon="5.758329" lat="51.135169"><ele>28.8</ele><time>2022-06-12T09:34:42.000Z</time></trkpt><trkpt lon="5.758237" lat="51.135196"><ele>28.8</ele><time>2022-06-12T09:34:43.000Z</time></trkpt><trkpt lon="5.758144" lat="51.135219"><ele>28.6</ele><time>2022-06-12T09:34:44.000Z</time></trkpt><trkpt lon="5.758053" lat="51.135245"><ele>28.6</ele><time>2022-06-12T09:34:45.000Z</time></trkpt><trkpt lon="5.75796" lat="51.135265"><ele>28.6</ele><time>2022-06-12T09:34:46.000Z</time></trkpt><trkpt lon="5.757868" lat="51.13528"><ele>28.6</ele><time>2022-06-12T09:34:47.000Z</time></trkpt><trkpt lon="5.757782" lat="51.135288"><ele>28.6</ele><time>2022-06-12T09:34:48.000Z</time></trkpt><trkpt lon="5.757703" lat="51.135288"><ele>28.6</ele><time>2022-06-12T09:34:49.000Z</time></trkpt><trkpt lon="5.757635" lat="51.135277"><ele>28.6</ele><time>2022-06-12T09:34:50.000Z</time></trkpt><trkpt lon="5.757571" lat="51.135269"><ele>28.6</ele><time>2022-06-12T09:34:51.000Z</time></trkpt><trkpt lon="5.757519" lat="51.135273"><ele>28.8</ele><time>2022-06-12T09:34:52.000Z</time></trkpt><trkpt lon="5.757471" lat="51.135287"><ele>28.8</ele><time>2022-06-12T09:34:53.000Z</time></trkpt><trkpt lon="5.757427" lat="51.135317"><ele>28.8</ele><time>2022-06-12T09:34:54.000Z</time></trkpt><trkpt lon="5.757377" lat="51.135355"><ele>29</ele><time>2022-06-12T09:34:55.000Z</time></trkpt><trkpt lon="5.757312" lat="51.1354"><ele>28.8</ele><time>2022-06-12T09:34:56.000Z</time></trkpt><trkpt lon="5.757237" lat="51.13545"><ele>28.8</ele><time>2022-06-12T09:34:57.000Z</time></trkpt><trkpt lon="5.757156" lat="51.135503"><ele>28.8</ele><time>2022-06-12T09:34:58.000Z</time></trkpt><trkpt lon="5.757076" lat="51.135557"><ele>28.8</ele><time>2022-06-12T09:34:59.000Z</time></trkpt><trkpt lon="5.756998" lat="51.135607"><ele>28.6</ele><time>2022-06-12T09:35:00.000Z</time></trkpt><trkpt lon="5.756918" lat="51.13566"><ele>28.6</ele><time>2022-06-12T09:35:01.000Z</time></trkpt><trkpt lon="5.756836" lat="51.135714"><ele>28.6</ele><time>2022-06-12T09:35:02.000Z</time></trkpt><trkpt lon="5.756756" lat="51.135767"><ele>28.8</ele><time>2022-06-12T09:35:03.000Z</time></trkpt><trkpt lon="5.756679" lat="51.135817"><ele>28.8</ele><time>2022-06-12T09:35:04.000Z</time></trkpt><trkpt lon="5.7566" lat="51.135869"><ele>28.8</ele><time>2022-06-12T09:35:05.000Z</time></trkpt><trkpt lon="5.756521" lat="51.13592"><ele>28.8</ele><time>2022-06-12T09:35:06.000Z</time></trkpt><trkpt lon="5.756443" lat="51.135973"><ele>28.6</ele><time>2022-06-12T09:35:07.000Z</time></trkpt><trkpt lon="5.756365" lat="51.136023"><ele>28.6</ele><time>2022-06-12T09:35:08.000Z</time></trkpt><trkpt lon="5.756286" lat="51.136076"><ele>28.6</ele><time>2022-06-12T09:35:09.000Z</time></trkpt><trkpt lon="5.756208" lat="51.136126"><ele>28.8</ele><time>2022-06-12T09:35:10.000Z</time></trkpt><trkpt lon="5.756131" lat="51.136179"><ele>28.8</ele><time>2022-06-12T09:35:11.000Z</time></trkpt><trkpt lon="5.756053" lat="51.136229"><ele>28.8</ele><time>2022-06-12T09:35:12.000Z</time></trkpt><trkpt lon="5.755973" lat="51.136278"><ele>28.8</ele><time>2022-06-12T09:35:13.000Z</time></trkpt><trkpt lon="5.755896" lat="51.136331"><ele>28.8</ele><time>2022-06-12T09:35:14.000Z</time></trkpt><trkpt lon="5.755817" lat="51.136385"><ele>28.8</ele><time>2022-06-12T09:35:15.000Z</time></trkpt><trkpt lon="5.755738" lat="51.136439"><ele>29</ele><time>2022-06-12T09:35:16.000Z</time></trkpt><trkpt lon="5.755656" lat="51.136492"><ele>29</ele><time>2022-06-12T09:35:17.000Z</time></trkpt><trkpt lon="5.755576" lat="51.136545"><ele>29</ele><time>2022-06-12T09:35:18.000Z</time></trkpt><trkpt lon="5.7555" lat="51.136597"><ele>29</ele><time>2022-06-12T09:35:19.000Z</time></trkpt><trkpt lon="5.755418" lat="51.136651"><ele>29</ele><time>2022-06-12T09:35:20.000Z</time></trkpt><trkpt lon="5.755338" lat="51.136701"><ele>29</ele><time>2022-06-12T09:35:21.000Z</time></trkpt><trkpt lon="5.755262" lat="51.136755"><ele>29</ele><time>2022-06-12T09:35:22.000Z</time></trkpt><trkpt lon="5.755179" lat="51.136805"><ele>28.8</ele><time>2022-06-12T09:35:23.000Z</time></trkpt><trkpt lon="5.755099" lat="51.136862"><ele>29</ele><time>2022-06-12T09:35:24.000Z</time></trkpt><trkpt lon="5.75502" lat="51.136915"><ele>28.8</ele><time>2022-06-12T09:35:25.000Z</time></trkpt><trkpt lon="5.75494" lat="51.136963"><ele>29</ele><time>2022-06-12T09:35:26.000Z</time></trkpt><trkpt lon="5.754856" lat="51.137018"><ele>29</ele><time>2022-06-12T09:35:27.000Z</time></trkpt><trkpt lon="5.754774" lat="51.137072"><ele>29</ele><time>2022-06-12T09:35:28.000Z</time></trkpt><trkpt lon="5.754695" lat="51.137125"><ele>29</ele><time>2022-06-12T09:35:29.000Z</time></trkpt><trkpt lon="5.754614" lat="51.137178"><ele>29</ele><time>2022-06-12T09:35:30.000Z</time></trkpt><trkpt lon="5.754535" lat="51.137232"><ele>28.8</ele><time>2022-06-12T09:35:31.000Z</time></trkpt><trkpt lon="5.754456" lat="51.137281"><ele>28.6</ele><time>2022-06-12T09:35:32.000Z</time></trkpt><trkpt lon="5.754374" lat="51.137335"><ele>28.4</ele><time>2022-06-12T09:35:33.000Z</time></trkpt><trkpt lon="5.754295" lat="51.137388"><ele>28.4</ele><time>2022-06-12T09:35:34.000Z</time></trkpt><trkpt lon="5.754215" lat="51.137442"><ele>28.4</ele><time>2022-06-12T09:35:35.000Z</time></trkpt><trkpt lon="5.754133" lat="51.137491"><ele>28.6</ele><time>2022-06-12T09:35:36.000Z</time></trkpt><trkpt lon="5.754055" lat="51.137544"><ele>28.6</ele><time>2022-06-12T09:35:37.000Z</time></trkpt><trkpt lon="5.753975" lat="51.137594"><ele>28.4</ele><time>2022-06-12T09:35:38.000Z</time></trkpt><trkpt lon="5.753896" lat="51.137644"><ele>28.4</ele><time>2022-06-12T09:35:39.000Z</time></trkpt><trkpt lon="5.753819" lat="51.137697"><ele>28.4</ele><time>2022-06-12T09:35:40.000Z</time></trkpt><trkpt lon="5.753746" lat="51.137747"><ele>28.4</ele><time>2022-06-12T09:35:41.000Z</time></trkpt><trkpt lon="5.753672" lat="51.1378"><ele>28.4</ele><time>2022-06-12T09:35:42.000Z</time></trkpt><trkpt lon="5.753593" lat="51.137853"><ele>28.4</ele><time>2022-06-12T09:35:43.000Z</time></trkpt><trkpt lon="5.753518" lat="51.137903"><ele>28.4</ele><time>2022-06-12T09:35:44.000Z</time></trkpt><trkpt lon="5.753445" lat="51.137953"><ele>28.4</ele><time>2022-06-12T09:35:45.000Z</time></trkpt><trkpt lon="5.753371" lat="51.138002"><ele>28.2</ele><time>2022-06-12T09:35:46.000Z</time></trkpt><trkpt lon="5.753298" lat="51.138052"><ele>28.2</ele><time>2022-06-12T09:35:47.000Z</time></trkpt><trkpt lon="5.753224" lat="51.138102"><ele>28.2</ele><time>2022-06-12T09:35:48.000Z</time></trkpt><trkpt lon="5.753149" lat="51.138155"><ele>28.2</ele><time>2022-06-12T09:35:49.000Z</time></trkpt><trkpt lon="5.753073" lat="51.138205"><ele>28.2</ele><time>2022-06-12T09:35:50.000Z</time></trkpt><trkpt lon="5.752996" lat="51.138254"><ele>28.2</ele><time>2022-06-12T09:35:51.000Z</time></trkpt><trkpt lon="5.752922" lat="51.138303"><ele>28.2</ele><time>2022-06-12T09:35:52.000Z</time></trkpt><trkpt lon="5.752848" lat="51.138349"><ele>28.2</ele><time>2022-06-12T09:35:53.000Z</time></trkpt><trkpt lon="5.752775" lat="51.138399"><ele>28</ele><time>2022-06-12T09:35:54.000Z</time></trkpt><trkpt lon="5.752701" lat="51.138449"><ele>28</ele><time>2022-06-12T09:35:55.000Z</time></trkpt><trkpt lon="5.752626" lat="51.138498"><ele>28</ele><time>2022-06-12T09:35:56.000Z</time></trkpt><trkpt lon="5.752552" lat="51.138548"><ele>27.8</ele><time>2022-06-12T09:35:57.000Z</time></trkpt><trkpt lon="5.752476" lat="51.138601"><ele>27.8</ele><time>2022-06-12T09:35:58.000Z</time></trkpt><trkpt lon="5.752404" lat="51.13865"><ele>28</ele><time>2022-06-12T09:35:59.000Z</time></trkpt><trkpt lon="5.752331" lat="51.138701"><ele>28</ele><time>2022-06-12T09:36:00.000Z</time></trkpt><trkpt lon="5.752262" lat="51.138746"><ele>28</ele><time>2022-06-12T09:36:01.000Z</time></trkpt><trkpt lon="5.752189" lat="51.1388"><ele>28</ele><time>2022-06-12T09:36:02.000Z</time></trkpt><trkpt lon="5.752116" lat="51.138846"><ele>28</ele><time>2022-06-12T09:36:03.000Z</time></trkpt><trkpt lon="5.752044" lat="51.138892"><ele>28</ele><time>2022-06-12T09:36:04.000Z</time></trkpt><trkpt lon="5.751972" lat="51.138941"><ele>28.2</ele><time>2022-06-12T09:36:05.000Z</time></trkpt><trkpt lon="5.751899" lat="51.138991"><ele>28</ele><time>2022-06-12T09:36:06.000Z</time></trkpt><trkpt lon="5.751826" lat="51.13904"><ele>28</ele><time>2022-06-12T09:36:07.000Z</time></trkpt><trkpt lon="5.751753" lat="51.139086"><ele>28</ele><time>2022-06-12T09:36:08.000Z</time></trkpt><trkpt lon="5.751679" lat="51.139136"><ele>28</ele><time>2022-06-12T09:36:09.000Z</time></trkpt><trkpt lon="5.751605" lat="51.139185"><ele>28</ele><time>2022-06-12T09:36:10.000Z</time></trkpt><trkpt lon="5.751529" lat="51.139235"><ele>27.8</ele><time>2022-06-12T09:36:11.000Z</time></trkpt><trkpt lon="5.751456" lat="51.139284"><ele>28</ele><time>2022-06-12T09:36:12.000Z</time></trkpt><trkpt lon="5.751383" lat="51.139334"><ele>28</ele><time>2022-06-12T09:36:13.000Z</time></trkpt><trkpt lon="5.751309" lat="51.139387"><ele>28</ele><time>2022-06-12T09:36:14.000Z</time></trkpt><trkpt lon="5.751235" lat="51.139433"><ele>28</ele><time>2022-06-12T09:36:15.000Z</time></trkpt><trkpt lon="5.751163" lat="51.139486"><ele>27.8</ele><time>2022-06-12T09:36:16.000Z</time></trkpt><trkpt lon="5.751088" lat="51.139536"><ele>27.8</ele><time>2022-06-12T09:36:17.000Z</time></trkpt><trkpt lon="5.751009" lat="51.139586"><ele>27.8</ele><time>2022-06-12T09:36:18.000Z</time></trkpt><trkpt lon="5.750932" lat="51.139639"><ele>27.8</ele><time>2022-06-12T09:36:19.000Z</time></trkpt><trkpt lon="5.750857" lat="51.139688"><ele>27.8</ele><time>2022-06-12T09:36:20.000Z</time></trkpt><trkpt lon="5.75078" lat="51.139737"><ele>27.8</ele><time>2022-06-12T09:36:21.000Z</time></trkpt><trkpt lon="5.750703" lat="51.139791"><ele>27.8</ele><time>2022-06-12T09:36:22.000Z</time></trkpt><trkpt lon="5.750623" lat="51.139841"><ele>27.8</ele><time>2022-06-12T09:36:23.000Z</time></trkpt><trkpt lon="5.750544" lat="51.139891"><ele>27.8</ele><time>2022-06-12T09:36:24.000Z</time></trkpt><trkpt lon="5.750466" lat="51.139944"><ele>27.8</ele><time>2022-06-12T09:36:25.000Z</time></trkpt><trkpt lon="5.75039" lat="51.139993"><ele>27.8</ele><time>2022-06-12T09:36:26.000Z</time></trkpt><trkpt lon="5.750311" lat="51.140043"><ele>27.8</ele><time>2022-06-12T09:36:27.000Z</time></trkpt><trkpt lon="5.750232" lat="51.140097"><ele>28</ele><time>2022-06-12T09:36:28.000Z</time></trkpt><trkpt lon="5.750155" lat="51.140146"><ele>27.8</ele><time>2022-06-12T09:36:29.000Z</time></trkpt><trkpt lon="5.750076" lat="51.140196"><ele>27.8</ele><time>2022-06-12T09:36:30.000Z</time></trkpt><trkpt lon="5.749998" lat="51.140245"><ele>27.8</ele><time>2022-06-12T09:36:31.000Z</time></trkpt><trkpt lon="5.749923" lat="51.140294"><ele>27.8</ele><time>2022-06-12T09:36:32.000Z</time></trkpt><trkpt lon="5.749845" lat="51.140349"><ele>28</ele><time>2022-06-12T09:36:33.000Z</time></trkpt><trkpt lon="5.749769" lat="51.140398"><ele>27.8</ele><time>2022-06-12T09:36:34.000Z</time></trkpt><trkpt lon="5.749691" lat="51.140451"><ele>27.8</ele><time>2022-06-12T09:36:35.000Z</time></trkpt><trkpt lon="5.749615" lat="51.140501"><ele>27.6</ele><time>2022-06-12T09:36:36.000Z</time></trkpt><trkpt lon="5.749538" lat="51.140547"><ele>27.6</ele><time>2022-06-12T09:36:37.000Z</time></trkpt><trkpt lon="5.74946" lat="51.140593"><ele>27.6</ele><time>2022-06-12T09:36:38.000Z</time></trkpt><trkpt lon="5.749376" lat="51.140639"><ele>27.6</ele><time>2022-06-12T09:36:39.000Z</time></trkpt><trkpt lon="5.749294" lat="51.140688"><ele>27.6</ele><time>2022-06-12T09:36:40.000Z</time></trkpt><trkpt lon="5.749215" lat="51.140738"><ele>27.6</ele><time>2022-06-12T09:36:41.000Z</time></trkpt><trkpt lon="5.749138" lat="51.140791"><ele>27.6</ele><time>2022-06-12T09:36:42.000Z</time></trkpt><trkpt lon="5.749061" lat="51.140841"><ele>27.6</ele><time>2022-06-12T09:36:43.000Z</time></trkpt><trkpt lon="5.748988" lat="51.14089"><ele>27.6</ele><time>2022-06-12T09:36:44.000Z</time></trkpt><trkpt lon="5.748917" lat="51.14094"><ele>27.6</ele><time>2022-06-12T09:36:45.000Z</time></trkpt><trkpt lon="5.748849" lat="51.140989"><ele>27.6</ele><time>2022-06-12T09:36:46.000Z</time></trkpt><trkpt lon="5.748781" lat="51.141035"><ele>27.6</ele><time>2022-06-12T09:36:47.000Z</time></trkpt><trkpt lon="5.748708" lat="51.141085"><ele>27.6</ele><time>2022-06-12T09:36:48.000Z</time></trkpt><trkpt lon="5.748634" lat="51.141134"><ele>27.6</ele><time>2022-06-12T09:36:49.000Z</time></trkpt><trkpt lon="5.748559" lat="51.14118"><ele>27.6</ele><time>2022-06-12T09:36:50.000Z</time></trkpt><trkpt lon="5.748485" lat="51.14123"><ele>27.6</ele><time>2022-06-12T09:36:51.000Z</time></trkpt><trkpt lon="5.748416" lat="51.141276"><ele>27.4</ele><time>2022-06-12T09:36:52.000Z</time></trkpt><trkpt lon="5.748344" lat="51.141325"><ele>27.6</ele><time>2022-06-12T09:36:53.000Z</time></trkpt><trkpt lon="5.748269" lat="51.141375"><ele>27.6</ele><time>2022-06-12T09:36:54.000Z</time></trkpt><trkpt lon="5.748194" lat="51.141424"><ele>27.6</ele><time>2022-06-12T09:36:55.000Z</time></trkpt><trkpt lon="5.748121" lat="51.141474"><ele>27.6</ele><time>2022-06-12T09:36:56.000Z</time></trkpt><trkpt lon="5.748046" lat="51.141524"><ele>27.6</ele><time>2022-06-12T09:36:57.000Z</time></trkpt><trkpt lon="5.747973" lat="51.141569"><ele>27.4</ele><time>2022-06-12T09:36:58.000Z</time></trkpt><trkpt lon="5.747898" lat="51.141615"><ele>27.4</ele><time>2022-06-12T09:36:59.000Z</time></trkpt><trkpt lon="5.747826" lat="51.141663"><ele>27.4</ele><time>2022-06-12T09:37:00.000Z</time></trkpt><trkpt lon="5.747749" lat="51.141718"><ele>27.4</ele><time>2022-06-12T09:37:01.000Z</time></trkpt><trkpt lon="5.747674" lat="51.141771"><ele>27.2</ele><time>2022-06-12T09:37:02.000Z</time></trkpt><trkpt lon="5.747597" lat="51.141821"><ele>26.8</ele><time>2022-06-12T09:37:03.000Z</time></trkpt><trkpt lon="5.747521" lat="51.141874"><ele>26.8</ele><time>2022-06-12T09:37:04.000Z</time></trkpt><trkpt lon="5.747441" lat="51.141924"><ele>27</ele><time>2022-06-12T09:37:05.000Z</time></trkpt><trkpt lon="5.747363" lat="51.141977"><ele>27</ele><time>2022-06-12T09:37:06.000Z</time></trkpt><trkpt lon="5.747284" lat="51.142027"><ele>27.2</ele><time>2022-06-12T09:37:07.000Z</time></trkpt><trkpt lon="5.747203" lat="51.14208"><ele>27.2</ele><time>2022-06-12T09:37:08.000Z</time></trkpt><trkpt lon="5.747121" lat="51.142134"><ele>27.2</ele><time>2022-06-12T09:37:09.000Z</time></trkpt><trkpt lon="5.747041" lat="51.142187"><ele>27.2</ele><time>2022-06-12T09:37:10.000Z</time></trkpt><trkpt lon="5.746961" lat="51.142244"><ele>27.2</ele><time>2022-06-12T09:37:11.000Z</time></trkpt><trkpt lon="5.746882" lat="51.142301"><ele>27.2</ele><time>2022-06-12T09:37:12.000Z</time></trkpt><trkpt lon="5.7468" lat="51.142355"><ele>27.4</ele><time>2022-06-12T09:37:13.000Z</time></trkpt><trkpt lon="5.746721" lat="51.142408"><ele>27.2</ele><time>2022-06-12T09:37:14.000Z</time></trkpt><trkpt lon="5.746643" lat="51.142458"><ele>27.4</ele><time>2022-06-12T09:37:15.000Z</time></trkpt><trkpt lon="5.74657" lat="51.142508"><ele>27.2</ele><time>2022-06-12T09:37:16.000Z</time></trkpt><trkpt lon="5.746489" lat="51.142565"><ele>27.2</ele><time>2022-06-12T09:37:17.000Z</time></trkpt><trkpt lon="5.746411" lat="51.142615"><ele>27.4</ele><time>2022-06-12T09:37:18.000Z</time></trkpt><trkpt lon="5.746333" lat="51.142668"><ele>27.4</ele><time>2022-06-12T09:37:19.000Z</time></trkpt><trkpt lon="5.746254" lat="51.142717"><ele>27.6</ele><time>2022-06-12T09:37:20.000Z</time></trkpt><trkpt lon="5.746174" lat="51.142771"><ele>27.6</ele><time>2022-06-12T09:37:21.000Z</time></trkpt><trkpt lon="5.746095" lat="51.14282"><ele>27.6</ele><time>2022-06-12T09:37:22.000Z</time></trkpt><trkpt lon="5.746016" lat="51.142873"><ele>27.6</ele><time>2022-06-12T09:37:23.000Z</time></trkpt><trkpt lon="5.745938" lat="51.142927"><ele>27.6</ele><time>2022-06-12T09:37:24.000Z</time></trkpt><trkpt lon="5.745861" lat="51.142981"><ele>27.6</ele><time>2022-06-12T09:37:25.000Z</time></trkpt><trkpt lon="5.745786" lat="51.143033"><ele>27.8</ele><time>2022-06-12T09:37:26.000Z</time></trkpt><trkpt lon="5.745711" lat="51.143084"><ele>27.8</ele><time>2022-06-12T09:37:27.000Z</time></trkpt><trkpt lon="5.745636" lat="51.143133"><ele>27.6</ele><time>2022-06-12T09:37:28.000Z</time></trkpt><trkpt lon="5.745562" lat="51.143182"><ele>27.4</ele><time>2022-06-12T09:37:29.000Z</time></trkpt><trkpt lon="5.745486" lat="51.143233"><ele>27.6</ele><time>2022-06-12T09:37:30.000Z</time></trkpt><trkpt lon="5.745411" lat="51.143286"><ele>27.8</ele><time>2022-06-12T09:37:31.000Z</time></trkpt><trkpt lon="5.745336" lat="51.143335"><ele>27.8</ele><time>2022-06-12T09:37:32.000Z</time></trkpt><trkpt lon="5.745262" lat="51.143382"><ele>28</ele><time>2022-06-12T09:37:33.000Z</time></trkpt><trkpt lon="5.74519" lat="51.143431"><ele>28</ele><time>2022-06-12T09:37:34.000Z</time></trkpt><trkpt lon="5.745116" lat="51.14348"><ele>28</ele><time>2022-06-12T09:37:35.000Z</time></trkpt><trkpt lon="5.745043" lat="51.14353"><ele>28.2</ele><time>2022-06-12T09:37:36.000Z</time></trkpt><trkpt lon="5.744971" lat="51.143579"><ele>28.2</ele><time>2022-06-12T09:37:37.000Z</time></trkpt><trkpt lon="5.744899" lat="51.143625"><ele>28.2</ele><time>2022-06-12T09:37:38.000Z</time></trkpt><trkpt lon="5.744823" lat="51.143675"><ele>28.4</ele><time>2022-06-12T09:37:39.000Z</time></trkpt><trkpt lon="5.744744" lat="51.143728"><ele>28.4</ele><time>2022-06-12T09:37:40.000Z</time></trkpt><trkpt lon="5.744666" lat="51.143778"><ele>28.4</ele><time>2022-06-12T09:37:41.000Z</time></trkpt><trkpt lon="5.744596" lat="51.14383"><ele>28.4</ele><time>2022-06-12T09:37:42.000Z</time></trkpt><trkpt lon="5.744521" lat="51.143877"><ele>28.4</ele><time>2022-06-12T09:37:43.000Z</time></trkpt><trkpt lon="5.744449" lat="51.143927"><ele>28.4</ele><time>2022-06-12T09:37:44.000Z</time></trkpt><trkpt lon="5.744376" lat="51.143972"><ele>28.4</ele><time>2022-06-12T09:37:45.000Z</time></trkpt><trkpt lon="5.744304" lat="51.144018"><ele>28.4</ele><time>2022-06-12T09:37:46.000Z</time></trkpt><trkpt lon="5.744236" lat="51.144061"><ele>28.2</ele><time>2022-06-12T09:37:47.000Z</time></trkpt><trkpt lon="5.74417" lat="51.144106"><ele>28.2</ele><time>2022-06-12T09:37:48.000Z</time></trkpt><trkpt lon="5.744109" lat="51.144148"><ele>28.2</ele><time>2022-06-12T09:37:49.000Z</time></trkpt><trkpt lon="5.744046" lat="51.14419"><ele>28.4</ele><time>2022-06-12T09:37:50.000Z</time></trkpt><trkpt lon="5.743979" lat="51.144239"><ele>28.2</ele><time>2022-06-12T09:37:51.000Z</time></trkpt><trkpt lon="5.743908" lat="51.144285"><ele>28</ele><time>2022-06-12T09:37:52.000Z</time></trkpt><trkpt lon="5.74383" lat="51.144335"><ele>27.8</ele><time>2022-06-12T09:37:53.000Z</time></trkpt><trkpt lon="5.743757" lat="51.14438"><ele>27.8</ele><time>2022-06-12T09:37:54.000Z</time></trkpt><trkpt lon="5.743686" lat="51.14443"><ele>27.6</ele><time>2022-06-12T09:37:55.000Z</time></trkpt><trkpt lon="5.743618" lat="51.144476"><ele>27.6</ele><time>2022-06-12T09:37:56.000Z</time></trkpt><trkpt lon="5.743545" lat="51.144526"><ele>27.6</ele><time>2022-06-12T09:37:57.000Z</time></trkpt><trkpt lon="5.743473" lat="51.144572"><ele>27.6</ele><time>2022-06-12T09:37:58.000Z</time></trkpt><trkpt lon="5.743401" lat="51.144614"><ele>27.6</ele><time>2022-06-12T09:37:59.000Z</time></trkpt><trkpt lon="5.743329" lat="51.144659"><ele>27.8</ele><time>2022-06-12T09:38:00.000Z</time></trkpt><trkpt lon="5.743261" lat="51.144705"><ele>28</ele><time>2022-06-12T09:38:01.000Z</time></trkpt><trkpt lon="5.743192" lat="51.144751"><ele>28.2</ele><time>2022-06-12T09:38:02.000Z</time></trkpt><trkpt lon="5.743123" lat="51.144793"><ele>28.2</ele><time>2022-06-12T09:38:03.000Z</time></trkpt><trkpt lon="5.743056" lat="51.144839"><ele>28.4</ele><time>2022-06-12T09:38:04.000Z</time></trkpt><trkpt lon="5.742997" lat="51.144879"><ele>28.4</ele><time>2022-06-12T09:38:05.000Z</time></trkpt><trkpt lon="5.742942" lat="51.144919"><ele>28.4</ele><time>2022-06-12T09:38:06.000Z</time></trkpt><trkpt lon="5.742882" lat="51.144957"><ele>28.4</ele><time>2022-06-12T09:38:07.000Z</time></trkpt><trkpt lon="5.742813" lat="51.144991"><ele>28.4</ele><time>2022-06-12T09:38:08.000Z</time></trkpt><trkpt lon="5.742743" lat="51.145026"><ele>28.4</ele><time>2022-06-12T09:38:09.000Z</time></trkpt><trkpt lon="5.742674" lat="51.145064"><ele>28.6</ele><time>2022-06-12T09:38:10.000Z</time></trkpt><trkpt lon="5.742605" lat="51.145109"><ele>28.6</ele><time>2022-06-12T09:38:11.000Z</time></trkpt><trkpt lon="5.742537" lat="51.145151"><ele>28.6</ele><time>2022-06-12T09:38:12.000Z</time></trkpt><trkpt lon="5.742469" lat="51.145193"><ele>28.6</ele><time>2022-06-12T09:38:13.000Z</time></trkpt><trkpt lon="5.742411" lat="51.145233"><ele>28.6</ele><time>2022-06-12T09:38:14.000Z</time></trkpt><trkpt lon="5.742346" lat="51.145274"><ele>28.6</ele><time>2022-06-12T09:38:15.000Z</time></trkpt><trkpt lon="5.742287" lat="51.145312"><ele>28.6</ele><time>2022-06-12T09:38:16.000Z</time></trkpt><trkpt lon="5.742227" lat="51.14535"><ele>28.6</ele><time>2022-06-12T09:38:17.000Z</time></trkpt><trkpt lon="5.742173" lat="51.145388"><ele>28.8</ele><time>2022-06-12T09:38:18.000Z</time></trkpt><trkpt lon="5.74212" lat="51.145419"><ele>28.6</ele><time>2022-06-12T09:38:19.000Z</time></trkpt><trkpt lon="5.742083" lat="51.145456"><ele>28.6</ele><time>2022-06-12T09:38:20.000Z</time></trkpt><trkpt lon="5.742064" lat="51.145495"><ele>28.6</ele><time>2022-06-12T09:38:21.000Z</time></trkpt><trkpt lon="5.742081" lat="51.145526"><ele>28.6</ele><time>2022-06-12T09:38:22.000Z</time></trkpt><trkpt lon="5.742117" lat="51.145545"><ele>28.6</ele><time>2022-06-12T09:38:23.000Z</time></trkpt><trkpt lon="5.742173" lat="51.145564"><ele>28.6</ele><time>2022-06-12T09:38:24.000Z</time></trkpt><trkpt lon="5.742238" lat="51.145576"><ele>28.6</ele><time>2022-06-12T09:38:25.000Z</time></trkpt><trkpt lon="5.742301" lat="51.145591"><ele>28.6</ele><time>2022-06-12T09:38:26.000Z</time></trkpt><trkpt lon="5.742365" lat="51.145599"><ele>28.8</ele><time>2022-06-12T09:38:27.000Z</time></trkpt><trkpt lon="5.742435" lat="51.145607"><ele>28.8</ele><time>2022-06-12T09:38:28.000Z</time></trkpt><trkpt lon="5.742504" lat="51.145618"><ele>28.8</ele><time>2022-06-12T09:38:29.000Z</time></trkpt><trkpt lon="5.742575" lat="51.145636"><ele>28.8</ele><time>2022-06-12T09:38:30.000Z</time></trkpt><trkpt lon="5.742642" lat="51.14566"><ele>28.8</ele><time>2022-06-12T09:38:31.000Z</time></trkpt><trkpt lon="5.742711" lat="51.145686"><ele>28.8</ele><time>2022-06-12T09:38:32.000Z</time></trkpt><trkpt lon="5.742776" lat="51.145712"><ele>29</ele><time>2022-06-12T09:38:33.000Z</time></trkpt><trkpt lon="5.742847" lat="51.145732"><ele>29</ele><time>2022-06-12T09:38:34.000Z</time></trkpt></trkseg></trk></gpx>